<?xml version="1.0" encoding="UTF-8" standalone="no" ?><gpx xmlns="http://www.topografix.com/GPX/1/1" xmlns:gpxx="http://www.garmin.com/xmlschemas/GpxExtensions/v3" xmlns:wptx1="http://www.garmin.com/xmlschemas/WaypointExtension/v1" xmlns:gpxtpx="http://www.garmin.com/xmlschemas/TrackPointExtension/v1" creator="GuideVTT.com" version="1.1" xmlns:xsi="http://www.w3.org/2001/XMLSchema-instance" xsi:schemaLocation="http://www.topografix.com/GPX/1/1 http://www.topografix.com/GPX/1/1/gpx.xsd http://www.garmin.com/xmlschemas/GpxExtensions/v3 http://www8.garmin.com/xmlschemas/GpxExtensionsv3.xsd http://www.garmin.com/xmlschemas/WaypointExtension/v1 http://www8.garmin.com/xmlschemas/WaypointExtensionv1.xsd http://www.garmin.com/xmlschemas/TrackPointExtension/v1 http://www.garmin.com/xmlschemas/TrackPointExtensionv1.xsd">
<metadata><link href="http://www.garmin.com"><text>Garmin International</text></link><time>2013-06-22T15:13:50Z</time></metadata>
<trk><name>runtastic_20160921_1604_velo_de_course.gpx</name><extensions><gpxx:TrackExtension><gpxx:DisplayColor>Cyan</gpxx:DisplayColor></gpxx:TrackExtension></extensions><trkseg>
<trkpt lat="49.1501083374023438" lon="0.2224995493888855"><ele></ele><time>2016-10-9T7:39:57Z</time></trkpt>
<trkpt lat="49.1500778198242188" lon="0.2225154787302017"><ele></ele><time>2016-10-9T7:40:0Z</time></trkpt>
<trkpt lat="49.1500549316406250" lon="0.2225435525178909"><ele></ele><time>2016-10-9T7:40:3Z</time></trkpt>
<trkpt lat="49.1500167846679688" lon="0.2225745618343353"><ele></ele><time>2016-10-9T7:40:6Z</time></trkpt>
<trkpt lat="49.1499443054199219" lon="0.2226002216339111"><ele></ele><time>2016-10-9T7:40:9Z</time></trkpt>
<trkpt lat="49.1498107910156250" lon="0.2226344943046570"><ele></ele><time>2016-10-9T7:40:12Z</time></trkpt>
<trkpt lat="49.1496620178222656" lon="0.2226701229810715"><ele></ele><time>2016-10-9T7:40:15Z</time></trkpt>
<trkpt lat="49.1495780944824219" lon="0.2227087616920471"><ele></ele><time>2016-10-9T7:40:18Z</time></trkpt>
<trkpt lat="49.1494712829589844" lon="0.2227613180875778"><ele></ele><time>2016-10-9T7:40:21Z</time></trkpt>
<trkpt lat="49.1493721008300781" lon="0.2227785885334015"><ele></ele><time>2016-10-9T7:40:24Z</time></trkpt>
<trkpt lat="49.1492919921875000" lon="0.2228153795003891"><ele></ele><time>2016-10-9T7:40:27Z</time></trkpt>
<trkpt lat="49.1491775512695312" lon="0.2228709459304810"><ele></ele><time>2016-10-9T7:40:30Z</time></trkpt>
<trkpt lat="49.1490707397460938" lon="0.2229095101356506"><ele></ele><time>2016-10-9T7:40:33Z</time></trkpt>
<trkpt lat="49.1490020751953125" lon="0.2229149490594864"><ele></ele><time>2016-10-9T7:40:36Z</time></trkpt>
<trkpt lat="49.1488914489746094" lon="0.2229585349559784"><ele></ele><time>2016-10-9T7:40:39Z</time></trkpt>
<trkpt lat="49.1488037109375000" lon="0.2230240851640701"><ele></ele><time>2016-10-9T7:40:42Z</time></trkpt>
<trkpt lat="49.1486930847167969" lon="0.2231489717960358"><ele></ele><time>2016-10-9T7:40:45Z</time></trkpt>
<trkpt lat="49.1486244201660156" lon="0.2231732010841370"><ele></ele><time>2016-10-9T7:40:48Z</time></trkpt>
<trkpt lat="49.1485061645507812" lon="0.2232170403003693"><ele></ele><time>2016-10-9T7:40:51Z</time></trkpt>
<trkpt lat="49.1483650207519531" lon="0.2233312875032425"><ele></ele><time>2016-10-9T7:40:54Z</time></trkpt>
<trkpt lat="49.1482582092285156" lon="0.2233822494745255"><ele></ele><time>2016-10-9T7:40:57Z</time></trkpt>
<trkpt lat="49.1481361389160156" lon="0.2234707623720169"><ele></ele><time>2016-10-9T7:41:0Z</time></trkpt>
<trkpt lat="49.1480598449707031" lon="0.2235382348299026"><ele></ele><time>2016-10-9T7:41:3Z</time></trkpt>
<trkpt lat="49.1479644775390625" lon="0.2236143350601196"><ele></ele><time>2016-10-9T7:41:6Z</time></trkpt>
<trkpt lat="49.1478424072265625" lon="0.2236968129873276"><ele></ele><time>2016-10-9T7:41:9Z</time></trkpt>
<trkpt lat="49.1477546691894531" lon="0.2237920314073563"><ele></ele><time>2016-10-9T7:41:12Z</time></trkpt>
<trkpt lat="49.1477775573730469" lon="0.2240466028451920"><ele></ele><time>2016-10-9T7:41:15Z</time></trkpt>
<trkpt lat="49.1478118896484375" lon="0.2241950333118439"><ele></ele><time>2016-10-9T7:41:18Z</time></trkpt>
<trkpt lat="49.1478652954101562" lon="0.2243665307760239"><ele></ele><time>2016-10-9T7:41:21Z</time></trkpt>
<trkpt lat="49.1479530334472656" lon="0.2245191633701324"><ele></ele><time>2016-10-9T7:41:24Z</time></trkpt>
<trkpt lat="49.1480026245117188" lon="0.2246495038270950"><ele></ele><time>2016-10-9T7:41:27Z</time></trkpt>
<trkpt lat="49.1480827331542969" lon="0.2248390167951584"><ele></ele><time>2016-10-9T7:41:30Z</time></trkpt>
<trkpt lat="49.1481056213378906" lon="0.2249830216169357"><ele></ele><time>2016-10-9T7:41:33Z</time></trkpt>
<trkpt lat="49.1481399536132812" lon="0.2251821756362915"><ele></ele><time>2016-10-9T7:41:36Z</time></trkpt>
<trkpt lat="49.1481933593750000" lon="0.2253921478986740"><ele></ele><time>2016-10-9T7:41:39Z</time></trkpt>
<trkpt lat="49.1482810974121094" lon="0.2256166040897369"><ele></ele><time>2016-10-9T7:41:42Z</time></trkpt>
<trkpt lat="49.1482658386230469" lon="0.2257634550333023"><ele></ele><time>2016-10-9T7:41:45Z</time></trkpt>
<trkpt lat="49.1482772827148438" lon="0.2258933037519455"><ele></ele><time>2016-10-9T7:41:48Z</time></trkpt>
<trkpt lat="49.1483039855957031" lon="0.2260767817497253"><ele></ele><time>2016-10-9T7:41:51Z</time></trkpt>
<trkpt lat="49.1483192443847656" lon="0.2262899279594421"><ele></ele><time>2016-10-9T7:41:54Z</time></trkpt>
<trkpt lat="49.1483535766601562" lon="0.2264753431081772"><ele></ele><time>2016-10-9T7:41:57Z</time></trkpt>
<trkpt lat="49.1483573913574219" lon="0.2265982180833817"><ele></ele><time>2016-10-9T7:42:0Z</time></trkpt>
<trkpt lat="49.1483764648437500" lon="0.2267966121435165"><ele></ele><time>2016-10-9T7:42:3Z</time></trkpt>
<trkpt lat="49.1483688354492188" lon="0.2268795073032379"><ele></ele><time>2016-10-9T7:42:6Z</time></trkpt>
<trkpt lat="49.1483650207519531" lon="0.2270374298095703"><ele></ele><time>2016-10-9T7:42:9Z</time></trkpt>
<trkpt lat="49.1483612060546875" lon="0.2271398603916168"><ele></ele><time>2016-10-9T7:42:12Z</time></trkpt>
<trkpt lat="49.1483688354492188" lon="0.2273015379905701"><ele></ele><time>2016-10-9T7:42:15Z</time></trkpt>
<trkpt lat="49.1483802795410156" lon="0.2274611294269562"><ele></ele><time>2016-10-9T7:42:18Z</time></trkpt>
<trkpt lat="49.1483840942382812" lon="0.2275658994913101"><ele></ele><time>2016-10-9T7:42:21Z</time></trkpt>
<trkpt lat="49.1483955383300781" lon="0.2277058809995651"><ele></ele><time>2016-10-9T7:42:24Z</time></trkpt>
<trkpt lat="49.1484031677246094" lon="0.2278229743242264"><ele></ele><time>2016-10-9T7:42:27Z</time></trkpt>
<trkpt lat="49.1483917236328125" lon="0.2279328703880310"><ele></ele><time>2016-10-9T7:42:30Z</time></trkpt>
<trkpt lat="49.1483764648437500" lon="0.2279959022998810"><ele></ele><time>2016-10-9T7:42:33Z</time></trkpt>
<trkpt lat="49.1483764648437500" lon="0.2280839085578918"><ele></ele><time>2016-10-9T7:42:36Z</time></trkpt>
<trkpt lat="49.1483879089355469" lon="0.2281758636236191"><ele></ele><time>2016-10-9T7:42:39Z</time></trkpt>
<trkpt lat="49.1483802795410156" lon="0.2282522171735764"><ele></ele><time>2016-10-9T7:42:42Z</time></trkpt>
<trkpt lat="49.1483535766601562" lon="0.2283059507608414"><ele></ele><time>2016-10-9T7:42:45Z</time></trkpt>
<trkpt lat="49.1483192443847656" lon="0.2283300906419754"><ele></ele><time>2016-10-9T7:42:48Z</time></trkpt>
<trkpt lat="49.1483154296875000" lon="0.2283828854560852"><ele></ele><time>2016-10-9T7:42:51Z</time></trkpt>
<trkpt lat="49.1483383178710938" lon="0.2285492718219757"><ele></ele><time>2016-10-9T7:42:54Z</time></trkpt>
<trkpt lat="49.1483383178710938" lon="0.2287298142910004"><ele></ele><time>2016-10-9T7:42:57Z</time></trkpt>
<trkpt lat="49.1483154296875000" lon="0.2288978695869446"><ele></ele><time>2016-10-9T7:43:0Z</time></trkpt>
<trkpt lat="49.1482963562011719" lon="0.2289994657039642"><ele></ele><time>2016-10-9T7:43:3Z</time></trkpt>
<trkpt lat="49.1482772827148438" lon="0.2291193306446075"><ele></ele><time>2016-10-9T7:43:6Z</time></trkpt>
<trkpt lat="49.1482620239257812" lon="0.2292207479476929"><ele></ele><time>2016-10-9T7:43:9Z</time></trkpt>
<trkpt lat="49.1482505798339844" lon="0.2293059825897217"><ele></ele><time>2016-10-9T7:43:12Z</time></trkpt>
<trkpt lat="49.1482238769531250" lon="0.2294365763664246"><ele></ele><time>2016-10-9T7:43:15Z</time></trkpt>
<trkpt lat="49.1481933593750000" lon="0.2295292764902115"><ele></ele><time>2016-10-9T7:43:18Z</time></trkpt>
<trkpt lat="49.1481704711914062" lon="0.2296239137649536"><ele></ele><time>2016-10-9T7:43:21Z</time></trkpt>
<trkpt lat="49.1481513977050781" lon="0.2297208160161972"><ele></ele><time>2016-10-9T7:43:24Z</time></trkpt>
<trkpt lat="49.1481437683105469" lon="0.2298186272382736"><ele></ele><time>2016-10-9T7:43:27Z</time></trkpt>
<trkpt lat="49.1481323242187500" lon="0.2299571782350540"><ele></ele><time>2016-10-9T7:43:30Z</time></trkpt>
<trkpt lat="49.1481323242187500" lon="0.2300866842269897"><ele></ele><time>2016-10-9T7:43:33Z</time></trkpt>
<trkpt lat="49.1481361389160156" lon="0.2301637977361679"><ele></ele><time>2016-10-9T7:43:36Z</time></trkpt>
<trkpt lat="49.1481437683105469" lon="0.2302827388048172"><ele></ele><time>2016-10-9T7:43:39Z</time></trkpt>
<trkpt lat="49.1481513977050781" lon="0.2303585857152939"><ele></ele><time>2016-10-9T7:43:42Z</time></trkpt>
<trkpt lat="49.1481628417968750" lon="0.2304782867431641"><ele></ele><time>2016-10-9T7:43:45Z</time></trkpt>
<trkpt lat="49.1481819152832031" lon="0.2305706441402435"><ele></ele><time>2016-10-9T7:43:48Z</time></trkpt>
<trkpt lat="49.1482086181640625" lon="0.2307115495204926"><ele></ele><time>2016-10-9T7:43:51Z</time></trkpt>
<trkpt lat="49.1482162475585938" lon="0.2308003157377243"><ele></ele><time>2016-10-9T7:43:54Z</time></trkpt>
<trkpt lat="49.1482315063476562" lon="0.2309288084506989"><ele></ele><time>2016-10-9T7:43:57Z</time></trkpt>
<trkpt lat="49.1482391357421875" lon="0.2310533672571182"><ele></ele><time>2016-10-9T7:44:0Z</time></trkpt>
<trkpt lat="49.1482429504394531" lon="0.2311750650405884"><ele></ele><time>2016-10-9T7:44:3Z</time></trkpt>
<trkpt lat="49.1482582092285156" lon="0.2313011288642883"><ele></ele><time>2016-10-9T7:44:6Z</time></trkpt>
<trkpt lat="49.1482696533203125" lon="0.2314357459545135"><ele></ele><time>2016-10-9T7:44:9Z</time></trkpt>
<trkpt lat="49.1482810974121094" lon="0.2315788269042969"><ele></ele><time>2016-10-9T7:44:12Z</time></trkpt>
<trkpt lat="49.1482810974121094" lon="0.2316710203886032"><ele></ele><time>2016-10-9T7:44:15Z</time></trkpt>
<trkpt lat="49.1482696533203125" lon="0.2318186312913895"><ele></ele><time>2016-10-9T7:44:18Z</time></trkpt>
<trkpt lat="49.1482543945312500" lon="0.2319631427526474"><ele></ele><time>2016-10-9T7:44:21Z</time></trkpt>
<trkpt lat="49.1482353210449219" lon="0.2321009337902069"><ele></ele><time>2016-10-9T7:44:24Z</time></trkpt>
<trkpt lat="49.1482467651367188" lon="0.2322383075952530"><ele></ele><time>2016-10-9T7:44:27Z</time></trkpt>
<trkpt lat="49.1482887268066406" lon="0.2323702424764633"><ele></ele><time>2016-10-9T7:44:30Z</time></trkpt>
<trkpt lat="49.1483345031738281" lon="0.2324455976486206"><ele></ele><time>2016-10-9T7:44:33Z</time></trkpt>
<trkpt lat="49.1483650207519531" lon="0.2325283288955688"><ele></ele><time>2016-10-9T7:44:36Z</time></trkpt>
<trkpt lat="49.1483917236328125" lon="0.2326810508966446"><ele></ele><time>2016-10-9T7:44:39Z</time></trkpt>
<trkpt lat="49.1484222412109375" lon="0.2328330129384995"><ele></ele><time>2016-10-9T7:44:42Z</time></trkpt>
<trkpt lat="49.1484642028808594" lon="0.2329239547252655"><ele></ele><time>2016-10-9T7:44:45Z</time></trkpt>
<trkpt lat="49.1485099792480469" lon="0.2330026626586914"><ele></ele><time>2016-10-9T7:44:48Z</time></trkpt>
<trkpt lat="49.1485443115234375" lon="0.2330741584300995"><ele></ele><time>2016-10-9T7:44:51Z</time></trkpt>
<trkpt lat="49.1486015319824219" lon="0.2331909984350204"><ele></ele><time>2016-10-9T7:44:54Z</time></trkpt>
<trkpt lat="49.1486625671386719" lon="0.2333026528358459"><ele></ele><time>2016-10-9T7:44:57Z</time></trkpt>
<trkpt lat="49.1486892700195312" lon="0.2333728075027466"><ele></ele><time>2016-10-9T7:45:0Z</time></trkpt>
<trkpt lat="49.1487159729003906" lon="0.2334501743316650"><ele></ele><time>2016-10-9T7:45:3Z</time></trkpt>
<trkpt lat="49.1487541198730469" lon="0.2335706949234009"><ele></ele><time>2016-10-9T7:45:6Z</time></trkpt>
<trkpt lat="49.1487808227539062" lon="0.2336890548467636"><ele></ele><time>2016-10-9T7:45:9Z</time></trkpt>
<trkpt lat="49.1487998962402344" lon="0.2338037192821503"><ele></ele><time>2016-10-9T7:45:12Z</time></trkpt>
<trkpt lat="49.1488151550292969" lon="0.2339224070310593"><ele></ele><time>2016-10-9T7:45:15Z</time></trkpt>
<trkpt lat="49.1488304138183594" lon="0.2340046316385269"><ele></ele><time>2016-10-9T7:45:18Z</time></trkpt>
<trkpt lat="49.1488456726074219" lon="0.2340803146362305"><ele></ele><time>2016-10-9T7:45:21Z</time></trkpt>
<trkpt lat="49.1488609313964844" lon="0.2341486364603043"><ele></ele><time>2016-10-9T7:45:24Z</time></trkpt>
<trkpt lat="49.1488494873046875" lon="0.2342244833707809"><ele></ele><time>2016-10-9T7:45:27Z</time></trkpt>
<trkpt lat="49.1488304138183594" lon="0.2343438416719437"><ele></ele><time>2016-10-9T7:45:30Z</time></trkpt>
<trkpt lat="49.1488380432128906" lon="0.2344238907098770"><ele></ele><time>2016-10-9T7:45:33Z</time></trkpt>
<trkpt lat="49.1488533020019531" lon="0.2344929575920105"><ele></ele><time>2016-10-9T7:45:36Z</time></trkpt>
<trkpt lat="49.1488761901855469" lon="0.2346024364233017"><ele></ele><time>2016-10-9T7:45:39Z</time></trkpt>
<trkpt lat="49.1488990783691406" lon="0.2347119003534317"><ele></ele><time>2016-10-9T7:45:42Z</time></trkpt>
<trkpt lat="49.1489219665527344" lon="0.2348165810108185"><ele></ele><time>2016-10-9T7:45:45Z</time></trkpt>
<trkpt lat="49.1489486694335938" lon="0.2349258065223694"><ele></ele><time>2016-10-9T7:45:48Z</time></trkpt>
<trkpt lat="49.1489601135253906" lon="0.2349984794855118"><ele></ele><time>2016-10-9T7:45:51Z</time></trkpt>
<trkpt lat="49.1489715576171875" lon="0.2351228594779968"><ele></ele><time>2016-10-9T7:45:54Z</time></trkpt>
<trkpt lat="49.1489830017089844" lon="0.2352020740509033"><ele></ele><time>2016-10-9T7:45:57Z</time></trkpt>
<trkpt lat="49.1490325927734375" lon="0.2353329956531525"><ele></ele><time>2016-10-9T7:46:0Z</time></trkpt>
<trkpt lat="49.1490936279296875" lon="0.2354503422975540"><ele></ele><time>2016-10-9T7:46:3Z</time></trkpt>
<trkpt lat="49.1491127014160156" lon="0.2355409562587738"><ele></ele><time>2016-10-9T7:46:6Z</time></trkpt>
<trkpt lat="49.1491317749023438" lon="0.2356280386447906"><ele></ele><time>2016-10-9T7:46:9Z</time></trkpt>
<trkpt lat="49.1491470336914062" lon="0.2357048988342285"><ele></ele><time>2016-10-9T7:46:12Z</time></trkpt>
<trkpt lat="49.1491622924804688" lon="0.2357738912105560"><ele></ele><time>2016-10-9T7:46:15Z</time></trkpt>
<trkpt lat="49.1491889953613281" lon="0.2358714491128922"><ele></ele><time>2016-10-9T7:46:18Z</time></trkpt>
<trkpt lat="49.1492080688476562" lon="0.2359292060136795"><ele></ele><time>2016-10-9T7:46:21Z</time></trkpt>
<trkpt lat="49.1492271423339844" lon="0.2360166311264038"><ele></ele><time>2016-10-9T7:46:24Z</time></trkpt>
<trkpt lat="49.1492576599121094" lon="0.2361197173595428"><ele></ele><time>2016-10-9T7:46:27Z</time></trkpt>
<trkpt lat="49.1492843627929688" lon="0.2361873686313629"><ele></ele><time>2016-10-9T7:46:30Z</time></trkpt>
<trkpt lat="49.1493148803710938" lon="0.2362882792949677"><ele></ele><time>2016-10-9T7:46:33Z</time></trkpt>
<trkpt lat="49.1493148803710938" lon="0.2363718450069427"><ele></ele><time>2016-10-9T7:46:36Z</time></trkpt>
<trkpt lat="49.1493148803710938" lon="0.2364875972270966"><ele></ele><time>2016-10-9T7:46:39Z</time></trkpt>
<trkpt lat="49.1493377685546875" lon="0.2366011738777161"><ele></ele><time>2016-10-9T7:46:42Z</time></trkpt>
<trkpt lat="49.1493682861328125" lon="0.2366870939731598"><ele></ele><time>2016-10-9T7:46:45Z</time></trkpt>
<trkpt lat="49.1493949890136719" lon="0.2367705702781677"><ele></ele><time>2016-10-9T7:46:48Z</time></trkpt>
<trkpt lat="49.1494331359863281" lon="0.2368868291378021"><ele></ele><time>2016-10-9T7:46:51Z</time></trkpt>
<trkpt lat="49.1494674682617188" lon="0.2369662970304489"><ele></ele><time>2016-10-9T7:46:54Z</time></trkpt>
<trkpt lat="49.1495132446289062" lon="0.2370804548263550"><ele></ele><time>2016-10-9T7:46:57Z</time></trkpt>
<trkpt lat="49.1495323181152344" lon="0.2371883243322372"><ele></ele><time>2016-10-9T7:47:0Z</time></trkpt>
<trkpt lat="49.1495704650878906" lon="0.2373022437095642"><ele></ele><time>2016-10-9T7:47:3Z</time></trkpt>
<trkpt lat="49.1495933532714844" lon="0.2374173253774643"><ele></ele><time>2016-10-9T7:47:6Z</time></trkpt>
<trkpt lat="49.1495971679687500" lon="0.2374947667121887"><ele></ele><time>2016-10-9T7:47:9Z</time></trkpt>
<trkpt lat="49.1495971679687500" lon="0.2376060038805008"><ele></ele><time>2016-10-9T7:47:12Z</time></trkpt>
<trkpt lat="49.1496009826660156" lon="0.2376791685819626"><ele></ele><time>2016-10-9T7:47:15Z</time></trkpt>
<trkpt lat="49.1496086120605469" lon="0.2377495020627975"><ele></ele><time>2016-10-9T7:47:18Z</time></trkpt>
<trkpt lat="49.1496162414550781" lon="0.2378183156251907"><ele></ele><time>2016-10-9T7:47:21Z</time></trkpt>
<trkpt lat="49.1496238708496094" lon="0.2379240989685059"><ele></ele><time>2016-10-9T7:47:24Z</time></trkpt>
<trkpt lat="49.1496353149414062" lon="0.2379983514547348"><ele></ele><time>2016-10-9T7:47:27Z</time></trkpt>
<trkpt lat="49.1496505737304688" lon="0.2380715310573578"><ele></ele><time>2016-10-9T7:47:30Z</time></trkpt>
<trkpt lat="49.1496620178222656" lon="0.2381692677736282"><ele></ele><time>2016-10-9T7:47:33Z</time></trkpt>
<trkpt lat="49.1496658325195312" lon="0.2382701039314270"><ele></ele><time>2016-10-9T7:47:36Z</time></trkpt>
<trkpt lat="49.1496772766113281" lon="0.2383752018213272"><ele></ele><time>2016-10-9T7:47:39Z</time></trkpt>
<trkpt lat="49.1496849060058594" lon="0.2384427636861801"><ele></ele><time>2016-10-9T7:47:42Z</time></trkpt>
<trkpt lat="49.1497116088867188" lon="0.2385426014661789"><ele></ele><time>2016-10-9T7:47:45Z</time></trkpt>
<trkpt lat="49.1497306823730469" lon="0.2386464476585388"><ele></ele><time>2016-10-9T7:47:48Z</time></trkpt>
<trkpt lat="49.1497344970703125" lon="0.2387170195579529"><ele></ele><time>2016-10-9T7:47:51Z</time></trkpt>
<trkpt lat="49.1497459411621094" lon="0.2388257384300232"><ele></ele><time>2016-10-9T7:47:54Z</time></trkpt>
<trkpt lat="49.1497611999511719" lon="0.2389364540576935"><ele></ele><time>2016-10-9T7:47:57Z</time></trkpt>
<trkpt lat="49.1497688293457031" lon="0.2390072047710419"><ele></ele><time>2016-10-9T7:48:0Z</time></trkpt>
<trkpt lat="49.1497840881347656" lon="0.2390754371881485"><ele></ele><time>2016-10-9T7:48:3Z</time></trkpt>
<trkpt lat="49.1497840881347656" lon="0.2391378730535507"><ele></ele><time>2016-10-9T7:48:6Z</time></trkpt>
<trkpt lat="49.1497688293457031" lon="0.2391965538263321"><ele></ele><time>2016-10-9T7:48:9Z</time></trkpt>
<trkpt lat="49.1497802734375000" lon="0.2392869144678116"><ele></ele><time>2016-10-9T7:48:12Z</time></trkpt>
<trkpt lat="49.1497879028320312" lon="0.2393507808446884"><ele></ele><time>2016-10-9T7:48:15Z</time></trkpt>
<trkpt lat="49.1497955322265625" lon="0.2394203543663025"><ele></ele><time>2016-10-9T7:48:18Z</time></trkpt>
<trkpt lat="49.1498031616210938" lon="0.2394890785217285"><ele></ele><time>2016-10-9T7:48:21Z</time></trkpt>
<trkpt lat="49.1498184204101562" lon="0.2395824491977692"><ele></ele><time>2016-10-9T7:48:24Z</time></trkpt>
<trkpt lat="49.1498260498046875" lon="0.2396360188722610"><ele></ele><time>2016-10-9T7:48:27Z</time></trkpt>
<trkpt lat="49.1498336791992188" lon="0.2396920025348663"><ele></ele><time>2016-10-9T7:48:30Z</time></trkpt>
<trkpt lat="49.1498413085937500" lon="0.2397837936878204"><ele></ele><time>2016-10-9T7:48:33Z</time></trkpt>
<trkpt lat="49.1498451232910156" lon="0.2398416996002197"><ele></ele><time>2016-10-9T7:48:36Z</time></trkpt>
<trkpt lat="49.1498413085937500" lon="0.2398981153964996"><ele></ele><time>2016-10-9T7:48:39Z</time></trkpt>
<trkpt lat="49.1498413085937500" lon="0.2399528473615646"><ele></ele><time>2016-10-9T7:48:42Z</time></trkpt>
<trkpt lat="49.1498413085937500" lon="0.2400062382221222"><ele></ele><time>2016-10-9T7:48:45Z</time></trkpt>
<trkpt lat="49.1498451232910156" lon="0.2400907278060913"><ele></ele><time>2016-10-9T7:48:48Z</time></trkpt>
<trkpt lat="49.1498489379882812" lon="0.2401922345161438"><ele></ele><time>2016-10-9T7:48:51Z</time></trkpt>
<trkpt lat="49.1498565673828125" lon="0.2403003573417664"><ele></ele><time>2016-10-9T7:48:54Z</time></trkpt>
<trkpt lat="49.1498641967773438" lon="0.2403733730316162"><ele></ele><time>2016-10-9T7:48:57Z</time></trkpt>
<trkpt lat="49.1498794555664062" lon="0.2404706776142120"><ele></ele><time>2016-10-9T7:49:0Z</time></trkpt>
<trkpt lat="49.1498908996582031" lon="0.2405623048543930"><ele></ele><time>2016-10-9T7:49:3Z</time></trkpt>
<trkpt lat="49.1498947143554688" lon="0.2406214773654938"><ele></ele><time>2016-10-9T7:49:6Z</time></trkpt>
<trkpt lat="49.1498947143554688" lon="0.2407156080007553"><ele></ele><time>2016-10-9T7:49:9Z</time></trkpt>
<trkpt lat="49.1498985290527344" lon="0.2407780438661575"><ele></ele><time>2016-10-9T7:49:12Z</time></trkpt>
<trkpt lat="49.1498947143554688" lon="0.2408404052257538"><ele></ele><time>2016-10-9T7:49:15Z</time></trkpt>
<trkpt lat="49.1498985290527344" lon="0.2409285008907318"><ele></ele><time>2016-10-9T7:49:18Z</time></trkpt>
<trkpt lat="49.1499061584472656" lon="0.2410223037004471"><ele></ele><time>2016-10-9T7:49:21Z</time></trkpt>
<trkpt lat="49.1499099731445312" lon="0.2410901933908463"><ele></ele><time>2016-10-9T7:49:24Z</time></trkpt>
<trkpt lat="49.1499176025390625" lon="0.2411873340606689"><ele></ele><time>2016-10-9T7:49:27Z</time></trkpt>
<trkpt lat="49.1499176025390625" lon="0.2412607669830322"><ele></ele><time>2016-10-9T7:49:30Z</time></trkpt>
<trkpt lat="49.1499290466308594" lon="0.2413656264543533"><ele></ele><time>2016-10-9T7:49:33Z</time></trkpt>
<trkpt lat="49.1499290466308594" lon="0.2414568960666656"><ele></ele><time>2016-10-9T7:49:36Z</time></trkpt>
<trkpt lat="49.1499328613281250" lon="0.2415162473917007"><ele></ele><time>2016-10-9T7:49:39Z</time></trkpt>
<trkpt lat="49.1499366760253906" lon="0.2416112124919891"><ele></ele><time>2016-10-9T7:49:42Z</time></trkpt>
<trkpt lat="49.1499404907226562" lon="0.2416769266128540"><ele></ele><time>2016-10-9T7:49:45Z</time></trkpt>
<trkpt lat="49.1499443054199219" lon="0.2417726516723633"><ele></ele><time>2016-10-9T7:49:48Z</time></trkpt>
<trkpt lat="49.1499481201171875" lon="0.2418365180492401"><ele></ele><time>2016-10-9T7:49:51Z</time></trkpt>
<trkpt lat="49.1499404907226562" lon="0.2419507652521133"><ele></ele><time>2016-10-9T7:49:54Z</time></trkpt>
<trkpt lat="49.1499328613281250" lon="0.2420298010110855"><ele></ele><time>2016-10-9T7:49:57Z</time></trkpt>
<trkpt lat="49.1499176025390625" lon="0.2421294599771500"><ele></ele><time>2016-10-9T7:50:0Z</time></trkpt>
<trkpt lat="49.1499023437500000" lon="0.2421927452087402"><ele></ele><time>2016-10-9T7:50:3Z</time></trkpt>
<trkpt lat="49.1498870849609375" lon="0.2422554492950439"><ele></ele><time>2016-10-9T7:50:6Z</time></trkpt>
<trkpt lat="49.1498641967773438" lon="0.2423514127731323"><ele></ele><time>2016-10-9T7:50:9Z</time></trkpt>
<trkpt lat="49.1498565673828125" lon="0.2424198985099792"><ele></ele><time>2016-10-9T7:50:12Z</time></trkpt>
<trkpt lat="49.1498641967773438" lon="0.2425297796726227"><ele></ele><time>2016-10-9T7:50:15Z</time></trkpt>
<trkpt lat="49.1498718261718750" lon="0.2425951659679413"><ele></ele><time>2016-10-9T7:50:18Z</time></trkpt>
<trkpt lat="49.1498565673828125" lon="0.2426830083131790"><ele></ele><time>2016-10-9T7:50:21Z</time></trkpt>
<trkpt lat="49.1498527526855469" lon="0.2427758723497391"><ele></ele><time>2016-10-9T7:50:24Z</time></trkpt>
<trkpt lat="49.1498451232910156" lon="0.2428439408540726"><ele></ele><time>2016-10-9T7:50:27Z</time></trkpt>
<trkpt lat="49.1498298645019531" lon="0.2429235577583313"><ele></ele><time>2016-10-9T7:50:30Z</time></trkpt>
<trkpt lat="49.1498184204101562" lon="0.2430015951395035"><ele></ele><time>2016-10-9T7:50:33Z</time></trkpt>
<trkpt lat="49.1498107910156250" lon="0.2431144267320633"><ele></ele><time>2016-10-9T7:50:36Z</time></trkpt>
<trkpt lat="49.1498184204101562" lon="0.2432322651147842"><ele></ele><time>2016-10-9T7:50:39Z</time></trkpt>
<trkpt lat="49.1498336791992188" lon="0.2433115690946579"><ele></ele><time>2016-10-9T7:50:42Z</time></trkpt>
<trkpt lat="49.1498298645019531" lon="0.2433886826038361"><ele></ele><time>2016-10-9T7:50:45Z</time></trkpt>
<trkpt lat="49.1498260498046875" lon="0.2435014098882675"><ele></ele><time>2016-10-9T7:50:48Z</time></trkpt>
<trkpt lat="49.1498184204101562" lon="0.2436148971319199"><ele></ele><time>2016-10-9T7:50:51Z</time></trkpt>
<trkpt lat="49.1498146057128906" lon="0.2436903417110443"><ele></ele><time>2016-10-9T7:50:54Z</time></trkpt>
<trkpt lat="49.1498336791992188" lon="0.2438131421804428"><ele></ele><time>2016-10-9T7:50:57Z</time></trkpt>
<trkpt lat="49.1498565673828125" lon="0.2438991367816925"><ele></ele><time>2016-10-9T7:51:0Z</time></trkpt>
<trkpt lat="49.1498870849609375" lon="0.2440444827079773"><ele></ele><time>2016-10-9T7:51:3Z</time></trkpt>
<trkpt lat="49.1498947143554688" lon="0.2441433817148209"><ele></ele><time>2016-10-9T7:51:6Z</time></trkpt>
<trkpt lat="49.1499137878417969" lon="0.2442378401756287"><ele></ele><time>2016-10-9T7:51:9Z</time></trkpt>
<trkpt lat="49.1499519348144531" lon="0.2443693578243256"><ele></ele><time>2016-10-9T7:51:12Z</time></trkpt>
<trkpt lat="49.1499748229980469" lon="0.2444624751806259"><ele></ele><time>2016-10-9T7:51:15Z</time></trkpt>
<trkpt lat="49.1499977111816406" lon="0.2445490658283234"><ele></ele><time>2016-10-9T7:51:18Z</time></trkpt>
<trkpt lat="49.1500244140625000" lon="0.2446801662445068"><ele></ele><time>2016-10-9T7:51:21Z</time></trkpt>
<trkpt lat="49.1500473022460938" lon="0.2448158562183380"><ele></ele><time>2016-10-9T7:51:24Z</time></trkpt>
<trkpt lat="49.1500625610351562" lon="0.2449063807725906"><ele></ele><time>2016-10-9T7:51:27Z</time></trkpt>
<trkpt lat="49.1500930786132812" lon="0.2450334578752518"><ele></ele><time>2016-10-9T7:51:30Z</time></trkpt>
<trkpt lat="49.1501274108886719" lon="0.2451633810997009"><ele></ele><time>2016-10-9T7:51:33Z</time></trkpt>
<trkpt lat="49.1501617431640625" lon="0.2452963143587112"><ele></ele><time>2016-10-9T7:51:36Z</time></trkpt>
<trkpt lat="49.1501998901367188" lon="0.2454210370779037"><ele></ele><time>2016-10-9T7:51:39Z</time></trkpt>
<trkpt lat="49.1502456665039062" lon="0.2455686479806900"><ele></ele><time>2016-10-9T7:51:42Z</time></trkpt>
<trkpt lat="49.1502952575683594" lon="0.2457214444875717"><ele></ele><time>2016-10-9T7:51:45Z</time></trkpt>
<trkpt lat="49.1503219604492188" lon="0.2458858937025070"><ele></ele><time>2016-10-9T7:51:48Z</time></trkpt>
<trkpt lat="49.1503181457519531" lon="0.2460073530673981"><ele></ele><time>2016-10-9T7:51:51Z</time></trkpt>
<trkpt lat="49.1503295898437500" lon="0.2461209297180176"><ele></ele><time>2016-10-9T7:51:54Z</time></trkpt>
<trkpt lat="49.1503486633300781" lon="0.2462757378816605"><ele></ele><time>2016-10-9T7:51:57Z</time></trkpt>
<trkpt lat="49.1503791809082031" lon="0.2464522570371628"><ele></ele><time>2016-10-9T7:52:0Z</time></trkpt>
<trkpt lat="49.1504058837890625" lon="0.2465825229883194"><ele></ele><time>2016-10-9T7:52:3Z</time></trkpt>
<trkpt lat="49.1504478454589844" lon="0.2467685937881470"><ele></ele><time>2016-10-9T7:52:6Z</time></trkpt>
<trkpt lat="49.1504821777343750" lon="0.2469542473554611"><ele></ele><time>2016-10-9T7:52:9Z</time></trkpt>
<trkpt lat="49.1505088806152344" lon="0.2470756173133850"><ele></ele><time>2016-10-9T7:52:12Z</time></trkpt>
<trkpt lat="49.1505546569824219" lon="0.2472513020038605"><ele></ele><time>2016-10-9T7:52:15Z</time></trkpt>
<trkpt lat="49.1505851745605469" lon="0.2473680675029755"><ele></ele><time>2016-10-9T7:52:18Z</time></trkpt>
<trkpt lat="49.1506156921386719" lon="0.2474849969148636"><ele></ele><time>2016-10-9T7:52:21Z</time></trkpt>
<trkpt lat="49.1506614685058594" lon="0.2476750910282135"><ele></ele><time>2016-10-9T7:52:24Z</time></trkpt>
<trkpt lat="49.1506881713867188" lon="0.2478059381246567"><ele></ele><time>2016-10-9T7:52:27Z</time></trkpt>
<trkpt lat="49.1507225036621094" lon="0.2479935288429260"><ele></ele><time>2016-10-9T7:52:30Z</time></trkpt>
<trkpt lat="49.1507453918457031" lon="0.2481076866388321"><ele></ele><time>2016-10-9T7:52:33Z</time></trkpt>
<trkpt lat="49.1507873535156250" lon="0.2482987940311432"><ele></ele><time>2016-10-9T7:52:36Z</time></trkpt>
<trkpt lat="49.1508293151855469" lon="0.2484864592552185"><ele></ele><time>2016-10-9T7:52:39Z</time></trkpt>
<trkpt lat="49.1508750915527344" lon="0.2486634850502014"><ele></ele><time>2016-10-9T7:52:42Z</time></trkpt>
<trkpt lat="49.1509132385253906" lon="0.2488446235656738"><ele></ele><time>2016-10-9T7:52:45Z</time></trkpt>
<trkpt lat="49.1509590148925781" lon="0.2490255832672119"><ele></ele><time>2016-10-9T7:52:48Z</time></trkpt>
<trkpt lat="49.1509857177734375" lon="0.2491447776556015"><ele></ele><time>2016-10-9T7:52:51Z</time></trkpt>
<trkpt lat="49.1510200500488281" lon="0.2493559271097183"><ele></ele><time>2016-10-9T7:52:54Z</time></trkpt>
<trkpt lat="49.1510658264160156" lon="0.2495530694723129"><ele></ele><time>2016-10-9T7:52:57Z</time></trkpt>
<trkpt lat="49.1510353088378906" lon="0.2497029304504395"><ele></ele><time>2016-10-9T7:53:0Z</time></trkpt>
<trkpt lat="49.1510391235351562" lon="0.2498965561389923"><ele></ele><time>2016-10-9T7:53:3Z</time></trkpt>
<trkpt lat="49.1510543823242188" lon="0.2500947713851929"><ele></ele><time>2016-10-9T7:53:6Z</time></trkpt>
<trkpt lat="49.1510505676269531" lon="0.2503330111503601"><ele></ele><time>2016-10-9T7:53:9Z</time></trkpt>
<trkpt lat="49.1510467529296875" lon="0.2504750788211823"><ele></ele><time>2016-10-9T7:53:12Z</time></trkpt>
<trkpt lat="49.1510162353515625" lon="0.2506166398525238"><ele></ele><time>2016-10-9T7:53:15Z</time></trkpt>
<trkpt lat="49.1510925292968750" lon="0.2509458959102631"><ele></ele><time>2016-10-9T7:53:18Z</time></trkpt>
<trkpt lat="49.1511535644531250" lon="0.2512329518795013"><ele></ele><time>2016-10-9T7:53:21Z</time></trkpt>
<trkpt lat="49.1512336730957031" lon="0.2515270709991455"><ele></ele><time>2016-10-9T7:53:24Z</time></trkpt>
<trkpt lat="49.1513137817382812" lon="0.2517708241939545"><ele></ele><time>2016-10-9T7:53:27Z</time></trkpt>
<trkpt lat="49.1514244079589844" lon="0.2519441545009613"><ele></ele><time>2016-10-9T7:53:30Z</time></trkpt>
<trkpt lat="49.1514930725097656" lon="0.2521392107009888"><ele></ele><time>2016-10-9T7:53:33Z</time></trkpt>
<trkpt lat="49.1515121459960938" lon="0.2523662745952606"><ele></ele><time>2016-10-9T7:53:36Z</time></trkpt>
<trkpt lat="49.1515312194824219" lon="0.2525428831577301"><ele></ele><time>2016-10-9T7:53:39Z</time></trkpt>
<trkpt lat="49.1515808105468750" lon="0.2527646720409393"><ele></ele><time>2016-10-9T7:53:42Z</time></trkpt>
<trkpt lat="49.1516532897949219" lon="0.2529626488685608"><ele></ele><time>2016-10-9T7:53:45Z</time></trkpt>
<trkpt lat="49.1517181396484375" lon="0.2531701922416687"><ele></ele><time>2016-10-9T7:53:48Z</time></trkpt>
<trkpt lat="49.1517715454101562" lon="0.2533772289752960"><ele></ele><time>2016-10-9T7:53:51Z</time></trkpt>
<trkpt lat="49.1518173217773438" lon="0.2535040378570557"><ele></ele><time>2016-10-9T7:53:54Z</time></trkpt>
<trkpt lat="49.1518669128417969" lon="0.2537138462066650"><ele></ele><time>2016-10-9T7:53:57Z</time></trkpt>
<trkpt lat="49.1519088745117188" lon="0.2539055347442627"><ele></ele><time>2016-10-9T7:54:0Z</time></trkpt>
<trkpt lat="49.1519660949707031" lon="0.2540888488292694"><ele></ele><time>2016-10-9T7:54:3Z</time></trkpt>
<trkpt lat="49.1519927978515625" lon="0.2542210221290588"><ele></ele><time>2016-10-9T7:54:6Z</time></trkpt>
<trkpt lat="49.1520233154296875" lon="0.2543675303459167"><ele></ele><time>2016-10-9T7:54:9Z</time></trkpt>
<trkpt lat="49.1520881652832031" lon="0.2545802891254425"><ele></ele><time>2016-10-9T7:54:12Z</time></trkpt>
<trkpt lat="49.1521415710449219" lon="0.2547878026962280"><ele></ele><time>2016-10-9T7:54:15Z</time></trkpt>
<trkpt lat="49.1521377563476562" lon="0.2549719512462616"><ele></ele><time>2016-10-9T7:54:18Z</time></trkpt>
<trkpt lat="49.1521148681640625" lon="0.2551661729812622"><ele></ele><time>2016-10-9T7:54:21Z</time></trkpt>
<trkpt lat="49.1521263122558594" lon="0.2553729414939880"><ele></ele><time>2016-10-9T7:54:24Z</time></trkpt>
<trkpt lat="49.1522254943847656" lon="0.2555631399154663"><ele></ele><time>2016-10-9T7:54:27Z</time></trkpt>
<trkpt lat="49.1522483825683594" lon="0.2556896209716797"><ele></ele><time>2016-10-9T7:54:30Z</time></trkpt>
<trkpt lat="49.1523017883300781" lon="0.2559000849723816"><ele></ele><time>2016-10-9T7:54:33Z</time></trkpt>
<trkpt lat="49.1523590087890625" lon="0.2560552358627319"><ele></ele><time>2016-10-9T7:54:36Z</time></trkpt>
<trkpt lat="49.1523895263671875" lon="0.2562378942966461"><ele></ele><time>2016-10-9T7:54:39Z</time></trkpt>
<trkpt lat="49.1524276733398438" lon="0.2563714087009430"><ele></ele><time>2016-10-9T7:54:42Z</time></trkpt>
<trkpt lat="49.1524848937988281" lon="0.2565953731536865"><ele></ele><time>2016-10-9T7:54:45Z</time></trkpt>
<trkpt lat="49.1525115966796875" lon="0.2567960321903229"><ele></ele><time>2016-10-9T7:54:48Z</time></trkpt>
<trkpt lat="49.1525573730468750" lon="0.2570075094699860"><ele></ele><time>2016-10-9T7:54:51Z</time></trkpt>
<trkpt lat="49.1525955200195312" lon="0.2571546137332916"><ele></ele><time>2016-10-9T7:54:54Z</time></trkpt>
<trkpt lat="49.1526451110839844" lon="0.2573011219501495"><ele></ele><time>2016-10-9T7:54:57Z</time></trkpt>
<trkpt lat="49.1526641845703125" lon="0.2574503123760223"><ele></ele><time>2016-10-9T7:55:0Z</time></trkpt>
<trkpt lat="49.1527137756347656" lon="0.2576624751091003"><ele></ele><time>2016-10-9T7:55:3Z</time></trkpt>
<trkpt lat="49.1527595520019531" lon="0.2578714191913605"><ele></ele><time>2016-10-9T7:55:6Z</time></trkpt>
<trkpt lat="49.1528053283691406" lon="0.2580938041210175"><ele></ele><time>2016-10-9T7:55:9Z</time></trkpt>
<trkpt lat="49.1528320312500000" lon="0.2582766115665436"><ele></ele><time>2016-10-9T7:55:12Z</time></trkpt>
<trkpt lat="49.1528701782226562" lon="0.2584951221942902"><ele></ele><time>2016-10-9T7:55:15Z</time></trkpt>
<trkpt lat="49.1529083251953125" lon="0.2586264014244080"><ele></ele><time>2016-10-9T7:55:18Z</time></trkpt>
<trkpt lat="49.1529273986816406" lon="0.2587647736072540"><ele></ele><time>2016-10-9T7:55:21Z</time></trkpt>
<trkpt lat="49.1529350280761719" lon="0.2589919269084930"><ele></ele><time>2016-10-9T7:55:24Z</time></trkpt>
<trkpt lat="49.1529922485351562" lon="0.2591423690319061"><ele></ele><time>2016-10-9T7:55:27Z</time></trkpt>
<trkpt lat="49.1530303955078125" lon="0.2594053149223328"><ele></ele><time>2016-10-9T7:55:30Z</time></trkpt>
<trkpt lat="49.1530838012695312" lon="0.2596063911914825"><ele></ele><time>2016-10-9T7:55:33Z</time></trkpt>
<trkpt lat="49.1531410217285156" lon="0.2598980963230133"><ele></ele><time>2016-10-9T7:55:36Z</time></trkpt>
<trkpt lat="49.1531791687011719" lon="0.2600765526294708"><ele></ele><time>2016-10-9T7:55:39Z</time></trkpt>
<trkpt lat="49.1532211303710938" lon="0.2602643072605133"><ele></ele><time>2016-10-9T7:55:42Z</time></trkpt>
<trkpt lat="49.1532669067382812" lon="0.2605366110801697"><ele></ele><time>2016-10-9T7:55:45Z</time></trkpt>
<trkpt lat="49.1533241271972656" lon="0.2608159184455872"><ele></ele><time>2016-10-9T7:55:48Z</time></trkpt>
<trkpt lat="49.1533660888671875" lon="0.2611167430877686"><ele></ele><time>2016-10-9T7:55:51Z</time></trkpt>
<trkpt lat="49.1534423828125000" lon="0.2614035606384277"><ele></ele><time>2016-10-9T7:55:54Z</time></trkpt>
<trkpt lat="49.1534919738769531" lon="0.2616823613643646"><ele></ele><time>2016-10-9T7:55:57Z</time></trkpt>
<trkpt lat="49.1535148620605469" lon="0.2618851065635681"><ele></ele><time>2016-10-9T7:56:0Z</time></trkpt>
<trkpt lat="49.1535377502441406" lon="0.2620830833911896"><ele></ele><time>2016-10-9T7:56:3Z</time></trkpt>
<trkpt lat="49.1535644531250000" lon="0.2623478770256042"><ele></ele><time>2016-10-9T7:56:6Z</time></trkpt>
<trkpt lat="49.1535987854003906" lon="0.2625450193881989"><ele></ele><time>2016-10-9T7:56:9Z</time></trkpt>
<trkpt lat="49.1536064147949219" lon="0.2627862393856049"><ele></ele><time>2016-10-9T7:56:12Z</time></trkpt>
<trkpt lat="49.1536331176757812" lon="0.2629917562007904"><ele></ele><time>2016-10-9T7:56:15Z</time></trkpt>
<trkpt lat="49.1536788940429688" lon="0.2633114457130432"><ele></ele><time>2016-10-9T7:56:18Z</time></trkpt>
<trkpt lat="49.1537170410156250" lon="0.2635251879692078"><ele></ele><time>2016-10-9T7:56:21Z</time></trkpt>
<trkpt lat="49.1537666320800781" lon="0.2639000415802002"><ele></ele><time>2016-10-9T7:56:24Z</time></trkpt>
<trkpt lat="49.1538162231445312" lon="0.2640316188335419"><ele></ele><time>2016-10-9T7:56:27Z</time></trkpt>
<trkpt lat="49.1538162231445312" lon="0.2642534971237183"><ele></ele><time>2016-10-9T7:56:30Z</time></trkpt>
<trkpt lat="49.1538085937500000" lon="0.2644206285476685"><ele></ele><time>2016-10-9T7:56:33Z</time></trkpt>
<trkpt lat="49.1536293029785156" lon="0.2645346224308014"><ele></ele><time>2016-10-9T7:56:36Z</time></trkpt>
<trkpt lat="49.1534729003906250" lon="0.2645966410636902"><ele></ele><time>2016-10-9T7:56:39Z</time></trkpt>
<trkpt lat="49.1534004211425781" lon="0.2646495401859283"><ele></ele><time>2016-10-9T7:56:42Z</time></trkpt>
<trkpt lat="49.1533508300781250" lon="0.2646031975746155"><ele></ele><time>2016-10-9T7:56:45Z</time></trkpt>
<trkpt lat="49.1532402038574219" lon="0.2646455168724060"><ele></ele><time>2016-10-9T7:56:48Z</time></trkpt>
<trkpt lat="49.1532135009765625" lon="0.2646385729312897"><ele></ele><time>2016-10-9T7:56:51Z</time></trkpt>
<trkpt lat="49.1531715393066406" lon="0.2646806240081787"><ele></ele><time>2016-10-9T7:56:54Z</time></trkpt>
<trkpt lat="49.1531677246093750" lon="0.2647248804569244"><ele></ele><time>2016-10-9T7:56:57Z</time></trkpt>
<trkpt lat="49.1531867980957031" lon="0.2647836506366730"><ele></ele><time>2016-10-9T7:57:0Z</time></trkpt>
<trkpt lat="49.1532096862792969" lon="0.2648226320743561"><ele></ele><time>2016-10-9T7:57:3Z</time></trkpt>
<trkpt lat="49.1532287597656250" lon="0.2648657858371735"><ele></ele><time>2016-10-9T7:57:6Z</time></trkpt>
<trkpt lat="49.1532592773437500" lon="0.2649860680103302"><ele></ele><time>2016-10-9T7:57:9Z</time></trkpt>
<trkpt lat="49.1532859802246094" lon="0.2651271522045135"><ele></ele><time>2016-10-9T7:57:12Z</time></trkpt>
<trkpt lat="49.1533927917480469" lon="0.2653767466545105"><ele></ele><time>2016-10-9T7:57:15Z</time></trkpt>
<trkpt lat="49.1534614562988281" lon="0.2655336558818817"><ele></ele><time>2016-10-9T7:57:18Z</time></trkpt>
<trkpt lat="49.1535224914550781" lon="0.2656795978546143"><ele></ele><time>2016-10-9T7:57:21Z</time></trkpt>
<trkpt lat="49.1536026000976562" lon="0.2658354938030243"><ele></ele><time>2016-10-9T7:57:24Z</time></trkpt>
<trkpt lat="49.1537170410156250" lon="0.2661018669605255"><ele></ele><time>2016-10-9T7:57:27Z</time></trkpt>
<trkpt lat="49.1538200378417969" lon="0.2663538455963135"><ele></ele><time>2016-10-9T7:57:30Z</time></trkpt>
<trkpt lat="49.1538963317871094" lon="0.2665233910083771"><ele></ele><time>2016-10-9T7:57:33Z</time></trkpt>
<trkpt lat="49.1539611816406250" lon="0.2666702568531036"><ele></ele><time>2016-10-9T7:57:36Z</time></trkpt>
<trkpt lat="49.1540679931640625" lon="0.2669107317924500"><ele></ele><time>2016-10-9T7:57:39Z</time></trkpt>
<trkpt lat="49.1541900634765625" lon="0.2671466767787933"><ele></ele><time>2016-10-9T7:57:42Z</time></trkpt>
<trkpt lat="49.1542778015136719" lon="0.2673013210296631"><ele></ele><time>2016-10-9T7:57:45Z</time></trkpt>
<trkpt lat="49.1543960571289062" lon="0.2675325870513916"><ele></ele><time>2016-10-9T7:57:48Z</time></trkpt>
<trkpt lat="49.1544990539550781" lon="0.2677033245563507"><ele></ele><time>2016-10-9T7:57:51Z</time></trkpt>
<trkpt lat="49.1546096801757812" lon="0.2679451406002045"><ele></ele><time>2016-10-9T7:57:54Z</time></trkpt>
<trkpt lat="49.1547164916992188" lon="0.2682032287120819"><ele></ele><time>2016-10-9T7:57:57Z</time></trkpt>
<trkpt lat="49.1548385620117188" lon="0.2684691846370697"><ele></ele><time>2016-10-9T7:58:0Z</time></trkpt>
<trkpt lat="49.1549263000488281" lon="0.2686467766761780"><ele></ele><time>2016-10-9T7:58:3Z</time></trkpt>
<trkpt lat="49.1550140380859375" lon="0.2688191235065460"><ele></ele><time>2016-10-9T7:58:6Z</time></trkpt>
<trkpt lat="49.1551437377929688" lon="0.2691268920898438"><ele></ele><time>2016-10-9T7:58:9Z</time></trkpt>
<trkpt lat="49.1552391052246094" lon="0.2693222761154175"><ele></ele><time>2016-10-9T7:58:12Z</time></trkpt>
<trkpt lat="49.1553916931152344" lon="0.2696145474910736"><ele></ele><time>2016-10-9T7:58:15Z</time></trkpt>
<trkpt lat="49.1554946899414062" lon="0.2698101103305817"><ele></ele><time>2016-10-9T7:58:18Z</time></trkpt>
<trkpt lat="49.1555938720703125" lon="0.2700165510177612"><ele></ele><time>2016-10-9T7:58:21Z</time></trkpt>
<trkpt lat="49.1557464599609375" lon="0.2703487277030945"><ele></ele><time>2016-10-9T7:58:24Z</time></trkpt>
<trkpt lat="49.1558761596679688" lon="0.2706898748874664"><ele></ele><time>2016-10-9T7:58:27Z</time></trkpt>
<trkpt lat="49.1559906005859375" lon="0.2709416747093201"><ele></ele><time>2016-10-9T7:58:30Z</time></trkpt>
<trkpt lat="49.1561012268066406" lon="0.2711943686008453"><ele></ele><time>2016-10-9T7:58:33Z</time></trkpt>
<trkpt lat="49.1562500000000000" lon="0.2715350091457367"><ele></ele><time>2016-10-9T7:58:36Z</time></trkpt>
<trkpt lat="49.1563644409179688" lon="0.2717255353927612"><ele></ele><time>2016-10-9T7:58:39Z</time></trkpt>
<trkpt lat="49.1565361022949219" lon="0.2719924151897430"><ele></ele><time>2016-10-9T7:58:42Z</time></trkpt>
<trkpt lat="49.1566467285156250" lon="0.2721914947032928"><ele></ele><time>2016-10-9T7:58:45Z</time></trkpt>
<trkpt lat="49.1567726135253906" lon="0.2723589539527893"><ele></ele><time>2016-10-9T7:58:48Z</time></trkpt>
<trkpt lat="49.1569595336914062" lon="0.2724985182285309"><ele></ele><time>2016-10-9T7:58:51Z</time></trkpt>
<trkpt lat="49.1572380065917969" lon="0.2726395130157471"><ele></ele><time>2016-10-9T7:58:54Z</time></trkpt>
<trkpt lat="49.1575050354003906" lon="0.2727082371711731"><ele></ele><time>2016-10-9T7:58:57Z</time></trkpt>
<trkpt lat="49.1577301025390625" lon="0.2727550864219666"><ele></ele><time>2016-10-9T7:59:0Z</time></trkpt>
<trkpt lat="49.1580734252929688" lon="0.2727317810058594"><ele></ele><time>2016-10-9T7:59:3Z</time></trkpt>
<trkpt lat="49.1583938598632812" lon="0.2727674841880798"><ele></ele><time>2016-10-9T7:59:6Z</time></trkpt>
<trkpt lat="49.1586456298828125" lon="0.2727840840816498"><ele></ele><time>2016-10-9T7:59:9Z</time></trkpt>
<trkpt lat="49.1588745117187500" lon="0.2728510797023773"><ele></ele><time>2016-10-9T7:59:12Z</time></trkpt>
<trkpt lat="49.1590614318847656" lon="0.2728573381900787"><ele></ele><time>2016-10-9T7:59:15Z</time></trkpt>
<trkpt lat="49.1595764160156250" lon="0.2729444503784180"><ele></ele><time>2016-10-9T7:59:18Z</time></trkpt>
<trkpt lat="49.1598205566406250" lon="0.2729781270027161"><ele></ele><time>2016-10-9T7:59:21Z</time></trkpt>
<trkpt lat="49.1600608825683594" lon="0.2729882895946503"><ele></ele><time>2016-10-9T7:59:24Z</time></trkpt>
<trkpt lat="49.1604652404785156" lon="0.2730342149734497"><ele></ele><time>2016-10-9T7:59:27Z</time></trkpt>
<trkpt lat="49.1608161926269531" lon="0.2731057107448578"><ele></ele><time>2016-10-9T7:59:30Z</time></trkpt>
<trkpt lat="49.1609954833984375" lon="0.2732461988925934"><ele></ele><time>2016-10-9T7:59:33Z</time></trkpt>
<trkpt lat="49.1612014770507812" lon="0.2733676433563232"><ele></ele><time>2016-10-9T7:59:36Z</time></trkpt>
<trkpt lat="49.1614952087402344" lon="0.2735477685928345"><ele></ele><time>2016-10-9T7:59:39Z</time></trkpt>
<trkpt lat="49.1618499755859375" lon="0.2738610804080963"><ele></ele><time>2016-10-9T7:59:42Z</time></trkpt>
<trkpt lat="49.1622276306152344" lon="0.2742069363594055"><ele></ele><time>2016-10-9T7:59:45Z</time></trkpt>
<trkpt lat="49.1625709533691406" lon="0.2745982706546783"><ele></ele><time>2016-10-9T7:59:48Z</time></trkpt>
<trkpt lat="49.1627616882324219" lon="0.2748387455940247"><ele></ele><time>2016-10-9T7:59:51Z</time></trkpt>
<trkpt lat="49.1630630493164062" lon="0.2752336263656616"><ele></ele><time>2016-10-9T7:59:54Z</time></trkpt>
<trkpt lat="49.1632041931152344" lon="0.2755473554134369"><ele></ele><time>2016-10-9T7:59:57Z</time></trkpt>
<trkpt lat="49.1633300781250000" lon="0.2758840620517731"><ele></ele><time>2016-10-9T8:0:0Z</time></trkpt>
<trkpt lat="49.1633987426757812" lon="0.2763127982616425"><ele></ele><time>2016-10-9T8:0:3Z</time></trkpt>
<trkpt lat="49.1632804870605469" lon="0.2768914699554443"><ele></ele><time>2016-10-9T8:0:6Z</time></trkpt>
<trkpt lat="49.1631622314453125" lon="0.2774474620819092"><ele></ele><time>2016-10-9T8:0:9Z</time></trkpt>
<trkpt lat="49.1631088256835938" lon="0.2778006494045258"><ele></ele><time>2016-10-9T8:0:12Z</time></trkpt>
<trkpt lat="49.1630706787109375" lon="0.2781957983970642"><ele></ele><time>2016-10-9T8:0:15Z</time></trkpt>
<trkpt lat="49.1630592346191406" lon="0.2787219882011414"><ele></ele><time>2016-10-9T8:0:18Z</time></trkpt>
<trkpt lat="49.1630821228027344" lon="0.2790562808513641"><ele></ele><time>2016-10-9T8:0:21Z</time></trkpt>
<trkpt lat="49.1631431579589844" lon="0.2796880304813385"><ele></ele><time>2016-10-9T8:0:24Z</time></trkpt>
<trkpt lat="49.1632118225097656" lon="0.2800565659999847"><ele></ele><time>2016-10-9T8:0:27Z</time></trkpt>
<trkpt lat="49.1633987426757812" lon="0.2805432081222534"><ele></ele><time>2016-10-9T8:0:30Z</time></trkpt>
<trkpt lat="49.1636238098144531" lon="0.2809820175170898"><ele></ele><time>2016-10-9T8:0:33Z</time></trkpt>
<trkpt lat="49.1638259887695312" lon="0.2813832461833954"><ele></ele><time>2016-10-9T8:0:36Z</time></trkpt>
<trkpt lat="49.1640396118164062" lon="0.2815501391887665"><ele></ele><time>2016-10-9T8:0:39Z</time></trkpt>
<trkpt lat="49.1643447875976562" lon="0.2817761301994324"><ele></ele><time>2016-10-9T8:0:42Z</time></trkpt>
<trkpt lat="49.1646499633789062" lon="0.2819660604000092"><ele></ele><time>2016-10-9T8:0:45Z</time></trkpt>
<trkpt lat="49.1649436950683594" lon="0.2821485102176666"><ele></ele><time>2016-10-9T8:0:48Z</time></trkpt>
<trkpt lat="49.1652679443359375" lon="0.2824272215366364"><ele></ele><time>2016-10-9T8:0:51Z</time></trkpt>
<trkpt lat="49.1654968261718750" lon="0.2825661003589630"><ele></ele><time>2016-10-9T8:0:54Z</time></trkpt>
<trkpt lat="49.1657066345214844" lon="0.2827064990997314"><ele></ele><time>2016-10-9T8:0:57Z</time></trkpt>
<trkpt lat="49.1660079956054688" lon="0.2829276919364929"><ele></ele><time>2016-10-9T8:1:0Z</time></trkpt>
<trkpt lat="49.1662559509277344" lon="0.2831417024135590"><ele></ele><time>2016-10-9T8:1:3Z</time></trkpt>
<trkpt lat="49.1665153503417969" lon="0.2833503186702728"><ele></ele><time>2016-10-9T8:1:6Z</time></trkpt>
<trkpt lat="49.1667709350585938" lon="0.2835389077663422"><ele></ele><time>2016-10-9T8:1:9Z</time></trkpt>
<trkpt lat="49.1669387817382812" lon="0.2836861908435822"><ele></ele><time>2016-10-9T8:1:12Z</time></trkpt>
<trkpt lat="49.1672325134277344" lon="0.2838550806045532"><ele></ele><time>2016-10-9T8:1:15Z</time></trkpt>
<trkpt lat="49.1674499511718750" lon="0.2840273380279541"><ele></ele><time>2016-10-9T8:1:18Z</time></trkpt>
<trkpt lat="49.1676025390625000" lon="0.2841503620147705"><ele></ele><time>2016-10-9T8:1:21Z</time></trkpt>
<trkpt lat="49.1677818298339844" lon="0.2845074534416199"><ele></ele><time>2016-10-9T8:1:24Z</time></trkpt>
<trkpt lat="49.1678886413574219" lon="0.2846871614456177"><ele></ele><time>2016-10-9T8:1:27Z</time></trkpt>
<trkpt lat="49.1679534912109375" lon="0.2848850488662720"><ele></ele><time>2016-10-9T8:1:30Z</time></trkpt>
<trkpt lat="49.1680145263671875" lon="0.2851645052433014"><ele></ele><time>2016-10-9T8:1:33Z</time></trkpt>
<trkpt lat="49.1680870056152344" lon="0.2854403555393219"><ele></ele><time>2016-10-9T8:1:36Z</time></trkpt>
<trkpt lat="49.1681480407714844" lon="0.2856437861919403"><ele></ele><time>2016-10-9T8:1:39Z</time></trkpt>
<trkpt lat="49.1681976318359375" lon="0.2858957350254059"><ele></ele><time>2016-10-9T8:1:42Z</time></trkpt>
<trkpt lat="49.1682052612304688" lon="0.2860238254070282"><ele></ele><time>2016-10-9T8:1:45Z</time></trkpt>
<trkpt lat="49.1682128906250000" lon="0.2861717641353607"><ele></ele><time>2016-10-9T8:1:48Z</time></trkpt>
<trkpt lat="49.1682357788085938" lon="0.2863386273384094"><ele></ele><time>2016-10-9T8:1:51Z</time></trkpt>
<trkpt lat="49.1682739257812500" lon="0.2864646911621094"><ele></ele><time>2016-10-9T8:1:54Z</time></trkpt>
<trkpt lat="49.1682891845703125" lon="0.2866026759147644"><ele></ele><time>2016-10-9T8:1:57Z</time></trkpt>
<trkpt lat="49.1683082580566406" lon="0.2866850495338440"><ele></ele><time>2016-10-9T8:2:0Z</time></trkpt>
<trkpt lat="49.1683273315429688" lon="0.2868728041648865"><ele></ele><time>2016-10-9T8:2:3Z</time></trkpt>
<trkpt lat="49.1683464050292969" lon="0.2869794368743896"><ele></ele><time>2016-10-9T8:2:6Z</time></trkpt>
<trkpt lat="49.1683692932128906" lon="0.2870791852474213"><ele></ele><time>2016-10-9T8:2:9Z</time></trkpt>
<trkpt lat="49.1683921813964844" lon="0.2871891558170319"><ele></ele><time>2016-10-9T8:2:12Z</time></trkpt>
<trkpt lat="49.1684112548828125" lon="0.2873801589012146"><ele></ele><time>2016-10-9T8:2:15Z</time></trkpt>
<trkpt lat="49.1684303283691406" lon="0.2875673472881317"><ele></ele><time>2016-10-9T8:2:18Z</time></trkpt>
<trkpt lat="49.1684455871582031" lon="0.2876921594142914"><ele></ele><time>2016-10-9T8:2:21Z</time></trkpt>
<trkpt lat="49.1684646606445312" lon="0.2878068089485168"><ele></ele><time>2016-10-9T8:2:24Z</time></trkpt>
<trkpt lat="49.1684989929199219" lon="0.2879720926284790"><ele></ele><time>2016-10-9T8:2:27Z</time></trkpt>
<trkpt lat="49.1685180664062500" lon="0.2880870103836060"><ele></ele><time>2016-10-9T8:2:30Z</time></trkpt>
<trkpt lat="49.1685333251953125" lon="0.2882507145404816"><ele></ele><time>2016-10-9T8:2:33Z</time></trkpt>
<trkpt lat="49.1685371398925781" lon="0.2883646190166473"><ele></ele><time>2016-10-9T8:2:36Z</time></trkpt>
<trkpt lat="49.1685409545898438" lon="0.2884759306907654"><ele></ele><time>2016-10-9T8:2:39Z</time></trkpt>
<trkpt lat="49.1685485839843750" lon="0.2886379659175873"><ele></ele><time>2016-10-9T8:2:42Z</time></trkpt>
<trkpt lat="49.1685638427734375" lon="0.2887324988842010"><ele></ele><time>2016-10-9T8:2:45Z</time></trkpt>
<trkpt lat="49.1685714721679688" lon="0.2888315021991730"><ele></ele><time>2016-10-9T8:2:48Z</time></trkpt>
<trkpt lat="49.1685791015625000" lon="0.2889880836009979"><ele></ele><time>2016-10-9T8:2:51Z</time></trkpt>
<trkpt lat="49.1685829162597656" lon="0.2890962064266205"><ele></ele><time>2016-10-9T8:2:54Z</time></trkpt>
<trkpt lat="49.1685943603515625" lon="0.2892689406871796"><ele></ele><time>2016-10-9T8:2:57Z</time></trkpt>
<trkpt lat="49.1686058044433594" lon="0.2894152998924255"><ele></ele><time>2016-10-9T8:3:0Z</time></trkpt>
<trkpt lat="49.1686210632324219" lon="0.2895058989524841"><ele></ele><time>2016-10-9T8:3:3Z</time></trkpt>
<trkpt lat="49.1686401367187500" lon="0.2896426022052765"><ele></ele><time>2016-10-9T8:3:6Z</time></trkpt>
<trkpt lat="49.1686515808105469" lon="0.2897440493106842"><ele></ele><time>2016-10-9T8:3:9Z</time></trkpt>
<trkpt lat="49.1686668395996094" lon="0.2898463904857635"><ele></ele><time>2016-10-9T8:3:12Z</time></trkpt>
<trkpt lat="49.1686859130859375" lon="0.2899498939514160"><ele></ele><time>2016-10-9T8:3:15Z</time></trkpt>
<trkpt lat="49.1687126159667969" lon="0.2901054620742798"><ele></ele><time>2016-10-9T8:3:18Z</time></trkpt>
<trkpt lat="49.1687316894531250" lon="0.2902518212795258"><ele></ele><time>2016-10-9T8:3:21Z</time></trkpt>
<trkpt lat="49.1687507629394531" lon="0.2903991639614105"><ele></ele><time>2016-10-9T8:3:24Z</time></trkpt>
<trkpt lat="49.1687622070312500" lon="0.2904978096485138"><ele></ele><time>2016-10-9T8:3:27Z</time></trkpt>
<trkpt lat="49.1687774658203125" lon="0.2905909419059753"><ele></ele><time>2016-10-9T8:3:30Z</time></trkpt>
<trkpt lat="49.1688003540039062" lon="0.2907309234142303"><ele></ele><time>2016-10-9T8:3:33Z</time></trkpt>
<trkpt lat="49.1688117980957031" lon="0.2908327579498291"><ele></ele><time>2016-10-9T8:3:36Z</time></trkpt>
<trkpt lat="49.1688232421875000" lon="0.2909283936023712"><ele></ele><time>2016-10-9T8:3:39Z</time></trkpt>
<trkpt lat="49.1688308715820312" lon="0.2910285592079163"><ele></ele><time>2016-10-9T8:3:42Z</time></trkpt>
<trkpt lat="49.1688423156738281" lon="0.2911301553249359"><ele></ele><time>2016-10-9T8:3:45Z</time></trkpt>
<trkpt lat="49.1688652038574219" lon="0.2912774980068207"><ele></ele><time>2016-10-9T8:3:48Z</time></trkpt>
<trkpt lat="49.1688766479492188" lon="0.2913692891597748"><ele></ele><time>2016-10-9T8:3:51Z</time></trkpt>
<trkpt lat="49.1688919067382812" lon="0.2915143668651581"><ele></ele><time>2016-10-9T8:3:54Z</time></trkpt>
<trkpt lat="49.1689033508300781" lon="0.2916573882102966"><ele></ele><time>2016-10-9T8:3:57Z</time></trkpt>
<trkpt lat="49.1689147949218750" lon="0.2918073236942291"><ele></ele><time>2016-10-9T8:4:0Z</time></trkpt>
<trkpt lat="49.1689376831054688" lon="0.2919600307941437"><ele></ele><time>2016-10-9T8:4:3Z</time></trkpt>
<trkpt lat="49.1689605712890625" lon="0.2921181321144104"><ele></ele><time>2016-10-9T8:4:6Z</time></trkpt>
<trkpt lat="49.1689834594726562" lon="0.2922644019126892"><ele></ele><time>2016-10-9T8:4:9Z</time></trkpt>
<trkpt lat="49.1690139770507812" lon="0.2923985123634338"><ele></ele><time>2016-10-9T8:4:12Z</time></trkpt>
<trkpt lat="49.1690368652343750" lon="0.2924885153770447"><ele></ele><time>2016-10-9T8:4:15Z</time></trkpt>
<trkpt lat="49.1690826416015625" lon="0.2926186919212341"><ele></ele><time>2016-10-9T8:4:18Z</time></trkpt>
<trkpt lat="49.1691131591796875" lon="0.2927065491676331"><ele></ele><time>2016-10-9T8:4:21Z</time></trkpt>
<trkpt lat="49.1691589355468750" lon="0.2928332686424255"><ele></ele><time>2016-10-9T8:4:24Z</time></trkpt>
<trkpt lat="49.1692085266113281" lon="0.2929558157920837"><ele></ele><time>2016-10-9T8:4:27Z</time></trkpt>
<trkpt lat="49.1692695617675781" lon="0.2930838763713837"><ele></ele><time>2016-10-9T8:4:30Z</time></trkpt>
<trkpt lat="49.1693115234375000" lon="0.2931697964668274"><ele></ele><time>2016-10-9T8:4:33Z</time></trkpt>
<trkpt lat="49.1693649291992188" lon="0.2932785153388977"><ele></ele><time>2016-10-9T8:4:36Z</time></trkpt>
<trkpt lat="49.1693992614746094" lon="0.2933650314807892"><ele></ele><time>2016-10-9T8:4:39Z</time></trkpt>
<trkpt lat="49.1694107055664062" lon="0.2934104502201080"><ele></ele><time>2016-10-9T8:4:42Z</time></trkpt>
<trkpt lat="49.1694374084472656" lon="0.2934885621070862"><ele></ele><time>2016-10-9T8:4:45Z</time></trkpt>
<trkpt lat="49.1694679260253906" lon="0.2935619056224823"><ele></ele><time>2016-10-9T8:4:48Z</time></trkpt>
<trkpt lat="49.1694946289062500" lon="0.2936412990093231"><ele></ele><time>2016-10-9T8:4:51Z</time></trkpt>
<trkpt lat="49.1695594787597656" lon="0.2937813401222229"><ele></ele><time>2016-10-9T8:4:54Z</time></trkpt>
<trkpt lat="49.1696090698242188" lon="0.2938697040081024"><ele></ele><time>2016-10-9T8:4:57Z</time></trkpt>
<trkpt lat="49.1696777343750000" lon="0.2939831018447876"><ele></ele><time>2016-10-9T8:5:0Z</time></trkpt>
<trkpt lat="49.1697158813476562" lon="0.2940510809421539"><ele></ele><time>2016-10-9T8:5:3Z</time></trkpt>
<trkpt lat="49.1697959899902344" lon="0.2941965758800507"><ele></ele><time>2016-10-9T8:5:6Z</time></trkpt>
<trkpt lat="49.1698570251464844" lon="0.2943119108676910"><ele></ele><time>2016-10-9T8:5:9Z</time></trkpt>
<trkpt lat="49.1699256896972656" lon="0.2944606244564056"><ele></ele><time>2016-10-9T8:5:12Z</time></trkpt>
<trkpt lat="49.1699943542480469" lon="0.2945795655250549"><ele></ele><time>2016-10-9T8:5:15Z</time></trkpt>
<trkpt lat="49.1700668334960938" lon="0.2946948111057281"><ele></ele><time>2016-10-9T8:5:18Z</time></trkpt>
<trkpt lat="49.1701049804687500" lon="0.2947696447372437"><ele></ele><time>2016-10-9T8:5:21Z</time></trkpt>
<trkpt lat="49.1701545715332031" lon="0.2948771119117737"><ele></ele><time>2016-10-9T8:5:24Z</time></trkpt>
<trkpt lat="49.1702003479003906" lon="0.2949763536453247"><ele></ele><time>2016-10-9T8:5:27Z</time></trkpt>
<trkpt lat="49.1702575683593750" lon="0.2950769364833832"><ele></ele><time>2016-10-9T8:5:30Z</time></trkpt>
<trkpt lat="49.1703376770019531" lon="0.2951798737049103"><ele></ele><time>2016-10-9T8:5:33Z</time></trkpt>
<trkpt lat="49.1703948974609375" lon="0.2952602505683899"><ele></ele><time>2016-10-9T8:5:36Z</time></trkpt>
<trkpt lat="49.1704406738281250" lon="0.2953379452228546"><ele></ele><time>2016-10-9T8:5:39Z</time></trkpt>
<trkpt lat="49.1705245971679688" lon="0.2954976260662079"><ele></ele><time>2016-10-9T8:5:42Z</time></trkpt>
<trkpt lat="49.1705627441406250" lon="0.2956070005893707"><ele></ele><time>2016-10-9T8:5:45Z</time></trkpt>
<trkpt lat="49.1705970764160156" lon="0.2957195937633514"><ele></ele><time>2016-10-9T8:5:48Z</time></trkpt>
<trkpt lat="49.1706314086914062" lon="0.2958969473838806"><ele></ele><time>2016-10-9T8:5:51Z</time></trkpt>
<trkpt lat="49.1706581115722656" lon="0.2960726320743561"><ele></ele><time>2016-10-9T8:5:54Z</time></trkpt>
<trkpt lat="49.1706695556640625" lon="0.2961887121200562"><ele></ele><time>2016-10-9T8:5:57Z</time></trkpt>
<trkpt lat="49.1706924438476562" lon="0.2963383197784424"><ele></ele><time>2016-10-9T8:6:0Z</time></trkpt>
<trkpt lat="49.1706619262695312" lon="0.2965262532234192"><ele></ele><time>2016-10-9T8:6:3Z</time></trkpt>
<trkpt lat="49.1706390380859375" lon="0.2966463565826416"><ele></ele><time>2016-10-9T8:6:6Z</time></trkpt>
<trkpt lat="49.1706237792968750" lon="0.2967557609081268"><ele></ele><time>2016-10-9T8:6:9Z</time></trkpt>
<trkpt lat="49.1705856323242188" lon="0.2969284951686859"><ele></ele><time>2016-10-9T8:6:12Z</time></trkpt>
<trkpt lat="49.1705627441406250" lon="0.2970356941223145"><ele></ele><time>2016-10-9T8:6:15Z</time></trkpt>
<trkpt lat="49.1705398559570312" lon="0.2971859872341156"><ele></ele><time>2016-10-9T8:6:18Z</time></trkpt>
<trkpt lat="49.1705169677734375" lon="0.2972891032695770"><ele></ele><time>2016-10-9T8:6:21Z</time></trkpt>
<trkpt lat="49.1704940795898438" lon="0.2973868250846863"><ele></ele><time>2016-10-9T8:6:24Z</time></trkpt>
<trkpt lat="49.1704635620117188" lon="0.2975410521030426"><ele></ele><time>2016-10-9T8:6:27Z</time></trkpt>
<trkpt lat="49.1704483032226562" lon="0.2976884841918945"><ele></ele><time>2016-10-9T8:6:30Z</time></trkpt>
<trkpt lat="49.1704406738281250" lon="0.2977837920188904"><ele></ele><time>2016-10-9T8:6:33Z</time></trkpt>
<trkpt lat="49.1704254150390625" lon="0.2978847920894623"><ele></ele><time>2016-10-9T8:6:36Z</time></trkpt>
<trkpt lat="49.1704139709472656" lon="0.2980261147022247"><ele></ele><time>2016-10-9T8:6:39Z</time></trkpt>
<trkpt lat="49.1704101562500000" lon="0.2981188297271729"><ele></ele><time>2016-10-9T8:6:42Z</time></trkpt>
<trkpt lat="49.1704139709472656" lon="0.2982687652111053"><ele></ele><time>2016-10-9T8:6:45Z</time></trkpt>
<trkpt lat="49.1704368591308594" lon="0.2984479665756226"><ele></ele><time>2016-10-9T8:6:48Z</time></trkpt>
<trkpt lat="49.1704483032226562" lon="0.2985711991786957"><ele></ele><time>2016-10-9T8:6:51Z</time></trkpt>
<trkpt lat="49.1704635620117188" lon="0.2987458705902100"><ele></ele><time>2016-10-9T8:6:54Z</time></trkpt>
<trkpt lat="49.1704826354980469" lon="0.2989103198051453"><ele></ele><time>2016-10-9T8:6:57Z</time></trkpt>
<trkpt lat="49.1704864501953125" lon="0.2990774512290955"><ele></ele><time>2016-10-9T8:7:0Z</time></trkpt>
<trkpt lat="49.1704940795898438" lon="0.2991881072521210"><ele></ele><time>2016-10-9T8:7:3Z</time></trkpt>
<trkpt lat="49.1705169677734375" lon="0.2993538975715637"><ele></ele><time>2016-10-9T8:7:6Z</time></trkpt>
<trkpt lat="49.1705322265625000" lon="0.2994600832462311"><ele></ele><time>2016-10-9T8:7:9Z</time></trkpt>
<trkpt lat="49.1705589294433594" lon="0.2996057569980621"><ele></ele><time>2016-10-9T8:7:12Z</time></trkpt>
<trkpt lat="49.1705780029296875" lon="0.2996917665004730"><ele></ele><time>2016-10-9T8:7:15Z</time></trkpt>
<trkpt lat="49.1706123352050781" lon="0.2998314797878265"><ele></ele><time>2016-10-9T8:7:18Z</time></trkpt>
<trkpt lat="49.1706275939941406" lon="0.2999252080917358"><ele></ele><time>2016-10-9T8:7:21Z</time></trkpt>
<trkpt lat="49.1706352233886719" lon="0.3000180721282959"><ele></ele><time>2016-10-9T8:7:24Z</time></trkpt>
<trkpt lat="49.1706695556640625" lon="0.3001615703105927"><ele></ele><time>2016-10-9T8:7:27Z</time></trkpt>
<trkpt lat="49.1707038879394531" lon="0.3002583682537079"><ele></ele><time>2016-10-9T8:7:30Z</time></trkpt>
<trkpt lat="49.1707420349121094" lon="0.3003547787666321"><ele></ele><time>2016-10-9T8:7:33Z</time></trkpt>
<trkpt lat="49.1707878112792969" lon="0.3004889786243439"><ele></ele><time>2016-10-9T8:7:36Z</time></trkpt>
<trkpt lat="49.1708106994628906" lon="0.3005785644054413"><ele></ele><time>2016-10-9T8:7:39Z</time></trkpt>
<trkpt lat="49.1708526611328125" lon="0.3007231652736664"><ele></ele><time>2016-10-9T8:7:42Z</time></trkpt>
<trkpt lat="49.1709213256835938" lon="0.3008704185485840"><ele></ele><time>2016-10-9T8:7:45Z</time></trkpt>
<trkpt lat="49.1709632873535156" lon="0.3009585142135620"><ele></ele><time>2016-10-9T8:7:48Z</time></trkpt>
<trkpt lat="49.1710281372070312" lon="0.3010773062705994"><ele></ele><time>2016-10-9T8:7:51Z</time></trkpt>
<trkpt lat="49.1711044311523438" lon="0.3011943995952606"><ele></ele><time>2016-10-9T8:7:54Z</time></trkpt>
<trkpt lat="49.1711578369140625" lon="0.3012741804122925"><ele></ele><time>2016-10-9T8:7:57Z</time></trkpt>
<trkpt lat="49.1712074279785156" lon="0.3013502955436707"><ele></ele><time>2016-10-9T8:8:0Z</time></trkpt>
<trkpt lat="49.1712875366210938" lon="0.3014461696147919"><ele></ele><time>2016-10-9T8:8:3Z</time></trkpt>
<trkpt lat="49.1713714599609375" lon="0.3015382885932922"><ele></ele><time>2016-10-9T8:8:6Z</time></trkpt>
<trkpt lat="49.1714439392089844" lon="0.3016071021556854"><ele></ele><time>2016-10-9T8:8:9Z</time></trkpt>
<trkpt lat="49.1714897155761719" lon="0.3016454875469208"><ele></ele><time>2016-10-9T8:8:12Z</time></trkpt>
<trkpt lat="49.1715812683105469" lon="0.3016763329505920"><ele></ele><time>2016-10-9T8:8:15Z</time></trkpt>
<trkpt lat="49.1716880798339844" lon="0.3017108738422394"><ele></ele><time>2016-10-9T8:8:18Z</time></trkpt>
<trkpt lat="49.1717491149902344" lon="0.3017393648624420"><ele></ele><time>2016-10-9T8:8:21Z</time></trkpt>
<trkpt lat="49.1718254089355469" lon="0.3017826378345490"><ele></ele><time>2016-10-9T8:8:24Z</time></trkpt>
<trkpt lat="49.1719017028808594" lon="0.3018189370632172"><ele></ele><time>2016-10-9T8:8:27Z</time></trkpt>
<trkpt lat="49.1719894409179688" lon="0.3018322587013245"><ele></ele><time>2016-10-9T8:8:30Z</time></trkpt>
<trkpt lat="49.1720848083496094" lon="0.3018267154693604"><ele></ele><time>2016-10-9T8:8:33Z</time></trkpt>
<trkpt lat="49.1721878051757812" lon="0.3017965555191040"><ele></ele><time>2016-10-9T8:8:36Z</time></trkpt>
<trkpt lat="49.1722908020019531" lon="0.3017722368240356"><ele></ele><time>2016-10-9T8:8:39Z</time></trkpt>
<trkpt lat="49.1724205017089844" lon="0.3017480075359344"><ele></ele><time>2016-10-9T8:8:42Z</time></trkpt>
<trkpt lat="49.1725387573242188" lon="0.3016953766345978"><ele></ele><time>2016-10-9T8:8:45Z</time></trkpt>
<trkpt lat="49.1726150512695312" lon="0.3016337752342224"><ele></ele><time>2016-10-9T8:8:48Z</time></trkpt>
<trkpt lat="49.1727142333984375" lon="0.3015451729297638"><ele></ele><time>2016-10-9T8:8:51Z</time></trkpt>
<trkpt lat="49.1727676391601562" lon="0.3014954626560211"><ele></ele><time>2016-10-9T8:8:54Z</time></trkpt>
<trkpt lat="49.1728286743164062" lon="0.3014405667781830"><ele></ele><time>2016-10-9T8:8:57Z</time></trkpt>
<trkpt lat="49.1729164123535156" lon="0.3013772666454315"><ele></ele><time>2016-10-9T8:9:0Z</time></trkpt>
<trkpt lat="49.1729736328125000" lon="0.3013249635696411"><ele></ele><time>2016-10-9T8:9:3Z</time></trkpt>
<trkpt lat="49.1730613708496094" lon="0.3012225627899170"><ele></ele><time>2016-10-9T8:9:6Z</time></trkpt>
<trkpt lat="49.1731300354003906" lon="0.3011418282985687"><ele></ele><time>2016-10-9T8:9:9Z</time></trkpt>
<trkpt lat="49.1732711791992188" lon="0.3009861111640930"><ele></ele><time>2016-10-9T8:9:12Z</time></trkpt>
<trkpt lat="49.1733818054199219" lon="0.3008632957935333"><ele></ele><time>2016-10-9T8:9:15Z</time></trkpt>
<trkpt lat="49.1734542846679688" lon="0.3008009493350983"><ele></ele><time>2016-10-9T8:9:18Z</time></trkpt>
<trkpt lat="49.1735649108886719" lon="0.3007221519947052"><ele></ele><time>2016-10-9T8:9:21Z</time></trkpt>
<trkpt lat="49.1736488342285156" lon="0.3006758093833923"><ele></ele><time>2016-10-9T8:9:24Z</time></trkpt>
<trkpt lat="49.1737251281738281" lon="0.3006414473056793"><ele></ele><time>2016-10-9T8:9:27Z</time></trkpt>
<trkpt lat="49.1737899780273438" lon="0.3006296157836914"><ele></ele><time>2016-10-9T8:9:30Z</time></trkpt>
<trkpt lat="49.1738739013671875" lon="0.3006291091442108"><ele></ele><time>2016-10-9T8:9:33Z</time></trkpt>
<trkpt lat="49.1739616394042969" lon="0.3005975186824799"><ele></ele><time>2016-10-9T8:9:36Z</time></trkpt>
<trkpt lat="49.1740493774414062" lon="0.3005429506301880"><ele></ele><time>2016-10-9T8:9:39Z</time></trkpt>
<trkpt lat="49.1741104125976562" lon="0.3005106747150421"><ele></ele><time>2016-10-9T8:9:42Z</time></trkpt>
<trkpt lat="49.1742134094238281" lon="0.3004428744316101"><ele></ele><time>2016-10-9T8:9:45Z</time></trkpt>
<trkpt lat="49.1742973327636719" lon="0.3003343939781189"><ele></ele><time>2016-10-9T8:9:48Z</time></trkpt>
<trkpt lat="49.1743507385253906" lon="0.3002731204032898"><ele></ele><time>2016-10-9T8:9:51Z</time></trkpt>
<trkpt lat="49.1744155883789062" lon="0.3001799285411835"><ele></ele><time>2016-10-9T8:9:54Z</time></trkpt>
<trkpt lat="49.1744880676269531" lon="0.3000706136226654"><ele></ele><time>2016-10-9T8:9:57Z</time></trkpt>
<trkpt lat="49.1745834350585938" lon="0.2999411225318909"><ele></ele><time>2016-10-9T8:10:0Z</time></trkpt>
<trkpt lat="49.1746368408203125" lon="0.2998524308204651"><ele></ele><time>2016-10-9T8:10:3Z</time></trkpt>
<trkpt lat="49.1747627258300781" lon="0.2996910810470581"><ele></ele><time>2016-10-9T8:10:6Z</time></trkpt>
<trkpt lat="49.1748619079589844" lon="0.2995491027832031"><ele></ele><time>2016-10-9T8:10:9Z</time></trkpt>
<trkpt lat="49.1749496459960938" lon="0.2993910908699036"><ele></ele><time>2016-10-9T8:10:12Z</time></trkpt>
<trkpt lat="49.1750030517578125" lon="0.2993057072162628"><ele></ele><time>2016-10-9T8:10:15Z</time></trkpt>
<trkpt lat="49.1750869750976562" lon="0.2991975545883179"><ele></ele><time>2016-10-9T8:10:18Z</time></trkpt>
<trkpt lat="49.1751480102539062" lon="0.2991494536399841"><ele></ele><time>2016-10-9T8:10:21Z</time></trkpt>
<trkpt lat="49.1752510070800781" lon="0.2990809679031372"><ele></ele><time>2016-10-9T8:10:24Z</time></trkpt>
<trkpt lat="49.1753273010253906" lon="0.2989927828311920"><ele></ele><time>2016-10-9T8:10:27Z</time></trkpt>
<trkpt lat="49.1753768920898438" lon="0.2989301085472107"><ele></ele><time>2016-10-9T8:10:30Z</time></trkpt>
<trkpt lat="49.1754684448242188" lon="0.2988327145576477"><ele></ele><time>2016-10-9T8:10:33Z</time></trkpt>
<trkpt lat="49.1755409240722656" lon="0.2987863421440125"><ele></ele><time>2016-10-9T8:10:36Z</time></trkpt>
<trkpt lat="49.1755981445312500" lon="0.2987429201602936"><ele></ele><time>2016-10-9T8:10:39Z</time></trkpt>
<trkpt lat="49.1756820678710938" lon="0.2986840009689331"><ele></ele><time>2016-10-9T8:10:42Z</time></trkpt>
<trkpt lat="49.1757431030273438" lon="0.2986444532871246"><ele></ele><time>2016-10-9T8:10:45Z</time></trkpt>
<trkpt lat="49.1758270263671875" lon="0.2985856831073761"><ele></ele><time>2016-10-9T8:10:48Z</time></trkpt>
<trkpt lat="49.1758804321289062" lon="0.2985493242740631"><ele></ele><time>2016-10-9T8:10:51Z</time></trkpt>
<trkpt lat="49.1759452819824219" lon="0.2985098361968994"><ele></ele><time>2016-10-9T8:10:54Z</time></trkpt>
<trkpt lat="49.1760368347167969" lon="0.2984388470649719"><ele></ele><time>2016-10-9T8:10:57Z</time></trkpt>
<trkpt lat="49.1761283874511719" lon="0.2983501553535461"><ele></ele><time>2016-10-9T8:11:0Z</time></trkpt>
<trkpt lat="49.1761779785156250" lon="0.2982979416847229"><ele></ele><time>2016-10-9T8:11:3Z</time></trkpt>
<trkpt lat="49.1762275695800781" lon="0.2982650101184845"><ele></ele><time>2016-10-9T8:11:6Z</time></trkpt>
<trkpt lat="49.1763076782226562" lon="0.2982164621353149"><ele></ele><time>2016-10-9T8:11:9Z</time></trkpt>
<trkpt lat="49.1763992309570312" lon="0.2981399297714233"><ele></ele><time>2016-10-9T8:11:12Z</time></trkpt>
<trkpt lat="49.1764602661132812" lon="0.2980754077434540"><ele></ele><time>2016-10-9T8:11:15Z</time></trkpt>
<trkpt lat="49.1765213012695312" lon="0.2980154752731323"><ele></ele><time>2016-10-9T8:11:18Z</time></trkpt>
<trkpt lat="49.1766242980957031" lon="0.2979329824447632"><ele></ele><time>2016-10-9T8:11:21Z</time></trkpt>
<trkpt lat="49.1766967773437500" lon="0.2978822886943817"><ele></ele><time>2016-10-9T8:11:24Z</time></trkpt>
<trkpt lat="49.1768264770507812" lon="0.2978045642375946"><ele></ele><time>2016-10-9T8:11:27Z</time></trkpt>
<trkpt lat="49.1769523620605469" lon="0.2977500259876251"><ele></ele><time>2016-10-9T8:11:30Z</time></trkpt>
<trkpt lat="49.1770935058593750" lon="0.2977298200130463"><ele></ele><time>2016-10-9T8:11:33Z</time></trkpt>
<trkpt lat="49.1771736145019531" lon="0.2977086901664734"><ele></ele><time>2016-10-9T8:11:36Z</time></trkpt>
<trkpt lat="49.1772499084472656" lon="0.2976777553558350"><ele></ele><time>2016-10-9T8:11:39Z</time></trkpt>
<trkpt lat="49.1773185729980469" lon="0.2976412177085876"><ele></ele><time>2016-10-9T8:11:42Z</time></trkpt>
<trkpt lat="49.1774330139160156" lon="0.2975929379463196"><ele></ele><time>2016-10-9T8:11:45Z</time></trkpt>
<trkpt lat="49.1775169372558594" lon="0.2975619137287140"><ele></ele><time>2016-10-9T8:11:48Z</time></trkpt>
<trkpt lat="49.1776313781738281" lon="0.2975187599658966"><ele></ele><time>2016-10-9T8:11:51Z</time></trkpt>
<trkpt lat="49.1777038574218750" lon="0.2974942028522491"><ele></ele><time>2016-10-9T8:11:54Z</time></trkpt>
<trkpt lat="49.1778068542480469" lon="0.2974584996700287"><ele></ele><time>2016-10-9T8:11:57Z</time></trkpt>
<trkpt lat="49.1779174804687500" lon="0.2974189221858978"><ele></ele><time>2016-10-9T8:12:0Z</time></trkpt>
<trkpt lat="49.1780319213867188" lon="0.2973760962486267"><ele></ele><time>2016-10-9T8:12:3Z</time></trkpt>
<trkpt lat="49.1781044006347656" lon="0.2973560690879822"><ele></ele><time>2016-10-9T8:12:6Z</time></trkpt>
<trkpt lat="49.1782035827636719" lon="0.2973234653472900"><ele></ele><time>2016-10-9T8:12:9Z</time></trkpt>
<trkpt lat="49.1783065795898438" lon="0.2972945272922516"><ele></ele><time>2016-10-9T8:12:12Z</time></trkpt>
<trkpt lat="49.1783714294433594" lon="0.2972831428050995"><ele></ele><time>2016-10-9T8:12:15Z</time></trkpt>
<trkpt lat="49.1784744262695312" lon="0.2972683012485504"><ele></ele><time>2016-10-9T8:12:18Z</time></trkpt>
<trkpt lat="49.1785545349121094" lon="0.2972615957260132"><ele></ele><time>2016-10-9T8:12:21Z</time></trkpt>
<trkpt lat="49.1786956787109375" lon="0.2972718179225922"><ele></ele><time>2016-10-9T8:12:24Z</time></trkpt>
<trkpt lat="49.1787872314453125" lon="0.2972814738750458"><ele></ele><time>2016-10-9T8:12:27Z</time></trkpt>
<trkpt lat="49.1789054870605469" lon="0.2972839772701263"><ele></ele><time>2016-10-9T8:12:30Z</time></trkpt>
<trkpt lat="49.1790161132812500" lon="0.2972929477691650"><ele></ele><time>2016-10-9T8:12:33Z</time></trkpt>
<trkpt lat="49.1791152954101562" lon="0.2973144948482513"><ele></ele><time>2016-10-9T8:12:36Z</time></trkpt>
<trkpt lat="49.1791839599609375" lon="0.2973244488239288"><ele></ele><time>2016-10-9T8:12:39Z</time></trkpt>
<trkpt lat="49.1792869567871094" lon="0.2973181009292603"><ele></ele><time>2016-10-9T8:12:42Z</time></trkpt>
<trkpt lat="49.1793594360351562" lon="0.2973007559776306"><ele></ele><time>2016-10-9T8:12:45Z</time></trkpt>
<trkpt lat="49.1794319152832031" lon="0.2972836494445801"><ele></ele><time>2016-10-9T8:12:48Z</time></trkpt>
<trkpt lat="49.1794891357421875" lon="0.2972698211669922"><ele></ele><time>2016-10-9T8:12:51Z</time></trkpt>
<trkpt lat="49.1795349121093750" lon="0.2972588241100311"><ele></ele><time>2016-10-9T8:12:54Z</time></trkpt>
<trkpt lat="49.1795845031738281" lon="0.2972553074359894"><ele></ele><time>2016-10-9T8:12:57Z</time></trkpt>
<trkpt lat="49.1796493530273438" lon="0.2972604334354401"><ele></ele><time>2016-10-9T8:13:0Z</time></trkpt>
<trkpt lat="49.1797637939453125" lon="0.2972820401191711"><ele></ele><time>2016-10-9T8:13:3Z</time></trkpt>
<trkpt lat="49.1798744201660156" lon="0.2973126471042633"><ele></ele><time>2016-10-9T8:13:6Z</time></trkpt>
<trkpt lat="49.1799545288085938" lon="0.2973332703113556"><ele></ele><time>2016-10-9T8:13:9Z</time></trkpt>
<trkpt lat="49.1800804138183594" lon="0.2973642647266388"><ele></ele><time>2016-10-9T8:13:12Z</time></trkpt>
<trkpt lat="49.1801948547363281" lon="0.2973906099796295"><ele></ele><time>2016-10-9T8:13:15Z</time></trkpt>
<trkpt lat="49.1802902221679688" lon="0.2974092960357666"><ele></ele><time>2016-10-9T8:13:18Z</time></trkpt>
<trkpt lat="49.1803817749023438" lon="0.2974276542663574"><ele></ele><time>2016-10-9T8:13:21Z</time></trkpt>
<trkpt lat="49.1804924011230469" lon="0.2974541187286377"><ele></ele><time>2016-10-9T8:13:24Z</time></trkpt>
<trkpt lat="49.1805725097656250" lon="0.2974822223186493"><ele></ele><time>2016-10-9T8:13:27Z</time></trkpt>
<trkpt lat="49.1806755065917969" lon="0.2975214421749115"><ele></ele><time>2016-10-9T8:13:30Z</time></trkpt>
<trkpt lat="49.1807785034179688" lon="0.2975480854511261"><ele></ele><time>2016-10-9T8:13:33Z</time></trkpt>
<trkpt lat="49.1808815002441406" lon="0.2975871562957764"><ele></ele><time>2016-10-9T8:13:36Z</time></trkpt>
<trkpt lat="49.1809577941894531" lon="0.2976035773754120"><ele></ele><time>2016-10-9T8:13:39Z</time></trkpt>
<trkpt lat="49.1810455322265625" lon="0.2976204156875610"><ele></ele><time>2016-10-9T8:13:42Z</time></trkpt>
<trkpt lat="49.1811714172363281" lon="0.2976668775081635"><ele></ele><time>2016-10-9T8:13:45Z</time></trkpt>
<trkpt lat="49.1812858581542969" lon="0.2976979613304138"><ele></ele><time>2016-10-9T8:13:48Z</time></trkpt>
<trkpt lat="49.1813583374023438" lon="0.2977093458175659"><ele></ele><time>2016-10-9T8:13:51Z</time></trkpt>
<trkpt lat="49.1814689636230469" lon="0.2977314889431000"><ele></ele><time>2016-10-9T8:13:54Z</time></trkpt>
<trkpt lat="49.1815910339355469" lon="0.2977710366249084"><ele></ele><time>2016-10-9T8:13:57Z</time></trkpt>
<trkpt lat="49.1817245483398438" lon="0.2978407740592957"><ele></ele><time>2016-10-9T8:14:0Z</time></trkpt>
<trkpt lat="49.1818161010742188" lon="0.2978838682174683"><ele></ele><time>2016-10-9T8:14:3Z</time></trkpt>
<trkpt lat="49.1819076538085938" lon="0.2979346513748169"><ele></ele><time>2016-10-9T8:14:6Z</time></trkpt>
<trkpt lat="49.1820411682128906" lon="0.2979890704154968"><ele></ele><time>2016-10-9T8:14:9Z</time></trkpt>
<trkpt lat="49.1821670532226562" lon="0.2980528473854065"><ele></ele><time>2016-10-9T8:14:12Z</time></trkpt>
<trkpt lat="49.1822395324707031" lon="0.2980866432189941"><ele></ele><time>2016-10-9T8:14:15Z</time></trkpt>
<trkpt lat="49.1823692321777344" lon="0.2981157004833221"><ele></ele><time>2016-10-9T8:14:18Z</time></trkpt>
<trkpt lat="49.1824913024902344" lon="0.2981560230255127"><ele></ele><time>2016-10-9T8:14:21Z</time></trkpt>
<trkpt lat="49.1826286315917969" lon="0.2981953322887421"><ele></ele><time>2016-10-9T8:14:24Z</time></trkpt>
<trkpt lat="49.1827087402343750" lon="0.2982225716114044"><ele></ele><time>2016-10-9T8:14:27Z</time></trkpt>
<trkpt lat="49.1827888488769531" lon="0.2982507348060608"><ele></ele><time>2016-10-9T8:14:30Z</time></trkpt>
<trkpt lat="49.1829071044921875" lon="0.2982867956161499"><ele></ele><time>2016-10-9T8:14:33Z</time></trkpt>
<trkpt lat="49.1829910278320312" lon="0.2983162105083466"><ele></ele><time>2016-10-9T8:14:36Z</time></trkpt>
<trkpt lat="49.1830711364746094" lon="0.2983441948890686"><ele></ele><time>2016-10-9T8:14:39Z</time></trkpt>
<trkpt lat="49.1831550598144531" lon="0.2983683347702026"><ele></ele><time>2016-10-9T8:14:42Z</time></trkpt>
<trkpt lat="49.1832695007324219" lon="0.2983956634998322"><ele></ele><time>2016-10-9T8:14:45Z</time></trkpt>
<trkpt lat="49.1833534240722656" lon="0.2984179556369781"><ele></ele><time>2016-10-9T8:14:48Z</time></trkpt>
<trkpt lat="49.1834793090820312" lon="0.2984545826911926"><ele></ele><time>2016-10-9T8:14:51Z</time></trkpt>
<trkpt lat="49.1835594177246094" lon="0.2984831035137177"><ele></ele><time>2016-10-9T8:14:54Z</time></trkpt>
<trkpt lat="49.1836929321289062" lon="0.2985270917415619"><ele></ele><time>2016-10-9T8:14:57Z</time></trkpt>
<trkpt lat="49.1838035583496094" lon="0.2985650599002838"><ele></ele><time>2016-10-9T8:15:0Z</time></trkpt>
<trkpt lat="49.1839027404785156" lon="0.2986114919185638"><ele></ele><time>2016-10-9T8:15:3Z</time></trkpt>
<trkpt lat="49.1840667724609375" lon="0.2986654043197632"><ele></ele><time>2016-10-9T8:15:6Z</time></trkpt>
<trkpt lat="49.1841812133789062" lon="0.2987051308155060"><ele></ele><time>2016-10-9T8:15:9Z</time></trkpt>
<trkpt lat="49.1842918395996094" lon="0.2987571954727173"><ele></ele><time>2016-10-9T8:15:12Z</time></trkpt>
<trkpt lat="49.1843605041503906" lon="0.2987754642963409"><ele></ele><time>2016-10-9T8:15:15Z</time></trkpt>
<trkpt lat="49.1844482421875000" lon="0.2988224625587463"><ele></ele><time>2016-10-9T8:15:18Z</time></trkpt>
<trkpt lat="49.1845855712890625" lon="0.2988595962524414"><ele></ele><time>2016-10-9T8:15:21Z</time></trkpt>
<trkpt lat="49.1846656799316406" lon="0.2988873422145844"><ele></ele><time>2016-10-9T8:15:24Z</time></trkpt>
<trkpt lat="49.1847496032714844" lon="0.2989180386066437"><ele></ele><time>2016-10-9T8:15:27Z</time></trkpt>
<trkpt lat="49.1848678588867188" lon="0.2989587783813477"><ele></ele><time>2016-10-9T8:15:30Z</time></trkpt>
<trkpt lat="49.1849479675292969" lon="0.2989880144596100"><ele></ele><time>2016-10-9T8:15:33Z</time></trkpt>
<trkpt lat="49.1850662231445312" lon="0.2990308403968811"><ele></ele><time>2016-10-9T8:15:36Z</time></trkpt>
<trkpt lat="49.1851539611816406" lon="0.2990612685680389"><ele></ele><time>2016-10-9T8:15:39Z</time></trkpt>
<trkpt lat="49.1852874755859375" lon="0.2991017699241638"><ele></ele><time>2016-10-9T8:15:42Z</time></trkpt>
<trkpt lat="49.1854248046875000" lon="0.2991394698619843"><ele></ele><time>2016-10-9T8:15:45Z</time></trkpt>
<trkpt lat="49.1855545043945312" lon="0.2991795539855957"><ele></ele><time>2016-10-9T8:15:48Z</time></trkpt>
<trkpt lat="49.1856727600097656" lon="0.2992202937602997"><ele></ele><time>2016-10-9T8:15:51Z</time></trkpt>
<trkpt lat="49.1858062744140625" lon="0.2992702424526215"><ele></ele><time>2016-10-9T8:15:54Z</time></trkpt>
<trkpt lat="49.1859436035156250" lon="0.2993209362030029"><ele></ele><time>2016-10-9T8:15:57Z</time></trkpt>
<trkpt lat="49.1860923767089844" lon="0.2993526458740234"><ele></ele><time>2016-10-9T8:16:0Z</time></trkpt>
<trkpt lat="49.1862411499023438" lon="0.2994304895401001"><ele></ele><time>2016-10-9T8:16:3Z</time></trkpt>
<trkpt lat="49.1864013671875000" lon="0.2994787693023682"><ele></ele><time>2016-10-9T8:16:6Z</time></trkpt>
<trkpt lat="49.1865615844726562" lon="0.2995152473449707"><ele></ele><time>2016-10-9T8:16:9Z</time></trkpt>
<trkpt lat="49.1866760253906250" lon="0.2995671331882477"><ele></ele><time>2016-10-9T8:16:12Z</time></trkpt>
<trkpt lat="49.1868095397949219" lon="0.2996047735214233"><ele></ele><time>2016-10-9T8:16:15Z</time></trkpt>
<trkpt lat="49.1870079040527344" lon="0.2996602356433868"><ele></ele><time>2016-10-9T8:16:18Z</time></trkpt>
<trkpt lat="49.1872138977050781" lon="0.2997159957885742"><ele></ele><time>2016-10-9T8:16:21Z</time></trkpt>
<trkpt lat="49.1873550415039062" lon="0.2997610867023468"><ele></ele><time>2016-10-9T8:16:24Z</time></trkpt>
<trkpt lat="49.1875038146972656" lon="0.2998178303241730"><ele></ele><time>2016-10-9T8:16:27Z</time></trkpt>
<trkpt lat="49.1876564025878906" lon="0.2998681068420410"><ele></ele><time>2016-10-9T8:16:30Z</time></trkpt>
<trkpt lat="49.1878852844238281" lon="0.2999322414398193"><ele></ele><time>2016-10-9T8:16:33Z</time></trkpt>
<trkpt lat="49.1881141662597656" lon="0.2999722957611084"><ele></ele><time>2016-10-9T8:16:36Z</time></trkpt>
<trkpt lat="49.1884193420410156" lon="0.3001066744327545"><ele></ele><time>2016-10-9T8:16:39Z</time></trkpt>
<trkpt lat="49.1886138916015625" lon="0.3001756370067596"><ele></ele><time>2016-10-9T8:16:42Z</time></trkpt>
<trkpt lat="49.1887893676757812" lon="0.3002257049083710"><ele></ele><time>2016-10-9T8:16:45Z</time></trkpt>
<trkpt lat="49.1890296936035156" lon="0.3003024756908417"><ele></ele><time>2016-10-9T8:16:48Z</time></trkpt>
<trkpt lat="49.1892242431640625" lon="0.3003414571285248"><ele></ele><time>2016-10-9T8:16:51Z</time></trkpt>
<trkpt lat="49.1894264221191406" lon="0.3004297912120819"><ele></ele><time>2016-10-9T8:16:54Z</time></trkpt>
<trkpt lat="49.1896934509277344" lon="0.3005048930644989"><ele></ele><time>2016-10-9T8:16:57Z</time></trkpt>
<trkpt lat="49.1899147033691406" lon="0.3006094098091125"><ele></ele><time>2016-10-9T8:17:0Z</time></trkpt>
<trkpt lat="49.1901741027832031" lon="0.3007288575172424"><ele></ele><time>2016-10-9T8:17:3Z</time></trkpt>
<trkpt lat="49.1904182434082031" lon="0.3009051978588104"><ele></ele><time>2016-10-9T8:17:6Z</time></trkpt>
<trkpt lat="49.1905899047851562" lon="0.3011478781700134"><ele></ele><time>2016-10-9T8:17:9Z</time></trkpt>
<trkpt lat="49.1907424926757812" lon="0.3013125658035278"><ele></ele><time>2016-10-9T8:17:12Z</time></trkpt>
<trkpt lat="49.1908950805664062" lon="0.3014734983444214"><ele></ele><time>2016-10-9T8:17:15Z</time></trkpt>
<trkpt lat="49.1910476684570312" lon="0.3016232848167419"><ele></ele><time>2016-10-9T8:17:18Z</time></trkpt>
<trkpt lat="49.1912612915039062" lon="0.3018393814563751"><ele></ele><time>2016-10-9T8:17:21Z</time></trkpt>
<trkpt lat="49.1913948059082031" lon="0.3019987046718597"><ele></ele><time>2016-10-9T8:17:24Z</time></trkpt>
<trkpt lat="49.1915245056152344" lon="0.3021573126316071"><ele></ele><time>2016-10-9T8:17:27Z</time></trkpt>
<trkpt lat="49.1917304992675781" lon="0.3023836910724640"><ele></ele><time>2016-10-9T8:17:30Z</time></trkpt>
<trkpt lat="49.1918411254882812" lon="0.3025322258472443"><ele></ele><time>2016-10-9T8:17:33Z</time></trkpt>
<trkpt lat="49.1920204162597656" lon="0.3027590513229370"><ele></ele><time>2016-10-9T8:17:36Z</time></trkpt>
<trkpt lat="49.1921768188476562" lon="0.3029986619949341"><ele></ele><time>2016-10-9T8:17:39Z</time></trkpt>
<trkpt lat="49.1923751831054688" lon="0.3032154440879822"><ele></ele><time>2016-10-9T8:17:42Z</time></trkpt>
<trkpt lat="49.1925964355468750" lon="0.3034282624721527"><ele></ele><time>2016-10-9T8:17:45Z</time></trkpt>
<trkpt lat="49.1927680969238281" lon="0.3036440014839172"><ele></ele><time>2016-10-9T8:17:48Z</time></trkpt>
<trkpt lat="49.1929702758789062" lon="0.3038508594036102"><ele></ele><time>2016-10-9T8:17:51Z</time></trkpt>
<trkpt lat="49.1931343078613281" lon="0.3040691316127777"><ele></ele><time>2016-10-9T8:17:54Z</time></trkpt>
<trkpt lat="49.1933135986328125" lon="0.3042869865894318"><ele></ele><time>2016-10-9T8:17:57Z</time></trkpt>
<trkpt lat="49.1934890747070312" lon="0.3045134544372559"><ele></ele><time>2016-10-9T8:18:0Z</time></trkpt>
<trkpt lat="49.1936073303222656" lon="0.3046478033065796"><ele></ele><time>2016-10-9T8:18:3Z</time></trkpt>
<trkpt lat="49.1937217712402344" lon="0.3047812581062317"><ele></ele><time>2016-10-9T8:18:6Z</time></trkpt>
<trkpt lat="49.1938858032226562" lon="0.3049780726432800"><ele></ele><time>2016-10-9T8:18:9Z</time></trkpt>
<trkpt lat="49.1940765380859375" lon="0.3051992654800415"><ele></ele><time>2016-10-9T8:18:12Z</time></trkpt>
<trkpt lat="49.1942558288574219" lon="0.3054119050502777"><ele></ele><time>2016-10-9T8:18:15Z</time></trkpt>
<trkpt lat="49.1944351196289062" lon="0.3056104779243469"><ele></ele><time>2016-10-9T8:18:18Z</time></trkpt>
<trkpt lat="49.1945419311523438" lon="0.3057474493980408"><ele></ele><time>2016-10-9T8:18:21Z</time></trkpt>
<trkpt lat="49.1946487426757812" lon="0.3058671355247498"><ele></ele><time>2016-10-9T8:18:24Z</time></trkpt>
<trkpt lat="49.1947555541992188" lon="0.3059905171394348"><ele></ele><time>2016-10-9T8:18:27Z</time></trkpt>
<trkpt lat="49.1949195861816406" lon="0.3061800301074982"><ele></ele><time>2016-10-9T8:18:30Z</time></trkpt>
<trkpt lat="49.1950683593750000" lon="0.3063642680644989"><ele></ele><time>2016-10-9T8:18:33Z</time></trkpt>
<trkpt lat="49.1951675415039062" lon="0.3064835369586945"><ele></ele><time>2016-10-9T8:18:36Z</time></trkpt>
<trkpt lat="49.1953277587890625" lon="0.3066651821136475"><ele></ele><time>2016-10-9T8:18:39Z</time></trkpt>
<trkpt lat="49.1954269409179688" lon="0.3067787587642670"><ele></ele><time>2016-10-9T8:18:42Z</time></trkpt>
<trkpt lat="49.1955299377441406" lon="0.3069024682044983"><ele></ele><time>2016-10-9T8:18:45Z</time></trkpt>
<trkpt lat="49.1957054138183594" lon="0.3071083128452301"><ele></ele><time>2016-10-9T8:18:48Z</time></trkpt>
<trkpt lat="49.1958160400390625" lon="0.3072436153888702"><ele></ele><time>2016-10-9T8:18:51Z</time></trkpt>
<trkpt lat="49.1959228515625000" lon="0.3073664009571075"><ele></ele><time>2016-10-9T8:18:54Z</time></trkpt>
<trkpt lat="49.1960906982421875" lon="0.3075633645057678"><ele></ele><time>2016-10-9T8:18:57Z</time></trkpt>
<trkpt lat="49.1961975097656250" lon="0.3076832294464111"><ele></ele><time>2016-10-9T8:19:0Z</time></trkpt>
<trkpt lat="49.1963615417480469" lon="0.3078649640083313"><ele></ele><time>2016-10-9T8:19:3Z</time></trkpt>
<trkpt lat="49.1964721679687500" lon="0.3079833090305328"><ele></ele><time>2016-10-9T8:19:6Z</time></trkpt>
<trkpt lat="49.1966400146484375" lon="0.3082126379013062"><ele></ele><time>2016-10-9T8:19:9Z</time></trkpt>
<trkpt lat="49.1968154907226562" lon="0.3084161579608917"><ele></ele><time>2016-10-9T8:19:12Z</time></trkpt>
<trkpt lat="49.1969184875488281" lon="0.3085587322711945"><ele></ele><time>2016-10-9T8:19:15Z</time></trkpt>
<trkpt lat="49.1971168518066406" lon="0.3087634146213531"><ele></ele><time>2016-10-9T8:19:18Z</time></trkpt>
<trkpt lat="49.1972389221191406" lon="0.3089019656181335"><ele></ele><time>2016-10-9T8:19:21Z</time></trkpt>
<trkpt lat="49.1974029541015625" lon="0.3091195523738861"><ele></ele><time>2016-10-9T8:19:24Z</time></trkpt>
<trkpt lat="49.1975708007812500" lon="0.3093385100364685"><ele></ele><time>2016-10-9T8:19:27Z</time></trkpt>
<trkpt lat="49.1976890563964844" lon="0.3094757795333862"><ele></ele><time>2016-10-9T8:19:30Z</time></trkpt>
<trkpt lat="49.1978607177734375" lon="0.3097063899040222"><ele></ele><time>2016-10-9T8:19:33Z</time></trkpt>
<trkpt lat="49.1979675292968750" lon="0.3098809719085693"><ele></ele><time>2016-10-9T8:19:36Z</time></trkpt>
<trkpt lat="49.1981201171875000" lon="0.3101608455181122"><ele></ele><time>2016-10-9T8:19:39Z</time></trkpt>
<trkpt lat="49.1982612609863281" lon="0.3104591667652130"><ele></ele><time>2016-10-9T8:19:42Z</time></trkpt>
<trkpt lat="49.1983909606933594" lon="0.3107754886150360"><ele></ele><time>2016-10-9T8:19:45Z</time></trkpt>
<trkpt lat="49.1985130310058594" lon="0.3111028075218201"><ele></ele><time>2016-10-9T8:19:48Z</time></trkpt>
<trkpt lat="49.1986351013183594" lon="0.3114397525787354"><ele></ele><time>2016-10-9T8:19:51Z</time></trkpt>
<trkpt lat="49.1987495422363281" lon="0.3117662370204926"><ele></ele><time>2016-10-9T8:19:54Z</time></trkpt>
<trkpt lat="49.1988639831542969" lon="0.3121069669723511"><ele></ele><time>2016-10-9T8:19:57Z</time></trkpt>
<trkpt lat="49.1989860534667969" lon="0.3124299049377441"><ele></ele><time>2016-10-9T8:20:0Z</time></trkpt>
<trkpt lat="49.1990547180175781" lon="0.3126341700553894"><ele></ele><time>2016-10-9T8:20:3Z</time></trkpt>
<trkpt lat="49.1991157531738281" lon="0.3128474056720734"><ele></ele><time>2016-10-9T8:20:6Z</time></trkpt>
<trkpt lat="49.1991958618164062" lon="0.3130714595317841"><ele></ele><time>2016-10-9T8:20:9Z</time></trkpt>
<trkpt lat="49.1993064880371094" lon="0.3133866190910339"><ele></ele><time>2016-10-9T8:20:12Z</time></trkpt>
<trkpt lat="49.1994171142578125" lon="0.3136918842792511"><ele></ele><time>2016-10-9T8:20:15Z</time></trkpt>
<trkpt lat="49.1995315551757812" lon="0.3139894604682922"><ele></ele><time>2016-10-9T8:20:18Z</time></trkpt>
<trkpt lat="49.1996116638183594" lon="0.3141913712024689"><ele></ele><time>2016-10-9T8:20:21Z</time></trkpt>
<trkpt lat="49.1997108459472656" lon="0.3144789636135101"><ele></ele><time>2016-10-9T8:20:24Z</time></trkpt>
<trkpt lat="49.1998138427734375" lon="0.3147598206996918"><ele></ele><time>2016-10-9T8:20:27Z</time></trkpt>
<trkpt lat="49.1999130249023438" lon="0.3150339126586914"><ele></ele><time>2016-10-9T8:20:30Z</time></trkpt>
<trkpt lat="49.2000083923339844" lon="0.3152955174446106"><ele></ele><time>2016-10-9T8:20:33Z</time></trkpt>
<trkpt lat="49.2001113891601562" lon="0.3155747950077057"><ele></ele><time>2016-10-9T8:20:36Z</time></trkpt>
<trkpt lat="49.2002029418945312" lon="0.3158320486545563"><ele></ele><time>2016-10-9T8:20:39Z</time></trkpt>
<trkpt lat="49.2002983093261719" lon="0.3160996735095978"><ele></ele><time>2016-10-9T8:20:42Z</time></trkpt>
<trkpt lat="49.2003898620605469" lon="0.3163656294345856"><ele></ele><time>2016-10-9T8:20:45Z</time></trkpt>
<trkpt lat="49.2004890441894531" lon="0.3166331946849823"><ele></ele><time>2016-10-9T8:20:48Z</time></trkpt>
<trkpt lat="49.2005729675292969" lon="0.3169107139110565"><ele></ele><time>2016-10-9T8:20:51Z</time></trkpt>
<trkpt lat="49.2006645202636719" lon="0.3172013163566589"><ele></ele><time>2016-10-9T8:20:54Z</time></trkpt>
<trkpt lat="49.2007446289062500" lon="0.3174424469470978"><ele></ele><time>2016-10-9T8:20:57Z</time></trkpt>
<trkpt lat="49.2007942199707031" lon="0.3176219165325165"><ele></ele><time>2016-10-9T8:21:0Z</time></trkpt>
<trkpt lat="49.2008628845214844" lon="0.3178131878376007"><ele></ele><time>2016-10-9T8:21:3Z</time></trkpt>
<trkpt lat="49.2009239196777344" lon="0.3179907202720642"><ele></ele><time>2016-10-9T8:21:6Z</time></trkpt>
<trkpt lat="49.2010192871093750" lon="0.3182544112205505"><ele></ele><time>2016-10-9T8:21:9Z</time></trkpt>
<trkpt lat="49.2011108398437500" lon="0.3185200393199921"><ele></ele><time>2016-10-9T8:21:12Z</time></trkpt>
<trkpt lat="49.2011985778808594" lon="0.3187840580940247"><ele></ele><time>2016-10-9T8:21:15Z</time></trkpt>
<trkpt lat="49.2012825012207031" lon="0.3190562129020691"><ele></ele><time>2016-10-9T8:21:18Z</time></trkpt>
<trkpt lat="49.2013473510742188" lon="0.3192506134510040"><ele></ele><time>2016-10-9T8:21:21Z</time></trkpt>
<trkpt lat="49.2014122009277344" lon="0.3194442093372345"><ele></ele><time>2016-10-9T8:21:24Z</time></trkpt>
<trkpt lat="49.2015380859375000" lon="0.3197605609893799"><ele></ele><time>2016-10-9T8:21:27Z</time></trkpt>
<trkpt lat="49.2015953063964844" lon="0.3199822604656219"><ele></ele><time>2016-10-9T8:21:30Z</time></trkpt>
<trkpt lat="49.2017250061035156" lon="0.3202515542507172"><ele></ele><time>2016-10-9T8:21:33Z</time></trkpt>
<trkpt lat="49.2018470764160156" lon="0.3205806314945221"><ele></ele><time>2016-10-9T8:21:36Z</time></trkpt>
<trkpt lat="49.2019271850585938" lon="0.3207929432392120"><ele></ele><time>2016-10-9T8:21:39Z</time></trkpt>
<trkpt lat="49.2020225524902344" lon="0.3211397826671600"><ele></ele><time>2016-10-9T8:21:42Z</time></trkpt>
<trkpt lat="49.2021293640136719" lon="0.3214513659477234"><ele></ele><time>2016-10-9T8:21:45Z</time></trkpt>
<trkpt lat="49.2021980285644531" lon="0.3216570317745209"><ele></ele><time>2016-10-9T8:21:48Z</time></trkpt>
<trkpt lat="49.2023048400878906" lon="0.3218769133090973"><ele></ele><time>2016-10-9T8:21:51Z</time></trkpt>
<trkpt lat="49.2023849487304688" lon="0.3221668303012848"><ele></ele><time>2016-10-9T8:21:54Z</time></trkpt>
<trkpt lat="49.2024574279785156" lon="0.3224036097526550"><ele></ele><time>2016-10-9T8:21:57Z</time></trkpt>
<trkpt lat="49.2025032043457031" lon="0.3226181268692017"><ele></ele><time>2016-10-9T8:22:0Z</time></trkpt>
<trkpt lat="49.2026367187500000" lon="0.3229554891586304"><ele></ele><time>2016-10-9T8:22:3Z</time></trkpt>
<trkpt lat="49.2027282714843750" lon="0.3231987357139587"><ele></ele><time>2016-10-9T8:22:6Z</time></trkpt>
<trkpt lat="49.2028045654296875" lon="0.3234190940856934"><ele></ele><time>2016-10-9T8:22:9Z</time></trkpt>
<trkpt lat="49.2028846740722656" lon="0.3236279785633087"><ele></ele><time>2016-10-9T8:22:12Z</time></trkpt>
<trkpt lat="49.2029991149902344" lon="0.3239384293556213"><ele></ele><time>2016-10-9T8:22:15Z</time></trkpt>
<trkpt lat="49.2030715942382812" lon="0.3241399228572845"><ele></ele><time>2016-10-9T8:22:18Z</time></trkpt>
<trkpt lat="49.2031555175781250" lon="0.3244425058364868"><ele></ele><time>2016-10-9T8:22:21Z</time></trkpt>
<trkpt lat="49.2032318115234375" lon="0.3246690034866333"><ele></ele><time>2016-10-9T8:22:24Z</time></trkpt>
<trkpt lat="49.2033081054687500" lon="0.3248621225357056"><ele></ele><time>2016-10-9T8:22:27Z</time></trkpt>
<trkpt lat="49.2034187316894531" lon="0.3251747488975525"><ele></ele><time>2016-10-9T8:22:30Z</time></trkpt>
<trkpt lat="49.2034988403320312" lon="0.3253661990165710"><ele></ele><time>2016-10-9T8:22:33Z</time></trkpt>
<trkpt lat="49.2035675048828125" lon="0.3255593180656433"><ele></ele><time>2016-10-9T8:22:36Z</time></trkpt>
<trkpt lat="49.2036666870117188" lon="0.3258230090141296"><ele></ele><time>2016-10-9T8:22:39Z</time></trkpt>
<trkpt lat="49.2037391662597656" lon="0.3259941637516022"><ele></ele><time>2016-10-9T8:22:42Z</time></trkpt>
<trkpt lat="49.2037658691406250" lon="0.3262021243572235"><ele></ele><time>2016-10-9T8:22:45Z</time></trkpt>
<trkpt lat="49.2038650512695312" lon="0.3264563679695129"><ele></ele><time>2016-10-9T8:22:48Z</time></trkpt>
<trkpt lat="49.2039451599121094" lon="0.3267205655574799"><ele></ele><time>2016-10-9T8:22:51Z</time></trkpt>
<trkpt lat="49.2040214538574219" lon="0.3269887864589691"><ele></ele><time>2016-10-9T8:22:54Z</time></trkpt>
<trkpt lat="49.2040901184082031" lon="0.3272570073604584"><ele></ele><time>2016-10-9T8:22:57Z</time></trkpt>
<trkpt lat="49.2041625976562500" lon="0.3275263905525208"><ele></ele><time>2016-10-9T8:23:0Z</time></trkpt>
<trkpt lat="49.2041969299316406" lon="0.3277257084846497"><ele></ele><time>2016-10-9T8:23:3Z</time></trkpt>
<trkpt lat="49.2042427062988281" lon="0.3278974592685699"><ele></ele><time>2016-10-9T8:23:6Z</time></trkpt>
<trkpt lat="49.2043151855468750" lon="0.3281745612621307"><ele></ele><time>2016-10-9T8:23:9Z</time></trkpt>
<trkpt lat="49.2043685913085938" lon="0.3283554315567017"><ele></ele><time>2016-10-9T8:23:12Z</time></trkpt>
<trkpt lat="49.2044372558593750" lon="0.3286154568195343"><ele></ele><time>2016-10-9T8:23:15Z</time></trkpt>
<trkpt lat="49.2045249938964844" lon="0.3288980722427368"><ele></ele><time>2016-10-9T8:23:18Z</time></trkpt>
<trkpt lat="49.2046089172363281" lon="0.3291800618171692"><ele></ele><time>2016-10-9T8:23:21Z</time></trkpt>
<trkpt lat="49.2046661376953125" lon="0.3294722437858582"><ele></ele><time>2016-10-9T8:23:24Z</time></trkpt>
<trkpt lat="49.2047462463378906" lon="0.3297635912895203"><ele></ele><time>2016-10-9T8:23:27Z</time></trkpt>
<trkpt lat="49.2048759460449219" lon="0.3300374448299408"><ele></ele><time>2016-10-9T8:23:30Z</time></trkpt>
<trkpt lat="49.2049674987792969" lon="0.3303225040435791"><ele></ele><time>2016-10-9T8:23:33Z</time></trkpt>
<trkpt lat="49.2050704956054688" lon="0.3306157886981964"><ele></ele><time>2016-10-9T8:23:36Z</time></trkpt>
<trkpt lat="49.2051506042480469" lon="0.3309141099452972"><ele></ele><time>2016-10-9T8:23:39Z</time></trkpt>
<trkpt lat="49.2052040100097656" lon="0.3310980796813965"><ele></ele><time>2016-10-9T8:23:42Z</time></trkpt>
<trkpt lat="49.2052803039550781" lon="0.3314472734928131"><ele></ele><time>2016-10-9T8:23:45Z</time></trkpt>
<trkpt lat="49.2053413391113281" lon="0.3317680358886719"><ele></ele><time>2016-10-9T8:23:48Z</time></trkpt>
<trkpt lat="49.2053909301757812" lon="0.3319745659828186"><ele></ele><time>2016-10-9T8:23:51Z</time></trkpt>
<trkpt lat="49.2054595947265625" lon="0.3321708738803864"><ele></ele><time>2016-10-9T8:23:54Z</time></trkpt>
<trkpt lat="49.2055358886718750" lon="0.3325170576572418"><ele></ele><time>2016-10-9T8:23:57Z</time></trkpt>
<trkpt lat="49.2056274414062500" lon="0.3328606188297272"><ele></ele><time>2016-10-9T8:24:0Z</time></trkpt>
<trkpt lat="49.2057113647460938" lon="0.3330680727958679"><ele></ele><time>2016-10-9T8:24:3Z</time></trkpt>
<trkpt lat="49.2058258056640625" lon="0.3333966434001923"><ele></ele><time>2016-10-9T8:24:6Z</time></trkpt>
<trkpt lat="49.2059288024902344" lon="0.3337677121162415"><ele></ele><time>2016-10-9T8:24:9Z</time></trkpt>
<trkpt lat="49.2060127258300781" lon="0.3339543044567108"><ele></ele><time>2016-10-9T8:24:12Z</time></trkpt>
<trkpt lat="49.2061157226562500" lon="0.3342961966991425"><ele></ele><time>2016-10-9T8:24:15Z</time></trkpt>
<trkpt lat="49.2061767578125000" lon="0.3344908356666565"><ele></ele><time>2016-10-9T8:24:18Z</time></trkpt>
<trkpt lat="49.2062683105468750" lon="0.3348264396190643"><ele></ele><time>2016-10-9T8:24:21Z</time></trkpt>
<trkpt lat="49.2063903808593750" lon="0.3351031243801117"><ele></ele><time>2016-10-9T8:24:24Z</time></trkpt>
<trkpt lat="49.2064857482910156" lon="0.3353918790817261"><ele></ele><time>2016-10-9T8:24:27Z</time></trkpt>
<trkpt lat="49.2065505981445312" lon="0.3355818092823029"><ele></ele><time>2016-10-9T8:24:30Z</time></trkpt>
<trkpt lat="49.2066497802734375" lon="0.3358468413352966"><ele></ele><time>2016-10-9T8:24:33Z</time></trkpt>
<trkpt lat="49.2066993713378906" lon="0.3360449969768524"><ele></ele><time>2016-10-9T8:24:36Z</time></trkpt>
<trkpt lat="49.2067604064941406" lon="0.3362357020378113"><ele></ele><time>2016-10-9T8:24:39Z</time></trkpt>
<trkpt lat="49.2068557739257812" lon="0.3365181684494019"><ele></ele><time>2016-10-9T8:24:42Z</time></trkpt>
<trkpt lat="49.2069320678710938" lon="0.3367077708244324"><ele></ele><time>2016-10-9T8:24:45Z</time></trkpt>
<trkpt lat="49.2070198059082031" lon="0.3369699418544769"><ele></ele><time>2016-10-9T8:24:48Z</time></trkpt>
<trkpt lat="49.2070808410644531" lon="0.3371576964855194"><ele></ele><time>2016-10-9T8:24:51Z</time></trkpt>
<trkpt lat="49.2071685791015625" lon="0.3374464511871338"><ele></ele><time>2016-10-9T8:24:54Z</time></trkpt>
<trkpt lat="49.2072486877441406" lon="0.3377414941787720"><ele></ele><time>2016-10-9T8:24:57Z</time></trkpt>
<trkpt lat="49.2073554992675781" lon="0.3380102217197418"><ele></ele><time>2016-10-9T8:25:0Z</time></trkpt>
<trkpt lat="49.2074279785156250" lon="0.3381994962692261"><ele></ele><time>2016-10-9T8:25:3Z</time></trkpt>
<trkpt lat="49.2075233459472656" lon="0.3384501934051514"><ele></ele><time>2016-10-9T8:25:6Z</time></trkpt>
<trkpt lat="49.2076187133789062" lon="0.3387197554111481"><ele></ele><time>2016-10-9T8:25:9Z</time></trkpt>
<trkpt lat="49.2077102661132812" lon="0.3390080034732819"><ele></ele><time>2016-10-9T8:25:12Z</time></trkpt>
<trkpt lat="49.2077713012695312" lon="0.3391900658607483"><ele></ele><time>2016-10-9T8:25:15Z</time></trkpt>
<trkpt lat="49.2078666687011719" lon="0.3394421935081482"><ele></ele><time>2016-10-9T8:25:18Z</time></trkpt>
<trkpt lat="49.2079010009765625" lon="0.3395768702030182"><ele></ele><time>2016-10-9T8:25:21Z</time></trkpt>
<trkpt lat="49.2079963684082031" lon="0.3398584425449371"><ele></ele><time>2016-10-9T8:25:24Z</time></trkpt>
<trkpt lat="49.2080879211425781" lon="0.3401011824607849"><ele></ele><time>2016-10-9T8:25:27Z</time></trkpt>
<trkpt lat="49.2081718444824219" lon="0.3403518795967102"><ele></ele><time>2016-10-9T8:25:30Z</time></trkpt>
<trkpt lat="49.2082252502441406" lon="0.3405228555202484"><ele></ele><time>2016-10-9T8:25:33Z</time></trkpt>
<trkpt lat="49.2082748413085938" lon="0.3406858146190643"><ele></ele><time>2016-10-9T8:25:36Z</time></trkpt>
<trkpt lat="49.2083625793457031" lon="0.3409262895584106"><ele></ele><time>2016-10-9T8:25:39Z</time></trkpt>
<trkpt lat="49.2084655761718750" lon="0.3411473035812378"><ele></ele><time>2016-10-9T8:25:42Z</time></trkpt>
<trkpt lat="49.2085571289062500" lon="0.3413891196250916"><ele></ele><time>2016-10-9T8:25:45Z</time></trkpt>
<trkpt lat="49.2086219787597656" lon="0.3416244983673096"><ele></ele><time>2016-10-9T8:25:48Z</time></trkpt>
<trkpt lat="49.2087020874023438" lon="0.3418591022491455"><ele></ele><time>2016-10-9T8:25:51Z</time></trkpt>
<trkpt lat="49.2088088989257812" lon="0.3421087265014648"><ele></ele><time>2016-10-9T8:25:54Z</time></trkpt>
<trkpt lat="49.2088928222656250" lon="0.3422932028770447"><ele></ele><time>2016-10-9T8:25:57Z</time></trkpt>
<trkpt lat="49.2089424133300781" lon="0.3424910902976990"><ele></ele><time>2016-10-9T8:26:0Z</time></trkpt>
<trkpt lat="49.2090377807617188" lon="0.3427159786224365"><ele></ele><time>2016-10-9T8:26:3Z</time></trkpt>
<trkpt lat="49.2091064453125000" lon="0.3429596424102783"><ele></ele><time>2016-10-9T8:26:6Z</time></trkpt>
<trkpt lat="49.2091484069824219" lon="0.3431164622306824"><ele></ele><time>2016-10-9T8:26:9Z</time></trkpt>
<trkpt lat="49.2092170715332031" lon="0.3433422148227692"><ele></ele><time>2016-10-9T8:26:12Z</time></trkpt>
<trkpt lat="49.2092895507812500" lon="0.3435519039630890"><ele></ele><time>2016-10-9T8:26:15Z</time></trkpt>
<trkpt lat="49.2093276977539062" lon="0.3436844348907471"><ele></ele><time>2016-10-9T8:26:18Z</time></trkpt>
<trkpt lat="49.2094345092773438" lon="0.3438733518123627"><ele></ele><time>2016-10-9T8:26:21Z</time></trkpt>
<trkpt lat="49.2095184326171875" lon="0.3441218137741089"><ele></ele><time>2016-10-9T8:26:24Z</time></trkpt>
<trkpt lat="49.2095680236816406" lon="0.3442721664905548"><ele></ele><time>2016-10-9T8:26:27Z</time></trkpt>
<trkpt lat="49.2096138000488281" lon="0.3444053530693054"><ele></ele><time>2016-10-9T8:26:30Z</time></trkpt>
<trkpt lat="49.2096824645996094" lon="0.3445980548858643"><ele></ele><time>2016-10-9T8:26:33Z</time></trkpt>
<trkpt lat="49.2097282409667969" lon="0.3448075354099274"><ele></ele><time>2016-10-9T8:26:36Z</time></trkpt>
<trkpt lat="49.2097854614257812" lon="0.3450327515602112"><ele></ele><time>2016-10-9T8:26:39Z</time></trkpt>
<trkpt lat="49.2098464965820312" lon="0.3452670276165009"><ele></ele><time>2016-10-9T8:26:42Z</time></trkpt>
<trkpt lat="49.2098960876464844" lon="0.3453817665576935"><ele></ele><time>2016-10-9T8:26:45Z</time></trkpt>
<trkpt lat="49.2099609375000000" lon="0.3455516695976257"><ele></ele><time>2016-10-9T8:26:48Z</time></trkpt>
<trkpt lat="49.2100143432617188" lon="0.3457412719726562"><ele></ele><time>2016-10-9T8:26:51Z</time></trkpt>
<trkpt lat="49.2100677490234375" lon="0.3458646535873413"><ele></ele><time>2016-10-9T8:26:54Z</time></trkpt>
<trkpt lat="49.2101287841796875" lon="0.3460916280746460"><ele></ele><time>2016-10-9T8:26:57Z</time></trkpt>
<trkpt lat="49.2101745605468750" lon="0.3462170958518982"><ele></ele><time>2016-10-9T8:27:0Z</time></trkpt>
<trkpt lat="49.2102203369140625" lon="0.3463432490825653"><ele></ele><time>2016-10-9T8:27:3Z</time></trkpt>
<trkpt lat="49.2102737426757812" lon="0.3464747667312622"><ele></ele><time>2016-10-9T8:27:6Z</time></trkpt>
<trkpt lat="49.2103118896484375" lon="0.3466202914714813"><ele></ele><time>2016-10-9T8:27:9Z</time></trkpt>
<trkpt lat="49.2103614807128906" lon="0.3467496037483215"><ele></ele><time>2016-10-9T8:27:12Z</time></trkpt>
<trkpt lat="49.2104339599609375" lon="0.3469700515270233"><ele></ele><time>2016-10-9T8:27:15Z</time></trkpt>
<trkpt lat="49.2104644775390625" lon="0.3470875620841980"><ele></ele><time>2016-10-9T8:27:18Z</time></trkpt>
<trkpt lat="49.2105140686035156" lon="0.3472302258014679"><ele></ele><time>2016-10-9T8:27:21Z</time></trkpt>
<trkpt lat="49.2105827331542969" lon="0.3474189043045044"><ele></ele><time>2016-10-9T8:27:24Z</time></trkpt>
<trkpt lat="49.2106399536132812" lon="0.3475443720817566"><ele></ele><time>2016-10-9T8:27:27Z</time></trkpt>
<trkpt lat="49.2106971740722656" lon="0.3477474749088287"><ele></ele><time>2016-10-9T8:27:30Z</time></trkpt>
<trkpt lat="49.2107429504394531" lon="0.3478814065456390"><ele></ele><time>2016-10-9T8:27:33Z</time></trkpt>
<trkpt lat="49.2108345031738281" lon="0.3480712771415710"><ele></ele><time>2016-10-9T8:27:36Z</time></trkpt>
<trkpt lat="49.2109184265136719" lon="0.3482874333858490"><ele></ele><time>2016-10-9T8:27:39Z</time></trkpt>
<trkpt lat="49.2109718322753906" lon="0.3485249876976013"><ele></ele><time>2016-10-9T8:27:42Z</time></trkpt>
<trkpt lat="49.2110214233398438" lon="0.3486355543136597"><ele></ele><time>2016-10-9T8:27:45Z</time></trkpt>
<trkpt lat="49.2110633850097656" lon="0.3487649559974670"><ele></ele><time>2016-10-9T8:27:48Z</time></trkpt>
<trkpt lat="49.2111282348632812" lon="0.3489868342876434"><ele></ele><time>2016-10-9T8:27:51Z</time></trkpt>
<trkpt lat="49.2111701965332031" lon="0.3491398096084595"><ele></ele><time>2016-10-9T8:27:54Z</time></trkpt>
<trkpt lat="49.2112426757812500" lon="0.3492720723152161"><ele></ele><time>2016-10-9T8:27:57Z</time></trkpt>
<trkpt lat="49.2112655639648438" lon="0.3494209945201874"><ele></ele><time>2016-10-9T8:28:0Z</time></trkpt>
<trkpt lat="49.2112960815429688" lon="0.3495580554008484"><ele></ele><time>2016-10-9T8:28:3Z</time></trkpt>
<trkpt lat="49.2113571166992188" lon="0.3497732877731323"><ele></ele><time>2016-10-9T8:28:6Z</time></trkpt>
<trkpt lat="49.2114830017089844" lon="0.3500581979751587"><ele></ele><time>2016-10-9T8:28:9Z</time></trkpt>
<trkpt lat="49.2115631103515625" lon="0.3502106666564941"><ele></ele><time>2016-10-9T8:28:12Z</time></trkpt>
<trkpt lat="49.2116508483886719" lon="0.3504638075828552"><ele></ele><time>2016-10-9T8:28:15Z</time></trkpt>
<trkpt lat="49.2117042541503906" lon="0.3506224751472473"><ele></ele><time>2016-10-9T8:28:18Z</time></trkpt>
<trkpt lat="49.2118110656738281" lon="0.3508828878402710"><ele></ele><time>2016-10-9T8:28:21Z</time></trkpt>
<trkpt lat="49.2119064331054688" lon="0.3511733412742615"><ele></ele><time>2016-10-9T8:28:24Z</time></trkpt>
<trkpt lat="49.2119712829589844" lon="0.3513519465923309"><ele></ele><time>2016-10-9T8:28:27Z</time></trkpt>
<trkpt lat="49.2120819091796875" lon="0.3516438901424408"><ele></ele><time>2016-10-9T8:28:30Z</time></trkpt>
<trkpt lat="49.2121925354003906" lon="0.3519248366355896"><ele></ele><time>2016-10-9T8:28:33Z</time></trkpt>
<trkpt lat="49.2122497558593750" lon="0.3521019518375397"><ele></ele><time>2016-10-9T8:28:36Z</time></trkpt>
<trkpt lat="49.2123374938964844" lon="0.3523925542831421"><ele></ele><time>2016-10-9T8:28:39Z</time></trkpt>
<trkpt lat="49.2124290466308594" lon="0.3527062833309174"><ele></ele><time>2016-10-9T8:28:42Z</time></trkpt>
<trkpt lat="49.2125244140625000" lon="0.3530176877975464"><ele></ele><time>2016-10-9T8:28:45Z</time></trkpt>
<trkpt lat="49.2125968933105469" lon="0.3532142341136932"><ele></ele><time>2016-10-9T8:28:48Z</time></trkpt>
<trkpt lat="49.2126655578613281" lon="0.3534184992313385"><ele></ele><time>2016-10-9T8:28:51Z</time></trkpt>
<trkpt lat="49.2127647399902344" lon="0.3536937534809113"><ele></ele><time>2016-10-9T8:28:54Z</time></trkpt>
<trkpt lat="49.2128791809082031" lon="0.3539881408214569"><ele></ele><time>2016-10-9T8:28:57Z</time></trkpt>
<trkpt lat="49.2129821777343750" lon="0.3542835116386414"><ele></ele><time>2016-10-9T8:29:0Z</time></trkpt>
<trkpt lat="49.2130661010742188" lon="0.3545859456062317"><ele></ele><time>2016-10-9T8:29:3Z</time></trkpt>
<trkpt lat="49.2131576538085938" lon="0.3548651337623596"><ele></ele><time>2016-10-9T8:29:6Z</time></trkpt>
<trkpt lat="49.2132492065429688" lon="0.3551454246044159"><ele></ele><time>2016-10-9T8:29:9Z</time></trkpt>
<trkpt lat="49.2133407592773438" lon="0.3554254770278931"><ele></ele><time>2016-10-9T8:29:12Z</time></trkpt>
<trkpt lat="49.2134208679199219" lon="0.3556727468967438"><ele></ele><time>2016-10-9T8:29:15Z</time></trkpt>
<trkpt lat="49.2135124206542969" lon="0.3559510111808777"><ele></ele><time>2016-10-9T8:29:18Z</time></trkpt>
<trkpt lat="49.2135848999023438" lon="0.3561290502548218"><ele></ele><time>2016-10-9T8:29:21Z</time></trkpt>
<trkpt lat="49.2136917114257812" lon="0.3563969433307648"><ele></ele><time>2016-10-9T8:29:24Z</time></trkpt>
<trkpt lat="49.2137641906738281" lon="0.3565779030323029"><ele></ele><time>2016-10-9T8:29:27Z</time></trkpt>
<trkpt lat="49.2138633728027344" lon="0.3568565845489502"><ele></ele><time>2016-10-9T8:29:30Z</time></trkpt>
<trkpt lat="49.2139472961425781" lon="0.3571185171604156"><ele></ele><time>2016-10-9T8:29:33Z</time></trkpt>
<trkpt lat="49.2140083312988281" lon="0.3573055267333984"><ele></ele><time>2016-10-9T8:29:36Z</time></trkpt>
<trkpt lat="49.2141075134277344" lon="0.3575633466243744"><ele></ele><time>2016-10-9T8:29:39Z</time></trkpt>
<trkpt lat="49.2141876220703125" lon="0.3577512800693512"><ele></ele><time>2016-10-9T8:29:42Z</time></trkpt>
<trkpt lat="49.2142257690429688" lon="0.3579269647598267"><ele></ele><time>2016-10-9T8:29:45Z</time></trkpt>
<trkpt lat="49.2143402099609375" lon="0.3582055866718292"><ele></ele><time>2016-10-9T8:29:48Z</time></trkpt>
<trkpt lat="49.2144279479980469" lon="0.3585053980350494"><ele></ele><time>2016-10-9T8:29:51Z</time></trkpt>
<trkpt lat="49.2145118713378906" lon="0.3587087392807007"><ele></ele><time>2016-10-9T8:29:54Z</time></trkpt>
<trkpt lat="49.2146148681640625" lon="0.3589980900287628"><ele></ele><time>2016-10-9T8:29:57Z</time></trkpt>
<trkpt lat="49.2147026062011719" lon="0.3593012690544128"><ele></ele><time>2016-10-9T8:30:0Z</time></trkpt>
<trkpt lat="49.2148056030273438" lon="0.3596070408821106"><ele></ele><time>2016-10-9T8:30:3Z</time></trkpt>
<trkpt lat="49.2148780822753906" lon="0.3598261475563049"><ele></ele><time>2016-10-9T8:30:6Z</time></trkpt>
<trkpt lat="49.2149772644042969" lon="0.3601220250129700"><ele></ele><time>2016-10-9T8:30:9Z</time></trkpt>
<trkpt lat="49.2150497436523438" lon="0.3603260219097137"><ele></ele><time>2016-10-9T8:30:12Z</time></trkpt>
<trkpt lat="49.2151565551757812" lon="0.3606415987014771"><ele></ele><time>2016-10-9T8:30:15Z</time></trkpt>
<trkpt lat="49.2152175903320312" lon="0.3608525693416595"><ele></ele><time>2016-10-9T8:30:18Z</time></trkpt>
<trkpt lat="49.2153205871582031" lon="0.3611516356468201"><ele></ele><time>2016-10-9T8:30:21Z</time></trkpt>
<trkpt lat="49.2153854370117188" lon="0.3613609373569489"><ele></ele><time>2016-10-9T8:30:24Z</time></trkpt>
<trkpt lat="49.2154808044433594" lon="0.3615733385086060"><ele></ele><time>2016-10-9T8:30:27Z</time></trkpt>
<trkpt lat="49.2155723571777344" lon="0.3618858158588409"><ele></ele><time>2016-10-9T8:30:30Z</time></trkpt>
<trkpt lat="49.2156333923339844" lon="0.3621144890785217"><ele></ele><time>2016-10-9T8:30:33Z</time></trkpt>
<trkpt lat="49.2157402038574219" lon="0.3624525070190430"><ele></ele><time>2016-10-9T8:30:36Z</time></trkpt>
<trkpt lat="49.2158126831054688" lon="0.3626755774021149"><ele></ele><time>2016-10-9T8:30:39Z</time></trkpt>
<trkpt lat="49.2159042358398438" lon="0.3629757165908813"><ele></ele><time>2016-10-9T8:30:42Z</time></trkpt>
<trkpt lat="49.2160186767578125" lon="0.3633054494857788"><ele></ele><time>2016-10-9T8:30:45Z</time></trkpt>
<trkpt lat="49.2161598205566406" lon="0.3636223077774048"><ele></ele><time>2016-10-9T8:30:48Z</time></trkpt>
<trkpt lat="49.2163352966308594" lon="0.3639641106128693"><ele></ele><time>2016-10-9T8:30:51Z</time></trkpt>
<trkpt lat="49.2165031433105469" lon="0.3642634451389313"><ele></ele><time>2016-10-9T8:30:54Z</time></trkpt>
<trkpt lat="49.2166976928710938" lon="0.3645565509796143"><ele></ele><time>2016-10-9T8:30:57Z</time></trkpt>
<trkpt lat="49.2168960571289062" lon="0.3648559451103210"><ele></ele><time>2016-10-9T8:31:0Z</time></trkpt>
<trkpt lat="49.2171020507812500" lon="0.3651306927204132"><ele></ele><time>2016-10-9T8:31:3Z</time></trkpt>
<trkpt lat="49.2172775268554688" lon="0.3654006123542786"><ele></ele><time>2016-10-9T8:31:6Z</time></trkpt>
<trkpt lat="49.2174606323242188" lon="0.3657152652740479"><ele></ele><time>2016-10-9T8:31:9Z</time></trkpt>
<trkpt lat="49.2175788879394531" lon="0.3659355342388153"><ele></ele><time>2016-10-9T8:31:12Z</time></trkpt>
<trkpt lat="49.2177047729492188" lon="0.3661154210567474"><ele></ele><time>2016-10-9T8:31:15Z</time></trkpt>
<trkpt lat="49.2179183959960938" lon="0.3664520382881165"><ele></ele><time>2016-10-9T8:31:18Z</time></trkpt>
<trkpt lat="49.2180557250976562" lon="0.3666740655899048"><ele></ele><time>2016-10-9T8:31:21Z</time></trkpt>
<trkpt lat="49.2181968688964844" lon="0.3668815195560455"><ele></ele><time>2016-10-9T8:31:24Z</time></trkpt>
<trkpt lat="49.2184104919433594" lon="0.3671535849571228"><ele></ele><time>2016-10-9T8:31:27Z</time></trkpt>
<trkpt lat="49.2185516357421875" lon="0.3673453032970428"><ele></ele><time>2016-10-9T8:31:30Z</time></trkpt>
<trkpt lat="49.2187118530273438" lon="0.3675201237201691"><ele></ele><time>2016-10-9T8:31:33Z</time></trkpt>
<trkpt lat="49.2189636230468750" lon="0.3677222132682800"><ele></ele><time>2016-10-9T8:31:36Z</time></trkpt>
<trkpt lat="49.2192726135253906" lon="0.3678901195526123"><ele></ele><time>2016-10-9T8:31:39Z</time></trkpt>
<trkpt lat="49.2194480895996094" lon="0.3680015802383423"><ele></ele><time>2016-10-9T8:31:42Z</time></trkpt>
<trkpt lat="49.2197265625000000" lon="0.3681719005107880"><ele></ele><time>2016-10-9T8:31:45Z</time></trkpt>
<trkpt lat="49.2200164794921875" lon="0.3683827221393585"><ele></ele><time>2016-10-9T8:31:48Z</time></trkpt>
<trkpt lat="49.2201919555664062" lon="0.3684890866279602"><ele></ele><time>2016-10-9T8:31:51Z</time></trkpt>
<trkpt lat="49.2203598022460938" lon="0.3686279654502869"><ele></ele><time>2016-10-9T8:31:54Z</time></trkpt>
<trkpt lat="49.2206115722656250" lon="0.3688816130161285"><ele></ele><time>2016-10-9T8:31:57Z</time></trkpt>
<trkpt lat="49.2208137512207031" lon="0.3691651821136475"><ele></ele><time>2016-10-9T8:32:0Z</time></trkpt>
<trkpt lat="49.2209091186523438" lon="0.3693559467792511"><ele></ele><time>2016-10-9T8:32:3Z</time></trkpt>
<trkpt lat="49.2210273742675781" lon="0.3695643842220306"><ele></ele><time>2016-10-9T8:32:6Z</time></trkpt>
<trkpt lat="49.2212181091308594" lon="0.3698549270629883"><ele></ele><time>2016-10-9T8:32:9Z</time></trkpt>
<trkpt lat="49.2213897705078125" lon="0.3700869381427765"><ele></ele><time>2016-10-9T8:32:12Z</time></trkpt>
<trkpt lat="49.2216644287109375" lon="0.3704137504100800"><ele></ele><time>2016-10-9T8:32:15Z</time></trkpt>
<trkpt lat="49.2219429016113281" lon="0.3707823753356934"><ele></ele><time>2016-10-9T8:32:18Z</time></trkpt>
<trkpt lat="49.2221984863281250" lon="0.3710492551326752"><ele></ele><time>2016-10-9T8:32:21Z</time></trkpt>
<trkpt lat="49.2223739624023438" lon="0.3711355924606323"><ele></ele><time>2016-10-9T8:32:24Z</time></trkpt>
<trkpt lat="49.2227935791015625" lon="0.3713428676128387"><ele></ele><time>2016-10-9T8:32:27Z</time></trkpt>
<trkpt lat="49.2231521606445312" lon="0.3715387582778931"><ele></ele><time>2016-10-9T8:32:30Z</time></trkpt>
<trkpt lat="49.2233581542968750" lon="0.3716582059860229"><ele></ele><time>2016-10-9T8:32:33Z</time></trkpt>
<trkpt lat="49.2236404418945312" lon="0.3717782199382782"><ele></ele><time>2016-10-9T8:32:36Z</time></trkpt>
<trkpt lat="49.2239265441894531" lon="0.3718954026699066"><ele></ele><time>2016-10-9T8:32:39Z</time></trkpt>
<trkpt lat="49.2241477966308594" lon="0.3719921410083771"><ele></ele><time>2016-10-9T8:32:42Z</time></trkpt>
<trkpt lat="49.2243537902832031" lon="0.3720703423023224"><ele></ele><time>2016-10-9T8:32:45Z</time></trkpt>
<trkpt lat="49.2246360778808594" lon="0.3721981644630432"><ele></ele><time>2016-10-9T8:32:48Z</time></trkpt>
<trkpt lat="49.2249794006347656" lon="0.3723320066928864"><ele></ele><time>2016-10-9T8:32:51Z</time></trkpt>
<trkpt lat="49.2252578735351562" lon="0.3724589943885803"><ele></ele><time>2016-10-9T8:32:54Z</time></trkpt>
<trkpt lat="49.2255706787109375" lon="0.3725936114788055"><ele></ele><time>2016-10-9T8:32:57Z</time></trkpt>
<trkpt lat="49.2257804870605469" lon="0.3726797699928284"><ele></ele><time>2016-10-9T8:33:0Z</time></trkpt>
<trkpt lat="49.2260818481445312" lon="0.3728069365024567"><ele></ele><time>2016-10-9T8:33:3Z</time></trkpt>
<trkpt lat="49.2262611389160156" lon="0.3728720545768738"><ele></ele><time>2016-10-9T8:33:6Z</time></trkpt>
<trkpt lat="49.2264633178710938" lon="0.3729538023471832"><ele></ele><time>2016-10-9T8:33:9Z</time></trkpt>
<trkpt lat="49.2267723083496094" lon="0.3730749189853668"><ele></ele><time>2016-10-9T8:33:12Z</time></trkpt>
<trkpt lat="49.2269821166992188" lon="0.3731416165828705"><ele></ele><time>2016-10-9T8:33:15Z</time></trkpt>
<trkpt lat="49.2272796630859375" lon="0.3733053207397461"><ele></ele><time>2016-10-9T8:33:18Z</time></trkpt>
<trkpt lat="49.2275199890136719" lon="0.3734629154205322"><ele></ele><time>2016-10-9T8:33:21Z</time></trkpt>
<trkpt lat="49.2278442382812500" lon="0.3735315501689911"><ele></ele><time>2016-10-9T8:33:24Z</time></trkpt>
<trkpt lat="49.2279891967773438" lon="0.3736482262611389"><ele></ele><time>2016-10-9T8:33:27Z</time></trkpt>
<trkpt lat="49.2281608581542969" lon="0.3737904727458954"><ele></ele><time>2016-10-9T8:33:30Z</time></trkpt>
<trkpt lat="49.2283897399902344" lon="0.3740289211273193"><ele></ele><time>2016-10-9T8:33:33Z</time></trkpt>
<trkpt lat="49.2286758422851562" lon="0.3742119073867798"><ele></ele><time>2016-10-9T8:33:36Z</time></trkpt>
<trkpt lat="49.2288551330566406" lon="0.3743239045143127"><ele></ele><time>2016-10-9T8:33:39Z</time></trkpt>
<trkpt lat="49.2290611267089844" lon="0.3745414912700653"><ele></ele><time>2016-10-9T8:33:42Z</time></trkpt>
<trkpt lat="49.2293052673339844" lon="0.3747512102127075"><ele></ele><time>2016-10-9T8:33:45Z</time></trkpt>
<trkpt lat="49.2294921875000000" lon="0.3749180138111115"><ele></ele><time>2016-10-9T8:33:48Z</time></trkpt>
<trkpt lat="49.2296409606933594" lon="0.3750687241554260"><ele></ele><time>2016-10-9T8:33:51Z</time></trkpt>
<trkpt lat="49.2298965454101562" lon="0.3752673566341400"><ele></ele><time>2016-10-9T8:33:54Z</time></trkpt>
<trkpt lat="49.2300567626953125" lon="0.3753805160522461"><ele></ele><time>2016-10-9T8:33:57Z</time></trkpt>
<trkpt lat="49.2302246093750000" lon="0.3755303919315338"><ele></ele><time>2016-10-9T8:34:0Z</time></trkpt>
<trkpt lat="49.2304687500000000" lon="0.3757485747337341"><ele></ele><time>2016-10-9T8:34:3Z</time></trkpt>
<trkpt lat="49.2307014465332031" lon="0.3759553432464600"><ele></ele><time>2016-10-9T8:34:6Z</time></trkpt>
<trkpt lat="49.2308197021484375" lon="0.3760714232921600"><ele></ele><time>2016-10-9T8:34:9Z</time></trkpt>
<trkpt lat="49.2311439514160156" lon="0.3763700127601624"><ele></ele><time>2016-10-9T8:34:12Z</time></trkpt>
<trkpt lat="49.2313079833984375" lon="0.3765171766281128"><ele></ele><time>2016-10-9T8:34:15Z</time></trkpt>
<trkpt lat="49.2314338684082031" lon="0.3766346275806427"><ele></ele><time>2016-10-9T8:34:18Z</time></trkpt>
<trkpt lat="49.2316093444824219" lon="0.3767219483852386"><ele></ele><time>2016-10-9T8:34:21Z</time></trkpt>
<trkpt lat="49.2318267822265625" lon="0.3769318461418152"><ele></ele><time>2016-10-9T8:34:24Z</time></trkpt>
<trkpt lat="49.2320480346679688" lon="0.3771434128284454"><ele></ele><time>2016-10-9T8:34:27Z</time></trkpt>
<trkpt lat="49.2321777343750000" lon="0.3772687911987305"><ele></ele><time>2016-10-9T8:34:30Z</time></trkpt>
<trkpt lat="49.2324066162109375" lon="0.3774739801883698"><ele></ele><time>2016-10-9T8:34:33Z</time></trkpt>
<trkpt lat="49.2326240539550781" lon="0.3776561319828033"><ele></ele><time>2016-10-9T8:34:36Z</time></trkpt>
<trkpt lat="49.2328567504882812" lon="0.3777732849121094"><ele></ele><time>2016-10-9T8:34:39Z</time></trkpt>
<trkpt lat="49.2330856323242188" lon="0.3779125213623047"><ele></ele><time>2016-10-9T8:34:42Z</time></trkpt>
<trkpt lat="49.2333259582519531" lon="0.3780938982963562"><ele></ele><time>2016-10-9T8:34:45Z</time></trkpt>
<trkpt lat="49.2335891723632812" lon="0.3782232403755188"><ele></ele><time>2016-10-9T8:34:48Z</time></trkpt>
<trkpt lat="49.2337684631347656" lon="0.3783613741397858"><ele></ele><time>2016-10-9T8:34:51Z</time></trkpt>
<trkpt lat="49.2339477539062500" lon="0.3784269094467163"><ele></ele><time>2016-10-9T8:34:54Z</time></trkpt>
<trkpt lat="49.2342376708984375" lon="0.3785193860530853"><ele></ele><time>2016-10-9T8:34:57Z</time></trkpt>
<trkpt lat="49.2344322204589844" lon="0.3785279095172882"><ele></ele><time>2016-10-9T8:35:0Z</time></trkpt>
<trkpt lat="49.2347106933593750" lon="0.3784962296485901"><ele></ele><time>2016-10-9T8:35:3Z</time></trkpt>
<trkpt lat="49.2349090576171875" lon="0.3785526454448700"><ele></ele><time>2016-10-9T8:35:6Z</time></trkpt>
<trkpt lat="49.2350845336914062" lon="0.3786412477493286"><ele></ele><time>2016-10-9T8:35:9Z</time></trkpt>
<trkpt lat="49.2353286743164062" lon="0.3788573443889618"><ele></ele><time>2016-10-9T8:35:12Z</time></trkpt>
<trkpt lat="49.2354736328125000" lon="0.3790444135665894"><ele></ele><time>2016-10-9T8:35:15Z</time></trkpt>
<trkpt lat="49.2357025146484375" lon="0.3792931139469147"><ele></ele><time>2016-10-9T8:35:18Z</time></trkpt>
<trkpt lat="49.2359542846679688" lon="0.3795621693134308"><ele></ele><time>2016-10-9T8:35:21Z</time></trkpt>
<trkpt lat="49.2361183166503906" lon="0.3796982169151306"><ele></ele><time>2016-10-9T8:35:24Z</time></trkpt>
<trkpt lat="49.2362899780273438" lon="0.3797838687896729"><ele></ele><time>2016-10-9T8:35:27Z</time></trkpt>
<trkpt lat="49.2365455627441406" lon="0.3799191415309906"><ele></ele><time>2016-10-9T8:35:30Z</time></trkpt>
<trkpt lat="49.2366943359375000" lon="0.3799646496772766"><ele></ele><time>2016-10-9T8:35:33Z</time></trkpt>
<trkpt lat="49.2368202209472656" lon="0.3800495862960815"><ele></ele><time>2016-10-9T8:35:36Z</time></trkpt>
<trkpt lat="49.2369537353515625" lon="0.3801580369472504"><ele></ele><time>2016-10-9T8:35:39Z</time></trkpt>
<trkpt lat="49.2371139526367188" lon="0.3802305459976196"><ele></ele><time>2016-10-9T8:35:42Z</time></trkpt>
<trkpt lat="49.2373924255371094" lon="0.3803353011608124"><ele></ele><time>2016-10-9T8:35:45Z</time></trkpt>
<trkpt lat="49.2375450134277344" lon="0.3804009556770325"><ele></ele><time>2016-10-9T8:35:48Z</time></trkpt>
<trkpt lat="49.2378120422363281" lon="0.3804842531681061"><ele></ele><time>2016-10-9T8:35:51Z</time></trkpt>
<trkpt lat="49.2380676269531250" lon="0.3806540668010712"><ele></ele><time>2016-10-9T8:35:54Z</time></trkpt>
<trkpt lat="49.2382850646972656" lon="0.3806628882884979"><ele></ele><time>2016-10-9T8:35:57Z</time></trkpt>
<trkpt lat="49.2384262084960938" lon="0.3805743753910065"><ele></ele><time>2016-10-9T8:36:0Z</time></trkpt>
<trkpt lat="49.2386589050292969" lon="0.3805319368839264"><ele></ele><time>2016-10-9T8:36:3Z</time></trkpt>
<trkpt lat="49.2388267517089844" lon="0.3805219829082489"><ele></ele><time>2016-10-9T8:36:6Z</time></trkpt>
<trkpt lat="49.2389831542968750" lon="0.3805198669433594"><ele></ele><time>2016-10-9T8:36:9Z</time></trkpt>
<trkpt lat="49.2392311096191406" lon="0.3805091381072998"><ele></ele><time>2016-10-9T8:36:12Z</time></trkpt>
<trkpt lat="49.2394027709960938" lon="0.3805174529552460"><ele></ele><time>2016-10-9T8:36:15Z</time></trkpt>
<trkpt lat="49.2396087646484375" lon="0.3803414404392242"><ele></ele><time>2016-10-9T8:36:18Z</time></trkpt>
<trkpt lat="49.2400779724121094" lon="0.3804445266723633"><ele></ele><time>2016-10-9T8:36:21Z</time></trkpt>
<trkpt lat="49.2402496337890625" lon="0.3803960680961609"><ele></ele><time>2016-10-9T8:36:24Z</time></trkpt>
<trkpt lat="49.2405357360839844" lon="0.3804664015769958"><ele></ele><time>2016-10-9T8:36:27Z</time></trkpt>
<trkpt lat="49.2407112121582031" lon="0.3804361522197723"><ele></ele><time>2016-10-9T8:36:30Z</time></trkpt>
<trkpt lat="49.2409934997558594" lon="0.3804087340831757"><ele></ele><time>2016-10-9T8:36:33Z</time></trkpt>
<trkpt lat="49.2413139343261719" lon="0.3803473114967346"><ele></ele><time>2016-10-9T8:36:36Z</time></trkpt>
<trkpt lat="49.2415122985839844" lon="0.3803408443927765"><ele></ele><time>2016-10-9T8:36:39Z</time></trkpt>
<trkpt lat="49.2417106628417969" lon="0.3803436160087585"><ele></ele><time>2016-10-9T8:36:42Z</time></trkpt>
<trkpt lat="49.2419929504394531" lon="0.3802814185619354"><ele></ele><time>2016-10-9T8:36:45Z</time></trkpt>
<trkpt lat="49.2422027587890625" lon="0.3802934885025024"><ele></ele><time>2016-10-9T8:36:48Z</time></trkpt>
<trkpt lat="49.2424964904785156" lon="0.3802897036075592"><ele></ele><time>2016-10-9T8:36:51Z</time></trkpt>
<trkpt lat="49.2428054809570312" lon="0.3802721202373505"><ele></ele><time>2016-10-9T8:36:54Z</time></trkpt>
<trkpt lat="49.2431297302246094" lon="0.3802395164966583"><ele></ele><time>2016-10-9T8:36:57Z</time></trkpt>
<trkpt lat="49.2434349060058594" lon="0.3802100718021393"><ele></ele><time>2016-10-9T8:37:0Z</time></trkpt>
<trkpt lat="49.2437400817871094" lon="0.3801719546318054"><ele></ele><time>2016-10-9T8:37:3Z</time></trkpt>
<trkpt lat="49.2439956665039062" lon="0.3801487386226654"><ele></ele><time>2016-10-9T8:37:6Z</time></trkpt>
<trkpt lat="49.2442054748535156" lon="0.3801680803298950"><ele></ele><time>2016-10-9T8:37:9Z</time></trkpt>
<trkpt lat="49.2444152832031250" lon="0.3802408576011658"><ele></ele><time>2016-10-9T8:37:12Z</time></trkpt>
<trkpt lat="49.2446479797363281" lon="0.3802380859851837"><ele></ele><time>2016-10-9T8:37:15Z</time></trkpt>
<trkpt lat="49.2448921203613281" lon="0.3801906406879425"><ele></ele><time>2016-10-9T8:37:18Z</time></trkpt>
<trkpt lat="49.2451515197753906" lon="0.3801727890968323"><ele></ele><time>2016-10-9T8:37:21Z</time></trkpt>
<trkpt lat="49.2453498840332031" lon="0.3801461458206177"><ele></ele><time>2016-10-9T8:37:24Z</time></trkpt>
<trkpt lat="49.2455787658691406" lon="0.3800957500934601"><ele></ele><time>2016-10-9T8:37:27Z</time></trkpt>
<trkpt lat="49.2458000183105469" lon="0.3800660073757172"><ele></ele><time>2016-10-9T8:37:30Z</time></trkpt>
<trkpt lat="49.2460060119628906" lon="0.3800519108772278"><ele></ele><time>2016-10-9T8:37:33Z</time></trkpt>
<trkpt lat="49.2461624145507812" lon="0.3800427913665771"><ele></ele><time>2016-10-9T8:37:36Z</time></trkpt>
<trkpt lat="49.2462425231933594" lon="0.3800334036350250"><ele></ele><time>2016-10-9T8:37:39Z</time></trkpt>
<trkpt lat="49.2462615966796875" lon="0.3800832629203796"><ele></ele><time>2016-10-9T8:37:42Z</time></trkpt>
<trkpt lat="49.2463378906250000" lon="0.3800603747367859"><ele></ele><time>2016-10-9T8:37:45Z</time></trkpt>
<trkpt lat="49.2463989257812500" lon="0.3799738883972168"><ele></ele><time>2016-10-9T8:37:48Z</time></trkpt>
<trkpt lat="49.2464561462402344" lon="0.3798907399177551"><ele></ele><time>2016-10-9T8:37:51Z</time></trkpt>
<trkpt lat="49.2465629577636719" lon="0.3796939253807068"><ele></ele><time>2016-10-9T8:37:54Z</time></trkpt>
<trkpt lat="49.2466468811035156" lon="0.3796704709529877"><ele></ele><time>2016-10-9T8:37:57Z</time></trkpt>
<trkpt lat="49.2467079162597656" lon="0.3794091939926147"><ele></ele><time>2016-10-9T8:38:0Z</time></trkpt>
<trkpt lat="49.2468109130859375" lon="0.3791218698024750"><ele></ele><time>2016-10-9T8:38:3Z</time></trkpt>
<trkpt lat="49.2469024658203125" lon="0.3789427280426025"><ele></ele><time>2016-10-9T8:38:6Z</time></trkpt>
<trkpt lat="49.2469711303710938" lon="0.3787284195423126"><ele></ele><time>2016-10-9T8:38:9Z</time></trkpt>
<trkpt lat="49.2470779418945312" lon="0.3785859346389771"><ele></ele><time>2016-10-9T8:38:12Z</time></trkpt>
<trkpt lat="49.2472305297851562" lon="0.3783265948295593"><ele></ele><time>2016-10-9T8:38:15Z</time></trkpt>
<trkpt lat="49.2472686767578125" lon="0.3781091570854187"><ele></ele><time>2016-10-9T8:38:18Z</time></trkpt>
<trkpt lat="49.2473640441894531" lon="0.3778841197490692"><ele></ele><time>2016-10-9T8:38:21Z</time></trkpt>
<trkpt lat="49.2474975585937500" lon="0.3776727914810181"><ele></ele><time>2016-10-9T8:38:24Z</time></trkpt>
<trkpt lat="49.2476005554199219" lon="0.3773890733718872"><ele></ele><time>2016-10-9T8:38:27Z</time></trkpt>
<trkpt lat="49.2477226257324219" lon="0.3771716356277466"><ele></ele><time>2016-10-9T8:38:30Z</time></trkpt>
<trkpt lat="49.2478561401367188" lon="0.3769960403442383"><ele></ele><time>2016-10-9T8:38:33Z</time></trkpt>
<trkpt lat="49.2479171752929688" lon="0.3768973052501678"><ele></ele><time>2016-10-9T8:38:36Z</time></trkpt>
<trkpt lat="49.2479972839355469" lon="0.3768178522586823"><ele></ele><time>2016-10-9T8:38:39Z</time></trkpt>
<trkpt lat="49.2481727600097656" lon="0.3766677975654602"><ele></ele><time>2016-10-9T8:38:42Z</time></trkpt>
<trkpt lat="49.2483062744140625" lon="0.3766063749790192"><ele></ele><time>2016-10-9T8:38:45Z</time></trkpt>
<trkpt lat="49.2484588623046875" lon="0.3765366375446320"><ele></ele><time>2016-10-9T8:38:48Z</time></trkpt>
<trkpt lat="49.2486381530761719" lon="0.3765542209148407"><ele></ele><time>2016-10-9T8:38:51Z</time></trkpt>
<trkpt lat="49.2488594055175781" lon="0.3765133321285248"><ele></ele><time>2016-10-9T8:38:54Z</time></trkpt>
<trkpt lat="49.2490653991699219" lon="0.3764714300632477"><ele></ele><time>2016-10-9T8:38:57Z</time></trkpt>
<trkpt lat="49.2492446899414062" lon="0.3764217197895050"><ele></ele><time>2016-10-9T8:39:0Z</time></trkpt>
<trkpt lat="49.2493667602539062" lon="0.3763959705829620"><ele></ele><time>2016-10-9T8:39:3Z</time></trkpt>
<trkpt lat="49.2495498657226562" lon="0.3764078021049500"><ele></ele><time>2016-10-9T8:39:6Z</time></trkpt>
<trkpt lat="49.2496337890625000" lon="0.3764631152153015"><ele></ele><time>2016-10-9T8:39:9Z</time></trkpt>
<trkpt lat="49.2497749328613281" lon="0.3764995932579041"><ele></ele><time>2016-10-9T8:39:12Z</time></trkpt>
<trkpt lat="49.2499198913574219" lon="0.3764885962009430"><ele></ele><time>2016-10-9T8:39:15Z</time></trkpt>
<trkpt lat="49.2502212524414062" lon="0.3765231370925903"><ele></ele><time>2016-10-9T8:39:18Z</time></trkpt>
<trkpt lat="49.2503509521484375" lon="0.3765376508235931"><ele></ele><time>2016-10-9T8:39:21Z</time></trkpt>
<trkpt lat="49.2505149841308594" lon="0.3765669763088226"><ele></ele><time>2016-10-9T8:39:24Z</time></trkpt>
<trkpt lat="49.2507057189941406" lon="0.3766115605831146"><ele></ele><time>2016-10-9T8:39:27Z</time></trkpt>
<trkpt lat="49.2508316040039062" lon="0.3765965700149536"><ele></ele><time>2016-10-9T8:39:30Z</time></trkpt>
<trkpt lat="49.2510337829589844" lon="0.3765671551227570"><ele></ele><time>2016-10-9T8:39:33Z</time></trkpt>
<trkpt lat="49.2511672973632812" lon="0.3765261471271515"><ele></ele><time>2016-10-9T8:39:36Z</time></trkpt>
<trkpt lat="49.2513542175292969" lon="0.3765003383159637"><ele></ele><time>2016-10-9T8:39:39Z</time></trkpt>
<trkpt lat="49.2515068054199219" lon="0.3764876723289490"><ele></ele><time>2016-10-9T8:39:42Z</time></trkpt>
<trkpt lat="49.2516517639160156" lon="0.3764823079109192"><ele></ele><time>2016-10-9T8:39:45Z</time></trkpt>
<trkpt lat="49.2517852783203125" lon="0.3764752745628357"><ele></ele><time>2016-10-9T8:39:48Z</time></trkpt>
<trkpt lat="49.2520141601562500" lon="0.3764098882675171"><ele></ele><time>2016-10-9T8:39:51Z</time></trkpt>
<trkpt lat="49.2522048950195312" lon="0.3764165937900543"><ele></ele><time>2016-10-9T8:39:54Z</time></trkpt>
<trkpt lat="49.2524147033691406" lon="0.3764280080795288"><ele></ele><time>2016-10-9T8:39:57Z</time></trkpt>
<trkpt lat="49.2525291442871094" lon="0.3764379918575287"><ele></ele><time>2016-10-9T8:40:0Z</time></trkpt>
<trkpt lat="49.2527427673339844" lon="0.3764145970344543"><ele></ele><time>2016-10-9T8:40:3Z</time></trkpt>
<trkpt lat="49.2528724670410156" lon="0.3763998448848724"><ele></ele><time>2016-10-9T8:40:6Z</time></trkpt>
<trkpt lat="49.2530021667480469" lon="0.3763904571533203"><ele></ele><time>2016-10-9T8:40:9Z</time></trkpt>
<trkpt lat="49.2531166076660156" lon="0.3763839006423950"><ele></ele><time>2016-10-9T8:40:12Z</time></trkpt>
<trkpt lat="49.2533264160156250" lon="0.3763680756092072"><ele></ele><time>2016-10-9T8:40:15Z</time></trkpt>
<trkpt lat="49.2535400390625000" lon="0.3763433396816254"><ele></ele><time>2016-10-9T8:40:18Z</time></trkpt>
<trkpt lat="49.2536697387695312" lon="0.3763267397880554"><ele></ele><time>2016-10-9T8:40:21Z</time></trkpt>
<trkpt lat="49.2538604736328125" lon="0.3762809932231903"><ele></ele><time>2016-10-9T8:40:24Z</time></trkpt>
<trkpt lat="49.2539710998535156" lon="0.3762687444686890"><ele></ele><time>2016-10-9T8:40:27Z</time></trkpt>
<trkpt lat="49.2541656494140625" lon="0.3762445151805878"><ele></ele><time>2016-10-9T8:40:30Z</time></trkpt>
<trkpt lat="49.2543601989746094" lon="0.3761429488658905"><ele></ele><time>2016-10-9T8:40:33Z</time></trkpt>
<trkpt lat="49.2545013427734375" lon="0.3760681748390198"><ele></ele><time>2016-10-9T8:40:36Z</time></trkpt>
<trkpt lat="49.2546195983886719" lon="0.3759658336639404"><ele></ele><time>2016-10-9T8:40:39Z</time></trkpt>
<trkpt lat="49.2547988891601562" lon="0.3758126795291901"><ele></ele><time>2016-10-9T8:40:42Z</time></trkpt>
<trkpt lat="49.2549667358398438" lon="0.3756324648857117"><ele></ele><time>2016-10-9T8:40:45Z</time></trkpt>
<trkpt lat="49.2550621032714844" lon="0.3755612373352051"><ele></ele><time>2016-10-9T8:40:48Z</time></trkpt>
<trkpt lat="49.2552185058593750" lon="0.3753128051757812"><ele></ele><time>2016-10-9T8:40:51Z</time></trkpt>
<trkpt lat="49.2554206848144531" lon="0.3750855624675751"><ele></ele><time>2016-10-9T8:40:54Z</time></trkpt>
<trkpt lat="49.2556152343750000" lon="0.3748585879802704"><ele></ele><time>2016-10-9T8:40:57Z</time></trkpt>
<trkpt lat="49.2557296752929688" lon="0.3747193515300751"><ele></ele><time>2016-10-9T8:41:0Z</time></trkpt>
<trkpt lat="49.2558364868164062" lon="0.3745583295822144"><ele></ele><time>2016-10-9T8:41:3Z</time></trkpt>
<trkpt lat="49.2560157775878906" lon="0.3743167817592621"><ele></ele><time>2016-10-9T8:41:6Z</time></trkpt>
<trkpt lat="49.2561569213867188" lon="0.3741585314273834"><ele></ele><time>2016-10-9T8:41:9Z</time></trkpt>
<trkpt lat="49.2562675476074219" lon="0.3740086555480957"><ele></ele><time>2016-10-9T8:41:12Z</time></trkpt>
<trkpt lat="49.2564468383789062" lon="0.3737893104553223"><ele></ele><time>2016-10-9T8:41:15Z</time></trkpt>
<trkpt lat="49.2565727233886719" lon="0.3736403584480286"><ele></ele><time>2016-10-9T8:41:18Z</time></trkpt>
<trkpt lat="49.2566871643066406" lon="0.3735121190547943"><ele></ele><time>2016-10-9T8:41:21Z</time></trkpt>
<trkpt lat="49.2568664550781250" lon="0.3733140528202057"><ele></ele><time>2016-10-9T8:41:24Z</time></trkpt>
<trkpt lat="49.2569656372070312" lon="0.3731780052185059"><ele></ele><time>2016-10-9T8:41:27Z</time></trkpt>
<trkpt lat="49.2571601867675781" lon="0.3729387819766998"><ele></ele><time>2016-10-9T8:41:30Z</time></trkpt>
<trkpt lat="49.2572822570800781" lon="0.3727592527866364"><ele></ele><time>2016-10-9T8:41:33Z</time></trkpt>
<trkpt lat="49.2573890686035156" lon="0.3726218640804291"><ele></ele><time>2016-10-9T8:41:36Z</time></trkpt>
<trkpt lat="49.2575607299804688" lon="0.3723995685577393"><ele></ele><time>2016-10-9T8:41:39Z</time></trkpt>
<trkpt lat="49.2577476501464844" lon="0.3722179532051086"><ele></ele><time>2016-10-9T8:41:42Z</time></trkpt>
<trkpt lat="49.2579345703125000" lon="0.3720250725746155"><ele></ele><time>2016-10-9T8:41:45Z</time></trkpt>
<trkpt lat="49.2580490112304688" lon="0.3718797266483307"><ele></ele><time>2016-10-9T8:41:48Z</time></trkpt>
<trkpt lat="49.2582130432128906" lon="0.3716718554496765"><ele></ele><time>2016-10-9T8:41:51Z</time></trkpt>
<trkpt lat="49.2583312988281250" lon="0.3715451359748840"><ele></ele><time>2016-10-9T8:41:54Z</time></trkpt>
<trkpt lat="49.2585105895996094" lon="0.3713337481021881"><ele></ele><time>2016-10-9T8:41:57Z</time></trkpt>
<trkpt lat="49.2586135864257812" lon="0.3712278604507446"><ele></ele><time>2016-10-9T8:42:0Z</time></trkpt>
<trkpt lat="49.2587547302246094" lon="0.3710191547870636"><ele></ele><time>2016-10-9T8:42:3Z</time></trkpt>
<trkpt lat="49.2589073181152344" lon="0.3708692789077759"><ele></ele><time>2016-10-9T8:42:6Z</time></trkpt>
<trkpt lat="49.2590637207031250" lon="0.3706326782703400"><ele></ele><time>2016-10-9T8:42:9Z</time></trkpt>
<trkpt lat="49.2591743469238281" lon="0.3704983890056610"><ele></ele><time>2016-10-9T8:42:12Z</time></trkpt>
<trkpt lat="49.2592849731445312" lon="0.3703778684139252"><ele></ele><time>2016-10-9T8:42:15Z</time></trkpt>
<trkpt lat="49.2594451904296875" lon="0.3701662123203278"><ele></ele><time>2016-10-9T8:42:18Z</time></trkpt>
<trkpt lat="49.2595863342285156" lon="0.3700281679630280"><ele></ele><time>2016-10-9T8:42:21Z</time></trkpt>
<trkpt lat="49.2597312927246094" lon="0.3697954118251801"><ele></ele><time>2016-10-9T8:42:24Z</time></trkpt>
<trkpt lat="49.2598495483398438" lon="0.3696661591529846"><ele></ele><time>2016-10-9T8:42:27Z</time></trkpt>
<trkpt lat="49.2599563598632812" lon="0.3695359826087952"><ele></ele><time>2016-10-9T8:42:30Z</time></trkpt>
<trkpt lat="49.2601242065429688" lon="0.3693521618843079"><ele></ele><time>2016-10-9T8:42:33Z</time></trkpt>
<trkpt lat="49.2602233886718750" lon="0.3691983520984650"><ele></ele><time>2016-10-9T8:42:36Z</time></trkpt>
<trkpt lat="49.2603797912597656" lon="0.3689922392368317"><ele></ele><time>2016-10-9T8:42:39Z</time></trkpt>
<trkpt lat="49.2605514526367188" lon="0.3688310682773590"><ele></ele><time>2016-10-9T8:42:42Z</time></trkpt>
<trkpt lat="49.2606658935546875" lon="0.3686907589435577"><ele></ele><time>2016-10-9T8:42:45Z</time></trkpt>
<trkpt lat="49.2608718872070312" lon="0.3685259521007538"><ele></ele><time>2016-10-9T8:42:48Z</time></trkpt>
<trkpt lat="49.2609863281250000" lon="0.3684549629688263"><ele></ele><time>2016-10-9T8:42:51Z</time></trkpt>
<trkpt lat="49.2611351013183594" lon="0.3682401478290558"><ele></ele><time>2016-10-9T8:42:54Z</time></trkpt>
<trkpt lat="49.2612342834472656" lon="0.3681166768074036"><ele></ele><time>2016-10-9T8:42:57Z</time></trkpt>
<trkpt lat="49.2613830566406250" lon="0.3679350316524506"><ele></ele><time>2016-10-9T8:43:0Z</time></trkpt>
<trkpt lat="49.2615356445312500" lon="0.3677520751953125"><ele></ele><time>2016-10-9T8:43:3Z</time></trkpt>
<trkpt lat="49.2616844177246094" lon="0.3675622045993805"><ele></ele><time>2016-10-9T8:43:6Z</time></trkpt>
<trkpt lat="49.2617950439453125" lon="0.3674007654190063"><ele></ele><time>2016-10-9T8:43:9Z</time></trkpt>
<trkpt lat="49.2619056701660156" lon="0.3673385083675385"><ele></ele><time>2016-10-9T8:43:12Z</time></trkpt>
<trkpt lat="49.2620239257812500" lon="0.3671302795410156"><ele></ele><time>2016-10-9T8:43:15Z</time></trkpt>
<trkpt lat="49.2621536254882812" lon="0.3669772446155548"><ele></ele><time>2016-10-9T8:43:18Z</time></trkpt>
<trkpt lat="49.2622947692871094" lon="0.3668051660060883"><ele></ele><time>2016-10-9T8:43:21Z</time></trkpt>
<trkpt lat="49.2624282836914062" lon="0.3666297197341919"><ele></ele><time>2016-10-9T8:43:24Z</time></trkpt>
<trkpt lat="49.2625541687011719" lon="0.3664212822914124"><ele></ele><time>2016-10-9T8:43:27Z</time></trkpt>
<trkpt lat="49.2626686096191406" lon="0.3663104474544525"><ele></ele><time>2016-10-9T8:43:30Z</time></trkpt>
<trkpt lat="49.2628059387207031" lon="0.3661051988601685"><ele></ele><time>2016-10-9T8:43:33Z</time></trkpt>
<trkpt lat="49.2628974914550781" lon="0.3659881651401520"><ele></ele><time>2016-10-9T8:43:36Z</time></trkpt>
<trkpt lat="49.2630271911621094" lon="0.3657882809638977"><ele></ele><time>2016-10-9T8:43:39Z</time></trkpt>
<trkpt lat="49.2631568908691406" lon="0.3656064569950104"><ele></ele><time>2016-10-9T8:43:42Z</time></trkpt>
<trkpt lat="49.2633094787597656" lon="0.3654096424579620"><ele></ele><time>2016-10-9T8:43:45Z</time></trkpt>
<trkpt lat="49.2634658813476562" lon="0.3652856051921844"><ele></ele><time>2016-10-9T8:43:48Z</time></trkpt>
<trkpt lat="49.2636299133300781" lon="0.3650949299335480"><ele></ele><time>2016-10-9T8:43:51Z</time></trkpt>
<trkpt lat="49.2637519836425781" lon="0.3649965226650238"><ele></ele><time>2016-10-9T8:43:54Z</time></trkpt>
<trkpt lat="49.2639122009277344" lon="0.3648336529731750"><ele></ele><time>2016-10-9T8:43:57Z</time></trkpt>
<trkpt lat="49.2640533447265625" lon="0.3646481633186340"><ele></ele><time>2016-10-9T8:44:0Z</time></trkpt>
<trkpt lat="49.2641906738281250" lon="0.3644169867038727"><ele></ele><time>2016-10-9T8:44:3Z</time></trkpt>
<trkpt lat="49.2643432617187500" lon="0.3642135560512543"><ele></ele><time>2016-10-9T8:44:6Z</time></trkpt>
<trkpt lat="49.2645111083984375" lon="0.3639997243881226"><ele></ele><time>2016-10-9T8:44:9Z</time></trkpt>
<trkpt lat="49.2646865844726562" lon="0.3637759387493134"><ele></ele><time>2016-10-9T8:44:12Z</time></trkpt>
<trkpt lat="49.2648735046386719" lon="0.3635706603527069"><ele></ele><time>2016-10-9T8:44:15Z</time></trkpt>
<trkpt lat="49.2650260925292969" lon="0.3633595407009125"><ele></ele><time>2016-10-9T8:44:18Z</time></trkpt>
<trkpt lat="49.2651634216308594" lon="0.3631437718868256"><ele></ele><time>2016-10-9T8:44:21Z</time></trkpt>
<trkpt lat="49.2653274536132812" lon="0.3629030585289001"><ele></ele><time>2016-10-9T8:44:24Z</time></trkpt>
<trkpt lat="49.2654342651367188" lon="0.3627609014511108"><ele></ele><time>2016-10-9T8:44:27Z</time></trkpt>
<trkpt lat="49.2655410766601562" lon="0.3626112043857574"><ele></ele><time>2016-10-9T8:44:30Z</time></trkpt>
<trkpt lat="49.2657051086425781" lon="0.3624011278152466"><ele></ele><time>2016-10-9T8:44:33Z</time></trkpt>
<trkpt lat="49.2658309936523438" lon="0.3621796965599060"><ele></ele><time>2016-10-9T8:44:36Z</time></trkpt>
<trkpt lat="49.2659835815429688" lon="0.3619844019412994"><ele></ele><time>2016-10-9T8:44:39Z</time></trkpt>
<trkpt lat="49.2660598754882812" lon="0.3618298172950745"><ele></ele><time>2016-10-9T8:44:42Z</time></trkpt>
<trkpt lat="49.2661743164062500" lon="0.3616591691970825"><ele></ele><time>2016-10-9T8:44:45Z</time></trkpt>
<trkpt lat="49.2662925720214844" lon="0.3614991605281830"><ele></ele><time>2016-10-9T8:44:48Z</time></trkpt>
<trkpt lat="49.2663421630859375" lon="0.3614013493061066"><ele></ele><time>2016-10-9T8:44:51Z</time></trkpt>
<trkpt lat="49.2665023803710938" lon="0.3612264990806580"><ele></ele><time>2016-10-9T8:44:54Z</time></trkpt>
<trkpt lat="49.2666282653808594" lon="0.3610362410545349"><ele></ele><time>2016-10-9T8:44:57Z</time></trkpt>
<trkpt lat="49.2667160034179688" lon="0.3609202206134796"><ele></ele><time>2016-10-9T8:45:0Z</time></trkpt>
<trkpt lat="49.2668266296386719" lon="0.3607020378112793"><ele></ele><time>2016-10-9T8:45:3Z</time></trkpt>
<trkpt lat="49.2668991088867188" lon="0.3606058061122894"><ele></ele><time>2016-10-9T8:45:6Z</time></trkpt>
<trkpt lat="49.2670211791992188" lon="0.3604229986667633"><ele></ele><time>2016-10-9T8:45:9Z</time></trkpt>
<trkpt lat="49.2671012878417969" lon="0.3602902293205261"><ele></ele><time>2016-10-9T8:45:12Z</time></trkpt>
<trkpt lat="49.2671775817871094" lon="0.3601869642734528"><ele></ele><time>2016-10-9T8:45:15Z</time></trkpt>
<trkpt lat="49.2672576904296875" lon="0.3600583970546722"><ele></ele><time>2016-10-9T8:45:18Z</time></trkpt>
<trkpt lat="49.2673797607421875" lon="0.3599027395248413"><ele></ele><time>2016-10-9T8:45:21Z</time></trkpt>
<trkpt lat="49.2675361633300781" lon="0.3597154915332794"><ele></ele><time>2016-10-9T8:45:24Z</time></trkpt>
<trkpt lat="49.2676162719726562" lon="0.3595761060714722"><ele></ele><time>2016-10-9T8:45:27Z</time></trkpt>
<trkpt lat="49.2677230834960938" lon="0.3594000041484833"><ele></ele><time>2016-10-9T8:45:30Z</time></trkpt>
<trkpt lat="49.2678108215332031" lon="0.3592872619628906"><ele></ele><time>2016-10-9T8:45:33Z</time></trkpt>
<trkpt lat="49.2679214477539062" lon="0.3591413199901581"><ele></ele><time>2016-10-9T8:45:36Z</time></trkpt>
<trkpt lat="49.2680587768554688" lon="0.3589401543140411"><ele></ele><time>2016-10-9T8:45:39Z</time></trkpt>
<trkpt lat="49.2681312561035156" lon="0.3588098287582397"><ele></ele><time>2016-10-9T8:45:42Z</time></trkpt>
<trkpt lat="49.2682456970214844" lon="0.3586249947547913"><ele></ele><time>2016-10-9T8:45:45Z</time></trkpt>
<trkpt lat="49.2683181762695312" lon="0.3585231602191925"><ele></ele><time>2016-10-9T8:45:48Z</time></trkpt>
<trkpt lat="49.2684326171875000" lon="0.3583541810512543"><ele></ele><time>2016-10-9T8:45:51Z</time></trkpt>
<trkpt lat="49.2685089111328125" lon="0.3582320511341095"><ele></ele><time>2016-10-9T8:45:54Z</time></trkpt>
<trkpt lat="49.2686080932617188" lon="0.3580791056156158"><ele></ele><time>2016-10-9T8:45:57Z</time></trkpt>
<trkpt lat="49.2687454223632812" lon="0.3579438924789429"><ele></ele><time>2016-10-9T8:46:0Z</time></trkpt>
<trkpt lat="49.2688293457031250" lon="0.3578065037727356"><ele></ele><time>2016-10-9T8:46:3Z</time></trkpt>
<trkpt lat="49.2689247131347656" lon="0.3576597571372986"><ele></ele><time>2016-10-9T8:46:6Z</time></trkpt>
<trkpt lat="49.2690582275390625" lon="0.3574714064598083"><ele></ele><time>2016-10-9T8:46:9Z</time></trkpt>
<trkpt lat="49.2691535949707031" lon="0.3572970628738403"><ele></ele><time>2016-10-9T8:46:12Z</time></trkpt>
<trkpt lat="49.2692527770996094" lon="0.3572083115577698"><ele></ele><time>2016-10-9T8:46:15Z</time></trkpt>
<trkpt lat="49.2693328857421875" lon="0.3570633828639984"><ele></ele><time>2016-10-9T8:46:18Z</time></trkpt>
<trkpt lat="49.2694435119628906" lon="0.3568675816059113"><ele></ele><time>2016-10-9T8:46:21Z</time></trkpt>
<trkpt lat="49.2695274353027344" lon="0.3567079007625580"><ele></ele><time>2016-10-9T8:46:24Z</time></trkpt>
<trkpt lat="49.2696418762207031" lon="0.3565143644809723"><ele></ele><time>2016-10-9T8:46:27Z</time></trkpt>
<trkpt lat="49.2697677612304688" lon="0.3563155531883240"><ele></ele><time>2016-10-9T8:46:30Z</time></trkpt>
<trkpt lat="49.2698822021484375" lon="0.3560740649700165"><ele></ele><time>2016-10-9T8:46:33Z</time></trkpt>
<trkpt lat="49.2699508666992188" lon="0.3559110462665558"><ele></ele><time>2016-10-9T8:46:36Z</time></trkpt>
<trkpt lat="49.2700843811035156" lon="0.3556553721427917"><ele></ele><time>2016-10-9T8:46:39Z</time></trkpt>
<trkpt lat="49.2701568603515625" lon="0.3554661273956299"><ele></ele><time>2016-10-9T8:46:42Z</time></trkpt>
<trkpt lat="49.2702636718750000" lon="0.3551740944385529"><ele></ele><time>2016-10-9T8:46:45Z</time></trkpt>
<trkpt lat="49.2703323364257812" lon="0.3549855947494507"><ele></ele><time>2016-10-9T8:46:48Z</time></trkpt>
<trkpt lat="49.2704505920410156" lon="0.3546597957611084"><ele></ele><time>2016-10-9T8:46:51Z</time></trkpt>
<trkpt lat="49.2705497741699219" lon="0.3543667495250702"><ele></ele><time>2016-10-9T8:46:54Z</time></trkpt>
<trkpt lat="49.2706604003906250" lon="0.3540377616882324"><ele></ele><time>2016-10-9T8:46:57Z</time></trkpt>
<trkpt lat="49.2707252502441406" lon="0.3538002073764801"><ele></ele><time>2016-10-9T8:47:0Z</time></trkpt>
<trkpt lat="49.2708396911621094" lon="0.3534647822380066"><ele></ele><time>2016-10-9T8:47:3Z</time></trkpt>
<trkpt lat="49.2709388732910156" lon="0.3531367182731628"><ele></ele><time>2016-10-9T8:47:6Z</time></trkpt>
<trkpt lat="49.2709999084472656" lon="0.3528946340084076"><ele></ele><time>2016-10-9T8:47:9Z</time></trkpt>
<trkpt lat="49.2710647583007812" lon="0.3526444435119629"><ele></ele><time>2016-10-9T8:47:12Z</time></trkpt>
<trkpt lat="49.2711334228515625" lon="0.3523855209350586"><ele></ele><time>2016-10-9T8:47:15Z</time></trkpt>
<trkpt lat="49.2712440490722656" lon="0.3520017266273499"><ele></ele><time>2016-10-9T8:47:18Z</time></trkpt>
<trkpt lat="49.2713432312011719" lon="0.3515808582305908"><ele></ele><time>2016-10-9T8:47:21Z</time></trkpt>
<trkpt lat="49.2714653015136719" lon="0.3511751592159271"><ele></ele><time>2016-10-9T8:47:24Z</time></trkpt>
<trkpt lat="49.2715721130371094" lon="0.3507725000381470"><ele></ele><time>2016-10-9T8:47:27Z</time></trkpt>
<trkpt lat="49.2716407775878906" lon="0.3504973351955414"><ele></ele><time>2016-10-9T8:47:30Z</time></trkpt>
<trkpt lat="49.2717552185058594" lon="0.3500861227512360"><ele></ele><time>2016-10-9T8:47:33Z</time></trkpt>
<trkpt lat="49.2718162536621094" lon="0.3498101830482483"><ele></ele><time>2016-10-9T8:47:36Z</time></trkpt>
<trkpt lat="49.2719154357910156" lon="0.3494035601615906"><ele></ele><time>2016-10-9T8:47:39Z</time></trkpt>
<trkpt lat="49.2719955444335938" lon="0.3490445911884308"><ele></ele><time>2016-10-9T8:47:42Z</time></trkpt>
<trkpt lat="49.2720642089843750" lon="0.3488053679466248"><ele></ele><time>2016-10-9T8:47:45Z</time></trkpt>
<trkpt lat="49.2721252441406250" lon="0.3484270870685577"><ele></ele><time>2016-10-9T8:47:48Z</time></trkpt>
<trkpt lat="49.2722053527832031" lon="0.3480511605739594"><ele></ele><time>2016-10-9T8:47:51Z</time></trkpt>
<trkpt lat="49.2722625732421875" lon="0.3476842045783997"><ele></ele><time>2016-10-9T8:47:54Z</time></trkpt>
<trkpt lat="49.2723159790039062" lon="0.3474462330341339"><ele></ele><time>2016-10-9T8:47:57Z</time></trkpt>
<trkpt lat="49.2723541259765625" lon="0.3471941053867340"><ele></ele><time>2016-10-9T8:48:0Z</time></trkpt>
<trkpt lat="49.2724304199218750" lon="0.3468375504016876"><ele></ele><time>2016-10-9T8:48:3Z</time></trkpt>
<trkpt lat="49.2724990844726562" lon="0.3464879989624023"><ele></ele><time>2016-10-9T8:48:6Z</time></trkpt>
<trkpt lat="49.2725639343261719" lon="0.3461259901523590"><ele></ele><time>2016-10-9T8:48:9Z</time></trkpt>
<trkpt lat="49.2726058959960938" lon="0.3458907306194305"><ele></ele><time>2016-10-9T8:48:12Z</time></trkpt>
<trkpt lat="49.2726516723632812" lon="0.3456693589687347"><ele></ele><time>2016-10-9T8:48:15Z</time></trkpt>
<trkpt lat="49.2727050781250000" lon="0.3454664349555969"><ele></ele><time>2016-10-9T8:48:18Z</time></trkpt>
<trkpt lat="49.2727622985839844" lon="0.3451655209064484"><ele></ele><time>2016-10-9T8:48:21Z</time></trkpt>
<trkpt lat="49.2728080749511719" lon="0.3448867201805115"><ele></ele><time>2016-10-9T8:48:24Z</time></trkpt>
<trkpt lat="49.2728385925292969" lon="0.3447262346744537"><ele></ele><time>2016-10-9T8:48:27Z</time></trkpt>
<trkpt lat="49.2729492187500000" lon="0.3447362780570984"><ele></ele><time>2016-10-9T8:48:30Z</time></trkpt>
<trkpt lat="49.2730598449707031" lon="0.3447667956352234"><ele></ele><time>2016-10-9T8:48:33Z</time></trkpt>
<trkpt lat="49.2732162475585938" lon="0.3448476791381836"><ele></ele><time>2016-10-9T8:48:36Z</time></trkpt>
<trkpt lat="49.2733078002929688" lon="0.3448936045169830"><ele></ele><time>2016-10-9T8:48:39Z</time></trkpt>
<trkpt lat="49.2734413146972656" lon="0.3449477553367615"><ele></ele><time>2016-10-9T8:48:42Z</time></trkpt>
<trkpt lat="49.2735214233398438" lon="0.3449764251708984"><ele></ele><time>2016-10-9T8:48:45Z</time></trkpt>
<trkpt lat="49.2736244201660156" lon="0.3450179994106293"><ele></ele><time>2016-10-9T8:48:48Z</time></trkpt>
<trkpt lat="49.2737541198730469" lon="0.3450740575790405"><ele></ele><time>2016-10-9T8:48:51Z</time></trkpt>
<trkpt lat="49.2739372253417969" lon="0.3451572060585022"><ele></ele><time>2016-10-9T8:48:54Z</time></trkpt>
<trkpt lat="49.2740135192871094" lon="0.3451945185661316"><ele></ele><time>2016-10-9T8:48:57Z</time></trkpt>
<trkpt lat="49.2741508483886719" lon="0.3452362716197968"><ele></ele><time>2016-10-9T8:49:0Z</time></trkpt>
<trkpt lat="49.2742614746093750" lon="0.3452877998352051"><ele></ele><time>2016-10-9T8:49:3Z</time></trkpt>
<trkpt lat="49.2744369506835938" lon="0.3453852832317352"><ele></ele><time>2016-10-9T8:49:6Z</time></trkpt>
<trkpt lat="49.2745399475097656" lon="0.3454397022724152"><ele></ele><time>2016-10-9T8:49:9Z</time></trkpt>
<trkpt lat="49.2746315002441406" lon="0.3454902172088623"><ele></ele><time>2016-10-9T8:49:12Z</time></trkpt>
<trkpt lat="49.2746963500976562" lon="0.3455215692520142"><ele></ele><time>2016-10-9T8:49:15Z</time></trkpt>
<trkpt lat="49.2747840881347656" lon="0.3455680906772614"><ele></ele><time>2016-10-9T8:49:18Z</time></trkpt>
<trkpt lat="49.2748641967773438" lon="0.3456043899059296"><ele></ele><time>2016-10-9T8:49:21Z</time></trkpt>
<trkpt lat="49.2749061584472656" lon="0.3456284403800964"><ele></ele><time>2016-10-9T8:49:24Z</time></trkpt>
<trkpt lat="49.2749519348144531" lon="0.3456519246101379"><ele></ele><time>2016-10-9T8:49:27Z</time></trkpt>
<trkpt lat="49.2750358581542969" lon="0.3456834256649017"><ele></ele><time>2016-10-9T8:49:30Z</time></trkpt>
<trkpt lat="49.2751235961914062" lon="0.3456856012344360"><ele></ele><time>2016-10-9T8:49:33Z</time></trkpt>
<trkpt lat="49.2751998901367188" lon="0.3456794023513794"><ele></ele><time>2016-10-9T8:49:36Z</time></trkpt>
<trkpt lat="49.2753295898437500" lon="0.3456763029098511"><ele></ele><time>2016-10-9T8:49:39Z</time></trkpt>
<trkpt lat="49.2754478454589844" lon="0.3456672430038452"><ele></ele><time>2016-10-9T8:49:42Z</time></trkpt>
<trkpt lat="49.2755508422851562" lon="0.3456520736217499"><ele></ele><time>2016-10-9T8:49:45Z</time></trkpt>
<trkpt lat="49.2756156921386719" lon="0.3456318974494934"><ele></ele><time>2016-10-9T8:49:48Z</time></trkpt>
<trkpt lat="49.2756805419921875" lon="0.3456151187419891"><ele></ele><time>2016-10-9T8:49:51Z</time></trkpt>
<trkpt lat="49.2757797241210938" lon="0.3455920815467834"><ele></ele><time>2016-10-9T8:49:54Z</time></trkpt>
<trkpt lat="49.2758216857910156" lon="0.3455643355846405"><ele></ele><time>2016-10-9T8:49:57Z</time></trkpt>
<trkpt lat="49.2758903503417969" lon="0.3454812765121460"><ele></ele><time>2016-10-9T8:50:0Z</time></trkpt>
<trkpt lat="49.2759819030761719" lon="0.3454276919364929"><ele></ele><time>2016-10-9T8:50:3Z</time></trkpt>
<trkpt lat="49.2760505676269531" lon="0.3453956842422485"><ele></ele><time>2016-10-9T8:50:6Z</time></trkpt>
<trkpt lat="49.2761383056640625" lon="0.3453422188758850"><ele></ele><time>2016-10-9T8:50:9Z</time></trkpt>
<trkpt lat="49.2762260437011719" lon="0.3452998697757721"><ele></ele><time>2016-10-9T8:50:12Z</time></trkpt>
<trkpt lat="49.2762832641601562" lon="0.3452700376510620"><ele></ele><time>2016-10-9T8:50:15Z</time></trkpt>
<trkpt lat="49.2763519287109375" lon="0.3452110290527344"><ele></ele><time>2016-10-9T8:50:18Z</time></trkpt>
<trkpt lat="49.2764205932617188" lon="0.3451480865478516"><ele></ele><time>2016-10-9T8:50:21Z</time></trkpt>
<trkpt lat="49.2764892578125000" lon="0.3450956940650940"><ele></ele><time>2016-10-9T8:50:24Z</time></trkpt>
<trkpt lat="49.2765350341796875" lon="0.3450568914413452"><ele></ele><time>2016-10-9T8:50:27Z</time></trkpt>
<trkpt lat="49.2765846252441406" lon="0.3450088500976562"><ele></ele><time>2016-10-9T8:50:30Z</time></trkpt>
<trkpt lat="49.2766647338867188" lon="0.3449524343013763"><ele></ele><time>2016-10-9T8:50:33Z</time></trkpt>
<trkpt lat="49.2767410278320312" lon="0.3449034094810486"><ele></ele><time>2016-10-9T8:50:36Z</time></trkpt>
<trkpt lat="49.2767868041992188" lon="0.3448770046234131"><ele></ele><time>2016-10-9T8:50:39Z</time></trkpt>
<trkpt lat="49.2768516540527344" lon="0.3448107242584229"><ele></ele><time>2016-10-9T8:50:42Z</time></trkpt>
<trkpt lat="49.2769050598144531" lon="0.3447369635105133"><ele></ele><time>2016-10-9T8:50:45Z</time></trkpt>
<trkpt lat="49.2769508361816406" lon="0.3446696400642395"><ele></ele><time>2016-10-9T8:50:48Z</time></trkpt>
<trkpt lat="49.2769889831542969" lon="0.3446272313594818"><ele></ele><time>2016-10-9T8:50:51Z</time></trkpt>
<trkpt lat="49.2770500183105469" lon="0.3445627689361572"><ele></ele><time>2016-10-9T8:50:54Z</time></trkpt>
<trkpt lat="49.2771263122558594" lon="0.3445080518722534"><ele></ele><time>2016-10-9T8:50:57Z</time></trkpt>
<trkpt lat="49.2772102355957031" lon="0.3444532155990601"><ele></ele><time>2016-10-9T8:51:0Z</time></trkpt>
<trkpt lat="49.2772598266601562" lon="0.3444186747074127"><ele></ele><time>2016-10-9T8:51:3Z</time></trkpt>
<trkpt lat="49.2773284912109375" lon="0.3443456888198853"><ele></ele><time>2016-10-9T8:51:6Z</time></trkpt>
<trkpt lat="49.2773628234863281" lon="0.3442899286746979"><ele></ele><time>2016-10-9T8:51:9Z</time></trkpt>
<trkpt lat="49.2773971557617188" lon="0.3442554175853729"><ele></ele><time>2016-10-9T8:51:12Z</time></trkpt>
<trkpt lat="49.2774543762207031" lon="0.3442228138446808"><ele></ele><time>2016-10-9T8:51:15Z</time></trkpt>
<trkpt lat="49.2775039672851562" lon="0.3442065417766571"><ele></ele><time>2016-10-9T8:51:18Z</time></trkpt>
<trkpt lat="49.2775878906250000" lon="0.3441784679889679"><ele></ele><time>2016-10-9T8:51:21Z</time></trkpt>
<trkpt lat="49.2776489257812500" lon="0.3441598415374756"><ele></ele><time>2016-10-9T8:51:24Z</time></trkpt>
<trkpt lat="49.2777099609375000" lon="0.3441689014434814"><ele></ele><time>2016-10-9T8:51:27Z</time></trkpt>
<trkpt lat="49.2777519226074219" lon="0.3441672325134277"><ele></ele><time>2016-10-9T8:51:30Z</time></trkpt>
<trkpt lat="49.2778129577636719" lon="0.3441621959209442"><ele></ele><time>2016-10-9T8:51:33Z</time></trkpt>
<trkpt lat="49.2778625488281250" lon="0.3441598415374756"><ele></ele><time>2016-10-9T8:51:36Z</time></trkpt>
<trkpt lat="49.2779541015625000" lon="0.3441373109817505"><ele></ele><time>2016-10-9T8:51:39Z</time></trkpt>
<trkpt lat="49.2780303955078125" lon="0.3441146910190582"><ele></ele><time>2016-10-9T8:51:42Z</time></trkpt>
<trkpt lat="49.2780799865722656" lon="0.3441103100776672"><ele></ele><time>2016-10-9T8:51:45Z</time></trkpt>
<trkpt lat="49.2781486511230469" lon="0.3441170156002045"><ele></ele><time>2016-10-9T8:51:48Z</time></trkpt>
<trkpt lat="49.2782020568847656" lon="0.3440991640090942"><ele></ele><time>2016-10-9T8:51:51Z</time></trkpt>
<trkpt lat="49.2782440185546875" lon="0.3440893590450287"><ele></ele><time>2016-10-9T8:51:54Z</time></trkpt>
<trkpt lat="49.2783355712890625" lon="0.3440845906734467"><ele></ele><time>2016-10-9T8:51:57Z</time></trkpt>
<trkpt lat="49.2784156799316406" lon="0.3440974056720734"><ele></ele><time>2016-10-9T8:52:0Z</time></trkpt>
<trkpt lat="49.2784881591796875" lon="0.3441187143325806"><ele></ele><time>2016-10-9T8:52:3Z</time></trkpt>
<trkpt lat="49.2785491943359375" lon="0.3441296815872192"><ele></ele><time>2016-10-9T8:52:6Z</time></trkpt>
<trkpt lat="49.2786026000976562" lon="0.3441319465637207"><ele></ele><time>2016-10-9T8:52:9Z</time></trkpt>
<trkpt lat="49.2787094116210938" lon="0.3441447615623474"><ele></ele><time>2016-10-9T8:52:12Z</time></trkpt>
<trkpt lat="49.2787895202636719" lon="0.3441684842109680"><ele></ele><time>2016-10-9T8:52:15Z</time></trkpt>
<trkpt lat="49.2788391113281250" lon="0.3441747725009918"><ele></ele><time>2016-10-9T8:52:18Z</time></trkpt>
<trkpt lat="49.2789154052734375" lon="0.3441887795925140"><ele></ele><time>2016-10-9T8:52:21Z</time></trkpt>
<trkpt lat="49.2789840698242188" lon="0.3441945612430573"><ele></ele><time>2016-10-9T8:52:24Z</time></trkpt>
<trkpt lat="49.2790412902832031" lon="0.3442078828811646"><ele></ele><time>2016-10-9T8:52:27Z</time></trkpt>
<trkpt lat="49.2791213989257812" lon="0.3442420065402985"><ele></ele><time>2016-10-9T8:52:30Z</time></trkpt>
<trkpt lat="49.2792015075683594" lon="0.3442780375480652"><ele></ele><time>2016-10-9T8:52:33Z</time></trkpt>
<trkpt lat="49.2792663574218750" lon="0.3443111479282379"><ele></ele><time>2016-10-9T8:52:36Z</time></trkpt>
<trkpt lat="49.2793006896972656" lon="0.3443326950073242"><ele></ele><time>2016-10-9T8:52:39Z</time></trkpt>
<trkpt lat="49.2793579101562500" lon="0.3443719148635864"><ele></ele><time>2016-10-9T8:52:42Z</time></trkpt>
<trkpt lat="49.2793960571289062" lon="0.3443927764892578"><ele></ele><time>2016-10-9T8:52:45Z</time></trkpt>
<trkpt lat="49.2794494628906250" lon="0.3444180190563202"><ele></ele><time>2016-10-9T8:52:48Z</time></trkpt>
<trkpt lat="49.2795143127441406" lon="0.3444599211215973"><ele></ele><time>2016-10-9T8:52:51Z</time></trkpt>
<trkpt lat="49.2795600891113281" lon="0.3444887697696686"><ele></ele><time>2016-10-9T8:52:54Z</time></trkpt>
<trkpt lat="49.2796401977539062" lon="0.3445204496383667"><ele></ele><time>2016-10-9T8:52:57Z</time></trkpt>
<trkpt lat="49.2797203063964844" lon="0.3445637822151184"><ele></ele><time>2016-10-9T8:53:0Z</time></trkpt>
<trkpt lat="49.2797737121582031" lon="0.3445831537246704"><ele></ele><time>2016-10-9T8:53:3Z</time></trkpt>
<trkpt lat="49.2798080444335938" lon="0.3445940315723419"><ele></ele><time>2016-10-9T8:53:6Z</time></trkpt>
<trkpt lat="49.2798728942871094" lon="0.3445796072483063"><ele></ele><time>2016-10-9T8:53:9Z</time></trkpt>
<trkpt lat="49.2799644470214844" lon="0.3446253836154938"><ele></ele><time>2016-10-9T8:53:12Z</time></trkpt>
<trkpt lat="49.2800445556640625" lon="0.3446549773216248"><ele></ele><time>2016-10-9T8:53:15Z</time></trkpt>
<trkpt lat="49.2801132202148438" lon="0.3446645438671112"><ele></ele><time>2016-10-9T8:53:18Z</time></trkpt>
<trkpt lat="49.2802124023437500" lon="0.3446812927722931"><ele></ele><time>2016-10-9T8:53:21Z</time></trkpt>
<trkpt lat="49.2802696228027344" lon="0.3447025716304779"><ele></ele><time>2016-10-9T8:53:24Z</time></trkpt>
<trkpt lat="49.2803230285644531" lon="0.3447246253490448"><ele></ele><time>2016-10-9T8:53:27Z</time></trkpt>
<trkpt lat="49.2803726196289062" lon="0.3447456657886505"><ele></ele><time>2016-10-9T8:53:30Z</time></trkpt>
<trkpt lat="49.2804450988769531" lon="0.3447775244712830"><ele></ele><time>2016-10-9T8:53:33Z</time></trkpt>
<trkpt lat="49.2804985046386719" lon="0.3447954654693604"><ele></ele><time>2016-10-9T8:53:36Z</time></trkpt>
<trkpt lat="49.2805557250976562" lon="0.3448161482810974"><ele></ele><time>2016-10-9T8:53:39Z</time></trkpt>
<trkpt lat="49.2806053161621094" lon="0.3448324203491211"><ele></ele><time>2016-10-9T8:53:42Z</time></trkpt>
<trkpt lat="49.2806854248046875" lon="0.3448466658592224"><ele></ele><time>2016-10-9T8:53:45Z</time></trkpt>
<trkpt lat="49.2807426452636719" lon="0.3448639214038849"><ele></ele><time>2016-10-9T8:53:48Z</time></trkpt>
<trkpt lat="49.2808189392089844" lon="0.3448967039585114"><ele></ele><time>2016-10-9T8:53:51Z</time></trkpt>
<trkpt lat="49.2808914184570312" lon="0.3449282348155975"><ele></ele><time>2016-10-9T8:53:54Z</time></trkpt>
<trkpt lat="49.2809638977050781" lon="0.3449438214302063"><ele></ele><time>2016-10-9T8:53:57Z</time></trkpt>
<trkpt lat="49.2810668945312500" lon="0.3449710607528687"><ele></ele><time>2016-10-9T8:54:0Z</time></trkpt>
<trkpt lat="49.2811317443847656" lon="0.3449828028678894"><ele></ele><time>2016-10-9T8:54:3Z</time></trkpt>
<trkpt lat="49.2812232971191406" lon="0.3449842929840088"><ele></ele><time>2016-10-9T8:54:6Z</time></trkpt>
<trkpt lat="49.2813110351562500" lon="0.3449810445308685"><ele></ele><time>2016-10-9T8:54:9Z</time></trkpt>
<trkpt lat="49.2813568115234375" lon="0.3450098633766174"><ele></ele><time>2016-10-9T8:54:12Z</time></trkpt>
<trkpt lat="49.2814025878906250" lon="0.3450526893138885"><ele></ele><time>2016-10-9T8:54:15Z</time></trkpt>
<trkpt lat="49.2814483642578125" lon="0.3450914919376373"><ele></ele><time>2016-10-9T8:54:18Z</time></trkpt>
<trkpt lat="49.2815132141113281" lon="0.3451294004917145"><ele></ele><time>2016-10-9T8:54:21Z</time></trkpt>
<trkpt lat="49.2815475463867188" lon="0.3451482355594635"><ele></ele><time>2016-10-9T8:54:24Z</time></trkpt>
<trkpt lat="49.2816085815429688" lon="0.3451906740665436"><ele></ele><time>2016-10-9T8:54:27Z</time></trkpt>
<trkpt lat="49.2816619873046875" lon="0.3452278077602386"><ele></ele><time>2016-10-9T8:54:30Z</time></trkpt>
<trkpt lat="49.2817153930664062" lon="0.3452555239200592"><ele></ele><time>2016-10-9T8:54:33Z</time></trkpt>
<trkpt lat="49.2818031311035156" lon="0.3452813625335693"><ele></ele><time>2016-10-9T8:54:36Z</time></trkpt>
<trkpt lat="49.2818717956542969" lon="0.3453185558319092"><ele></ele><time>2016-10-9T8:54:39Z</time></trkpt>
<trkpt lat="49.2819175720214844" lon="0.3453489840030670"><ele></ele><time>2016-10-9T8:54:42Z</time></trkpt>
<trkpt lat="49.2819976806640625" lon="0.3453826904296875"><ele></ele><time>2016-10-9T8:54:45Z</time></trkpt>
<trkpt lat="49.2820510864257812" lon="0.3453972637653351"><ele></ele><time>2016-10-9T8:54:48Z</time></trkpt>
<trkpt lat="49.2821350097656250" lon="0.3454193174839020"><ele></ele><time>2016-10-9T8:54:51Z</time></trkpt>
<trkpt lat="49.2822227478027344" lon="0.3454505801200867"><ele></ele><time>2016-10-9T8:54:54Z</time></trkpt>
<trkpt lat="49.2822990417480469" lon="0.3454783260822296"><ele></ele><time>2016-10-9T8:54:57Z</time></trkpt>
<trkpt lat="49.2823448181152344" lon="0.3454978466033936"><ele></ele><time>2016-10-9T8:55:0Z</time></trkpt>
<trkpt lat="49.2824249267578125" lon="0.3455341458320618"><ele></ele><time>2016-10-9T8:55:3Z</time></trkpt>
<trkpt lat="49.2825164794921875" lon="0.3455665111541748"><ele></ele><time>2016-10-9T8:55:6Z</time></trkpt>
<trkpt lat="49.2825851440429688" lon="0.3456098437309265"><ele></ele><time>2016-10-9T8:55:9Z</time></trkpt>
<trkpt lat="49.2826232910156250" lon="0.3456273674964905"><ele></ele><time>2016-10-9T8:55:12Z</time></trkpt>
<trkpt lat="49.2826843261718750" lon="0.3456684350967407"><ele></ele><time>2016-10-9T8:55:15Z</time></trkpt>
<trkpt lat="49.2827377319335938" lon="0.3456980288028717"><ele></ele><time>2016-10-9T8:55:18Z</time></trkpt>
<trkpt lat="49.2827796936035156" lon="0.3457438647747040"><ele></ele><time>2016-10-9T8:55:21Z</time></trkpt>
<trkpt lat="49.2828254699707031" lon="0.3458281755447388"><ele></ele><time>2016-10-9T8:55:24Z</time></trkpt>
<trkpt lat="49.2828598022460938" lon="0.3458690047264099"><ele></ele><time>2016-10-9T8:55:27Z</time></trkpt>
<trkpt lat="49.2829246520996094" lon="0.3459431827068329"><ele></ele><time>2016-10-9T8:55:30Z</time></trkpt>
<trkpt lat="49.2829856872558594" lon="0.3460420072078705"><ele></ele><time>2016-10-9T8:55:33Z</time></trkpt>
<trkpt lat="49.2830429077148438" lon="0.3461133539676666"><ele></ele><time>2016-10-9T8:55:36Z</time></trkpt>
<trkpt lat="49.2830696105957031" lon="0.3461597859859467"><ele></ele><time>2016-10-9T8:55:39Z</time></trkpt>
<trkpt lat="49.2831306457519531" lon="0.3462318480014801"><ele></ele><time>2016-10-9T8:55:42Z</time></trkpt>
<trkpt lat="49.2831687927246094" lon="0.3462759554386139"><ele></ele><time>2016-10-9T8:55:45Z</time></trkpt>
<trkpt lat="49.2832069396972656" lon="0.3463209569454193"><ele></ele><time>2016-10-9T8:55:48Z</time></trkpt>
<trkpt lat="49.2832756042480469" lon="0.3463846743106842"><ele></ele><time>2016-10-9T8:55:51Z</time></trkpt>
<trkpt lat="49.2833480834960938" lon="0.3464618623256683"><ele></ele><time>2016-10-9T8:55:54Z</time></trkpt>
<trkpt lat="49.2833938598632812" lon="0.3465067744255066"><ele></ele><time>2016-10-9T8:55:57Z</time></trkpt>
<trkpt lat="49.2834587097167969" lon="0.3465709090232849"><ele></ele><time>2016-10-9T8:56:0Z</time></trkpt>
<trkpt lat="49.2835044860839844" lon="0.3466009199619293"><ele></ele><time>2016-10-9T8:56:3Z</time></trkpt>
<trkpt lat="49.2835464477539062" lon="0.3466315865516663"><ele></ele><time>2016-10-9T8:56:6Z</time></trkpt>
<trkpt lat="49.2835922241210938" lon="0.3466668725013733"><ele></ele><time>2016-10-9T8:56:9Z</time></trkpt>
<trkpt lat="49.2836380004882812" lon="0.3467082083225250"><ele></ele><time>2016-10-9T8:56:12Z</time></trkpt>
<trkpt lat="49.2837066650390625" lon="0.3467758595943451"><ele></ele><time>2016-10-9T8:56:15Z</time></trkpt>
<trkpt lat="49.2837715148925781" lon="0.3468471765518188"><ele></ele><time>2016-10-9T8:56:18Z</time></trkpt>
<trkpt lat="49.2838134765625000" lon="0.3468889296054840"><ele></ele><time>2016-10-9T8:56:21Z</time></trkpt>
<trkpt lat="49.2838706970214844" lon="0.3469448387622833"><ele></ele><time>2016-10-9T8:56:24Z</time></trkpt>
<trkpt lat="49.2839241027832031" lon="0.3470110297203064"><ele></ele><time>2016-10-9T8:56:27Z</time></trkpt>
<trkpt lat="49.2839622497558594" lon="0.3470533788204193"><ele></ele><time>2016-10-9T8:56:30Z</time></trkpt>
<trkpt lat="49.2839965820312500" lon="0.3470984697341919"><ele></ele><time>2016-10-9T8:56:33Z</time></trkpt>
<trkpt lat="49.2840614318847656" lon="0.3471753299236298"><ele></ele><time>2016-10-9T8:56:36Z</time></trkpt>
<trkpt lat="49.2841148376464844" lon="0.3472441434860229"><ele></ele><time>2016-10-9T8:56:39Z</time></trkpt>
<trkpt lat="49.2841567993164062" lon="0.3472976088523865"><ele></ele><time>2016-10-9T8:56:42Z</time></trkpt>
<trkpt lat="49.2842140197753906" lon="0.3473480045795441"><ele></ele><time>2016-10-9T8:56:45Z</time></trkpt>
<trkpt lat="49.2842712402343750" lon="0.3473916649818420"><ele></ele><time>2016-10-9T8:56:48Z</time></trkpt>
<trkpt lat="49.2843704223632812" lon="0.3474882245063782"><ele></ele><time>2016-10-9T8:56:51Z</time></trkpt>
<trkpt lat="49.2844200134277344" lon="0.3476196527481079"><ele></ele><time>2016-10-9T8:56:54Z</time></trkpt>
<trkpt lat="49.2844467163085938" lon="0.3477276265621185"><ele></ele><time>2016-10-9T8:56:57Z</time></trkpt>
<trkpt lat="49.2844696044921875" lon="0.3478170335292816"><ele></ele><time>2016-10-9T8:57:0Z</time></trkpt>
<trkpt lat="49.2845077514648438" lon="0.3479324579238892"><ele></ele><time>2016-10-9T8:57:3Z</time></trkpt>
<trkpt lat="49.2845344543457031" lon="0.3480477035045624"><ele></ele><time>2016-10-9T8:57:6Z</time></trkpt>
<trkpt lat="49.2845573425292969" lon="0.3481576740741730"><ele></ele><time>2016-10-9T8:57:9Z</time></trkpt>
<trkpt lat="49.2845573425292969" lon="0.3482322096824646"><ele></ele><time>2016-10-9T8:57:12Z</time></trkpt>
<trkpt lat="49.2845764160156250" lon="0.3483057916164398"><ele></ele><time>2016-10-9T8:57:15Z</time></trkpt>
<trkpt lat="49.2846145629882812" lon="0.3484140932559967"><ele></ele><time>2016-10-9T8:57:18Z</time></trkpt>
<trkpt lat="49.2846374511718750" lon="0.3484967350959778"><ele></ele><time>2016-10-9T8:57:21Z</time></trkpt>
<trkpt lat="49.2846794128417969" lon="0.3486047089099884"><ele></ele><time>2016-10-9T8:57:24Z</time></trkpt>
<trkpt lat="49.2847366333007812" lon="0.3487004935741425"><ele></ele><time>2016-10-9T8:57:27Z</time></trkpt>
<trkpt lat="49.2847976684570312" lon="0.3487784564495087"><ele></ele><time>2016-10-9T8:57:30Z</time></trkpt>
<trkpt lat="49.2848358154296875" lon="0.3488204479217529"><ele></ele><time>2016-10-9T8:57:33Z</time></trkpt>
<trkpt lat="49.2848854064941406" lon="0.3488614261150360"><ele></ele><time>2016-10-9T8:57:36Z</time></trkpt>
<trkpt lat="49.2849502563476562" lon="0.3488894999027252"><ele></ele><time>2016-10-9T8:57:39Z</time></trkpt>
<trkpt lat="49.2849998474121094" lon="0.3489145040512085"><ele></ele><time>2016-10-9T8:57:42Z</time></trkpt>
<trkpt lat="49.2850646972656250" lon="0.3489530384540558"><ele></ele><time>2016-10-9T8:57:45Z</time></trkpt>
<trkpt lat="49.2850990295410156" lon="0.3489748537540436"><ele></ele><time>2016-10-9T8:57:48Z</time></trkpt>
<trkpt lat="49.2851295471191406" lon="0.3489938676357269"><ele></ele><time>2016-10-9T8:57:51Z</time></trkpt>
<trkpt lat="49.2851905822753906" lon="0.3489885926246643"><ele></ele><time>2016-10-9T8:57:54Z</time></trkpt>
<trkpt lat="49.2852478027343750" lon="0.3489798605442047"><ele></ele><time>2016-10-9T8:57:57Z</time></trkpt>
<trkpt lat="49.2853355407714844" lon="0.3489772677421570"><ele></ele><time>2016-10-9T8:58:0Z</time></trkpt>
<trkpt lat="49.2853927612304688" lon="0.3489824533462524"><ele></ele><time>2016-10-9T8:58:3Z</time></trkpt>
<trkpt lat="49.2854576110839844" lon="0.3489938676357269"><ele></ele><time>2016-10-9T8:58:6Z</time></trkpt>
<trkpt lat="49.2855491638183594" lon="0.3489737510681152"><ele></ele><time>2016-10-9T8:58:9Z</time></trkpt>
<trkpt lat="49.2856254577636719" lon="0.3489479422569275"><ele></ele><time>2016-10-9T8:58:12Z</time></trkpt>
<trkpt lat="49.2857017517089844" lon="0.3489391207695007"><ele></ele><time>2016-10-9T8:58:15Z</time></trkpt>
<trkpt lat="49.2857551574707031" lon="0.3489280641078949"><ele></ele><time>2016-10-9T8:58:18Z</time></trkpt>
<trkpt lat="49.2858428955078125" lon="0.3488923609256744"><ele></ele><time>2016-10-9T8:58:21Z</time></trkpt>
<trkpt lat="49.2859230041503906" lon="0.3488673865795135"><ele></ele><time>2016-10-9T8:58:24Z</time></trkpt>
<trkpt lat="49.2859802246093750" lon="0.3488547205924988"><ele></ele><time>2016-10-9T8:58:27Z</time></trkpt>
<trkpt lat="49.2860565185546875" lon="0.3488340973854065"><ele></ele><time>2016-10-9T8:58:30Z</time></trkpt>
<trkpt lat="49.2861061096191406" lon="0.3488175868988037"><ele></ele><time>2016-10-9T8:58:33Z</time></trkpt>
<trkpt lat="49.2861595153808594" lon="0.3488110601902008"><ele></ele><time>2016-10-9T8:58:36Z</time></trkpt>
<trkpt lat="49.2862129211425781" lon="0.3488183617591858"><ele></ele><time>2016-10-9T8:58:39Z</time></trkpt>
<trkpt lat="49.2863044738769531" lon="0.3488156795501709"><ele></ele><time>2016-10-9T8:58:42Z</time></trkpt>
<trkpt lat="49.2863655090332031" lon="0.3488112986087799"><ele></ele><time>2016-10-9T8:58:45Z</time></trkpt>
<trkpt lat="49.2864265441894531" lon="0.3488084673881531"><ele></ele><time>2016-10-9T8:58:48Z</time></trkpt>
<trkpt lat="49.2865219116210938" lon="0.3488120734691620"><ele></ele><time>2016-10-9T8:58:51Z</time></trkpt>
<trkpt lat="49.2865829467773438" lon="0.3488207757472992"><ele></ele><time>2016-10-9T8:58:54Z</time></trkpt>
<trkpt lat="49.2866783142089844" lon="0.3488213717937469"><ele></ele><time>2016-10-9T8:58:57Z</time></trkpt>
<trkpt lat="49.2867507934570312" lon="0.3488318324089050"><ele></ele><time>2016-10-9T8:59:0Z</time></trkpt>
<trkpt lat="49.2868003845214844" lon="0.3488338589668274"><ele></ele><time>2016-10-9T8:59:3Z</time></trkpt>
<trkpt lat="49.2868804931640625" lon="0.3488016724586487"><ele></ele><time>2016-10-9T8:59:6Z</time></trkpt>
<trkpt lat="49.2869720458984375" lon="0.3487590849399567"><ele></ele><time>2016-10-9T8:59:9Z</time></trkpt>
<trkpt lat="49.2870368957519531" lon="0.3487424850463867"><ele></ele><time>2016-10-9T8:59:12Z</time></trkpt>
<trkpt lat="49.2870864868164062" lon="0.3487403988838196"><ele></ele><time>2016-10-9T8:59:15Z</time></trkpt>
<trkpt lat="49.2871513366699219" lon="0.3487529754638672"><ele></ele><time>2016-10-9T8:59:18Z</time></trkpt>
<trkpt lat="49.2871894836425781" lon="0.3487527072429657"><ele></ele><time>2016-10-9T8:59:21Z</time></trkpt>
<trkpt lat="49.2872352600097656" lon="0.3487440943717957"><ele></ele><time>2016-10-9T8:59:24Z</time></trkpt>
<trkpt lat="49.2872962951660156" lon="0.3487248122692108"><ele></ele><time>2016-10-9T8:59:27Z</time></trkpt>
<trkpt lat="49.2873458862304688" lon="0.3487142324447632"><ele></ele><time>2016-10-9T8:59:30Z</time></trkpt>
<trkpt lat="49.2874145507812500" lon="0.3487148284912109"><ele></ele><time>2016-10-9T8:59:33Z</time></trkpt>
<trkpt lat="49.2874832153320312" lon="0.3487099707126617"><ele></ele><time>2016-10-9T8:59:36Z</time></trkpt>
<trkpt lat="49.2875442504882812" lon="0.3486956357955933"><ele></ele><time>2016-10-9T8:59:39Z</time></trkpt>
<trkpt lat="49.2876434326171875" lon="0.3486853241920471"><ele></ele><time>2016-10-9T8:59:42Z</time></trkpt>
<trkpt lat="49.2876968383789062" lon="0.3486868441104889"><ele></ele><time>2016-10-9T8:59:45Z</time></trkpt>
<trkpt lat="49.2877960205078125" lon="0.3487133383750916"><ele></ele><time>2016-10-9T8:59:48Z</time></trkpt>
<trkpt lat="49.2878570556640625" lon="0.3487294912338257"><ele></ele><time>2016-10-9T8:59:51Z</time></trkpt>
<trkpt lat="49.2879524230957031" lon="0.3487361371517181"><ele></ele><time>2016-10-9T8:59:54Z</time></trkpt>
<trkpt lat="49.2880668640136719" lon="0.3487542271614075"><ele></ele><time>2016-10-9T8:59:57Z</time></trkpt>
<trkpt lat="49.2881584167480469" lon="0.3487495481967926"><ele></ele><time>2016-10-9T9:0:0Z</time></trkpt>
<trkpt lat="49.2882232666015625" lon="0.3487318456172943"><ele></ele><time>2016-10-9T9:0:3Z</time></trkpt>
<trkpt lat="49.2883758544921875" lon="0.3486966490745544"><ele></ele><time>2016-10-9T9:0:6Z</time></trkpt>
<trkpt lat="49.2885169982910156" lon="0.3486786186695099"><ele></ele><time>2016-10-9T9:0:9Z</time></trkpt>
<trkpt lat="49.2886505126953125" lon="0.3486645519733429"><ele></ele><time>2016-10-9T9:0:12Z</time></trkpt>
<trkpt lat="49.2887802124023438" lon="0.3486371338367462"><ele></ele><time>2016-10-9T9:0:15Z</time></trkpt>
<trkpt lat="49.2888946533203125" lon="0.3486122488975525"><ele></ele><time>2016-10-9T9:0:18Z</time></trkpt>
<trkpt lat="49.2890396118164062" lon="0.3486052751541138"><ele></ele><time>2016-10-9T9:0:21Z</time></trkpt>
<trkpt lat="49.2891769409179688" lon="0.3486090600490570"><ele></ele><time>2016-10-9T9:0:24Z</time></trkpt>
<trkpt lat="49.2893028259277344" lon="0.3485978245735168"><ele></ele><time>2016-10-9T9:0:27Z</time></trkpt>
<trkpt lat="49.2894134521484375" lon="0.3485612869262695"><ele></ele><time>2016-10-9T9:0:30Z</time></trkpt>
<trkpt lat="49.2894935607910156" lon="0.3485472798347473"><ele></ele><time>2016-10-9T9:0:33Z</time></trkpt>
<trkpt lat="49.2896232604980469" lon="0.3485232293605804"><ele></ele><time>2016-10-9T9:0:36Z</time></trkpt>
<trkpt lat="49.2897796630859375" lon="0.3485284149646759"><ele></ele><time>2016-10-9T9:0:39Z</time></trkpt>
<trkpt lat="49.2898712158203125" lon="0.3485321104526520"><ele></ele><time>2016-10-9T9:0:42Z</time></trkpt>
<trkpt lat="49.2899589538574219" lon="0.3485300242900848"><ele></ele><time>2016-10-9T9:0:45Z</time></trkpt>
<trkpt lat="49.2900657653808594" lon="0.3485243022441864"><ele></ele><time>2016-10-9T9:0:48Z</time></trkpt>
<trkpt lat="49.2901992797851562" lon="0.3484995961189270"><ele></ele><time>2016-10-9T9:0:51Z</time></trkpt>
<trkpt lat="49.2903709411621094" lon="0.3485036790370941"><ele></ele><time>2016-10-9T9:0:54Z</time></trkpt>
<trkpt lat="49.2905120849609375" lon="0.3484995067119598"><ele></ele><time>2016-10-9T9:0:57Z</time></trkpt>
<trkpt lat="49.2906455993652344" lon="0.3484654724597931"><ele></ele><time>2016-10-9T9:1:0Z</time></trkpt>
<trkpt lat="49.2908248901367188" lon="0.3484499752521515"><ele></ele><time>2016-10-9T9:1:3Z</time></trkpt>
<trkpt lat="49.2909469604492188" lon="0.3484103977680206"><ele></ele><time>2016-10-9T9:1:6Z</time></trkpt>
<trkpt lat="49.2910766601562500" lon="0.3483856022357941"><ele></ele><time>2016-10-9T9:1:9Z</time></trkpt>
<trkpt lat="49.2911491394042969" lon="0.3484008610248566"><ele></ele><time>2016-10-9T9:1:12Z</time></trkpt>
<trkpt lat="49.2912864685058594" lon="0.3483849167823792"><ele></ele><time>2016-10-9T9:1:15Z</time></trkpt>
<trkpt lat="49.2914428710937500" lon="0.3483709990978241"><ele></ele><time>2016-10-9T9:1:18Z</time></trkpt>
<trkpt lat="49.2918014526367188" lon="0.3483362197875977"><ele></ele><time>2016-10-9T9:1:21Z</time></trkpt>
<trkpt lat="49.2919502258300781" lon="0.3483472168445587"><ele></ele><time>2016-10-9T9:1:24Z</time></trkpt>
<trkpt lat="49.2920417785644531" lon="0.3483350574970245"><ele></ele><time>2016-10-9T9:1:27Z</time></trkpt>
<trkpt lat="49.2921867370605469" lon="0.3483161926269531"><ele></ele><time>2016-10-9T9:1:30Z</time></trkpt>
<trkpt lat="49.2922706604003906" lon="0.3483027815818787"><ele></ele><time>2016-10-9T9:1:33Z</time></trkpt>
<trkpt lat="49.2923583984375000" lon="0.3482765555381775"><ele></ele><time>2016-10-9T9:1:36Z</time></trkpt>
<trkpt lat="49.2924880981445312" lon="0.3482638895511627"><ele></ele><time>2016-10-9T9:1:39Z</time></trkpt>
<trkpt lat="49.2926254272460938" lon="0.3482481241226196"><ele></ele><time>2016-10-9T9:1:42Z</time></trkpt>
<trkpt lat="49.2927131652832031" lon="0.3482322990894318"><ele></ele><time>2016-10-9T9:1:45Z</time></trkpt>
<trkpt lat="49.2928771972656250" lon="0.3481681644916534"><ele></ele><time>2016-10-9T9:1:48Z</time></trkpt>
<trkpt lat="49.2929611206054688" lon="0.3481507301330566"><ele></ele><time>2016-10-9T9:1:51Z</time></trkpt>
<trkpt lat="49.2931213378906250" lon="0.3481205701828003"><ele></ele><time>2016-10-9T9:1:54Z</time></trkpt>
<trkpt lat="49.2933464050292969" lon="0.3481830060482025"><ele></ele><time>2016-10-9T9:1:57Z</time></trkpt>
<trkpt lat="49.2934913635253906" lon="0.3481840789318085"><ele></ele><time>2016-10-9T9:2:0Z</time></trkpt>
<trkpt lat="49.2936248779296875" lon="0.3481597006320953"><ele></ele><time>2016-10-9T9:2:3Z</time></trkpt>
<trkpt lat="49.2937126159667969" lon="0.3481362164020538"><ele></ele><time>2016-10-9T9:2:6Z</time></trkpt>
<trkpt lat="49.2938385009765625" lon="0.3481468856334686"><ele></ele><time>2016-10-9T9:2:9Z</time></trkpt>
<trkpt lat="49.2939834594726562" lon="0.3481228947639465"><ele></ele><time>2016-10-9T9:2:12Z</time></trkpt>
<trkpt lat="49.2940635681152344" lon="0.3480876088142395"><ele></ele><time>2016-10-9T9:2:15Z</time></trkpt>
<trkpt lat="49.2941589355468750" lon="0.3480799794197083"><ele></ele><time>2016-10-9T9:2:18Z</time></trkpt>
<trkpt lat="49.2942695617675781" lon="0.3480623960494995"><ele></ele><time>2016-10-9T9:2:21Z</time></trkpt>
<trkpt lat="49.2944374084472656" lon="0.3480136096477509"><ele></ele><time>2016-10-9T9:2:24Z</time></trkpt>
<trkpt lat="49.2946014404296875" lon="0.3479913175106049"><ele></ele><time>2016-10-9T9:2:27Z</time></trkpt>
<trkpt lat="49.2947006225585938" lon="0.3479652404785156"><ele></ele><time>2016-10-9T9:2:30Z</time></trkpt>
<trkpt lat="49.2948379516601562" lon="0.3479337990283966"><ele></ele><time>2016-10-9T9:2:33Z</time></trkpt>
<trkpt lat="49.2949333190917969" lon="0.3479262590408325"><ele></ele><time>2016-10-9T9:2:36Z</time></trkpt>
<trkpt lat="49.2950286865234375" lon="0.3479394316673279"><ele></ele><time>2016-10-9T9:2:39Z</time></trkpt>
<trkpt lat="49.2951889038085938" lon="0.3479376733303070"><ele></ele><time>2016-10-9T9:2:42Z</time></trkpt>
<trkpt lat="49.2953224182128906" lon="0.3479299545288086"><ele></ele><time>2016-10-9T9:2:45Z</time></trkpt>
<trkpt lat="49.2954978942871094" lon="0.3479204773902893"><ele></ele><time>2016-10-9T9:2:48Z</time></trkpt>
<trkpt lat="49.2957038879394531" lon="0.3479241728782654"><ele></ele><time>2016-10-9T9:2:51Z</time></trkpt>
<trkpt lat="49.2958374023437500" lon="0.3479231595993042"><ele></ele><time>2016-10-9T9:2:54Z</time></trkpt>
<trkpt lat="49.2960510253906250" lon="0.3479105830192566"><ele></ele><time>2016-10-9T9:2:57Z</time></trkpt>
<trkpt lat="49.2962455749511719" lon="0.3478906452655792"><ele></ele><time>2016-10-9T9:3:0Z</time></trkpt>
<trkpt lat="49.2963905334472656" lon="0.3478661775588989"><ele></ele><time>2016-10-9T9:3:3Z</time></trkpt>
<trkpt lat="49.2966117858886719" lon="0.3478555977344513"><ele></ele><time>2016-10-9T9:3:6Z</time></trkpt>
<trkpt lat="49.2968406677246094" lon="0.3478155434131622"><ele></ele><time>2016-10-9T9:3:9Z</time></trkpt>
<trkpt lat="49.2970542907714844" lon="0.3478010296821594"><ele></ele><time>2016-10-9T9:3:12Z</time></trkpt>
<trkpt lat="49.2972831726074219" lon="0.3477844297885895"><ele></ele><time>2016-10-9T9:3:15Z</time></trkpt>
<trkpt lat="49.2975120544433594" lon="0.3477571904659271"><ele></ele><time>2016-10-9T9:3:18Z</time></trkpt>
<trkpt lat="49.2977523803710938" lon="0.3477546870708466"><ele></ele><time>2016-10-9T9:3:21Z</time></trkpt>
<trkpt lat="49.2979087829589844" lon="0.3477345705032349"><ele></ele><time>2016-10-9T9:3:24Z</time></trkpt>
<trkpt lat="49.2980499267578125" lon="0.3477087616920471"><ele></ele><time>2016-10-9T9:3:27Z</time></trkpt>
<trkpt lat="49.2982482910156250" lon="0.3476898968219757"><ele></ele><time>2016-10-9T9:3:30Z</time></trkpt>
<trkpt lat="49.2984695434570312" lon="0.3476350903511047"><ele></ele><time>2016-10-9T9:3:33Z</time></trkpt>
<trkpt lat="49.2986030578613281" lon="0.3476392626762390"><ele></ele><time>2016-10-9T9:3:36Z</time></trkpt>
<trkpt lat="49.2988319396972656" lon="0.3476298749446869"><ele></ele><time>2016-10-9T9:3:39Z</time></trkpt>
<trkpt lat="49.2990608215332031" lon="0.3475832641124725"><ele></ele><time>2016-10-9T9:3:42Z</time></trkpt>
<trkpt lat="49.2992057800292969" lon="0.3475369215011597"><ele></ele><time>2016-10-9T9:3:45Z</time></trkpt>
<trkpt lat="49.2994079589843750" lon="0.3474234342575073"><ele></ele><time>2016-10-9T9:3:48Z</time></trkpt>
<trkpt lat="49.2996063232421875" lon="0.3472965359687805"><ele></ele><time>2016-10-9T9:3:51Z</time></trkpt>
<trkpt lat="49.2997283935546875" lon="0.3472060859203339"><ele></ele><time>2016-10-9T9:3:54Z</time></trkpt>
<trkpt lat="49.2998466491699219" lon="0.3471164107322693"><ele></ele><time>2016-10-9T9:3:57Z</time></trkpt>
<trkpt lat="49.3000411987304688" lon="0.3469851315021515"><ele></ele><time>2016-10-9T9:4:0Z</time></trkpt>
<trkpt lat="49.3001899719238281" lon="0.3468956947326660"><ele></ele><time>2016-10-9T9:4:3Z</time></trkpt>
<trkpt lat="49.3003349304199219" lon="0.3467941284179688"><ele></ele><time>2016-10-9T9:4:6Z</time></trkpt>
<trkpt lat="49.3005409240722656" lon="0.3466669619083405"><ele></ele><time>2016-10-9T9:4:9Z</time></trkpt>
<trkpt lat="49.3006858825683594" lon="0.3465926945209503"><ele></ele><time>2016-10-9T9:4:12Z</time></trkpt>
<trkpt lat="49.3008308410644531" lon="0.3465052843093872"><ele></ele><time>2016-10-9T9:4:15Z</time></trkpt>
<trkpt lat="49.3009910583496094" lon="0.3464272320270538"><ele></ele><time>2016-10-9T9:4:18Z</time></trkpt>
<trkpt lat="49.3012237548828125" lon="0.3462787270545959"><ele></ele><time>2016-10-9T9:4:21Z</time></trkpt>
<trkpt lat="49.3014183044433594" lon="0.3462435901165009"><ele></ele><time>2016-10-9T9:4:24Z</time></trkpt>
<trkpt lat="49.3016166687011719" lon="0.3462491333484650"><ele></ele><time>2016-10-9T9:4:27Z</time></trkpt>
<trkpt lat="49.3017616271972656" lon="0.3462327718734741"><ele></ele><time>2016-10-9T9:4:30Z</time></trkpt>
<trkpt lat="49.3019943237304688" lon="0.3462453484535217"><ele></ele><time>2016-10-9T9:4:33Z</time></trkpt>
<trkpt lat="49.3021583557128906" lon="0.3462887704372406"><ele></ele><time>2016-10-9T9:4:36Z</time></trkpt>
<trkpt lat="49.3023719787597656" lon="0.3462935388088226"><ele></ele><time>2016-10-9T9:4:39Z</time></trkpt>
<trkpt lat="49.3025856018066406" lon="0.3463247418403625"><ele></ele><time>2016-10-9T9:4:42Z</time></trkpt>
<trkpt lat="49.3028106689453125" lon="0.3463421761989594"><ele></ele><time>2016-10-9T9:4:45Z</time></trkpt>
<trkpt lat="49.3030166625976562" lon="0.3463483750820160"><ele></ele><time>2016-10-9T9:4:48Z</time></trkpt>
<trkpt lat="49.3031730651855469" lon="0.3463610410690308"><ele></ele><time>2016-10-9T9:4:51Z</time></trkpt>
<trkpt lat="49.3033866882324219" lon="0.3463711738586426"><ele></ele><time>2016-10-9T9:4:54Z</time></trkpt>
<trkpt lat="49.3035621643066406" lon="0.3463708460330963"><ele></ele><time>2016-10-9T9:4:57Z</time></trkpt>
<trkpt lat="49.3036956787109375" lon="0.3463707566261292"><ele></ele><time>2016-10-9T9:5:0Z</time></trkpt>
<trkpt lat="49.3039054870605469" lon="0.3463782966136932"><ele></ele><time>2016-10-9T9:5:3Z</time></trkpt>
<trkpt lat="49.3040466308593750" lon="0.3463897705078125"><ele></ele><time>2016-10-9T9:5:6Z</time></trkpt>
<trkpt lat="49.3041839599609375" lon="0.3463926315307617"><ele></ele><time>2016-10-9T9:5:9Z</time></trkpt>
<trkpt lat="49.3043937683105469" lon="0.3463988304138184"><ele></ele><time>2016-10-9T9:5:12Z</time></trkpt>
<trkpt lat="49.3045997619628906" lon="0.3464093804359436"><ele></ele><time>2016-10-9T9:5:15Z</time></trkpt>
<trkpt lat="49.3047447204589844" lon="0.3464346230030060"><ele></ele><time>2016-10-9T9:5:18Z</time></trkpt>
<trkpt lat="49.3049316406250000" lon="0.3464636206626892"><ele></ele><time>2016-10-9T9:5:21Z</time></trkpt>
<trkpt lat="49.3050575256347656" lon="0.3464714288711548"><ele></ele><time>2016-10-9T9:5:24Z</time></trkpt>
<trkpt lat="49.3051910400390625" lon="0.3464830815792084"><ele></ele><time>2016-10-9T9:5:27Z</time></trkpt>
<trkpt lat="49.3054008483886719" lon="0.3464967310428619"><ele></ele><time>2016-10-9T9:5:30Z</time></trkpt>
<trkpt lat="49.3055992126464844" lon="0.3465260565280914"><ele></ele><time>2016-10-9T9:5:33Z</time></trkpt>
<trkpt lat="49.3057899475097656" lon="0.3465296626091003"><ele></ele><time>2016-10-9T9:5:36Z</time></trkpt>
<trkpt lat="49.3059196472167969" lon="0.3465330302715302"><ele></ele><time>2016-10-9T9:5:39Z</time></trkpt>
<trkpt lat="49.3060417175292969" lon="0.3465201854705811"><ele></ele><time>2016-10-9T9:5:42Z</time></trkpt>
<trkpt lat="49.3061714172363281" lon="0.3465160131454468"><ele></ele><time>2016-10-9T9:5:45Z</time></trkpt>
<trkpt lat="49.3064002990722656" lon="0.3465060293674469"><ele></ele><time>2016-10-9T9:5:48Z</time></trkpt>
<trkpt lat="49.3065185546875000" lon="0.3464966416358948"><ele></ele><time>2016-10-9T9:5:51Z</time></trkpt>
<trkpt lat="49.3067626953125000" lon="0.3465213775634766"><ele></ele><time>2016-10-9T9:5:54Z</time></trkpt>
<trkpt lat="49.3069534301757812" lon="0.3465311825275421"><ele></ele><time>2016-10-9T9:5:57Z</time></trkpt>
<trkpt lat="49.3070793151855469" lon="0.3465467691421509"><ele></ele><time>2016-10-9T9:6:0Z</time></trkpt>
<trkpt lat="49.3072357177734375" lon="0.3465490341186523"><ele></ele><time>2016-10-9T9:6:3Z</time></trkpt>
<trkpt lat="49.3073616027832031" lon="0.3465596735477448"><ele></ele><time>2016-10-9T9:6:6Z</time></trkpt>
<trkpt lat="49.3075370788574219" lon="0.3465932905673981"><ele></ele><time>2016-10-9T9:6:9Z</time></trkpt>
<trkpt lat="49.3077316284179688" lon="0.3466057777404785"><ele></ele><time>2016-10-9T9:6:12Z</time></trkpt>
<trkpt lat="49.3078727722167969" lon="0.3465990722179413"><ele></ele><time>2016-10-9T9:6:15Z</time></trkpt>
<trkpt lat="49.3081054687500000" lon="0.3466119766235352"><ele></ele><time>2016-10-9T9:6:18Z</time></trkpt>
<trkpt lat="49.3082046508789062" lon="0.3466239571571350"><ele></ele><time>2016-10-9T9:6:21Z</time></trkpt>
<trkpt lat="49.3085021972656250" lon="0.3466407358646393"><ele></ele><time>2016-10-9T9:6:24Z</time></trkpt>
<trkpt lat="49.3087196350097656" lon="0.3466393947601318"><ele></ele><time>2016-10-9T9:6:27Z</time></trkpt>
<trkpt lat="49.3089447021484375" lon="0.3466648757457733"><ele></ele><time>2016-10-9T9:6:30Z</time></trkpt>
<trkpt lat="49.3090782165527344" lon="0.3466770946979523"><ele></ele><time>2016-10-9T9:6:33Z</time></trkpt>
<trkpt lat="49.3093147277832031" lon="0.3466869890689850"><ele></ele><time>2016-10-9T9:6:36Z</time></trkpt>
<trkpt lat="49.3094444274902344" lon="0.3466820418834686"><ele></ele><time>2016-10-9T9:6:39Z</time></trkpt>
<trkpt lat="49.3096046447753906" lon="0.3466894328594208"><ele></ele><time>2016-10-9T9:6:42Z</time></trkpt>
<trkpt lat="49.3098335266113281" lon="0.3467189371585846"><ele></ele><time>2016-10-9T9:6:45Z</time></trkpt>
<trkpt lat="49.3100471496582031" lon="0.3466973006725311"><ele></ele><time>2016-10-9T9:6:48Z</time></trkpt>
<trkpt lat="49.3102073669433594" lon="0.3467366993427277"><ele></ele><time>2016-10-9T9:6:51Z</time></trkpt>
<trkpt lat="49.3104362487792969" lon="0.3467684686183929"><ele></ele><time>2016-10-9T9:6:54Z</time></trkpt>
<trkpt lat="49.3105888366699219" lon="0.3467723131179810"><ele></ele><time>2016-10-9T9:6:57Z</time></trkpt>
<trkpt lat="49.3108177185058594" lon="0.3467434048652649"><ele></ele><time>2016-10-9T9:7:0Z</time></trkpt>
<trkpt lat="49.3109626770019531" lon="0.3466937839984894"><ele></ele><time>2016-10-9T9:7:3Z</time></trkpt>
<trkpt lat="49.3111763000488281" lon="0.3466287553310394"><ele></ele><time>2016-10-9T9:7:6Z</time></trkpt>
<trkpt lat="49.3113784790039062" lon="0.3466088771820068"><ele></ele><time>2016-10-9T9:7:9Z</time></trkpt>
<trkpt lat="49.3115234375000000" lon="0.3465662896633148"><ele></ele><time>2016-10-9T9:7:12Z</time></trkpt>
<trkpt lat="49.3116760253906250" lon="0.3465268313884735"><ele></ele><time>2016-10-9T9:7:15Z</time></trkpt>
<trkpt lat="49.3118820190429688" lon="0.3464783728122711"><ele></ele><time>2016-10-9T9:7:18Z</time></trkpt>
<trkpt lat="49.3120422363281250" lon="0.3464454412460327"><ele></ele><time>2016-10-9T9:7:21Z</time></trkpt>
<trkpt lat="49.3121871948242188" lon="0.3464249670505524"><ele></ele><time>2016-10-9T9:7:24Z</time></trkpt>
<trkpt lat="49.3124122619628906" lon="0.3463622033596039"><ele></ele><time>2016-10-9T9:7:27Z</time></trkpt>
<trkpt lat="49.3126449584960938" lon="0.3463399112224579"><ele></ele><time>2016-10-9T9:7:30Z</time></trkpt>
<trkpt lat="49.3128623962402344" lon="0.3462758660316467"><ele></ele><time>2016-10-9T9:7:33Z</time></trkpt>
<trkpt lat="49.3130722045898438" lon="0.3462395668029785"><ele></ele><time>2016-10-9T9:7:36Z</time></trkpt>
<trkpt lat="49.3132247924804688" lon="0.3462182879447937"><ele></ele><time>2016-10-9T9:7:39Z</time></trkpt>
<trkpt lat="49.3134422302246094" lon="0.3461656570434570"><ele></ele><time>2016-10-9T9:7:42Z</time></trkpt>
<trkpt lat="49.3135833740234375" lon="0.3461209833621979"><ele></ele><time>2016-10-9T9:7:45Z</time></trkpt>
<trkpt lat="49.3137931823730469" lon="0.3460820913314819"><ele></ele><time>2016-10-9T9:7:48Z</time></trkpt>
<trkpt lat="49.3139724731445312" lon="0.3460503220558167"><ele></ele><time>2016-10-9T9:7:51Z</time></trkpt>
<trkpt lat="49.3141365051269531" lon="0.3460327982902527"><ele></ele><time>2016-10-9T9:7:54Z</time></trkpt>
<trkpt lat="49.3143577575683594" lon="0.3459654748439789"><ele></ele><time>2016-10-9T9:7:57Z</time></trkpt>
<trkpt lat="49.3145599365234375" lon="0.3459051251411438"><ele></ele><time>2016-10-9T9:8:0Z</time></trkpt>
<trkpt lat="49.3147125244140625" lon="0.3459135293960571"><ele></ele><time>2016-10-9T9:8:3Z</time></trkpt>
<trkpt lat="49.3148612976074219" lon="0.3458901345729828"><ele></ele><time>2016-10-9T9:8:6Z</time></trkpt>
<trkpt lat="49.3151245117187500" lon="0.3458736240863800"><ele></ele><time>2016-10-9T9:8:9Z</time></trkpt>
<trkpt lat="49.3153457641601562" lon="0.3458767235279083"><ele></ele><time>2016-10-9T9:8:12Z</time></trkpt>
<trkpt lat="49.3155784606933594" lon="0.3458763062953949"><ele></ele><time>2016-10-9T9:8:15Z</time></trkpt>
<trkpt lat="49.3157196044921875" lon="0.3458726108074188"><ele></ele><time>2016-10-9T9:8:18Z</time></trkpt>
<trkpt lat="49.3159294128417969" lon="0.3458637297153473"><ele></ele><time>2016-10-9T9:8:21Z</time></trkpt>
<trkpt lat="49.3161544799804688" lon="0.3458840847015381"><ele></ele><time>2016-10-9T9:8:24Z</time></trkpt>
<trkpt lat="49.3163032531738281" lon="0.3458777964115143"><ele></ele><time>2016-10-9T9:8:27Z</time></trkpt>
<trkpt lat="49.3164825439453125" lon="0.3459157049655914"><ele></ele><time>2016-10-9T9:8:30Z</time></trkpt>
<trkpt lat="49.3166923522949219" lon="0.3459311127662659"><ele></ele><time>2016-10-9T9:8:33Z</time></trkpt>
<trkpt lat="49.3168449401855469" lon="0.3459359109401703"><ele></ele><time>2016-10-9T9:8:36Z</time></trkpt>
<trkpt lat="49.3170661926269531" lon="0.3459613025188446"><ele></ele><time>2016-10-9T9:8:39Z</time></trkpt>
<trkpt lat="49.3173027038574219" lon="0.3459646403789520"><ele></ele><time>2016-10-9T9:8:42Z</time></trkpt>
<trkpt lat="49.3174552917480469" lon="0.3459837436676025"><ele></ele><time>2016-10-9T9:8:45Z</time></trkpt>
<trkpt lat="49.3176689147949219" lon="0.3460032045841217"><ele></ele><time>2016-10-9T9:8:48Z</time></trkpt>
<trkpt lat="49.3178100585937500" lon="0.3460208773612976"><ele></ele><time>2016-10-9T9:8:51Z</time></trkpt>
<trkpt lat="49.3179512023925781" lon="0.3460381627082825"><ele></ele><time>2016-10-9T9:8:54Z</time></trkpt>
<trkpt lat="49.3181610107421875" lon="0.3460326194763184"><ele></ele><time>2016-10-9T9:8:57Z</time></trkpt>
<trkpt lat="49.3183670043945312" lon="0.3460402488708496"><ele></ele><time>2016-10-9T9:9:0Z</time></trkpt>
<trkpt lat="49.3185577392578125" lon="0.3460678160190582"><ele></ele><time>2016-10-9T9:9:3Z</time></trkpt>
<trkpt lat="49.3186721801757812" lon="0.3460516631603241"><ele></ele><time>2016-10-9T9:9:6Z</time></trkpt>
<trkpt lat="49.3188705444335938" lon="0.3460482954978943"><ele></ele><time>2016-10-9T9:9:9Z</time></trkpt>
<trkpt lat="49.3189697265625000" lon="0.3460488915443420"><ele></ele><time>2016-10-9T9:9:12Z</time></trkpt>
<trkpt lat="49.3191795349121094" lon="0.3461023569107056"><ele></ele><time>2016-10-9T9:9:15Z</time></trkpt>
<trkpt lat="49.3194122314453125" lon="0.3461096584796906"><ele></ele><time>2016-10-9T9:9:18Z</time></trkpt>
<trkpt lat="49.3196182250976562" lon="0.3461346328258514"><ele></ele><time>2016-10-9T9:9:21Z</time></trkpt>
<trkpt lat="49.3198089599609375" lon="0.3461382389068604"><ele></ele><time>2016-10-9T9:9:24Z</time></trkpt>
<trkpt lat="49.3199424743652344" lon="0.3461398184299469"><ele></ele><time>2016-10-9T9:9:27Z</time></trkpt>
<trkpt lat="49.3201484680175781" lon="0.3461404144763947"><ele></ele><time>2016-10-9T9:9:30Z</time></trkpt>
<trkpt lat="49.3203239440917969" lon="0.3461106717586517"><ele></ele><time>2016-10-9T9:9:33Z</time></trkpt>
<trkpt lat="49.3205146789550781" lon="0.3460830748081207"><ele></ele><time>2016-10-9T9:9:36Z</time></trkpt>
<trkpt lat="49.3206748962402344" lon="0.3460369706153870"><ele></ele><time>2016-10-9T9:9:39Z</time></trkpt>
<trkpt lat="49.3208885192871094" lon="0.3460000157356262"><ele></ele><time>2016-10-9T9:9:42Z</time></trkpt>
<trkpt lat="49.3210067749023438" lon="0.3459642231464386"><ele></ele><time>2016-10-9T9:9:45Z</time></trkpt>
<trkpt lat="49.3212242126464844" lon="0.3458963334560394"><ele></ele><time>2016-10-9T9:9:48Z</time></trkpt>
<trkpt lat="49.3213996887207031" lon="0.3458385765552521"><ele></ele><time>2016-10-9T9:9:51Z</time></trkpt>
<trkpt lat="49.3215332031250000" lon="0.3457682728767395"><ele></ele><time>2016-10-9T9:9:54Z</time></trkpt>
<trkpt lat="49.3217353820800781" lon="0.3456738889217377"><ele></ele><time>2016-10-9T9:9:57Z</time></trkpt>
<trkpt lat="49.3219337463378906" lon="0.3455804288387299"><ele></ele><time>2016-10-9T9:10:0Z</time></trkpt>
<trkpt lat="49.3220672607421875" lon="0.3455382585525513"><ele></ele><time>2016-10-9T9:10:3Z</time></trkpt>
<trkpt lat="49.3222618103027344" lon="0.3454394340515137"><ele></ele><time>2016-10-9T9:10:6Z</time></trkpt>
<trkpt lat="49.3223915100097656" lon="0.3453722894191742"><ele></ele><time>2016-10-9T9:10:9Z</time></trkpt>
<trkpt lat="49.3225212097167969" lon="0.3453215062618256"><ele></ele><time>2016-10-9T9:10:12Z</time></trkpt>
<trkpt lat="49.3226547241210938" lon="0.3452588915824890"><ele></ele><time>2016-10-9T9:10:15Z</time></trkpt>
<trkpt lat="49.3228530883789062" lon="0.3451706171035767"><ele></ele><time>2016-10-9T9:10:18Z</time></trkpt>
<trkpt lat="49.3229789733886719" lon="0.3451121151447296"><ele></ele><time>2016-10-9T9:10:21Z</time></trkpt>
<trkpt lat="49.3231849670410156" lon="0.3450299799442291"><ele></ele><time>2016-10-9T9:10:24Z</time></trkpt>
<trkpt lat="49.3233222961425781" lon="0.3449818789958954"><ele></ele><time>2016-10-9T9:10:27Z</time></trkpt>
<trkpt lat="49.3234443664550781" lon="0.3449412286281586"><ele></ele><time>2016-10-9T9:10:30Z</time></trkpt>
<trkpt lat="49.3236427307128906" lon="0.3448701500892639"><ele></ele><time>2016-10-9T9:10:33Z</time></trkpt>
<trkpt lat="49.3238372802734375" lon="0.3448088765144348"><ele></ele><time>2016-10-9T9:10:36Z</time></trkpt>
<trkpt lat="49.3240127563476562" lon="0.3447821140289307"><ele></ele><time>2016-10-9T9:10:39Z</time></trkpt>
<trkpt lat="49.3241462707519531" lon="0.3447809517383575"><ele></ele><time>2016-10-9T9:10:42Z</time></trkpt>
<trkpt lat="49.3243370056152344" lon="0.3447424769401550"><ele></ele><time>2016-10-9T9:10:45Z</time></trkpt>
<trkpt lat="49.3245162963867188" lon="0.3447246253490448"><ele></ele><time>2016-10-9T9:10:48Z</time></trkpt>
<trkpt lat="49.3246307373046875" lon="0.3447170853614807"><ele></ele><time>2016-10-9T9:10:51Z</time></trkpt>
<trkpt lat="49.3247413635253906" lon="0.3446994721889496"><ele></ele><time>2016-10-9T9:10:54Z</time></trkpt>
<trkpt lat="49.3249397277832031" lon="0.3447183370590210"><ele></ele><time>2016-10-9T9:10:57Z</time></trkpt>
<trkpt lat="49.3251686096191406" lon="0.3446828722953796"><ele></ele><time>2016-10-9T9:11:0Z</time></trkpt>
<trkpt lat="49.3254241943359375" lon="0.3447050154209137"><ele></ele><time>2016-10-9T9:11:3Z</time></trkpt>
<trkpt lat="49.3255615234375000" lon="0.3446935415267944"><ele></ele><time>2016-10-9T9:11:6Z</time></trkpt>
<trkpt lat="49.3256874084472656" lon="0.3447206914424896"><ele></ele><time>2016-10-9T9:11:9Z</time></trkpt>
<trkpt lat="49.3258934020996094" lon="0.3447279930114746"><ele></ele><time>2016-10-9T9:11:12Z</time></trkpt>
<trkpt lat="49.3260307312011719" lon="0.3446968793869019"><ele></ele><time>2016-10-9T9:11:15Z</time></trkpt>
<trkpt lat="49.3261642456054688" lon="0.3447119593620300"><ele></ele><time>2016-10-9T9:11:18Z</time></trkpt>
<trkpt lat="49.3263320922851562" lon="0.3446967899799347"><ele></ele><time>2016-10-9T9:11:21Z</time></trkpt>
<trkpt lat="49.3264465332031250" lon="0.3447120487689972"><ele></ele><time>2016-10-9T9:11:24Z</time></trkpt>
<trkpt lat="49.3266258239746094" lon="0.3446986377239227"><ele></ele><time>2016-10-9T9:11:27Z</time></trkpt>
<trkpt lat="49.3267631530761719" lon="0.3447019159793854"><ele></ele><time>2016-10-9T9:11:30Z</time></trkpt>
<trkpt lat="49.3269004821777344" lon="0.3446879982948303"><ele></ele><time>2016-10-9T9:11:33Z</time></trkpt>
<trkpt lat="49.3270874023437500" lon="0.3446762561798096"><ele></ele><time>2016-10-9T9:11:36Z</time></trkpt>
<trkpt lat="49.3272094726562500" lon="0.3446570634841919"><ele></ele><time>2016-10-9T9:11:39Z</time></trkpt>
<trkpt lat="49.3273468017578125" lon="0.3446560502052307"><ele></ele><time>2016-10-9T9:11:42Z</time></trkpt>
<trkpt lat="49.3275032043457031" lon="0.3446358740329742"><ele></ele><time>2016-10-9T9:11:45Z</time></trkpt>
<trkpt lat="49.3276252746582031" lon="0.3446217775344849"><ele></ele><time>2016-10-9T9:11:48Z</time></trkpt>
<trkpt lat="49.3278236389160156" lon="0.3445963859558105"><ele></ele><time>2016-10-9T9:11:51Z</time></trkpt>
<trkpt lat="49.3279342651367188" lon="0.3445792794227600"><ele></ele><time>2016-10-9T9:11:54Z</time></trkpt>
<trkpt lat="49.3281021118164062" lon="0.3444916009902954"><ele></ele><time>2016-10-9T9:11:57Z</time></trkpt>
<trkpt lat="49.3282165527343750" lon="0.3444342911243439"><ele></ele><time>2016-10-9T9:12:0Z</time></trkpt>
<trkpt lat="49.3282966613769531" lon="0.3443900942802429"><ele></ele><time>2016-10-9T9:12:3Z</time></trkpt>
<trkpt lat="49.3284378051757812" lon="0.3442912101745605"><ele></ele><time>2016-10-9T9:12:6Z</time></trkpt>
<trkpt lat="49.3286018371582031" lon="0.3442207872867584"><ele></ele><time>2016-10-9T9:12:9Z</time></trkpt>
<trkpt lat="49.3287429809570312" lon="0.3441328704357147"><ele></ele><time>2016-10-9T9:12:12Z</time></trkpt>
<trkpt lat="49.3288726806640625" lon="0.3440560102462769"><ele></ele><time>2016-10-9T9:12:15Z</time></trkpt>
<trkpt lat="49.3289566040039062" lon="0.3440226316452026"><ele></ele><time>2016-10-9T9:12:18Z</time></trkpt>
<trkpt lat="49.3290443420410156" lon="0.3439887762069702"><ele></ele><time>2016-10-9T9:12:21Z</time></trkpt>
<trkpt lat="49.3291244506835938" lon="0.3439470529556274"><ele></ele><time>2016-10-9T9:12:24Z</time></trkpt>
<trkpt lat="49.3292732238769531" lon="0.3438945710659027"><ele></ele><time>2016-10-9T9:12:27Z</time></trkpt>
<trkpt lat="49.3294219970703125" lon="0.3438179492950439"><ele></ele><time>2016-10-9T9:12:30Z</time></trkpt>
<trkpt lat="49.3295593261718750" lon="0.3437535762786865"><ele></ele><time>2016-10-9T9:12:33Z</time></trkpt>
<trkpt lat="49.3296813964843750" lon="0.3436781466007233"><ele></ele><time>2016-10-9T9:12:36Z</time></trkpt>
<trkpt lat="49.3297615051269531" lon="0.3436092436313629"><ele></ele><time>2016-10-9T9:12:39Z</time></trkpt>
<trkpt lat="49.3299407958984375" lon="0.3435768187046051"><ele></ele><time>2016-10-9T9:12:42Z</time></trkpt>
<trkpt lat="49.3300971984863281" lon="0.3434699475765228"><ele></ele><time>2016-10-9T9:12:45Z</time></trkpt>
<trkpt lat="49.3302536010742188" lon="0.3434262573719025"><ele></ele><time>2016-10-9T9:12:48Z</time></trkpt>
<trkpt lat="49.3303604125976562" lon="0.3433600664138794"><ele></ele><time>2016-10-9T9:12:51Z</time></trkpt>
<trkpt lat="49.3304634094238281" lon="0.3433063328266144"><ele></ele><time>2016-10-9T9:12:54Z</time></trkpt>
<trkpt lat="49.3306083679199219" lon="0.3433270156383514"><ele></ele><time>2016-10-9T9:12:57Z</time></trkpt>
<trkpt lat="49.3308181762695312" lon="0.3433987796306610"><ele></ele><time>2016-10-9T9:13:0Z</time></trkpt>
<trkpt lat="49.3309478759765625" lon="0.3434976935386658"><ele></ele><time>2016-10-9T9:13:3Z</time></trkpt>
<trkpt lat="49.3311157226562500" lon="0.3437056541442871"><ele></ele><time>2016-10-9T9:13:6Z</time></trkpt>
<trkpt lat="49.3312187194824219" lon="0.3438666462898254"><ele></ele><time>2016-10-9T9:13:9Z</time></trkpt>
<trkpt lat="49.3313674926757812" lon="0.3441523015499115"><ele></ele><time>2016-10-9T9:13:12Z</time></trkpt>
<trkpt lat="49.3314399719238281" lon="0.3443455100059509"><ele></ele><time>2016-10-9T9:13:15Z</time></trkpt>
<trkpt lat="49.3315124511718750" lon="0.3445348739624023"><ele></ele><time>2016-10-9T9:13:18Z</time></trkpt>
<trkpt lat="49.3316116333007812" lon="0.3448354303836823"><ele></ele><time>2016-10-9T9:13:21Z</time></trkpt>
<trkpt lat="49.3316917419433594" lon="0.3451620936393738"><ele></ele><time>2016-10-9T9:13:24Z</time></trkpt>
<trkpt lat="49.3317489624023438" lon="0.3453743159770966"><ele></ele><time>2016-10-9T9:13:27Z</time></trkpt>
<trkpt lat="49.3318138122558594" lon="0.3455864489078522"><ele></ele><time>2016-10-9T9:13:30Z</time></trkpt>
<trkpt lat="49.3319129943847656" lon="0.3458950817584991"><ele></ele><time>2016-10-9T9:13:33Z</time></trkpt>
<trkpt lat="49.3320045471191406" lon="0.3462024331092834"><ele></ele><time>2016-10-9T9:13:36Z</time></trkpt>
<trkpt lat="49.3320732116699219" lon="0.3464166820049286"><ele></ele><time>2016-10-9T9:13:39Z</time></trkpt>
<trkpt lat="49.3321609497070312" lon="0.3466302454471588"><ele></ele><time>2016-10-9T9:13:42Z</time></trkpt>
<trkpt lat="49.3322601318359375" lon="0.3469341695308685"><ele></ele><time>2016-10-9T9:13:45Z</time></trkpt>
<trkpt lat="49.3323287963867188" lon="0.3471307456493378"><ele></ele><time>2016-10-9T9:13:48Z</time></trkpt>
<trkpt lat="49.3323822021484375" lon="0.3473300635814667"><ele></ele><time>2016-10-9T9:13:51Z</time></trkpt>
<trkpt lat="49.3324432373046875" lon="0.3475321531295776"><ele></ele><time>2016-10-9T9:13:54Z</time></trkpt>
<trkpt lat="49.3325195312500000" lon="0.3478475511074066"><ele></ele><time>2016-10-9T9:13:57Z</time></trkpt>
<trkpt lat="49.3325920104980469" lon="0.3481468856334686"><ele></ele><time>2016-10-9T9:14:0Z</time></trkpt>
<trkpt lat="49.3326835632324219" lon="0.3484377264976501"><ele></ele><time>2016-10-9T9:14:3Z</time></trkpt>
<trkpt lat="49.3327522277832031" lon="0.3486302495002747"><ele></ele><time>2016-10-9T9:14:6Z</time></trkpt>
<trkpt lat="49.3328514099121094" lon="0.3489362001419067"><ele></ele><time>2016-10-9T9:14:9Z</time></trkpt>
<trkpt lat="49.3328933715820312" lon="0.3491203486919403"><ele></ele><time>2016-10-9T9:14:12Z</time></trkpt>
<trkpt lat="49.3329658508300781" lon="0.3493238687515259"><ele></ele><time>2016-10-9T9:14:15Z</time></trkpt>
<trkpt lat="49.3330497741699219" lon="0.3495968580245972"><ele></ele><time>2016-10-9T9:14:18Z</time></trkpt>
<trkpt lat="49.3331794738769531" lon="0.3498706221580505"><ele></ele><time>2016-10-9T9:14:21Z</time></trkpt>
<trkpt lat="49.3332786560058594" lon="0.3500473797321320"><ele></ele><time>2016-10-9T9:14:24Z</time></trkpt>
<trkpt lat="49.3334274291992188" lon="0.3503034412860870"><ele></ele><time>2016-10-9T9:14:27Z</time></trkpt>
<trkpt lat="49.3335075378417969" lon="0.3504745364189148"><ele></ele><time>2016-10-9T9:14:30Z</time></trkpt>
<trkpt lat="49.3335800170898438" lon="0.3506299257278442"><ele></ele><time>2016-10-9T9:14:33Z</time></trkpt>
<trkpt lat="49.3336791992187500" lon="0.3507899343967438"><ele></ele><time>2016-10-9T9:14:36Z</time></trkpt>
<trkpt lat="49.3338088989257812" lon="0.3510195910930634"><ele></ele><time>2016-10-9T9:14:39Z</time></trkpt>
<trkpt lat="49.3339729309082031" lon="0.3512400388717651"><ele></ele><time>2016-10-9T9:14:42Z</time></trkpt>
<trkpt lat="49.3340835571289062" lon="0.3513570725917816"><ele></ele><time>2016-10-9T9:14:45Z</time></trkpt>
<trkpt lat="49.3342056274414062" lon="0.3514839708805084"><ele></ele><time>2016-10-9T9:14:48Z</time></trkpt>
<trkpt lat="49.3343811035156250" lon="0.3516484200954437"><ele></ele><time>2016-10-9T9:14:51Z</time></trkpt>
<trkpt lat="49.3345260620117188" lon="0.3517080843448639"><ele></ele><time>2016-10-9T9:14:54Z</time></trkpt>
<trkpt lat="49.3347091674804688" lon="0.3518525063991547"><ele></ele><time>2016-10-9T9:14:57Z</time></trkpt>
<trkpt lat="49.3349227905273438" lon="0.3520062267780304"><ele></ele><time>2016-10-9T9:15:0Z</time></trkpt>
<trkpt lat="49.3351020812988281" lon="0.3521344065666199"><ele></ele><time>2016-10-9T9:15:3Z</time></trkpt>
<trkpt lat="49.3352432250976562" lon="0.3522408604621887"><ele></ele><time>2016-10-9T9:15:6Z</time></trkpt>
<trkpt lat="49.3353691101074219" lon="0.3523600399494171"><ele></ele><time>2016-10-9T9:15:9Z</time></trkpt>
<trkpt lat="49.3355560302734375" lon="0.3524757027626038"><ele></ele><time>2016-10-9T9:15:12Z</time></trkpt>
<trkpt lat="49.3356628417968750" lon="0.3525847494602203"><ele></ele><time>2016-10-9T9:15:15Z</time></trkpt>
<trkpt lat="49.3358497619628906" lon="0.3527176976203918"><ele></ele><time>2016-10-9T9:15:18Z</time></trkpt>
<trkpt lat="49.3360328674316406" lon="0.3528663814067841"><ele></ele><time>2016-10-9T9:15:21Z</time></trkpt>
<trkpt lat="49.3361434936523438" lon="0.3529651165008545"><ele></ele><time>2016-10-9T9:15:24Z</time></trkpt>
<trkpt lat="49.3363227844238281" lon="0.3530874252319336"><ele></ele><time>2016-10-9T9:15:27Z</time></trkpt>
<trkpt lat="49.3364410400390625" lon="0.3531916141510010"><ele></ele><time>2016-10-9T9:15:30Z</time></trkpt>
<trkpt lat="49.3365440368652344" lon="0.3532862365245819"><ele></ele><time>2016-10-9T9:15:33Z</time></trkpt>
<trkpt lat="49.3366470336914062" lon="0.3533751666545868"><ele></ele><time>2016-10-9T9:15:36Z</time></trkpt>
<trkpt lat="49.3367881774902344" lon="0.3535447418689728"><ele></ele><time>2016-10-9T9:15:39Z</time></trkpt>
<trkpt lat="49.3368721008300781" lon="0.3537161350250244"><ele></ele><time>2016-10-9T9:15:42Z</time></trkpt>
<trkpt lat="49.3369064331054688" lon="0.3538438081741333"><ele></ele><time>2016-10-9T9:15:45Z</time></trkpt>
<trkpt lat="49.3369102478027344" lon="0.3539787530899048"><ele></ele><time>2016-10-9T9:15:48Z</time></trkpt>
<trkpt lat="49.3369255065917969" lon="0.3541320562362671"><ele></ele><time>2016-10-9T9:15:51Z</time></trkpt>
<trkpt lat="49.3370323181152344" lon="0.3543110191822052"><ele></ele><time>2016-10-9T9:15:54Z</time></trkpt>
<trkpt lat="49.3371543884277344" lon="0.3543085753917694"><ele></ele><time>2016-10-9T9:15:57Z</time></trkpt>
<trkpt lat="49.3373527526855469" lon="0.3542071580886841"><ele></ele><time>2016-10-9T9:16:0Z</time></trkpt>
<trkpt lat="49.3374824523925781" lon="0.3542455434799194"><ele></ele><time>2016-10-9T9:16:3Z</time></trkpt>
<trkpt lat="49.3377037048339844" lon="0.3543235957622528"><ele></ele><time>2016-10-9T9:16:6Z</time></trkpt>
<trkpt lat="49.3378448486328125" lon="0.3543930649757385"><ele></ele><time>2016-10-9T9:16:9Z</time></trkpt>
<trkpt lat="49.3380355834960938" lon="0.3545693457126617"><ele></ele><time>2016-10-9T9:16:12Z</time></trkpt>
<trkpt lat="49.3381652832031250" lon="0.3546936511993408"><ele></ele><time>2016-10-9T9:16:15Z</time></trkpt>
<trkpt lat="49.3383483886718750" lon="0.3548826575279236"><ele></ele><time>2016-10-9T9:16:18Z</time></trkpt>
<trkpt lat="49.3385314941406250" lon="0.3550585806369781"><ele></ele><time>2016-10-9T9:16:21Z</time></trkpt>
<trkpt lat="49.3387145996093750" lon="0.3552536368370056"><ele></ele><time>2016-10-9T9:16:24Z</time></trkpt>
<trkpt lat="49.3388748168945312" lon="0.3554843962192535"><ele></ele><time>2016-10-9T9:16:27Z</time></trkpt>
<trkpt lat="49.3389816284179688" lon="0.3556045889854431"><ele></ele><time>2016-10-9T9:16:30Z</time></trkpt>
<trkpt lat="49.3391036987304688" lon="0.3557510077953339"><ele></ele><time>2016-10-9T9:16:33Z</time></trkpt>
<trkpt lat="49.3392715454101562" lon="0.3559531867504120"><ele></ele><time>2016-10-9T9:16:36Z</time></trkpt>
<trkpt lat="49.3394470214843750" lon="0.3561524450778961"><ele></ele><time>2016-10-9T9:16:39Z</time></trkpt>
<trkpt lat="49.3395652770996094" lon="0.3562726378440857"><ele></ele><time>2016-10-9T9:16:42Z</time></trkpt>
<trkpt lat="49.3396873474121094" lon="0.3563990294933319"><ele></ele><time>2016-10-9T9:16:45Z</time></trkpt>
<trkpt lat="49.3398704528808594" lon="0.3565667569637299"><ele></ele><time>2016-10-9T9:16:48Z</time></trkpt>
<trkpt lat="49.3400192260742188" lon="0.3567225635051727"><ele></ele><time>2016-10-9T9:16:51Z</time></trkpt>
<trkpt lat="49.3401679992675781" lon="0.3569017648696899"><ele></ele><time>2016-10-9T9:16:54Z</time></trkpt>
<trkpt lat="49.3402748107910156" lon="0.3570201992988586"><ele></ele><time>2016-10-9T9:16:57Z</time></trkpt>
<trkpt lat="49.3403739929199219" lon="0.3571502864360809"><ele></ele><time>2016-10-9T9:17:0Z</time></trkpt>
<trkpt lat="49.3405265808105469" lon="0.3573856651782990"><ele></ele><time>2016-10-9T9:17:3Z</time></trkpt>
<trkpt lat="49.3405914306640625" lon="0.3575519621372223"><ele></ele><time>2016-10-9T9:17:6Z</time></trkpt>
<trkpt lat="49.3406486511230469" lon="0.3577154874801636"><ele></ele><time>2016-10-9T9:17:9Z</time></trkpt>
<trkpt lat="49.3407402038574219" lon="0.3578448295593262"><ele></ele><time>2016-10-9T9:17:12Z</time></trkpt>
<trkpt lat="49.3409004211425781" lon="0.3578095436096191"><ele></ele><time>2016-10-9T9:17:15Z</time></trkpt>
<trkpt lat="49.3410720825195312" lon="0.3578812777996063"><ele></ele><time>2016-10-9T9:17:18Z</time></trkpt>
<trkpt lat="49.3412399291992188" lon="0.3579938411712646"><ele></ele><time>2016-10-9T9:17:21Z</time></trkpt>
<trkpt lat="49.3413505554199219" lon="0.3580876588821411"><ele></ele><time>2016-10-9T9:17:24Z</time></trkpt>
<trkpt lat="49.3415031433105469" lon="0.3582251071929932"><ele></ele><time>2016-10-9T9:17:27Z</time></trkpt>
<trkpt lat="49.3416824340820312" lon="0.3583618104457855"><ele></ele><time>2016-10-9T9:17:30Z</time></trkpt>
<trkpt lat="49.3418617248535156" lon="0.3585019707679749"><ele></ele><time>2016-10-9T9:17:33Z</time></trkpt>
<trkpt lat="49.3419799804687500" lon="0.3586261868476868"><ele></ele><time>2016-10-9T9:17:36Z</time></trkpt>
<trkpt lat="49.3421096801757812" lon="0.3587332963943481"><ele></ele><time>2016-10-9T9:17:39Z</time></trkpt>
<trkpt lat="49.3423156738281250" lon="0.3588979244232178"><ele></ele><time>2016-10-9T9:17:42Z</time></trkpt>
<trkpt lat="49.3424873352050781" lon="0.3590644001960754"><ele></ele><time>2016-10-9T9:17:45Z</time></trkpt>
<trkpt lat="49.3426628112792969" lon="0.3591991662979126"><ele></ele><time>2016-10-9T9:17:48Z</time></trkpt>
<trkpt lat="49.3427734375000000" lon="0.3593032658100128"><ele></ele><time>2016-10-9T9:17:51Z</time></trkpt>
<trkpt lat="49.3429336547851562" lon="0.3594660460948944"><ele></ele><time>2016-10-9T9:17:54Z</time></trkpt>
<trkpt lat="49.3430442810058594" lon="0.3595864176750183"><ele></ele><time>2016-10-9T9:17:57Z</time></trkpt>
<trkpt lat="49.3432197570800781" lon="0.3597624301910400"><ele></ele><time>2016-10-9T9:18:0Z</time></trkpt>
<trkpt lat="49.3433189392089844" lon="0.3598982989788055"><ele></ele><time>2016-10-9T9:18:3Z</time></trkpt>
<trkpt lat="49.3434371948242188" lon="0.3600252866744995"><ele></ele><time>2016-10-9T9:18:6Z</time></trkpt>
<trkpt lat="49.3436050415039062" lon="0.3602137267589569"><ele></ele><time>2016-10-9T9:18:9Z</time></trkpt>
<trkpt lat="49.3437843322753906" lon="0.3604069054126740"><ele></ele><time>2016-10-9T9:18:12Z</time></trkpt>
<trkpt lat="49.3439521789550781" lon="0.3606330752372742"><ele></ele><time>2016-10-9T9:18:15Z</time></trkpt>
<trkpt lat="49.3440666198730469" lon="0.3607836067676544"><ele></ele><time>2016-10-9T9:18:18Z</time></trkpt>
<trkpt lat="49.3442001342773438" lon="0.3610227406024933"><ele></ele><time>2016-10-9T9:18:21Z</time></trkpt>
<trkpt lat="49.3442878723144531" lon="0.3611944019794464"><ele></ele><time>2016-10-9T9:18:24Z</time></trkpt>
<trkpt lat="49.3443908691406250" lon="0.3613637089729309"><ele></ele><time>2016-10-9T9:18:27Z</time></trkpt>
<trkpt lat="49.3445205688476562" lon="0.3616487681865692"><ele></ele><time>2016-10-9T9:18:30Z</time></trkpt>
<trkpt lat="49.3446273803710938" lon="0.3618409633636475"><ele></ele><time>2016-10-9T9:18:33Z</time></trkpt>
<trkpt lat="49.3447303771972656" lon="0.3620145618915558"><ele></ele><time>2016-10-9T9:18:36Z</time></trkpt>
<trkpt lat="49.3449211120605469" lon="0.3622695505619049"><ele></ele><time>2016-10-9T9:18:39Z</time></trkpt>
<trkpt lat="49.3450736999511719" lon="0.3624079227447510"><ele></ele><time>2016-10-9T9:18:42Z</time></trkpt>
<trkpt lat="49.3453292846679688" lon="0.3625645041465759"><ele></ele><time>2016-10-9T9:18:45Z</time></trkpt>
<trkpt lat="49.3454818725585938" lon="0.3626336455345154"><ele></ele><time>2016-10-9T9:18:48Z</time></trkpt>
<trkpt lat="49.3456993103027344" lon="0.3626760542392731"><ele></ele><time>2016-10-9T9:18:51Z</time></trkpt>
<trkpt lat="49.3458328247070312" lon="0.3626723885536194"><ele></ele><time>2016-10-9T9:18:54Z</time></trkpt>
<trkpt lat="49.3460731506347656" lon="0.3625694513320923"><ele></ele><time>2016-10-9T9:18:57Z</time></trkpt>
<trkpt lat="49.3462486267089844" lon="0.3625153899192810"><ele></ele><time>2016-10-9T9:19:0Z</time></trkpt>
<trkpt lat="49.3463935852050781" lon="0.3624405264854431"><ele></ele><time>2016-10-9T9:19:3Z</time></trkpt>
<trkpt lat="49.3466072082519531" lon="0.3623163998126984"><ele></ele><time>2016-10-9T9:19:6Z</time></trkpt>
<trkpt lat="49.3467292785644531" lon="0.3622542023658752"><ele></ele><time>2016-10-9T9:19:9Z</time></trkpt>
<trkpt lat="49.3468742370605469" lon="0.3621760010719299"><ele></ele><time>2016-10-9T9:19:12Z</time></trkpt>
<trkpt lat="49.3470916748046875" lon="0.3620835542678833"><ele></ele><time>2016-10-9T9:19:15Z</time></trkpt>
<trkpt lat="49.3472251892089844" lon="0.3620462417602539"><ele></ele><time>2016-10-9T9:19:18Z</time></trkpt>
<trkpt lat="49.3474121093750000" lon="0.3618128001689911"><ele></ele><time>2016-10-9T9:19:21Z</time></trkpt>
<trkpt lat="49.3475914001464844" lon="0.3616757690906525"><ele></ele><time>2016-10-9T9:19:24Z</time></trkpt>
<trkpt lat="49.3477325439453125" lon="0.3616735935211182"><ele></ele><time>2016-10-9T9:19:27Z</time></trkpt>
<trkpt lat="49.3478660583496094" lon="0.3617433309555054"><ele></ele><time>2016-10-9T9:19:30Z</time></trkpt>
<trkpt lat="49.3480796813964844" lon="0.3618635237216949"><ele></ele><time>2016-10-9T9:19:33Z</time></trkpt>
<trkpt lat="49.3481864929199219" lon="0.3620317578315735"><ele></ele><time>2016-10-9T9:19:36Z</time></trkpt>
<trkpt lat="49.3482589721679688" lon="0.3622306585311890"><ele></ele><time>2016-10-9T9:19:39Z</time></trkpt>
<trkpt lat="49.3483314514160156" lon="0.3624175786972046"><ele></ele><time>2016-10-9T9:19:42Z</time></trkpt>
<trkpt lat="49.3483810424804688" lon="0.3626505732536316"><ele></ele><time>2016-10-9T9:19:45Z</time></trkpt>
<trkpt lat="49.3484497070312500" lon="0.3629701733589172"><ele></ele><time>2016-10-9T9:19:48Z</time></trkpt>
<trkpt lat="49.3485488891601562" lon="0.3632258474826813"><ele></ele><time>2016-10-9T9:19:51Z</time></trkpt>
<trkpt lat="49.3486175537109375" lon="0.3635307550430298"><ele></ele><time>2016-10-9T9:19:54Z</time></trkpt>
<trkpt lat="49.3486518859863281" lon="0.3638301789760590"><ele></ele><time>2016-10-9T9:19:57Z</time></trkpt>
<trkpt lat="49.3487052917480469" lon="0.3640118837356567"><ele></ele><time>2016-10-9T9:20:0Z</time></trkpt>
<trkpt lat="49.3487739562988281" lon="0.3642721474170685"><ele></ele><time>2016-10-9T9:20:3Z</time></trkpt>
<trkpt lat="49.3488273620605469" lon="0.3644362688064575"><ele></ele><time>2016-10-9T9:20:6Z</time></trkpt>
<trkpt lat="49.3488731384277344" lon="0.3646390140056610"><ele></ele><time>2016-10-9T9:20:9Z</time></trkpt>
<trkpt lat="49.3489990234375000" lon="0.3649528324604034"><ele></ele><time>2016-10-9T9:20:12Z</time></trkpt>
<trkpt lat="49.3490638732910156" lon="0.3651458024978638"><ele></ele><time>2016-10-9T9:20:15Z</time></trkpt>
<trkpt lat="49.3491363525390625" lon="0.3654300272464752"><ele></ele><time>2016-10-9T9:20:18Z</time></trkpt>
<trkpt lat="49.3492012023925781" lon="0.3656900227069855"><ele></ele><time>2016-10-9T9:20:21Z</time></trkpt>
<trkpt lat="49.3492660522460938" lon="0.3659455180168152"><ele></ele><time>2016-10-9T9:20:24Z</time></trkpt>
<trkpt lat="49.3493232727050781" lon="0.3662084639072418"><ele></ele><time>2016-10-9T9:20:27Z</time></trkpt>
<trkpt lat="49.3493957519531250" lon="0.3663622736930847"><ele></ele><time>2016-10-9T9:20:30Z</time></trkpt>
<trkpt lat="49.3494834899902344" lon="0.3666352629661560"><ele></ele><time>2016-10-9T9:20:33Z</time></trkpt>
<trkpt lat="49.3495368957519531" lon="0.3668336570262909"><ele></ele><time>2016-10-9T9:20:36Z</time></trkpt>
<trkpt lat="49.3495903015136719" lon="0.3670415282249451"><ele></ele><time>2016-10-9T9:20:39Z</time></trkpt>
<trkpt lat="49.3496475219726562" lon="0.3673436045646667"><ele></ele><time>2016-10-9T9:20:42Z</time></trkpt>
<trkpt lat="49.3497238159179688" lon="0.3676379919052124"><ele></ele><time>2016-10-9T9:20:45Z</time></trkpt>
<trkpt lat="49.3498115539550781" lon="0.3679294288158417"><ele></ele><time>2016-10-9T9:20:48Z</time></trkpt>
<trkpt lat="49.3498649597167969" lon="0.3681104779243469"><ele></ele><time>2016-10-9T9:20:51Z</time></trkpt>
<trkpt lat="49.3499450683593750" lon="0.3683987259864807"><ele></ele><time>2016-10-9T9:20:54Z</time></trkpt>
<trkpt lat="49.3500022888183594" lon="0.3685692846775055"><ele></ele><time>2016-10-9T9:20:57Z</time></trkpt>
<trkpt lat="49.3500518798828125" lon="0.3687500059604645"><ele></ele><time>2016-10-9T9:21:0Z</time></trkpt>
<trkpt lat="49.3501243591308594" lon="0.3689231872558594"><ele></ele><time>2016-10-9T9:21:3Z</time></trkpt>
<trkpt lat="49.3502082824707031" lon="0.3692008852958679"><ele></ele><time>2016-10-9T9:21:6Z</time></trkpt>
<trkpt lat="49.3502883911132812" lon="0.3694802522659302"><ele></ele><time>2016-10-9T9:21:9Z</time></trkpt>
<trkpt lat="49.3503456115722656" lon="0.3697936534881592"><ele></ele><time>2016-10-9T9:21:12Z</time></trkpt>
<trkpt lat="49.3503189086914062" lon="0.3701120615005493"><ele></ele><time>2016-10-9T9:21:15Z</time></trkpt>
<trkpt lat="49.3503417968750000" lon="0.3703945279121399"><ele></ele><time>2016-10-9T9:21:18Z</time></trkpt>
<trkpt lat="49.3504371643066406" lon="0.3705511987209320"><ele></ele><time>2016-10-9T9:21:21Z</time></trkpt>
<trkpt lat="49.3506050109863281" lon="0.3708087801933289"><ele></ele><time>2016-10-9T9:21:24Z</time></trkpt>
<trkpt lat="49.3506774902343750" lon="0.3710159063339233"><ele></ele><time>2016-10-9T9:21:27Z</time></trkpt>
<trkpt lat="49.3507804870605469" lon="0.3713546097278595"><ele></ele><time>2016-10-9T9:21:30Z</time></trkpt>
<trkpt lat="49.3508377075195312" lon="0.3715909719467163"><ele></ele><time>2016-10-9T9:21:33Z</time></trkpt>
<trkpt lat="49.3509292602539062" lon="0.3719198703765869"><ele></ele><time>2016-10-9T9:21:36Z</time></trkpt>
<trkpt lat="49.3510322570800781" lon="0.3722528815269470"><ele></ele><time>2016-10-9T9:21:39Z</time></trkpt>
<trkpt lat="49.3510818481445312" lon="0.3724085390567780"><ele></ele><time>2016-10-9T9:21:42Z</time></trkpt>
<trkpt lat="49.3511924743652344" lon="0.3727375268936157"><ele></ele><time>2016-10-9T9:21:45Z</time></trkpt>
<trkpt lat="49.3512840270996094" lon="0.3730658590793610"><ele></ele><time>2016-10-9T9:21:48Z</time></trkpt>
<trkpt lat="49.3513526916503906" lon="0.3733748197555542"><ele></ele><time>2016-10-9T9:21:51Z</time></trkpt>
<trkpt lat="49.3513908386230469" lon="0.3735814988613129"><ele></ele><time>2016-10-9T9:21:54Z</time></trkpt>
<trkpt lat="49.3514938354492188" lon="0.3739001154899597"><ele></ele><time>2016-10-9T9:21:57Z</time></trkpt>
<trkpt lat="49.3515548706054688" lon="0.3741725981235504"><ele></ele><time>2016-10-9T9:22:0Z</time></trkpt>
<trkpt lat="49.3516197204589844" lon="0.3743606805801392"><ele></ele><time>2016-10-9T9:22:3Z</time></trkpt>
<trkpt lat="49.3517036437988281" lon="0.3746609389781952"><ele></ele><time>2016-10-9T9:22:6Z</time></trkpt>
<trkpt lat="49.3517570495605469" lon="0.3749685585498810"><ele></ele><time>2016-10-9T9:22:9Z</time></trkpt>
<trkpt lat="49.3518333435058594" lon="0.3752474188804626"><ele></ele><time>2016-10-9T9:22:12Z</time></trkpt>
<trkpt lat="49.3518867492675781" lon="0.3755075037479401"><ele></ele><time>2016-10-9T9:22:15Z</time></trkpt>
<trkpt lat="49.3519401550292969" lon="0.3756774067878723"><ele></ele><time>2016-10-9T9:22:18Z</time></trkpt>
<trkpt lat="49.3520011901855469" lon="0.3758522570133209"><ele></ele><time>2016-10-9T9:22:21Z</time></trkpt>
<trkpt lat="49.3520927429199219" lon="0.3761512339115143"><ele></ele><time>2016-10-9T9:22:24Z</time></trkpt>
<trkpt lat="49.3521766662597656" lon="0.3764110803604126"><ele></ele><time>2016-10-9T9:22:27Z</time></trkpt>
<trkpt lat="49.3522300720214844" lon="0.3765971362590790"><ele></ele><time>2016-10-9T9:22:30Z</time></trkpt>
<trkpt lat="49.3522949218750000" lon="0.3768926858901978"><ele></ele><time>2016-10-9T9:22:33Z</time></trkpt>
<trkpt lat="49.3523674011230469" lon="0.3771914243698120"><ele></ele><time>2016-10-9T9:22:36Z</time></trkpt>
<trkpt lat="49.3524284362792969" lon="0.3773693740367889"><ele></ele><time>2016-10-9T9:22:39Z</time></trkpt>
<trkpt lat="49.3525352478027344" lon="0.3776268661022186"><ele></ele><time>2016-10-9T9:22:42Z</time></trkpt>
<trkpt lat="49.3525581359863281" lon="0.3777914047241211"><ele></ele><time>2016-10-9T9:22:45Z</time></trkpt>
<trkpt lat="49.3526115417480469" lon="0.3779352307319641"><ele></ele><time>2016-10-9T9:22:48Z</time></trkpt>
<trkpt lat="49.3526840209960938" lon="0.3781865239143372"><ele></ele><time>2016-10-9T9:22:51Z</time></trkpt>
<trkpt lat="49.3527565002441406" lon="0.3784044682979584"><ele></ele><time>2016-10-9T9:22:54Z</time></trkpt>
<trkpt lat="49.3527984619140625" lon="0.3785786330699921"><ele></ele><time>2016-10-9T9:22:57Z</time></trkpt>
<trkpt lat="49.3528442382812500" lon="0.3787468671798706"><ele></ele><time>2016-10-9T9:23:0Z</time></trkpt>
<trkpt lat="49.3528938293457031" lon="0.3789795339107513"><ele></ele><time>2016-10-9T9:23:3Z</time></trkpt>
<trkpt lat="49.3529434204101562" lon="0.3791939616203308"><ele></ele><time>2016-10-9T9:23:6Z</time></trkpt>
<trkpt lat="49.3529853820800781" lon="0.3794485032558441"><ele></ele><time>2016-10-9T9:23:9Z</time></trkpt>
<trkpt lat="49.3530502319335938" lon="0.3796940147876740"><ele></ele><time>2016-10-9T9:23:12Z</time></trkpt>
<trkpt lat="49.3531455993652344" lon="0.3799081742763519"><ele></ele><time>2016-10-9T9:23:15Z</time></trkpt>
<trkpt lat="49.3531837463378906" lon="0.3800723850727081"><ele></ele><time>2016-10-9T9:23:18Z</time></trkpt>
<trkpt lat="49.3532295227050781" lon="0.3802223205566406"><ele></ele><time>2016-10-9T9:23:21Z</time></trkpt>
<trkpt lat="49.3532791137695312" lon="0.3803955912590027"><ele></ele><time>2016-10-9T9:23:24Z</time></trkpt>
<trkpt lat="49.3533477783203125" lon="0.3806402385234833"><ele></ele><time>2016-10-9T9:23:27Z</time></trkpt>
<trkpt lat="49.3534049987792969" lon="0.3808725178241730"><ele></ele><time>2016-10-9T9:23:30Z</time></trkpt>
<trkpt lat="49.3534698486328125" lon="0.3810965418815613"><ele></ele><time>2016-10-9T9:23:33Z</time></trkpt>
<trkpt lat="49.3535346984863281" lon="0.3813314139842987"><ele></ele><time>2016-10-9T9:23:36Z</time></trkpt>
<trkpt lat="49.3536033630371094" lon="0.3815786838531494"><ele></ele><time>2016-10-9T9:23:39Z</time></trkpt>
<trkpt lat="49.3536376953125000" lon="0.3817340135574341"><ele></ele><time>2016-10-9T9:23:42Z</time></trkpt>
<trkpt lat="49.3537063598632812" lon="0.3819311559200287"><ele></ele><time>2016-10-9T9:23:45Z</time></trkpt>
<trkpt lat="49.3537521362304688" lon="0.3821084201335907"><ele></ele><time>2016-10-9T9:23:48Z</time></trkpt>
<trkpt lat="49.3538093566894531" lon="0.3823614716529846"><ele></ele><time>2016-10-9T9:23:51Z</time></trkpt>
<trkpt lat="49.3538436889648438" lon="0.3825066387653351"><ele></ele><time>2016-10-9T9:23:54Z</time></trkpt>
<trkpt lat="49.3538856506347656" lon="0.3826425075531006"><ele></ele><time>2016-10-9T9:23:57Z</time></trkpt>
<trkpt lat="49.3539428710937500" lon="0.3828637897968292"><ele></ele><time>2016-10-9T9:24:0Z</time></trkpt>
<trkpt lat="49.3539810180664062" lon="0.3829938769340515"><ele></ele><time>2016-10-9T9:24:3Z</time></trkpt>
<trkpt lat="49.3540267944335938" lon="0.3831458389759064"><ele></ele><time>2016-10-9T9:24:6Z</time></trkpt>
<trkpt lat="49.3540840148925781" lon="0.3832975625991821"><ele></ele><time>2016-10-9T9:24:9Z</time></trkpt>
<trkpt lat="49.3541412353515625" lon="0.3835320770740509"><ele></ele><time>2016-10-9T9:24:12Z</time></trkpt>
<trkpt lat="49.3542060852050781" lon="0.3837804496288300"><ele></ele><time>2016-10-9T9:24:15Z</time></trkpt>
<trkpt lat="49.3542518615722656" lon="0.3839493393898010"><ele></ele><time>2016-10-9T9:24:18Z</time></trkpt>
<trkpt lat="49.3543243408203125" lon="0.3841856122016907"><ele></ele><time>2016-10-9T9:24:21Z</time></trkpt>
<trkpt lat="49.3543968200683594" lon="0.3844275176525116"><ele></ele><time>2016-10-9T9:24:24Z</time></trkpt>
<trkpt lat="49.3544425964355469" lon="0.3845978379249573"><ele></ele><time>2016-10-9T9:24:27Z</time></trkpt>
<trkpt lat="49.3545112609863281" lon="0.3848508894443512"><ele></ele><time>2016-10-9T9:24:30Z</time></trkpt>
<trkpt lat="49.3545799255371094" lon="0.3851213753223419"><ele></ele><time>2016-10-9T9:24:33Z</time></trkpt>
<trkpt lat="49.3546409606933594" lon="0.3853137493133545"><ele></ele><time>2016-10-9T9:24:36Z</time></trkpt>
<trkpt lat="49.3546905517578125" lon="0.3855032622814178"><ele></ele><time>2016-10-9T9:24:39Z</time></trkpt>
<trkpt lat="49.3547630310058594" lon="0.3858144879341125"><ele></ele><time>2016-10-9T9:24:42Z</time></trkpt>
<trkpt lat="49.3548164367675781" lon="0.3861371874809265"><ele></ele><time>2016-10-9T9:24:45Z</time></trkpt>
<trkpt lat="49.3549003601074219" lon="0.3864053189754486"><ele></ele><time>2016-10-9T9:24:48Z</time></trkpt>
<trkpt lat="49.3549499511718750" lon="0.3866118490695953"><ele></ele><time>2016-10-9T9:24:51Z</time></trkpt>
<trkpt lat="49.3550109863281250" lon="0.3867930769920349"><ele></ele><time>2016-10-9T9:24:54Z</time></trkpt>
<trkpt lat="49.3550720214843750" lon="0.3870027065277100"><ele></ele><time>2016-10-9T9:24:57Z</time></trkpt>
<trkpt lat="49.3551368713378906" lon="0.3872731924057007"><ele></ele><time>2016-10-9T9:25:0Z</time></trkpt>
<trkpt lat="49.3552169799804688" lon="0.3875435888767242"><ele></ele><time>2016-10-9T9:25:3Z</time></trkpt>
<trkpt lat="49.3552627563476562" lon="0.3877690434455872"><ele></ele><time>2016-10-9T9:25:6Z</time></trkpt>
<trkpt lat="49.3553504943847656" lon="0.3880395293235779"><ele></ele><time>2016-10-9T9:25:9Z</time></trkpt>
<trkpt lat="49.3554687500000000" lon="0.3882906734943390"><ele></ele><time>2016-10-9T9:25:12Z</time></trkpt>
<trkpt lat="49.3555488586425781" lon="0.3885485827922821"><ele></ele><time>2016-10-9T9:25:15Z</time></trkpt>
<trkpt lat="49.3555984497070312" lon="0.3887284398078918"><ele></ele><time>2016-10-9T9:25:18Z</time></trkpt>
<trkpt lat="49.3556938171386719" lon="0.3889905512332916"><ele></ele><time>2016-10-9T9:25:21Z</time></trkpt>
<trkpt lat="49.3557167053222656" lon="0.3892756998538971"><ele></ele><time>2016-10-9T9:25:24Z</time></trkpt>
<trkpt lat="49.3557968139648438" lon="0.3895205259323120"><ele></ele><time>2016-10-9T9:25:27Z</time></trkpt>
<trkpt lat="49.3558540344238281" lon="0.3896868228912354"><ele></ele><time>2016-10-9T9:25:30Z</time></trkpt>
<trkpt lat="49.3559532165527344" lon="0.3898752629756927"><ele></ele><time>2016-10-9T9:25:33Z</time></trkpt>
<trkpt lat="49.3560752868652344" lon="0.3901333510875702"><ele></ele><time>2016-10-9T9:25:36Z</time></trkpt>
<trkpt lat="49.3562011718750000" lon="0.3904108703136444"><ele></ele><time>2016-10-9T9:25:39Z</time></trkpt>
<trkpt lat="49.3563079833984375" lon="0.3906781673431396"><ele></ele><time>2016-10-9T9:25:42Z</time></trkpt>
<trkpt lat="49.3563766479492188" lon="0.3908527493476868"><ele></ele><time>2016-10-9T9:25:45Z</time></trkpt>
<trkpt lat="49.3565025329589844" lon="0.3911189734935760"><ele></ele><time>2016-10-9T9:25:48Z</time></trkpt>
<trkpt lat="49.3566398620605469" lon="0.3913986682891846"><ele></ele><time>2016-10-9T9:25:51Z</time></trkpt>
<trkpt lat="49.3567733764648438" lon="0.3916841447353363"><ele></ele><time>2016-10-9T9:25:54Z</time></trkpt>
<trkpt lat="49.3568496704101562" lon="0.3918811380863190"><ele></ele><time>2016-10-9T9:25:57Z</time></trkpt>
<trkpt lat="49.3569717407226562" lon="0.3921821117401123"><ele></ele><time>2016-10-9T9:26:0Z</time></trkpt>
<trkpt lat="49.3570899963378906" lon="0.3924495875835419"><ele></ele><time>2016-10-9T9:26:3Z</time></trkpt>
<trkpt lat="49.3572120666503906" lon="0.3927364945411682"><ele></ele><time>2016-10-9T9:26:6Z</time></trkpt>
<trkpt lat="49.3573341369628906" lon="0.3929891288280487"><ele></ele><time>2016-10-9T9:26:9Z</time></trkpt>
<trkpt lat="49.3574981689453125" lon="0.3932235836982727"><ele></ele><time>2016-10-9T9:26:12Z</time></trkpt>
<trkpt lat="49.3576622009277344" lon="0.3934380710124969"><ele></ele><time>2016-10-9T9:26:15Z</time></trkpt>
<trkpt lat="49.3577651977539062" lon="0.3935358822345734"><ele></ele><time>2016-10-9T9:26:18Z</time></trkpt>
<trkpt lat="49.3578681945800781" lon="0.3936375677585602"><ele></ele><time>2016-10-9T9:26:21Z</time></trkpt>
<trkpt lat="49.3580169677734375" lon="0.3938115537166595"><ele></ele><time>2016-10-9T9:26:24Z</time></trkpt>
<trkpt lat="49.3581275939941406" lon="0.3939486145973206"><ele></ele><time>2016-10-9T9:26:27Z</time></trkpt>
<trkpt lat="49.3582191467285156" lon="0.3941036760807037"><ele></ele><time>2016-10-9T9:26:30Z</time></trkpt>
<trkpt lat="49.3583106994628906" lon="0.3944057524204254"><ele></ele><time>2016-10-9T9:26:33Z</time></trkpt>
<trkpt lat="49.3584518432617188" lon="0.3946294784545898"><ele></ele><time>2016-10-9T9:26:36Z</time></trkpt>
<trkpt lat="49.3585281372070312" lon="0.3948410451412201"><ele></ele><time>2016-10-9T9:26:39Z</time></trkpt>
<trkpt lat="49.3586044311523438" lon="0.3951449692249298"><ele></ele><time>2016-10-9T9:26:42Z</time></trkpt>
<trkpt lat="49.3586883544921875" lon="0.3954595327377319"><ele></ele><time>2016-10-9T9:26:45Z</time></trkpt>
<trkpt lat="49.3587837219238281" lon="0.3956783711910248"><ele></ele><time>2016-10-9T9:26:48Z</time></trkpt>
<trkpt lat="49.3588676452636719" lon="0.3958419263362885"><ele></ele><time>2016-10-9T9:26:51Z</time></trkpt>
<trkpt lat="49.3589630126953125" lon="0.3960275650024414"><ele></ele><time>2016-10-9T9:26:54Z</time></trkpt>
<trkpt lat="49.3590431213378906" lon="0.3961872458457947"><ele></ele><time>2016-10-9T9:26:57Z</time></trkpt>
<trkpt lat="49.3591194152832031" lon="0.3963559865951538"><ele></ele><time>2016-10-9T9:27:0Z</time></trkpt>
<trkpt lat="49.3592605590820312" lon="0.3966059982776642"><ele></ele><time>2016-10-9T9:27:3Z</time></trkpt>
<trkpt lat="49.3593902587890625" lon="0.3968432247638702"><ele></ele><time>2016-10-9T9:27:6Z</time></trkpt>
<trkpt lat="49.3594627380371094" lon="0.3970035612583160"><ele></ele><time>2016-10-9T9:27:9Z</time></trkpt>
<trkpt lat="49.3595924377441406" lon="0.3972589671611786"><ele></ele><time>2016-10-9T9:27:12Z</time></trkpt>
<trkpt lat="49.3597183227539062" lon="0.3975296020507812"><ele></ele><time>2016-10-9T9:27:15Z</time></trkpt>
<trkpt lat="49.3598060607910156" lon="0.3976869285106659"><ele></ele><time>2016-10-9T9:27:18Z</time></trkpt>
<trkpt lat="49.3599395751953125" lon="0.3979332745075226"><ele></ele><time>2016-10-9T9:27:21Z</time></trkpt>
<trkpt lat="49.3600616455078125" lon="0.3982069492340088"><ele></ele><time>2016-10-9T9:27:24Z</time></trkpt>
<trkpt lat="49.3601913452148438" lon="0.3984981477260590"><ele></ele><time>2016-10-9T9:27:27Z</time></trkpt>
<trkpt lat="49.3603210449218750" lon="0.3987680375576019"><ele></ele><time>2016-10-9T9:27:30Z</time></trkpt>
<trkpt lat="49.3604469299316406" lon="0.3990310728549957"><ele></ele><time>2016-10-9T9:27:33Z</time></trkpt>
<trkpt lat="49.3605651855468750" lon="0.3992995321750641"><ele></ele><time>2016-10-9T9:27:36Z</time></trkpt>
<trkpt lat="49.3607063293457031" lon="0.3995798230171204"><ele></ele><time>2016-10-9T9:27:39Z</time></trkpt>
<trkpt lat="49.3608322143554688" lon="0.3998182117938995"><ele></ele><time>2016-10-9T9:27:42Z</time></trkpt>
<trkpt lat="49.3609504699707031" lon="0.4001162648200989"><ele></ele><time>2016-10-9T9:27:45Z</time></trkpt>
<trkpt lat="49.3610954284667969" lon="0.4003857374191284"><ele></ele><time>2016-10-9T9:27:48Z</time></trkpt>
<trkpt lat="49.3612022399902344" lon="0.4005706608295441"><ele></ele><time>2016-10-9T9:27:51Z</time></trkpt>
<trkpt lat="49.3613166809082031" lon="0.4008064270019531"><ele></ele><time>2016-10-9T9:27:54Z</time></trkpt>
<trkpt lat="49.3614540100097656" lon="0.4010737240314484"><ele></ele><time>2016-10-9T9:27:57Z</time></trkpt>
<trkpt lat="49.3615264892578125" lon="0.4012180566787720"><ele></ele><time>2016-10-9T9:28:0Z</time></trkpt>
<trkpt lat="49.3616714477539062" lon="0.4015040695667267"><ele></ele><time>2016-10-9T9:28:3Z</time></trkpt>
<trkpt lat="49.3618316650390625" lon="0.4017991125583649"><ele></ele><time>2016-10-9T9:28:6Z</time></trkpt>
<trkpt lat="49.3619079589843750" lon="0.4020016789436340"><ele></ele><time>2016-10-9T9:28:9Z</time></trkpt>
<trkpt lat="49.3620605468750000" lon="0.4022947251796722"><ele></ele><time>2016-10-9T9:28:12Z</time></trkpt>
<trkpt lat="49.3621673583984375" lon="0.4024952948093414"><ele></ele><time>2016-10-9T9:28:15Z</time></trkpt>
<trkpt lat="49.3623085021972656" lon="0.4028119742870331"><ele></ele><time>2016-10-9T9:28:18Z</time></trkpt>
<trkpt lat="49.3624610900878906" lon="0.4031073451042175"><ele></ele><time>2016-10-9T9:28:21Z</time></trkpt>
<trkpt lat="49.3626098632812500" lon="0.4034147858619690"><ele></ele><time>2016-10-9T9:28:24Z</time></trkpt>
<trkpt lat="49.3626976013183594" lon="0.4036109447479248"><ele></ele><time>2016-10-9T9:28:27Z</time></trkpt>
<trkpt lat="49.3628387451171875" lon="0.4039079844951630"><ele></ele><time>2016-10-9T9:28:30Z</time></trkpt>
<trkpt lat="49.3629798889160156" lon="0.4041880369186401"><ele></ele><time>2016-10-9T9:28:33Z</time></trkpt>
<trkpt lat="49.3630638122558594" lon="0.4043622910976410"><ele></ele><time>2016-10-9T9:28:36Z</time></trkpt>
<trkpt lat="49.3632125854492188" lon="0.4046277403831482"><ele></ele><time>2016-10-9T9:28:39Z</time></trkpt>
<trkpt lat="49.3632926940917969" lon="0.4048247039318085"><ele></ele><time>2016-10-9T9:28:42Z</time></trkpt>
<trkpt lat="49.3634376525878906" lon="0.4050767719745636"><ele></ele><time>2016-10-9T9:28:45Z</time></trkpt>
<trkpt lat="49.3635749816894531" lon="0.4053662717342377"><ele></ele><time>2016-10-9T9:28:48Z</time></trkpt>
<trkpt lat="49.3636779785156250" lon="0.4055389463901520"><ele></ele><time>2016-10-9T9:28:51Z</time></trkpt>
<trkpt lat="49.3638076782226562" lon="0.4057842791080475"><ele></ele><time>2016-10-9T9:28:54Z</time></trkpt>
<trkpt lat="49.3639488220214844" lon="0.4060955941677094"><ele></ele><time>2016-10-9T9:28:57Z</time></trkpt>
<trkpt lat="49.3640365600585938" lon="0.4062783122062683"><ele></ele><time>2016-10-9T9:29:0Z</time></trkpt>
<trkpt lat="49.3641281127929688" lon="0.4064669013023376"><ele></ele><time>2016-10-9T9:29:3Z</time></trkpt>
<trkpt lat="49.3642578125000000" lon="0.4066829085350037"><ele></ele><time>2016-10-9T9:29:6Z</time></trkpt>
<trkpt lat="49.3643875122070312" lon="0.4069257378578186"><ele></ele><time>2016-10-9T9:29:9Z</time></trkpt>
<trkpt lat="49.3644905090332031" lon="0.4072117209434509"><ele></ele><time>2016-10-9T9:29:12Z</time></trkpt>
<trkpt lat="49.3646049499511719" lon="0.4074431359767914"><ele></ele><time>2016-10-9T9:29:15Z</time></trkpt>
<trkpt lat="49.3647384643554688" lon="0.4076669514179230"><ele></ele><time>2016-10-9T9:29:18Z</time></trkpt>
<trkpt lat="49.3648490905761719" lon="0.4078926742076874"><ele></ele><time>2016-10-9T9:29:21Z</time></trkpt>
<trkpt lat="49.3649291992187500" lon="0.4080739617347717"><ele></ele><time>2016-10-9T9:29:24Z</time></trkpt>
<trkpt lat="49.3650474548339844" lon="0.4082957506179810"><ele></ele><time>2016-10-9T9:29:27Z</time></trkpt>
<trkpt lat="49.3651275634765625" lon="0.4085343778133392"><ele></ele><time>2016-10-9T9:29:30Z</time></trkpt>
<trkpt lat="49.3652000427246094" lon="0.4086195528507233"><ele></ele><time>2016-10-9T9:29:33Z</time></trkpt>
<trkpt lat="49.3654098510742188" lon="0.4087055325508118"><ele></ele><time>2016-10-9T9:29:36Z</time></trkpt>
<trkpt lat="49.3656196594238281" lon="0.4088104665279388"><ele></ele><time>2016-10-9T9:29:39Z</time></trkpt>
<trkpt lat="49.3657379150390625" lon="0.4088718295097351"><ele></ele><time>2016-10-9T9:29:42Z</time></trkpt>
<trkpt lat="49.3659133911132812" lon="0.4089796245098114"><ele></ele><time>2016-10-9T9:29:45Z</time></trkpt>
<trkpt lat="49.3661003112792969" lon="0.4091120660305023"><ele></ele><time>2016-10-9T9:29:48Z</time></trkpt>
<trkpt lat="49.3662986755371094" lon="0.4092270731925964"><ele></ele><time>2016-10-9T9:29:51Z</time></trkpt>
<trkpt lat="49.3664360046386719" lon="0.4092874825000763"><ele></ele><time>2016-10-9T9:29:54Z</time></trkpt>
<trkpt lat="49.3665542602539062" lon="0.4093504548072815"><ele></ele><time>2016-10-9T9:29:57Z</time></trkpt>
<trkpt lat="49.3666572570800781" lon="0.4094293117523193"><ele></ele><time>2016-10-9T9:30:0Z</time></trkpt>
<trkpt lat="49.3668594360351562" lon="0.4095157384872437"><ele></ele><time>2016-10-9T9:30:3Z</time></trkpt>
<trkpt lat="49.3670616149902344" lon="0.4096217751502991"><ele></ele><time>2016-10-9T9:30:6Z</time></trkpt>
<trkpt lat="49.3671875000000000" lon="0.4097171425819397"><ele></ele><time>2016-10-9T9:30:9Z</time></trkpt>
<trkpt lat="49.3673934936523438" lon="0.4098542928695679"><ele></ele><time>2016-10-9T9:30:12Z</time></trkpt>
<trkpt lat="49.3675155639648438" lon="0.4099411070346832"><ele></ele><time>2016-10-9T9:30:15Z</time></trkpt>
<trkpt lat="49.3677062988281250" lon="0.4101149439811707"><ele></ele><time>2016-10-9T9:30:18Z</time></trkpt>
<trkpt lat="49.3678359985351562" lon="0.4102575182914734"><ele></ele><time>2016-10-9T9:30:21Z</time></trkpt>
<trkpt lat="49.3679847717285156" lon="0.4104123413562775"><ele></ele><time>2016-10-9T9:30:24Z</time></trkpt>
<trkpt lat="49.3681640625000000" lon="0.4106540679931641"><ele></ele><time>2016-10-9T9:30:27Z</time></trkpt>
<trkpt lat="49.3683509826660156" lon="0.4109215438365936"><ele></ele><time>2016-10-9T9:30:30Z</time></trkpt>
<trkpt lat="49.3684806823730469" lon="0.4111120700836182"><ele></ele><time>2016-10-9T9:30:33Z</time></trkpt>
<trkpt lat="49.3686065673828125" lon="0.4112932980060577"><ele></ele><time>2016-10-9T9:30:36Z</time></trkpt>
<trkpt lat="49.3688278198242188" lon="0.4115443229675293"><ele></ele><time>2016-10-9T9:30:39Z</time></trkpt>
<trkpt lat="49.3690223693847656" lon="0.4117491841316223"><ele></ele><time>2016-10-9T9:30:42Z</time></trkpt>
<trkpt lat="49.3691673278808594" lon="0.4117944240570068"><ele></ele><time>2016-10-9T9:30:45Z</time></trkpt>
<trkpt lat="49.3694343566894531" lon="0.4118734896183014"><ele></ele><time>2016-10-9T9:30:48Z</time></trkpt>
<trkpt lat="49.3696975708007812" lon="0.4119557142257690"><ele></ele><time>2016-10-9T9:30:51Z</time></trkpt>
<trkpt lat="49.3699417114257812" lon="0.4120292067527771"><ele></ele><time>2016-10-9T9:30:54Z</time></trkpt>
<trkpt lat="49.3700981140136719" lon="0.4121443927288055"><ele></ele><time>2016-10-9T9:30:57Z</time></trkpt>
<trkpt lat="49.3702239990234375" lon="0.4122323989868164"><ele></ele><time>2016-10-9T9:31:0Z</time></trkpt>
<trkpt lat="49.3703384399414062" lon="0.4123603701591492"><ele></ele><time>2016-10-9T9:31:3Z</time></trkpt>
<trkpt lat="49.3704223632812500" lon="0.4124285280704498"><ele></ele><time>2016-10-9T9:31:6Z</time></trkpt>
<trkpt lat="49.3704948425292969" lon="0.4124866127967834"><ele></ele><time>2016-10-9T9:31:9Z</time></trkpt>
<trkpt lat="49.3705635070800781" lon="0.4125705063343048"><ele></ele><time>2016-10-9T9:31:12Z</time></trkpt>
<trkpt lat="49.3706512451171875" lon="0.4127087295055389"><ele></ele><time>2016-10-9T9:31:15Z</time></trkpt>
<trkpt lat="49.3707046508789062" lon="0.4127781391143799"><ele></ele><time>2016-10-9T9:31:18Z</time></trkpt>
<trkpt lat="49.3708724975585938" lon="0.4128390848636627"><ele></ele><time>2016-10-9T9:31:21Z</time></trkpt>
<trkpt lat="49.3710441589355469" lon="0.4129932224750519"><ele></ele><time>2016-10-9T9:31:24Z</time></trkpt>
<trkpt lat="49.3711280822753906" lon="0.4130772054195404"><ele></ele><time>2016-10-9T9:31:27Z</time></trkpt>
<trkpt lat="49.3712234497070312" lon="0.4131839871406555"><ele></ele><time>2016-10-9T9:31:30Z</time></trkpt>
<trkpt lat="49.3713073730468750" lon="0.4132692217826843"><ele></ele><time>2016-10-9T9:31:33Z</time></trkpt>
<trkpt lat="49.3713760375976562" lon="0.4133672118186951"><ele></ele><time>2016-10-9T9:31:36Z</time></trkpt>
<trkpt lat="49.3715248107910156" lon="0.4134593307971954"><ele></ele><time>2016-10-9T9:31:39Z</time></trkpt>
<trkpt lat="49.3716049194335938" lon="0.4135837256908417"><ele></ele><time>2016-10-9T9:31:42Z</time></trkpt>
<trkpt lat="49.3717613220214844" lon="0.4136825501918793"><ele></ele><time>2016-10-9T9:31:45Z</time></trkpt>
<trkpt lat="49.3717880249023438" lon="0.4137708842754364"><ele></ele><time>2016-10-9T9:31:48Z</time></trkpt>
<trkpt lat="49.3718643188476562" lon="0.4138686358928680"><ele></ele><time>2016-10-9T9:31:51Z</time></trkpt>
<trkpt lat="49.3719673156738281" lon="0.4139673709869385"><ele></ele><time>2016-10-9T9:31:54Z</time></trkpt>
<trkpt lat="49.3720283508300781" lon="0.4140460789203644"><ele></ele><time>2016-10-9T9:31:57Z</time></trkpt>
<trkpt lat="49.3721275329589844" lon="0.4142224192619324"><ele></ele><time>2016-10-9T9:32:0Z</time></trkpt>
<trkpt lat="49.3722114562988281" lon="0.4143836796283722"><ele></ele><time>2016-10-9T9:32:3Z</time></trkpt>
<trkpt lat="49.3723564147949219" lon="0.4146501421928406"><ele></ele><time>2016-10-9T9:32:6Z</time></trkpt>
<trkpt lat="49.3725433349609375" lon="0.4150068759918213"><ele></ele><time>2016-10-9T9:32:9Z</time></trkpt>
<trkpt lat="49.3726577758789062" lon="0.4152679741382599"><ele></ele><time>2016-10-9T9:32:12Z</time></trkpt>
<trkpt lat="49.3730621337890625" lon="0.4158065319061279"><ele></ele><time>2016-10-9T9:32:15Z</time></trkpt>
<trkpt lat="49.3731918334960938" lon="0.4159890711307526"><ele></ele><time>2016-10-9T9:32:18Z</time></trkpt>
<trkpt lat="49.3733253479003906" lon="0.4162406921386719"><ele></ele><time>2016-10-9T9:32:21Z</time></trkpt>
<trkpt lat="49.3735885620117188" lon="0.4166227579116821"><ele></ele><time>2016-10-9T9:32:24Z</time></trkpt>
<trkpt lat="49.3737258911132812" lon="0.4168744683265686"><ele></ele><time>2016-10-9T9:32:27Z</time></trkpt>
<trkpt lat="49.3739204406738281" lon="0.4172290265560150"><ele></ele><time>2016-10-9T9:32:30Z</time></trkpt>
<trkpt lat="49.3740882873535156" lon="0.4175675511360168"><ele></ele><time>2016-10-9T9:32:33Z</time></trkpt>
<trkpt lat="49.3742294311523438" lon="0.4177508652210236"><ele></ele><time>2016-10-9T9:32:36Z</time></trkpt>
<trkpt lat="49.3743972778320312" lon="0.4179210364818573"><ele></ele><time>2016-10-9T9:32:39Z</time></trkpt>
<trkpt lat="49.3746414184570312" lon="0.4181523621082306"><ele></ele><time>2016-10-9T9:32:42Z</time></trkpt>
<trkpt lat="49.3748054504394531" lon="0.4182277917861938"><ele></ele><time>2016-10-9T9:32:45Z</time></trkpt>
<trkpt lat="49.3749465942382812" lon="0.4183250367641449"><ele></ele><time>2016-10-9T9:32:48Z</time></trkpt>
<trkpt lat="49.3751144409179688" lon="0.4183973670005798"><ele></ele><time>2016-10-9T9:32:51Z</time></trkpt>
<trkpt lat="49.3753204345703125" lon="0.4184343218803406"><ele></ele><time>2016-10-9T9:32:54Z</time></trkpt>
<trkpt lat="49.3754768371582031" lon="0.4184461534023285"><ele></ele><time>2016-10-9T9:32:57Z</time></trkpt>
<trkpt lat="49.3756217956542969" lon="0.4184215962886810"><ele></ele><time>2016-10-9T9:33:0Z</time></trkpt>
<trkpt lat="49.3758506774902344" lon="0.4182898402214050"><ele></ele><time>2016-10-9T9:33:3Z</time></trkpt>
<trkpt lat="49.3759803771972656" lon="0.4181575477123260"><ele></ele><time>2016-10-9T9:33:6Z</time></trkpt>
<trkpt lat="49.3761749267578125" lon="0.4178846478462219"><ele></ele><time>2016-10-9T9:33:9Z</time></trkpt>
<trkpt lat="49.3763084411621094" lon="0.4177389740943909"><ele></ele><time>2016-10-9T9:33:12Z</time></trkpt>
<trkpt lat="49.3765525817871094" lon="0.4174971580505371"><ele></ele><time>2016-10-9T9:33:15Z</time></trkpt>
<trkpt lat="49.3767509460449219" lon="0.4172763824462891"><ele></ele><time>2016-10-9T9:33:18Z</time></trkpt>
<trkpt lat="49.3768730163574219" lon="0.4171037971973419"><ele></ele><time>2016-10-9T9:33:21Z</time></trkpt>
<trkpt lat="49.3770179748535156" lon="0.4169932305812836"><ele></ele><time>2016-10-9T9:33:24Z</time></trkpt>
<trkpt lat="49.3772621154785156" lon="0.4169808328151703"><ele></ele><time>2016-10-9T9:33:27Z</time></trkpt>
<trkpt lat="49.3775177001953125" lon="0.4169892072677612"><ele></ele><time>2016-10-9T9:33:30Z</time></trkpt>
<trkpt lat="49.3776893615722656" lon="0.4169862866401672"><ele></ele><time>2016-10-9T9:33:33Z</time></trkpt>
<trkpt lat="49.3779106140136719" lon="0.4170766174793243"><ele></ele><time>2016-10-9T9:33:36Z</time></trkpt>
<trkpt lat="49.3780593872070312" lon="0.4171010255813599"><ele></ele><time>2016-10-9T9:33:39Z</time></trkpt>
<trkpt lat="49.3781700134277344" lon="0.4170297682285309"><ele></ele><time>2016-10-9T9:33:42Z</time></trkpt>
<trkpt lat="49.3786010742187500" lon="0.4167420268058777"><ele></ele><time>2016-10-9T9:33:45Z</time></trkpt>
<trkpt lat="49.3788490295410156" lon="0.4165121018886566"><ele></ele><time>2016-10-9T9:33:48Z</time></trkpt>
<trkpt lat="49.3790740966796875" lon="0.4163148105144501"><ele></ele><time>2016-10-9T9:33:51Z</time></trkpt>
<trkpt lat="49.3792228698730469" lon="0.4163341522216797"><ele></ele><time>2016-10-9T9:33:54Z</time></trkpt>
<trkpt lat="49.3794631958007812" lon="0.4163041412830353"><ele></ele><time>2016-10-9T9:33:57Z</time></trkpt>
<trkpt lat="49.3796806335449219" lon="0.4162728190422058"><ele></ele><time>2016-10-9T9:34:0Z</time></trkpt>
<trkpt lat="49.3797912597656250" lon="0.4162878990173340"><ele></ele><time>2016-10-9T9:34:3Z</time></trkpt>
<trkpt lat="49.3800354003906250" lon="0.4163040816783905"><ele></ele><time>2016-10-9T9:34:6Z</time></trkpt>
<trkpt lat="49.3801803588867188" lon="0.4162220954895020"><ele></ele><time>2016-10-9T9:34:9Z</time></trkpt>
<trkpt lat="49.3804321289062500" lon="0.4160977005958557"><ele></ele><time>2016-10-9T9:34:12Z</time></trkpt>
<trkpt lat="49.3806648254394531" lon="0.4159303903579712"><ele></ele><time>2016-10-9T9:34:15Z</time></trkpt>
<trkpt lat="49.3807830810546875" lon="0.4158283174037933"><ele></ele><time>2016-10-9T9:34:18Z</time></trkpt>
<trkpt lat="49.3810005187988281" lon="0.4155852496623993"><ele></ele><time>2016-10-9T9:34:21Z</time></trkpt>
<trkpt lat="49.3811607360839844" lon="0.4154252409934998"><ele></ele><time>2016-10-9T9:34:24Z</time></trkpt>
<trkpt lat="49.3813362121582031" lon="0.4152486324310303"><ele></ele><time>2016-10-9T9:34:27Z</time></trkpt>
<trkpt lat="49.3814392089843750" lon="0.4151312708854675"><ele></ele><time>2016-10-9T9:34:30Z</time></trkpt>
<trkpt lat="49.3815612792968750" lon="0.4149446189403534"><ele></ele><time>2016-10-9T9:34:33Z</time></trkpt>
<trkpt lat="49.3817787170410156" lon="0.4147925674915314"><ele></ele><time>2016-10-9T9:34:36Z</time></trkpt>
<trkpt lat="49.3819389343261719" lon="0.4146307110786438"><ele></ele><time>2016-10-9T9:34:39Z</time></trkpt>
<trkpt lat="49.3820800781250000" lon="0.4145788252353668"><ele></ele><time>2016-10-9T9:34:42Z</time></trkpt>
<trkpt lat="49.3823509216308594" lon="0.4144462347030640"><ele></ele><time>2016-10-9T9:34:45Z</time></trkpt>
<trkpt lat="49.3824920654296875" lon="0.4143832623958588"><ele></ele><time>2016-10-9T9:34:48Z</time></trkpt>
<trkpt lat="49.3827285766601562" lon="0.4143079221248627"><ele></ele><time>2016-10-9T9:34:51Z</time></trkpt>
<trkpt lat="49.3829345703125000" lon="0.4141594767570496"><ele></ele><time>2016-10-9T9:34:54Z</time></trkpt>
<trkpt lat="49.3831100463867188" lon="0.4139759242534637"><ele></ele><time>2016-10-9T9:34:57Z</time></trkpt>
<trkpt lat="49.3832015991210938" lon="0.4137699604034424"><ele></ele><time>2016-10-9T9:35:0Z</time></trkpt>
<trkpt lat="49.3833465576171875" lon="0.4134876728057861"><ele></ele><time>2016-10-9T9:35:3Z</time></trkpt>
<trkpt lat="49.3834228515625000" lon="0.4133641123771667"><ele></ele><time>2016-10-9T9:35:6Z</time></trkpt>
<trkpt lat="49.3837013244628906" lon="0.4130631089210510"><ele></ele><time>2016-10-9T9:35:9Z</time></trkpt>
<trkpt lat="49.3837814331054688" lon="0.4128475487232208"><ele></ele><time>2016-10-9T9:35:12Z</time></trkpt>
<trkpt lat="49.3838958740234375" lon="0.4125545024871826"><ele></ele><time>2016-10-9T9:35:15Z</time></trkpt>
<trkpt lat="49.3840408325195312" lon="0.4122872948646545"><ele></ele><time>2016-10-9T9:35:18Z</time></trkpt>
<trkpt lat="49.3841819763183594" lon="0.4120194911956787"><ele></ele><time>2016-10-9T9:35:21Z</time></trkpt>
<trkpt lat="49.3842849731445312" lon="0.4118478298187256"><ele></ele><time>2016-10-9T9:35:24Z</time></trkpt>
<trkpt lat="49.3844261169433594" lon="0.4116366207599640"><ele></ele><time>2016-10-9T9:35:27Z</time></trkpt>
<trkpt lat="49.3845977783203125" lon="0.4113946259021759"><ele></ele><time>2016-10-9T9:35:30Z</time></trkpt>
<trkpt lat="49.3847579956054688" lon="0.4111699759960175"><ele></ele><time>2016-10-9T9:35:33Z</time></trkpt>
<trkpt lat="49.3848953247070312" lon="0.4109005033969879"><ele></ele><time>2016-10-9T9:35:36Z</time></trkpt>
<trkpt lat="49.3850173950195312" lon="0.4107610285282135"><ele></ele><time>2016-10-9T9:35:39Z</time></trkpt>
<trkpt lat="49.3851928710937500" lon="0.4105703532695770"><ele></ele><time>2016-10-9T9:35:42Z</time></trkpt>
<trkpt lat="49.3853874206542969" lon="0.4104253351688385"><ele></ele><time>2016-10-9T9:35:45Z</time></trkpt>
<trkpt lat="49.3855323791503906" lon="0.4103586971759796"><ele></ele><time>2016-10-9T9:35:48Z</time></trkpt>
<trkpt lat="49.3856887817382812" lon="0.4103109240531921"><ele></ele><time>2016-10-9T9:35:51Z</time></trkpt>
<trkpt lat="49.3859214782714844" lon="0.4103014469146729"><ele></ele><time>2016-10-9T9:35:54Z</time></trkpt>
<trkpt lat="49.3860893249511719" lon="0.4103274345397949"><ele></ele><time>2016-10-9T9:35:57Z</time></trkpt>
<trkpt lat="49.3862304687500000" lon="0.4103409349918365"><ele></ele><time>2016-10-9T9:36:0Z</time></trkpt>
<trkpt lat="49.3864440917968750" lon="0.4103092551231384"><ele></ele><time>2016-10-9T9:36:3Z</time></trkpt>
<trkpt lat="49.3866271972656250" lon="0.4102614820003510"><ele></ele><time>2016-10-9T9:36:6Z</time></trkpt>
<trkpt lat="49.3868026733398438" lon="0.4102757275104523"><ele></ele><time>2016-10-9T9:36:9Z</time></trkpt>
<trkpt lat="49.3869476318359375" lon="0.4102750420570374"><ele></ele><time>2016-10-9T9:36:12Z</time></trkpt>
<trkpt lat="49.3871269226074219" lon="0.4102755486965179"><ele></ele><time>2016-10-9T9:36:15Z</time></trkpt>
<trkpt lat="49.3873443603515625" lon="0.4102306365966797"><ele></ele><time>2016-10-9T9:36:18Z</time></trkpt>
<trkpt lat="49.3874931335449219" lon="0.4102388322353363"><ele></ele><time>2016-10-9T9:36:21Z</time></trkpt>
<trkpt lat="49.3877029418945312" lon="0.4101116061210632"><ele></ele><time>2016-10-9T9:36:24Z</time></trkpt>
<trkpt lat="49.3878326416015625" lon="0.4099937677383423"><ele></ele><time>2016-10-9T9:36:27Z</time></trkpt>
<trkpt lat="49.3880615234375000" lon="0.4098888039588928"><ele></ele><time>2016-10-9T9:36:30Z</time></trkpt>
<trkpt lat="49.3883094787597656" lon="0.4097169041633606"><ele></ele><time>2016-10-9T9:36:33Z</time></trkpt>
<trkpt lat="49.3884468078613281" lon="0.4096837043762207"><ele></ele><time>2016-10-9T9:36:36Z</time></trkpt>
<trkpt lat="49.3886032104492188" lon="0.4095444083213806"><ele></ele><time>2016-10-9T9:36:39Z</time></trkpt>
<trkpt lat="49.3888092041015625" lon="0.4093552231788635"><ele></ele><time>2016-10-9T9:36:42Z</time></trkpt>
<trkpt lat="49.3890495300292969" lon="0.4092442393302917"><ele></ele><time>2016-10-9T9:36:45Z</time></trkpt>
<trkpt lat="49.3891868591308594" lon="0.4091133177280426"><ele></ele><time>2016-10-9T9:36:48Z</time></trkpt>
<trkpt lat="49.3893394470214844" lon="0.4090175032615662"><ele></ele><time>2016-10-9T9:36:51Z</time></trkpt>
<trkpt lat="49.3895454406738281" lon="0.4089117348194122"><ele></ele><time>2016-10-9T9:36:54Z</time></trkpt>
<trkpt lat="49.3896789550781250" lon="0.4088784456253052"><ele></ele><time>2016-10-9T9:36:57Z</time></trkpt>
<trkpt lat="49.3897972106933594" lon="0.4088160097599030"><ele></ele><time>2016-10-9T9:37:0Z</time></trkpt>
<trkpt lat="49.3899497985839844" lon="0.4086742699146271"><ele></ele><time>2016-10-9T9:37:3Z</time></trkpt>
<trkpt lat="49.3901977539062500" lon="0.4086642861366272"><ele></ele><time>2016-10-9T9:37:6Z</time></trkpt>
<trkpt lat="49.3903236389160156" lon="0.4086579382419586"><ele></ele><time>2016-10-9T9:37:9Z</time></trkpt>
<trkpt lat="49.3904914855957031" lon="0.4087356328964233"><ele></ele><time>2016-10-9T9:37:12Z</time></trkpt>
<trkpt lat="49.3906288146972656" lon="0.4088059663772583"><ele></ele><time>2016-10-9T9:37:15Z</time></trkpt>
<trkpt lat="49.3908119201660156" lon="0.4089481830596924"><ele></ele><time>2016-10-9T9:37:18Z</time></trkpt>
<trkpt lat="49.3909454345703125" lon="0.4090354442596436"><ele></ele><time>2016-10-9T9:37:21Z</time></trkpt>
<trkpt lat="49.3910903930664062" lon="0.4091982245445251"><ele></ele><time>2016-10-9T9:37:24Z</time></trkpt>
<trkpt lat="49.3913192749023438" lon="0.4094066917896271"><ele></ele><time>2016-10-9T9:37:27Z</time></trkpt>
<trkpt lat="49.3914489746093750" lon="0.4095197618007660"><ele></ele><time>2016-10-9T9:37:30Z</time></trkpt>
<trkpt lat="49.3916435241699219" lon="0.4097581505775452"><ele></ele><time>2016-10-9T9:37:33Z</time></trkpt>
<trkpt lat="49.3917503356933594" lon="0.4099054038524628"><ele></ele><time>2016-10-9T9:37:36Z</time></trkpt>
<trkpt lat="49.3918609619140625" lon="0.4100493192672729"><ele></ele><time>2016-10-9T9:37:39Z</time></trkpt>
<trkpt lat="49.3920249938964844" lon="0.4102665781974792"><ele></ele><time>2016-10-9T9:37:42Z</time></trkpt>
<trkpt lat="49.3922042846679688" lon="0.4104860126972198"><ele></ele><time>2016-10-9T9:37:45Z</time></trkpt>
<trkpt lat="49.3923301696777344" lon="0.4108093976974487"><ele></ele><time>2016-10-9T9:37:48Z</time></trkpt>
<trkpt lat="49.3924713134765625" lon="0.4110955595970154"><ele></ele><time>2016-10-9T9:37:51Z</time></trkpt>
<trkpt lat="49.3925704956054688" lon="0.4112949669361115"><ele></ele><time>2016-10-9T9:37:54Z</time></trkpt>
<trkpt lat="49.3926887512207031" lon="0.4116428196430206"><ele></ele><time>2016-10-9T9:37:57Z</time></trkpt>
<trkpt lat="49.3927726745605469" lon="0.4118569791316986"><ele></ele><time>2016-10-9T9:38:0Z</time></trkpt>
<trkpt lat="49.3928642272949219" lon="0.4120508432388306"><ele></ele><time>2016-10-9T9:38:3Z</time></trkpt>
<trkpt lat="49.3930091857910156" lon="0.4124035537242889"><ele></ele><time>2016-10-9T9:38:6Z</time></trkpt>
<trkpt lat="49.3930816650390625" lon="0.4126493036746979"><ele></ele><time>2016-10-9T9:38:9Z</time></trkpt>
<trkpt lat="49.3932228088378906" lon="0.4129653871059418"><ele></ele><time>2016-10-9T9:38:12Z</time></trkpt>
<trkpt lat="49.3933448791503906" lon="0.4132761061191559"><ele></ele><time>2016-10-9T9:38:15Z</time></trkpt>
<trkpt lat="49.3934822082519531" lon="0.4136656224727631"><ele></ele><time>2016-10-9T9:38:18Z</time></trkpt>
<trkpt lat="49.3936424255371094" lon="0.4139713048934937"><ele></ele><time>2016-10-9T9:38:21Z</time></trkpt>
<trkpt lat="49.3937683105468750" lon="0.4141277074813843"><ele></ele><time>2016-10-9T9:38:24Z</time></trkpt>
<trkpt lat="49.3939628601074219" lon="0.4143548607826233"><ele></ele><time>2016-10-9T9:38:27Z</time></trkpt>
<trkpt lat="49.3941574096679688" lon="0.4146052300930023"><ele></ele><time>2016-10-9T9:38:30Z</time></trkpt>
<trkpt lat="49.3942985534667969" lon="0.4147873520851135"><ele></ele><time>2016-10-9T9:38:33Z</time></trkpt>
<trkpt lat="49.3944969177246094" lon="0.4150295257568359"><ele></ele><time>2016-10-9T9:38:36Z</time></trkpt>
<trkpt lat="49.3946342468261719" lon="0.4153077900409698"><ele></ele><time>2016-10-9T9:38:39Z</time></trkpt>
<trkpt lat="49.3948020935058594" lon="0.4155617654323578"><ele></ele><time>2016-10-9T9:38:42Z</time></trkpt>
<trkpt lat="49.3949012756347656" lon="0.4157361090183258"><ele></ele><time>2016-10-9T9:38:45Z</time></trkpt>
<trkpt lat="49.3950805664062500" lon="0.4159276485443115"><ele></ele><time>2016-10-9T9:38:48Z</time></trkpt>
<trkpt lat="49.3952445983886719" lon="0.4161508381366730"><ele></ele><time>2016-10-9T9:38:51Z</time></trkpt>
<trkpt lat="49.3953552246093750" lon="0.4163147211074829"><ele></ele><time>2016-10-9T9:38:54Z</time></trkpt>
<trkpt lat="49.3955345153808594" lon="0.4165516793727875"><ele></ele><time>2016-10-9T9:38:57Z</time></trkpt>
<trkpt lat="49.3956336975097656" lon="0.4166892170906067"><ele></ele><time>2016-10-9T9:39:0Z</time></trkpt>
<trkpt lat="49.3957481384277344" lon="0.4168273508548737"><ele></ele><time>2016-10-9T9:39:3Z</time></trkpt>
<trkpt lat="49.3959312438964844" lon="0.4170266687870026"><ele></ele><time>2016-10-9T9:39:6Z</time></trkpt>
<trkpt lat="49.3960456848144531" lon="0.4171938002109528"><ele></ele><time>2016-10-9T9:39:9Z</time></trkpt>
<trkpt lat="49.3962020874023438" lon="0.4174014329910278"><ele></ele><time>2016-10-9T9:39:12Z</time></trkpt>
<trkpt lat="49.3963851928710938" lon="0.4176139831542969"><ele></ele><time>2016-10-9T9:39:15Z</time></trkpt>
<trkpt lat="49.3965187072753906" lon="0.4177589118480682"><ele></ele><time>2016-10-9T9:39:18Z</time></trkpt>
<trkpt lat="49.3966369628906250" lon="0.4180052578449249"><ele></ele><time>2016-10-9T9:39:21Z</time></trkpt>
<trkpt lat="49.3967437744140625" lon="0.4181702136993408"><ele></ele><time>2016-10-9T9:39:24Z</time></trkpt>
<trkpt lat="49.3968429565429688" lon="0.4183338284492493"><ele></ele><time>2016-10-9T9:39:27Z</time></trkpt>
<trkpt lat="49.3969612121582031" lon="0.4185619950294495"><ele></ele><time>2016-10-9T9:39:30Z</time></trkpt>
<trkpt lat="49.3970832824707031" lon="0.4186726212501526"><ele></ele><time>2016-10-9T9:39:33Z</time></trkpt>
<trkpt lat="49.3972625732421875" lon="0.4188985228538513"><ele></ele><time>2016-10-9T9:39:36Z</time></trkpt>
<trkpt lat="49.3973731994628906" lon="0.4190683364868164"><ele></ele><time>2016-10-9T9:39:39Z</time></trkpt>
<trkpt lat="49.3975219726562500" lon="0.4193589389324188"><ele></ele><time>2016-10-9T9:39:42Z</time></trkpt>
<trkpt lat="49.3977165222167969" lon="0.4195537269115448"><ele></ele><time>2016-10-9T9:39:45Z</time></trkpt>
<trkpt lat="49.3978805541992188" lon="0.4197943806648254"><ele></ele><time>2016-10-9T9:39:48Z</time></trkpt>
<trkpt lat="49.3980560302734375" lon="0.4200108051300049"><ele></ele><time>2016-10-9T9:39:51Z</time></trkpt>
<trkpt lat="49.3982391357421875" lon="0.4202103018760681"><ele></ele><time>2016-10-9T9:39:54Z</time></trkpt>
<trkpt lat="49.3983802795410156" lon="0.4203832149505615"><ele></ele><time>2016-10-9T9:39:57Z</time></trkpt>
<trkpt lat="49.3985481262207031" lon="0.4205765724182129"><ele></ele><time>2016-10-9T9:40:0Z</time></trkpt>
<trkpt lat="49.3986473083496094" lon="0.4206953346729279"><ele></ele><time>2016-10-9T9:40:3Z</time></trkpt>
<trkpt lat="49.3988380432128906" lon="0.4209312200546265"><ele></ele><time>2016-10-9T9:40:6Z</time></trkpt>
<trkpt lat="49.3989486694335938" lon="0.4210959970951080"><ele></ele><time>2016-10-9T9:40:9Z</time></trkpt>
<trkpt lat="49.3991127014160156" lon="0.4213199615478516"><ele></ele><time>2016-10-9T9:40:12Z</time></trkpt>
<trkpt lat="49.3992118835449219" lon="0.4215003550052643"><ele></ele><time>2016-10-9T9:40:15Z</time></trkpt>
<trkpt lat="49.3993263244628906" lon="0.4217787981033325"><ele></ele><time>2016-10-9T9:40:18Z</time></trkpt>
<trkpt lat="49.3994598388671875" lon="0.4220203459262848"><ele></ele><time>2016-10-9T9:40:21Z</time></trkpt>
<trkpt lat="49.3995933532714844" lon="0.4221651852130890"><ele></ele><time>2016-10-9T9:40:24Z</time></trkpt>
<trkpt lat="49.3996887207031250" lon="0.4222830533981323"><ele></ele><time>2016-10-9T9:40:27Z</time></trkpt>
<trkpt lat="49.3998527526855469" lon="0.4225297272205353"><ele></ele><time>2016-10-9T9:40:30Z</time></trkpt>
<trkpt lat="49.3999252319335938" lon="0.4226539433002472"><ele></ele><time>2016-10-9T9:40:33Z</time></trkpt>
<trkpt lat="49.4000396728515625" lon="0.4227758944034576"><ele></ele><time>2016-10-9T9:40:36Z</time></trkpt>
<trkpt lat="49.4001274108886719" lon="0.4228314757347107"><ele></ele><time>2016-10-9T9:40:39Z</time></trkpt>
<trkpt lat="49.4002456665039062" lon="0.4228660166263580"><ele></ele><time>2016-10-9T9:40:42Z</time></trkpt>
<trkpt lat="49.4003028869628906" lon="0.4230706989765167"><ele></ele><time>2016-10-9T9:40:45Z</time></trkpt>
<trkpt lat="49.4003868103027344" lon="0.4232920706272125"><ele></ele><time>2016-10-9T9:40:48Z</time></trkpt>
<trkpt lat="49.4004783630371094" lon="0.4235183000564575"><ele></ele><time>2016-10-9T9:40:51Z</time></trkpt>
<trkpt lat="49.4005699157714844" lon="0.4237614572048187"><ele></ele><time>2016-10-9T9:40:54Z</time></trkpt>
<trkpt lat="49.4005737304687500" lon="0.4240839779376984"><ele></ele><time>2016-10-9T9:40:57Z</time></trkpt>
<trkpt lat="49.4004554748535156" lon="0.4241819679737091"><ele></ele><time>2016-10-9T9:41:0Z</time></trkpt>
<trkpt lat="49.4003524780273438" lon="0.4242944419384003"><ele></ele><time>2016-10-9T9:41:3Z</time></trkpt>
<trkpt lat="49.4002456665039062" lon="0.4244077801704407"><ele></ele><time>2016-10-9T9:41:6Z</time></trkpt>
<trkpt lat="49.4000587463378906" lon="0.4245522022247314"><ele></ele><time>2016-10-9T9:41:9Z</time></trkpt>
<trkpt lat="49.3998908996582031" lon="0.4246796965599060"><ele></ele><time>2016-10-9T9:41:12Z</time></trkpt>
<trkpt lat="49.3997917175292969" lon="0.4248006343841553"><ele></ele><time>2016-10-9T9:41:15Z</time></trkpt>
<trkpt lat="49.3997001647949219" lon="0.4248925149440765"><ele></ele><time>2016-10-9T9:41:18Z</time></trkpt>
<trkpt lat="49.3995971679687500" lon="0.4250435531139374"><ele></ele><time>2016-10-9T9:41:21Z</time></trkpt>
<trkpt lat="49.3995170593261719" lon="0.4252264499664307"><ele></ele><time>2016-10-9T9:41:24Z</time></trkpt>
<trkpt lat="49.3995246887207031" lon="0.4253994524478912"><ele></ele><time>2016-10-9T9:41:27Z</time></trkpt>
<trkpt lat="49.3996505737304688" lon="0.4254705905914307"><ele></ele><time>2016-10-9T9:41:30Z</time></trkpt>
<trkpt lat="49.3998222351074219" lon="0.4255793988704681"><ele></ele><time>2016-10-9T9:41:33Z</time></trkpt>
<trkpt lat="49.4000205993652344" lon="0.4256975054740906"><ele></ele><time>2016-10-9T9:41:36Z</time></trkpt>
<trkpt lat="49.4001884460449219" lon="0.4258248209953308"><ele></ele><time>2016-10-9T9:41:39Z</time></trkpt>
<trkpt lat="49.4003601074218750" lon="0.4259593486785889"><ele></ele><time>2016-10-9T9:41:42Z</time></trkpt>
<trkpt lat="49.4004783630371094" lon="0.4260308444499969"><ele></ele><time>2016-10-9T9:41:45Z</time></trkpt>
<trkpt lat="49.4006500244140625" lon="0.4261758625507355"><ele></ele><time>2016-10-9T9:41:48Z</time></trkpt>
<trkpt lat="49.4007720947265625" lon="0.4262430071830750"><ele></ele><time>2016-10-9T9:41:51Z</time></trkpt>
<trkpt lat="49.4009475708007812" lon="0.4263356924057007"><ele></ele><time>2016-10-9T9:41:54Z</time></trkpt>
<trkpt lat="49.4010581970214844" lon="0.4264361858367920"><ele></ele><time>2016-10-9T9:41:57Z</time></trkpt>
<trkpt lat="49.4012145996093750" lon="0.4265755116939545"><ele></ele><time>2016-10-9T9:42:0Z</time></trkpt>
<trkpt lat="49.4013099670410156" lon="0.4266990423202515"><ele></ele><time>2016-10-9T9:42:3Z</time></trkpt>
<trkpt lat="49.4014244079589844" lon="0.4269212484359741"><ele></ele><time>2016-10-9T9:42:6Z</time></trkpt>
<trkpt lat="49.4014816284179688" lon="0.4271023869514465"><ele></ele><time>2016-10-9T9:42:9Z</time></trkpt>
<trkpt lat="49.4015197753906250" lon="0.4272773265838623"><ele></ele><time>2016-10-9T9:42:12Z</time></trkpt>
<trkpt lat="49.4015541076660156" lon="0.4274422824382782"><ele></ele><time>2016-10-9T9:42:15Z</time></trkpt>
<trkpt lat="49.4015922546386719" lon="0.4276331365108490"><ele></ele><time>2016-10-9T9:42:18Z</time></trkpt>
<trkpt lat="49.4016532897949219" lon="0.4279218912124634"><ele></ele><time>2016-10-9T9:42:21Z</time></trkpt>
<trkpt lat="49.4016647338867188" lon="0.4281029403209686"><ele></ele><time>2016-10-9T9:42:24Z</time></trkpt>
<trkpt lat="49.4017028808593750" lon="0.4283994138240814"><ele></ele><time>2016-10-9T9:42:27Z</time></trkpt>
<trkpt lat="49.4017524719238281" lon="0.4286583364009857"><ele></ele><time>2016-10-9T9:42:30Z</time></trkpt>
<trkpt lat="49.4018096923828125" lon="0.4289268851280212"><ele></ele><time>2016-10-9T9:42:33Z</time></trkpt>
<trkpt lat="49.4018707275390625" lon="0.4291674494743347"><ele></ele><time>2016-10-9T9:42:36Z</time></trkpt>
<trkpt lat="49.4019203186035156" lon="0.4293987751007080"><ele></ele><time>2016-10-9T9:42:39Z</time></trkpt>
<trkpt lat="49.4019432067871094" lon="0.4295749664306641"><ele></ele><time>2016-10-9T9:42:42Z</time></trkpt>
<trkpt lat="49.4019851684570312" lon="0.4298219978809357"><ele></ele><time>2016-10-9T9:42:45Z</time></trkpt>
<trkpt lat="49.4020156860351562" lon="0.4299907088279724"><ele></ele><time>2016-10-9T9:42:48Z</time></trkpt>
<trkpt lat="49.4020500183105469" lon="0.4301485419273376"><ele></ele><time>2016-10-9T9:42:51Z</time></trkpt>
<trkpt lat="49.4021072387695312" lon="0.4303951263427734"><ele></ele><time>2016-10-9T9:42:54Z</time></trkpt>
<trkpt lat="49.4021492004394531" lon="0.4306149184703827"><ele></ele><time>2016-10-9T9:42:57Z</time></trkpt>
<trkpt lat="49.4022026062011719" lon="0.4308196008205414"><ele></ele><time>2016-10-9T9:43:0Z</time></trkpt>
<trkpt lat="49.4022407531738281" lon="0.4309435784816742"><ele></ele><time>2016-10-9T9:43:3Z</time></trkpt>
<trkpt lat="49.4023170471191406" lon="0.4311091899871826"><ele></ele><time>2016-10-9T9:43:6Z</time></trkpt>
<trkpt lat="49.4023933410644531" lon="0.4311819374561310"><ele></ele><time>2016-10-9T9:43:9Z</time></trkpt>
<trkpt lat="49.4024925231933594" lon="0.4313065111637115"><ele></ele><time>2016-10-9T9:43:12Z</time></trkpt>
<trkpt lat="49.4025917053222656" lon="0.4314098656177521"><ele></ele><time>2016-10-9T9:43:15Z</time></trkpt>
<trkpt lat="49.4027137756347656" lon="0.4315261840820312"><ele></ele><time>2016-10-9T9:43:18Z</time></trkpt>
<trkpt lat="49.4027938842773438" lon="0.4316551089286804"><ele></ele><time>2016-10-9T9:43:21Z</time></trkpt>
<trkpt lat="49.4028854370117188" lon="0.4318448007106781"><ele></ele><time>2016-10-9T9:43:24Z</time></trkpt>
<trkpt lat="49.4029464721679688" lon="0.4319861829280853"><ele></ele><time>2016-10-9T9:43:27Z</time></trkpt>
<trkpt lat="49.4030342102050781" lon="0.4322156012058258"><ele></ele><time>2016-10-9T9:43:30Z</time></trkpt>
<trkpt lat="49.4031372070312500" lon="0.4324975609779358"><ele></ele><time>2016-10-9T9:43:33Z</time></trkpt>
<trkpt lat="49.4032135009765625" lon="0.4326588511466980"><ele></ele><time>2016-10-9T9:43:36Z</time></trkpt>
<trkpt lat="49.4032974243164062" lon="0.4329063594341278"><ele></ele><time>2016-10-9T9:43:39Z</time></trkpt>
<trkpt lat="49.4033966064453125" lon="0.4331627488136292"><ele></ele><time>2016-10-9T9:43:42Z</time></trkpt>
<trkpt lat="49.4034500122070312" lon="0.4333392083644867"><ele></ele><time>2016-10-9T9:43:45Z</time></trkpt>
<trkpt lat="49.4035453796386719" lon="0.4335731267929077"><ele></ele><time>2016-10-9T9:43:48Z</time></trkpt>
<trkpt lat="49.4036293029785156" lon="0.4338069856166840"><ele></ele><time>2016-10-9T9:43:51Z</time></trkpt>
<trkpt lat="49.4037132263183594" lon="0.4340451955795288"><ele></ele><time>2016-10-9T9:43:54Z</time></trkpt>
<trkpt lat="49.4037590026855469" lon="0.4342122673988342"><ele></ele><time>2016-10-9T9:43:57Z</time></trkpt>
<trkpt lat="49.4038162231445312" lon="0.4343857765197754"><ele></ele><time>2016-10-9T9:44:0Z</time></trkpt>
<trkpt lat="49.4039115905761719" lon="0.4346310198307037"><ele></ele><time>2016-10-9T9:44:3Z</time></trkpt>
<trkpt lat="49.4039802551269531" lon="0.4347851574420929"><ele></ele><time>2016-10-9T9:44:6Z</time></trkpt>
<trkpt lat="49.4040641784667969" lon="0.4350233674049377"><ele></ele><time>2016-10-9T9:44:9Z</time></trkpt>
<trkpt lat="49.4041633605957031" lon="0.4352635145187378"><ele></ele><time>2016-10-9T9:44:12Z</time></trkpt>
<trkpt lat="49.4042472839355469" lon="0.4354982078075409"><ele></ele><time>2016-10-9T9:44:15Z</time></trkpt>
<trkpt lat="49.4043388366699219" lon="0.4357205927371979"><ele></ele><time>2016-10-9T9:44:18Z</time></trkpt>
<trkpt lat="49.4044380187988281" lon="0.4359719455242157"><ele></ele><time>2016-10-9T9:44:21Z</time></trkpt>
<trkpt lat="49.4045257568359375" lon="0.4362121820449829"><ele></ele><time>2016-10-9T9:44:24Z</time></trkpt>
<trkpt lat="49.4045829772949219" lon="0.4363794922828674"><ele></ele><time>2016-10-9T9:44:27Z</time></trkpt>
<trkpt lat="49.4046516418457031" lon="0.4365364015102386"><ele></ele><time>2016-10-9T9:44:30Z</time></trkpt>
<trkpt lat="49.4047470092773438" lon="0.4367701709270477"><ele></ele><time>2016-10-9T9:44:33Z</time></trkpt>
<trkpt lat="49.4048194885253906" lon="0.4370050132274628"><ele></ele><time>2016-10-9T9:44:36Z</time></trkpt>
<trkpt lat="49.4048728942871094" lon="0.4371728301048279"><ele></ele><time>2016-10-9T9:44:39Z</time></trkpt>
<trkpt lat="49.4049568176269531" lon="0.4374032616615295"><ele></ele><time>2016-10-9T9:44:42Z</time></trkpt>
<trkpt lat="49.4050254821777344" lon="0.4375381171703339"><ele></ele><time>2016-10-9T9:44:45Z</time></trkpt>
<trkpt lat="49.4051055908203125" lon="0.4377599060535431"><ele></ele><time>2016-10-9T9:44:48Z</time></trkpt>
<trkpt lat="49.4051895141601562" lon="0.4379954338073730"><ele></ele><time>2016-10-9T9:44:51Z</time></trkpt>
<trkpt lat="49.4052467346191406" lon="0.4382238388061523"><ele></ele><time>2016-10-9T9:44:54Z</time></trkpt>
<trkpt lat="49.4053001403808594" lon="0.4383773803710938"><ele></ele><time>2016-10-9T9:44:57Z</time></trkpt>
<trkpt lat="49.4053802490234375" lon="0.4386084675788879"><ele></ele><time>2016-10-9T9:45:0Z</time></trkpt>
<trkpt lat="49.4054679870605469" lon="0.4388003349304199"><ele></ele><time>2016-10-9T9:45:3Z</time></trkpt>
<trkpt lat="49.4055442810058594" lon="0.4390125870704651"><ele></ele><time>2016-10-9T9:45:6Z</time></trkpt>
<trkpt lat="49.4055862426757812" lon="0.4391503632068634"><ele></ele><time>2016-10-9T9:45:9Z</time></trkpt>
<trkpt lat="49.4056396484375000" lon="0.4392909407615662"><ele></ele><time>2016-10-9T9:45:12Z</time></trkpt>
<trkpt lat="49.4057235717773438" lon="0.4395051896572113"><ele></ele><time>2016-10-9T9:45:15Z</time></trkpt>
<trkpt lat="49.4058074951171875" lon="0.4397425651550293"><ele></ele><time>2016-10-9T9:45:18Z</time></trkpt>
<trkpt lat="49.4058456420898438" lon="0.4399023950099945"><ele></ele><time>2016-10-9T9:45:21Z</time></trkpt>
<trkpt lat="49.4058723449707031" lon="0.4401147067546844"><ele></ele><time>2016-10-9T9:45:24Z</time></trkpt>
<trkpt lat="49.4058685302734375" lon="0.4402702748775482"><ele></ele><time>2016-10-9T9:45:27Z</time></trkpt>
<trkpt lat="49.4058609008789062" lon="0.4404195547103882"><ele></ele><time>2016-10-9T9:45:30Z</time></trkpt>
<trkpt lat="49.4058265686035156" lon="0.4405393302440643"><ele></ele><time>2016-10-9T9:45:33Z</time></trkpt>
<trkpt lat="49.4058189392089844" lon="0.4406300187110901"><ele></ele><time>2016-10-9T9:45:36Z</time></trkpt>
<trkpt lat="49.4058036804199219" lon="0.4407755434513092"><ele></ele><time>2016-10-9T9:45:39Z</time></trkpt>
<trkpt lat="49.4057579040527344" lon="0.4409240782260895"><ele></ele><time>2016-10-9T9:45:42Z</time></trkpt>
<trkpt lat="49.4057044982910156" lon="0.4410567581653595"><ele></ele><time>2016-10-9T9:45:45Z</time></trkpt>
<trkpt lat="49.4056701660156250" lon="0.4411312639713287"><ele></ele><time>2016-10-9T9:45:48Z</time></trkpt>
<trkpt lat="49.4056205749511719" lon="0.4412411451339722"><ele></ele><time>2016-10-9T9:45:51Z</time></trkpt>
<trkpt lat="49.4055862426757812" lon="0.4413144886493683"><ele></ele><time>2016-10-9T9:45:54Z</time></trkpt>
<trkpt lat="49.4055519104003906" lon="0.4413822293281555"><ele></ele><time>2016-10-9T9:45:57Z</time></trkpt>
<trkpt lat="49.4055023193359375" lon="0.4414875805377960"><ele></ele><time>2016-10-9T9:46:0Z</time></trkpt>
<trkpt lat="49.4054641723632812" lon="0.4416057765483856"><ele></ele><time>2016-10-9T9:46:3Z</time></trkpt>
<trkpt lat="49.4054450988769531" lon="0.4416829645633698"><ele></ele><time>2016-10-9T9:46:6Z</time></trkpt>
<trkpt lat="49.4054298400878906" lon="0.4417432248592377"><ele></ele><time>2016-10-9T9:46:9Z</time></trkpt>
<trkpt lat="49.4053993225097656" lon="0.4418334960937500"><ele></ele><time>2016-10-9T9:46:12Z</time></trkpt>
<trkpt lat="49.4053535461425781" lon="0.4419371783733368"><ele></ele><time>2016-10-9T9:46:15Z</time></trkpt>
<trkpt lat="49.4053001403808594" lon="0.4420353472232819"><ele></ele><time>2016-10-9T9:46:18Z</time></trkpt>
<trkpt lat="49.4052543640136719" lon="0.4421448111534119"><ele></ele><time>2016-10-9T9:46:21Z</time></trkpt>
<trkpt lat="49.4052200317382812" lon="0.4422018826007843"><ele></ele><time>2016-10-9T9:46:24Z</time></trkpt>
<trkpt lat="49.4051780700683594" lon="0.4422672688961029"><ele></ele><time>2016-10-9T9:46:27Z</time></trkpt>
<trkpt lat="49.4051551818847656" lon="0.4423082470893860"><ele></ele><time>2016-10-9T9:46:30Z</time></trkpt>
<trkpt lat="49.4051284790039062" lon="0.4423653483390808"><ele></ele><time>2016-10-9T9:46:33Z</time></trkpt>
<trkpt lat="49.4050788879394531" lon="0.4424673318862915"><ele></ele><time>2016-10-9T9:46:36Z</time></trkpt>
<trkpt lat="49.4050369262695312" lon="0.4425400197505951"><ele></ele><time>2016-10-9T9:46:39Z</time></trkpt>
<trkpt lat="49.4049758911132812" lon="0.4426327943801880"><ele></ele><time>2016-10-9T9:46:42Z</time></trkpt>
<trkpt lat="49.4049301147460938" lon="0.4427205622196198"><ele></ele><time>2016-10-9T9:46:45Z</time></trkpt>
<trkpt lat="49.4048995971679688" lon="0.4427749514579773"><ele></ele><time>2016-10-9T9:46:48Z</time></trkpt>
<trkpt lat="49.4048423767089844" lon="0.4428530037403107"><ele></ele><time>2016-10-9T9:46:51Z</time></trkpt>
<trkpt lat="49.4047737121582031" lon="0.4429135918617249"><ele></ele><time>2016-10-9T9:46:54Z</time></trkpt>
<trkpt lat="49.4047203063964844" lon="0.4429554343223572"><ele></ele><time>2016-10-9T9:46:57Z</time></trkpt>
<trkpt lat="49.4046745300292969" lon="0.4429979026317596"><ele></ele><time>2016-10-9T9:47:0Z</time></trkpt>
<trkpt lat="49.4046211242675781" lon="0.4430721104145050"><ele></ele><time>2016-10-9T9:47:3Z</time></trkpt>
<trkpt lat="49.4045524597167969" lon="0.4431918859481812"><ele></ele><time>2016-10-9T9:47:6Z</time></trkpt>
<trkpt lat="49.4044876098632812" lon="0.4432903528213501"><ele></ele><time>2016-10-9T9:47:9Z</time></trkpt>
<trkpt lat="49.4044609069824219" lon="0.4433870017528534"><ele></ele><time>2016-10-9T9:47:12Z</time></trkpt>
<trkpt lat="49.4044303894042969" lon="0.4434588253498077"><ele></ele><time>2016-10-9T9:47:15Z</time></trkpt>
<trkpt lat="49.4043769836425781" lon="0.4435304105281830"><ele></ele><time>2016-10-9T9:47:18Z</time></trkpt>
<trkpt lat="49.4043388366699219" lon="0.4435744285583496"><ele></ele><time>2016-10-9T9:47:21Z</time></trkpt>
<trkpt lat="49.4042663574218750" lon="0.4436616003513336"><ele></ele><time>2016-10-9T9:47:24Z</time></trkpt>
<trkpt lat="49.4042282104492188" lon="0.4437148272991180"><ele></ele><time>2016-10-9T9:47:27Z</time></trkpt>
<trkpt lat="49.4041976928710938" lon="0.4437686204910278"><ele></ele><time>2016-10-9T9:47:30Z</time></trkpt>
<trkpt lat="49.4041442871093750" lon="0.4438452422618866"><ele></ele><time>2016-10-9T9:47:33Z</time></trkpt>
<trkpt lat="49.4040985107421875" lon="0.4439086019992828"><ele></ele><time>2016-10-9T9:47:36Z</time></trkpt>
<trkpt lat="49.4040565490722656" lon="0.4439742267131805"><ele></ele><time>2016-10-9T9:47:39Z</time></trkpt>
<trkpt lat="49.4039993286132812" lon="0.4440715610980988"><ele></ele><time>2016-10-9T9:47:42Z</time></trkpt>
<trkpt lat="49.4039535522460938" lon="0.4441343247890472"><ele></ele><time>2016-10-9T9:47:45Z</time></trkpt>
<trkpt lat="49.4038925170898438" lon="0.4442272782325745"><ele></ele><time>2016-10-9T9:47:48Z</time></trkpt>
<trkpt lat="49.4038505554199219" lon="0.4443277120590210"><ele></ele><time>2016-10-9T9:47:51Z</time></trkpt>
<trkpt lat="49.4038238525390625" lon="0.4443875551223755"><ele></ele><time>2016-10-9T9:47:54Z</time></trkpt>
<trkpt lat="49.4037666320800781" lon="0.4444918334484100"><ele></ele><time>2016-10-9T9:47:57Z</time></trkpt>
<trkpt lat="49.4037322998046875" lon="0.4445583820343018"><ele></ele><time>2016-10-9T9:48:0Z</time></trkpt>
<trkpt lat="49.4036712646484375" lon="0.4447023868560791"><ele></ele><time>2016-10-9T9:48:3Z</time></trkpt>
<trkpt lat="49.4036521911621094" lon="0.4448045492172241"><ele></ele><time>2016-10-9T9:48:6Z</time></trkpt>
<trkpt lat="49.4036331176757812" lon="0.4449488818645477"><ele></ele><time>2016-10-9T9:48:9Z</time></trkpt>
<trkpt lat="49.4036254882812500" lon="0.4450687468051910"><ele></ele><time>2016-10-9T9:48:12Z</time></trkpt>
<trkpt lat="49.4036293029785156" lon="0.4451962411403656"><ele></ele><time>2016-10-9T9:48:15Z</time></trkpt>
<trkpt lat="49.4036331176757812" lon="0.4453097283840179"><ele></ele><time>2016-10-9T9:48:18Z</time></trkpt>
<trkpt lat="49.4036407470703125" lon="0.4453765451908112"><ele></ele><time>2016-10-9T9:48:21Z</time></trkpt>
<trkpt lat="49.4036560058593750" lon="0.4454887807369232"><ele></ele><time>2016-10-9T9:48:24Z</time></trkpt>
<trkpt lat="49.4036407470703125" lon="0.4456197619438171"><ele></ele><time>2016-10-9T9:48:27Z</time></trkpt>
<trkpt lat="49.4036483764648438" lon="0.4457082748413086"><ele></ele><time>2016-10-9T9:48:30Z</time></trkpt>
<trkpt lat="49.4036636352539062" lon="0.4457787871360779"><ele></ele><time>2016-10-9T9:48:33Z</time></trkpt>
<trkpt lat="49.4036979675292969" lon="0.4458799362182617"><ele></ele><time>2016-10-9T9:48:36Z</time></trkpt>
<trkpt lat="49.4037284851074219" lon="0.4459875822067261"><ele></ele><time>2016-10-9T9:48:39Z</time></trkpt>
<trkpt lat="49.4037513732910156" lon="0.4460656046867371"><ele></ele><time>2016-10-9T9:48:42Z</time></trkpt>
<trkpt lat="49.4037818908691406" lon="0.4461813569068909"><ele></ele><time>2016-10-9T9:48:45Z</time></trkpt>
<trkpt lat="49.4038162231445312" lon="0.4462889730930328"><ele></ele><time>2016-10-9T9:48:48Z</time></trkpt>
<trkpt lat="49.4038276672363281" lon="0.4464238584041595"><ele></ele><time>2016-10-9T9:48:51Z</time></trkpt>
<trkpt lat="49.4038124084472656" lon="0.4465262889862061"><ele></ele><time>2016-10-9T9:48:54Z</time></trkpt>
<trkpt lat="49.4037857055664062" lon="0.4466157257556915"><ele></ele><time>2016-10-9T9:48:57Z</time></trkpt>
<trkpt lat="49.4036788940429688" lon="0.4466951787471771"><ele></ele><time>2016-10-9T9:49:0Z</time></trkpt>
<trkpt lat="49.4035644531250000" lon="0.4467347264289856"><ele></ele><time>2016-10-9T9:49:3Z</time></trkpt>
<trkpt lat="49.4034843444824219" lon="0.4467357397079468"><ele></ele><time>2016-10-9T9:49:6Z</time></trkpt>
<trkpt lat="49.4033699035644531" lon="0.4467216730117798"><ele></ele><time>2016-10-9T9:49:9Z</time></trkpt>
<trkpt lat="49.4032783508300781" lon="0.4467015564441681"><ele></ele><time>2016-10-9T9:49:12Z</time></trkpt>
<trkpt lat="49.4032058715820312" lon="0.4466491639614105"><ele></ele><time>2016-10-9T9:49:15Z</time></trkpt>
<trkpt lat="49.4031410217285156" lon="0.4466033875942230"><ele></ele><time>2016-10-9T9:49:18Z</time></trkpt>
<trkpt lat="49.4030570983886719" lon="0.4465878009796143"><ele></ele><time>2016-10-9T9:49:21Z</time></trkpt>
<trkpt lat="49.4029769897460938" lon="0.4466254413127899"><ele></ele><time>2016-10-9T9:49:24Z</time></trkpt>
<trkpt lat="49.4029159545898438" lon="0.4466779828071594"><ele></ele><time>2016-10-9T9:49:27Z</time></trkpt>
<trkpt lat="49.4028930664062500" lon="0.4467137753963470"><ele></ele><time>2016-10-9T9:49:30Z</time></trkpt>
<trkpt lat="49.4028739929199219" lon="0.4467541873455048"><ele></ele><time>2016-10-9T9:49:33Z</time></trkpt>
<trkpt lat="49.4028282165527344" lon="0.4468282759189606"><ele></ele><time>2016-10-9T9:49:36Z</time></trkpt>
<trkpt lat="49.4027442932128906" lon="0.4469282627105713"><ele></ele><time>2016-10-9T9:49:39Z</time></trkpt>
<trkpt lat="49.4026756286621094" lon="0.4469877779483795"><ele></ele><time>2016-10-9T9:49:42Z</time></trkpt>
<trkpt lat="49.4026145935058594" lon="0.4470505714416504"><ele></ele><time>2016-10-9T9:49:45Z</time></trkpt>
<trkpt lat="49.4025573730468750" lon="0.4471473693847656"><ele></ele><time>2016-10-9T9:49:48Z</time></trkpt>
<trkpt lat="49.4025230407714844" lon="0.4472097456455231"><ele></ele><time>2016-10-9T9:49:51Z</time></trkpt>
<trkpt lat="49.4024887084960938" lon="0.4472745358943939"><ele></ele><time>2016-10-9T9:49:54Z</time></trkpt>
<trkpt lat="49.4024505615234375" lon="0.4473411738872528"><ele></ele><time>2016-10-9T9:49:57Z</time></trkpt>
<trkpt lat="49.4023895263671875" lon="0.4474402368068695"><ele></ele><time>2016-10-9T9:50:0Z</time></trkpt>
<trkpt lat="49.4023170471191406" lon="0.4475527405738831"><ele></ele><time>2016-10-9T9:50:3Z</time></trkpt>
<trkpt lat="49.4022712707519531" lon="0.4476069509983063"><ele></ele><time>2016-10-9T9:50:6Z</time></trkpt>
<trkpt lat="49.4021987915039062" lon="0.4476856589317322"><ele></ele><time>2016-10-9T9:50:9Z</time></trkpt>
<trkpt lat="49.4021415710449219" lon="0.4477923512458801"><ele></ele><time>2016-10-9T9:50:12Z</time></trkpt>
<trkpt lat="49.4021034240722656" lon="0.4478512108325958"><ele></ele><time>2016-10-9T9:50:15Z</time></trkpt>
<trkpt lat="49.4020576477050781" lon="0.4479280710220337"><ele></ele><time>2016-10-9T9:50:18Z</time></trkpt>
<trkpt lat="49.4020462036132812" lon="0.4479765892028809"><ele></ele><time>2016-10-9T9:50:21Z</time></trkpt>
<trkpt lat="49.4020309448242188" lon="0.4480423927307129"><ele></ele><time>2016-10-9T9:50:24Z</time></trkpt>
<trkpt lat="49.4020118713378906" lon="0.4481018185615540"><ele></ele><time>2016-10-9T9:50:27Z</time></trkpt>
<trkpt lat="49.4019966125488281" lon="0.4481486678123474"><ele></ele><time>2016-10-9T9:50:30Z</time></trkpt>
<trkpt lat="49.4019737243652344" lon="0.4482316672801971"><ele></ele><time>2016-10-9T9:50:33Z</time></trkpt>
<trkpt lat="49.4019126892089844" lon="0.4483296573162079"><ele></ele><time>2016-10-9T9:50:36Z</time></trkpt>
<trkpt lat="49.4018630981445312" lon="0.4484038352966309"><ele></ele><time>2016-10-9T9:50:39Z</time></trkpt>
<trkpt lat="49.4018211364746094" lon="0.4484726488590240"><ele></ele><time>2016-10-9T9:50:42Z</time></trkpt>
<trkpt lat="49.4017906188964844" lon="0.4485249519348145"><ele></ele><time>2016-10-9T9:50:45Z</time></trkpt>
<trkpt lat="49.4017639160156250" lon="0.4485733807086945"><ele></ele><time>2016-10-9T9:50:48Z</time></trkpt>
<trkpt lat="49.4017105102539062" lon="0.4486556053161621"><ele></ele><time>2016-10-9T9:50:51Z</time></trkpt>
<trkpt lat="49.4016609191894531" lon="0.4487066566944122"><ele></ele><time>2016-10-9T9:50:54Z</time></trkpt>
<trkpt lat="49.4016113281250000" lon="0.4487603008747101"><ele></ele><time>2016-10-9T9:50:57Z</time></trkpt>
<trkpt lat="49.4015350341796875" lon="0.4488389194011688"><ele></ele><time>2016-10-9T9:51:0Z</time></trkpt>
<trkpt lat="49.4014739990234375" lon="0.4489091634750366"><ele></ele><time>2016-10-9T9:51:3Z</time></trkpt>
<trkpt lat="49.4014091491699219" lon="0.4489974379539490"><ele></ele><time>2016-10-9T9:51:6Z</time></trkpt>
<trkpt lat="49.4013481140136719" lon="0.4490729570388794"><ele></ele><time>2016-10-9T9:51:9Z</time></trkpt>
<trkpt lat="49.4013061523437500" lon="0.4491246640682220"><ele></ele><time>2016-10-9T9:51:12Z</time></trkpt>
<trkpt lat="49.4012489318847656" lon="0.4491964280605316"><ele></ele><time>2016-10-9T9:51:15Z</time></trkpt>
<trkpt lat="49.4011726379394531" lon="0.4492926299571991"><ele></ele><time>2016-10-9T9:51:18Z</time></trkpt>
<trkpt lat="49.4011039733886719" lon="0.4493626356124878"><ele></ele><time>2016-10-9T9:51:21Z</time></trkpt>
<trkpt lat="49.4010505676269531" lon="0.4494088888168335"><ele></ele><time>2016-10-9T9:51:24Z</time></trkpt>
<trkpt lat="49.4009933471679688" lon="0.4494716823101044"><ele></ele><time>2016-10-9T9:51:27Z</time></trkpt>
<trkpt lat="49.4009590148925781" lon="0.4495093226432800"><ele></ele><time>2016-10-9T9:51:30Z</time></trkpt>
<trkpt lat="49.4008865356445312" lon="0.4495463669300079"><ele></ele><time>2016-10-9T9:51:33Z</time></trkpt>
<trkpt lat="49.4008445739746094" lon="0.4495760202407837"><ele></ele><time>2016-10-9T9:51:36Z</time></trkpt>
<trkpt lat="49.4008102416992188" lon="0.4496103227138519"><ele></ele><time>2016-10-9T9:51:39Z</time></trkpt>
<trkpt lat="49.4007301330566406" lon="0.4496572613716125"><ele></ele><time>2016-10-9T9:51:42Z</time></trkpt>
<trkpt lat="49.4006538391113281" lon="0.4496944844722748"><ele></ele><time>2016-10-9T9:51:45Z</time></trkpt>
<trkpt lat="49.4006004333496094" lon="0.4497579336166382"><ele></ele><time>2016-10-9T9:51:48Z</time></trkpt>
<trkpt lat="49.4005393981933594" lon="0.4498353600502014"><ele></ele><time>2016-10-9T9:51:51Z</time></trkpt>
<trkpt lat="49.4005012512207031" lon="0.4498777687549591"><ele></ele><time>2016-10-9T9:51:54Z</time></trkpt>
<trkpt lat="49.4004325866699219" lon="0.4499434232711792"><ele></ele><time>2016-10-9T9:51:57Z</time></trkpt>
<trkpt lat="49.4003944396972656" lon="0.4499863386154175"><ele></ele><time>2016-10-9T9:52:0Z</time></trkpt>
<trkpt lat="49.4003524780273438" lon="0.4500191807746887"><ele></ele><time>2016-10-9T9:52:3Z</time></trkpt>
<trkpt lat="49.4002723693847656" lon="0.4500732421875000"><ele></ele><time>2016-10-9T9:52:6Z</time></trkpt>
<trkpt lat="49.4001922607421875" lon="0.4501534700393677"><ele></ele><time>2016-10-9T9:52:9Z</time></trkpt>
<trkpt lat="49.4001197814941406" lon="0.4502375423908234"><ele></ele><time>2016-10-9T9:52:12Z</time></trkpt>
<trkpt lat="49.4000549316406250" lon="0.4503381252288818"><ele></ele><time>2016-10-9T9:52:15Z</time></trkpt>
<trkpt lat="49.4000244140625000" lon="0.4503951966762543"><ele></ele><time>2016-10-9T9:52:18Z</time></trkpt>
<trkpt lat="49.3999595642089844" lon="0.4504979550838470"><ele></ele><time>2016-10-9T9:52:21Z</time></trkpt>
<trkpt lat="49.3999176025390625" lon="0.4505790174007416"><ele></ele><time>2016-10-9T9:52:24Z</time></trkpt>
<trkpt lat="49.3998641967773438" lon="0.4506904780864716"><ele></ele><time>2016-10-9T9:52:27Z</time></trkpt>
<trkpt lat="49.3998413085937500" lon="0.4507607221603394"><ele></ele><time>2016-10-9T9:52:30Z</time></trkpt>
<trkpt lat="49.3998260498046875" lon="0.4508199095726013"><ele></ele><time>2016-10-9T9:52:33Z</time></trkpt>
<trkpt lat="49.3998222351074219" lon="0.4508845210075378"><ele></ele><time>2016-10-9T9:52:36Z</time></trkpt>
<trkpt lat="49.3998184204101562" lon="0.4509961903095245"><ele></ele><time>2016-10-9T9:52:39Z</time></trkpt>
<trkpt lat="49.3998336791992188" lon="0.4511142671108246"><ele></ele><time>2016-10-9T9:52:42Z</time></trkpt>
<trkpt lat="49.3998680114746094" lon="0.4512324631214142"><ele></ele><time>2016-10-9T9:52:45Z</time></trkpt>
<trkpt lat="49.3999176025390625" lon="0.4513393342494965"><ele></ele><time>2016-10-9T9:52:48Z</time></trkpt>
<trkpt lat="49.3999519348144531" lon="0.4514035284519196"><ele></ele><time>2016-10-9T9:52:51Z</time></trkpt>
<trkpt lat="49.4000053405761719" lon="0.4514985978603363"><ele></ele><time>2016-10-9T9:52:54Z</time></trkpt>
<trkpt lat="49.4000434875488281" lon="0.4516118168830872"><ele></ele><time>2016-10-9T9:52:57Z</time></trkpt>
<trkpt lat="49.4000816345214844" lon="0.4516964852809906"><ele></ele><time>2016-10-9T9:53:0Z</time></trkpt>
<trkpt lat="49.4001083374023438" lon="0.4517509639263153"><ele></ele><time>2016-10-9T9:53:3Z</time></trkpt>
<trkpt lat="49.4001274108886719" lon="0.4518072903156281"><ele></ele><time>2016-10-9T9:53:6Z</time></trkpt>
<trkpt lat="49.4001693725585938" lon="0.4518881738185883"><ele></ele><time>2016-10-9T9:53:9Z</time></trkpt>
<trkpt lat="49.4002265930175781" lon="0.4519780278205872"><ele></ele><time>2016-10-9T9:53:12Z</time></trkpt>
<trkpt lat="49.4002685546875000" lon="0.4520414173603058"><ele></ele><time>2016-10-9T9:53:15Z</time></trkpt>
<trkpt lat="49.4002952575683594" lon="0.4521072804927826"><ele></ele><time>2016-10-9T9:53:18Z</time></trkpt>
<trkpt lat="49.4003295898437500" lon="0.4522102177143097"><ele></ele><time>2016-10-9T9:53:21Z</time></trkpt>
<trkpt lat="49.4003677368164062" lon="0.4522874057292938"><ele></ele><time>2016-10-9T9:53:24Z</time></trkpt>
<trkpt lat="49.4003982543945312" lon="0.4523955285549164"><ele></ele><time>2016-10-9T9:53:27Z</time></trkpt>
<trkpt lat="49.4004211425781250" lon="0.4524691402912140"><ele></ele><time>2016-10-9T9:53:30Z</time></trkpt>
<trkpt lat="49.4004516601562500" lon="0.4525645971298218"><ele></ele><time>2016-10-9T9:53:33Z</time></trkpt>
<trkpt lat="49.4004707336425781" lon="0.4526715576648712"><ele></ele><time>2016-10-9T9:53:36Z</time></trkpt>
<trkpt lat="49.4004898071289062" lon="0.4527447223663330"><ele></ele><time>2016-10-9T9:53:39Z</time></trkpt>
<trkpt lat="49.4005317687988281" lon="0.4528429508209229"><ele></ele><time>2016-10-9T9:53:42Z</time></trkpt>
<trkpt lat="49.4005737304687500" lon="0.4529407024383545"><ele></ele><time>2016-10-9T9:53:45Z</time></trkpt>
<trkpt lat="49.4006042480468750" lon="0.4530113637447357"><ele></ele><time>2016-10-9T9:53:48Z</time></trkpt>
<trkpt lat="49.4006309509277344" lon="0.4530793428421021"><ele></ele><time>2016-10-9T9:53:51Z</time></trkpt>
<trkpt lat="49.4006767272949219" lon="0.4531977772712708"><ele></ele><time>2016-10-9T9:53:54Z</time></trkpt>
<trkpt lat="49.4007110595703125" lon="0.4533016085624695"><ele></ele><time>2016-10-9T9:53:57Z</time></trkpt>
<trkpt lat="49.4007453918457031" lon="0.4534052312374115"><ele></ele><time>2016-10-9T9:54:0Z</time></trkpt>
<trkpt lat="49.4007873535156250" lon="0.4535161256790161"><ele></ele><time>2016-10-9T9:54:3Z</time></trkpt>
<trkpt lat="49.4008140563964844" lon="0.4535912275314331"><ele></ele><time>2016-10-9T9:54:6Z</time></trkpt>
<trkpt lat="49.4008407592773438" lon="0.4537234008312225"><ele></ele><time>2016-10-9T9:54:9Z</time></trkpt>
<trkpt lat="49.4008636474609375" lon="0.4538414180278778"><ele></ele><time>2016-10-9T9:54:12Z</time></trkpt>
<trkpt lat="49.4008789062500000" lon="0.4539252221584320"><ele></ele><time>2016-10-9T9:54:15Z</time></trkpt>
<trkpt lat="49.4009056091308594" lon="0.4540288448333740"><ele></ele><time>2016-10-9T9:54:18Z</time></trkpt>
<trkpt lat="49.4009323120117188" lon="0.4541182816028595"><ele></ele><time>2016-10-9T9:54:21Z</time></trkpt>
<trkpt lat="49.4009475708007812" lon="0.4541729986667633"><ele></ele><time>2016-10-9T9:54:24Z</time></trkpt>
<trkpt lat="49.4009590148925781" lon="0.4542305171489716"><ele></ele><time>2016-10-9T9:54:27Z</time></trkpt>
<trkpt lat="49.4009819030761719" lon="0.4543315768241882"><ele></ele><time>2016-10-9T9:54:30Z</time></trkpt>
<trkpt lat="49.4010086059570312" lon="0.4543987214565277"><ele></ele><time>2016-10-9T9:54:33Z</time></trkpt>
<trkpt lat="49.4010353088378906" lon="0.4544855654239655"><ele></ele><time>2016-10-9T9:54:36Z</time></trkpt>
<trkpt lat="49.4010543823242188" lon="0.4546132087707520"><ele></ele><time>2016-10-9T9:54:39Z</time></trkpt>
<trkpt lat="49.4010696411132812" lon="0.4547526836395264"><ele></ele><time>2016-10-9T9:54:42Z</time></trkpt>
<trkpt lat="49.4011001586914062" lon="0.4548730552196503"><ele></ele><time>2016-10-9T9:54:45Z</time></trkpt>
<trkpt lat="49.4011268615722656" lon="0.4549836218357086"><ele></ele><time>2016-10-9T9:54:48Z</time></trkpt>
<trkpt lat="49.4011459350585938" lon="0.4550562202930450"><ele></ele><time>2016-10-9T9:54:51Z</time></trkpt>
<trkpt lat="49.4011840820312500" lon="0.4551639258861542"><ele></ele><time>2016-10-9T9:54:54Z</time></trkpt>
<trkpt lat="49.4012107849121094" lon="0.4552150368690491"><ele></ele><time>2016-10-9T9:54:57Z</time></trkpt>
<trkpt lat="49.4012565612792969" lon="0.4552783370018005"><ele></ele><time>2016-10-9T9:55:0Z</time></trkpt>
<trkpt lat="49.4012908935546875" lon="0.4553045630455017"><ele></ele><time>2016-10-9T9:55:3Z</time></trkpt>
<trkpt lat="49.4013442993164062" lon="0.4553406834602356"><ele></ele><time>2016-10-9T9:55:6Z</time></trkpt>
<trkpt lat="49.4013977050781250" lon="0.4553879499435425"><ele></ele><time>2016-10-9T9:55:9Z</time></trkpt>
<trkpt lat="49.4014358520507812" lon="0.4554283618927002"><ele></ele><time>2016-10-9T9:55:12Z</time></trkpt>
<trkpt lat="49.4014892578125000" lon="0.4554567635059357"><ele></ele><time>2016-10-9T9:55:15Z</time></trkpt>
<trkpt lat="49.4015464782714844" lon="0.4554679989814758"><ele></ele><time>2016-10-9T9:55:18Z</time></trkpt>
<trkpt lat="49.4015922546386719" lon="0.4554852843284607"><ele></ele><time>2016-10-9T9:55:21Z</time></trkpt>
<trkpt lat="49.4016532897949219" lon="0.4555260837078094"><ele></ele><time>2016-10-9T9:55:24Z</time></trkpt>
<trkpt lat="49.4017181396484375" lon="0.4555494785308838"><ele></ele><time>2016-10-9T9:55:27Z</time></trkpt>
<trkpt lat="49.4017601013183594" lon="0.4555608928203583"><ele></ele><time>2016-10-9T9:55:30Z</time></trkpt>
<trkpt lat="49.4018363952636719" lon="0.4555957615375519"><ele></ele><time>2016-10-9T9:55:33Z</time></trkpt>
<trkpt lat="49.4019012451171875" lon="0.4556364715099335"><ele></ele><time>2016-10-9T9:55:36Z</time></trkpt>
<trkpt lat="49.4019470214843750" lon="0.4556688368320465"><ele></ele><time>2016-10-9T9:55:39Z</time></trkpt>
<trkpt lat="49.4020271301269531" lon="0.4557240903377533"><ele></ele><time>2016-10-9T9:55:42Z</time></trkpt>
<trkpt lat="49.4020690917968750" lon="0.4557484686374664"><ele></ele><time>2016-10-9T9:55:45Z</time></trkpt>
<trkpt lat="49.4021492004394531" lon="0.4557746946811676"><ele></ele><time>2016-10-9T9:55:48Z</time></trkpt>
<trkpt lat="49.4022254943847656" lon="0.4558233916759491"><ele></ele><time>2016-10-9T9:55:51Z</time></trkpt>
<trkpt lat="49.4023017883300781" lon="0.4558940529823303"><ele></ele><time>2016-10-9T9:55:54Z</time></trkpt>
<trkpt lat="49.4023475646972656" lon="0.4559232294559479"><ele></ele><time>2016-10-9T9:55:57Z</time></trkpt>
<trkpt lat="49.4024009704589844" lon="0.4559493958950043"><ele></ele><time>2016-10-9T9:56:0Z</time></trkpt>
<trkpt lat="49.4024734497070312" lon="0.4559877812862396"><ele></ele><time>2016-10-9T9:56:3Z</time></trkpt>
<trkpt lat="49.4025192260742188" lon="0.4560165107250214"><ele></ele><time>2016-10-9T9:56:6Z</time></trkpt>
<trkpt lat="49.4025802612304688" lon="0.4560507237911224"><ele></ele><time>2016-10-9T9:56:9Z</time></trkpt>
<trkpt lat="49.4026260375976562" lon="0.4560736119747162"><ele></ele><time>2016-10-9T9:56:12Z</time></trkpt>
<trkpt lat="49.4026947021484375" lon="0.4561273157596588"><ele></ele><time>2016-10-9T9:56:15Z</time></trkpt>
<trkpt lat="49.4027633666992188" lon="0.4562055468559265"><ele></ele><time>2016-10-9T9:56:18Z</time></trkpt>
<trkpt lat="49.4028244018554688" lon="0.4562924504280090"><ele></ele><time>2016-10-9T9:56:21Z</time></trkpt>
<trkpt lat="49.4028625488281250" lon="0.4563347101211548"><ele></ele><time>2016-10-9T9:56:24Z</time></trkpt>
<trkpt lat="49.4029083251953125" lon="0.4563874304294586"><ele></ele><time>2016-10-9T9:56:27Z</time></trkpt>
<trkpt lat="49.4029350280761719" lon="0.4564275741577148"><ele></ele><time>2016-10-9T9:56:30Z</time></trkpt>
<trkpt lat="49.4029808044433594" lon="0.4565022587776184"><ele></ele><time>2016-10-9T9:56:33Z</time></trkpt>
<trkpt lat="49.4030227661132812" lon="0.4565698206424713"><ele></ele><time>2016-10-9T9:56:36Z</time></trkpt>
<trkpt lat="49.4030456542968750" lon="0.4566010832786560"><ele></ele><time>2016-10-9T9:56:39Z</time></trkpt>
<trkpt lat="49.4030990600585938" lon="0.4566399753093719"><ele></ele><time>2016-10-9T9:56:42Z</time></trkpt>
<trkpt lat="49.4031562805175781" lon="0.4566812813282013"><ele></ele><time>2016-10-9T9:56:45Z</time></trkpt>
<trkpt lat="49.4032058715820312" lon="0.4567371904850006"><ele></ele><time>2016-10-9T9:56:48Z</time></trkpt>
<trkpt lat="49.4032325744628906" lon="0.4567711353302002"><ele></ele><time>2016-10-9T9:56:51Z</time></trkpt>
<trkpt lat="49.4032783508300781" lon="0.4568199217319489"><ele></ele><time>2016-10-9T9:56:54Z</time></trkpt>
<trkpt lat="49.4033088684082031" lon="0.4568592309951782"><ele></ele><time>2016-10-9T9:56:57Z</time></trkpt>
<trkpt lat="49.4033737182617188" lon="0.4569409489631653"><ele></ele><time>2016-10-9T9:57:0Z</time></trkpt>
<trkpt lat="49.4034233093261719" lon="0.4570047557353973"><ele></ele><time>2016-10-9T9:57:3Z</time></trkpt>
<trkpt lat="49.4034919738769531" lon="0.4570879042148590"><ele></ele><time>2016-10-9T9:57:6Z</time></trkpt>
<trkpt lat="49.4035339355468750" lon="0.4571453034877777"><ele></ele><time>2016-10-9T9:57:9Z</time></trkpt>
<trkpt lat="49.4035949707031250" lon="0.4572222530841827"><ele></ele><time>2016-10-9T9:57:12Z</time></trkpt>
<trkpt lat="49.4036750793457031" lon="0.4573082625865936"><ele></ele><time>2016-10-9T9:57:15Z</time></trkpt>
<trkpt lat="49.4037170410156250" lon="0.4573646783828735"><ele></ele><time>2016-10-9T9:57:18Z</time></trkpt>
<trkpt lat="49.4037666320800781" lon="0.4574322104454041"><ele></ele><time>2016-10-9T9:57:21Z</time></trkpt>
<trkpt lat="49.4037933349609375" lon="0.4574776589870453"><ele></ele><time>2016-10-9T9:57:24Z</time></trkpt>
<trkpt lat="49.4038124084472656" lon="0.4575287699699402"><ele></ele><time>2016-10-9T9:57:27Z</time></trkpt>
<trkpt lat="49.4038505554199219" lon="0.4575933218002319"><ele></ele><time>2016-10-9T9:57:30Z</time></trkpt>
<trkpt lat="49.4038887023925781" lon="0.4576451182365417"><ele></ele><time>2016-10-9T9:57:33Z</time></trkpt>
<trkpt lat="49.4039459228515625" lon="0.4577375650405884"><ele></ele><time>2016-10-9T9:57:36Z</time></trkpt>
<trkpt lat="49.4040031433105469" lon="0.4578432738780975"><ele></ele><time>2016-10-9T9:57:39Z</time></trkpt>
<trkpt lat="49.4040603637695312" lon="0.4579266607761383"><ele></ele><time>2016-10-9T9:57:42Z</time></trkpt>
<trkpt lat="49.4041481018066406" lon="0.4580151140689850"><ele></ele><time>2016-10-9T9:57:45Z</time></trkpt>
<trkpt lat="49.4042282104492188" lon="0.4581150114536285"><ele></ele><time>2016-10-9T9:57:48Z</time></trkpt>
<trkpt lat="49.4042778015136719" lon="0.4581796526908875"><ele></ele><time>2016-10-9T9:57:51Z</time></trkpt>
<trkpt lat="49.4043502807617188" lon="0.4582564234733582"><ele></ele><time>2016-10-9T9:57:54Z</time></trkpt>
<trkpt lat="49.4044189453125000" lon="0.4583142399787903"><ele></ele><time>2016-10-9T9:57:57Z</time></trkpt>
<trkpt lat="49.4044723510742188" lon="0.4583858251571655"><ele></ele><time>2016-10-9T9:58:0Z</time></trkpt>
<trkpt lat="49.4045066833496094" lon="0.4584257304668427"><ele></ele><time>2016-10-9T9:58:3Z</time></trkpt>
<trkpt lat="49.4045372009277344" lon="0.4584620296955109"><ele></ele><time>2016-10-9T9:58:6Z</time></trkpt>
<trkpt lat="49.4045639038085938" lon="0.4584984779357910"><ele></ele><time>2016-10-9T9:58:9Z</time></trkpt>
<trkpt lat="49.4046058654785156" lon="0.4585543870925903"><ele></ele><time>2016-10-9T9:58:12Z</time></trkpt>
<trkpt lat="49.4046401977539062" lon="0.4586007595062256"><ele></ele><time>2016-10-9T9:58:15Z</time></trkpt>
<trkpt lat="49.4046669006347656" lon="0.4586459100246429"><ele></ele><time>2016-10-9T9:58:18Z</time></trkpt>
<trkpt lat="49.4047164916992188" lon="0.4587278962135315"><ele></ele><time>2016-10-9T9:58:21Z</time></trkpt>
<trkpt lat="49.4047889709472656" lon="0.4588200151920319"><ele></ele><time>2016-10-9T9:58:24Z</time></trkpt>
<trkpt lat="49.4048728942871094" lon="0.4589428007602692"><ele></ele><time>2016-10-9T9:58:27Z</time></trkpt>
<trkpt lat="49.4049530029296875" lon="0.4590388536453247"><ele></ele><time>2016-10-9T9:58:30Z</time></trkpt>
<trkpt lat="49.4050598144531250" lon="0.4591307342052460"><ele></ele><time>2016-10-9T9:58:33Z</time></trkpt>
<trkpt lat="49.4051856994628906" lon="0.4592210054397583"><ele></ele><time>2016-10-9T9:58:36Z</time></trkpt>
<trkpt lat="49.4052696228027344" lon="0.4593274593353271"><ele></ele><time>2016-10-9T9:58:39Z</time></trkpt>
<trkpt lat="49.4052963256835938" lon="0.4594069123268127"><ele></ele><time>2016-10-9T9:58:42Z</time></trkpt>
<trkpt lat="49.4053268432617188" lon="0.4595323204994202"><ele></ele><time>2016-10-9T9:58:45Z</time></trkpt>
<trkpt lat="49.4053382873535156" lon="0.4596710205078125"><ele></ele><time>2016-10-9T9:58:48Z</time></trkpt>
<trkpt lat="49.4053230285644531" lon="0.4597742259502411"><ele></ele><time>2016-10-9T9:58:51Z</time></trkpt>
<trkpt lat="49.4053115844726562" lon="0.4598810076713562"><ele></ele><time>2016-10-9T9:58:54Z</time></trkpt>
<trkpt lat="49.4053115844726562" lon="0.4600097537040710"><ele></ele><time>2016-10-9T9:58:57Z</time></trkpt>
<trkpt lat="49.4053077697753906" lon="0.4601481258869171"><ele></ele><time>2016-10-9T9:59:0Z</time></trkpt>
<trkpt lat="49.4053039550781250" lon="0.4602325260639191"><ele></ele><time>2016-10-9T9:59:3Z</time></trkpt>
<trkpt lat="49.4053001403808594" lon="0.4603151082992554"><ele></ele><time>2016-10-9T9:59:6Z</time></trkpt>
<trkpt lat="49.4052963256835938" lon="0.4604046046733856"><ele></ele><time>2016-10-9T9:59:9Z</time></trkpt>
<trkpt lat="49.4053001403808594" lon="0.4605331122875214"><ele></ele><time>2016-10-9T9:59:12Z</time></trkpt>
<trkpt lat="49.4052925109863281" lon="0.4606199562549591"><ele></ele><time>2016-10-9T9:59:15Z</time></trkpt>
<trkpt lat="49.4052696228027344" lon="0.4607513844966888"><ele></ele><time>2016-10-9T9:59:18Z</time></trkpt>
<trkpt lat="49.4052619934082031" lon="0.4608429968357086"><ele></ele><time>2016-10-9T9:59:21Z</time></trkpt>
<trkpt lat="49.4052543640136719" lon="0.4609798789024353"><ele></ele><time>2016-10-9T9:59:24Z</time></trkpt>
<trkpt lat="49.4052314758300781" lon="0.4611133933067322"><ele></ele><time>2016-10-9T9:59:27Z</time></trkpt>
<trkpt lat="49.4051933288574219" lon="0.4612240195274353"><ele></ele><time>2016-10-9T9:59:30Z</time></trkpt>
<trkpt lat="49.4051322937011719" lon="0.4613804221153259"><ele></ele><time>2016-10-9T9:59:33Z</time></trkpt>
<trkpt lat="49.4050521850585938" lon="0.4615344107151031"><ele></ele><time>2016-10-9T9:59:36Z</time></trkpt>
<trkpt lat="49.4050025939941406" lon="0.4616384208202362"><ele></ele><time>2016-10-9T9:59:39Z</time></trkpt>
<trkpt lat="49.4049186706542969" lon="0.4617767333984375"><ele></ele><time>2016-10-9T9:59:42Z</time></trkpt>
<trkpt lat="49.4048423767089844" lon="0.4618767201900482"><ele></ele><time>2016-10-9T9:59:45Z</time></trkpt>
<trkpt lat="49.4047584533691406" lon="0.4619520902633667"><ele></ele><time>2016-10-9T9:59:48Z</time></trkpt>
<trkpt lat="49.4046936035156250" lon="0.4620008766651154"><ele></ele><time>2016-10-9T9:59:51Z</time></trkpt>
<trkpt lat="49.4045867919921875" lon="0.4620875418186188"><ele></ele><time>2016-10-9T9:59:54Z</time></trkpt>
<trkpt lat="49.4045066833496094" lon="0.4621631503105164"><ele></ele><time>2016-10-9T9:59:57Z</time></trkpt>
<trkpt lat="49.4043540954589844" lon="0.4623310267925262"><ele></ele><time>2016-10-9T10:0:0Z</time></trkpt>
<trkpt lat="49.4043045043945312" lon="0.4624016880989075"><ele></ele><time>2016-10-9T10:0:3Z</time></trkpt>
<trkpt lat="49.4042625427246094" lon="0.4624626934528351"><ele></ele><time>2016-10-9T10:0:6Z</time></trkpt>
<trkpt lat="49.4041786193847656" lon="0.4625451862812042"><ele></ele><time>2016-10-9T10:0:9Z</time></trkpt>
<trkpt lat="49.4040946960449219" lon="0.4626470208168030"><ele></ele><time>2016-10-9T10:0:12Z</time></trkpt>
<trkpt lat="49.4040222167968750" lon="0.4627252221107483"><ele></ele><time>2016-10-9T10:0:15Z</time></trkpt>
<trkpt lat="49.4039421081542969" lon="0.4628060162067413"><ele></ele><time>2016-10-9T10:0:18Z</time></trkpt>
<trkpt lat="49.4038581848144531" lon="0.4628810584545135"><ele></ele><time>2016-10-9T10:0:21Z</time></trkpt>
<trkpt lat="49.4037590026855469" lon="0.4629755020141602"><ele></ele><time>2016-10-9T10:0:24Z</time></trkpt>
<trkpt lat="49.4036941528320312" lon="0.4630394577980042"><ele></ele><time>2016-10-9T10:0:27Z</time></trkpt>
<trkpt lat="49.4035797119140625" lon="0.4631517827510834"><ele></ele><time>2016-10-9T10:0:30Z</time></trkpt>
<trkpt lat="49.4034957885742188" lon="0.4632302522659302"><ele></ele><time>2016-10-9T10:0:33Z</time></trkpt>
<trkpt lat="49.4034156799316406" lon="0.4633035659790039"><ele></ele><time>2016-10-9T10:0:36Z</time></trkpt>
<trkpt lat="49.4033393859863281" lon="0.4633646011352539"><ele></ele><time>2016-10-9T10:0:39Z</time></trkpt>
<trkpt lat="49.4031867980957031" lon="0.4635161459445953"><ele></ele><time>2016-10-9T10:0:42Z</time></trkpt>
<trkpt lat="49.4031105041503906" lon="0.4635911583900452"><ele></ele><time>2016-10-9T10:0:45Z</time></trkpt>
<trkpt lat="49.4029922485351562" lon="0.4637342393398285"><ele></ele><time>2016-10-9T10:0:48Z</time></trkpt>
<trkpt lat="49.4029159545898438" lon="0.4638306200504303"><ele></ele><time>2016-10-9T10:0:51Z</time></trkpt>
<trkpt lat="49.4028015136718750" lon="0.4639594554901123"><ele></ele><time>2016-10-9T10:0:54Z</time></trkpt>
<trkpt lat="49.4027175903320312" lon="0.4640304446220398"><ele></ele><time>2016-10-9T10:0:57Z</time></trkpt>
<trkpt lat="49.4025955200195312" lon="0.4641669988632202"><ele></ele><time>2016-10-9T10:1:0Z</time></trkpt>
<trkpt lat="49.4024543762207031" lon="0.4643141031265259"><ele></ele><time>2016-10-9T10:1:3Z</time></trkpt>
<trkpt lat="49.4023628234863281" lon="0.4644184708595276"><ele></ele><time>2016-10-9T10:1:6Z</time></trkpt>
<trkpt lat="49.4022064208984375" lon="0.4645567536354065"><ele></ele><time>2016-10-9T10:1:9Z</time></trkpt>
<trkpt lat="49.4020729064941406" lon="0.4647111594676971"><ele></ele><time>2016-10-9T10:1:12Z</time></trkpt>
<trkpt lat="49.4019813537597656" lon="0.4648125767707825"><ele></ele><time>2016-10-9T10:1:15Z</time></trkpt>
<trkpt lat="49.4018669128417969" lon="0.4649547338485718"><ele></ele><time>2016-10-9T10:1:18Z</time></trkpt>
<trkpt lat="49.4018020629882812" lon="0.4650578200817108"><ele></ele><time>2016-10-9T10:1:21Z</time></trkpt>
<trkpt lat="49.4017448425292969" lon="0.4651698172092438"><ele></ele><time>2016-10-9T10:1:24Z</time></trkpt>
<trkpt lat="49.4017105102539062" lon="0.4653098583221436"><ele></ele><time>2016-10-9T10:1:27Z</time></trkpt>
<trkpt lat="49.4016418457031250" lon="0.4654368460178375"><ele></ele><time>2016-10-9T10:1:30Z</time></trkpt>
<trkpt lat="49.4015808105468750" lon="0.4655254483222961"><ele></ele><time>2016-10-9T10:1:33Z</time></trkpt>
<trkpt lat="49.4014930725097656" lon="0.4656642675399780"><ele></ele><time>2016-10-9T10:1:36Z</time></trkpt>
<trkpt lat="49.4014282226562500" lon="0.4657682776451111"><ele></ele><time>2016-10-9T10:1:39Z</time></trkpt>
<trkpt lat="49.4013175964355469" lon="0.4659387767314911"><ele></ele><time>2016-10-9T10:1:42Z</time></trkpt>
<trkpt lat="49.4011955261230469" lon="0.4661048054695129"><ele></ele><time>2016-10-9T10:1:45Z</time></trkpt>
<trkpt lat="49.4010772705078125" lon="0.4662452936172485"><ele></ele><time>2016-10-9T10:1:48Z</time></trkpt>
<trkpt lat="49.4009513854980469" lon="0.4664840996265411"><ele></ele><time>2016-10-9T10:1:51Z</time></trkpt>
<trkpt lat="49.4008560180664062" lon="0.4666426777839661"><ele></ele><time>2016-10-9T10:1:54Z</time></trkpt>
<trkpt lat="49.4007682800292969" lon="0.4668051302433014"><ele></ele><time>2016-10-9T10:1:57Z</time></trkpt>
<trkpt lat="49.4007110595703125" lon="0.4669103920459747"><ele></ele><time>2016-10-9T10:2:0Z</time></trkpt>
<trkpt lat="49.4006500244140625" lon="0.4670057892799377"><ele></ele><time>2016-10-9T10:2:3Z</time></trkpt>
<trkpt lat="49.4005088806152344" lon="0.4671963751316071"><ele></ele><time>2016-10-9T10:2:6Z</time></trkpt>
<trkpt lat="49.4003944396972656" lon="0.4674283862113953"><ele></ele><time>2016-10-9T10:2:9Z</time></trkpt>
<trkpt lat="49.4003028869628906" lon="0.4676273763179779"><ele></ele><time>2016-10-9T10:2:12Z</time></trkpt>
<trkpt lat="49.4002037048339844" lon="0.4678831994533539"><ele></ele><time>2016-10-9T10:2:15Z</time></trkpt>
<trkpt lat="49.4001502990722656" lon="0.4680142998695374"><ele></ele><time>2016-10-9T10:2:18Z</time></trkpt>
<trkpt lat="49.4001045227050781" lon="0.4682243466377258"><ele></ele><time>2016-10-9T10:2:21Z</time></trkpt>
<trkpt lat="49.4000740051269531" lon="0.4683662354946136"><ele></ele><time>2016-10-9T10:2:24Z</time></trkpt>
<trkpt lat="49.4000129699707031" lon="0.4685592949390411"><ele></ele><time>2016-10-9T10:2:27Z</time></trkpt>
<trkpt lat="49.3999862670898438" lon="0.4686889648437500"><ele></ele><time>2016-10-9T10:2:30Z</time></trkpt>
<trkpt lat="49.3999557495117188" lon="0.4688831567764282"><ele></ele><time>2016-10-9T10:2:33Z</time></trkpt>
<trkpt lat="49.3998832702636719" lon="0.4691517055034637"><ele></ele><time>2016-10-9T10:2:36Z</time></trkpt>
<trkpt lat="49.3998680114746094" lon="0.4693048596382141"><ele></ele><time>2016-10-9T10:2:39Z</time></trkpt>
<trkpt lat="49.3998298645019531" lon="0.4695392847061157"><ele></ele><time>2016-10-9T10:2:42Z</time></trkpt>
<trkpt lat="49.3997764587402344" lon="0.4697614312171936"><ele></ele><time>2016-10-9T10:2:45Z</time></trkpt>
<trkpt lat="49.3997421264648438" lon="0.4699637591838837"><ele></ele><time>2016-10-9T10:2:48Z</time></trkpt>
<trkpt lat="49.3997154235839844" lon="0.4701794087886810"><ele></ele><time>2016-10-9T10:2:51Z</time></trkpt>
<trkpt lat="49.3996849060058594" lon="0.4704264402389526"><ele></ele><time>2016-10-9T10:2:54Z</time></trkpt>
<trkpt lat="49.3996467590332031" lon="0.4706644117832184"><ele></ele><time>2016-10-9T10:2:57Z</time></trkpt>
<trkpt lat="49.3996200561523438" lon="0.4708296954631805"><ele></ele><time>2016-10-9T10:3:0Z</time></trkpt>
<trkpt lat="49.3995895385742188" lon="0.4710264205932617"><ele></ele><time>2016-10-9T10:3:3Z</time></trkpt>
<trkpt lat="49.3995552062988281" lon="0.4712775349617004"><ele></ele><time>2016-10-9T10:3:6Z</time></trkpt>
<trkpt lat="49.3995361328125000" lon="0.4715043604373932"><ele></ele><time>2016-10-9T10:3:9Z</time></trkpt>
<trkpt lat="49.3995170593261719" lon="0.4718408882617950"><ele></ele><time>2016-10-9T10:3:12Z</time></trkpt>
<trkpt lat="49.3994827270507812" lon="0.4720531105995178"><ele></ele><time>2016-10-9T10:3:15Z</time></trkpt>
<trkpt lat="49.3994636535644531" lon="0.4722080826759338"><ele></ele><time>2016-10-9T10:3:18Z</time></trkpt>
<trkpt lat="49.3993797302246094" lon="0.4724736213684082"><ele></ele><time>2016-10-9T10:3:21Z</time></trkpt>
<trkpt lat="49.3993644714355469" lon="0.4726198911666870"><ele></ele><time>2016-10-9T10:3:24Z</time></trkpt>
<trkpt lat="49.3993415832519531" lon="0.4727576971054077"><ele></ele><time>2016-10-9T10:3:27Z</time></trkpt>
<trkpt lat="49.3992996215820312" lon="0.4729904532432556"><ele></ele><time>2016-10-9T10:3:30Z</time></trkpt>
<trkpt lat="49.3992004394531250" lon="0.4734685719013214"><ele></ele><time>2016-10-9T10:3:33Z</time></trkpt>
<trkpt lat="49.3991508483886719" lon="0.4736564755439758"><ele></ele><time>2016-10-9T10:3:36Z</time></trkpt>
<trkpt lat="49.3990707397460938" lon="0.4739666879177094"><ele></ele><time>2016-10-9T10:3:39Z</time></trkpt>
<trkpt lat="49.3990249633789062" lon="0.4742501080036163"><ele></ele><time>2016-10-9T10:3:42Z</time></trkpt>
<trkpt lat="49.3989906311035156" lon="0.4744784235954285"><ele></ele><time>2016-10-9T10:3:45Z</time></trkpt>
<trkpt lat="49.3989334106445312" lon="0.4747192263603210"><ele></ele><time>2016-10-9T10:3:48Z</time></trkpt>
<trkpt lat="49.3988914489746094" lon="0.4749606251716614"><ele></ele><time>2016-10-9T10:3:51Z</time></trkpt>
<trkpt lat="49.3987960815429688" lon="0.4752607941627502"><ele></ele><time>2016-10-9T10:3:54Z</time></trkpt>
<trkpt lat="49.3987274169921875" lon="0.4755066335201263"><ele></ele><time>2016-10-9T10:3:57Z</time></trkpt>
<trkpt lat="49.3986244201660156" lon="0.4758298397064209"><ele></ele><time>2016-10-9T10:4:0Z</time></trkpt>
<trkpt lat="49.3985824584960938" lon="0.4761360287666321"><ele></ele><time>2016-10-9T10:4:3Z</time></trkpt>
<trkpt lat="49.3985557556152344" lon="0.4763336777687073"><ele></ele><time>2016-10-9T10:4:6Z</time></trkpt>
<trkpt lat="49.3985137939453125" lon="0.4765981137752533"><ele></ele><time>2016-10-9T10:4:9Z</time></trkpt>
<trkpt lat="49.3984642028808594" lon="0.4768348336219788"><ele></ele><time>2016-10-9T10:4:12Z</time></trkpt>
<trkpt lat="49.3984603881835938" lon="0.4769739508628845"><ele></ele><time>2016-10-9T10:4:15Z</time></trkpt>
<trkpt lat="49.3984298706054688" lon="0.4771789014339447"><ele></ele><time>2016-10-9T10:4:18Z</time></trkpt>
<trkpt lat="49.3984031677246094" lon="0.4774049520492554"><ele></ele><time>2016-10-9T10:4:21Z</time></trkpt>
<trkpt lat="49.3983840942382812" lon="0.4775908589363098"><ele></ele><time>2016-10-9T10:4:24Z</time></trkpt>
<trkpt lat="49.3983383178710938" lon="0.4778707325458527"><ele></ele><time>2016-10-9T10:4:27Z</time></trkpt>
<trkpt lat="49.3982925415039062" lon="0.4781269729137421"><ele></ele><time>2016-10-9T10:4:30Z</time></trkpt>
<trkpt lat="49.3982238769531250" lon="0.4783926010131836"><ele></ele><time>2016-10-9T10:4:33Z</time></trkpt>
<trkpt lat="49.3981742858886719" lon="0.4787332415580750"><ele></ele><time>2016-10-9T10:4:36Z</time></trkpt>
<trkpt lat="49.3981437683105469" lon="0.4789225757122040"><ele></ele><time>2016-10-9T10:4:39Z</time></trkpt>
<trkpt lat="49.3980903625488281" lon="0.4792323112487793"><ele></ele><time>2016-10-9T10:4:42Z</time></trkpt>
<trkpt lat="49.3980293273925781" lon="0.4794226586818695"><ele></ele><time>2016-10-9T10:4:45Z</time></trkpt>
<trkpt lat="49.3979835510253906" lon="0.4795932173728943"><ele></ele><time>2016-10-9T10:4:48Z</time></trkpt>
<trkpt lat="49.3979415893554688" lon="0.4798959791660309"><ele></ele><time>2016-10-9T10:4:51Z</time></trkpt>
<trkpt lat="49.3978767395019531" lon="0.4801800251007080"><ele></ele><time>2016-10-9T10:4:54Z</time></trkpt>
<trkpt lat="49.3978080749511719" lon="0.4803799390792847"><ele></ele><time>2016-10-9T10:4:57Z</time></trkpt>
<trkpt lat="49.3977241516113281" lon="0.4806141257286072"><ele></ele><time>2016-10-9T10:5:0Z</time></trkpt>
<trkpt lat="49.3976974487304688" lon="0.4807676076889038"><ele></ele><time>2016-10-9T10:5:3Z</time></trkpt>
<trkpt lat="49.3976631164550781" lon="0.4809247851371765"><ele></ele><time>2016-10-9T10:5:6Z</time></trkpt>
<trkpt lat="49.3975639343261719" lon="0.4811709523200989"><ele></ele><time>2016-10-9T10:5:9Z</time></trkpt>
<trkpt lat="49.3974952697753906" lon="0.4813485741615295"><ele></ele><time>2016-10-9T10:5:12Z</time></trkpt>
<trkpt lat="49.3974075317382812" lon="0.4815726876258850"><ele></ele><time>2016-10-9T10:5:15Z</time></trkpt>
<trkpt lat="49.3973388671875000" lon="0.4818132519721985"><ele></ele><time>2016-10-9T10:5:18Z</time></trkpt>
<trkpt lat="49.3973083496093750" lon="0.4819510579109192"><ele></ele><time>2016-10-9T10:5:21Z</time></trkpt>
<trkpt lat="49.3972892761230469" lon="0.4820849895477295"><ele></ele><time>2016-10-9T10:5:24Z</time></trkpt>
<trkpt lat="49.3972740173339844" lon="0.4822880923748016"><ele></ele><time>2016-10-9T10:5:27Z</time></trkpt>
<trkpt lat="49.3972473144531250" lon="0.4824481010437012"><ele></ele><time>2016-10-9T10:5:30Z</time></trkpt>
<trkpt lat="49.3972282409667969" lon="0.4825744032859802"><ele></ele><time>2016-10-9T10:5:33Z</time></trkpt>
<trkpt lat="49.3971023559570312" lon="0.4830668568611145"><ele></ele><time>2016-10-9T10:5:36Z</time></trkpt>
<trkpt lat="49.3970451354980469" lon="0.4833810031414032"><ele></ele><time>2016-10-9T10:5:39Z</time></trkpt>
<trkpt lat="49.3969955444335938" lon="0.4836816489696503"><ele></ele><time>2016-10-9T10:5:42Z</time></trkpt>
<trkpt lat="49.3969459533691406" lon="0.4839431643486023"><ele></ele><time>2016-10-9T10:5:45Z</time></trkpt>
<trkpt lat="49.3969192504882812" lon="0.4841201901435852"><ele></ele><time>2016-10-9T10:5:48Z</time></trkpt>
<trkpt lat="49.3968620300292969" lon="0.4844009876251221"><ele></ele><time>2016-10-9T10:5:51Z</time></trkpt>
<trkpt lat="49.3968315124511719" lon="0.4846701323986053"><ele></ele><time>2016-10-9T10:5:54Z</time></trkpt>
<trkpt lat="49.3968162536621094" lon="0.4848766624927521"><ele></ele><time>2016-10-9T10:5:57Z</time></trkpt>
<trkpt lat="49.3968048095703125" lon="0.4851011335849762"><ele></ele><time>2016-10-9T10:6:0Z</time></trkpt>
<trkpt lat="49.3968124389648438" lon="0.4852234423160553"><ele></ele><time>2016-10-9T10:6:3Z</time></trkpt>
<trkpt lat="49.3967475891113281" lon="0.4855112731456757"><ele></ele><time>2016-10-9T10:6:6Z</time></trkpt>
<trkpt lat="49.3967399597167969" lon="0.4856398403644562"><ele></ele><time>2016-10-9T10:6:9Z</time></trkpt>
<trkpt lat="49.3967247009277344" lon="0.4858425259590149"><ele></ele><time>2016-10-9T10:6:12Z</time></trkpt>
<trkpt lat="49.3967208862304688" lon="0.4860663115978241"><ele></ele><time>2016-10-9T10:6:15Z</time></trkpt>
<trkpt lat="49.3967094421386719" lon="0.4863014221191406"><ele></ele><time>2016-10-9T10:6:18Z</time></trkpt>
<trkpt lat="49.3966979980468750" lon="0.4864618480205536"><ele></ele><time>2016-10-9T10:6:21Z</time></trkpt>
<trkpt lat="49.3966026306152344" lon="0.4871622622013092"><ele></ele><time>2016-10-9T10:6:24Z</time></trkpt>
<trkpt lat="49.3965988159179688" lon="0.4873862862586975"><ele></ele><time>2016-10-9T10:6:27Z</time></trkpt>
<trkpt lat="49.3965950012207031" lon="0.4875861108303070"><ele></ele><time>2016-10-9T10:6:30Z</time></trkpt>
<trkpt lat="49.3965911865234375" lon="0.4878855943679810"><ele></ele><time>2016-10-9T10:6:33Z</time></trkpt>
<trkpt lat="49.3965835571289062" lon="0.4881775379180908"><ele></ele><time>2016-10-9T10:6:36Z</time></trkpt>
<trkpt lat="49.3965721130371094" lon="0.4884073734283447"><ele></ele><time>2016-10-9T10:6:39Z</time></trkpt>
<trkpt lat="49.3965797424316406" lon="0.4885707497596741"><ele></ele><time>2016-10-9T10:6:42Z</time></trkpt>
<trkpt lat="49.3965606689453125" lon="0.4888294935226440"><ele></ele><time>2016-10-9T10:6:45Z</time></trkpt>
<trkpt lat="49.3965530395507812" lon="0.4889830350875854"><ele></ele><time>2016-10-9T10:6:48Z</time></trkpt>
<trkpt lat="49.3965225219726562" lon="0.4891543686389923"><ele></ele><time>2016-10-9T10:6:51Z</time></trkpt>
<trkpt lat="49.3964767456054688" lon="0.4894259572029114"><ele></ele><time>2016-10-9T10:6:54Z</time></trkpt>
<trkpt lat="49.3964538574218750" lon="0.4896209836006165"><ele></ele><time>2016-10-9T10:6:57Z</time></trkpt>
<trkpt lat="49.3964195251464844" lon="0.4898148775100708"><ele></ele><time>2016-10-9T10:7:0Z</time></trkpt>
<trkpt lat="49.3963737487792969" lon="0.4900746941566467"><ele></ele><time>2016-10-9T10:7:3Z</time></trkpt>
<trkpt lat="49.3963088989257812" lon="0.4902837574481964"><ele></ele><time>2016-10-9T10:7:6Z</time></trkpt>
<trkpt lat="49.3962821960449219" lon="0.4904547333717346"><ele></ele><time>2016-10-9T10:7:9Z</time></trkpt>
<trkpt lat="49.3962211608886719" lon="0.4907213747501373"><ele></ele><time>2016-10-9T10:7:12Z</time></trkpt>
<trkpt lat="49.3961601257324219" lon="0.4910028278827667"><ele></ele><time>2016-10-9T10:7:15Z</time></trkpt>
<trkpt lat="49.3961524963378906" lon="0.4911881685256958"><ele></ele><time>2016-10-9T10:7:18Z</time></trkpt>
<trkpt lat="49.3961372375488281" lon="0.4914636015892029"><ele></ele><time>2016-10-9T10:7:21Z</time></trkpt>
<trkpt lat="49.3961296081542969" lon="0.4917134642601013"><ele></ele><time>2016-10-9T10:7:24Z</time></trkpt>
<trkpt lat="49.3961067199707031" lon="0.4918803274631500"><ele></ele><time>2016-10-9T10:7:27Z</time></trkpt>
<trkpt lat="49.3960876464843750" lon="0.4921116828918457"><ele></ele><time>2016-10-9T10:7:30Z</time></trkpt>
<trkpt lat="49.3960762023925781" lon="0.4922539293766022"><ele></ele><time>2016-10-9T10:7:33Z</time></trkpt>
<trkpt lat="49.3960762023925781" lon="0.4924269318580627"><ele></ele><time>2016-10-9T10:7:36Z</time></trkpt>
<trkpt lat="49.3960838317871094" lon="0.4925995171070099"><ele></ele><time>2016-10-9T10:7:39Z</time></trkpt>
<trkpt lat="49.3960914611816406" lon="0.4927299320697784"><ele></ele><time>2016-10-9T10:7:42Z</time></trkpt>
<trkpt lat="49.3961143493652344" lon="0.4929481148719788"><ele></ele><time>2016-10-9T10:7:45Z</time></trkpt>
<trkpt lat="49.3961257934570312" lon="0.4931679666042328"><ele></ele><time>2016-10-9T10:7:48Z</time></trkpt>
<trkpt lat="49.3961524963378906" lon="0.4933952689170837"><ele></ele><time>2016-10-9T10:7:51Z</time></trkpt>
<trkpt lat="49.3961791992187500" lon="0.4935517013072968"><ele></ele><time>2016-10-9T10:7:54Z</time></trkpt>
<trkpt lat="49.3961753845214844" lon="0.4937734007835388"><ele></ele><time>2016-10-9T10:7:57Z</time></trkpt>
<trkpt lat="49.3961868286132812" lon="0.4940193891525269"><ele></ele><time>2016-10-9T10:8:0Z</time></trkpt>
<trkpt lat="49.3961944580078125" lon="0.4941425323486328"><ele></ele><time>2016-10-9T10:8:3Z</time></trkpt>
<trkpt lat="49.3962249755859375" lon="0.4943695068359375"><ele></ele><time>2016-10-9T10:8:6Z</time></trkpt>
<trkpt lat="49.3962364196777344" lon="0.4946020245552063"><ele></ele><time>2016-10-9T10:8:9Z</time></trkpt>
<trkpt lat="49.3962669372558594" lon="0.4947911202907562"><ele></ele><time>2016-10-9T10:8:12Z</time></trkpt>
<trkpt lat="49.3962783813476562" lon="0.4949429035186768"><ele></ele><time>2016-10-9T10:8:15Z</time></trkpt>
<trkpt lat="49.3962821960449219" lon="0.4951709806919098"><ele></ele><time>2016-10-9T10:8:18Z</time></trkpt>
<trkpt lat="49.3963203430175781" lon="0.4954220354557037"><ele></ele><time>2016-10-9T10:8:21Z</time></trkpt>
<trkpt lat="49.3963356018066406" lon="0.4955794513225555"><ele></ele><time>2016-10-9T10:8:24Z</time></trkpt>
<trkpt lat="49.3963241577148438" lon="0.4958696961402893"><ele></ele><time>2016-10-9T10:8:27Z</time></trkpt>
<trkpt lat="49.3963508605957031" lon="0.4961428642272949"><ele></ele><time>2016-10-9T10:8:30Z</time></trkpt>
<trkpt lat="49.3963813781738281" lon="0.4962835311889648"><ele></ele><time>2016-10-9T10:8:33Z</time></trkpt>
<trkpt lat="49.3964004516601562" lon="0.4964786469936371"><ele></ele><time>2016-10-9T10:8:36Z</time></trkpt>
<trkpt lat="49.3964195251464844" lon="0.4967240691184998"><ele></ele><time>2016-10-9T10:8:39Z</time></trkpt>
<trkpt lat="49.3964233398437500" lon="0.4969790577888489"><ele></ele><time>2016-10-9T10:8:42Z</time></trkpt>
<trkpt lat="49.3964271545410156" lon="0.4971731007099152"><ele></ele><time>2016-10-9T10:8:45Z</time></trkpt>
<trkpt lat="49.3964462280273438" lon="0.4974180161952972"><ele></ele><time>2016-10-9T10:8:48Z</time></trkpt>
<trkpt lat="49.3964576721191406" lon="0.4976023137569427"><ele></ele><time>2016-10-9T10:8:51Z</time></trkpt>
<trkpt lat="49.3964729309082031" lon="0.4978414773941040"><ele></ele><time>2016-10-9T10:8:54Z</time></trkpt>
<trkpt lat="49.3964843750000000" lon="0.4980137050151825"><ele></ele><time>2016-10-9T10:8:57Z</time></trkpt>
<trkpt lat="49.3964996337890625" lon="0.4982688426971436"><ele></ele><time>2016-10-9T10:9:0Z</time></trkpt>
<trkpt lat="49.3965034484863281" lon="0.4985140264034271"><ele></ele><time>2016-10-9T10:9:3Z</time></trkpt>
<trkpt lat="49.3965148925781250" lon="0.4987043738365173"><ele></ele><time>2016-10-9T10:9:6Z</time></trkpt>
<trkpt lat="49.3965148925781250" lon="0.4989665746688843"><ele></ele><time>2016-10-9T10:9:9Z</time></trkpt>
<trkpt lat="49.3965377807617188" lon="0.4991976618766785"><ele></ele><time>2016-10-9T10:9:12Z</time></trkpt>
<trkpt lat="49.3965339660644531" lon="0.4993551373481750"><ele></ele><time>2016-10-9T10:9:15Z</time></trkpt>
<trkpt lat="49.3965339660644531" lon="0.4995196163654327"><ele></ele><time>2016-10-9T10:9:18Z</time></trkpt>
<trkpt lat="49.3965568542480469" lon="0.4996861517429352"><ele></ele><time>2016-10-9T10:9:21Z</time></trkpt>
<trkpt lat="49.3965759277343750" lon="0.4999369382858276"><ele></ele><time>2016-10-9T10:9:24Z</time></trkpt>
<trkpt lat="49.3965911865234375" lon="0.5002086162567139"><ele></ele><time>2016-10-9T10:9:27Z</time></trkpt>
<trkpt lat="49.3965873718261719" lon="0.5004463195800781"><ele></ele><time>2016-10-9T10:9:30Z</time></trkpt>
<trkpt lat="49.3965950012207031" lon="0.5006427764892578"><ele></ele><time>2016-10-9T10:9:33Z</time></trkpt>
<trkpt lat="49.3965950012207031" lon="0.5008551478385925"><ele></ele><time>2016-10-9T10:9:36Z</time></trkpt>
<trkpt lat="49.3966140747070312" lon="0.5011227130889893"><ele></ele><time>2016-10-9T10:9:39Z</time></trkpt>
<trkpt lat="49.3966407775878906" lon="0.5013894438743591"><ele></ele><time>2016-10-9T10:9:42Z</time></trkpt>
<trkpt lat="49.3966522216796875" lon="0.5015600323677063"><ele></ele><time>2016-10-9T10:9:45Z</time></trkpt>
<trkpt lat="49.3966827392578125" lon="0.5018370151519775"><ele></ele><time>2016-10-9T10:9:48Z</time></trkpt>
<trkpt lat="49.3966751098632812" lon="0.5021015405654907"><ele></ele><time>2016-10-9T10:9:51Z</time></trkpt>
<trkpt lat="49.3967018127441406" lon="0.5023217797279358"><ele></ele><time>2016-10-9T10:9:54Z</time></trkpt>
<trkpt lat="49.3966979980468750" lon="0.5025784373283386"><ele></ele><time>2016-10-9T10:9:57Z</time></trkpt>
<trkpt lat="49.3967170715332031" lon="0.5027301907539368"><ele></ele><time>2016-10-9T10:10:0Z</time></trkpt>
<trkpt lat="49.3967628479003906" lon="0.5028839111328125"><ele></ele><time>2016-10-9T10:10:3Z</time></trkpt>
<trkpt lat="49.3968353271484375" lon="0.5031130909919739"><ele></ele><time>2016-10-9T10:10:6Z</time></trkpt>
<trkpt lat="49.3968849182128906" lon="0.5032923221588135"><ele></ele><time>2016-10-9T10:10:9Z</time></trkpt>
<trkpt lat="49.3969612121582031" lon="0.5034745931625366"><ele></ele><time>2016-10-9T10:10:12Z</time></trkpt>
<trkpt lat="49.3970184326171875" lon="0.5036848783493042"><ele></ele><time>2016-10-9T10:10:15Z</time></trkpt>
<trkpt lat="49.3970985412597656" lon="0.5039146542549133"><ele></ele><time>2016-10-9T10:10:18Z</time></trkpt>
<trkpt lat="49.3971252441406250" lon="0.5040993690490723"><ele></ele><time>2016-10-9T10:10:21Z</time></trkpt>
<trkpt lat="49.3971862792968750" lon="0.5043582320213318"><ele></ele><time>2016-10-9T10:10:24Z</time></trkpt>
<trkpt lat="49.3972129821777344" lon="0.5046342611312866"><ele></ele><time>2016-10-9T10:10:27Z</time></trkpt>
<trkpt lat="49.3972396850585938" lon="0.5048796534538269"><ele></ele><time>2016-10-9T10:10:30Z</time></trkpt>
<trkpt lat="49.3972587585449219" lon="0.5050297975540161"><ele></ele><time>2016-10-9T10:10:33Z</time></trkpt>
<trkpt lat="49.3972587585449219" lon="0.5052714943885803"><ele></ele><time>2016-10-9T10:10:36Z</time></trkpt>
<trkpt lat="49.3972740173339844" lon="0.5054259896278381"><ele></ele><time>2016-10-9T10:10:39Z</time></trkpt>
<trkpt lat="49.3972892761230469" lon="0.5055639743804932"><ele></ele><time>2016-10-9T10:10:42Z</time></trkpt>
<trkpt lat="49.3973045349121094" lon="0.5057390332221985"><ele></ele><time>2016-10-9T10:10:45Z</time></trkpt>
<trkpt lat="49.3973693847656250" lon="0.5059877634048462"><ele></ele><time>2016-10-9T10:10:48Z</time></trkpt>
<trkpt lat="49.3973922729492188" lon="0.5062538981437683"><ele></ele><time>2016-10-9T10:10:51Z</time></trkpt>
<trkpt lat="49.3974151611328125" lon="0.5065246224403381"><ele></ele><time>2016-10-9T10:10:54Z</time></trkpt>
<trkpt lat="49.3974456787109375" lon="0.5067451596260071"><ele></ele><time>2016-10-9T10:10:57Z</time></trkpt>
<trkpt lat="49.3974494934082031" lon="0.5068987011909485"><ele></ele><time>2016-10-9T10:11:0Z</time></trkpt>
<trkpt lat="49.3974838256835938" lon="0.5071549415588379"><ele></ele><time>2016-10-9T10:11:3Z</time></trkpt>
<trkpt lat="49.3975181579589844" lon="0.5073181390762329"><ele></ele><time>2016-10-9T10:11:6Z</time></trkpt>
<trkpt lat="49.3975296020507812" lon="0.5075811743736267"><ele></ele><time>2016-10-9T10:11:9Z</time></trkpt>
<trkpt lat="49.3975486755371094" lon="0.5078115463256836"><ele></ele><time>2016-10-9T10:11:12Z</time></trkpt>
<trkpt lat="49.3975639343261719" lon="0.5080650448799133"><ele></ele><time>2016-10-9T10:11:15Z</time></trkpt>
<trkpt lat="49.3975944519042969" lon="0.5083250999450684"><ele></ele><time>2016-10-9T10:11:18Z</time></trkpt>
<trkpt lat="49.3976020812988281" lon="0.5084850788116455"><ele></ele><time>2016-10-9T10:11:21Z</time></trkpt>
<trkpt lat="49.3975944519042969" lon="0.5086487531661987"><ele></ele><time>2016-10-9T10:11:24Z</time></trkpt>
<trkpt lat="49.3976020812988281" lon="0.5088784098625183"><ele></ele><time>2016-10-9T10:11:27Z</time></trkpt>
<trkpt lat="49.3976058959960938" lon="0.5090367794036865"><ele></ele><time>2016-10-9T10:11:30Z</time></trkpt>
<trkpt lat="49.3976058959960938" lon="0.5092096924781799"><ele></ele><time>2016-10-9T10:11:33Z</time></trkpt>
<trkpt lat="49.3975868225097656" lon="0.5094481110572815"><ele></ele><time>2016-10-9T10:11:36Z</time></trkpt>
<trkpt lat="49.3975639343261719" lon="0.5096833109855652"><ele></ele><time>2016-10-9T10:11:39Z</time></trkpt>
<trkpt lat="49.3975296020507812" lon="0.5099121332168579"><ele></ele><time>2016-10-9T10:11:42Z</time></trkpt>
<trkpt lat="49.3974952697753906" lon="0.5100794434547424"><ele></ele><time>2016-10-9T10:11:45Z</time></trkpt>
<trkpt lat="49.3974952697753906" lon="0.5102704167366028"><ele></ele><time>2016-10-9T10:11:48Z</time></trkpt>
<trkpt lat="49.3974647521972656" lon="0.5104282498359680"><ele></ele><time>2016-10-9T10:11:51Z</time></trkpt>
<trkpt lat="49.3974380493164062" lon="0.5105742216110229"><ele></ele><time>2016-10-9T10:11:54Z</time></trkpt>
<trkpt lat="49.3974151611328125" lon="0.5108848810195923"><ele></ele><time>2016-10-9T10:11:57Z</time></trkpt>
<trkpt lat="49.3974266052246094" lon="0.5110470056533813"><ele></ele><time>2016-10-9T10:12:0Z</time></trkpt>
<trkpt lat="49.3974113464355469" lon="0.5112676620483398"><ele></ele><time>2016-10-9T10:12:3Z</time></trkpt>
<trkpt lat="49.3974113464355469" lon="0.5115064978599548"><ele></ele><time>2016-10-9T10:12:6Z</time></trkpt>
<trkpt lat="49.3974189758300781" lon="0.5116909742355347"><ele></ele><time>2016-10-9T10:12:9Z</time></trkpt>
<trkpt lat="49.3973846435546875" lon="0.5119631290435791"><ele></ele><time>2016-10-9T10:12:12Z</time></trkpt>
<trkpt lat="49.3973922729492188" lon="0.5121530890464783"><ele></ele><time>2016-10-9T10:12:15Z</time></trkpt>
<trkpt lat="49.3973960876464844" lon="0.5123301744461060"><ele></ele><time>2016-10-9T10:12:18Z</time></trkpt>
<trkpt lat="49.3974075317382812" lon="0.5124979615211487"><ele></ele><time>2016-10-9T10:12:21Z</time></trkpt>
<trkpt lat="49.3974189758300781" lon="0.5127430558204651"><ele></ele><time>2016-10-9T10:12:24Z</time></trkpt>
<trkpt lat="49.3974494934082031" lon="0.5129149556159973"><ele></ele><time>2016-10-9T10:12:27Z</time></trkpt>
<trkpt lat="49.3974838256835938" lon="0.5131778120994568"><ele></ele><time>2016-10-9T10:12:30Z</time></trkpt>
<trkpt lat="49.3975296020507812" lon="0.5134097337722778"><ele></ele><time>2016-10-9T10:12:33Z</time></trkpt>
<trkpt lat="49.3975677490234375" lon="0.5135518312454224"><ele></ele><time>2016-10-9T10:12:36Z</time></trkpt>
<trkpt lat="49.3975982666015625" lon="0.5137946009635925"><ele></ele><time>2016-10-9T10:12:39Z</time></trkpt>
<trkpt lat="49.3976173400878906" lon="0.5139559507369995"><ele></ele><time>2016-10-9T10:12:42Z</time></trkpt>
<trkpt lat="49.3976554870605469" lon="0.5141783952713013"><ele></ele><time>2016-10-9T10:12:45Z</time></trkpt>
<trkpt lat="49.3976745605468750" lon="0.5143516063690186"><ele></ele><time>2016-10-9T10:12:48Z</time></trkpt>
<trkpt lat="49.3976936340332031" lon="0.5145978331565857"><ele></ele><time>2016-10-9T10:12:51Z</time></trkpt>
<trkpt lat="49.3977203369140625" lon="0.5148476958274841"><ele></ele><time>2016-10-9T10:12:54Z</time></trkpt>
<trkpt lat="49.3977470397949219" lon="0.5150361657142639"><ele></ele><time>2016-10-9T10:12:57Z</time></trkpt>
<trkpt lat="49.3977546691894531" lon="0.5152906775474548"><ele></ele><time>2016-10-9T10:13:0Z</time></trkpt>
<trkpt lat="49.3977890014648438" lon="0.5154556035995483"><ele></ele><time>2016-10-9T10:13:3Z</time></trkpt>
<trkpt lat="49.3977890014648438" lon="0.5157147049903870"><ele></ele><time>2016-10-9T10:13:6Z</time></trkpt>
<trkpt lat="49.3978118896484375" lon="0.5159662961959839"><ele></ele><time>2016-10-9T10:13:9Z</time></trkpt>
<trkpt lat="49.3978080749511719" lon="0.5161181092262268"><ele></ele><time>2016-10-9T10:13:12Z</time></trkpt>
<trkpt lat="49.3978309631347656" lon="0.5162779688835144"><ele></ele><time>2016-10-9T10:13:15Z</time></trkpt>
<trkpt lat="49.3978767395019531" lon="0.5165183544158936"><ele></ele><time>2016-10-9T10:13:18Z</time></trkpt>
<trkpt lat="49.3978919982910156" lon="0.5166594386100769"><ele></ele><time>2016-10-9T10:13:21Z</time></trkpt>
<trkpt lat="49.3978958129882812" lon="0.5168581604957581"><ele></ele><time>2016-10-9T10:13:24Z</time></trkpt>
<trkpt lat="49.3979072570800781" lon="0.5170999765396118"><ele></ele><time>2016-10-9T10:13:27Z</time></trkpt>
<trkpt lat="49.3979225158691406" lon="0.5173527598381042"><ele></ele><time>2016-10-9T10:13:30Z</time></trkpt>
<trkpt lat="49.3979339599609375" lon="0.5175540447235107"><ele></ele><time>2016-10-9T10:13:33Z</time></trkpt>
<trkpt lat="49.3979377746582031" lon="0.5177177190780640"><ele></ele><time>2016-10-9T10:13:36Z</time></trkpt>
<trkpt lat="49.3979454040527344" lon="0.5179589390754700"><ele></ele><time>2016-10-9T10:13:39Z</time></trkpt>
<trkpt lat="49.3979377746582031" lon="0.5181054472923279"><ele></ele><time>2016-10-9T10:13:42Z</time></trkpt>
<trkpt lat="49.3979377746582031" lon="0.5183469653129578"><ele></ele><time>2016-10-9T10:13:45Z</time></trkpt>
<trkpt lat="49.3979263305664062" lon="0.5185276865959167"><ele></ele><time>2016-10-9T10:13:48Z</time></trkpt>
<trkpt lat="49.3979301452636719" lon="0.5187732577323914"><ele></ele><time>2016-10-9T10:13:51Z</time></trkpt>
<trkpt lat="49.3979263305664062" lon="0.5188996791839600"><ele></ele><time>2016-10-9T10:13:54Z</time></trkpt>
<trkpt lat="49.3979225158691406" lon="0.5191413164138794"><ele></ele><time>2016-10-9T10:13:57Z</time></trkpt>
<trkpt lat="49.3979148864746094" lon="0.5193194150924683"><ele></ele><time>2016-10-9T10:14:0Z</time></trkpt>
<trkpt lat="49.3979377746582031" lon="0.5195892453193665"><ele></ele><time>2016-10-9T10:14:3Z</time></trkpt>
<trkpt lat="49.3979415893554688" lon="0.5198562741279602"><ele></ele><time>2016-10-9T10:14:6Z</time></trkpt>
<trkpt lat="49.3979797363281250" lon="0.5199922919273376"><ele></ele><time>2016-10-9T10:14:9Z</time></trkpt>
<trkpt lat="49.3979644775390625" lon="0.5202459692955017"><ele></ele><time>2016-10-9T10:14:12Z</time></trkpt>
<trkpt lat="49.3979797363281250" lon="0.5205035209655762"><ele></ele><time>2016-10-9T10:14:15Z</time></trkpt>
<trkpt lat="49.3979911804199219" lon="0.5207480192184448"><ele></ele><time>2016-10-9T10:14:18Z</time></trkpt>
<trkpt lat="49.3980026245117188" lon="0.5209807753562927"><ele></ele><time>2016-10-9T10:14:21Z</time></trkpt>
<trkpt lat="49.3980484008789062" lon="0.5212203264236450"><ele></ele><time>2016-10-9T10:14:24Z</time></trkpt>
<trkpt lat="49.3981018066406250" lon="0.5214719176292419"><ele></ele><time>2016-10-9T10:14:27Z</time></trkpt>
<trkpt lat="49.3981361389160156" lon="0.5216268897056580"><ele></ele><time>2016-10-9T10:14:30Z</time></trkpt>
<trkpt lat="49.3981819152832031" lon="0.5217953324317932"><ele></ele><time>2016-10-9T10:14:33Z</time></trkpt>
<trkpt lat="49.3982124328613281" lon="0.5219582915306091"><ele></ele><time>2016-10-9T10:14:36Z</time></trkpt>
<trkpt lat="49.3982505798339844" lon="0.5222207307815552"><ele></ele><time>2016-10-9T10:14:39Z</time></trkpt>
<trkpt lat="49.3982734680175781" lon="0.5223812460899353"><ele></ele><time>2016-10-9T10:14:42Z</time></trkpt>
<trkpt lat="49.3983116149902344" lon="0.5226123929023743"><ele></ele><time>2016-10-9T10:14:45Z</time></trkpt>
<trkpt lat="49.3983345031738281" lon="0.5228522419929504"><ele></ele><time>2016-10-9T10:14:48Z</time></trkpt>
<trkpt lat="49.3983497619628906" lon="0.5231212973594666"><ele></ele><time>2016-10-9T10:14:51Z</time></trkpt>
<trkpt lat="49.3983612060546875" lon="0.5232861638069153"><ele></ele><time>2016-10-9T10:14:54Z</time></trkpt>
<trkpt lat="49.3983688354492188" lon="0.5235240459442139"><ele></ele><time>2016-10-9T10:14:57Z</time></trkpt>
<trkpt lat="49.3983688354492188" lon="0.5236721634864807"><ele></ele><time>2016-10-9T10:15:0Z</time></trkpt>
<trkpt lat="49.3983573913574219" lon="0.5239053368568420"><ele></ele><time>2016-10-9T10:15:3Z</time></trkpt>
<trkpt lat="49.3983612060546875" lon="0.5240701436996460"><ele></ele><time>2016-10-9T10:15:6Z</time></trkpt>
<trkpt lat="49.3983726501464844" lon="0.5242313146591187"><ele></ele><time>2016-10-9T10:15:9Z</time></trkpt>
<trkpt lat="49.3983840942382812" lon="0.5244736075401306"><ele></ele><time>2016-10-9T10:15:12Z</time></trkpt>
<trkpt lat="49.3983840942382812" lon="0.5246307849884033"><ele></ele><time>2016-10-9T10:15:15Z</time></trkpt>
<trkpt lat="49.3983764648437500" lon="0.5248721837997437"><ele></ele><time>2016-10-9T10:15:18Z</time></trkpt>
<trkpt lat="49.3983764648437500" lon="0.5251129269599915"><ele></ele><time>2016-10-9T10:15:21Z</time></trkpt>
<trkpt lat="49.3983764648437500" lon="0.5252559781074524"><ele></ele><time>2016-10-9T10:15:24Z</time></trkpt>
<trkpt lat="49.3983726501464844" lon="0.5254923701286316"><ele></ele><time>2016-10-9T10:15:27Z</time></trkpt>
<trkpt lat="49.3983726501464844" lon="0.5256514549255371"><ele></ele><time>2016-10-9T10:15:30Z</time></trkpt>
<trkpt lat="49.3983764648437500" lon="0.5258840322494507"><ele></ele><time>2016-10-9T10:15:33Z</time></trkpt>
<trkpt lat="49.3983802795410156" lon="0.5266977548599243"><ele></ele><time>2016-10-9T10:15:36Z</time></trkpt>
<trkpt lat="49.3983840942382812" lon="0.5269303321838379"><ele></ele><time>2016-10-9T10:15:39Z</time></trkpt>
<trkpt lat="49.3983879089355469" lon="0.5271667838096619"><ele></ele><time>2016-10-9T10:15:42Z</time></trkpt>
<trkpt lat="49.3983955383300781" lon="0.5273203849792480"><ele></ele><time>2016-10-9T10:15:45Z</time></trkpt>
<trkpt lat="49.3983955383300781" lon="0.5275486707687378"><ele></ele><time>2016-10-9T10:15:48Z</time></trkpt>
<trkpt lat="49.3984031677246094" lon="0.5277816057205200"><ele></ele><time>2016-10-9T10:15:51Z</time></trkpt>
<trkpt lat="49.3984069824218750" lon="0.5279388427734375"><ele></ele><time>2016-10-9T10:15:54Z</time></trkpt>
<trkpt lat="49.3984260559082031" lon="0.5281824469566345"><ele></ele><time>2016-10-9T10:15:57Z</time></trkpt>
<trkpt lat="49.3984222412109375" lon="0.5283377766609192"><ele></ele><time>2016-10-9T10:16:0Z</time></trkpt>
<trkpt lat="49.3984336853027344" lon="0.5285824537277222"><ele></ele><time>2016-10-9T10:16:3Z</time></trkpt>
<trkpt lat="49.3984375000000000" lon="0.5288354754447937"><ele></ele><time>2016-10-9T10:16:6Z</time></trkpt>
<trkpt lat="49.3984451293945312" lon="0.5290054678916931"><ele></ele><time>2016-10-9T10:16:9Z</time></trkpt>
<trkpt lat="49.3984375000000000" lon="0.5292302370071411"><ele></ele><time>2016-10-9T10:16:12Z</time></trkpt>
<trkpt lat="49.3984336853027344" lon="0.5294553041458130"><ele></ele><time>2016-10-9T10:16:15Z</time></trkpt>
<trkpt lat="49.3984413146972656" lon="0.5295968055725098"><ele></ele><time>2016-10-9T10:16:18Z</time></trkpt>
<trkpt lat="49.3984489440917969" lon="0.5297967791557312"><ele></ele><time>2016-10-9T10:16:21Z</time></trkpt>
<trkpt lat="49.3984336853027344" lon="0.5300050973892212"><ele></ele><time>2016-10-9T10:16:24Z</time></trkpt>
<trkpt lat="49.3984260559082031" lon="0.5301441550254822"><ele></ele><time>2016-10-9T10:16:27Z</time></trkpt>
<trkpt lat="49.3984069824218750" lon="0.5303839445114136"><ele></ele><time>2016-10-9T10:16:30Z</time></trkpt>
<trkpt lat="49.3983955383300781" lon="0.5306331515312195"><ele></ele><time>2016-10-9T10:16:33Z</time></trkpt>
<trkpt lat="49.3984107971191406" lon="0.5308670997619629"><ele></ele><time>2016-10-9T10:16:36Z</time></trkpt>
<trkpt lat="49.3984107971191406" lon="0.5310365557670593"><ele></ele><time>2016-10-9T10:16:39Z</time></trkpt>
<trkpt lat="49.3984298706054688" lon="0.5312125682830811"><ele></ele><time>2016-10-9T10:16:42Z</time></trkpt>
<trkpt lat="49.3984603881835938" lon="0.5314571857452393"><ele></ele><time>2016-10-9T10:16:45Z</time></trkpt>
<trkpt lat="49.3985137939453125" lon="0.5317050814628601"><ele></ele><time>2016-10-9T10:16:48Z</time></trkpt>
<trkpt lat="49.3985671997070312" lon="0.5319474935531616"><ele></ele><time>2016-10-9T10:16:51Z</time></trkpt>
<trkpt lat="49.3986015319824219" lon="0.5321205258369446"><ele></ele><time>2016-10-9T10:16:54Z</time></trkpt>
<trkpt lat="49.3986511230468750" lon="0.5323789119720459"><ele></ele><time>2016-10-9T10:16:57Z</time></trkpt>
<trkpt lat="49.3987045288085938" lon="0.5326311588287354"><ele></ele><time>2016-10-9T10:17:0Z</time></trkpt>
<trkpt lat="49.3987503051757812" lon="0.5328627228736877"><ele></ele><time>2016-10-9T10:17:3Z</time></trkpt>
<trkpt lat="49.3987884521484375" lon="0.5330487489700317"><ele></ele><time>2016-10-9T10:17:6Z</time></trkpt>
<trkpt lat="49.3988456726074219" lon="0.5332755446434021"><ele></ele><time>2016-10-9T10:17:9Z</time></trkpt>
<trkpt lat="49.3988800048828125" lon="0.5334787964820862"><ele></ele><time>2016-10-9T10:17:12Z</time></trkpt>
<trkpt lat="49.3989105224609375" lon="0.5336384177207947"><ele></ele><time>2016-10-9T10:17:15Z</time></trkpt>
<trkpt lat="49.3989410400390625" lon="0.5339145064353943"><ele></ele><time>2016-10-9T10:17:18Z</time></trkpt>
<trkpt lat="49.3989524841308594" lon="0.5341064929962158"><ele></ele><time>2016-10-9T10:17:21Z</time></trkpt>
<trkpt lat="49.3989944458007812" lon="0.5343717336654663"><ele></ele><time>2016-10-9T10:17:24Z</time></trkpt>
<trkpt lat="49.3990135192871094" lon="0.5345172286033630"><ele></ele><time>2016-10-9T10:17:27Z</time></trkpt>
<trkpt lat="49.3990402221679688" lon="0.5346832871437073"><ele></ele><time>2016-10-9T10:17:30Z</time></trkpt>
<trkpt lat="49.3990592956542969" lon="0.5349009633064270"><ele></ele><time>2016-10-9T10:17:33Z</time></trkpt>
<trkpt lat="49.3991127014160156" lon="0.5350930094718933"><ele></ele><time>2016-10-9T10:17:36Z</time></trkpt>
<trkpt lat="49.3991508483886719" lon="0.5352424383163452"><ele></ele><time>2016-10-9T10:17:39Z</time></trkpt>
<trkpt lat="49.3992156982421875" lon="0.5354974865913391"><ele></ele><time>2016-10-9T10:17:42Z</time></trkpt>
<trkpt lat="49.3992614746093750" lon="0.5356474518775940"><ele></ele><time>2016-10-9T10:17:45Z</time></trkpt>
<trkpt lat="49.3993530273437500" lon="0.5358690023422241"><ele></ele><time>2016-10-9T10:17:48Z</time></trkpt>
<trkpt lat="49.3994102478027344" lon="0.5360021591186523"><ele></ele><time>2016-10-9T10:17:51Z</time></trkpt>
<trkpt lat="49.3994903564453125" lon="0.5361430644989014"><ele></ele><time>2016-10-9T10:17:54Z</time></trkpt>
<trkpt lat="49.3995780944824219" lon="0.5363706350326538"><ele></ele><time>2016-10-9T10:17:57Z</time></trkpt>
<trkpt lat="49.3996467590332031" lon="0.5364708900451660"><ele></ele><time>2016-10-9T10:18:0Z</time></trkpt>
<trkpt lat="49.3997421264648438" lon="0.5365742444992065"><ele></ele><time>2016-10-9T10:18:3Z</time></trkpt>
<trkpt lat="49.3997573852539062" lon="0.5366282463073730"><ele></ele><time>2016-10-9T10:18:6Z</time></trkpt>
<trkpt lat="49.3997917175292969" lon="0.5367216467857361"><ele></ele><time>2016-10-9T10:18:9Z</time></trkpt>
<trkpt lat="49.3998451232910156" lon="0.5367785096168518"><ele></ele><time>2016-10-9T10:18:12Z</time></trkpt>
<trkpt lat="49.3998565673828125" lon="0.5368157029151917"><ele></ele><time>2016-10-9T10:18:15Z</time></trkpt>
<trkpt lat="49.3998832702636719" lon="0.5368616580963135"><ele></ele><time>2016-10-9T10:18:18Z</time></trkpt>
<trkpt lat="49.4000320434570312" lon="0.5369269251823425"><ele></ele><time>2016-10-9T10:18:21Z</time></trkpt>
<trkpt lat="49.4001426696777344" lon="0.5369629263877869"><ele></ele><time>2016-10-9T10:18:24Z</time></trkpt>
<trkpt lat="49.4002647399902344" lon="0.5369978547096252"><ele></ele><time>2016-10-9T10:18:27Z</time></trkpt>
<trkpt lat="49.4003677368164062" lon="0.5370374321937561"><ele></ele><time>2016-10-9T10:18:30Z</time></trkpt>
<trkpt lat="49.4004440307617188" lon="0.5370472073554993"><ele></ele><time>2016-10-9T10:18:33Z</time></trkpt>
<trkpt lat="49.4006271362304688" lon="0.5370814204216003"><ele></ele><time>2016-10-9T10:18:36Z</time></trkpt>
<trkpt lat="49.4008026123046875" lon="0.5371370911598206"><ele></ele><time>2016-10-9T10:18:39Z</time></trkpt>
<trkpt lat="49.4009742736816406" lon="0.5371676087379456"><ele></ele><time>2016-10-9T10:18:42Z</time></trkpt>
<trkpt lat="49.4010963439941406" lon="0.5371541976928711"><ele></ele><time>2016-10-9T10:18:45Z</time></trkpt>
<trkpt lat="49.4012718200683594" lon="0.5370936393737793"><ele></ele><time>2016-10-9T10:18:48Z</time></trkpt>
<trkpt lat="49.4013862609863281" lon="0.5370776653289795"><ele></ele><time>2016-10-9T10:18:51Z</time></trkpt>
<trkpt lat="49.4015312194824219" lon="0.5370333790779114"><ele></ele><time>2016-10-9T10:18:54Z</time></trkpt>
<trkpt lat="49.4016914367675781" lon="0.5369592905044556"><ele></ele><time>2016-10-9T10:18:57Z</time></trkpt>
<trkpt lat="49.4018669128417969" lon="0.5369037985801697"><ele></ele><time>2016-10-9T10:19:0Z</time></trkpt>
<trkpt lat="49.4019927978515625" lon="0.5368598103523254"><ele></ele><time>2016-10-9T10:19:3Z</time></trkpt>
<trkpt lat="49.4021530151367188" lon="0.5367915034294128"><ele></ele><time>2016-10-9T10:19:6Z</time></trkpt>
<trkpt lat="49.4023246765136719" lon="0.5367700457572937"><ele></ele><time>2016-10-9T10:19:9Z</time></trkpt>
<trkpt lat="49.4024963378906250" lon="0.5367621779441833"><ele></ele><time>2016-10-9T10:19:12Z</time></trkpt>
<trkpt lat="49.4026107788085938" lon="0.5367717742919922"><ele></ele><time>2016-10-9T10:19:15Z</time></trkpt>
<trkpt lat="49.4027404785156250" lon="0.5368027091026306"><ele></ele><time>2016-10-9T10:19:18Z</time></trkpt>
<trkpt lat="49.4029083251953125" lon="0.5368674993515015"><ele></ele><time>2016-10-9T10:19:21Z</time></trkpt>
<trkpt lat="49.4030799865722656" lon="0.5369293689727783"><ele></ele><time>2016-10-9T10:19:24Z</time></trkpt>
<trkpt lat="49.4032783508300781" lon="0.5369656682014465"><ele></ele><time>2016-10-9T10:19:27Z</time></trkpt>
<trkpt lat="49.4034957885742188" lon="0.5370900034904480"><ele></ele><time>2016-10-9T10:19:30Z</time></trkpt>
<trkpt lat="49.4036216735839844" lon="0.5371453762054443"><ele></ele><time>2016-10-9T10:19:33Z</time></trkpt>
<trkpt lat="49.4037818908691406" lon="0.5372308492660522"><ele></ele><time>2016-10-9T10:19:36Z</time></trkpt>
<trkpt lat="49.4039764404296875" lon="0.5373579263687134"><ele></ele><time>2016-10-9T10:19:39Z</time></trkpt>
<trkpt lat="49.4041404724121094" lon="0.5374749302864075"><ele></ele><time>2016-10-9T10:19:42Z</time></trkpt>
<trkpt lat="49.4042396545410156" lon="0.5375789999961853"><ele></ele><time>2016-10-9T10:19:45Z</time></trkpt>
<trkpt lat="49.4043388366699219" lon="0.5376766324043274"><ele></ele><time>2016-10-9T10:19:48Z</time></trkpt>
<trkpt lat="49.4044456481933594" lon="0.5377942919731140"><ele></ele><time>2016-10-9T10:19:51Z</time></trkpt>
<trkpt lat="49.4046211242675781" lon="0.5379604101181030"><ele></ele><time>2016-10-9T10:19:54Z</time></trkpt>
<trkpt lat="49.4047813415527344" lon="0.5381004810333252"><ele></ele><time>2016-10-9T10:19:57Z</time></trkpt>
<trkpt lat="49.4048995971679688" lon="0.5382120013237000"><ele></ele><time>2016-10-9T10:20:0Z</time></trkpt>
<trkpt lat="49.4050331115722656" lon="0.5383224487304688"><ele></ele><time>2016-10-9T10:20:3Z</time></trkpt>
<trkpt lat="49.4052047729492188" lon="0.5384464263916016"><ele></ele><time>2016-10-9T10:20:6Z</time></trkpt>
<trkpt lat="49.4052886962890625" lon="0.5384629964828491"><ele></ele><time>2016-10-9T10:20:9Z</time></trkpt>
<trkpt lat="49.4055900573730469" lon="0.5386435389518738"><ele></ele><time>2016-10-9T10:20:12Z</time></trkpt>
<trkpt lat="49.4058303833007812" lon="0.5388363599777222"><ele></ele><time>2016-10-9T10:20:15Z</time></trkpt>
<trkpt lat="49.4060745239257812" lon="0.5388607382774353"><ele></ele><time>2016-10-9T10:20:18Z</time></trkpt>
<trkpt lat="49.4062500000000000" lon="0.5389084219932556"><ele></ele><time>2016-10-9T10:20:21Z</time></trkpt>
<trkpt lat="49.4064865112304688" lon="0.5389124751091003"><ele></ele><time>2016-10-9T10:20:24Z</time></trkpt>
<trkpt lat="49.4066963195800781" lon="0.5389197468757629"><ele></ele><time>2016-10-9T10:20:27Z</time></trkpt>
<trkpt lat="49.4068946838378906" lon="0.5388969182968140"><ele></ele><time>2016-10-9T10:20:30Z</time></trkpt>
<trkpt lat="49.4070472717285156" lon="0.5388859510421753"><ele></ele><time>2016-10-9T10:20:33Z</time></trkpt>
<trkpt lat="49.4071846008300781" lon="0.5388345122337341"><ele></ele><time>2016-10-9T10:20:36Z</time></trkpt>
<trkpt lat="49.4074058532714844" lon="0.5387732982635498"><ele></ele><time>2016-10-9T10:20:39Z</time></trkpt>
<trkpt lat="49.4076080322265625" lon="0.5387609004974365"><ele></ele><time>2016-10-9T10:20:42Z</time></trkpt>
<trkpt lat="49.4078063964843750" lon="0.5387532711029053"><ele></ele><time>2016-10-9T10:20:45Z</time></trkpt>
<trkpt lat="49.4079627990722656" lon="0.5388026237487793"><ele></ele><time>2016-10-9T10:20:48Z</time></trkpt>
<trkpt lat="49.4081611633300781" lon="0.5388723611831665"><ele></ele><time>2016-10-9T10:20:51Z</time></trkpt>
<trkpt lat="49.4083671569824219" lon="0.5389745831489563"><ele></ele><time>2016-10-9T10:20:54Z</time></trkpt>
<trkpt lat="49.4085731506347656" lon="0.5391048789024353"><ele></ele><time>2016-10-9T10:20:57Z</time></trkpt>
<trkpt lat="49.4087181091308594" lon="0.5391500592231750"><ele></ele><time>2016-10-9T10:21:0Z</time></trkpt>
<trkpt lat="49.4088821411132812" lon="0.5392007231712341"><ele></ele><time>2016-10-9T10:21:3Z</time></trkpt>
<trkpt lat="49.4091110229492188" lon="0.5392284393310547"><ele></ele><time>2016-10-9T10:21:6Z</time></trkpt>
<trkpt lat="49.4093284606933594" lon="0.5391845107078552"><ele></ele><time>2016-10-9T10:21:9Z</time></trkpt>
<trkpt lat="49.4094810485839844" lon="0.5391820073127747"><ele></ele><time>2016-10-9T10:21:12Z</time></trkpt>
<trkpt lat="49.4096717834472656" lon="0.5391731262207031"><ele></ele><time>2016-10-9T10:21:15Z</time></trkpt>
<trkpt lat="49.4098739624023438" lon="0.5391482114791870"><ele></ele><time>2016-10-9T10:21:18Z</time></trkpt>
<trkpt lat="49.4100646972656250" lon="0.5391433835029602"><ele></ele><time>2016-10-9T10:21:21Z</time></trkpt>
<trkpt lat="49.4101600646972656" lon="0.5391427278518677"><ele></ele><time>2016-10-9T10:21:24Z</time></trkpt>
<trkpt lat="49.4103546142578125" lon="0.5391463041305542"><ele></ele><time>2016-10-9T10:21:27Z</time></trkpt>
<trkpt lat="49.4104537963867188" lon="0.5391291975975037"><ele></ele><time>2016-10-9T10:21:30Z</time></trkpt>
<trkpt lat="49.4106292724609375" lon="0.5391366481781006"><ele></ele><time>2016-10-9T10:21:33Z</time></trkpt>
<trkpt lat="49.4108619689941406" lon="0.5392447710037231"><ele></ele><time>2016-10-9T10:21:36Z</time></trkpt>
<trkpt lat="49.4110641479492188" lon="0.5393081903457642"><ele></ele><time>2016-10-9T10:21:39Z</time></trkpt>
<trkpt lat="49.4112358093261719" lon="0.5393681526184082"><ele></ele><time>2016-10-9T10:21:42Z</time></trkpt>
<trkpt lat="49.4113578796386719" lon="0.5393664240837097"><ele></ele><time>2016-10-9T10:21:45Z</time></trkpt>
<trkpt lat="49.4115257263183594" lon="0.5395482778549194"><ele></ele><time>2016-10-9T10:21:48Z</time></trkpt>
<trkpt lat="49.4116249084472656" lon="0.5396243929862976"><ele></ele><time>2016-10-9T10:21:51Z</time></trkpt>
<trkpt lat="49.4118041992187500" lon="0.5397152900695801"><ele></ele><time>2016-10-9T10:21:54Z</time></trkpt>
<trkpt lat="49.4118919372558594" lon="0.5397571921348572"><ele></ele><time>2016-10-9T10:21:57Z</time></trkpt>
<trkpt lat="49.4120674133300781" lon="0.5398432612419128"><ele></ele><time>2016-10-9T10:22:0Z</time></trkpt>
<trkpt lat="49.4122276306152344" lon="0.5399481058120728"><ele></ele><time>2016-10-9T10:22:3Z</time></trkpt>
<trkpt lat="49.4123992919921875" lon="0.5400348901748657"><ele></ele><time>2016-10-9T10:22:6Z</time></trkpt>
<trkpt lat="49.4125938415527344" lon="0.5401437282562256"><ele></ele><time>2016-10-9T10:22:9Z</time></trkpt>
<trkpt lat="49.4127731323242188" lon="0.5402265787124634"><ele></ele><time>2016-10-9T10:22:12Z</time></trkpt>
<trkpt lat="49.4129447937011719" lon="0.5403057932853699"><ele></ele><time>2016-10-9T10:22:15Z</time></trkpt>
<trkpt lat="49.4131126403808594" lon="0.5403667688369751"><ele></ele><time>2016-10-9T10:22:18Z</time></trkpt>
<trkpt lat="49.4132957458496094" lon="0.5404391288757324"><ele></ele><time>2016-10-9T10:22:21Z</time></trkpt>
<trkpt lat="49.4134292602539062" lon="0.5404948592185974"><ele></ele><time>2016-10-9T10:22:24Z</time></trkpt>
<trkpt lat="49.4136390686035156" lon="0.5405662655830383"><ele></ele><time>2016-10-9T10:22:27Z</time></trkpt>
<trkpt lat="49.4138526916503906" lon="0.5406435132026672"><ele></ele><time>2016-10-9T10:22:30Z</time></trkpt>
<trkpt lat="49.4140586853027344" lon="0.5407232046127319"><ele></ele><time>2016-10-9T10:22:33Z</time></trkpt>
<trkpt lat="49.4141883850097656" lon="0.5407824516296387"><ele></ele><time>2016-10-9T10:22:36Z</time></trkpt>
<trkpt lat="49.4143371582031250" lon="0.5408527851104736"><ele></ele><time>2016-10-9T10:22:39Z</time></trkpt>
<trkpt lat="49.4145355224609375" lon="0.5409975647926331"><ele></ele><time>2016-10-9T10:22:42Z</time></trkpt>
<trkpt lat="49.4146537780761719" lon="0.5411168336868286"><ele></ele><time>2016-10-9T10:22:45Z</time></trkpt>
<trkpt lat="49.4147491455078125" lon="0.5412711501121521"><ele></ele><time>2016-10-9T10:22:48Z</time></trkpt>
<trkpt lat="49.4148788452148438" lon="0.5414646863937378"><ele></ele><time>2016-10-9T10:22:51Z</time></trkpt>
<trkpt lat="49.4150314331054688" lon="0.5416883826255798"><ele></ele><time>2016-10-9T10:22:54Z</time></trkpt>
<trkpt lat="49.4151458740234375" lon="0.5418239831924438"><ele></ele><time>2016-10-9T10:22:57Z</time></trkpt>
<trkpt lat="49.4152488708496094" lon="0.5419731140136719"><ele></ele><time>2016-10-9T10:23:0Z</time></trkpt>
<trkpt lat="49.4153785705566406" lon="0.5421915650367737"><ele></ele><time>2016-10-9T10:23:3Z</time></trkpt>
<trkpt lat="49.4154815673828125" lon="0.5423392057418823"><ele></ele><time>2016-10-9T10:23:6Z</time></trkpt>
<trkpt lat="49.4156417846679688" lon="0.5425306558609009"><ele></ele><time>2016-10-9T10:23:9Z</time></trkpt>
<trkpt lat="49.4157218933105469" lon="0.5426451563835144"><ele></ele><time>2016-10-9T10:23:12Z</time></trkpt>
<trkpt lat="49.4158706665039062" lon="0.5428585410118103"><ele></ele><time>2016-10-9T10:23:15Z</time></trkpt>
<trkpt lat="49.4160041809082031" lon="0.5429843068122864"><ele></ele><time>2016-10-9T10:23:18Z</time></trkpt>
<trkpt lat="49.4161949157714844" lon="0.5431952476501465"><ele></ele><time>2016-10-9T10:23:21Z</time></trkpt>
<trkpt lat="49.4163017272949219" lon="0.5432818531990051"><ele></ele><time>2016-10-9T10:23:24Z</time></trkpt>
<trkpt lat="49.4164085388183594" lon="0.5433938503265381"><ele></ele><time>2016-10-9T10:23:27Z</time></trkpt>
<trkpt lat="49.4165687561035156" lon="0.5434393286705017"><ele></ele><time>2016-10-9T10:23:30Z</time></trkpt>
<trkpt lat="49.4166946411132812" lon="0.5434776544570923"><ele></ele><time>2016-10-9T10:23:33Z</time></trkpt>
<trkpt lat="49.4168319702148438" lon="0.5434995889663696"><ele></ele><time>2016-10-9T10:23:36Z</time></trkpt>
<trkpt lat="49.4170455932617188" lon="0.5435096025466919"><ele></ele><time>2016-10-9T10:23:39Z</time></trkpt>
<trkpt lat="49.4171867370605469" lon="0.5435146093368530"><ele></ele><time>2016-10-9T10:23:42Z</time></trkpt>
<trkpt lat="49.4173774719238281" lon="0.5436099171638489"><ele></ele><time>2016-10-9T10:23:45Z</time></trkpt>
<trkpt lat="49.4174804687500000" lon="0.5437346696853638"><ele></ele><time>2016-10-9T10:23:48Z</time></trkpt>
<trkpt lat="49.4176940917968750" lon="0.5442722439765930"><ele></ele><time>2016-10-9T10:23:51Z</time></trkpt>
<trkpt lat="49.4176368713378906" lon="0.5443952083587646"><ele></ele><time>2016-10-9T10:23:54Z</time></trkpt>
<trkpt lat="49.4175453186035156" lon="0.5446118712425232"><ele></ele><time>2016-10-9T10:23:57Z</time></trkpt>
<trkpt lat="49.4174995422363281" lon="0.5447570085525513"><ele></ele><time>2016-10-9T10:24:0Z</time></trkpt>
<trkpt lat="49.4174575805664062" lon="0.5449277162551880"><ele></ele><time>2016-10-9T10:24:3Z</time></trkpt>
<trkpt lat="49.4173889160156250" lon="0.5451853871345520"><ele></ele><time>2016-10-9T10:24:6Z</time></trkpt>
<trkpt lat="49.4173278808593750" lon="0.5454484224319458"><ele></ele><time>2016-10-9T10:24:9Z</time></trkpt>
<trkpt lat="49.4173126220703125" lon="0.5455980896949768"><ele></ele><time>2016-10-9T10:24:12Z</time></trkpt>
<trkpt lat="49.4172897338867188" lon="0.5458503365516663"><ele></ele><time>2016-10-9T10:24:15Z</time></trkpt>
<trkpt lat="49.4172821044921875" lon="0.5460272431373596"><ele></ele><time>2016-10-9T10:24:18Z</time></trkpt>
<trkpt lat="49.4172668457031250" lon="0.5461829304695129"><ele></ele><time>2016-10-9T10:24:21Z</time></trkpt>
<trkpt lat="49.4172744750976562" lon="0.5464198589324951"><ele></ele><time>2016-10-9T10:24:24Z</time></trkpt>
<trkpt lat="49.4172859191894531" lon="0.5466415882110596"><ele></ele><time>2016-10-9T10:24:27Z</time></trkpt>
<trkpt lat="49.4172859191894531" lon="0.5467668771743774"><ele></ele><time>2016-10-9T10:24:30Z</time></trkpt>
<trkpt lat="49.4173011779785156" lon="0.5469816327095032"><ele></ele><time>2016-10-9T10:24:33Z</time></trkpt>
<trkpt lat="49.4172935485839844" lon="0.5472181439399719"><ele></ele><time>2016-10-9T10:24:36Z</time></trkpt>
<trkpt lat="49.4172935485839844" lon="0.5473724007606506"><ele></ele><time>2016-10-9T10:24:39Z</time></trkpt>
<trkpt lat="49.4172859191894531" lon="0.5475630164146423"><ele></ele><time>2016-10-9T10:24:42Z</time></trkpt>
<trkpt lat="49.4172782897949219" lon="0.5477431416511536"><ele></ele><time>2016-10-9T10:24:45Z</time></trkpt>
<trkpt lat="49.4172973632812500" lon="0.5479022264480591"><ele></ele><time>2016-10-9T10:24:48Z</time></trkpt>
<trkpt lat="49.4172630310058594" lon="0.5480765700340271"><ele></ele><time>2016-10-9T10:24:51Z</time></trkpt>
<trkpt lat="49.4172821044921875" lon="0.5483031868934631"><ele></ele><time>2016-10-9T10:24:54Z</time></trkpt>
<trkpt lat="49.4173011779785156" lon="0.5485352277755737"><ele></ele><time>2016-10-9T10:24:57Z</time></trkpt>
<trkpt lat="49.4173164367675781" lon="0.5486962199211121"><ele></ele><time>2016-10-9T10:25:0Z</time></trkpt>
<trkpt lat="49.4173164367675781" lon="0.5489237308502197"><ele></ele><time>2016-10-9T10:25:3Z</time></trkpt>
<trkpt lat="49.4173088073730469" lon="0.5491717457771301"><ele></ele><time>2016-10-9T10:25:6Z</time></trkpt>
<trkpt lat="49.4173202514648438" lon="0.5494205355644226"><ele></ele><time>2016-10-9T10:25:9Z</time></trkpt>
<trkpt lat="49.4173088073730469" lon="0.5496602058410645"><ele></ele><time>2016-10-9T10:25:12Z</time></trkpt>
<trkpt lat="49.4173049926757812" lon="0.5498293042182922"><ele></ele><time>2016-10-9T10:25:15Z</time></trkpt>
<trkpt lat="49.4173088073730469" lon="0.5499991774559021"><ele></ele><time>2016-10-9T10:25:18Z</time></trkpt>
<trkpt lat="49.4172897338867188" lon="0.5502476096153259"><ele></ele><time>2016-10-9T10:25:21Z</time></trkpt>
<trkpt lat="49.4172782897949219" lon="0.5504184365272522"><ele></ele><time>2016-10-9T10:25:24Z</time></trkpt>
<trkpt lat="49.4172515869140625" lon="0.5506467819213867"><ele></ele><time>2016-10-9T10:25:27Z</time></trkpt>
<trkpt lat="49.4172515869140625" lon="0.5507925152778625"><ele></ele><time>2016-10-9T10:25:30Z</time></trkpt>
<trkpt lat="49.4172058105468750" lon="0.5510683655738831"><ele></ele><time>2016-10-9T10:25:33Z</time></trkpt>
<trkpt lat="49.4172096252441406" lon="0.5512323379516602"><ele></ele><time>2016-10-9T10:25:36Z</time></trkpt>
<trkpt lat="49.4171676635742188" lon="0.5514091253280640"><ele></ele><time>2016-10-9T10:25:39Z</time></trkpt>
<trkpt lat="49.4171447753906250" lon="0.5515756607055664"><ele></ele><time>2016-10-9T10:25:42Z</time></trkpt>
<trkpt lat="49.4171028137207031" lon="0.5518156290054321"><ele></ele><time>2016-10-9T10:25:45Z</time></trkpt>
<trkpt lat="49.4170608520507812" lon="0.5520679950714111"><ele></ele><time>2016-10-9T10:25:48Z</time></trkpt>
<trkpt lat="49.4170303344726562" lon="0.5522242784500122"><ele></ele><time>2016-10-9T10:25:51Z</time></trkpt>
<trkpt lat="49.4169998168945312" lon="0.5524725914001465"><ele></ele><time>2016-10-9T10:25:54Z</time></trkpt>
<trkpt lat="49.4169387817382812" lon="0.5527252554893494"><ele></ele><time>2016-10-9T10:25:57Z</time></trkpt>
<trkpt lat="49.4169082641601562" lon="0.5528417229652405"><ele></ele><time>2016-10-9T10:26:0Z</time></trkpt>
<trkpt lat="49.4168395996093750" lon="0.5531225204467773"><ele></ele><time>2016-10-9T10:26:3Z</time></trkpt>
<trkpt lat="49.4167938232421875" lon="0.5532831549644470"><ele></ele><time>2016-10-9T10:26:6Z</time></trkpt>
<trkpt lat="49.4167518615722656" lon="0.5535013079643250"><ele></ele><time>2016-10-9T10:26:9Z</time></trkpt>
<trkpt lat="49.4166984558105469" lon="0.5537342429161072"><ele></ele><time>2016-10-9T10:26:12Z</time></trkpt>
<trkpt lat="49.4166412353515625" lon="0.5539730787277222"><ele></ele><time>2016-10-9T10:26:15Z</time></trkpt>
<trkpt lat="49.4165840148925781" lon="0.5541957020759583"><ele></ele><time>2016-10-9T10:26:18Z</time></trkpt>
<trkpt lat="49.4165306091308594" lon="0.5544171929359436"><ele></ele><time>2016-10-9T10:26:21Z</time></trkpt>
<trkpt lat="49.4165000915527344" lon="0.5545670986175537"><ele></ele><time>2016-10-9T10:26:24Z</time></trkpt>
<trkpt lat="49.4164657592773438" lon="0.5547270178794861"><ele></ele><time>2016-10-9T10:26:27Z</time></trkpt>
<trkpt lat="49.4164085388183594" lon="0.5549573302268982"><ele></ele><time>2016-10-9T10:26:30Z</time></trkpt>
<trkpt lat="49.4163589477539062" lon="0.5551655292510986"><ele></ele><time>2016-10-9T10:26:33Z</time></trkpt>
<trkpt lat="49.4163322448730469" lon="0.5553812384605408"><ele></ele><time>2016-10-9T10:26:36Z</time></trkpt>
<trkpt lat="49.4163246154785156" lon="0.5555154681205750"><ele></ele><time>2016-10-9T10:26:39Z</time></trkpt>
<trkpt lat="49.4163208007812500" lon="0.5556886792182922"><ele></ele><time>2016-10-9T10:26:42Z</time></trkpt>
<trkpt lat="49.4162864685058594" lon="0.5559157133102417"><ele></ele><time>2016-10-9T10:26:45Z</time></trkpt>
<trkpt lat="49.4162559509277344" lon="0.5560578703880310"><ele></ele><time>2016-10-9T10:26:48Z</time></trkpt>
<trkpt lat="49.4162521362304688" lon="0.5561602115631104"><ele></ele><time>2016-10-9T10:26:51Z</time></trkpt>
<trkpt lat="49.4162063598632812" lon="0.5563564300537109"><ele></ele><time>2016-10-9T10:26:54Z</time></trkpt>
<trkpt lat="49.4161796569824219" lon="0.5565404891967773"><ele></ele><time>2016-10-9T10:26:57Z</time></trkpt>
<trkpt lat="49.4161300659179688" lon="0.5567228794097900"><ele></ele><time>2016-10-9T10:27:0Z</time></trkpt>
<trkpt lat="49.4160537719726562" lon="0.5570181012153625"><ele></ele><time>2016-10-9T10:27:3Z</time></trkpt>
<trkpt lat="49.4160118103027344" lon="0.5571606755256653"><ele></ele><time>2016-10-9T10:27:6Z</time></trkpt>
<trkpt lat="49.4159584045410156" lon="0.5573840737342834"><ele></ele><time>2016-10-9T10:27:9Z</time></trkpt>
<trkpt lat="49.4159393310546875" lon="0.5575190782546997"><ele></ele><time>2016-10-9T10:27:12Z</time></trkpt>
<trkpt lat="49.4158630371093750" lon="0.5578187704086304"><ele></ele><time>2016-10-9T10:27:15Z</time></trkpt>
<trkpt lat="49.4158248901367188" lon="0.5579784512519836"><ele></ele><time>2016-10-9T10:27:18Z</time></trkpt>
<trkpt lat="49.4157791137695312" lon="0.5581403970718384"><ele></ele><time>2016-10-9T10:27:21Z</time></trkpt>
<trkpt lat="49.4157257080078125" lon="0.5583369135856628"><ele></ele><time>2016-10-9T10:27:24Z</time></trkpt>
<trkpt lat="49.4156990051269531" lon="0.5584836006164551"><ele></ele><time>2016-10-9T10:27:27Z</time></trkpt>
<trkpt lat="49.4156417846679688" lon="0.5587114095687866"><ele></ele><time>2016-10-9T10:27:30Z</time></trkpt>
<trkpt lat="49.4155769348144531" lon="0.5589722990989685"><ele></ele><time>2016-10-9T10:27:33Z</time></trkpt>
<trkpt lat="49.4155235290527344" lon="0.5592207312583923"><ele></ele><time>2016-10-9T10:27:36Z</time></trkpt>
<trkpt lat="49.4154853820800781" lon="0.5593850612640381"><ele></ele><time>2016-10-9T10:27:39Z</time></trkpt>
<trkpt lat="49.4154357910156250" lon="0.5596160292625427"><ele></ele><time>2016-10-9T10:27:42Z</time></trkpt>
<trkpt lat="49.4154014587402344" lon="0.5597677826881409"><ele></ele><time>2016-10-9T10:27:45Z</time></trkpt>
<trkpt lat="49.4153327941894531" lon="0.5599833130836487"><ele></ele><time>2016-10-9T10:27:48Z</time></trkpt>
<trkpt lat="49.4152946472167969" lon="0.5602337718009949"><ele></ele><time>2016-10-9T10:27:51Z</time></trkpt>
<trkpt lat="49.4152526855468750" lon="0.5604068636894226"><ele></ele><time>2016-10-9T10:27:54Z</time></trkpt>
<trkpt lat="49.4152183532714844" lon="0.5606662631034851"><ele></ele><time>2016-10-9T10:27:57Z</time></trkpt>
<trkpt lat="49.4153022766113281" lon="0.5608997941017151"><ele></ele><time>2016-10-9T10:28:0Z</time></trkpt>
<trkpt lat="49.4153861999511719" lon="0.5610106587409973"><ele></ele><time>2016-10-9T10:28:3Z</time></trkpt>
<trkpt lat="49.4155349731445312" lon="0.5611001849174500"><ele></ele><time>2016-10-9T10:28:6Z</time></trkpt>
<trkpt lat="49.4156837463378906" lon="0.5611719489097595"><ele></ele><time>2016-10-9T10:28:9Z</time></trkpt>
<trkpt lat="49.4157867431640625" lon="0.5612260103225708"><ele></ele><time>2016-10-9T10:28:12Z</time></trkpt>
<trkpt lat="49.4159317016601562" lon="0.5613077878952026"><ele></ele><time>2016-10-9T10:28:15Z</time></trkpt>
<trkpt lat="49.4160308837890625" lon="0.5613954067230225"><ele></ele><time>2016-10-9T10:28:18Z</time></trkpt>
<trkpt lat="49.4161643981933594" lon="0.5615463852882385"><ele></ele><time>2016-10-9T10:28:21Z</time></trkpt>
<trkpt lat="49.4162750244140625" lon="0.5617439150810242"><ele></ele><time>2016-10-9T10:28:24Z</time></trkpt>
<trkpt lat="49.4163627624511719" lon="0.5619502663612366"><ele></ele><time>2016-10-9T10:28:27Z</time></trkpt>
<trkpt lat="49.4164199829101562" lon="0.5620922446250916"><ele></ele><time>2016-10-9T10:28:30Z</time></trkpt>
<trkpt lat="49.4164772033691406" lon="0.5622415542602539"><ele></ele><time>2016-10-9T10:28:33Z</time></trkpt>
<trkpt lat="49.4165267944335938" lon="0.5623835325241089"><ele></ele><time>2016-10-9T10:28:36Z</time></trkpt>
<trkpt lat="49.4165954589843750" lon="0.5626102089881897"><ele></ele><time>2016-10-9T10:28:39Z</time></trkpt>
<trkpt lat="49.4166679382324219" lon="0.5628283619880676"><ele></ele><time>2016-10-9T10:28:42Z</time></trkpt>
<trkpt lat="49.4167022705078125" lon="0.5629659295082092"><ele></ele><time>2016-10-9T10:28:45Z</time></trkpt>
<trkpt lat="49.4167747497558594" lon="0.5632148385047913"><ele></ele><time>2016-10-9T10:28:48Z</time></trkpt>
<trkpt lat="49.4168243408203125" lon="0.5633759498596191"><ele></ele><time>2016-10-9T10:28:51Z</time></trkpt>
<trkpt lat="49.4169006347656250" lon="0.5635827183723450"><ele></ele><time>2016-10-9T10:28:54Z</time></trkpt>
<trkpt lat="49.4169578552246094" lon="0.5637937784194946"><ele></ele><time>2016-10-9T10:28:57Z</time></trkpt>
<trkpt lat="49.4170036315917969" lon="0.5639332532882690"><ele></ele><time>2016-10-9T10:29:0Z</time></trkpt>
<trkpt lat="49.4170646667480469" lon="0.5641670227050781"><ele></ele><time>2016-10-9T10:29:3Z</time></trkpt>
<trkpt lat="49.4171218872070312" lon="0.5643674731254578"><ele></ele><time>2016-10-9T10:29:6Z</time></trkpt>
<trkpt lat="49.4171600341796875" lon="0.5645247697830200"><ele></ele><time>2016-10-9T10:29:9Z</time></trkpt>
<trkpt lat="49.4171943664550781" lon="0.5647102594375610"><ele></ele><time>2016-10-9T10:29:12Z</time></trkpt>
<trkpt lat="49.4172134399414062" lon="0.5648452043533325"><ele></ele><time>2016-10-9T10:29:15Z</time></trkpt>
<trkpt lat="49.4172744750976562" lon="0.5650706291198730"><ele></ele><time>2016-10-9T10:29:18Z</time></trkpt>
<trkpt lat="49.4173316955566406" lon="0.5653077960014343"><ele></ele><time>2016-10-9T10:29:21Z</time></trkpt>
<trkpt lat="49.4173889160156250" lon="0.5655227899551392"><ele></ele><time>2016-10-9T10:29:24Z</time></trkpt>
<trkpt lat="49.4174308776855469" lon="0.5657335519790649"><ele></ele><time>2016-10-9T10:29:27Z</time></trkpt>
<trkpt lat="49.4174728393554688" lon="0.5658755898475647"><ele></ele><time>2016-10-9T10:29:30Z</time></trkpt>
<trkpt lat="49.4174957275390625" lon="0.5660244822502136"><ele></ele><time>2016-10-9T10:29:33Z</time></trkpt>
<trkpt lat="49.4175415039062500" lon="0.5661866068840027"><ele></ele><time>2016-10-9T10:29:36Z</time></trkpt>
<trkpt lat="49.4175643920898438" lon="0.5663427114486694"><ele></ele><time>2016-10-9T10:29:39Z</time></trkpt>
<trkpt lat="49.4175987243652344" lon="0.5664804577827454"><ele></ele><time>2016-10-9T10:29:42Z</time></trkpt>
<trkpt lat="49.4176635742187500" lon="0.5667178034782410"><ele></ele><time>2016-10-9T10:29:45Z</time></trkpt>
<trkpt lat="49.4177246093750000" lon="0.5669575333595276"><ele></ele><time>2016-10-9T10:29:48Z</time></trkpt>
<trkpt lat="49.4177894592285156" lon="0.5672083497047424"><ele></ele><time>2016-10-9T10:29:51Z</time></trkpt>
<trkpt lat="49.4178314208984375" lon="0.5673779845237732"><ele></ele><time>2016-10-9T10:29:54Z</time></trkpt>
<trkpt lat="49.4178848266601562" lon="0.5676404237747192"><ele></ele><time>2016-10-9T10:29:57Z</time></trkpt>
<trkpt lat="49.4179077148437500" lon="0.5677971839904785"><ele></ele><time>2016-10-9T10:30:0Z</time></trkpt>
<trkpt lat="49.4179840087890625" lon="0.5679584145545959"><ele></ele><time>2016-10-9T10:30:3Z</time></trkpt>
<trkpt lat="49.4180564880371094" lon="0.5681876540184021"><ele></ele><time>2016-10-9T10:30:6Z</time></trkpt>
<trkpt lat="49.4181213378906250" lon="0.5684397816658020"><ele></ele><time>2016-10-9T10:30:9Z</time></trkpt>
<trkpt lat="49.4181671142578125" lon="0.5686070919036865"><ele></ele><time>2016-10-9T10:30:12Z</time></trkpt>
<trkpt lat="49.4182243347167969" lon="0.5688367486000061"><ele></ele><time>2016-10-9T10:30:15Z</time></trkpt>
<trkpt lat="49.4183273315429688" lon="0.5689606666564941"><ele></ele><time>2016-10-9T10:30:18Z</time></trkpt>
<trkpt lat="49.4184799194335938" lon="0.5689497590065002"><ele></ele><time>2016-10-9T10:30:21Z</time></trkpt>
<trkpt lat="49.4185943603515625" lon="0.5689246058464050"><ele></ele><time>2016-10-9T10:30:24Z</time></trkpt>
<trkpt lat="49.4187393188476562" lon="0.5688860416412354"><ele></ele><time>2016-10-9T10:30:27Z</time></trkpt>
<trkpt lat="49.4188308715820312" lon="0.5688406825065613"><ele></ele><time>2016-10-9T10:30:30Z</time></trkpt>
<trkpt lat="49.4189643859863281" lon="0.5687994956970215"><ele></ele><time>2016-10-9T10:30:33Z</time></trkpt>
<trkpt lat="49.4190635681152344" lon="0.5688090920448303"><ele></ele><time>2016-10-9T10:30:36Z</time></trkpt>
<trkpt lat="49.4192390441894531" lon="0.5687886476516724"><ele></ele><time>2016-10-9T10:30:39Z</time></trkpt>
<trkpt lat="49.4194259643554688" lon="0.5687760114669800"><ele></ele><time>2016-10-9T10:30:42Z</time></trkpt>
<trkpt lat="49.4195289611816406" lon="0.5687948465347290"><ele></ele><time>2016-10-9T10:30:45Z</time></trkpt>
<trkpt lat="49.4197082519531250" lon="0.5687832832336426"><ele></ele><time>2016-10-9T10:30:48Z</time></trkpt>
<trkpt lat="49.4198570251464844" lon="0.5688061118125916"><ele></ele><time>2016-10-9T10:30:51Z</time></trkpt>
<trkpt lat="49.4199829101562500" lon="0.5688295364379883"><ele></ele><time>2016-10-9T10:30:54Z</time></trkpt>
<trkpt lat="49.4201011657714844" lon="0.5688484311103821"><ele></ele><time>2016-10-9T10:30:57Z</time></trkpt>
<trkpt lat="49.4202804565429688" lon="0.5688680410385132"><ele></ele><time>2016-10-9T10:31:0Z</time></trkpt>
<trkpt lat="49.4203910827636719" lon="0.5688552856445312"><ele></ele><time>2016-10-9T10:31:3Z</time></trkpt>
<trkpt lat="49.4205093383789062" lon="0.5688397288322449"><ele></ele><time>2016-10-9T10:31:6Z</time></trkpt>
<trkpt lat="49.4207077026367188" lon="0.5688473582267761"><ele></ele><time>2016-10-9T10:31:9Z</time></trkpt>
<trkpt lat="49.4208450317382812" lon="0.5688504576683044"><ele></ele><time>2016-10-9T10:31:12Z</time></trkpt>
<trkpt lat="49.4209747314453125" lon="0.5688533782958984"><ele></ele><time>2016-10-9T10:31:15Z</time></trkpt>
<trkpt lat="49.4211502075195312" lon="0.5688912272453308"><ele></ele><time>2016-10-9T10:31:18Z</time></trkpt>
<trkpt lat="49.4213447570800781" lon="0.5689228773117065"><ele></ele><time>2016-10-9T10:31:21Z</time></trkpt>
<trkpt lat="49.4214706420898438" lon="0.5689460635185242"><ele></ele><time>2016-10-9T10:31:24Z</time></trkpt>
<trkpt lat="49.4215965270996094" lon="0.5689806938171387"><ele></ele><time>2016-10-9T10:31:27Z</time></trkpt>
<trkpt lat="49.4217147827148438" lon="0.5690023899078369"><ele></ele><time>2016-10-9T10:31:30Z</time></trkpt>
<trkpt lat="49.4218940734863281" lon="0.5690382719039917"><ele></ele><time>2016-10-9T10:31:33Z</time></trkpt>
<trkpt lat="49.4220809936523438" lon="0.5690642595291138"><ele></ele><time>2016-10-9T10:31:36Z</time></trkpt>
<trkpt lat="49.4222106933593750" lon="0.5690811276435852"><ele></ele><time>2016-10-9T10:31:39Z</time></trkpt>
<trkpt lat="49.4223365783691406" lon="0.5690906643867493"><ele></ele><time>2016-10-9T10:31:42Z</time></trkpt>
<trkpt lat="49.4224662780761719" lon="0.5691034793853760"><ele></ele><time>2016-10-9T10:31:45Z</time></trkpt>
<trkpt lat="49.4225921630859375" lon="0.5691234469413757"><ele></ele><time>2016-10-9T10:31:48Z</time></trkpt>
<trkpt lat="49.4227790832519531" lon="0.5691317319869995"><ele></ele><time>2016-10-9T10:31:51Z</time></trkpt>
<trkpt lat="49.4229125976562500" lon="0.5691484212875366"><ele></ele><time>2016-10-9T10:31:54Z</time></trkpt>
<trkpt lat="49.4231109619140625" lon="0.5691545009613037"><ele></ele><time>2016-10-9T10:31:57Z</time></trkpt>
<trkpt lat="49.4232101440429688" lon="0.5691826939582825"><ele></ele><time>2016-10-9T10:32:0Z</time></trkpt>
<trkpt lat="49.4233551025390625" lon="0.5692194104194641"><ele></ele><time>2016-10-9T10:32:3Z</time></trkpt>
<trkpt lat="49.4234619140625000" lon="0.5692596435546875"><ele></ele><time>2016-10-9T10:32:6Z</time></trkpt>
<trkpt lat="49.4235382080078125" lon="0.5692858099937439"><ele></ele><time>2016-10-9T10:32:9Z</time></trkpt>
<trkpt lat="49.4236488342285156" lon="0.5693246126174927"><ele></ele><time>2016-10-9T10:32:12Z</time></trkpt>
<trkpt lat="49.4237289428710938" lon="0.5693308115005493"><ele></ele><time>2016-10-9T10:32:15Z</time></trkpt>
<trkpt lat="49.4238739013671875" lon="0.5692535042762756"><ele></ele><time>2016-10-9T10:32:18Z</time></trkpt>
<trkpt lat="49.4239845275878906" lon="0.5691422224044800"><ele></ele><time>2016-10-9T10:32:21Z</time></trkpt>
<trkpt lat="49.4241600036621094" lon="0.5690041780471802"><ele></ele><time>2016-10-9T10:32:24Z</time></trkpt>
<trkpt lat="49.4243392944335938" lon="0.5689312219619751"><ele></ele><time>2016-10-9T10:32:27Z</time></trkpt>
<trkpt lat="49.4245529174804688" lon="0.5688486099243164"><ele></ele><time>2016-10-9T10:32:30Z</time></trkpt>
<trkpt lat="49.4246902465820312" lon="0.5688130259513855"><ele></ele><time>2016-10-9T10:32:33Z</time></trkpt>
<trkpt lat="49.4248428344726562" lon="0.5687500238418579"><ele></ele><time>2016-10-9T10:32:36Z</time></trkpt>
<trkpt lat="49.4250030517578125" lon="0.5687156319618225"><ele></ele><time>2016-10-9T10:32:39Z</time></trkpt>
<trkpt lat="49.4252243041992188" lon="0.5686461925506592"><ele></ele><time>2016-10-9T10:32:42Z</time></trkpt>
<trkpt lat="49.4254608154296875" lon="0.5686842799186707"><ele></ele><time>2016-10-9T10:32:45Z</time></trkpt>
<trkpt lat="49.4256896972656250" lon="0.5686596632003784"><ele></ele><time>2016-10-9T10:32:48Z</time></trkpt>
<trkpt lat="49.4259109497070312" lon="0.5686174035072327"><ele></ele><time>2016-10-9T10:32:51Z</time></trkpt>
<trkpt lat="49.4260482788085938" lon="0.5686001777648926"><ele></ele><time>2016-10-9T10:32:54Z</time></trkpt>
<trkpt lat="49.4262924194335938" lon="0.5685625076293945"><ele></ele><time>2016-10-9T10:32:57Z</time></trkpt>
<trkpt lat="49.4264526367187500" lon="0.5685385465621948"><ele></ele><time>2016-10-9T10:33:0Z</time></trkpt>
<trkpt lat="49.4266738891601562" lon="0.5685166716575623"><ele></ele><time>2016-10-9T10:33:3Z</time></trkpt>
<trkpt lat="49.4269104003906250" lon="0.5684553384780884"><ele></ele><time>2016-10-9T10:33:6Z</time></trkpt>
<trkpt lat="49.4271621704101562" lon="0.5683539509773254"><ele></ele><time>2016-10-9T10:33:9Z</time></trkpt>
<trkpt lat="49.4273262023925781" lon="0.5683148503303528"><ele></ele><time>2016-10-9T10:33:12Z</time></trkpt>
<trkpt lat="49.4275512695312500" lon="0.5682542324066162"><ele></ele><time>2016-10-9T10:33:15Z</time></trkpt>
<trkpt lat="49.4276847839355469" lon="0.5682072043418884"><ele></ele><time>2016-10-9T10:33:18Z</time></trkpt>
<trkpt lat="49.4279098510742188" lon="0.5681258440017700"><ele></ele><time>2016-10-9T10:33:21Z</time></trkpt>
<trkpt lat="49.4280586242675781" lon="0.5680823922157288"><ele></ele><time>2016-10-9T10:33:24Z</time></trkpt>
<trkpt lat="49.4283218383789062" lon="0.5679996013641357"><ele></ele><time>2016-10-9T10:33:27Z</time></trkpt>
<trkpt lat="49.4284896850585938" lon="0.5679658651351929"><ele></ele><time>2016-10-9T10:33:30Z</time></trkpt>
<trkpt lat="49.4287223815917969" lon="0.5679148435592651"><ele></ele><time>2016-10-9T10:33:33Z</time></trkpt>
<trkpt lat="49.4289703369140625" lon="0.5677767992019653"><ele></ele><time>2016-10-9T10:33:36Z</time></trkpt>
<trkpt lat="49.4291534423828125" lon="0.5677723288536072"><ele></ele><time>2016-10-9T10:33:39Z</time></trkpt>
<trkpt lat="49.4293098449707031" lon="0.5676929950714111"><ele></ele><time>2016-10-9T10:33:42Z</time></trkpt>
<trkpt lat="49.4295883178710938" lon="0.5675851702690125"><ele></ele><time>2016-10-9T10:33:45Z</time></trkpt>
<trkpt lat="49.4298667907714844" lon="0.5675699114799500"><ele></ele><time>2016-10-9T10:33:48Z</time></trkpt>
<trkpt lat="49.4300575256347656" lon="0.5675780773162842"><ele></ele><time>2016-10-9T10:33:51Z</time></trkpt>
<trkpt lat="49.4303092956542969" lon="0.5677097439765930"><ele></ele><time>2016-10-9T10:33:54Z</time></trkpt>
<trkpt lat="49.4304733276367188" lon="0.5677995681762695"><ele></ele><time>2016-10-9T10:33:57Z</time></trkpt>
<trkpt lat="49.4307060241699219" lon="0.5679390430450439"><ele></ele><time>2016-10-9T10:34:0Z</time></trkpt>
<trkpt lat="49.4308700561523438" lon="0.5679841041564941"><ele></ele><time>2016-10-9T10:34:3Z</time></trkpt>
<trkpt lat="49.4310951232910156" lon="0.5679949522018433"><ele></ele><time>2016-10-9T10:34:6Z</time></trkpt>
<trkpt lat="49.4312896728515625" lon="0.5680090785026550"><ele></ele><time>2016-10-9T10:34:9Z</time></trkpt>
<trkpt lat="49.4315681457519531" lon="0.5679325461387634"><ele></ele><time>2016-10-9T10:34:12Z</time></trkpt>
<trkpt lat="49.4317779541015625" lon="0.5676914453506470"><ele></ele><time>2016-10-9T10:34:15Z</time></trkpt>
<trkpt lat="49.4319572448730469" lon="0.5674215555191040"><ele></ele><time>2016-10-9T10:34:18Z</time></trkpt>
<trkpt lat="49.4321479797363281" lon="0.5671489834785461"><ele></ele><time>2016-10-9T10:34:21Z</time></trkpt>
<trkpt lat="49.4323196411132812" lon="0.5668510794639587"><ele></ele><time>2016-10-9T10:34:24Z</time></trkpt>
<trkpt lat="49.4324264526367188" lon="0.5666828751564026"><ele></ele><time>2016-10-9T10:34:27Z</time></trkpt>
<trkpt lat="49.4325675964355469" lon="0.5664388537406921"><ele></ele><time>2016-10-9T10:34:30Z</time></trkpt>
<trkpt lat="49.4326667785644531" lon="0.5662826299667358"><ele></ele><time>2016-10-9T10:34:33Z</time></trkpt>
<trkpt lat="49.4327926635742188" lon="0.5660927891731262"><ele></ele><time>2016-10-9T10:34:36Z</time></trkpt>
<trkpt lat="49.4329147338867188" lon="0.5659789443016052"><ele></ele><time>2016-10-9T10:34:39Z</time></trkpt>
<trkpt lat="49.4330215454101562" lon="0.5660738348960876"><ele></ele><time>2016-10-9T10:34:42Z</time></trkpt>
<trkpt lat="49.4331207275390625" lon="0.5661736726760864"><ele></ele><time>2016-10-9T10:34:45Z</time></trkpt>
<trkpt lat="49.4331893920898438" lon="0.5663049221038818"><ele></ele><time>2016-10-9T10:34:48Z</time></trkpt>
<trkpt lat="49.4332962036132812" lon="0.5665000677108765"><ele></ele><time>2016-10-9T10:34:51Z</time></trkpt>
<trkpt lat="49.4333076477050781" lon="0.5667070150375366"><ele></ele><time>2016-10-9T10:34:54Z</time></trkpt>
<trkpt lat="49.4332504272460938" lon="0.5669156312942505"><ele></ele><time>2016-10-9T10:34:57Z</time></trkpt>
<trkpt lat="49.4332084655761719" lon="0.5670428872108459"><ele></ele><time>2016-10-9T10:35:0Z</time></trkpt>
<trkpt lat="49.4331665039062500" lon="0.5671985149383545"><ele></ele><time>2016-10-9T10:35:3Z</time></trkpt>
<trkpt lat="49.4331359863281250" lon="0.5673076510429382"><ele></ele><time>2016-10-9T10:35:6Z</time></trkpt>
<trkpt lat="49.4331169128417969" lon="0.5673148036003113"><ele></ele><time>2016-10-9T10:35:9Z</time></trkpt>
<trkpt lat="49.4331512451171875" lon="0.5673835873603821"><ele></ele><time>2016-10-9T10:35:12Z</time></trkpt>
<trkpt lat="49.4331398010253906" lon="0.5673519372940063"><ele></ele><time>2016-10-9T10:35:15Z</time></trkpt>
<trkpt lat="49.4331588745117188" lon="0.5673020482063293"><ele></ele><time>2016-10-9T10:35:18Z</time></trkpt>
<trkpt lat="49.4331817626953125" lon="0.5672290921211243"><ele></ele><time>2016-10-9T10:35:21Z</time></trkpt>
<trkpt lat="49.4332122802734375" lon="0.5671463012695312"><ele></ele><time>2016-10-9T10:35:24Z</time></trkpt>
<trkpt lat="49.4332580566406250" lon="0.5670114159584045"><ele></ele><time>2016-10-9T10:35:27Z</time></trkpt>
<trkpt lat="49.4333229064941406" lon="0.5668343305587769"><ele></ele><time>2016-10-9T10:35:30Z</time></trkpt>
<trkpt lat="49.4333457946777344" lon="0.5667062401771545"><ele></ele><time>2016-10-9T10:35:33Z</time></trkpt>
<trkpt lat="49.4333457946777344" lon="0.5665817856788635"><ele></ele><time>2016-10-9T10:35:36Z</time></trkpt>
<trkpt lat="49.4332962036132812" lon="0.5664247274398804"><ele></ele><time>2016-10-9T10:35:39Z</time></trkpt>
<trkpt lat="49.4332466125488281" lon="0.5663359165191650"><ele></ele><time>2016-10-9T10:35:42Z</time></trkpt>
<trkpt lat="49.4331855773925781" lon="0.5662553906440735"><ele></ele><time>2016-10-9T10:35:45Z</time></trkpt>
<trkpt lat="49.4331092834472656" lon="0.5661364793777466"><ele></ele><time>2016-10-9T10:35:48Z</time></trkpt>
<trkpt lat="49.4330635070800781" lon="0.5660678148269653"><ele></ele><time>2016-10-9T10:35:51Z</time></trkpt>
<trkpt lat="49.4329986572265625" lon="0.5659871697425842"><ele></ele><time>2016-10-9T10:35:54Z</time></trkpt>
<trkpt lat="49.4329643249511719" lon="0.5659345388412476"><ele></ele><time>2016-10-9T10:35:57Z</time></trkpt>
<trkpt lat="49.4329528808593750" lon="0.5659155845642090"><ele></ele><time>2016-10-9T10:36:0Z</time></trkpt>
<trkpt lat="49.4329223632812500" lon="0.5659111738204956"><ele></ele><time>2016-10-9T10:36:3Z</time></trkpt>
<trkpt lat="49.4328422546386719" lon="0.5659785270690918"><ele></ele><time>2016-10-9T10:36:6Z</time></trkpt>
<trkpt lat="49.4327888488769531" lon="0.5660383701324463"><ele></ele><time>2016-10-9T10:36:9Z</time></trkpt>
<trkpt lat="49.4326820373535156" lon="0.5661901831626892"><ele></ele><time>2016-10-9T10:36:12Z</time></trkpt>
<trkpt lat="49.4325942993164062" lon="0.5663414597511292"><ele></ele><time>2016-10-9T10:36:15Z</time></trkpt>
<trkpt lat="49.4324836730957031" lon="0.5665284991264343"><ele></ele><time>2016-10-9T10:36:18Z</time></trkpt>
<trkpt lat="49.4323844909667969" lon="0.5666903257369995"><ele></ele><time>2016-10-9T10:36:21Z</time></trkpt>
<trkpt lat="49.4323005676269531" lon="0.5668478012084961"><ele></ele><time>2016-10-9T10:36:24Z</time></trkpt>
<trkpt lat="49.4322242736816406" lon="0.5670087337493896"><ele></ele><time>2016-10-9T10:36:27Z</time></trkpt>
<trkpt lat="49.4321250915527344" lon="0.5671628117561340"><ele></ele><time>2016-10-9T10:36:30Z</time></trkpt>
<trkpt lat="49.4320564270019531" lon="0.5672742724418640"><ele></ele><time>2016-10-9T10:36:33Z</time></trkpt>
<trkpt lat="49.4319877624511719" lon="0.5674106478691101"><ele></ele><time>2016-10-9T10:36:36Z</time></trkpt>
<trkpt lat="49.4319343566894531" lon="0.5675036311149597"><ele></ele><time>2016-10-9T10:36:39Z</time></trkpt>
<trkpt lat="49.4318237304687500" lon="0.5676482319831848"><ele></ele><time>2016-10-9T10:36:42Z</time></trkpt>
<trkpt lat="49.4317016601562500" lon="0.5677873492240906"><ele></ele><time>2016-10-9T10:36:45Z</time></trkpt>
<trkpt lat="49.4316253662109375" lon="0.5678568482398987"><ele></ele><time>2016-10-9T10:36:48Z</time></trkpt>
<trkpt lat="49.4314842224121094" lon="0.5679323673248291"><ele></ele><time>2016-10-9T10:36:51Z</time></trkpt>
<trkpt lat="49.4313468933105469" lon="0.5679854154586792"><ele></ele><time>2016-10-9T10:36:54Z</time></trkpt>
<trkpt lat="49.4312171936035156" lon="0.5679971575737000"><ele></ele><time>2016-10-9T10:36:57Z</time></trkpt>
<trkpt lat="49.4311218261718750" lon="0.5679901242256165"><ele></ele><time>2016-10-9T10:37:0Z</time></trkpt>
<trkpt lat="49.4309883117675781" lon="0.5679739117622375"><ele></ele><time>2016-10-9T10:37:3Z</time></trkpt>
<trkpt lat="49.4309043884277344" lon="0.5679759383201599"><ele></ele><time>2016-10-9T10:37:6Z</time></trkpt>
<trkpt lat="49.4308204650878906" lon="0.5679531693458557"><ele></ele><time>2016-10-9T10:37:9Z</time></trkpt>
<trkpt lat="49.4307365417480469" lon="0.5679166913032532"><ele></ele><time>2016-10-9T10:37:12Z</time></trkpt>
<trkpt lat="49.4306068420410156" lon="0.5678523778915405"><ele></ele><time>2016-10-9T10:37:15Z</time></trkpt>
<trkpt lat="49.4304809570312500" lon="0.5677856802940369"><ele></ele><time>2016-10-9T10:37:18Z</time></trkpt>
<trkpt lat="49.4303474426269531" lon="0.5677015185356140"><ele></ele><time>2016-10-9T10:37:21Z</time></trkpt>
<trkpt lat="49.4302215576171875" lon="0.5676373243331909"><ele></ele><time>2016-10-9T10:37:24Z</time></trkpt>
<trkpt lat="49.4300994873046875" lon="0.5675675868988037"><ele></ele><time>2016-10-9T10:37:27Z</time></trkpt>
<trkpt lat="49.4299774169921875" lon="0.5675145387649536"><ele></ele><time>2016-10-9T10:37:30Z</time></trkpt>
<trkpt lat="49.4298248291015625" lon="0.5674941539764404"><ele></ele><time>2016-10-9T10:37:33Z</time></trkpt>
<trkpt lat="49.4297409057617188" lon="0.5675051212310791"><ele></ele><time>2016-10-9T10:37:36Z</time></trkpt>
<trkpt lat="49.4296073913574219" lon="0.5675380825996399"><ele></ele><time>2016-10-9T10:37:39Z</time></trkpt>
<trkpt lat="49.4294815063476562" lon="0.5675770640373230"><ele></ele><time>2016-10-9T10:37:42Z</time></trkpt>
<trkpt lat="49.4293937683105469" lon="0.5676036477088928"><ele></ele><time>2016-10-9T10:37:45Z</time></trkpt>
<trkpt lat="49.4292640686035156" lon="0.5676469802856445"><ele></ele><time>2016-10-9T10:37:48Z</time></trkpt>
<trkpt lat="49.4291801452636719" lon="0.5676703453063965"><ele></ele><time>2016-10-9T10:37:51Z</time></trkpt>
<trkpt lat="49.4290580749511719" lon="0.5677244663238525"><ele></ele><time>2016-10-9T10:37:54Z</time></trkpt>
<trkpt lat="49.4289398193359375" lon="0.5677599310874939"><ele></ele><time>2016-10-9T10:37:57Z</time></trkpt>
<trkpt lat="49.4288253784179688" lon="0.5678015351295471"><ele></ele><time>2016-10-9T10:38:0Z</time></trkpt>
<trkpt lat="49.4287033081054688" lon="0.5678482055664062"><ele></ele><time>2016-10-9T10:38:3Z</time></trkpt>
<trkpt lat="49.4285888671875000" lon="0.5678929090499878"><ele></ele><time>2016-10-9T10:38:6Z</time></trkpt>
<trkpt lat="49.4284896850585938" lon="0.5679320096969604"><ele></ele><time>2016-10-9T10:38:9Z</time></trkpt>
<trkpt lat="49.4283866882324219" lon="0.5679578185081482"><ele></ele><time>2016-10-9T10:38:12Z</time></trkpt>
<trkpt lat="49.4283180236816406" lon="0.5679773688316345"><ele></ele><time>2016-10-9T10:38:15Z</time></trkpt>
<trkpt lat="49.4282073974609375" lon="0.5680143237113953"><ele></ele><time>2016-10-9T10:38:18Z</time></trkpt>
<trkpt lat="49.4281005859375000" lon="0.5680683851242065"><ele></ele><time>2016-10-9T10:38:21Z</time></trkpt>
<trkpt lat="49.4280242919921875" lon="0.5680988430976868"><ele></ele><time>2016-10-9T10:38:24Z</time></trkpt>
<trkpt lat="49.4279479980468750" lon="0.5681255459785461"><ele></ele><time>2016-10-9T10:38:27Z</time></trkpt>
<trkpt lat="49.4278602600097656" lon="0.5681462883949280"><ele></ele><time>2016-10-9T10:38:30Z</time></trkpt>
<trkpt lat="49.4277381896972656" lon="0.5681818723678589"><ele></ele><time>2016-10-9T10:38:33Z</time></trkpt>
<trkpt lat="49.4276580810546875" lon="0.5682070255279541"><ele></ele><time>2016-10-9T10:38:36Z</time></trkpt>
<trkpt lat="49.4275779724121094" lon="0.5682335495948792"><ele></ele><time>2016-10-9T10:38:39Z</time></trkpt>
<trkpt lat="49.4275016784667969" lon="0.5682594180107117"><ele></ele><time>2016-10-9T10:38:42Z</time></trkpt>
<trkpt lat="49.4273796081542969" lon="0.5683004856109619"><ele></ele><time>2016-10-9T10:38:45Z</time></trkpt>
<trkpt lat="49.4272537231445312" lon="0.5683334469795227"><ele></ele><time>2016-10-9T10:38:48Z</time></trkpt>
<trkpt lat="49.4271240234375000" lon="0.5683627724647522"><ele></ele><time>2016-10-9T10:38:51Z</time></trkpt>
<trkpt lat="49.4270401000976562" lon="0.5683862566947937"><ele></ele><time>2016-10-9T10:38:54Z</time></trkpt>
<trkpt lat="49.4269104003906250" lon="0.5684151649475098"><ele></ele><time>2016-10-9T10:38:57Z</time></trkpt>
<trkpt lat="49.4268302917480469" lon="0.5684331059455872"><ele></ele><time>2016-10-9T10:39:0Z</time></trkpt>
<trkpt lat="49.4267463684082031" lon="0.5684537887573242"><ele></ele><time>2016-10-9T10:39:3Z</time></trkpt>
<trkpt lat="49.4266166687011719" lon="0.5684816837310791"><ele></ele><time>2016-10-9T10:39:6Z</time></trkpt>
<trkpt lat="49.4265327453613281" lon="0.5684925317764282"><ele></ele><time>2016-10-9T10:39:9Z</time></trkpt>
<trkpt lat="49.4264183044433594" lon="0.5684942007064819"><ele></ele><time>2016-10-9T10:39:12Z</time></trkpt>
<trkpt lat="49.4263381958007812" lon="0.5684999823570251"><ele></ele><time>2016-10-9T10:39:15Z</time></trkpt>
<trkpt lat="49.4262084960937500" lon="0.5685130357742310"><ele></ele><time>2016-10-9T10:39:18Z</time></trkpt>
<trkpt lat="49.4257049560546875" lon="0.5685818791389465"><ele></ele><time>2016-10-9T10:39:21Z</time></trkpt>
<trkpt lat="49.4255752563476562" lon="0.5685946941375732"><ele></ele><time>2016-10-9T10:39:24Z</time></trkpt>
<trkpt lat="49.4254455566406250" lon="0.5686140656471252"><ele></ele><time>2016-10-9T10:39:27Z</time></trkpt>
<trkpt lat="49.4253158569335938" lon="0.5686287283897400"><ele></ele><time>2016-10-9T10:39:30Z</time></trkpt>
<trkpt lat="49.4252281188964844" lon="0.5686413645744324"><ele></ele><time>2016-10-9T10:39:33Z</time></trkpt>
<trkpt lat="49.4251403808593750" lon="0.5686519742012024"><ele></ele><time>2016-10-9T10:39:36Z</time></trkpt>
<trkpt lat="49.4250144958496094" lon="0.5686718821525574"><ele></ele><time>2016-10-9T10:39:39Z</time></trkpt>
<trkpt lat="49.4248962402343750" lon="0.5686920881271362"><ele></ele><time>2016-10-9T10:39:42Z</time></trkpt>
<trkpt lat="49.4248161315917969" lon="0.5687092542648315"><ele></ele><time>2016-10-9T10:39:45Z</time></trkpt>
<trkpt lat="49.4247360229492188" lon="0.5687291622161865"><ele></ele><time>2016-10-9T10:39:48Z</time></trkpt>
<trkpt lat="49.4246253967285156" lon="0.5687647461891174"><ele></ele><time>2016-10-9T10:39:51Z</time></trkpt>
<trkpt lat="49.4245452880859375" lon="0.5687944293022156"><ele></ele><time>2016-10-9T10:39:54Z</time></trkpt>
<trkpt lat="49.4244270324707031" lon="0.5688443779945374"><ele></ele><time>2016-10-9T10:39:57Z</time></trkpt>
<trkpt lat="49.4243507385253906" lon="0.5688766837120056"><ele></ele><time>2016-10-9T10:40:0Z</time></trkpt>
<trkpt lat="49.4242324829101562" lon="0.5689283609390259"><ele></ele><time>2016-10-9T10:40:3Z</time></trkpt>
<trkpt lat="49.4241523742675781" lon="0.5689685940742493"><ele></ele><time>2016-10-9T10:40:6Z</time></trkpt>
<trkpt lat="49.4240379333496094" lon="0.5690330862998962"><ele></ele><time>2016-10-9T10:40:9Z</time></trkpt>
<trkpt lat="49.4239692687988281" lon="0.5690865516662598"><ele></ele><time>2016-10-9T10:40:12Z</time></trkpt>
<trkpt lat="49.4238586425781250" lon="0.5691647529602051"><ele></ele><time>2016-10-9T10:40:15Z</time></trkpt>
<trkpt lat="49.4237556457519531" lon="0.5692532062530518"><ele></ele><time>2016-10-9T10:40:18Z</time></trkpt>
<trkpt lat="49.4236488342285156" lon="0.5693252682685852"><ele></ele><time>2016-10-9T10:40:21Z</time></trkpt>
<trkpt lat="49.4235305786132812" lon="0.5693417191505432"><ele></ele><time>2016-10-9T10:40:24Z</time></trkpt>
<trkpt lat="49.4234046936035156" lon="0.5692943334579468"><ele></ele><time>2016-10-9T10:40:27Z</time></trkpt>
<trkpt lat="49.4233207702636719" lon="0.5692631006240845"><ele></ele><time>2016-10-9T10:40:30Z</time></trkpt>
<trkpt lat="49.4232406616210938" lon="0.5692355632781982"><ele></ele><time>2016-10-9T10:40:33Z</time></trkpt>
<trkpt lat="49.4231262207031250" lon="0.5692004561424255"><ele></ele><time>2016-10-9T10:40:36Z</time></trkpt>
<trkpt lat="49.4230117797851562" lon="0.5691732168197632"><ele></ele><time>2016-10-9T10:40:39Z</time></trkpt>
<trkpt lat="49.4229011535644531" lon="0.5691614151000977"><ele></ele><time>2016-10-9T10:40:42Z</time></trkpt>
<trkpt lat="49.4228286743164062" lon="0.5691522359848022"><ele></ele><time>2016-10-9T10:40:45Z</time></trkpt>
<trkpt lat="49.4227180480957031" lon="0.5691390037536621"><ele></ele><time>2016-10-9T10:40:48Z</time></trkpt>
<trkpt lat="49.4226036071777344" lon="0.5691133141517639"><ele></ele><time>2016-10-9T10:40:51Z</time></trkpt>
<trkpt lat="49.4225311279296875" lon="0.5690958499908447"><ele></ele><time>2016-10-9T10:40:54Z</time></trkpt>
<trkpt lat="49.4224548339843750" lon="0.5690857768058777"><ele></ele><time>2016-10-9T10:40:57Z</time></trkpt>
<trkpt lat="49.4223403930664062" lon="0.5690634846687317"><ele></ele><time>2016-10-9T10:41:0Z</time></trkpt>
<trkpt lat="49.4222679138183594" lon="0.5690487623214722"><ele></ele><time>2016-10-9T10:41:3Z</time></trkpt>
<trkpt lat="49.4221916198730469" lon="0.5690379142761230"><ele></ele><time>2016-10-9T10:41:6Z</time></trkpt>
<trkpt lat="49.4220809936523438" lon="0.5690225362777710"><ele></ele><time>2016-10-9T10:41:9Z</time></trkpt>
<trkpt lat="49.4219627380371094" lon="0.5690182447433472"><ele></ele><time>2016-10-9T10:41:12Z</time></trkpt>
<trkpt lat="49.4218521118164062" lon="0.5690046548843384"><ele></ele><time>2016-10-9T10:41:15Z</time></trkpt>
<trkpt lat="49.4217758178710938" lon="0.5689958333969116"><ele></ele><time>2016-10-9T10:41:18Z</time></trkpt>
<trkpt lat="49.4216537475585938" lon="0.5689787864685059"><ele></ele><time>2016-10-9T10:41:21Z</time></trkpt>
<trkpt lat="49.4215736389160156" lon="0.5689640045166016"><ele></ele><time>2016-10-9T10:41:24Z</time></trkpt>
<trkpt lat="49.4214439392089844" lon="0.5689423680305481"><ele></ele><time>2016-10-9T10:41:27Z</time></trkpt>
<trkpt lat="49.4213142395019531" lon="0.5689277052879333"><ele></ele><time>2016-10-9T10:41:30Z</time></trkpt>
<trkpt lat="49.4212265014648438" lon="0.5689167976379395"><ele></ele><time>2016-10-9T10:41:33Z</time></trkpt>
<trkpt lat="49.4210968017578125" lon="0.5688994526863098"><ele></ele><time>2016-10-9T10:41:36Z</time></trkpt>
<trkpt lat="49.4209709167480469" lon="0.5688837170600891"><ele></ele><time>2016-10-9T10:41:39Z</time></trkpt>
<trkpt lat="49.4208450317382812" lon="0.5688555240631104"><ele></ele><time>2016-10-9T10:41:42Z</time></trkpt>
<trkpt lat="49.4207611083984375" lon="0.5688381195068359"><ele></ele><time>2016-10-9T10:41:45Z</time></trkpt>
<trkpt lat="49.4206314086914062" lon="0.5688133835792542"><ele></ele><time>2016-10-9T10:41:48Z</time></trkpt>
<trkpt lat="49.4205131530761719" lon="0.5688035488128662"><ele></ele><time>2016-10-9T10:41:51Z</time></trkpt>
<trkpt lat="49.4204330444335938" lon="0.5688014626502991"><ele></ele><time>2016-10-9T10:41:54Z</time></trkpt>
<trkpt lat="49.4203529357910156" lon="0.5688041448593140"><ele></ele><time>2016-10-9T10:41:57Z</time></trkpt>
<trkpt lat="49.4202346801757812" lon="0.5688049793243408"><ele></ele><time>2016-10-9T10:42:0Z</time></trkpt>
<trkpt lat="49.4201583862304688" lon="0.5688061714172363"><ele></ele><time>2016-10-9T10:42:3Z</time></trkpt>
<trkpt lat="49.4200401306152344" lon="0.5687946081161499"><ele></ele><time>2016-10-9T10:42:6Z</time></trkpt>
<trkpt lat="49.4199485778808594" lon="0.5687907338142395"><ele></ele><time>2016-10-9T10:42:9Z</time></trkpt>
<trkpt lat="49.4198150634765625" lon="0.5687893033027649"><ele></ele><time>2016-10-9T10:42:12Z</time></trkpt>
<trkpt lat="49.4196853637695312" lon="0.5687709450721741"><ele></ele><time>2016-10-9T10:42:15Z</time></trkpt>
<trkpt lat="49.4195556640625000" lon="0.5687633156776428"><ele></ele><time>2016-10-9T10:42:18Z</time></trkpt>
<trkpt lat="49.4194412231445312" lon="0.5687574744224548"><ele></ele><time>2016-10-9T10:42:21Z</time></trkpt>
<trkpt lat="49.4193229675292969" lon="0.5687636137008667"><ele></ele><time>2016-10-9T10:42:24Z</time></trkpt>
<trkpt lat="49.4192085266113281" lon="0.5687820911407471"><ele></ele><time>2016-10-9T10:42:27Z</time></trkpt>
<trkpt lat="49.4190902709960938" lon="0.5687854886054993"><ele></ele><time>2016-10-9T10:42:30Z</time></trkpt>
<trkpt lat="49.4189567565917969" lon="0.5688178539276123"><ele></ele><time>2016-10-9T10:42:33Z</time></trkpt>
<trkpt lat="49.4188766479492188" lon="0.5688247680664062"><ele></ele><time>2016-10-9T10:42:36Z</time></trkpt>
<trkpt lat="49.4187927246093750" lon="0.5688410401344299"><ele></ele><time>2016-10-9T10:42:39Z</time></trkpt>
<trkpt lat="49.4186668395996094" lon="0.5688580870628357"><ele></ele><time>2016-10-9T10:42:42Z</time></trkpt>
<trkpt lat="49.4185791015625000" lon="0.5688636898994446"><ele></ele><time>2016-10-9T10:42:45Z</time></trkpt>
<trkpt lat="49.4184722900390625" lon="0.5689221024513245"><ele></ele><time>2016-10-9T10:42:48Z</time></trkpt>
<trkpt lat="49.4183731079101562" lon="0.5689883232116699"><ele></ele><time>2016-10-9T10:42:51Z</time></trkpt>
<trkpt lat="49.4182395935058594" lon="0.5690160393714905"><ele></ele><time>2016-10-9T10:42:54Z</time></trkpt>
<trkpt lat="49.4181900024414062" lon="0.5687276124954224"><ele></ele><time>2016-10-9T10:42:57Z</time></trkpt>
<trkpt lat="49.4181518554687500" lon="0.5685229301452637"><ele></ele><time>2016-10-9T10:43:0Z</time></trkpt>
<trkpt lat="49.4181098937988281" lon="0.5683910250663757"><ele></ele><time>2016-10-9T10:43:3Z</time></trkpt>
<trkpt lat="49.4180564880371094" lon="0.5682090520858765"><ele></ele><time>2016-10-9T10:43:6Z</time></trkpt>
<trkpt lat="49.4179992675781250" lon="0.5680077075958252"><ele></ele><time>2016-10-9T10:43:9Z</time></trkpt>
<trkpt lat="49.4179763793945312" lon="0.5678793787956238"><ele></ele><time>2016-10-9T10:43:12Z</time></trkpt>
<trkpt lat="49.4179458618164062" lon="0.5677542686462402"><ele></ele><time>2016-10-9T10:43:15Z</time></trkpt>
<trkpt lat="49.4178848266601562" lon="0.5675642490386963"><ele></ele><time>2016-10-9T10:43:18Z</time></trkpt>
<trkpt lat="49.4178543090820312" lon="0.5674262642860413"><ele></ele><time>2016-10-9T10:43:21Z</time></trkpt>
<trkpt lat="49.4178085327148438" lon="0.5673060417175293"><ele></ele><time>2016-10-9T10:43:24Z</time></trkpt>
<trkpt lat="49.4177627563476562" lon="0.5670831799507141"><ele></ele><time>2016-10-9T10:43:27Z</time></trkpt>
<trkpt lat="49.4177284240722656" lon="0.5669466257095337"><ele></ele><time>2016-10-9T10:43:30Z</time></trkpt>
<trkpt lat="49.4176788330078125" lon="0.5667551159858704"><ele></ele><time>2016-10-9T10:43:33Z</time></trkpt>
<trkpt lat="49.4176292419433594" lon="0.5665521025657654"><ele></ele><time>2016-10-9T10:43:36Z</time></trkpt>
<trkpt lat="49.4175910949707031" lon="0.5664039850234985"><ele></ele><time>2016-10-9T10:43:39Z</time></trkpt>
<trkpt lat="49.4175224304199219" lon="0.5662283301353455"><ele></ele><time>2016-10-9T10:43:42Z</time></trkpt>
<trkpt lat="49.4174766540527344" lon="0.5660040974617004"><ele></ele><time>2016-10-9T10:43:45Z</time></trkpt>
<trkpt lat="49.4174232482910156" lon="0.5657923221588135"><ele></ele><time>2016-10-9T10:43:48Z</time></trkpt>
<trkpt lat="49.4173774719238281" lon="0.5655846595764160"><ele></ele><time>2016-10-9T10:43:51Z</time></trkpt>
<trkpt lat="49.4173393249511719" lon="0.5654231309890747"><ele></ele><time>2016-10-9T10:43:54Z</time></trkpt>
<trkpt lat="49.4173011779785156" lon="0.5651866197586060"><ele></ele><time>2016-10-9T10:43:57Z</time></trkpt>
<trkpt lat="49.4172630310058594" lon="0.5650248527526855"><ele></ele><time>2016-10-9T10:44:0Z</time></trkpt>
<trkpt lat="49.4172248840332031" lon="0.5647486448287964"><ele></ele><time>2016-10-9T10:44:3Z</time></trkpt>
<trkpt lat="49.4171752929687500" lon="0.5644756555557251"><ele></ele><time>2016-10-9T10:44:6Z</time></trkpt>
<trkpt lat="49.4171333312988281" lon="0.5642923712730408"><ele></ele><time>2016-10-9T10:44:9Z</time></trkpt>
<trkpt lat="49.4170532226562500" lon="0.5640388131141663"><ele></ele><time>2016-10-9T10:44:12Z</time></trkpt>
<trkpt lat="49.4169883728027344" lon="0.5638042688369751"><ele></ele><time>2016-10-9T10:44:15Z</time></trkpt>
<trkpt lat="49.4169120788574219" lon="0.5635654926300049"><ele></ele><time>2016-10-9T10:44:18Z</time></trkpt>
<trkpt lat="49.4168357849121094" lon="0.5633252263069153"><ele></ele><time>2016-10-9T10:44:21Z</time></trkpt>
<trkpt lat="49.4167900085449219" lon="0.5631419420242310"><ele></ele><time>2016-10-9T10:44:24Z</time></trkpt>
<trkpt lat="49.4167098999023438" lon="0.5628983378410339"><ele></ele><time>2016-10-9T10:44:27Z</time></trkpt>
<trkpt lat="49.4166297912597656" lon="0.5626561045646667"><ele></ele><time>2016-10-9T10:44:30Z</time></trkpt>
<trkpt lat="49.4165496826171875" lon="0.5624189376831055"><ele></ele><time>2016-10-9T10:44:33Z</time></trkpt>
<trkpt lat="49.4164886474609375" lon="0.5622603297233582"><ele></ele><time>2016-10-9T10:44:36Z</time></trkpt>
<trkpt lat="49.4164085388183594" lon="0.5620380640029907"><ele></ele><time>2016-10-9T10:44:39Z</time></trkpt>
<trkpt lat="49.4163513183593750" lon="0.5618795156478882"><ele></ele><time>2016-10-9T10:44:42Z</time></trkpt>
<trkpt lat="49.4162445068359375" lon="0.5616581439971924"><ele></ele><time>2016-10-9T10:44:45Z</time></trkpt>
<trkpt lat="49.4161682128906250" lon="0.5615320801734924"><ele></ele><time>2016-10-9T10:44:48Z</time></trkpt>
<trkpt lat="49.4160308837890625" lon="0.5613726973533630"><ele></ele><time>2016-10-9T10:44:51Z</time></trkpt>
<trkpt lat="49.4159393310546875" lon="0.5612858533859253"><ele></ele><time>2016-10-9T10:44:54Z</time></trkpt>
<trkpt lat="49.4157791137695312" lon="0.5611808896064758"><ele></ele><time>2016-10-9T10:44:57Z</time></trkpt>
<trkpt lat="49.4156112670898438" lon="0.5611148476600647"><ele></ele><time>2016-10-9T10:45:0Z</time></trkpt>
<trkpt lat="49.4154663085937500" lon="0.5610321164131165"><ele></ele><time>2016-10-9T10:45:3Z</time></trkpt>
<trkpt lat="49.4153709411621094" lon="0.5609819293022156"><ele></ele><time>2016-10-9T10:45:6Z</time></trkpt>
<trkpt lat="49.4152717590332031" lon="0.5608471632003784"><ele></ele><time>2016-10-9T10:45:9Z</time></trkpt>
<trkpt lat="49.4152374267578125" lon="0.5606827735900879"><ele></ele><time>2016-10-9T10:45:12Z</time></trkpt>
<trkpt lat="49.4152450561523438" lon="0.5604356527328491"><ele></ele><time>2016-10-9T10:45:15Z</time></trkpt>
<trkpt lat="49.4152870178222656" lon="0.5602585673332214"><ele></ele><time>2016-10-9T10:45:18Z</time></trkpt>
<trkpt lat="49.4153442382812500" lon="0.5599983930587769"><ele></ele><time>2016-10-9T10:45:21Z</time></trkpt>
<trkpt lat="49.4153823852539062" lon="0.5598552227020264"><ele></ele><time>2016-10-9T10:45:24Z</time></trkpt>
<trkpt lat="49.4154205322265625" lon="0.5596134066581726"><ele></ele><time>2016-10-9T10:45:27Z</time></trkpt>
<trkpt lat="49.4154739379882812" lon="0.5593581199645996"><ele></ele><time>2016-10-9T10:45:30Z</time></trkpt>
<trkpt lat="49.4155273437500000" lon="0.5591366291046143"><ele></ele><time>2016-10-9T10:45:33Z</time></trkpt>
<trkpt lat="49.4155693054199219" lon="0.5588865280151367"><ele></ele><time>2016-10-9T10:45:36Z</time></trkpt>
<trkpt lat="49.4156112670898438" lon="0.5587322115898132"><ele></ele><time>2016-10-9T10:45:39Z</time></trkpt>
<trkpt lat="49.4156723022460938" lon="0.5584848523139954"><ele></ele><time>2016-10-9T10:45:42Z</time></trkpt>
<trkpt lat="49.4157180786132812" lon="0.5582506060600281"><ele></ele><time>2016-10-9T10:45:45Z</time></trkpt>
<trkpt lat="49.4157562255859375" lon="0.5580909848213196"><ele></ele><time>2016-10-9T10:45:48Z</time></trkpt>
<trkpt lat="49.4158096313476562" lon="0.5578742623329163"><ele></ele><time>2016-10-9T10:45:51Z</time></trkpt>
<trkpt lat="49.4158477783203125" lon="0.5577325820922852"><ele></ele><time>2016-10-9T10:45:54Z</time></trkpt>
<trkpt lat="49.4158935546875000" lon="0.5574926137924194"><ele></ele><time>2016-10-9T10:45:57Z</time></trkpt>
<trkpt lat="49.4159355163574219" lon="0.5573454499244690"><ele></ele><time>2016-10-9T10:46:0Z</time></trkpt>
<trkpt lat="49.4159698486328125" lon="0.5571156144142151"><ele></ele><time>2016-10-9T10:46:3Z</time></trkpt>
<trkpt lat="49.4160194396972656" lon="0.5569623708724976"><ele></ele><time>2016-10-9T10:46:6Z</time></trkpt>
<trkpt lat="49.4160995483398438" lon="0.5567058324813843"><ele></ele><time>2016-10-9T10:46:9Z</time></trkpt>
<trkpt lat="49.4161453247070312" lon="0.5564267635345459"><ele></ele><time>2016-10-9T10:46:12Z</time></trkpt>
<trkpt lat="49.4161796569824219" lon="0.5562415122985840"><ele></ele><time>2016-10-9T10:46:15Z</time></trkpt>
<trkpt lat="49.4162445068359375" lon="0.5560160875320435"><ele></ele><time>2016-10-9T10:46:18Z</time></trkpt>
<trkpt lat="49.4162902832031250" lon="0.5558364987373352"><ele></ele><time>2016-10-9T10:46:21Z</time></trkpt>
<trkpt lat="49.4163398742675781" lon="0.5554953217506409"><ele></ele><time>2016-10-9T10:46:24Z</time></trkpt>
<trkpt lat="49.4163589477539062" lon="0.5552806258201599"><ele></ele><time>2016-10-9T10:46:27Z</time></trkpt>
<trkpt lat="49.4163742065429688" lon="0.5550750494003296"><ele></ele><time>2016-10-9T10:46:30Z</time></trkpt>
<trkpt lat="49.4164466857910156" lon="0.5547805428504944"><ele></ele><time>2016-10-9T10:46:33Z</time></trkpt>
<trkpt lat="49.4164962768554688" lon="0.5545766353607178"><ele></ele><time>2016-10-9T10:46:36Z</time></trkpt>
<trkpt lat="49.4165267944335938" lon="0.5543714761734009"><ele></ele><time>2016-10-9T10:46:39Z</time></trkpt>
<trkpt lat="49.4165992736816406" lon="0.5541124343872070"><ele></ele><time>2016-10-9T10:46:42Z</time></trkpt>
<trkpt lat="49.4166641235351562" lon="0.5538100004196167"><ele></ele><time>2016-10-9T10:46:45Z</time></trkpt>
<trkpt lat="49.4167404174804688" lon="0.5535078048706055"><ele></ele><time>2016-10-9T10:46:48Z</time></trkpt>
<trkpt lat="49.4167823791503906" lon="0.5533223748207092"><ele></ele><time>2016-10-9T10:46:51Z</time></trkpt>
<trkpt lat="49.4168319702148438" lon="0.5531327724456787"><ele></ele><time>2016-10-9T10:46:54Z</time></trkpt>
<trkpt lat="49.4168815612792969" lon="0.5529212355613708"><ele></ele><time>2016-10-9T10:46:57Z</time></trkpt>
<trkpt lat="49.4169235229492188" lon="0.5527220368385315"><ele></ele><time>2016-10-9T10:47:0Z</time></trkpt>
<trkpt lat="49.4169578552246094" lon="0.5525285005569458"><ele></ele><time>2016-10-9T10:47:3Z</time></trkpt>
<trkpt lat="49.4170112609863281" lon="0.5522251129150391"><ele></ele><time>2016-10-9T10:47:6Z</time></trkpt>
<trkpt lat="49.4170570373535156" lon="0.5519163608551025"><ele></ele><time>2016-10-9T10:47:9Z</time></trkpt>
<trkpt lat="49.4170875549316406" lon="0.5516266822814941"><ele></ele><time>2016-10-9T10:47:12Z</time></trkpt>
<trkpt lat="49.4171066284179688" lon="0.5514188408851624"><ele></ele><time>2016-10-9T10:47:15Z</time></trkpt>
<trkpt lat="49.4171562194824219" lon="0.5511626005172729"><ele></ele><time>2016-10-9T10:47:18Z</time></trkpt>
<trkpt lat="49.4172134399414062" lon="0.5509194731712341"><ele></ele><time>2016-10-9T10:47:21Z</time></trkpt>
<trkpt lat="49.4172439575195312" lon="0.5506390929222107"><ele></ele><time>2016-10-9T10:47:24Z</time></trkpt>
<trkpt lat="49.4172630310058594" lon="0.5504785776138306"><ele></ele><time>2016-10-9T10:47:27Z</time></trkpt>
<trkpt lat="49.4172668457031250" lon="0.5502956509590149"><ele></ele><time>2016-10-9T10:47:30Z</time></trkpt>
<trkpt lat="49.4172744750976562" lon="0.5499987602233887"><ele></ele><time>2016-10-9T10:47:33Z</time></trkpt>
<trkpt lat="49.4172821044921875" lon="0.5498058199882507"><ele></ele><time>2016-10-9T10:47:36Z</time></trkpt>
<trkpt lat="49.4173049926757812" lon="0.5495306253433228"><ele></ele><time>2016-10-9T10:47:39Z</time></trkpt>
<trkpt lat="49.4172782897949219" lon="0.5492433309555054"><ele></ele><time>2016-10-9T10:47:42Z</time></trkpt>
<trkpt lat="49.4172744750976562" lon="0.5490776300430298"><ele></ele><time>2016-10-9T10:47:45Z</time></trkpt>
<trkpt lat="49.4172668457031250" lon="0.5487915873527527"><ele></ele><time>2016-10-9T10:47:48Z</time></trkpt>
<trkpt lat="49.4172515869140625" lon="0.5486258864402771"><ele></ele><time>2016-10-9T10:47:51Z</time></trkpt>
<trkpt lat="49.4172744750976562" lon="0.5484477281570435"><ele></ele><time>2016-10-9T10:47:54Z</time></trkpt>
<trkpt lat="49.4172859191894531" lon="0.5481297969818115"><ele></ele><time>2016-10-9T10:47:57Z</time></trkpt>
<trkpt lat="49.4172859191894531" lon="0.5479317903518677"><ele></ele><time>2016-10-9T10:48:0Z</time></trkpt>
<trkpt lat="49.4173011779785156" lon="0.5477864742279053"><ele></ele><time>2016-10-9T10:48:3Z</time></trkpt>
<trkpt lat="49.4173202514648438" lon="0.5474914908409119"><ele></ele><time>2016-10-9T10:48:6Z</time></trkpt>
<trkpt lat="49.4173126220703125" lon="0.5472243428230286"><ele></ele><time>2016-10-9T10:48:9Z</time></trkpt>
<trkpt lat="49.4173316955566406" lon="0.5470399856567383"><ele></ele><time>2016-10-9T10:48:12Z</time></trkpt>
<trkpt lat="49.4173278808593750" lon="0.5467367768287659"><ele></ele><time>2016-10-9T10:48:15Z</time></trkpt>
<trkpt lat="49.4173164367675781" lon="0.5463747978210449"><ele></ele><time>2016-10-9T10:48:18Z</time></trkpt>
<trkpt lat="49.4173049926757812" lon="0.5461491346359253"><ele></ele><time>2016-10-9T10:48:21Z</time></trkpt>
<trkpt lat="49.4173240661621094" lon="0.5458097457885742"><ele></ele><time>2016-10-9T10:48:24Z</time></trkpt>
<trkpt lat="49.4173355102539062" lon="0.5455877184867859"><ele></ele><time>2016-10-9T10:48:27Z</time></trkpt>
<trkpt lat="49.4173851013183594" lon="0.5452969670295715"><ele></ele><time>2016-10-9T10:48:30Z</time></trkpt>
<trkpt lat="49.4174613952636719" lon="0.5450184941291809"><ele></ele><time>2016-10-9T10:48:33Z</time></trkpt>
<trkpt lat="49.4175453186035156" lon="0.5447493791580200"><ele></ele><time>2016-10-9T10:48:36Z</time></trkpt>
<trkpt lat="49.4176139831542969" lon="0.5445870161056519"><ele></ele><time>2016-10-9T10:48:39Z</time></trkpt>
<trkpt lat="49.4176635742187500" lon="0.5444467663764954"><ele></ele><time>2016-10-9T10:48:42Z</time></trkpt>
<trkpt lat="49.4177131652832031" lon="0.5443450212478638"><ele></ele><time>2016-10-9T10:48:45Z</time></trkpt>
<trkpt lat="49.4177589416503906" lon="0.5442408919334412"><ele></ele><time>2016-10-9T10:48:48Z</time></trkpt>
<trkpt lat="49.4177856445312500" lon="0.5441745519638062"><ele></ele><time>2016-10-9T10:48:51Z</time></trkpt>
<trkpt lat="49.4178161621093750" lon="0.5441211462020874"><ele></ele><time>2016-10-9T10:48:54Z</time></trkpt>
<trkpt lat="49.4177665710449219" lon="0.5439432859420776"><ele></ele><time>2016-10-9T10:48:57Z</time></trkpt>
<trkpt lat="49.4175834655761719" lon="0.5437865257263184"><ele></ele><time>2016-10-9T10:49:0Z</time></trkpt>
<trkpt lat="49.4174652099609375" lon="0.5436400771141052"><ele></ele><time>2016-10-9T10:49:3Z</time></trkpt>
<trkpt lat="49.4173583984375000" lon="0.5435093641281128"><ele></ele><time>2016-10-9T10:49:6Z</time></trkpt>
<trkpt lat="49.4172554016113281" lon="0.5434744954109192"><ele></ele><time>2016-10-9T10:49:9Z</time></trkpt>
<trkpt lat="49.4171180725097656" lon="0.5434491038322449"><ele></ele><time>2016-10-9T10:49:12Z</time></trkpt>
<trkpt lat="49.4169540405273438" lon="0.5434401035308838"><ele></ele><time>2016-10-9T10:49:15Z</time></trkpt>
<trkpt lat="49.4166030883789062" lon="0.5434098243713379"><ele></ele><time>2016-10-9T10:49:18Z</time></trkpt>
<trkpt lat="49.4164886474609375" lon="0.5433794856071472"><ele></ele><time>2016-10-9T10:49:21Z</time></trkpt>
<trkpt lat="49.4163284301757812" lon="0.5433024764060974"><ele></ele><time>2016-10-9T10:49:24Z</time></trkpt>
<trkpt lat="49.4162254333496094" lon="0.5431753396987915"><ele></ele><time>2016-10-9T10:49:27Z</time></trkpt>
<trkpt lat="49.4160728454589844" lon="0.5429891347885132"><ele></ele><time>2016-10-9T10:49:30Z</time></trkpt>
<trkpt lat="49.4159278869628906" lon="0.5428242683410645"><ele></ele><time>2016-10-9T10:49:33Z</time></trkpt>
<trkpt lat="49.4158172607421875" lon="0.5427194237709045"><ele></ele><time>2016-10-9T10:49:36Z</time></trkpt>
<trkpt lat="49.4157142639160156" lon="0.5426090955734253"><ele></ele><time>2016-10-9T10:49:39Z</time></trkpt>
<trkpt lat="49.4155921936035156" lon="0.5424495339393616"><ele></ele><time>2016-10-9T10:49:42Z</time></trkpt>
<trkpt lat="49.4154930114746094" lon="0.5423513650894165"><ele></ele><time>2016-10-9T10:49:45Z</time></trkpt>
<trkpt lat="49.4154205322265625" lon="0.5422353148460388"><ele></ele><time>2016-10-9T10:49:48Z</time></trkpt>
<trkpt lat="49.4153442382812500" lon="0.5421307086944580"><ele></ele><time>2016-10-9T10:49:51Z</time></trkpt>
<trkpt lat="49.4152450561523438" lon="0.5420173406600952"><ele></ele><time>2016-10-9T10:49:54Z</time></trkpt>
<trkpt lat="49.4151115417480469" lon="0.5418419241905212"><ele></ele><time>2016-10-9T10:49:57Z</time></trkpt>
<trkpt lat="49.4149971008300781" lon="0.5416685938835144"><ele></ele><time>2016-10-9T10:50:0Z</time></trkpt>
<trkpt lat="49.4149131774902344" lon="0.5415490865707397"><ele></ele><time>2016-10-9T10:50:3Z</time></trkpt>
<trkpt lat="49.4147872924804688" lon="0.5413583517074585"><ele></ele><time>2016-10-9T10:50:6Z</time></trkpt>
<trkpt lat="49.4147109985351562" lon="0.5412335991859436"><ele></ele><time>2016-10-9T10:50:9Z</time></trkpt>
<trkpt lat="49.4146308898925781" lon="0.5411232709884644"><ele></ele><time>2016-10-9T10:50:12Z</time></trkpt>
<trkpt lat="49.4144935607910156" lon="0.5409831404685974"><ele></ele><time>2016-10-9T10:50:15Z</time></trkpt>
<trkpt lat="49.4143905639648438" lon="0.5409120321273804"><ele></ele><time>2016-10-9T10:50:18Z</time></trkpt>
<trkpt lat="49.4142189025878906" lon="0.5408251881599426"><ele></ele><time>2016-10-9T10:50:21Z</time></trkpt>
<trkpt lat="49.4140701293945312" lon="0.5407394766807556"><ele></ele><time>2016-10-9T10:50:24Z</time></trkpt>
<trkpt lat="49.4139595031738281" lon="0.5406811833381653"><ele></ele><time>2016-10-9T10:50:27Z</time></trkpt>
<trkpt lat="49.4137954711914062" lon="0.5406298041343689"><ele></ele><time>2016-10-9T10:50:30Z</time></trkpt>
<trkpt lat="49.4136810302734375" lon="0.5405849218368530"><ele></ele><time>2016-10-9T10:50:33Z</time></trkpt>
<trkpt lat="49.4135665893554688" lon="0.5405385494232178"><ele></ele><time>2016-10-9T10:50:36Z</time></trkpt>
<trkpt lat="49.4133949279785156" lon="0.5404766798019409"><ele></ele><time>2016-10-9T10:50:39Z</time></trkpt>
<trkpt lat="49.4132919311523438" lon="0.5404335856437683"><ele></ele><time>2016-10-9T10:50:42Z</time></trkpt>
<trkpt lat="49.4131774902343750" lon="0.5403773784637451"><ele></ele><time>2016-10-9T10:50:45Z</time></trkpt>
<trkpt lat="49.4130096435546875" lon="0.5403217673301697"><ele></ele><time>2016-10-9T10:50:48Z</time></trkpt>
<trkpt lat="49.4129142761230469" lon="0.5402782559394836"><ele></ele><time>2016-10-9T10:50:51Z</time></trkpt>
<trkpt lat="49.4128227233886719" lon="0.5402271747589111"><ele></ele><time>2016-10-9T10:50:54Z</time></trkpt>
<trkpt lat="49.4126586914062500" lon="0.5401278138160706"><ele></ele><time>2016-10-9T10:50:57Z</time></trkpt>
<trkpt lat="49.4124946594238281" lon="0.5400351881980896"><ele></ele><time>2016-10-9T10:51:0Z</time></trkpt>
<trkpt lat="49.4123840332031250" lon="0.5399771928787231"><ele></ele><time>2016-10-9T10:51:3Z</time></trkpt>
<trkpt lat="49.4122734069824219" lon="0.5399282574653625"><ele></ele><time>2016-10-9T10:51:6Z</time></trkpt>
<trkpt lat="49.4121170043945312" lon="0.5398436188697815"><ele></ele><time>2016-10-9T10:51:9Z</time></trkpt>
<trkpt lat="49.4119453430175781" lon="0.5397642850875854"><ele></ele><time>2016-10-9T10:51:12Z</time></trkpt>
<trkpt lat="49.4117889404296875" lon="0.5396707653999329"><ele></ele><time>2016-10-9T10:51:15Z</time></trkpt>
<trkpt lat="49.4116783142089844" lon="0.5396158695220947"><ele></ele><time>2016-10-9T10:51:18Z</time></trkpt>
<trkpt lat="49.4115676879882812" lon="0.5395589470863342"><ele></ele><time>2016-10-9T10:51:21Z</time></trkpt>
<trkpt lat="49.4113883972167969" lon="0.5394733548164368"><ele></ele><time>2016-10-9T10:51:24Z</time></trkpt>
<trkpt lat="49.4112205505371094" lon="0.5393992066383362"><ele></ele><time>2016-10-9T10:51:27Z</time></trkpt>
<trkpt lat="49.4111022949218750" lon="0.5393610596656799"><ele></ele><time>2016-10-9T10:51:30Z</time></trkpt>
<trkpt lat="49.4109420776367188" lon="0.5392992496490479"><ele></ele><time>2016-10-9T10:51:33Z</time></trkpt>
<trkpt lat="49.4108352661132812" lon="0.5392498970031738"><ele></ele><time>2016-10-9T10:51:36Z</time></trkpt>
<trkpt lat="49.4107246398925781" lon="0.5392156243324280"><ele></ele><time>2016-10-9T10:51:39Z</time></trkpt>
<trkpt lat="49.4105606079101562" lon="0.5391795039176941"><ele></ele><time>2016-10-9T10:51:42Z</time></trkpt>
<trkpt lat="49.4104461669921875" lon="0.5391618013381958"><ele></ele><time>2016-10-9T10:51:45Z</time></trkpt>
<trkpt lat="49.4102706909179688" lon="0.5391371846199036"><ele></ele><time>2016-10-9T10:51:48Z</time></trkpt>
<trkpt lat="49.4100799560546875" lon="0.5391370654106140"><ele></ele><time>2016-10-9T10:51:51Z</time></trkpt>
<trkpt lat="49.4098281860351562" lon="0.5391298532485962"><ele></ele><time>2016-10-9T10:51:54Z</time></trkpt>
<trkpt lat="49.4096870422363281" lon="0.5391169786453247"><ele></ele><time>2016-10-9T10:51:57Z</time></trkpt>
<trkpt lat="49.4095306396484375" lon="0.5391234159469604"><ele></ele><time>2016-10-9T10:52:0Z</time></trkpt>
<trkpt lat="49.4092979431152344" lon="0.5391281247138977"><ele></ele><time>2016-10-9T10:52:3Z</time></trkpt>
<trkpt lat="49.4090805053710938" lon="0.5391592383384705"><ele></ele><time>2016-10-9T10:52:6Z</time></trkpt>
<trkpt lat="49.4088821411132812" lon="0.5391308665275574"><ele></ele><time>2016-10-9T10:52:9Z</time></trkpt>
<trkpt lat="49.4087142944335938" lon="0.5390331745147705"><ele></ele><time>2016-10-9T10:52:12Z</time></trkpt>
<trkpt lat="49.4085578918457031" lon="0.5389615893363953"><ele></ele><time>2016-10-9T10:52:15Z</time></trkpt>
<trkpt lat="49.4084548950195312" lon="0.5389007329940796"><ele></ele><time>2016-10-9T10:52:18Z</time></trkpt>
<trkpt lat="49.4083480834960938" lon="0.5388471484184265"><ele></ele><time>2016-10-9T10:52:21Z</time></trkpt>
<trkpt lat="49.4082298278808594" lon="0.5388068556785583"><ele></ele><time>2016-10-9T10:52:24Z</time></trkpt>
<trkpt lat="49.4081230163574219" lon="0.5387523770332336"><ele></ele><time>2016-10-9T10:52:27Z</time></trkpt>
<trkpt lat="49.4079513549804688" lon="0.5387037992477417"><ele></ele><time>2016-10-9T10:52:30Z</time></trkpt>
<trkpt lat="49.4078521728515625" lon="0.5386734008789062"><ele></ele><time>2016-10-9T10:52:33Z</time></trkpt>
<trkpt lat="49.4077072143554688" lon="0.5386353731155396"><ele></ele><time>2016-10-9T10:52:36Z</time></trkpt>
<trkpt lat="49.4075431823730469" lon="0.5386635661125183"><ele></ele><time>2016-10-9T10:52:39Z</time></trkpt>
<trkpt lat="49.4073944091796875" lon="0.5387045741081238"><ele></ele><time>2016-10-9T10:52:42Z</time></trkpt>
<trkpt lat="49.4072265625000000" lon="0.5387714505195618"><ele></ele><time>2016-10-9T10:52:45Z</time></trkpt>
<trkpt lat="49.4070777893066406" lon="0.5387811064720154"><ele></ele><time>2016-10-9T10:52:48Z</time></trkpt>
<trkpt lat="49.4068946838378906" lon="0.5388292074203491"><ele></ele><time>2016-10-9T10:52:51Z</time></trkpt>
<trkpt lat="49.4067916870117188" lon="0.5388473272323608"><ele></ele><time>2016-10-9T10:52:54Z</time></trkpt>
<trkpt lat="49.4066886901855469" lon="0.5388384461402893"><ele></ele><time>2016-10-9T10:52:57Z</time></trkpt>
<trkpt lat="49.4065399169921875" lon="0.5388205051422119"><ele></ele><time>2016-10-9T10:53:0Z</time></trkpt>
<trkpt lat="49.4063606262207031" lon="0.5388383865356445"><ele></ele><time>2016-10-9T10:53:3Z</time></trkpt>
<trkpt lat="49.4062156677246094" lon="0.5388318896293640"><ele></ele><time>2016-10-9T10:53:6Z</time></trkpt>
<trkpt lat="49.4060668945312500" lon="0.5388482213020325"><ele></ele><time>2016-10-9T10:53:9Z</time></trkpt>
<trkpt lat="49.4059333801269531" lon="0.5388153791427612"><ele></ele><time>2016-10-9T10:53:12Z</time></trkpt>
<trkpt lat="49.4058456420898438" lon="0.5388017892837524"><ele></ele><time>2016-10-9T10:53:15Z</time></trkpt>
<trkpt lat="49.4057044982910156" lon="0.5387456417083740"><ele></ele><time>2016-10-9T10:53:18Z</time></trkpt>
<trkpt lat="49.4056282043457031" lon="0.5386564135551453"><ele></ele><time>2016-10-9T10:53:21Z</time></trkpt>
<trkpt lat="49.4055328369140625" lon="0.5386098623275757"><ele></ele><time>2016-10-9T10:53:24Z</time></trkpt>
<trkpt lat="49.4054260253906250" lon="0.5385728478431702"><ele></ele><time>2016-10-9T10:53:27Z</time></trkpt>
<trkpt lat="49.4053382873535156" lon="0.5385204553604126"><ele></ele><time>2016-10-9T10:53:30Z</time></trkpt>
<trkpt lat="49.4052467346191406" lon="0.5384857058525085"><ele></ele><time>2016-10-9T10:53:33Z</time></trkpt>
<trkpt lat="49.4051322937011719" lon="0.5384055972099304"><ele></ele><time>2016-10-9T10:53:36Z</time></trkpt>
<trkpt lat="49.4050445556640625" lon="0.5383121371269226"><ele></ele><time>2016-10-9T10:53:39Z</time></trkpt>
<trkpt lat="49.4049263000488281" lon="0.5381899476051331"><ele></ele><time>2016-10-9T10:53:42Z</time></trkpt>
<trkpt lat="49.4048347473144531" lon="0.5381326675415039"><ele></ele><time>2016-10-9T10:53:45Z</time></trkpt>
<trkpt lat="49.4047050476074219" lon="0.5380181074142456"><ele></ele><time>2016-10-9T10:53:48Z</time></trkpt>
<trkpt lat="49.4045600891113281" lon="0.5378747582435608"><ele></ele><time>2016-10-9T10:53:51Z</time></trkpt>
<trkpt lat="49.4044799804687500" lon="0.5377963185310364"><ele></ele><time>2016-10-9T10:53:54Z</time></trkpt>
<trkpt lat="49.4043502807617188" lon="0.5376576185226440"><ele></ele><time>2016-10-9T10:53:57Z</time></trkpt>
<trkpt lat="49.4042663574218750" lon="0.5375816822052002"><ele></ele><time>2016-10-9T10:54:0Z</time></trkpt>
<trkpt lat="49.4041900634765625" lon="0.5375010967254639"><ele></ele><time>2016-10-9T10:54:3Z</time></trkpt>
<trkpt lat="49.4040794372558594" lon="0.5374498963356018"><ele></ele><time>2016-10-9T10:54:6Z</time></trkpt>
<trkpt lat="49.4039421081542969" lon="0.5373339653015137"><ele></ele><time>2016-10-9T10:54:9Z</time></trkpt>
<trkpt lat="49.4038047790527344" lon="0.5372025370597839"><ele></ele><time>2016-10-9T10:54:12Z</time></trkpt>
<trkpt lat="49.4037055969238281" lon="0.5371609926223755"><ele></ele><time>2016-10-9T10:54:15Z</time></trkpt>
<trkpt lat="49.4035644531250000" lon="0.5370783805847168"><ele></ele><time>2016-10-9T10:54:18Z</time></trkpt>
<trkpt lat="49.4034423828125000" lon="0.5370676517486572"><ele></ele><time>2016-10-9T10:54:21Z</time></trkpt>
<trkpt lat="49.4033088684082031" lon="0.5370260477066040"><ele></ele><time>2016-10-9T10:54:24Z</time></trkpt>
<trkpt lat="49.4031715393066406" lon="0.5369340181350708"><ele></ele><time>2016-10-9T10:54:27Z</time></trkpt>
<trkpt lat="49.4030685424804688" lon="0.5368948578834534"><ele></ele><time>2016-10-9T10:54:30Z</time></trkpt>
<trkpt lat="49.4029197692871094" lon="0.5368387103080750"><ele></ele><time>2016-10-9T10:54:33Z</time></trkpt>
<trkpt lat="49.4028129577636719" lon="0.5368037223815918"><ele></ele><time>2016-10-9T10:54:36Z</time></trkpt>
<trkpt lat="49.4027099609375000" lon="0.5367915630340576"><ele></ele><time>2016-10-9T10:54:39Z</time></trkpt>
<trkpt lat="49.4025611877441406" lon="0.5367617607116699"><ele></ele><time>2016-10-9T10:54:42Z</time></trkpt>
<trkpt lat="49.4024620056152344" lon="0.5367597937583923"><ele></ele><time>2016-10-9T10:54:45Z</time></trkpt>
<trkpt lat="49.4022865295410156" lon="0.5367528796195984"><ele></ele><time>2016-10-9T10:54:48Z</time></trkpt>
<trkpt lat="49.4021644592285156" lon="0.5367922782897949"><ele></ele><time>2016-10-9T10:54:51Z</time></trkpt>
<trkpt lat="49.4019851684570312" lon="0.5368798971176147"><ele></ele><time>2016-10-9T10:54:54Z</time></trkpt>
<trkpt lat="49.4018287658691406" lon="0.5369212627410889"><ele></ele><time>2016-10-9T10:54:57Z</time></trkpt>
<trkpt lat="49.4017028808593750" lon="0.5369724631309509"><ele></ele><time>2016-10-9T10:55:0Z</time></trkpt>
<trkpt lat="49.4015350341796875" lon="0.5370188951492310"><ele></ele><time>2016-10-9T10:55:3Z</time></trkpt>
<trkpt lat="49.4013671875000000" lon="0.5370734930038452"><ele></ele><time>2016-10-9T10:55:6Z</time></trkpt>
<trkpt lat="49.4012527465820312" lon="0.5371030569076538"><ele></ele><time>2016-10-9T10:55:9Z</time></trkpt>
<trkpt lat="49.4010887145996094" lon="0.5371016263961792"><ele></ele><time>2016-10-9T10:55:12Z</time></trkpt>
<trkpt lat="49.4009246826171875" lon="0.5371100306510925"><ele></ele><time>2016-10-9T10:55:15Z</time></trkpt>
<trkpt lat="49.4008140563964844" lon="0.5371000170707703"><ele></ele><time>2016-10-9T10:55:18Z</time></trkpt>
<trkpt lat="49.4006385803222656" lon="0.5370780825614929"><ele></ele><time>2016-10-9T10:55:21Z</time></trkpt>
<trkpt lat="49.4004745483398438" lon="0.5370285511016846"><ele></ele><time>2016-10-9T10:55:24Z</time></trkpt>
<trkpt lat="49.4003105163574219" lon="0.5369743108749390"><ele></ele><time>2016-10-9T10:55:27Z</time></trkpt>
<trkpt lat="49.4001502990722656" lon="0.5369093418121338"><ele></ele><time>2016-10-9T10:55:30Z</time></trkpt>
<trkpt lat="49.4000396728515625" lon="0.5368871092796326"><ele></ele><time>2016-10-9T10:55:33Z</time></trkpt>
<trkpt lat="49.3998870849609375" lon="0.5368483066558838"><ele></ele><time>2016-10-9T10:55:36Z</time></trkpt>
<trkpt lat="49.3997077941894531" lon="0.5368453264236450"><ele></ele><time>2016-10-9T10:55:39Z</time></trkpt>
<trkpt lat="49.3996047973632812" lon="0.5368583798408508"><ele></ele><time>2016-10-9T10:55:42Z</time></trkpt>
<trkpt lat="49.3995094299316406" lon="0.5368647575378418"><ele></ele><time>2016-10-9T10:55:45Z</time></trkpt>
<trkpt lat="49.3993415832519531" lon="0.5368599891662598"><ele></ele><time>2016-10-9T10:55:48Z</time></trkpt>
<trkpt lat="49.3992233276367188" lon="0.5368932485580444"><ele></ele><time>2016-10-9T10:55:51Z</time></trkpt>
<trkpt lat="49.3991050720214844" lon="0.5368761420249939"><ele></ele><time>2016-10-9T10:55:54Z</time></trkpt>
<trkpt lat="49.3989524841308594" lon="0.5368663668632507"><ele></ele><time>2016-10-9T10:55:57Z</time></trkpt>
<trkpt lat="49.3988571166992188" lon="0.5368835330009460"><ele></ele><time>2016-10-9T10:56:0Z</time></trkpt>
<trkpt lat="49.3986968994140625" lon="0.5368945002555847"><ele></ele><time>2016-10-9T10:56:3Z</time></trkpt>
<trkpt lat="49.3986053466796875" lon="0.5369008183479309"><ele></ele><time>2016-10-9T10:56:6Z</time></trkpt>
<trkpt lat="49.3984603881835938" lon="0.5369054079055786"><ele></ele><time>2016-10-9T10:56:9Z</time></trkpt>
<trkpt lat="49.3982925415039062" lon="0.5368931889533997"><ele></ele><time>2016-10-9T10:56:12Z</time></trkpt>
<trkpt lat="49.3982009887695312" lon="0.5369272232055664"><ele></ele><time>2016-10-9T10:56:15Z</time></trkpt>
<trkpt lat="49.3980445861816406" lon="0.5369035005569458"><ele></ele><time>2016-10-9T10:56:18Z</time></trkpt>
<trkpt lat="49.3978958129882812" lon="0.5368970036506653"><ele></ele><time>2016-10-9T10:56:21Z</time></trkpt>
<trkpt lat="49.3977470397949219" lon="0.5368843078613281"><ele></ele><time>2016-10-9T10:56:24Z</time></trkpt>
<trkpt lat="49.3976135253906250" lon="0.5368600487709045"><ele></ele><time>2016-10-9T10:56:27Z</time></trkpt>
<trkpt lat="49.3974761962890625" lon="0.5368310809135437"><ele></ele><time>2016-10-9T10:56:30Z</time></trkpt>
<trkpt lat="49.3973999023437500" lon="0.5368040800094604"><ele></ele><time>2016-10-9T10:56:33Z</time></trkpt>
<trkpt lat="49.3973274230957031" lon="0.5367795228958130"><ele></ele><time>2016-10-9T10:56:36Z</time></trkpt>
<trkpt lat="49.3972091674804688" lon="0.5367500185966492"><ele></ele><time>2016-10-9T10:56:39Z</time></trkpt>
<trkpt lat="49.3971023559570312" lon="0.5367129445075989"><ele></ele><time>2016-10-9T10:56:42Z</time></trkpt>
<trkpt lat="49.3969955444335938" lon="0.5366711616516113"><ele></ele><time>2016-10-9T10:56:45Z</time></trkpt>
<trkpt lat="49.3969230651855469" lon="0.5366519093513489"><ele></ele><time>2016-10-9T10:56:48Z</time></trkpt>
<trkpt lat="49.3968162536621094" lon="0.5366200208663940"><ele></ele><time>2016-10-9T10:56:51Z</time></trkpt>
<trkpt lat="49.3967437744140625" lon="0.5365955233573914"><ele></ele><time>2016-10-9T10:56:54Z</time></trkpt>
<trkpt lat="49.3966407775878906" lon="0.5365542769432068"><ele></ele><time>2016-10-9T10:56:57Z</time></trkpt>
<trkpt lat="49.3965377807617188" lon="0.5365136265754700"><ele></ele><time>2016-10-9T10:57:0Z</time></trkpt>
<trkpt lat="49.3964729309082031" lon="0.5364977121353149"><ele></ele><time>2016-10-9T10:57:3Z</time></trkpt>
<trkpt lat="49.3963851928710938" lon="0.5364795327186584"><ele></ele><time>2016-10-9T10:57:6Z</time></trkpt>
<trkpt lat="49.3963241577148438" lon="0.5364596843719482"><ele></ele><time>2016-10-9T10:57:9Z</time></trkpt>
<trkpt lat="49.3962326049804688" lon="0.5364472270011902"><ele></ele><time>2016-10-9T10:57:12Z</time></trkpt>
<trkpt lat="49.3961677551269531" lon="0.5364417433738708"><ele></ele><time>2016-10-9T10:57:15Z</time></trkpt>
<trkpt lat="49.3961029052734375" lon="0.5364302396774292"><ele></ele><time>2016-10-9T10:57:18Z</time></trkpt>
<trkpt lat="49.3960418701171875" lon="0.5364178419113159"><ele></ele><time>2016-10-9T10:57:21Z</time></trkpt>
<trkpt lat="49.3959503173828125" lon="0.5363827943801880"><ele></ele><time>2016-10-9T10:57:24Z</time></trkpt>
<trkpt lat="49.3958511352539062" lon="0.5363433957099915"><ele></ele><time>2016-10-9T10:57:27Z</time></trkpt>
<trkpt lat="49.3957481384277344" lon="0.5363008379936218"><ele></ele><time>2016-10-9T10:57:30Z</time></trkpt>
<trkpt lat="49.3956794738769531" lon="0.5362784266471863"><ele></ele><time>2016-10-9T10:57:33Z</time></trkpt>
<trkpt lat="49.3955764770507812" lon="0.5362476706504822"><ele></ele><time>2016-10-9T10:57:36Z</time></trkpt>
<trkpt lat="49.3954734802246094" lon="0.5362193584442139"><ele></ele><time>2016-10-9T10:57:39Z</time></trkpt>
<trkpt lat="49.3953628540039062" lon="0.5361851453781128"><ele></ele><time>2016-10-9T10:57:42Z</time></trkpt>
<trkpt lat="49.3952484130859375" lon="0.5361455678939819"><ele></ele><time>2016-10-9T10:57:45Z</time></trkpt>
<trkpt lat="49.3951263427734375" lon="0.5361053347587585"><ele></ele><time>2016-10-9T10:57:48Z</time></trkpt>
<trkpt lat="49.3950424194335938" lon="0.5360823869705200"><ele></ele><time>2016-10-9T10:57:51Z</time></trkpt>
<trkpt lat="49.3949165344238281" lon="0.5360491275787354"><ele></ele><time>2016-10-9T10:57:54Z</time></trkpt>
<trkpt lat="49.3948402404785156" lon="0.5360268950462341"><ele></ele><time>2016-10-9T10:57:57Z</time></trkpt>
<trkpt lat="49.3947219848632812" lon="0.5359909534454346"><ele></ele><time>2016-10-9T10:58:0Z</time></trkpt>
<trkpt lat="49.3946380615234375" lon="0.5359621644020081"><ele></ele><time>2016-10-9T10:58:3Z</time></trkpt>
<trkpt lat="49.3945045471191406" lon="0.5359253883361816"><ele></ele><time>2016-10-9T10:58:6Z</time></trkpt>
<trkpt lat="49.3944015502929688" lon="0.5359215140342712"><ele></ele><time>2016-10-9T10:58:9Z</time></trkpt>
<trkpt lat="49.3942260742187500" lon="0.5358639359474182"><ele></ele><time>2016-10-9T10:58:12Z</time></trkpt>
<trkpt lat="49.3940582275390625" lon="0.5357675552368164"><ele></ele><time>2016-10-9T10:58:15Z</time></trkpt>
<trkpt lat="49.3939437866210938" lon="0.5357148647308350"><ele></ele><time>2016-10-9T10:58:18Z</time></trkpt>
<trkpt lat="49.3937454223632812" lon="0.5356519818305969"><ele></ele><time>2016-10-9T10:58:21Z</time></trkpt>
<trkpt lat="49.3935737609863281" lon="0.5355940461158752"><ele></ele><time>2016-10-9T10:58:24Z</time></trkpt>
<trkpt lat="49.3934478759765625" lon="0.5355597138404846"><ele></ele><time>2016-10-9T10:58:27Z</time></trkpt>
<trkpt lat="49.3933067321777344" lon="0.5355381369590759"><ele></ele><time>2016-10-9T10:58:30Z</time></trkpt>
<trkpt lat="49.3931541442871094" lon="0.5354895591735840"><ele></ele><time>2016-10-9T10:58:33Z</time></trkpt>
<trkpt lat="49.3929252624511719" lon="0.5354065299034119"><ele></ele><time>2016-10-9T10:58:36Z</time></trkpt>
<trkpt lat="49.3927879333496094" lon="0.5353585481643677"><ele></ele><time>2016-10-9T10:58:39Z</time></trkpt>
<trkpt lat="49.3925476074218750" lon="0.5352915525436401"><ele></ele><time>2016-10-9T10:58:42Z</time></trkpt>
<trkpt lat="49.3923797607421875" lon="0.5352628231048584"><ele></ele><time>2016-10-9T10:58:45Z</time></trkpt>
<trkpt lat="49.3921546936035156" lon="0.5351808071136475"><ele></ele><time>2016-10-9T10:58:48Z</time></trkpt>
<trkpt lat="49.3919105529785156" lon="0.5350990891456604"><ele></ele><time>2016-10-9T10:58:51Z</time></trkpt>
<trkpt lat="49.3917427062988281" lon="0.5350424647331238"><ele></ele><time>2016-10-9T10:58:54Z</time></trkpt>
<trkpt lat="49.3915557861328125" lon="0.5349659919738770"><ele></ele><time>2016-10-9T10:58:57Z</time></trkpt>
<trkpt lat="49.3913383483886719" lon="0.5348801016807556"><ele></ele><time>2016-10-9T10:59:0Z</time></trkpt>
<trkpt lat="49.3911209106445312" lon="0.5347848534584045"><ele></ele><time>2016-10-9T10:59:3Z</time></trkpt>
<trkpt lat="49.3909263610839844" lon="0.5346726179122925"><ele></ele><time>2016-10-9T10:59:6Z</time></trkpt>
<trkpt lat="49.3907165527343750" lon="0.5345513224601746"><ele></ele><time>2016-10-9T10:59:9Z</time></trkpt>
<trkpt lat="49.3905830383300781" lon="0.5344649553298950"><ele></ele><time>2016-10-9T10:59:12Z</time></trkpt>
<trkpt lat="49.3903770446777344" lon="0.5343275666236877"><ele></ele><time>2016-10-9T10:59:15Z</time></trkpt>
<trkpt lat="49.3901748657226562" lon="0.5342062711715698"><ele></ele><time>2016-10-9T10:59:18Z</time></trkpt>
<trkpt lat="49.3900489807128906" lon="0.5341382622718811"><ele></ele><time>2016-10-9T10:59:21Z</time></trkpt>
<trkpt lat="49.3898696899414062" lon="0.5340057611465454"><ele></ele><time>2016-10-9T10:59:24Z</time></trkpt>
<trkpt lat="49.3896903991699219" lon="0.5338827371597290"><ele></ele><time>2016-10-9T10:59:27Z</time></trkpt>
<trkpt lat="49.3894958496093750" lon="0.5337803959846497"><ele></ele><time>2016-10-9T10:59:30Z</time></trkpt>
<trkpt lat="49.3893127441406250" lon="0.5336634516716003"><ele></ele><time>2016-10-9T10:59:33Z</time></trkpt>
<trkpt lat="49.3891181945800781" lon="0.5335558056831360"><ele></ele><time>2016-10-9T10:59:36Z</time></trkpt>
<trkpt lat="49.3889274597167969" lon="0.5334808230400085"><ele></ele><time>2016-10-9T10:59:39Z</time></trkpt>
<trkpt lat="49.3887977600097656" lon="0.5334349870681763"><ele></ele><time>2016-10-9T10:59:42Z</time></trkpt>
<trkpt lat="49.3886032104492188" lon="0.5333815813064575"><ele></ele><time>2016-10-9T10:59:45Z</time></trkpt>
<trkpt lat="49.3884735107421875" lon="0.5333589315414429"><ele></ele><time>2016-10-9T10:59:48Z</time></trkpt>
<trkpt lat="49.3882904052734375" lon="0.5333055257797241"><ele></ele><time>2016-10-9T10:59:51Z</time></trkpt>
<trkpt lat="49.3881072998046875" lon="0.5333132743835449"><ele></ele><time>2016-10-9T10:59:54Z</time></trkpt>
<trkpt lat="49.3880043029785156" lon="0.5332897901535034"><ele></ele><time>2016-10-9T10:59:57Z</time></trkpt>
<trkpt lat="49.3878250122070312" lon="0.5333147644996643"><ele></ele><time>2016-10-9T11:0:0Z</time></trkpt>
<trkpt lat="49.3877105712890625" lon="0.5333038568496704"><ele></ele><time>2016-10-9T11:0:3Z</time></trkpt>
<trkpt lat="49.3874969482421875" lon="0.5332866311073303"><ele></ele><time>2016-10-9T11:0:6Z</time></trkpt>
<trkpt lat="49.3873558044433594" lon="0.5332425236701965"><ele></ele><time>2016-10-9T11:0:9Z</time></trkpt>
<trkpt lat="49.3871879577636719" lon="0.5332944989204407"><ele></ele><time>2016-10-9T11:0:12Z</time></trkpt>
<trkpt lat="49.3870010375976562" lon="0.5333161354064941"><ele></ele><time>2016-10-9T11:0:15Z</time></trkpt>
<trkpt lat="49.3868904113769531" lon="0.5332953333854675"><ele></ele><time>2016-10-9T11:0:18Z</time></trkpt>
<trkpt lat="49.3867340087890625" lon="0.5332424044609070"><ele></ele><time>2016-10-9T11:0:21Z</time></trkpt>
<trkpt lat="49.3866310119628906" lon="0.5332149267196655"><ele></ele><time>2016-10-9T11:0:24Z</time></trkpt>
<trkpt lat="49.3865127563476562" lon="0.5331918597221375"><ele></ele><time>2016-10-9T11:0:27Z</time></trkpt>
<trkpt lat="49.3863410949707031" lon="0.5331893563270569"><ele></ele><time>2016-10-9T11:0:30Z</time></trkpt>
<trkpt lat="49.3861808776855469" lon="0.5331838130950928"><ele></ele><time>2016-10-9T11:0:33Z</time></trkpt>
<trkpt lat="49.3860549926757812" lon="0.5331609845161438"><ele></ele><time>2016-10-9T11:0:36Z</time></trkpt>
<trkpt lat="49.3858871459960938" lon="0.5331428647041321"><ele></ele><time>2016-10-9T11:0:39Z</time></trkpt>
<trkpt lat="49.3857803344726562" lon="0.5331450104713440"><ele></ele><time>2016-10-9T11:0:42Z</time></trkpt>
<trkpt lat="49.3856544494628906" lon="0.5331142544746399"><ele></ele><time>2016-10-9T11:0:45Z</time></trkpt>
<trkpt lat="49.3854598999023438" lon="0.5330343246459961"><ele></ele><time>2016-10-9T11:0:48Z</time></trkpt>
<trkpt lat="49.3853492736816406" lon="0.5329899787902832"><ele></ele><time>2016-10-9T11:0:51Z</time></trkpt>
<trkpt lat="49.3852386474609375" lon="0.5329592227935791"><ele></ele><time>2016-10-9T11:0:54Z</time></trkpt>
<trkpt lat="49.3851051330566406" lon="0.5329031944274902"><ele></ele><time>2016-10-9T11:0:57Z</time></trkpt>
<trkpt lat="49.3849487304687500" lon="0.5328177213668823"><ele></ele><time>2016-10-9T11:1:0Z</time></trkpt>
<trkpt lat="49.3848419189453125" lon="0.5327566862106323"><ele></ele><time>2016-10-9T11:1:3Z</time></trkpt>
<trkpt lat="49.3846626281738281" lon="0.5326858162879944"><ele></ele><time>2016-10-9T11:1:6Z</time></trkpt>
<trkpt lat="49.3844833374023438" lon="0.5326183438301086"><ele></ele><time>2016-10-9T11:1:9Z</time></trkpt>
<trkpt lat="49.3843803405761719" lon="0.5325670242309570"><ele></ele><time>2016-10-9T11:1:12Z</time></trkpt>
<trkpt lat="49.3841819763183594" lon="0.5324675440788269"><ele></ele><time>2016-10-9T11:1:15Z</time></trkpt>
<trkpt lat="49.3840103149414062" lon="0.5323778986930847"><ele></ele><time>2016-10-9T11:1:18Z</time></trkpt>
<trkpt lat="49.3839225769042969" lon="0.5323359370231628"><ele></ele><time>2016-10-9T11:1:21Z</time></trkpt>
<trkpt lat="49.3837585449218750" lon="0.5322783589363098"><ele></ele><time>2016-10-9T11:1:24Z</time></trkpt>
<trkpt lat="49.3835792541503906" lon="0.5321940183639526"><ele></ele><time>2016-10-9T11:1:27Z</time></trkpt>
<trkpt lat="49.3834686279296875" lon="0.5321344137191772"><ele></ele><time>2016-10-9T11:1:30Z</time></trkpt>
<trkpt lat="49.3833541870117188" lon="0.5320753455162048"><ele></ele><time>2016-10-9T11:1:33Z</time></trkpt>
<trkpt lat="49.3832359313964844" lon="0.5320255756378174"><ele></ele><time>2016-10-9T11:1:36Z</time></trkpt>
<trkpt lat="49.3831253051757812" lon="0.5319590568542480"><ele></ele><time>2016-10-9T11:1:39Z</time></trkpt>
<trkpt lat="49.3829498291015625" lon="0.5318685770034790"><ele></ele><time>2016-10-9T11:1:42Z</time></trkpt>
<trkpt lat="49.3827934265136719" lon="0.5317919254302979"><ele></ele><time>2016-10-9T11:1:45Z</time></trkpt>
<trkpt lat="49.3826332092285156" lon="0.5316998958587646"><ele></ele><time>2016-10-9T11:1:48Z</time></trkpt>
<trkpt lat="49.3824768066406250" lon="0.5316287279129028"><ele></ele><time>2016-10-9T11:1:51Z</time></trkpt>
<trkpt lat="49.3823356628417969" lon="0.5315546393394470"><ele></ele><time>2016-10-9T11:1:54Z</time></trkpt>
<trkpt lat="49.3822135925292969" lon="0.5315139889717102"><ele></ele><time>2016-10-9T11:1:57Z</time></trkpt>
<trkpt lat="49.3820648193359375" lon="0.5314394831657410"><ele></ele><time>2016-10-9T11:2:0Z</time></trkpt>
<trkpt lat="49.3819694519042969" lon="0.5313771963119507"><ele></ele><time>2016-10-9T11:2:3Z</time></trkpt>
<trkpt lat="49.3818168640136719" lon="0.5312983393669128"><ele></ele><time>2016-10-9T11:2:6Z</time></trkpt>
<trkpt lat="49.3816642761230469" lon="0.5312227010726929"><ele></ele><time>2016-10-9T11:2:9Z</time></trkpt>
<trkpt lat="49.3815078735351562" lon="0.5311357378959656"><ele></ele><time>2016-10-9T11:2:12Z</time></trkpt>
<trkpt lat="49.3813552856445312" lon="0.5310569405555725"><ele></ele><time>2016-10-9T11:2:15Z</time></trkpt>
<trkpt lat="49.3811950683593750" lon="0.5309792160987854"><ele></ele><time>2016-10-9T11:2:18Z</time></trkpt>
<trkpt lat="49.3810272216796875" lon="0.5308893918991089"><ele></ele><time>2016-10-9T11:2:21Z</time></trkpt>
<trkpt lat="49.3808670043945312" lon="0.5307767391204834"><ele></ele><time>2016-10-9T11:2:24Z</time></trkpt>
<trkpt lat="49.3807220458984375" lon="0.5306763052940369"><ele></ele><time>2016-10-9T11:2:27Z</time></trkpt>
<trkpt lat="49.3806266784667969" lon="0.5305936932563782"><ele></ele><time>2016-10-9T11:2:30Z</time></trkpt>
<trkpt lat="49.3805427551269531" lon="0.5304992794990540"><ele></ele><time>2016-10-9T11:2:33Z</time></trkpt>
<trkpt lat="49.3803901672363281" lon="0.5304083228111267"><ele></ele><time>2016-10-9T11:2:36Z</time></trkpt>
<trkpt lat="49.3802375793457031" lon="0.5302842259407043"><ele></ele><time>2016-10-9T11:2:39Z</time></trkpt>
<trkpt lat="49.3801422119140625" lon="0.5301957726478577"><ele></ele><time>2016-10-9T11:2:42Z</time></trkpt>
<trkpt lat="49.3800239562988281" lon="0.5301015377044678"><ele></ele><time>2016-10-9T11:2:45Z</time></trkpt>
<trkpt lat="49.3798789978027344" lon="0.5299849510192871"><ele></ele><time>2016-10-9T11:2:48Z</time></trkpt>
<trkpt lat="49.3797798156738281" lon="0.5298948884010315"><ele></ele><time>2016-10-9T11:2:51Z</time></trkpt>
<trkpt lat="49.3796768188476562" lon="0.5298358798027039"><ele></ele><time>2016-10-9T11:2:54Z</time></trkpt>
<trkpt lat="49.3795318603515625" lon="0.5297129750251770"><ele></ele><time>2016-10-9T11:2:57Z</time></trkpt>
<trkpt lat="49.3794250488281250" lon="0.5296300649642944"><ele></ele><time>2016-10-9T11:3:0Z</time></trkpt>
<trkpt lat="49.3792686462402344" lon="0.5294645428657532"><ele></ele><time>2016-10-9T11:3:3Z</time></trkpt>
<trkpt lat="49.3791313171386719" lon="0.5293026566505432"><ele></ele><time>2016-10-9T11:3:6Z</time></trkpt>
<trkpt lat="49.3789939880371094" lon="0.5291757583618164"><ele></ele><time>2016-10-9T11:3:9Z</time></trkpt>
<trkpt lat="49.3788909912109375" lon="0.5290834903717041"><ele></ele><time>2016-10-9T11:3:12Z</time></trkpt>
<trkpt lat="49.3788108825683594" lon="0.5289964079856873"><ele></ele><time>2016-10-9T11:3:15Z</time></trkpt>
<trkpt lat="49.3786697387695312" lon="0.5288565158843994"><ele></ele><time>2016-10-9T11:3:18Z</time></trkpt>
<trkpt lat="49.3785934448242188" lon="0.5287626385688782"><ele></ele><time>2016-10-9T11:3:21Z</time></trkpt>
<trkpt lat="49.3784255981445312" lon="0.5286228060722351"><ele></ele><time>2016-10-9T11:3:24Z</time></trkpt>
<trkpt lat="49.3783226013183594" lon="0.5285342335700989"><ele></ele><time>2016-10-9T11:3:27Z</time></trkpt>
<trkpt lat="49.3782272338867188" lon="0.5284563899040222"><ele></ele><time>2016-10-9T11:3:30Z</time></trkpt>
<trkpt lat="49.3780593872070312" lon="0.5283471345901489"><ele></ele><time>2016-10-9T11:3:33Z</time></trkpt>
<trkpt lat="49.3779487609863281" lon="0.5282978415489197"><ele></ele><time>2016-10-9T11:3:36Z</time></trkpt>
<trkpt lat="49.3778457641601562" lon="0.5282490253448486"><ele></ele><time>2016-10-9T11:3:39Z</time></trkpt>
<trkpt lat="49.3776550292968750" lon="0.5282015800476074"><ele></ele><time>2016-10-9T11:3:42Z</time></trkpt>
<trkpt lat="49.3775291442871094" lon="0.5281609892845154"><ele></ele><time>2016-10-9T11:3:45Z</time></trkpt>
<trkpt lat="49.3773956298828125" lon="0.5280992388725281"><ele></ele><time>2016-10-9T11:3:48Z</time></trkpt>
<trkpt lat="49.3772621154785156" lon="0.5280452966690063"><ele></ele><time>2016-10-9T11:3:51Z</time></trkpt>
<trkpt lat="49.3770751953125000" lon="0.5279564857482910"><ele></ele><time>2016-10-9T11:3:54Z</time></trkpt>
<trkpt lat="49.3768768310546875" lon="0.5278549790382385"><ele></ele><time>2016-10-9T11:3:57Z</time></trkpt>
<trkpt lat="49.3766670227050781" lon="0.5277881026268005"><ele></ele><time>2016-10-9T11:4:0Z</time></trkpt>
<trkpt lat="49.3764877319335938" lon="0.5277122259140015"><ele></ele><time>2016-10-9T11:4:3Z</time></trkpt>
<trkpt lat="49.3763542175292969" lon="0.5276759862899780"><ele></ele><time>2016-10-9T11:4:6Z</time></trkpt>
<trkpt lat="49.3762283325195312" lon="0.5275787711143494"><ele></ele><time>2016-10-9T11:4:9Z</time></trkpt>
<trkpt lat="49.3760261535644531" lon="0.5274999737739563"><ele></ele><time>2016-10-9T11:4:12Z</time></trkpt>
<trkpt lat="49.3758392333984375" lon="0.5273646116256714"><ele></ele><time>2016-10-9T11:4:15Z</time></trkpt>
<trkpt lat="49.3756446838378906" lon="0.5272071361541748"><ele></ele><time>2016-10-9T11:4:18Z</time></trkpt>
<trkpt lat="49.3754768371582031" lon="0.5269847512245178"><ele></ele><time>2016-10-9T11:4:21Z</time></trkpt>
<trkpt lat="49.3753471374511719" lon="0.5268710851669312"><ele></ele><time>2016-10-9T11:4:24Z</time></trkpt>
<trkpt lat="49.3751640319824219" lon="0.5266550779342651"><ele></ele><time>2016-10-9T11:4:27Z</time></trkpt>
<trkpt lat="49.3749771118164062" lon="0.5264564156532288"><ele></ele><time>2016-10-9T11:4:30Z</time></trkpt>
<trkpt lat="49.3747863769531250" lon="0.5262778401374817"><ele></ele><time>2016-10-9T11:4:33Z</time></trkpt>
<trkpt lat="49.3746109008789062" lon="0.5261475443840027"><ele></ele><time>2016-10-9T11:4:36Z</time></trkpt>
<trkpt lat="49.3744773864746094" lon="0.5260531902313232"><ele></ele><time>2016-10-9T11:4:39Z</time></trkpt>
<trkpt lat="49.3742752075195312" lon="0.5259087085723877"><ele></ele><time>2016-10-9T11:4:42Z</time></trkpt>
<trkpt lat="49.3741455078125000" lon="0.5258120298385620"><ele></ele><time>2016-10-9T11:4:45Z</time></trkpt>
<trkpt lat="49.3739700317382812" lon="0.5256752371788025"><ele></ele><time>2016-10-9T11:4:48Z</time></trkpt>
<trkpt lat="49.3737564086914062" lon="0.5255431532859802"><ele></ele><time>2016-10-9T11:4:51Z</time></trkpt>
<trkpt lat="49.3736267089843750" lon="0.5254304409027100"><ele></ele><time>2016-10-9T11:4:54Z</time></trkpt>
<trkpt lat="49.3734779357910156" lon="0.5253488421440125"><ele></ele><time>2016-10-9T11:4:57Z</time></trkpt>
<trkpt lat="49.3732757568359375" lon="0.5252074599266052"><ele></ele><time>2016-10-9T11:5:0Z</time></trkpt>
<trkpt lat="49.3731346130371094" lon="0.5251067280769348"><ele></ele><time>2016-10-9T11:5:3Z</time></trkpt>
<trkpt lat="49.3730087280273438" lon="0.5250113010406494"><ele></ele><time>2016-10-9T11:5:6Z</time></trkpt>
<trkpt lat="49.3728256225585938" lon="0.5248278379440308"><ele></ele><time>2016-10-9T11:5:9Z</time></trkpt>
<trkpt lat="49.3726387023925781" lon="0.5246680974960327"><ele></ele><time>2016-10-9T11:5:12Z</time></trkpt>
<trkpt lat="49.3725013732910156" lon="0.5245597958564758"><ele></ele><time>2016-10-9T11:5:15Z</time></trkpt>
<trkpt lat="49.3723831176757812" lon="0.5244364738464355"><ele></ele><time>2016-10-9T11:5:18Z</time></trkpt>
<trkpt lat="49.3721885681152344" lon="0.5242804884910583"><ele></ele><time>2016-10-9T11:5:21Z</time></trkpt>
<trkpt lat="49.3720054626464844" lon="0.5241271853446960"><ele></ele><time>2016-10-9T11:5:24Z</time></trkpt>
<trkpt lat="49.3718872070312500" lon="0.5239990949630737"><ele></ele><time>2016-10-9T11:5:27Z</time></trkpt>
<trkpt lat="49.3716964721679688" lon="0.5238422751426697"><ele></ele><time>2016-10-9T11:5:30Z</time></trkpt>
<trkpt lat="49.3715095520019531" lon="0.5236742496490479"><ele></ele><time>2016-10-9T11:5:33Z</time></trkpt>
<trkpt lat="49.3713722229003906" lon="0.5235636234283447"><ele></ele><time>2016-10-9T11:5:36Z</time></trkpt>
<trkpt lat="49.3711700439453125" lon="0.5233910679817200"><ele></ele><time>2016-10-9T11:5:39Z</time></trkpt>
<trkpt lat="49.3710250854492188" lon="0.5232963562011719"><ele></ele><time>2016-10-9T11:5:42Z</time></trkpt>
<trkpt lat="49.3708267211914062" lon="0.5231217145919800"><ele></ele><time>2016-10-9T11:5:45Z</time></trkpt>
<trkpt lat="49.3706893920898438" lon="0.5230202078819275"><ele></ele><time>2016-10-9T11:5:48Z</time></trkpt>
<trkpt lat="49.3704719543457031" lon="0.5228873491287231"><ele></ele><time>2016-10-9T11:5:51Z</time></trkpt>
<trkpt lat="49.3703231811523438" lon="0.5228011012077332"><ele></ele><time>2016-10-9T11:5:54Z</time></trkpt>
<trkpt lat="49.3701019287109375" lon="0.5226519703865051"><ele></ele><time>2016-10-9T11:5:57Z</time></trkpt>
<trkpt lat="49.3698959350585938" lon="0.5225100517272949"><ele></ele><time>2016-10-9T11:6:0Z</time></trkpt>
<trkpt lat="49.3697509765625000" lon="0.5224089622497559"><ele></ele><time>2016-10-9T11:6:3Z</time></trkpt>
<trkpt lat="49.3695526123046875" lon="0.5222911238670349"><ele></ele><time>2016-10-9T11:6:6Z</time></trkpt>
<trkpt lat="49.3693504333496094" lon="0.5221439599990845"><ele></ele><time>2016-10-9T11:6:9Z</time></trkpt>
<trkpt lat="49.3692207336425781" lon="0.5220384001731873"><ele></ele><time>2016-10-9T11:6:12Z</time></trkpt>
<trkpt lat="49.3690834045410156" lon="0.5219609737396240"><ele></ele><time>2016-10-9T11:6:15Z</time></trkpt>
<trkpt lat="49.3688964843750000" lon="0.5218214392662048"><ele></ele><time>2016-10-9T11:6:18Z</time></trkpt>
<trkpt lat="49.3687629699707031" lon="0.5217385292053223"><ele></ele><time>2016-10-9T11:6:21Z</time></trkpt>
<trkpt lat="49.3685684204101562" lon="0.5216167569160461"><ele></ele><time>2016-10-9T11:6:24Z</time></trkpt>
<trkpt lat="49.3683700561523438" lon="0.5214956998825073"><ele></ele><time>2016-10-9T11:6:27Z</time></trkpt>
<trkpt lat="49.3681564331054688" lon="0.5213436484336853"><ele></ele><time>2016-10-9T11:6:30Z</time></trkpt>
<trkpt lat="49.3679428100585938" lon="0.5210626125335693"><ele></ele><time>2016-10-9T11:6:33Z</time></trkpt>
<trkpt lat="49.3677673339843750" lon="0.5206937789916992"><ele></ele><time>2016-10-9T11:6:36Z</time></trkpt>
<trkpt lat="49.3675651550292969" lon="0.5203165411949158"><ele></ele><time>2016-10-9T11:6:39Z</time></trkpt>
<trkpt lat="49.3674354553222656" lon="0.5200964808464050"><ele></ele><time>2016-10-9T11:6:42Z</time></trkpt>
<trkpt lat="49.3672904968261719" lon="0.5199098587036133"><ele></ele><time>2016-10-9T11:6:45Z</time></trkpt>
<trkpt lat="49.3670997619628906" lon="0.5195441246032715"><ele></ele><time>2016-10-9T11:6:48Z</time></trkpt>
<trkpt lat="49.3669662475585938" lon="0.5193657875061035"><ele></ele><time>2016-10-9T11:6:51Z</time></trkpt>
<trkpt lat="49.3667716979980469" lon="0.5190349221229553"><ele></ele><time>2016-10-9T11:6:54Z</time></trkpt>
<trkpt lat="49.3665771484375000" lon="0.5186349749565125"><ele></ele><time>2016-10-9T11:6:57Z</time></trkpt>
<trkpt lat="49.3664970397949219" lon="0.5181487798690796"><ele></ele><time>2016-10-9T11:7:0Z</time></trkpt>
<trkpt lat="49.3664588928222656" lon="0.5178323984146118"><ele></ele><time>2016-10-9T11:7:3Z</time></trkpt>
<trkpt lat="49.3663864135742188" lon="0.5173589587211609"><ele></ele><time>2016-10-9T11:7:6Z</time></trkpt>
<trkpt lat="49.3663597106933594" lon="0.5170356035232544"><ele></ele><time>2016-10-9T11:7:9Z</time></trkpt>
<trkpt lat="49.3662986755371094" lon="0.5166010856628418"><ele></ele><time>2016-10-9T11:7:12Z</time></trkpt>
<trkpt lat="49.3662567138671875" lon="0.5162822604179382"><ele></ele><time>2016-10-9T11:7:15Z</time></trkpt>
<trkpt lat="49.3661842346191406" lon="0.5157768130302429"><ele></ele><time>2016-10-9T11:7:18Z</time></trkpt>
<trkpt lat="49.3660812377929688" lon="0.5153091549873352"><ele></ele><time>2016-10-9T11:7:21Z</time></trkpt>
<trkpt lat="49.3659362792968750" lon="0.5147989988327026"><ele></ele><time>2016-10-9T11:7:24Z</time></trkpt>
<trkpt lat="49.3657646179199219" lon="0.5143019556999207"><ele></ele><time>2016-10-9T11:7:27Z</time></trkpt>
<trkpt lat="49.3656120300292969" lon="0.5140433311462402"><ele></ele><time>2016-10-9T11:7:30Z</time></trkpt>
<trkpt lat="49.3654136657714844" lon="0.5139037966728210"><ele></ele><time>2016-10-9T11:7:33Z</time></trkpt>
<trkpt lat="49.3651084899902344" lon="0.5135825276374817"><ele></ele><time>2016-10-9T11:7:36Z</time></trkpt>
<trkpt lat="49.3649482727050781" lon="0.5133209228515625"><ele></ele><time>2016-10-9T11:7:39Z</time></trkpt>
<trkpt lat="49.3647575378417969" lon="0.5128827691078186"><ele></ele><time>2016-10-9T11:7:42Z</time></trkpt>
<trkpt lat="49.3646392822265625" lon="0.5125842094421387"><ele></ele><time>2016-10-9T11:7:45Z</time></trkpt>
<trkpt lat="49.3645362854003906" lon="0.5122724771499634"><ele></ele><time>2016-10-9T11:7:48Z</time></trkpt>
<trkpt lat="49.3643493652343750" lon="0.5119343996047974"><ele></ele><time>2016-10-9T11:7:51Z</time></trkpt>
<trkpt lat="49.3640441894531250" lon="0.5116953849792480"><ele></ele><time>2016-10-9T11:7:54Z</time></trkpt>
<trkpt lat="49.3638229370117188" lon="0.5116397738456726"><ele></ele><time>2016-10-9T11:7:57Z</time></trkpt>
<trkpt lat="49.3635177612304688" lon="0.5115025639533997"><ele></ele><time>2016-10-9T11:8:0Z</time></trkpt>
<trkpt lat="49.3630180358886719" lon="0.5113841295242310"><ele></ele><time>2016-10-9T11:8:3Z</time></trkpt>
<trkpt lat="49.3626632690429688" lon="0.5114110708236694"><ele></ele><time>2016-10-9T11:8:6Z</time></trkpt>
<trkpt lat="49.3623352050781250" lon="0.5115604400634766"><ele></ele><time>2016-10-9T11:8:9Z</time></trkpt>
<trkpt lat="49.3620300292968750" lon="0.5116349458694458"><ele></ele><time>2016-10-9T11:8:12Z</time></trkpt>
<trkpt lat="49.3617172241210938" lon="0.5118383169174194"><ele></ele><time>2016-10-9T11:8:15Z</time></trkpt>
<trkpt lat="49.3614807128906250" lon="0.5120909214019775"><ele></ele><time>2016-10-9T11:8:18Z</time></trkpt>
<trkpt lat="49.3612594604492188" lon="0.5124991536140442"><ele></ele><time>2016-10-9T11:8:21Z</time></trkpt>
<trkpt lat="49.3611373901367188" lon="0.5127795338630676"><ele></ele><time>2016-10-9T11:8:24Z</time></trkpt>
<trkpt lat="49.3610000610351562" lon="0.5132892131805420"><ele></ele><time>2016-10-9T11:8:27Z</time></trkpt>
<trkpt lat="49.3609275817871094" lon="0.5137345790863037"><ele></ele><time>2016-10-9T11:8:30Z</time></trkpt>
<trkpt lat="49.3608779907226562" lon="0.5140818953514099"><ele></ele><time>2016-10-9T11:8:33Z</time></trkpt>
<trkpt lat="49.3607864379882812" lon="0.5145670771598816"><ele></ele><time>2016-10-9T11:8:36Z</time></trkpt>
<trkpt lat="49.3607521057128906" lon="0.5148818492889404"><ele></ele><time>2016-10-9T11:8:39Z</time></trkpt>
<trkpt lat="49.3607749938964844" lon="0.5151768326759338"><ele></ele><time>2016-10-9T11:8:42Z</time></trkpt>
<trkpt lat="49.3608818054199219" lon="0.5158059597015381"><ele></ele><time>2016-10-9T11:8:45Z</time></trkpt>
<trkpt lat="49.3610229492187500" lon="0.5161098837852478"><ele></ele><time>2016-10-9T11:8:48Z</time></trkpt>
<trkpt lat="49.3611259460449219" lon="0.5165728926658630"><ele></ele><time>2016-10-9T11:8:51Z</time></trkpt>
<trkpt lat="49.3611602783203125" lon="0.5168313980102539"><ele></ele><time>2016-10-9T11:8:54Z</time></trkpt>
<trkpt lat="49.3610916137695312" lon="0.5172472596168518"><ele></ele><time>2016-10-9T11:8:57Z</time></trkpt>
<trkpt lat="49.3607978820800781" lon="0.5174962878227234"><ele></ele><time>2016-10-9T11:9:0Z</time></trkpt>
<trkpt lat="49.3604965209960938" lon="0.5174488425254822"><ele></ele><time>2016-10-9T11:9:3Z</time></trkpt>
<trkpt lat="49.3602790832519531" lon="0.5173865556716919"><ele></ele><time>2016-10-9T11:9:6Z</time></trkpt>
<trkpt lat="49.3599586486816406" lon="0.5173277258872986"><ele></ele><time>2016-10-9T11:9:9Z</time></trkpt>
<trkpt lat="49.3597335815429688" lon="0.5173442363739014"><ele></ele><time>2016-10-9T11:9:12Z</time></trkpt>
<trkpt lat="49.3594169616699219" lon="0.5173046588897705"><ele></ele><time>2016-10-9T11:9:15Z</time></trkpt>
<trkpt lat="49.3591880798339844" lon="0.5172710418701172"><ele></ele><time>2016-10-9T11:9:18Z</time></trkpt>
<trkpt lat="49.3589744567871094" lon="0.5172483325004578"><ele></ele><time>2016-10-9T11:9:21Z</time></trkpt>
<trkpt lat="49.3586807250976562" lon="0.5172302126884460"><ele></ele><time>2016-10-9T11:9:24Z</time></trkpt>
<trkpt lat="49.3584213256835938" lon="0.5172035694122314"><ele></ele><time>2016-10-9T11:9:27Z</time></trkpt>
<trkpt lat="49.3581428527832031" lon="0.5172148346900940"><ele></ele><time>2016-10-9T11:9:30Z</time></trkpt>
<trkpt lat="49.3579750061035156" lon="0.5171936154365540"><ele></ele><time>2016-10-9T11:9:33Z</time></trkpt>
<trkpt lat="49.3578681945800781" lon="0.5171575546264648"><ele></ele><time>2016-10-9T11:9:36Z</time></trkpt>
<trkpt lat="49.3577232360839844" lon="0.5170624256134033"><ele></ele><time>2016-10-9T11:9:39Z</time></trkpt>
<trkpt lat="49.3576507568359375" lon="0.5168281793594360"><ele></ele><time>2016-10-9T11:9:42Z</time></trkpt>
<trkpt lat="49.3577270507812500" lon="0.5165789723396301"><ele></ele><time>2016-10-9T11:9:45Z</time></trkpt>
<trkpt lat="49.3578681945800781" lon="0.5161796212196350"><ele></ele><time>2016-10-9T11:9:48Z</time></trkpt>
<trkpt lat="49.3579406738281250" lon="0.5159903764724731"><ele></ele><time>2016-10-9T11:9:51Z</time></trkpt>
<trkpt lat="49.3581085205078125" lon="0.5157200694084167"><ele></ele><time>2016-10-9T11:9:54Z</time></trkpt>
<trkpt lat="49.3582229614257812" lon="0.5155278444290161"><ele></ele><time>2016-10-9T11:9:57Z</time></trkpt>
<trkpt lat="49.3583564758300781" lon="0.5152366757392883"><ele></ele><time>2016-10-9T11:10:0Z</time></trkpt>
<trkpt lat="49.3584365844726562" lon="0.5151017308235168"><ele></ele><time>2016-10-9T11:10:3Z</time></trkpt>
<trkpt lat="49.3585319519042969" lon="0.5148698687553406"><ele></ele><time>2016-10-9T11:10:6Z</time></trkpt>
<trkpt lat="49.3585815429687500" lon="0.5145677924156189"><ele></ele><time>2016-10-9T11:10:9Z</time></trkpt>
<trkpt lat="49.3585281372070312" lon="0.5143440961837769"><ele></ele><time>2016-10-9T11:10:12Z</time></trkpt>
<trkpt lat="49.3583946228027344" lon="0.5141990184783936"><ele></ele><time>2016-10-9T11:10:15Z</time></trkpt>
<trkpt lat="49.3583259582519531" lon="0.5140506625175476"><ele></ele><time>2016-10-9T11:10:18Z</time></trkpt>
<trkpt lat="49.3582687377929688" lon="0.5140067934989929"><ele></ele><time>2016-10-9T11:10:21Z</time></trkpt>
<trkpt lat="49.3582191467285156" lon="0.5139504075050354"><ele></ele><time>2016-10-9T11:10:24Z</time></trkpt>
<trkpt lat="49.3581886291503906" lon="0.5138881206512451"><ele></ele><time>2016-10-9T11:10:27Z</time></trkpt>
<trkpt lat="49.3581504821777344" lon="0.5138444304466248"><ele></ele><time>2016-10-9T11:10:30Z</time></trkpt>
<trkpt lat="49.3581275939941406" lon="0.5138244032859802"><ele></ele><time>2016-10-9T11:10:33Z</time></trkpt>
<trkpt lat="49.3581161499023438" lon="0.5138055682182312"><ele></ele><time>2016-10-9T11:10:36Z</time></trkpt>
<trkpt lat="49.3580703735351562" lon="0.5137739777565002"><ele></ele><time>2016-10-9T11:10:39Z</time></trkpt>
<trkpt lat="49.3579826354980469" lon="0.5136898756027222"><ele></ele><time>2016-10-9T11:10:42Z</time></trkpt>
<trkpt lat="49.3577423095703125" lon="0.5135451555252075"><ele></ele><time>2016-10-9T11:10:45Z</time></trkpt>
<trkpt lat="49.3576316833496094" lon="0.5134841203689575"><ele></ele><time>2016-10-9T11:10:48Z</time></trkpt>
<trkpt lat="49.3575363159179688" lon="0.5133583545684814"><ele></ele><time>2016-10-9T11:10:51Z</time></trkpt>
<trkpt lat="49.3574028015136719" lon="0.5132349729537964"><ele></ele><time>2016-10-9T11:10:54Z</time></trkpt>
<trkpt lat="49.3572959899902344" lon="0.5131501555442810"><ele></ele><time>2016-10-9T11:10:57Z</time></trkpt>
<trkpt lat="49.3572196960449219" lon="0.5130718946456909"><ele></ele><time>2016-10-9T11:11:0Z</time></trkpt>
<trkpt lat="49.3570899963378906" lon="0.5129615664482117"><ele></ele><time>2016-10-9T11:11:3Z</time></trkpt>
<trkpt lat="49.3569526672363281" lon="0.5128431320190430"><ele></ele><time>2016-10-9T11:11:6Z</time></trkpt>
<trkpt lat="49.3568305969238281" lon="0.5128067731857300"><ele></ele><time>2016-10-9T11:11:9Z</time></trkpt>
<trkpt lat="49.3567466735839844" lon="0.5127096772193909"><ele></ele><time>2016-10-9T11:11:12Z</time></trkpt>
<trkpt lat="49.3566513061523438" lon="0.5126284956932068"><ele></ele><time>2016-10-9T11:11:15Z</time></trkpt>
<trkpt lat="49.3565025329589844" lon="0.5124639272689819"><ele></ele><time>2016-10-9T11:11:18Z</time></trkpt>
<trkpt lat="49.3563842773437500" lon="0.5123637914657593"><ele></ele><time>2016-10-9T11:11:21Z</time></trkpt>
<trkpt lat="49.3563079833984375" lon="0.5122519731521606"><ele></ele><time>2016-10-9T11:11:24Z</time></trkpt>
<trkpt lat="49.3561706542968750" lon="0.5121363997459412"><ele></ele><time>2016-10-9T11:11:27Z</time></trkpt>
<trkpt lat="49.3560256958007812" lon="0.5120014548301697"><ele></ele><time>2016-10-9T11:11:30Z</time></trkpt>
<trkpt lat="49.3559417724609375" lon="0.5119574069976807"><ele></ele><time>2016-10-9T11:11:33Z</time></trkpt>
<trkpt lat="49.3558578491210938" lon="0.5118436217308044"><ele></ele><time>2016-10-9T11:11:36Z</time></trkpt>
<trkpt lat="49.3557243347167969" lon="0.5116883516311646"><ele></ele><time>2016-10-9T11:11:39Z</time></trkpt>
<trkpt lat="49.3556251525878906" lon="0.5116344094276428"><ele></ele><time>2016-10-9T11:11:42Z</time></trkpt>
<trkpt lat="49.3554992675781250" lon="0.5115257501602173"><ele></ele><time>2016-10-9T11:11:45Z</time></trkpt>
<trkpt lat="49.3553543090820312" lon="0.5114217400550842"><ele></ele><time>2016-10-9T11:11:48Z</time></trkpt>
<trkpt lat="49.3552665710449219" lon="0.5113581418991089"><ele></ele><time>2016-10-9T11:11:51Z</time></trkpt>
<trkpt lat="49.3551368713378906" lon="0.5112882852554321"><ele></ele><time>2016-10-9T11:11:54Z</time></trkpt>
<trkpt lat="49.3550605773925781" lon="0.5112472176551819"><ele></ele><time>2016-10-9T11:11:57Z</time></trkpt>
<trkpt lat="49.3550376892089844" lon="0.5111514925956726"><ele></ele><time>2016-10-9T11:12:0Z</time></trkpt>
<trkpt lat="49.3550109863281250" lon="0.5110909342765808"><ele></ele><time>2016-10-9T11:12:3Z</time></trkpt>
<trkpt lat="49.3549652099609375" lon="0.5110260844230652"><ele></ele><time>2016-10-9T11:12:6Z</time></trkpt>
<trkpt lat="49.3548698425292969" lon="0.5110448002815247"><ele></ele><time>2016-10-9T11:12:9Z</time></trkpt>
<trkpt lat="49.3547821044921875" lon="0.5110216140747070"><ele></ele><time>2016-10-9T11:12:12Z</time></trkpt>
<trkpt lat="49.3547134399414062" lon="0.5110398530960083"><ele></ele><time>2016-10-9T11:12:15Z</time></trkpt>
<trkpt lat="49.3544540405273438" lon="0.5112080574035645"><ele></ele><time>2016-10-9T11:12:18Z</time></trkpt>
<trkpt lat="49.3543281555175781" lon="0.5112701058387756"><ele></ele><time>2016-10-9T11:12:21Z</time></trkpt>
<trkpt lat="49.3541603088378906" lon="0.5114281773567200"><ele></ele><time>2016-10-9T11:12:24Z</time></trkpt>
<trkpt lat="49.3540802001953125" lon="0.5114939212799072"><ele></ele><time>2016-10-9T11:12:27Z</time></trkpt>
<trkpt lat="49.3539428710937500" lon="0.5115929841995239"><ele></ele><time>2016-10-9T11:12:30Z</time></trkpt>
<trkpt lat="49.3538246154785156" lon="0.5116605162620544"><ele></ele><time>2016-10-9T11:12:33Z</time></trkpt>
<trkpt lat="49.3537368774414062" lon="0.5117229223251343"><ele></ele><time>2016-10-9T11:12:36Z</time></trkpt>
<trkpt lat="49.3535690307617188" lon="0.5118808150291443"><ele></ele><time>2016-10-9T11:12:39Z</time></trkpt>
<trkpt lat="49.3534584045410156" lon="0.5120104551315308"><ele></ele><time>2016-10-9T11:12:42Z</time></trkpt>
<trkpt lat="49.3533363342285156" lon="0.5121389627456665"><ele></ele><time>2016-10-9T11:12:45Z</time></trkpt>
<trkpt lat="49.3532638549804688" lon="0.5122690796852112"><ele></ele><time>2016-10-9T11:12:48Z</time></trkpt>
<trkpt lat="49.3531875610351562" lon="0.5123448371887207"><ele></ele><time>2016-10-9T11:12:51Z</time></trkpt>
<trkpt lat="49.3531303405761719" lon="0.5124184489250183"><ele></ele><time>2016-10-9T11:12:54Z</time></trkpt>
<trkpt lat="49.3530807495117188" lon="0.5124805569648743"><ele></ele><time>2016-10-9T11:12:57Z</time></trkpt>
<trkpt lat="49.3529968261718750" lon="0.5127456784248352"><ele></ele><time>2016-10-9T11:13:0Z</time></trkpt>
<trkpt lat="49.3529281616210938" lon="0.5128802061080933"><ele></ele><time>2016-10-9T11:13:3Z</time></trkpt>
<trkpt lat="49.3528366088867188" lon="0.5129870772361755"><ele></ele><time>2016-10-9T11:13:6Z</time></trkpt>
<trkpt lat="49.3527336120605469" lon="0.5131958723068237"><ele></ele><time>2016-10-9T11:13:9Z</time></trkpt>
<trkpt lat="49.3526344299316406" lon="0.5134146809577942"><ele></ele><time>2016-10-9T11:13:12Z</time></trkpt>
<trkpt lat="49.3525390625000000" lon="0.5135832428932190"><ele></ele><time>2016-10-9T11:13:15Z</time></trkpt>
<trkpt lat="49.3525123596191406" lon="0.5135997533798218"><ele></ele><time>2016-10-9T11:13:18Z</time></trkpt>
<trkpt lat="49.3523979187011719" lon="0.5135359764099121"><ele></ele><time>2016-10-9T11:13:21Z</time></trkpt>
<trkpt lat="49.3522415161132812" lon="0.5134676098823547"><ele></ele><time>2016-10-9T11:13:24Z</time></trkpt>
<trkpt lat="49.3521690368652344" lon="0.5134022235870361"><ele></ele><time>2016-10-9T11:13:27Z</time></trkpt>
<trkpt lat="49.3520965576171875" lon="0.5133696794509888"><ele></ele><time>2016-10-9T11:13:30Z</time></trkpt>
<trkpt lat="49.3519592285156250" lon="0.5133938193321228"><ele></ele><time>2016-10-9T11:13:33Z</time></trkpt>
<trkpt lat="49.3518257141113281" lon="0.5134795904159546"><ele></ele><time>2016-10-9T11:13:36Z</time></trkpt>
<trkpt lat="49.3517341613769531" lon="0.5135713815689087"><ele></ele><time>2016-10-9T11:13:39Z</time></trkpt>
<trkpt lat="49.3515739440917969" lon="0.5137164592742920"><ele></ele><time>2016-10-9T11:13:42Z</time></trkpt>
<trkpt lat="49.3514823913574219" lon="0.5138031840324402"><ele></ele><time>2016-10-9T11:13:45Z</time></trkpt>
<trkpt lat="49.3514022827148438" lon="0.5138941407203674"><ele></ele><time>2016-10-9T11:13:48Z</time></trkpt>
<trkpt lat="49.3512496948242188" lon="0.5140541791915894"><ele></ele><time>2016-10-9T11:13:51Z</time></trkpt>
<trkpt lat="49.3511772155761719" lon="0.5141252279281616"><ele></ele><time>2016-10-9T11:13:54Z</time></trkpt>
<trkpt lat="49.3510780334472656" lon="0.5142933130264282"><ele></ele><time>2016-10-9T11:13:57Z</time></trkpt>
<trkpt lat="49.3509063720703125" lon="0.5144619345664978"><ele></ele><time>2016-10-9T11:14:0Z</time></trkpt>
<trkpt lat="49.3508110046386719" lon="0.5145502090454102"><ele></ele><time>2016-10-9T11:14:3Z</time></trkpt>
<trkpt lat="49.3506965637207031" lon="0.5146545767784119"><ele></ele><time>2016-10-9T11:14:6Z</time></trkpt>
<trkpt lat="49.3505516052246094" lon="0.5147638320922852"><ele></ele><time>2016-10-9T11:14:9Z</time></trkpt>
<trkpt lat="49.3504257202148438" lon="0.5149314999580383"><ele></ele><time>2016-10-9T11:14:12Z</time></trkpt>
<trkpt lat="49.3502883911132812" lon="0.5150632858276367"><ele></ele><time>2016-10-9T11:14:15Z</time></trkpt>
<trkpt lat="49.3501892089843750" lon="0.5152217745780945"><ele></ele><time>2016-10-9T11:14:18Z</time></trkpt>
<trkpt lat="49.3501014709472656" lon="0.5152993798255920"><ele></ele><time>2016-10-9T11:14:21Z</time></trkpt>
<trkpt lat="49.3499832153320312" lon="0.5153961777687073"><ele></ele><time>2016-10-9T11:14:24Z</time></trkpt>
<trkpt lat="49.3499183654785156" lon="0.5153589844703674"><ele></ele><time>2016-10-9T11:14:27Z</time></trkpt>
<trkpt lat="49.3498268127441406" lon="0.5154149532318115"><ele></ele><time>2016-10-9T11:14:30Z</time></trkpt>
<trkpt lat="49.3497734069824219" lon="0.5155259966850281"><ele></ele><time>2016-10-9T11:14:33Z</time></trkpt>
<trkpt lat="49.3496055603027344" lon="0.5157025456428528"><ele></ele><time>2016-10-9T11:14:36Z</time></trkpt>
<trkpt lat="49.3494720458984375" lon="0.5158151984214783"><ele></ele><time>2016-10-9T11:14:39Z</time></trkpt>
<trkpt lat="49.3493347167968750" lon="0.5159478187561035"><ele></ele><time>2016-10-9T11:14:42Z</time></trkpt>
<trkpt lat="49.3491706848144531" lon="0.5160673856735229"><ele></ele><time>2016-10-9T11:14:45Z</time></trkpt>
<trkpt lat="49.3490867614746094" lon="0.5161718726158142"><ele></ele><time>2016-10-9T11:14:48Z</time></trkpt>
<trkpt lat="49.3489723205566406" lon="0.5163145661354065"><ele></ele><time>2016-10-9T11:14:51Z</time></trkpt>
<trkpt lat="49.3488769531250000" lon="0.5164244771003723"><ele></ele><time>2016-10-9T11:14:54Z</time></trkpt>
<trkpt lat="49.3487625122070312" lon="0.5165184140205383"><ele></ele><time>2016-10-9T11:14:57Z</time></trkpt>
<trkpt lat="49.3486671447753906" lon="0.5165771245956421"><ele></ele><time>2016-10-9T11:15:0Z</time></trkpt>
<trkpt lat="49.3485832214355469" lon="0.5166196823120117"><ele></ele><time>2016-10-9T11:15:3Z</time></trkpt>
<trkpt lat="49.3484611511230469" lon="0.5166457891464233"><ele></ele><time>2016-10-9T11:15:6Z</time></trkpt>
<trkpt lat="49.3483581542968750" lon="0.5166636705398560"><ele></ele><time>2016-10-9T11:15:9Z</time></trkpt>
<trkpt lat="49.3482170104980469" lon="0.5166525244712830"><ele></ele><time>2016-10-9T11:15:12Z</time></trkpt>
<trkpt lat="49.3480453491210938" lon="0.5166448950767517"><ele></ele><time>2016-10-9T11:15:15Z</time></trkpt>
<trkpt lat="49.3479194641113281" lon="0.5167216062545776"><ele></ele><time>2016-10-9T11:15:18Z</time></trkpt>
<trkpt lat="49.3477783203125000" lon="0.5166565775871277"><ele></ele><time>2016-10-9T11:15:21Z</time></trkpt>
<trkpt lat="49.3476562500000000" lon="0.5166314840316772"><ele></ele><time>2016-10-9T11:15:24Z</time></trkpt>
<trkpt lat="49.3475341796875000" lon="0.5165473818778992"><ele></ele><time>2016-10-9T11:15:27Z</time></trkpt>
<trkpt lat="49.3474349975585938" lon="0.5164306759834290"><ele></ele><time>2016-10-9T11:15:30Z</time></trkpt>
<trkpt lat="49.3473510742187500" lon="0.5163469314575195"><ele></ele><time>2016-10-9T11:15:33Z</time></trkpt>
<trkpt lat="49.3472595214843750" lon="0.5162909626960754"><ele></ele><time>2016-10-9T11:15:36Z</time></trkpt>
<trkpt lat="49.3471298217773438" lon="0.5161526799201965"><ele></ele><time>2016-10-9T11:15:39Z</time></trkpt>
<trkpt lat="49.3470115661621094" lon="0.5160343647003174"><ele></ele><time>2016-10-9T11:15:42Z</time></trkpt>
<trkpt lat="49.3469429016113281" lon="0.5159692764282227"><ele></ele><time>2016-10-9T11:15:45Z</time></trkpt>
<trkpt lat="49.3468132019042969" lon="0.5158517360687256"><ele></ele><time>2016-10-9T11:15:48Z</time></trkpt>
<trkpt lat="49.3466987609863281" lon="0.5158005952835083"><ele></ele><time>2016-10-9T11:15:51Z</time></trkpt>
<trkpt lat="49.3466148376464844" lon="0.5157318711280823"><ele></ele><time>2016-10-9T11:15:54Z</time></trkpt>
<trkpt lat="49.3464889526367188" lon="0.5156417489051819"><ele></ele><time>2016-10-9T11:15:57Z</time></trkpt>
<trkpt lat="49.3464012145996094" lon="0.5155587196350098"><ele></ele><time>2016-10-9T11:16:0Z</time></trkpt>
<trkpt lat="49.3463249206542969" lon="0.5154990553855896"><ele></ele><time>2016-10-9T11:16:3Z</time></trkpt>
<trkpt lat="49.3462524414062500" lon="0.5154373645782471"><ele></ele><time>2016-10-9T11:16:6Z</time></trkpt>
<trkpt lat="49.3461303710937500" lon="0.5153091549873352"><ele></ele><time>2016-10-9T11:16:9Z</time></trkpt>
<trkpt lat="49.3460159301757812" lon="0.5152213573455811"><ele></ele><time>2016-10-9T11:16:12Z</time></trkpt>
<trkpt lat="49.3459510803222656" lon="0.5151621699333191"><ele></ele><time>2016-10-9T11:16:15Z</time></trkpt>
<trkpt lat="49.3458671569824219" lon="0.5151122808456421"><ele></ele><time>2016-10-9T11:16:18Z</time></trkpt>
<trkpt lat="49.3457565307617188" lon="0.5150116086006165"><ele></ele><time>2016-10-9T11:16:21Z</time></trkpt>
<trkpt lat="49.3456497192382812" lon="0.5149115324020386"><ele></ele><time>2016-10-9T11:16:24Z</time></trkpt>
<trkpt lat="49.3455734252929688" lon="0.5148444175720215"><ele></ele><time>2016-10-9T11:16:27Z</time></trkpt>
<trkpt lat="49.3454513549804688" lon="0.5147338509559631"><ele></ele><time>2016-10-9T11:16:30Z</time></trkpt>
<trkpt lat="49.3453330993652344" lon="0.5146539807319641"><ele></ele><time>2016-10-9T11:16:33Z</time></trkpt>
<trkpt lat="49.3451919555664062" lon="0.5145165324211121"><ele></ele><time>2016-10-9T11:16:36Z</time></trkpt>
<trkpt lat="49.3451194763183594" lon="0.5144429802894592"><ele></ele><time>2016-10-9T11:16:39Z</time></trkpt>
<trkpt lat="49.3449974060058594" lon="0.5143216252326965"><ele></ele><time>2016-10-9T11:16:42Z</time></trkpt>
<trkpt lat="49.3449211120605469" lon="0.5142523050308228"><ele></ele><time>2016-10-9T11:16:45Z</time></trkpt>
<trkpt lat="49.3447952270507812" lon="0.5141517519950867"><ele></ele><time>2016-10-9T11:16:48Z</time></trkpt>
<trkpt lat="49.3446273803710938" lon="0.5140379667282104"><ele></ele><time>2016-10-9T11:16:51Z</time></trkpt>
<trkpt lat="49.3445243835449219" lon="0.5139522552490234"><ele></ele><time>2016-10-9T11:16:54Z</time></trkpt>
<trkpt lat="49.3444404602050781" lon="0.5139046907424927"><ele></ele><time>2016-10-9T11:16:57Z</time></trkpt>
<trkpt lat="49.3443489074707031" lon="0.5138912796974182"><ele></ele><time>2016-10-9T11:17:0Z</time></trkpt>
<trkpt lat="49.3441963195800781" lon="0.5138406157493591"><ele></ele><time>2016-10-9T11:17:3Z</time></trkpt>
<trkpt lat="49.3440399169921875" lon="0.5138165950775146"><ele></ele><time>2016-10-9T11:17:6Z</time></trkpt>
<trkpt lat="49.3438835144042969" lon="0.5138340592384338"><ele></ele><time>2016-10-9T11:17:9Z</time></trkpt>
<trkpt lat="49.3437614440917969" lon="0.5138343572616577"><ele></ele><time>2016-10-9T11:17:12Z</time></trkpt>
<trkpt lat="49.3436546325683594" lon="0.5138425230979919"><ele></ele><time>2016-10-9T11:17:15Z</time></trkpt>
<trkpt lat="49.3435134887695312" lon="0.5138151645660400"><ele></ele><time>2016-10-9T11:17:18Z</time></trkpt>
<trkpt lat="49.3434371948242188" lon="0.5138215422630310"><ele></ele><time>2016-10-9T11:17:21Z</time></trkpt>
<trkpt lat="49.3433151245117188" lon="0.5138360857963562"><ele></ele><time>2016-10-9T11:17:24Z</time></trkpt>
<trkpt lat="49.3432235717773438" lon="0.5138273239135742"><ele></ele><time>2016-10-9T11:17:27Z</time></trkpt>
<trkpt lat="49.3430709838867188" lon="0.5138272047042847"><ele></ele><time>2016-10-9T11:17:30Z</time></trkpt>
<trkpt lat="49.3429260253906250" lon="0.5137662291526794"><ele></ele><time>2016-10-9T11:17:33Z</time></trkpt>
<trkpt lat="49.3427810668945312" lon="0.5137528181076050"><ele></ele><time>2016-10-9T11:17:36Z</time></trkpt>
<trkpt lat="49.3426933288574219" lon="0.5137274265289307"><ele></ele><time>2016-10-9T11:17:39Z</time></trkpt>
<trkpt lat="49.3425598144531250" lon="0.5136669278144836"><ele></ele><time>2016-10-9T11:17:42Z</time></trkpt>
<trkpt lat="49.3424224853515625" lon="0.5136395096778870"><ele></ele><time>2016-10-9T11:17:45Z</time></trkpt>
<trkpt lat="49.3423385620117188" lon="0.5136007070541382"><ele></ele><time>2016-10-9T11:17:48Z</time></trkpt>
<trkpt lat="49.3422088623046875" lon="0.5135515928268433"><ele></ele><time>2016-10-9T11:17:51Z</time></trkpt>
<trkpt lat="49.3420829772949219" lon="0.5134353041648865"><ele></ele><time>2016-10-9T11:17:54Z</time></trkpt>
<trkpt lat="49.3419227600097656" lon="0.5133378505706787"><ele></ele><time>2016-10-9T11:17:57Z</time></trkpt>
<trkpt lat="49.3417816162109375" lon="0.5132639408111572"><ele></ele><time>2016-10-9T11:18:0Z</time></trkpt>
<trkpt lat="49.3416824340820312" lon="0.5131869912147522"><ele></ele><time>2016-10-9T11:18:3Z</time></trkpt>
<trkpt lat="49.3415870666503906" lon="0.5131486654281616"><ele></ele><time>2016-10-9T11:18:6Z</time></trkpt>
<trkpt lat="49.3414955139160156" lon="0.5131216049194336"><ele></ele><time>2016-10-9T11:18:9Z</time></trkpt>
<trkpt lat="49.3413505554199219" lon="0.5130675435066223"><ele></ele><time>2016-10-9T11:18:12Z</time></trkpt>
<trkpt lat="49.3412094116210938" lon="0.5129486918449402"><ele></ele><time>2016-10-9T11:18:15Z</time></trkpt>
<trkpt lat="49.3411102294921875" lon="0.5129190087318420"><ele></ele><time>2016-10-9T11:18:18Z</time></trkpt>
<trkpt lat="49.3409881591796875" lon="0.5128554701805115"><ele></ele><time>2016-10-9T11:18:21Z</time></trkpt>
<trkpt lat="49.3409080505371094" lon="0.5128032565116882"><ele></ele><time>2016-10-9T11:18:24Z</time></trkpt>
<trkpt lat="49.3407630920410156" lon="0.5127596855163574"><ele></ele><time>2016-10-9T11:18:27Z</time></trkpt>
<trkpt lat="49.3406181335449219" lon="0.5126677155494690"><ele></ele><time>2016-10-9T11:18:30Z</time></trkpt>
<trkpt lat="49.3404731750488281" lon="0.5126031637191772"><ele></ele><time>2016-10-9T11:18:33Z</time></trkpt>
<trkpt lat="49.3403587341308594" lon="0.5125486254692078"><ele></ele><time>2016-10-9T11:18:36Z</time></trkpt>
<trkpt lat="49.3402175903320312" lon="0.5124560594558716"><ele></ele><time>2016-10-9T11:18:39Z</time></trkpt>
<trkpt lat="49.3401412963867188" lon="0.5123813152313232"><ele></ele><time>2016-10-9T11:18:42Z</time></trkpt>
<trkpt lat="49.3400535583496094" lon="0.5123236179351807"><ele></ele><time>2016-10-9T11:18:45Z</time></trkpt>
<trkpt lat="49.3399124145507812" lon="0.5122435688972473"><ele></ele><time>2016-10-9T11:18:48Z</time></trkpt>
<trkpt lat="49.3397865295410156" lon="0.5121948719024658"><ele></ele><time>2016-10-9T11:18:51Z</time></trkpt>
<trkpt lat="49.3396263122558594" lon="0.5121471881866455"><ele></ele><time>2016-10-9T11:18:54Z</time></trkpt>
<trkpt lat="49.3395156860351562" lon="0.5120918154716492"><ele></ele><time>2016-10-9T11:18:57Z</time></trkpt>
<trkpt lat="49.3393898010253906" lon="0.5120484828948975"><ele></ele><time>2016-10-9T11:19:0Z</time></trkpt>
<trkpt lat="49.3392601013183594" lon="0.5119365453720093"><ele></ele><time>2016-10-9T11:19:3Z</time></trkpt>
<trkpt lat="49.3391609191894531" lon="0.5118602514266968"><ele></ele><time>2016-10-9T11:19:6Z</time></trkpt>
<trkpt lat="49.3390159606933594" lon="0.5117869377136230"><ele></ele><time>2016-10-9T11:19:9Z</time></trkpt>
<trkpt lat="49.3388633728027344" lon="0.5117120742797852"><ele></ele><time>2016-10-9T11:19:12Z</time></trkpt>
<trkpt lat="49.3387222290039062" lon="0.5116231441497803"><ele></ele><time>2016-10-9T11:19:15Z</time></trkpt>
<trkpt lat="49.3385772705078125" lon="0.5114941000938416"><ele></ele><time>2016-10-9T11:19:18Z</time></trkpt>
<trkpt lat="49.3384284973144531" lon="0.5113832950592041"><ele></ele><time>2016-10-9T11:19:21Z</time></trkpt>
<trkpt lat="49.3383255004882812" lon="0.5112963318824768"><ele></ele><time>2016-10-9T11:19:24Z</time></trkpt>
<trkpt lat="49.3381614685058594" lon="0.5111784338951111"><ele></ele><time>2016-10-9T11:19:27Z</time></trkpt>
<trkpt lat="49.3380355834960938" lon="0.5110780000686646"><ele></ele><time>2016-10-9T11:19:30Z</time></trkpt>
<trkpt lat="49.3379173278808594" lon="0.5110023021697998"><ele></ele><time>2016-10-9T11:19:33Z</time></trkpt>
<trkpt lat="49.3378143310546875" lon="0.5109274387359619"><ele></ele><time>2016-10-9T11:19:36Z</time></trkpt>
<trkpt lat="49.3376693725585938" lon="0.5107949376106262"><ele></ele><time>2016-10-9T11:19:39Z</time></trkpt>
<trkpt lat="49.3375701904296875" lon="0.5107233524322510"><ele></ele><time>2016-10-9T11:19:42Z</time></trkpt>
<trkpt lat="49.3374214172363281" lon="0.5106009244918823"><ele></ele><time>2016-10-9T11:19:45Z</time></trkpt>
<trkpt lat="49.3372917175292969" lon="0.5104567408561707"><ele></ele><time>2016-10-9T11:19:48Z</time></trkpt>
<trkpt lat="49.3371467590332031" lon="0.5103589892387390"><ele></ele><time>2016-10-9T11:19:51Z</time></trkpt>
<trkpt lat="49.3370475769042969" lon="0.5102832317352295"><ele></ele><time>2016-10-9T11:19:54Z</time></trkpt>
<trkpt lat="49.3369445800781250" lon="0.5102139115333557"><ele></ele><time>2016-10-9T11:19:57Z</time></trkpt>
<trkpt lat="49.3367958068847656" lon="0.5101006031036377"><ele></ele><time>2016-10-9T11:20:0Z</time></trkpt>
<trkpt lat="49.3366546630859375" lon="0.5099752545356750"><ele></ele><time>2016-10-9T11:20:3Z</time></trkpt>
<trkpt lat="49.3365135192871094" lon="0.5098559260368347"><ele></ele><time>2016-10-9T11:20:6Z</time></trkpt>
<trkpt lat="49.3364257812500000" lon="0.5097756981849670"><ele></ele><time>2016-10-9T11:20:9Z</time></trkpt>
<trkpt lat="49.3362884521484375" lon="0.5096474289894104"><ele></ele><time>2016-10-9T11:20:12Z</time></trkpt>
<trkpt lat="49.3361358642578125" lon="0.5095362067222595"><ele></ele><time>2016-10-9T11:20:15Z</time></trkpt>
<trkpt lat="49.3360519409179688" lon="0.5094519257545471"><ele></ele><time>2016-10-9T11:20:18Z</time></trkpt>
<trkpt lat="49.3359031677246094" lon="0.5093243122100830"><ele></ele><time>2016-10-9T11:20:21Z</time></trkpt>
<trkpt lat="49.3357620239257812" lon="0.5092219710350037"><ele></ele><time>2016-10-9T11:20:24Z</time></trkpt>
<trkpt lat="49.3356666564941406" lon="0.5091509222984314"><ele></ele><time>2016-10-9T11:20:27Z</time></trkpt>
<trkpt lat="49.3355751037597656" lon="0.5090820789337158"><ele></ele><time>2016-10-9T11:20:30Z</time></trkpt>
<trkpt lat="49.3354225158691406" lon="0.5089897513389587"><ele></ele><time>2016-10-9T11:20:33Z</time></trkpt>
<trkpt lat="49.3353309631347656" lon="0.5089111924171448"><ele></ele><time>2016-10-9T11:20:36Z</time></trkpt>
<trkpt lat="49.3351821899414062" lon="0.5087904334068298"><ele></ele><time>2016-10-9T11:20:39Z</time></trkpt>
<trkpt lat="49.3350830078125000" lon="0.5087112784385681"><ele></ele><time>2016-10-9T11:20:42Z</time></trkpt>
<trkpt lat="49.3349456787109375" lon="0.5086266398429871"><ele></ele><time>2016-10-9T11:20:45Z</time></trkpt>
<trkpt lat="49.3348693847656250" lon="0.5085579752922058"><ele></ele><time>2016-10-9T11:20:48Z</time></trkpt>
<trkpt lat="49.3347816467285156" lon="0.5084773302078247"><ele></ele><time>2016-10-9T11:20:51Z</time></trkpt>
<trkpt lat="49.3346481323242188" lon="0.5082848668098450"><ele></ele><time>2016-10-9T11:20:54Z</time></trkpt>
<trkpt lat="49.3345642089843750" lon="0.5082065463066101"><ele></ele><time>2016-10-9T11:20:57Z</time></trkpt>
<trkpt lat="49.3344306945800781" lon="0.5080553293228149"><ele></ele><time>2016-10-9T11:21:0Z</time></trkpt>
<trkpt lat="49.3342971801757812" lon="0.5079041123390198"><ele></ele><time>2016-10-9T11:21:3Z</time></trkpt>
<trkpt lat="49.3342056274414062" lon="0.5078158378601074"><ele></ele><time>2016-10-9T11:21:6Z</time></trkpt>
<trkpt lat="49.3341178894042969" lon="0.5077247619628906"><ele></ele><time>2016-10-9T11:21:9Z</time></trkpt>
<trkpt lat="49.3340415954589844" lon="0.5076252222061157"><ele></ele><time>2016-10-9T11:21:12Z</time></trkpt>
<trkpt lat="49.3339500427246094" lon="0.5075367093086243"><ele></ele><time>2016-10-9T11:21:15Z</time></trkpt>
<trkpt lat="49.3338279724121094" lon="0.5073736310005188"><ele></ele><time>2016-10-9T11:21:18Z</time></trkpt>
<trkpt lat="49.3336830139160156" lon="0.5072220563888550"><ele></ele><time>2016-10-9T11:21:21Z</time></trkpt>
<trkpt lat="49.3336105346679688" lon="0.5071355104446411"><ele></ele><time>2016-10-9T11:21:24Z</time></trkpt>
<trkpt lat="49.3334655761718750" lon="0.5070070028305054"><ele></ele><time>2016-10-9T11:21:27Z</time></trkpt>
<trkpt lat="49.3333549499511719" lon="0.5068426132202148"><ele></ele><time>2016-10-9T11:21:30Z</time></trkpt>
<trkpt lat="49.3332481384277344" lon="0.5067310333251953"><ele></ele><time>2016-10-9T11:21:33Z</time></trkpt>
<trkpt lat="49.3331146240234375" lon="0.5066092014312744"><ele></ele><time>2016-10-9T11:21:36Z</time></trkpt>
<trkpt lat="49.3330230712890625" lon="0.5064067840576172"><ele></ele><time>2016-10-9T11:21:39Z</time></trkpt>
<trkpt lat="49.3329162597656250" lon="0.5062304139137268"><ele></ele><time>2016-10-9T11:21:42Z</time></trkpt>
<trkpt lat="49.3328399658203125" lon="0.5061169862747192"><ele></ele><time>2016-10-9T11:21:45Z</time></trkpt>
<trkpt lat="49.3327255249023438" lon="0.5060111284255981"><ele></ele><time>2016-10-9T11:21:48Z</time></trkpt>
<trkpt lat="49.3325805664062500" lon="0.5058686733245850"><ele></ele><time>2016-10-9T11:21:51Z</time></trkpt>
<trkpt lat="49.3324508666992188" lon="0.5056923031806946"><ele></ele><time>2016-10-9T11:21:54Z</time></trkpt>
<trkpt lat="49.3323440551757812" lon="0.5056155323982239"><ele></ele><time>2016-10-9T11:21:57Z</time></trkpt>
<trkpt lat="49.3322563171386719" lon="0.5054925680160522"><ele></ele><time>2016-10-9T11:22:0Z</time></trkpt>
<trkpt lat="49.3321571350097656" lon="0.5053813457489014"><ele></ele><time>2016-10-9T11:22:3Z</time></trkpt>
<trkpt lat="49.3320236206054688" lon="0.5051903724670410"><ele></ele><time>2016-10-9T11:22:6Z</time></trkpt>
<trkpt lat="49.3318901062011719" lon="0.5050065517425537"><ele></ele><time>2016-10-9T11:22:9Z</time></trkpt>
<trkpt lat="49.3317413330078125" lon="0.5048664808273315"><ele></ele><time>2016-10-9T11:22:12Z</time></trkpt>
<trkpt lat="49.3316459655761719" lon="0.5047714710235596"><ele></ele><time>2016-10-9T11:22:15Z</time></trkpt>
<trkpt lat="49.3315315246582031" lon="0.5046628117561340"><ele></ele><time>2016-10-9T11:22:18Z</time></trkpt>
<trkpt lat="49.3313903808593750" lon="0.5045024156570435"><ele></ele><time>2016-10-9T11:22:21Z</time></trkpt>
<trkpt lat="49.3313064575195312" lon="0.5044080018997192"><ele></ele><time>2016-10-9T11:22:24Z</time></trkpt>
<trkpt lat="49.3311691284179688" lon="0.5042364597320557"><ele></ele><time>2016-10-9T11:22:27Z</time></trkpt>
<trkpt lat="49.3310775756835938" lon="0.5041273236274719"><ele></ele><time>2016-10-9T11:22:30Z</time></trkpt>
<trkpt lat="49.3309669494628906" lon="0.5039707422256470"><ele></ele><time>2016-10-9T11:22:33Z</time></trkpt>
<trkpt lat="49.3308296203613281" lon="0.5038133263587952"><ele></ele><time>2016-10-9T11:22:36Z</time></trkpt>
<trkpt lat="49.3307189941406250" lon="0.5036006569862366"><ele></ele><time>2016-10-9T11:22:39Z</time></trkpt>
<trkpt lat="49.3306198120117188" lon="0.5033905506134033"><ele></ele><time>2016-10-9T11:22:42Z</time></trkpt>
<trkpt lat="49.3305625915527344" lon="0.5032683014869690"><ele></ele><time>2016-10-9T11:22:45Z</time></trkpt>
<trkpt lat="49.3304634094238281" lon="0.5030839443206787"><ele></ele><time>2016-10-9T11:22:48Z</time></trkpt>
<trkpt lat="49.3304061889648438" lon="0.5029740929603577"><ele></ele><time>2016-10-9T11:22:51Z</time></trkpt>
<trkpt lat="49.3303222656250000" lon="0.5028029084205627"><ele></ele><time>2016-10-9T11:22:54Z</time></trkpt>
<trkpt lat="49.3302650451660156" lon="0.5026865601539612"><ele></ele><time>2016-10-9T11:22:57Z</time></trkpt>
<trkpt lat="49.3302154541015625" lon="0.5025681257247925"><ele></ele><time>2016-10-9T11:23:0Z</time></trkpt>
<trkpt lat="49.3301544189453125" lon="0.5024530291557312"><ele></ele><time>2016-10-9T11:23:3Z</time></trkpt>
<trkpt lat="49.3300666809082031" lon="0.5022733807563782"><ele></ele><time>2016-10-9T11:23:6Z</time></trkpt>
<trkpt lat="49.3299713134765625" lon="0.5020948648452759"><ele></ele><time>2016-10-9T11:23:9Z</time></trkpt>
<trkpt lat="49.3299064636230469" lon="0.5019708871841431"><ele></ele><time>2016-10-9T11:23:12Z</time></trkpt>
<trkpt lat="49.3298568725585938" lon="0.5018394589424133"><ele></ele><time>2016-10-9T11:23:15Z</time></trkpt>
<trkpt lat="49.3297805786132812" lon="0.5016692876815796"><ele></ele><time>2016-10-9T11:23:18Z</time></trkpt>
<trkpt lat="49.3297157287597656" lon="0.5015377998352051"><ele></ele><time>2016-10-9T11:23:21Z</time></trkpt>
<trkpt lat="49.3296585083007812" lon="0.5014029145240784"><ele></ele><time>2016-10-9T11:23:24Z</time></trkpt>
<trkpt lat="49.3295555114746094" lon="0.5012116432189941"><ele></ele><time>2016-10-9T11:23:27Z</time></trkpt>
<trkpt lat="49.3294792175292969" lon="0.5010564923286438"><ele></ele><time>2016-10-9T11:23:30Z</time></trkpt>
<trkpt lat="49.3293647766113281" lon="0.5008878707885742"><ele></ele><time>2016-10-9T11:23:33Z</time></trkpt>
<trkpt lat="49.3292846679687500" lon="0.5007877945899963"><ele></ele><time>2016-10-9T11:23:36Z</time></trkpt>
<trkpt lat="49.3292427062988281" lon="0.5006375908851624"><ele></ele><time>2016-10-9T11:23:39Z</time></trkpt>
<trkpt lat="49.3291854858398438" lon="0.5005167722702026"><ele></ele><time>2016-10-9T11:23:42Z</time></trkpt>
<trkpt lat="49.3290901184082031" lon="0.5003322958946228"><ele></ele><time>2016-10-9T11:23:45Z</time></trkpt>
<trkpt lat="49.3290023803710938" lon="0.5001980066299438"><ele></ele><time>2016-10-9T11:23:48Z</time></trkpt>
<trkpt lat="49.3288993835449219" lon="0.4999792575836182"><ele></ele><time>2016-10-9T11:23:51Z</time></trkpt>
<trkpt lat="49.3288383483886719" lon="0.4998515248298645"><ele></ele><time>2016-10-9T11:23:54Z</time></trkpt>
<trkpt lat="49.3287544250488281" lon="0.4996738433837891"><ele></ele><time>2016-10-9T11:23:57Z</time></trkpt>
<trkpt lat="49.3286972045898438" lon="0.4995523691177368"><ele></ele><time>2016-10-9T11:24:0Z</time></trkpt>
<trkpt lat="49.3286476135253906" lon="0.4993351101875305"><ele></ele><time>2016-10-9T11:24:3Z</time></trkpt>
<trkpt lat="49.3285560607910156" lon="0.4991063773632050"><ele></ele><time>2016-10-9T11:24:6Z</time></trkpt>
<trkpt lat="49.3285064697265625" lon="0.4989674091339111"><ele></ele><time>2016-10-9T11:24:9Z</time></trkpt>
<trkpt lat="49.3284454345703125" lon="0.4988043904304504"><ele></ele><time>2016-10-9T11:24:12Z</time></trkpt>
<trkpt lat="49.3283729553222656" lon="0.4986753761768341"><ele></ele><time>2016-10-9T11:24:15Z</time></trkpt>
<trkpt lat="49.3283004760742188" lon="0.4984775781631470"><ele></ele><time>2016-10-9T11:24:18Z</time></trkpt>
<trkpt lat="49.3282279968261719" lon="0.4983356595039368"><ele></ele><time>2016-10-9T11:24:21Z</time></trkpt>
<trkpt lat="49.3281784057617188" lon="0.4981805980205536"><ele></ele><time>2016-10-9T11:24:24Z</time></trkpt>
<trkpt lat="49.3281288146972656" lon="0.4980783462524414"><ele></ele><time>2016-10-9T11:24:27Z</time></trkpt>
<trkpt lat="49.3280372619628906" lon="0.4978790283203125"><ele></ele><time>2016-10-9T11:24:30Z</time></trkpt>
<trkpt lat="49.3279762268066406" lon="0.4977635145187378"><ele></ele><time>2016-10-9T11:24:33Z</time></trkpt>
<trkpt lat="49.3279457092285156" lon="0.4976578950881958"><ele></ele><time>2016-10-9T11:24:36Z</time></trkpt>
<trkpt lat="49.3278617858886719" lon="0.4974733293056488"><ele></ele><time>2016-10-9T11:24:39Z</time></trkpt>
<trkpt lat="49.3277816772460938" lon="0.4972783625125885"><ele></ele><time>2016-10-9T11:24:42Z</time></trkpt>
<trkpt lat="49.3277397155761719" lon="0.4971539676189423"><ele></ele><time>2016-10-9T11:24:45Z</time></trkpt>
<trkpt lat="49.3276824951171875" lon="0.4970279932022095"><ele></ele><time>2016-10-9T11:24:48Z</time></trkpt>
<trkpt lat="49.3276329040527344" lon="0.4969134330749512"><ele></ele><time>2016-10-9T11:24:51Z</time></trkpt>
<trkpt lat="49.3275718688964844" lon="0.4967320263385773"><ele></ele><time>2016-10-9T11:24:54Z</time></trkpt>
<trkpt lat="49.3275070190429688" lon="0.4965314567089081"><ele></ele><time>2016-10-9T11:24:57Z</time></trkpt>
<trkpt lat="49.3274269104003906" lon="0.4963191449642181"><ele></ele><time>2016-10-9T11:25:0Z</time></trkpt>
<trkpt lat="49.3273620605468750" lon="0.4961172342300415"><ele></ele><time>2016-10-9T11:25:3Z</time></trkpt>
<trkpt lat="49.3272972106933594" lon="0.4959090948104858"><ele></ele><time>2016-10-9T11:25:6Z</time></trkpt>
<trkpt lat="49.3272552490234375" lon="0.4957344233989716"><ele></ele><time>2016-10-9T11:25:9Z</time></trkpt>
<trkpt lat="49.3272285461425781" lon="0.4955754876136780"><ele></ele><time>2016-10-9T11:25:12Z</time></trkpt>
<trkpt lat="49.3272056579589844" lon="0.4953268170356750"><ele></ele><time>2016-10-9T11:25:15Z</time></trkpt>
<trkpt lat="49.3271713256835938" lon="0.4951761066913605"><ele></ele><time>2016-10-9T11:25:18Z</time></trkpt>
<trkpt lat="49.3271408081054688" lon="0.4950384795665741"><ele></ele><time>2016-10-9T11:25:21Z</time></trkpt>
<trkpt lat="49.3270568847656250" lon="0.4948363006114960"><ele></ele><time>2016-10-9T11:25:24Z</time></trkpt>
<trkpt lat="49.3270111083984375" lon="0.4947037100791931"><ele></ele><time>2016-10-9T11:25:27Z</time></trkpt>
<trkpt lat="49.3269386291503906" lon="0.4944902956485748"><ele></ele><time>2016-10-9T11:25:30Z</time></trkpt>
<trkpt lat="49.3269081115722656" lon="0.4942740499973297"><ele></ele><time>2016-10-9T11:25:33Z</time></trkpt>
<trkpt lat="49.3269004821777344" lon="0.4939987063407898"><ele></ele><time>2016-10-9T11:25:36Z</time></trkpt>
<trkpt lat="49.3268508911132812" lon="0.4938424527645111"><ele></ele><time>2016-10-9T11:25:39Z</time></trkpt>
<trkpt lat="49.3267860412597656" lon="0.4936092793941498"><ele></ele><time>2016-10-9T11:25:42Z</time></trkpt>
<trkpt lat="49.3267364501953125" lon="0.4933800399303436"><ele></ele><time>2016-10-9T11:25:45Z</time></trkpt>
<trkpt lat="49.3266754150390625" lon="0.4931581616401672"><ele></ele><time>2016-10-9T11:25:48Z</time></trkpt>
<trkpt lat="49.3266220092773438" lon="0.4930219650268555"><ele></ele><time>2016-10-9T11:25:51Z</time></trkpt>
<trkpt lat="49.3265609741210938" lon="0.4928399920463562"><ele></ele><time>2016-10-9T11:25:54Z</time></trkpt>
<trkpt lat="49.3265266418457031" lon="0.4926160871982574"><ele></ele><time>2016-10-9T11:25:57Z</time></trkpt>
<trkpt lat="49.3264846801757812" lon="0.4923780560493469"><ele></ele><time>2016-10-9T11:26:0Z</time></trkpt>
<trkpt lat="49.3264694213867188" lon="0.4922168850898743"><ele></ele><time>2016-10-9T11:26:3Z</time></trkpt>
<trkpt lat="49.3264503479003906" lon="0.4919283688068390"><ele></ele><time>2016-10-9T11:26:6Z</time></trkpt>
<trkpt lat="49.3264160156250000" lon="0.4916991293430328"><ele></ele><time>2016-10-9T11:26:9Z</time></trkpt>
<trkpt lat="49.3264427185058594" lon="0.4915576279163361"><ele></ele><time>2016-10-9T11:26:12Z</time></trkpt>
<trkpt lat="49.3264884948730469" lon="0.4912486076354980"><ele></ele><time>2016-10-9T11:26:15Z</time></trkpt>
<trkpt lat="49.3265304565429688" lon="0.4909957051277161"><ele></ele><time>2016-10-9T11:26:18Z</time></trkpt>
<trkpt lat="49.3265953063964844" lon="0.4907276630401611"><ele></ele><time>2016-10-9T11:26:21Z</time></trkpt>
<trkpt lat="49.3266105651855469" lon="0.4905641973018646"><ele></ele><time>2016-10-9T11:26:24Z</time></trkpt>
<trkpt lat="49.3266563415527344" lon="0.4903041124343872"><ele></ele><time>2016-10-9T11:26:27Z</time></trkpt>
<trkpt lat="49.3267021179199219" lon="0.4901697635650635"><ele></ele><time>2016-10-9T11:26:30Z</time></trkpt>
<trkpt lat="49.3267173767089844" lon="0.4899385869503021"><ele></ele><time>2016-10-9T11:26:33Z</time></trkpt>
<trkpt lat="49.3267402648925781" lon="0.4898043870925903"><ele></ele><time>2016-10-9T11:26:36Z</time></trkpt>
<trkpt lat="49.3267631530761719" lon="0.4896638393402100"><ele></ele><time>2016-10-9T11:26:39Z</time></trkpt>
<trkpt lat="49.3267860412597656" lon="0.4895270466804504"><ele></ele><time>2016-10-9T11:26:42Z</time></trkpt>
<trkpt lat="49.3268318176269531" lon="0.4893078505992889"><ele></ele><time>2016-10-9T11:26:45Z</time></trkpt>
<trkpt lat="49.3268585205078125" lon="0.4891650080680847"><ele></ele><time>2016-10-9T11:26:48Z</time></trkpt>
<trkpt lat="49.3269042968750000" lon="0.4889674484729767"><ele></ele><time>2016-10-9T11:26:51Z</time></trkpt>
<trkpt lat="49.3269500732421875" lon="0.4887735843658447"><ele></ele><time>2016-10-9T11:26:54Z</time></trkpt>
<trkpt lat="49.3269691467285156" lon="0.4885668754577637"><ele></ele><time>2016-10-9T11:26:57Z</time></trkpt>
<trkpt lat="49.3269996643066406" lon="0.4884455204010010"><ele></ele><time>2016-10-9T11:27:0Z</time></trkpt>
<trkpt lat="49.3270301818847656" lon="0.4882668256759644"><ele></ele><time>2016-10-9T11:27:3Z</time></trkpt>
<trkpt lat="49.3270530700683594" lon="0.4881363809108734"><ele></ele><time>2016-10-9T11:27:6Z</time></trkpt>
<trkpt lat="49.3270797729492188" lon="0.4880172014236450"><ele></ele><time>2016-10-9T11:27:9Z</time></trkpt>
<trkpt lat="49.3271255493164062" lon="0.4878278672695160"><ele></ele><time>2016-10-9T11:27:12Z</time></trkpt>
<trkpt lat="49.3271484375000000" lon="0.4877007007598877"><ele></ele><time>2016-10-9T11:27:15Z</time></trkpt>
<trkpt lat="49.3271675109863281" lon="0.4875835180282593"><ele></ele><time>2016-10-9T11:27:18Z</time></trkpt>
<trkpt lat="49.3271865844726562" lon="0.4874697923660278"><ele></ele><time>2016-10-9T11:27:21Z</time></trkpt>
<trkpt lat="49.3272056579589844" lon="0.4872961044311523"><ele></ele><time>2016-10-9T11:27:24Z</time></trkpt>
<trkpt lat="49.3272132873535156" lon="0.4871634244918823"><ele></ele><time>2016-10-9T11:27:27Z</time></trkpt>
<trkpt lat="49.3272285461425781" lon="0.4870220124721527"><ele></ele><time>2016-10-9T11:27:30Z</time></trkpt>
<trkpt lat="49.3272514343261719" lon="0.4868992269039154"><ele></ele><time>2016-10-9T11:27:33Z</time></trkpt>
<trkpt lat="49.3272933959960938" lon="0.4867237806320190"><ele></ele><time>2016-10-9T11:27:36Z</time></trkpt>
<trkpt lat="49.3273582458496094" lon="0.4865383803844452"><ele></ele><time>2016-10-9T11:27:39Z</time></trkpt>
<trkpt lat="49.3274383544921875" lon="0.4863678216934204"><ele></ele><time>2016-10-9T11:27:42Z</time></trkpt>
<trkpt lat="49.3274612426757812" lon="0.4862109124660492"><ele></ele><time>2016-10-9T11:27:45Z</time></trkpt>
<trkpt lat="49.3274688720703125" lon="0.4859982430934906"><ele></ele><time>2016-10-9T11:27:48Z</time></trkpt>
<trkpt lat="49.3274765014648438" lon="0.4858399331569672"><ele></ele><time>2016-10-9T11:27:51Z</time></trkpt>
<trkpt lat="49.3274955749511719" lon="0.4856774806976318"><ele></ele><time>2016-10-9T11:27:54Z</time></trkpt>
<trkpt lat="49.3275032043457031" lon="0.4855244159698486"><ele></ele><time>2016-10-9T11:27:57Z</time></trkpt>
<trkpt lat="49.3274841308593750" lon="0.4853120148181915"><ele></ele><time>2016-10-9T11:28:0Z</time></trkpt>
<trkpt lat="49.3274574279785156" lon="0.4851113557815552"><ele></ele><time>2016-10-9T11:28:3Z</time></trkpt>
<trkpt lat="49.3274879455566406" lon="0.4848938584327698"><ele></ele><time>2016-10-9T11:28:6Z</time></trkpt>
<trkpt lat="49.3275146484375000" lon="0.4846190214157104"><ele></ele><time>2016-10-9T11:28:9Z</time></trkpt>
<trkpt lat="49.3275146484375000" lon="0.4844954609870911"><ele></ele><time>2016-10-9T11:28:12Z</time></trkpt>
<trkpt lat="49.3274993896484375" lon="0.4843465089797974"><ele></ele><time>2016-10-9T11:28:15Z</time></trkpt>
<trkpt lat="49.3275070190429688" lon="0.4840942919254303"><ele></ele><time>2016-10-9T11:28:18Z</time></trkpt>
<trkpt lat="49.3275337219238281" lon="0.4838701784610748"><ele></ele><time>2016-10-9T11:28:21Z</time></trkpt>
<trkpt lat="49.3275260925292969" lon="0.4836573600769043"><ele></ele><time>2016-10-9T11:28:24Z</time></trkpt>
<trkpt lat="49.3275146484375000" lon="0.4834958314895630"><ele></ele><time>2016-10-9T11:28:27Z</time></trkpt>
<trkpt lat="49.3275070190429688" lon="0.4833199977874756"><ele></ele><time>2016-10-9T11:28:30Z</time></trkpt>
<trkpt lat="49.3274917602539062" lon="0.4831051528453827"><ele></ele><time>2016-10-9T11:28:33Z</time></trkpt>
<trkpt lat="49.3274536132812500" lon="0.4828507602214813"><ele></ele><time>2016-10-9T11:28:36Z</time></trkpt>
<trkpt lat="49.3274307250976562" lon="0.4827021658420563"><ele></ele><time>2016-10-9T11:28:39Z</time></trkpt>
<trkpt lat="49.3274154663085938" lon="0.4825040996074677"><ele></ele><time>2016-10-9T11:28:42Z</time></trkpt>
<trkpt lat="49.3274154663085938" lon="0.4823548197746277"><ele></ele><time>2016-10-9T11:28:45Z</time></trkpt>
<trkpt lat="49.3274116516113281" lon="0.4822357892990112"><ele></ele><time>2016-10-9T11:28:48Z</time></trkpt>
<trkpt lat="49.3274192810058594" lon="0.4820676445960999"><ele></ele><time>2016-10-9T11:28:51Z</time></trkpt>
<trkpt lat="49.3274269104003906" lon="0.4819435179233551"><ele></ele><time>2016-10-9T11:28:54Z</time></trkpt>
<trkpt lat="49.3274307250976562" lon="0.4818221330642700"><ele></ele><time>2016-10-9T11:28:57Z</time></trkpt>
<trkpt lat="49.3274230957031250" lon="0.4816446006298065"><ele></ele><time>2016-10-9T11:29:0Z</time></trkpt>
<trkpt lat="49.3274002075195312" lon="0.4815205633640289"><ele></ele><time>2016-10-9T11:29:3Z</time></trkpt>
<trkpt lat="49.3273620605468750" lon="0.4813837707042694"><ele></ele><time>2016-10-9T11:29:6Z</time></trkpt>
<trkpt lat="49.3273162841796875" lon="0.4812436103820801"><ele></ele><time>2016-10-9T11:29:9Z</time></trkpt>
<trkpt lat="49.3271255493164062" lon="0.4808471500873566"><ele></ele><time>2016-10-9T11:29:12Z</time></trkpt>
<trkpt lat="49.3270301818847656" lon="0.4806506037712097"><ele></ele><time>2016-10-9T11:29:15Z</time></trkpt>
<trkpt lat="49.3270034790039062" lon="0.4805527925491333"><ele></ele><time>2016-10-9T11:29:18Z</time></trkpt>
<trkpt lat="49.3269348144531250" lon="0.4804015755653381"><ele></ele><time>2016-10-9T11:29:21Z</time></trkpt>
<trkpt lat="49.3268547058105469" lon="0.4802338480949402"><ele></ele><time>2016-10-9T11:29:24Z</time></trkpt>
<trkpt lat="49.3267822265625000" lon="0.4801264703273773"><ele></ele><time>2016-10-9T11:29:27Z</time></trkpt>
<trkpt lat="49.3266716003417969" lon="0.4799809753894806"><ele></ele><time>2016-10-9T11:29:30Z</time></trkpt>
<trkpt lat="49.3265571594238281" lon="0.4798586070537567"><ele></ele><time>2016-10-9T11:29:33Z</time></trkpt>
<trkpt lat="49.3264694213867188" lon="0.4797270894050598"><ele></ele><time>2016-10-9T11:29:36Z</time></trkpt>
<trkpt lat="49.3263702392578125" lon="0.4796255826950073"><ele></ele><time>2016-10-9T11:29:39Z</time></trkpt>
<trkpt lat="49.3262672424316406" lon="0.4795152842998505"><ele></ele><time>2016-10-9T11:29:42Z</time></trkpt>
<trkpt lat="49.3261680603027344" lon="0.4793815910816193"><ele></ele><time>2016-10-9T11:29:45Z</time></trkpt>
<trkpt lat="49.3260688781738281" lon="0.4792570173740387"><ele></ele><time>2016-10-9T11:29:48Z</time></trkpt>
<trkpt lat="49.3259582519531250" lon="0.4791223406791687"><ele></ele><time>2016-10-9T11:29:51Z</time></trkpt>
<trkpt lat="49.3259010314941406" lon="0.4790274500846863"><ele></ele><time>2016-10-9T11:29:54Z</time></trkpt>
<trkpt lat="49.3257904052734375" lon="0.4788933396339417"><ele></ele><time>2016-10-9T11:29:57Z</time></trkpt>
<trkpt lat="49.3257217407226562" lon="0.4788125455379486"><ele></ele><time>2016-10-9T11:30:0Z</time></trkpt>
<trkpt lat="49.3255767822265625" lon="0.4787033200263977"><ele></ele><time>2016-10-9T11:30:3Z</time></trkpt>
<trkpt lat="49.3255233764648438" lon="0.4786042273044586"><ele></ele><time>2016-10-9T11:30:6Z</time></trkpt>
<trkpt lat="49.3254623413085938" lon="0.4785318076610565"><ele></ele><time>2016-10-9T11:30:9Z</time></trkpt>
<trkpt lat="49.3253479003906250" lon="0.4783955216407776"><ele></ele><time>2016-10-9T11:30:12Z</time></trkpt>
<trkpt lat="49.3252601623535156" lon="0.4783075153827667"><ele></ele><time>2016-10-9T11:30:15Z</time></trkpt>
<trkpt lat="49.3251762390136719" lon="0.4782009124755859"><ele></ele><time>2016-10-9T11:30:18Z</time></trkpt>
<trkpt lat="49.3250923156738281" lon="0.4781191051006317"><ele></ele><time>2016-10-9T11:30:21Z</time></trkpt>
<trkpt lat="49.3250160217285156" lon="0.4780469238758087"><ele></ele><time>2016-10-9T11:30:24Z</time></trkpt>
<trkpt lat="49.3248939514160156" lon="0.4779434204101562"><ele></ele><time>2016-10-9T11:30:27Z</time></trkpt>
<trkpt lat="49.3247718811035156" lon="0.4778673052787781"><ele></ele><time>2016-10-9T11:30:30Z</time></trkpt>
<trkpt lat="49.3247032165527344" lon="0.4778216183185577"><ele></ele><time>2016-10-9T11:30:33Z</time></trkpt>
<trkpt lat="49.3246307373046875" lon="0.4777540564537048"><ele></ele><time>2016-10-9T11:30:36Z</time></trkpt>
<trkpt lat="49.3245468139648438" lon="0.4776611030101776"><ele></ele><time>2016-10-9T11:30:39Z</time></trkpt>
<trkpt lat="49.3244781494140625" lon="0.4775909483432770"><ele></ele><time>2016-10-9T11:30:42Z</time></trkpt>
<trkpt lat="49.3243560791015625" lon="0.4775088131427765"><ele></ele><time>2016-10-9T11:30:45Z</time></trkpt>
<trkpt lat="49.3242378234863281" lon="0.4774299263954163"><ele></ele><time>2016-10-9T11:30:48Z</time></trkpt>
<trkpt lat="49.3241043090820312" lon="0.4773767888545990"><ele></ele><time>2016-10-9T11:30:51Z</time></trkpt>
<trkpt lat="49.3239898681640625" lon="0.4772846698760986"><ele></ele><time>2016-10-9T11:30:54Z</time></trkpt>
<trkpt lat="49.3238716125488281" lon="0.4771972596645355"><ele></ele><time>2016-10-9T11:30:57Z</time></trkpt>
<trkpt lat="49.3237380981445312" lon="0.4771275222301483"><ele></ele><time>2016-10-9T11:31:0Z</time></trkpt>
<trkpt lat="49.3236579895019531" lon="0.4770561158657074"><ele></ele><time>2016-10-9T11:31:3Z</time></trkpt>
<trkpt lat="49.3235282897949219" lon="0.4769561886787415"><ele></ele><time>2016-10-9T11:31:6Z</time></trkpt>
<trkpt lat="49.3234596252441406" lon="0.4768761396408081"><ele></ele><time>2016-10-9T11:31:9Z</time></trkpt>
<trkpt lat="49.3233489990234375" lon="0.4767696857452393"><ele></ele><time>2016-10-9T11:31:12Z</time></trkpt>
<trkpt lat="49.3232879638671875" lon="0.4767027199268341"><ele></ele><time>2016-10-9T11:31:15Z</time></trkpt>
<trkpt lat="49.3231658935546875" lon="0.4766173064708710"><ele></ele><time>2016-10-9T11:31:18Z</time></trkpt>
<trkpt lat="49.3230476379394531" lon="0.4765201508998871"><ele></ele><time>2016-10-9T11:31:21Z</time></trkpt>
<trkpt lat="49.3229598999023438" lon="0.4764479994773865"><ele></ele><time>2016-10-9T11:31:24Z</time></trkpt>
<trkpt lat="49.3228836059570312" lon="0.4763851463794708"><ele></ele><time>2016-10-9T11:31:27Z</time></trkpt>
<trkpt lat="49.3227996826171875" lon="0.4763188362121582"><ele></ele><time>2016-10-9T11:31:30Z</time></trkpt>
<trkpt lat="49.3226737976074219" lon="0.4762280583381653"><ele></ele><time>2016-10-9T11:31:33Z</time></trkpt>
<trkpt lat="49.3225746154785156" lon="0.4761470854282379"><ele></ele><time>2016-10-9T11:31:36Z</time></trkpt>
<trkpt lat="49.3224639892578125" lon="0.4760636091232300"><ele></ele><time>2016-10-9T11:31:39Z</time></trkpt>
<trkpt lat="49.3223342895507812" lon="0.4759676158428192"><ele></ele><time>2016-10-9T11:31:42Z</time></trkpt>
<trkpt lat="49.3222579956054688" lon="0.4759026765823364"><ele></ele><time>2016-10-9T11:31:45Z</time></trkpt>
<trkpt lat="49.3221321105957031" lon="0.4758030176162720"><ele></ele><time>2016-10-9T11:31:48Z</time></trkpt>
<trkpt lat="49.3220176696777344" lon="0.4757131636142731"><ele></ele><time>2016-10-9T11:31:51Z</time></trkpt>
<trkpt lat="49.3219375610351562" lon="0.4756096303462982"><ele></ele><time>2016-10-9T11:31:54Z</time></trkpt>
<trkpt lat="49.3218040466308594" lon="0.4754896163940430"><ele></ele><time>2016-10-9T11:31:57Z</time></trkpt>
<trkpt lat="49.3216819763183594" lon="0.4753406643867493"><ele></ele><time>2016-10-9T11:32:0Z</time></trkpt>
<trkpt lat="49.3216018676757812" lon="0.4752880334854126"><ele></ele><time>2016-10-9T11:32:3Z</time></trkpt>
<trkpt lat="49.3215408325195312" lon="0.4752294421195984"><ele></ele><time>2016-10-9T11:32:6Z</time></trkpt>
<trkpt lat="49.3214416503906250" lon="0.4751346409320831"><ele></ele><time>2016-10-9T11:32:9Z</time></trkpt>
<trkpt lat="49.3213195800781250" lon="0.4750240743160248"><ele></ele><time>2016-10-9T11:32:12Z</time></trkpt>
<trkpt lat="49.3212394714355469" lon="0.4749610424041748"><ele></ele><time>2016-10-9T11:32:15Z</time></trkpt>
<trkpt lat="49.3211669921875000" lon="0.4748884737491608"><ele></ele><time>2016-10-9T11:32:18Z</time></trkpt>
<trkpt lat="49.3210868835449219" lon="0.4748032093048096"><ele></ele><time>2016-10-9T11:32:21Z</time></trkpt>
<trkpt lat="49.3209304809570312" lon="0.4747343957424164"><ele></ele><time>2016-10-9T11:32:24Z</time></trkpt>
<trkpt lat="49.3208770751953125" lon="0.4745990335941315"><ele></ele><time>2016-10-9T11:32:27Z</time></trkpt>
<trkpt lat="49.3207778930664062" lon="0.4744876325130463"><ele></ele><time>2016-10-9T11:32:30Z</time></trkpt>
<trkpt lat="49.3206825256347656" lon="0.4743299782276154"><ele></ele><time>2016-10-9T11:32:33Z</time></trkpt>
<trkpt lat="49.3205833435058594" lon="0.4741955995559692"><ele></ele><time>2016-10-9T11:32:36Z</time></trkpt>
<trkpt lat="49.3204994201660156" lon="0.4740405380725861"><ele></ele><time>2016-10-9T11:32:39Z</time></trkpt>
<trkpt lat="49.3204078674316406" lon="0.4738915860652924"><ele></ele><time>2016-10-9T11:32:42Z</time></trkpt>
<trkpt lat="49.3203201293945312" lon="0.4737274944782257"><ele></ele><time>2016-10-9T11:32:45Z</time></trkpt>
<trkpt lat="49.3202552795410156" lon="0.4736242294311523"><ele></ele><time>2016-10-9T11:32:48Z</time></trkpt>
<trkpt lat="49.3201560974121094" lon="0.4735140800476074"><ele></ele><time>2016-10-9T11:32:51Z</time></trkpt>
<trkpt lat="49.3200569152832031" lon="0.4733796417713165"><ele></ele><time>2016-10-9T11:32:54Z</time></trkpt>
<trkpt lat="49.3199882507324219" lon="0.4731689095497131"><ele></ele><time>2016-10-9T11:32:57Z</time></trkpt>
<trkpt lat="49.3199234008789062" lon="0.4730621278285980"><ele></ele><time>2016-10-9T11:33:0Z</time></trkpt>
<trkpt lat="49.3198089599609375" lon="0.4729192256927490"><ele></ele><time>2016-10-9T11:33:3Z</time></trkpt>
<trkpt lat="49.3197402954101562" lon="0.4727655649185181"><ele></ele><time>2016-10-9T11:33:6Z</time></trkpt>
<trkpt lat="49.3196792602539062" lon="0.4726725220680237"><ele></ele><time>2016-10-9T11:33:9Z</time></trkpt>
<trkpt lat="49.3196220397949219" lon="0.4725853502750397"><ele></ele><time>2016-10-9T11:33:12Z</time></trkpt>
<trkpt lat="49.3195266723632812" lon="0.4724352359771729"><ele></ele><time>2016-10-9T11:33:15Z</time></trkpt>
<trkpt lat="49.3194656372070312" lon="0.4723392724990845"><ele></ele><time>2016-10-9T11:33:18Z</time></trkpt>
<trkpt lat="49.3193664550781250" lon="0.4721916615962982"><ele></ele><time>2016-10-9T11:33:21Z</time></trkpt>
<trkpt lat="49.3193168640136719" lon="0.4720916748046875"><ele></ele><time>2016-10-9T11:33:24Z</time></trkpt>
<trkpt lat="49.3192749023437500" lon="0.4720081090927124"><ele></ele><time>2016-10-9T11:33:27Z</time></trkpt>
<trkpt lat="49.3191680908203125" lon="0.4718713164329529"><ele></ele><time>2016-10-9T11:33:30Z</time></trkpt>
<trkpt lat="49.3191032409667969" lon="0.4717847108840942"><ele></ele><time>2016-10-9T11:33:33Z</time></trkpt>
<trkpt lat="49.3190345764160156" lon="0.4717077016830444"><ele></ele><time>2016-10-9T11:33:36Z</time></trkpt>
<trkpt lat="49.3188896179199219" lon="0.4716268181800842"><ele></ele><time>2016-10-9T11:33:39Z</time></trkpt>
<trkpt lat="49.3187751770019531" lon="0.4715135693550110"><ele></ele><time>2016-10-9T11:33:42Z</time></trkpt>
<trkpt lat="49.3186340332031250" lon="0.4714929461479187"><ele></ele><time>2016-10-9T11:33:45Z</time></trkpt>
<trkpt lat="49.3185462951660156" lon="0.4714476764202118"><ele></ele><time>2016-10-9T11:33:48Z</time></trkpt>
<trkpt lat="49.3184700012207031" lon="0.4713572561740875"><ele></ele><time>2016-10-9T11:33:51Z</time></trkpt>
<trkpt lat="49.3183975219726562" lon="0.4713289141654968"><ele></ele><time>2016-10-9T11:33:54Z</time></trkpt>
<trkpt lat="49.3183212280273438" lon="0.4712955653667450"><ele></ele><time>2016-10-9T11:33:57Z</time></trkpt>
<trkpt lat="49.3182144165039062" lon="0.4712437689304352"><ele></ele><time>2016-10-9T11:34:0Z</time></trkpt>
<trkpt lat="49.3181076049804688" lon="0.4711960554122925"><ele></ele><time>2016-10-9T11:34:3Z</time></trkpt>
<trkpt lat="49.3180313110351562" lon="0.4711673259735107"><ele></ele><time>2016-10-9T11:34:6Z</time></trkpt>
<trkpt lat="49.3179512023925781" lon="0.4711450040340424"><ele></ele><time>2016-10-9T11:34:9Z</time></trkpt>
<trkpt lat="49.3178253173828125" lon="0.4711121618747711"><ele></ele><time>2016-10-9T11:34:12Z</time></trkpt>
<trkpt lat="49.3177375793457031" lon="0.4711000025272369"><ele></ele><time>2016-10-9T11:34:15Z</time></trkpt>
<trkpt lat="49.3176155090332031" lon="0.4710787236690521"><ele></ele><time>2016-10-9T11:34:18Z</time></trkpt>
<trkpt lat="49.3175621032714844" lon="0.4710608720779419"><ele></ele><time>2016-10-9T11:34:21Z</time></trkpt>
<trkpt lat="49.3174667358398438" lon="0.4710517227649689"><ele></ele><time>2016-10-9T11:34:24Z</time></trkpt>
<trkpt lat="49.3173484802246094" lon="0.4710358083248138"><ele></ele><time>2016-10-9T11:34:27Z</time></trkpt>
<trkpt lat="49.3172149658203125" lon="0.4710080623626709"><ele></ele><time>2016-10-9T11:34:30Z</time></trkpt>
<trkpt lat="49.3171310424804688" lon="0.4709916412830353"><ele></ele><time>2016-10-9T11:34:33Z</time></trkpt>
<trkpt lat="49.3170127868652344" lon="0.4709776341915131"><ele></ele><time>2016-10-9T11:34:36Z</time></trkpt>
<trkpt lat="49.3169364929199219" lon="0.4709545671939850"><ele></ele><time>2016-10-9T11:34:39Z</time></trkpt>
<trkpt lat="49.3168563842773438" lon="0.4709326326847076"><ele></ele><time>2016-10-9T11:34:42Z</time></trkpt>
<trkpt lat="49.3167343139648438" lon="0.4708964824676514"><ele></ele><time>2016-10-9T11:34:45Z</time></trkpt>
<trkpt lat="49.3166160583496094" lon="0.4708626270294189"><ele></ele><time>2016-10-9T11:34:48Z</time></trkpt>
<trkpt lat="49.3164939880371094" lon="0.4708250761032104"><ele></ele><time>2016-10-9T11:34:51Z</time></trkpt>
<trkpt lat="49.3163681030273438" lon="0.4707887172698975"><ele></ele><time>2016-10-9T11:34:54Z</time></trkpt>
<trkpt lat="49.3162879943847656" lon="0.4707658290863037"><ele></ele><time>2016-10-9T11:34:57Z</time></trkpt>
<trkpt lat="49.3161582946777344" lon="0.4707230627536774"><ele></ele><time>2016-10-9T11:35:0Z</time></trkpt>
<trkpt lat="49.3160400390625000" lon="0.4707086682319641"><ele></ele><time>2016-10-9T11:35:3Z</time></trkpt>
<trkpt lat="49.3159255981445312" lon="0.4706793129444122"><ele></ele><time>2016-10-9T11:35:6Z</time></trkpt>
<trkpt lat="49.3157997131347656" lon="0.4706521630287170"><ele></ele><time>2016-10-9T11:35:9Z</time></trkpt>
<trkpt lat="49.3156776428222656" lon="0.4706313610076904"><ele></ele><time>2016-10-9T11:35:12Z</time></trkpt>
<trkpt lat="49.3155975341796875" lon="0.4706134498119354"><ele></ele><time>2016-10-9T11:35:15Z</time></trkpt>
<trkpt lat="49.3154716491699219" lon="0.4705843627452850"><ele></ele><time>2016-10-9T11:35:18Z</time></trkpt>
<trkpt lat="49.3153877258300781" lon="0.4705674946308136"><ele></ele><time>2016-10-9T11:35:21Z</time></trkpt>
<trkpt lat="49.3152732849121094" lon="0.4705373346805573"><ele></ele><time>2016-10-9T11:35:24Z</time></trkpt>
<trkpt lat="49.3151969909667969" lon="0.4705193936824799"><ele></ele><time>2016-10-9T11:35:27Z</time></trkpt>
<trkpt lat="49.3151168823242188" lon="0.4704967737197876"><ele></ele><time>2016-10-9T11:35:30Z</time></trkpt>
<trkpt lat="49.3150024414062500" lon="0.4704607129096985"><ele></ele><time>2016-10-9T11:35:33Z</time></trkpt>
<trkpt lat="49.3149070739746094" lon="0.4704247713088989"><ele></ele><time>2016-10-9T11:35:36Z</time></trkpt>
<trkpt lat="49.3148307800292969" lon="0.4704020321369171"><ele></ele><time>2016-10-9T11:35:39Z</time></trkpt>
<trkpt lat="49.3147048950195312" lon="0.4703496694564819"><ele></ele><time>2016-10-9T11:35:42Z</time></trkpt>
<trkpt lat="49.3146247863769531" lon="0.4703121185302734"><ele></ele><time>2016-10-9T11:35:45Z</time></trkpt>
<trkpt lat="49.3145065307617188" lon="0.4702579677104950"><ele></ele><time>2016-10-9T11:35:48Z</time></trkpt>
<trkpt lat="49.3143959045410156" lon="0.4702047407627106"><ele></ele><time>2016-10-9T11:35:51Z</time></trkpt>
<trkpt lat="49.3142929077148438" lon="0.4701378345489502"><ele></ele><time>2016-10-9T11:35:54Z</time></trkpt>
<trkpt lat="49.3141746520996094" lon="0.4700614809989929"><ele></ele><time>2016-10-9T11:35:57Z</time></trkpt>
<trkpt lat="49.3140945434570312" lon="0.4700044989585876"><ele></ele><time>2016-10-9T11:36:0Z</time></trkpt>
<trkpt lat="49.3140220642089844" lon="0.4699435532093048"><ele></ele><time>2016-10-9T11:36:3Z</time></trkpt>
<trkpt lat="49.3139114379882812" lon="0.4698410332202911"><ele></ele><time>2016-10-9T11:36:6Z</time></trkpt>
<trkpt lat="49.3138046264648438" lon="0.4697334170341492"><ele></ele><time>2016-10-9T11:36:9Z</time></trkpt>
<trkpt lat="49.3137321472167969" lon="0.4696620106697083"><ele></ele><time>2016-10-9T11:36:12Z</time></trkpt>
<trkpt lat="49.3136291503906250" lon="0.4695526957511902"><ele></ele><time>2016-10-9T11:36:15Z</time></trkpt>
<trkpt lat="49.3135337829589844" lon="0.4694384634494781"><ele></ele><time>2016-10-9T11:36:18Z</time></trkpt>
<trkpt lat="49.3134574890136719" lon="0.4693201184272766"><ele></ele><time>2016-10-9T11:36:21Z</time></trkpt>
<trkpt lat="49.3134040832519531" lon="0.4692385494709015"><ele></ele><time>2016-10-9T11:36:24Z</time></trkpt>
<trkpt lat="49.3133621215820312" lon="0.4691348671913147"><ele></ele><time>2016-10-9T11:36:27Z</time></trkpt>
<trkpt lat="49.3132858276367188" lon="0.4689818024635315"><ele></ele><time>2016-10-9T11:36:30Z</time></trkpt>
<trkpt lat="49.3131980895996094" lon="0.4688439369201660"><ele></ele><time>2016-10-9T11:36:33Z</time></trkpt>
<trkpt lat="49.3131065368652344" lon="0.4687311053276062"><ele></ele><time>2016-10-9T11:36:36Z</time></trkpt>
<trkpt lat="49.3130149841308594" lon="0.4686418473720551"><ele></ele><time>2016-10-9T11:36:39Z</time></trkpt>
<trkpt lat="49.3129539489746094" lon="0.4685777127742767"><ele></ele><time>2016-10-9T11:36:42Z</time></trkpt>
<trkpt lat="49.3128776550292969" lon="0.4684399366378784"><ele></ele><time>2016-10-9T11:36:45Z</time></trkpt>
<trkpt lat="49.3128128051757812" lon="0.4682965874671936"><ele></ele><time>2016-10-9T11:36:48Z</time></trkpt>
<trkpt lat="49.3127517700195312" lon="0.4681588113307953"><ele></ele><time>2016-10-9T11:36:51Z</time></trkpt>
<trkpt lat="49.3127021789550781" lon="0.4680659174919128"><ele></ele><time>2016-10-9T11:36:54Z</time></trkpt>
<trkpt lat="49.3126487731933594" lon="0.4679854512214661"><ele></ele><time>2016-10-9T11:36:57Z</time></trkpt>
<trkpt lat="49.3125724792480469" lon="0.4678668677806854"><ele></ele><time>2016-10-9T11:37:0Z</time></trkpt>
<trkpt lat="49.3125190734863281" lon="0.4677703678607941"><ele></ele><time>2016-10-9T11:37:3Z</time></trkpt>
<trkpt lat="49.3124237060546875" lon="0.4676433801651001"><ele></ele><time>2016-10-9T11:37:6Z</time></trkpt>
<trkpt lat="49.3123283386230469" lon="0.4675219357013702"><ele></ele><time>2016-10-9T11:37:9Z</time></trkpt>
<trkpt lat="49.3122596740722656" lon="0.4674357771873474"><ele></ele><time>2016-10-9T11:37:12Z</time></trkpt>
<trkpt lat="49.3121528625488281" lon="0.4673263132572174"><ele></ele><time>2016-10-9T11:37:15Z</time></trkpt>
<trkpt lat="49.3120841979980469" lon="0.4672534763813019"><ele></ele><time>2016-10-9T11:37:18Z</time></trkpt>
<trkpt lat="49.3119850158691406" lon="0.4671421647071838"><ele></ele><time>2016-10-9T11:37:21Z</time></trkpt>
<trkpt lat="49.3119239807128906" lon="0.4670751988887787"><ele></ele><time>2016-10-9T11:37:24Z</time></trkpt>
<trkpt lat="49.3118591308593750" lon="0.4670162498950958"><ele></ele><time>2016-10-9T11:37:27Z</time></trkpt>
<trkpt lat="49.3117408752441406" lon="0.4669256508350372"><ele></ele><time>2016-10-9T11:37:30Z</time></trkpt>
<trkpt lat="49.3116722106933594" lon="0.4668673872947693"><ele></ele><time>2016-10-9T11:37:33Z</time></trkpt>
<trkpt lat="49.3115768432617188" lon="0.4667762815952301"><ele></ele><time>2016-10-9T11:37:36Z</time></trkpt>
<trkpt lat="49.3115043640136719" lon="0.4667172729969025"><ele></ele><time>2016-10-9T11:37:39Z</time></trkpt>
<trkpt lat="49.3114318847656250" lon="0.4666573405265808"><ele></ele><time>2016-10-9T11:37:42Z</time></trkpt>
<trkpt lat="49.3113594055175781" lon="0.4665956497192383"><ele></ele><time>2016-10-9T11:37:45Z</time></trkpt>
<trkpt lat="49.3112373352050781" lon="0.4665326178073883"><ele></ele><time>2016-10-9T11:37:48Z</time></trkpt>
<trkpt lat="49.3111610412597656" lon="0.4664974212646484"><ele></ele><time>2016-10-9T11:37:51Z</time></trkpt>
<trkpt lat="49.3110885620117188" lon="0.4664450287818909"><ele></ele><time>2016-10-9T11:37:54Z</time></trkpt>
<trkpt lat="49.3109855651855469" lon="0.4663483798503876"><ele></ele><time>2016-10-9T11:37:57Z</time></trkpt>
<trkpt lat="49.3108787536621094" lon="0.4662545025348663"><ele></ele><time>2016-10-9T11:38:0Z</time></trkpt>
<trkpt lat="49.3108100891113281" lon="0.4662088453769684"><ele></ele><time>2016-10-9T11:38:3Z</time></trkpt>
<trkpt lat="49.3107376098632812" lon="0.4661667644977570"><ele></ele><time>2016-10-9T11:38:6Z</time></trkpt>
<trkpt lat="49.3106460571289062" lon="0.4661015570163727"><ele></ele><time>2016-10-9T11:38:9Z</time></trkpt>
<trkpt lat="49.3105888366699219" lon="0.4660547673702240"><ele></ele><time>2016-10-9T11:38:12Z</time></trkpt>
<trkpt lat="49.3105316162109375" lon="0.4660019576549530"><ele></ele><time>2016-10-9T11:38:15Z</time></trkpt>
<trkpt lat="49.3104743957519531" lon="0.4659430384635925"><ele></ele><time>2016-10-9T11:38:18Z</time></trkpt>
<trkpt lat="49.3103752136230469" lon="0.4658391177654266"><ele></ele><time>2016-10-9T11:38:21Z</time></trkpt>
<trkpt lat="49.3102722167968750" lon="0.4657396078109741"><ele></ele><time>2016-10-9T11:38:24Z</time></trkpt>
<trkpt lat="49.3102035522460938" lon="0.4656816124916077"><ele></ele><time>2016-10-9T11:38:27Z</time></trkpt>
<trkpt lat="49.3100967407226562" lon="0.4656276404857635"><ele></ele><time>2016-10-9T11:38:30Z</time></trkpt>
<trkpt lat="49.3100242614746094" lon="0.4655855596065521"><ele></ele><time>2016-10-9T11:38:33Z</time></trkpt>
<trkpt lat="49.3099136352539062" lon="0.4655290544033051"><ele></ele><time>2016-10-9T11:38:36Z</time></trkpt>
<trkpt lat="49.3097915649414062" lon="0.4654697179794312"><ele></ele><time>2016-10-9T11:38:39Z</time></trkpt>
<trkpt lat="49.3096847534179688" lon="0.4653789401054382"><ele></ele><time>2016-10-9T11:38:42Z</time></trkpt>
<trkpt lat="49.3096046447753906" lon="0.4653327465057373"><ele></ele><time>2016-10-9T11:38:45Z</time></trkpt>
<trkpt lat="49.3094863891601562" lon="0.4652683734893799"><ele></ele><time>2016-10-9T11:38:48Z</time></trkpt>
<trkpt lat="49.3093795776367188" lon="0.4652087986469269"><ele></ele><time>2016-10-9T11:38:51Z</time></trkpt>
<trkpt lat="49.3092689514160156" lon="0.4651507139205933"><ele></ele><time>2016-10-9T11:38:54Z</time></trkpt>
<trkpt lat="49.3091506958007812" lon="0.4650875031948090"><ele></ele><time>2016-10-9T11:38:57Z</time></trkpt>
<trkpt lat="49.3090400695800781" lon="0.4650300741195679"><ele></ele><time>2016-10-9T11:39:0Z</time></trkpt>
<trkpt lat="49.3089637756347656" lon="0.4649913609027863"><ele></ele><time>2016-10-9T11:39:3Z</time></trkpt>
<trkpt lat="49.3088417053222656" lon="0.4649405777454376"><ele></ele><time>2016-10-9T11:39:6Z</time></trkpt>
<trkpt lat="49.3087692260742188" lon="0.4649046957492828"><ele></ele><time>2016-10-9T11:39:9Z</time></trkpt>
<trkpt lat="49.3086662292480469" lon="0.4648372232913971"><ele></ele><time>2016-10-9T11:39:12Z</time></trkpt>
<trkpt lat="49.3085937500000000" lon="0.4647842347621918"><ele></ele><time>2016-10-9T11:39:15Z</time></trkpt>
<trkpt lat="49.3085212707519531" lon="0.4647347033023834"><ele></ele><time>2016-10-9T11:39:18Z</time></trkpt>
<trkpt lat="49.3084487915039062" lon="0.4646913707256317"><ele></ele><time>2016-10-9T11:39:21Z</time></trkpt>
<trkpt lat="49.3083763122558594" lon="0.4646545648574829"><ele></ele><time>2016-10-9T11:39:24Z</time></trkpt>
<trkpt lat="49.3082695007324219" lon="0.4646149277687073"><ele></ele><time>2016-10-9T11:39:27Z</time></trkpt>
<trkpt lat="49.3082008361816406" lon="0.4645810723304749"><ele></ele><time>2016-10-9T11:39:30Z</time></trkpt>
<trkpt lat="49.3081092834472656" lon="0.4644726812839508"><ele></ele><time>2016-10-9T11:39:33Z</time></trkpt>
<trkpt lat="49.3080215454101562" lon="0.4643584489822388"><ele></ele><time>2016-10-9T11:39:36Z</time></trkpt>
<trkpt lat="49.3079299926757812" lon="0.4642833471298218"><ele></ele><time>2016-10-9T11:39:39Z</time></trkpt>
<trkpt lat="49.3078231811523438" lon="0.4641825854778290"><ele></ele><time>2016-10-9T11:39:42Z</time></trkpt>
<trkpt lat="49.3077507019042969" lon="0.4641065597534180"><ele></ele><time>2016-10-9T11:39:45Z</time></trkpt>
<trkpt lat="49.3076782226562500" lon="0.4640520811080933"><ele></ele><time>2016-10-9T11:39:48Z</time></trkpt>
<trkpt lat="49.3075790405273438" lon="0.4639584720134735"><ele></ele><time>2016-10-9T11:39:51Z</time></trkpt>
<trkpt lat="49.3075103759765625" lon="0.4638994634151459"><ele></ele><time>2016-10-9T11:39:54Z</time></trkpt>
<trkpt lat="49.3074455261230469" lon="0.4638381898403168"><ele></ele><time>2016-10-9T11:39:57Z</time></trkpt>
<trkpt lat="49.3073539733886719" lon="0.4637255966663361"><ele></ele><time>2016-10-9T11:40:0Z</time></trkpt>
<trkpt lat="49.3072929382324219" lon="0.4636217653751373"><ele></ele><time>2016-10-9T11:40:3Z</time></trkpt>
<trkpt lat="49.3072052001953125" lon="0.4634722173213959"><ele></ele><time>2016-10-9T11:40:6Z</time></trkpt>
<trkpt lat="49.3071517944335938" lon="0.4633844792842865"><ele></ele><time>2016-10-9T11:40:9Z</time></trkpt>
<trkpt lat="49.3071022033691406" lon="0.4632951915264130"><ele></ele><time>2016-10-9T11:40:12Z</time></trkpt>
<trkpt lat="49.3070106506347656" lon="0.4631755053997040"><ele></ele><time>2016-10-9T11:40:15Z</time></trkpt>
<trkpt lat="49.3069419860839844" lon="0.4631159007549286"><ele></ele><time>2016-10-9T11:40:18Z</time></trkpt>
<trkpt lat="49.3068809509277344" lon="0.4630492627620697"><ele></ele><time>2016-10-9T11:40:21Z</time></trkpt>
<trkpt lat="49.3067970275878906" lon="0.4629439115524292"><ele></ele><time>2016-10-9T11:40:24Z</time></trkpt>
<trkpt lat="49.3067398071289062" lon="0.4628789424896240"><ele></ele><time>2016-10-9T11:40:27Z</time></trkpt>
<trkpt lat="49.3066520690917969" lon="0.4627870023250580"><ele></ele><time>2016-10-9T11:40:30Z</time></trkpt>
<trkpt lat="49.3065948486328125" lon="0.4627290070056915"><ele></ele><time>2016-10-9T11:40:33Z</time></trkpt>
<trkpt lat="49.3065376281738281" lon="0.4626723527908325"><ele></ele><time>2016-10-9T11:40:36Z</time></trkpt>
<trkpt lat="49.3064460754394531" lon="0.4625928699970245"><ele></ele><time>2016-10-9T11:40:39Z</time></trkpt>
<trkpt lat="49.3063583374023438" lon="0.4625252485275269"><ele></ele><time>2016-10-9T11:40:42Z</time></trkpt>
<trkpt lat="49.3062553405761719" lon="0.4624450206756592"><ele></ele><time>2016-10-9T11:40:45Z</time></trkpt>
<trkpt lat="49.3061943054199219" lon="0.4623952209949493"><ele></ele><time>2016-10-9T11:40:48Z</time></trkpt>
<trkpt lat="49.3061370849609375" lon="0.4623333811759949"><ele></ele><time>2016-10-9T11:40:51Z</time></trkpt>
<trkpt lat="49.3060455322265625" lon="0.4622441828250885"><ele></ele><time>2016-10-9T11:40:54Z</time></trkpt>
<trkpt lat="49.3059768676757812" lon="0.4621872901916504"><ele></ele><time>2016-10-9T11:40:57Z</time></trkpt>
<trkpt lat="49.3058738708496094" lon="0.4621047973632812"><ele></ele><time>2016-10-9T11:41:0Z</time></trkpt>
<trkpt lat="49.3057708740234375" lon="0.4620230793952942"><ele></ele><time>2016-10-9T11:41:3Z</time></trkpt>
<trkpt lat="49.3056640625000000" lon="0.4619359970092773"><ele></ele><time>2016-10-9T11:41:6Z</time></trkpt>
<trkpt lat="49.3055877685546875" lon="0.4618763029575348"><ele></ele><time>2016-10-9T11:41:9Z</time></trkpt>
<trkpt lat="49.3054847717285156" lon="0.4617953300476074"><ele></ele><time>2016-10-9T11:41:12Z</time></trkpt>
<trkpt lat="49.3053779602050781" lon="0.4617087543010712"><ele></ele><time>2016-10-9T11:41:15Z</time></trkpt>
<trkpt lat="49.3052978515625000" lon="0.4616619050502777"><ele></ele><time>2016-10-9T11:41:18Z</time></trkpt>
<trkpt lat="49.3051872253417969" lon="0.4615810215473175"><ele></ele><time>2016-10-9T11:41:21Z</time></trkpt>
<trkpt lat="49.3051147460937500" lon="0.4615228474140167"><ele></ele><time>2016-10-9T11:41:24Z</time></trkpt>
<trkpt lat="49.3050422668457031" lon="0.4614677727222443"><ele></ele><time>2016-10-9T11:41:27Z</time></trkpt>
<trkpt lat="49.3049354553222656" lon="0.4613895714282990"><ele></ele><time>2016-10-9T11:41:30Z</time></trkpt>
<trkpt lat="49.3048629760742188" lon="0.4613335728645325"><ele></ele><time>2016-10-9T11:41:33Z</time></trkpt>
<trkpt lat="49.3047561645507812" lon="0.4612447321414948"><ele></ele><time>2016-10-9T11:41:36Z</time></trkpt>
<trkpt lat="49.3046493530273438" lon="0.4611621797084808"><ele></ele><time>2016-10-9T11:41:39Z</time></trkpt>
<trkpt lat="49.3045387268066406" lon="0.4610640108585358"><ele></ele><time>2016-10-9T11:41:42Z</time></trkpt>
<trkpt lat="49.3044624328613281" lon="0.4609973728656769"><ele></ele><time>2016-10-9T11:41:45Z</time></trkpt>
<trkpt lat="49.3043479919433594" lon="0.4608992338180542"><ele></ele><time>2016-10-9T11:41:48Z</time></trkpt>
<trkpt lat="49.3042335510253906" lon="0.4608026742935181"><ele></ele><time>2016-10-9T11:41:51Z</time></trkpt>
<trkpt lat="49.3041572570800781" lon="0.4607374668121338"><ele></ele><time>2016-10-9T11:41:54Z</time></trkpt>
<trkpt lat="49.3040466308593750" lon="0.4606435894966125"><ele></ele><time>2016-10-9T11:41:57Z</time></trkpt>
<trkpt lat="49.3039283752441406" lon="0.4605507850646973"><ele></ele><time>2016-10-9T11:42:0Z</time></trkpt>
<trkpt lat="49.3038101196289062" lon="0.4604659676551819"><ele></ele><time>2016-10-9T11:42:3Z</time></trkpt>
<trkpt lat="49.3037452697753906" lon="0.4604176878929138"><ele></ele><time>2016-10-9T11:42:6Z</time></trkpt>
<trkpt lat="49.3036613464355469" lon="0.4603508114814758"><ele></ele><time>2016-10-9T11:42:9Z</time></trkpt>
<trkpt lat="49.3036155700683594" lon="0.4603180289268494"><ele></ele><time>2016-10-9T11:42:12Z</time></trkpt>
<trkpt lat="49.3035430908203125" lon="0.4602540731430054"><ele></ele><time>2016-10-9T11:42:15Z</time></trkpt>
<trkpt lat="49.3034934997558594" lon="0.4602141678333282"><ele></ele><time>2016-10-9T11:42:18Z</time></trkpt>
<trkpt lat="49.3034210205078125" lon="0.4601694047451019"><ele></ele><time>2016-10-9T11:42:21Z</time></trkpt>
<trkpt lat="49.3033370971679688" lon="0.4601145982742310"><ele></ele><time>2016-10-9T11:42:24Z</time></trkpt>
<trkpt lat="49.3032341003417969" lon="0.4600481390953064"><ele></ele><time>2016-10-9T11:42:27Z</time></trkpt>
<trkpt lat="49.3031654357910156" lon="0.4600014388561249"><ele></ele><time>2016-10-9T11:42:30Z</time></trkpt>
<trkpt lat="49.3030548095703125" lon="0.4599338769912720"><ele></ele><time>2016-10-9T11:42:33Z</time></trkpt>
<trkpt lat="49.3029823303222656" lon="0.4598857760429382"><ele></ele><time>2016-10-9T11:42:36Z</time></trkpt>
<trkpt lat="49.3028793334960938" lon="0.4598042070865631"><ele></ele><time>2016-10-9T11:42:39Z</time></trkpt>
<trkpt lat="49.3027725219726562" lon="0.4597162008285522"><ele></ele><time>2016-10-9T11:42:42Z</time></trkpt>
<trkpt lat="49.3026580810546875" lon="0.4596312046051025"><ele></ele><time>2016-10-9T11:42:45Z</time></trkpt>
<trkpt lat="49.3025856018066406" lon="0.4595715403556824"><ele></ele><time>2016-10-9T11:42:48Z</time></trkpt>
<trkpt lat="49.3024711608886719" lon="0.4594882130622864"><ele></ele><time>2016-10-9T11:42:51Z</time></trkpt>
<trkpt lat="49.3023948669433594" lon="0.4594331383705139"><ele></ele><time>2016-10-9T11:42:54Z</time></trkpt>
<trkpt lat="49.3023109436035156" lon="0.4593758285045624"><ele></ele><time>2016-10-9T11:42:57Z</time></trkpt>
<trkpt lat="49.3022079467773438" lon="0.4592844545841217"><ele></ele><time>2016-10-9T11:43:0Z</time></trkpt>
<trkpt lat="49.3021011352539062" lon="0.4591990411281586"><ele></ele><time>2016-10-9T11:43:3Z</time></trkpt>
<trkpt lat="49.3020362854003906" lon="0.4591385424137115"><ele></ele><time>2016-10-9T11:43:6Z</time></trkpt>
<trkpt lat="49.3019256591796875" lon="0.4590531289577484"><ele></ele><time>2016-10-9T11:43:9Z</time></trkpt>
<trkpt lat="49.3018074035644531" lon="0.4589588344097137"><ele></ele><time>2016-10-9T11:43:12Z</time></trkpt>
<trkpt lat="49.3017349243164062" lon="0.4588962197303772"><ele></ele><time>2016-10-9T11:43:15Z</time></trkpt>
<trkpt lat="49.3016204833984375" lon="0.4588113129138947"><ele></ele><time>2016-10-9T11:43:18Z</time></trkpt>
<trkpt lat="49.3015098571777344" lon="0.4587316811084747"><ele></ele><time>2016-10-9T11:43:21Z</time></trkpt>
<trkpt lat="49.3014068603515625" lon="0.4586507976055145"><ele></ele><time>2016-10-9T11:43:24Z</time></trkpt>
<trkpt lat="49.3012924194335938" lon="0.4585649669170380"><ele></ele><time>2016-10-9T11:43:27Z</time></trkpt>
<trkpt lat="49.3011817932128906" lon="0.4584771096706390"><ele></ele><time>2016-10-9T11:43:30Z</time></trkpt>
<trkpt lat="49.3011054992675781" lon="0.4584200382232666"><ele></ele><time>2016-10-9T11:43:33Z</time></trkpt>
<trkpt lat="49.3010253906250000" lon="0.4583632051944733"><ele></ele><time>2016-10-9T11:43:36Z</time></trkpt>
<trkpt lat="49.3008995056152344" lon="0.4582454264163971"><ele></ele><time>2016-10-9T11:43:39Z</time></trkpt>
<trkpt lat="49.3007888793945312" lon="0.4581497013568878"><ele></ele><time>2016-10-9T11:43:42Z</time></trkpt>
<trkpt lat="49.3006744384765625" lon="0.4580558240413666"><ele></ele><time>2016-10-9T11:43:45Z</time></trkpt>
<trkpt lat="49.3005752563476562" lon="0.4580026865005493"><ele></ele><time>2016-10-9T11:43:48Z</time></trkpt>
<trkpt lat="49.3004951477050781" lon="0.4579577744007111"><ele></ele><time>2016-10-9T11:43:51Z</time></trkpt>
<trkpt lat="49.3004150390625000" lon="0.4579001069068909"><ele></ele><time>2016-10-9T11:43:54Z</time></trkpt>
<trkpt lat="49.3003082275390625" lon="0.4578161239624023"><ele></ele><time>2016-10-9T11:43:57Z</time></trkpt>
<trkpt lat="49.3002319335937500" lon="0.4577695131301880"><ele></ele><time>2016-10-9T11:44:0Z</time></trkpt>
<trkpt lat="49.3001136779785156" lon="0.4576883614063263"><ele></ele><time>2016-10-9T11:44:3Z</time></trkpt>
<trkpt lat="49.3000030517578125" lon="0.4576084911823273"><ele></ele><time>2016-10-9T11:44:6Z</time></trkpt>
<trkpt lat="49.2998886108398438" lon="0.4575278759002686"><ele></ele><time>2016-10-9T11:44:9Z</time></trkpt>
<trkpt lat="49.2997779846191406" lon="0.4574464857578278"><ele></ele><time>2016-10-9T11:44:12Z</time></trkpt>
<trkpt lat="49.2997055053710938" lon="0.4573852717876434"><ele></ele><time>2016-10-9T11:44:15Z</time></trkpt>
<trkpt lat="49.2995948791503906" lon="0.4572900533676147"><ele></ele><time>2016-10-9T11:44:18Z</time></trkpt>
<trkpt lat="49.2994880676269531" lon="0.4572019875049591"><ele></ele><time>2016-10-9T11:44:21Z</time></trkpt>
<trkpt lat="49.2993736267089844" lon="0.4571096897125244"><ele></ele><time>2016-10-9T11:44:24Z</time></trkpt>
<trkpt lat="49.2993049621582031" lon="0.4570458233356476"><ele></ele><time>2016-10-9T11:44:27Z</time></trkpt>
<trkpt lat="49.2991981506347656" lon="0.4569571316242218"><ele></ele><time>2016-10-9T11:44:30Z</time></trkpt>
<trkpt lat="49.2990951538085938" lon="0.4568544626235962"><ele></ele><time>2016-10-9T11:44:33Z</time></trkpt>
<trkpt lat="49.2989997863769531" lon="0.4567717313766479"><ele></ele><time>2016-10-9T11:44:36Z</time></trkpt>
<trkpt lat="49.2989082336425781" lon="0.4567002356052399"><ele></ele><time>2016-10-9T11:44:39Z</time></trkpt>
<trkpt lat="49.2987976074218750" lon="0.4566408097743988"><ele></ele><time>2016-10-9T11:44:42Z</time></trkpt>
<trkpt lat="49.2987251281738281" lon="0.4565919339656830"><ele></ele><time>2016-10-9T11:44:45Z</time></trkpt>
<trkpt lat="49.2986145019531250" lon="0.4565229415893555"><ele></ele><time>2016-10-9T11:44:48Z</time></trkpt>
<trkpt lat="49.2985076904296875" lon="0.4564460813999176"><ele></ele><time>2016-10-9T11:44:51Z</time></trkpt>
<trkpt lat="49.2984352111816406" lon="0.4563919603824615"><ele></ele><time>2016-10-9T11:44:54Z</time></trkpt>
<trkpt lat="49.2983245849609375" lon="0.4563105702400208"><ele></ele><time>2016-10-9T11:44:57Z</time></trkpt>
<trkpt lat="49.2982482910156250" lon="0.4562394022941589"><ele></ele><time>2016-10-9T11:45:0Z</time></trkpt>
<trkpt lat="49.2981796264648438" lon="0.4561622738838196"><ele></ele><time>2016-10-9T11:45:3Z</time></trkpt>
<trkpt lat="49.2980728149414062" lon="0.4560595154762268"><ele></ele><time>2016-10-9T11:45:6Z</time></trkpt>
<trkpt lat="49.2979621887207031" lon="0.4559684097766876"><ele></ele><time>2016-10-9T11:45:9Z</time></trkpt>
<trkpt lat="49.2978477478027344" lon="0.4558809101581573"><ele></ele><time>2016-10-9T11:45:12Z</time></trkpt>
<trkpt lat="49.2977371215820312" lon="0.4557985961437225"><ele></ele><time>2016-10-9T11:45:15Z</time></trkpt>
<trkpt lat="49.2976303100585938" lon="0.4557182788848877"><ele></ele><time>2016-10-9T11:45:18Z</time></trkpt>
<trkpt lat="49.2975158691406250" lon="0.4556309580802917"><ele></ele><time>2016-10-9T11:45:21Z</time></trkpt>
<trkpt lat="49.2974090576171875" lon="0.4555488228797913"><ele></ele><time>2016-10-9T11:45:24Z</time></trkpt>
<trkpt lat="49.2972908020019531" lon="0.4554741382598877"><ele></ele><time>2016-10-9T11:45:27Z</time></trkpt>
<trkpt lat="49.2971839904785156" lon="0.4553804993629456"><ele></ele><time>2016-10-9T11:45:30Z</time></trkpt>
<trkpt lat="49.2971076965332031" lon="0.4553170502185822"><ele></ele><time>2016-10-9T11:45:33Z</time></trkpt>
<trkpt lat="49.2970314025878906" lon="0.4552539288997650"><ele></ele><time>2016-10-9T11:45:36Z</time></trkpt>
<trkpt lat="49.2969169616699219" lon="0.4551598131656647"><ele></ele><time>2016-10-9T11:45:39Z</time></trkpt>
<trkpt lat="49.2968063354492188" lon="0.4550701081752777"><ele></ele><time>2016-10-9T11:45:42Z</time></trkpt>
<trkpt lat="49.2966918945312500" lon="0.4549860358238220"><ele></ele><time>2016-10-9T11:45:45Z</time></trkpt>
<trkpt lat="49.2965812683105469" lon="0.4548933506011963"><ele></ele><time>2016-10-9T11:45:48Z</time></trkpt>
<trkpt lat="49.2964706420898438" lon="0.4548016488552094"><ele></ele><time>2016-10-9T11:45:51Z</time></trkpt>
<trkpt lat="49.2964019775390625" lon="0.4547435641288757"><ele></ele><time>2016-10-9T11:45:54Z</time></trkpt>
<trkpt lat="49.2962837219238281" lon="0.4546651840209961"><ele></ele><time>2016-10-9T11:45:57Z</time></trkpt>
<trkpt lat="49.2961654663085938" lon="0.4545796811580658"><ele></ele><time>2016-10-9T11:46:0Z</time></trkpt>
<trkpt lat="49.2960739135742188" lon="0.4545163214206696"><ele></ele><time>2016-10-9T11:46:3Z</time></trkpt>
<trkpt lat="49.2960014343261719" lon="0.4544535577297211"><ele></ele><time>2016-10-9T11:46:6Z</time></trkpt>
<trkpt lat="49.2958869934082031" lon="0.4543709158897400"><ele></ele><time>2016-10-9T11:46:9Z</time></trkpt>
<trkpt lat="49.2957649230957031" lon="0.4542834758758545"><ele></ele><time>2016-10-9T11:46:12Z</time></trkpt>
<trkpt lat="49.2956581115722656" lon="0.4541785418987274"><ele></ele><time>2016-10-9T11:46:15Z</time></trkpt>
<trkpt lat="49.2955169677734375" lon="0.4540898501873016"><ele></ele><time>2016-10-9T11:46:18Z</time></trkpt>
<trkpt lat="49.2953834533691406" lon="0.4539788663387299"><ele></ele><time>2016-10-9T11:46:21Z</time></trkpt>
<trkpt lat="49.2952880859375000" lon="0.4539161920547485"><ele></ele><time>2016-10-9T11:46:24Z</time></trkpt>
<trkpt lat="49.2951469421386719" lon="0.4538098871707916"><ele></ele><time>2016-10-9T11:46:27Z</time></trkpt>
<trkpt lat="49.2950668334960938" lon="0.4537314474582672"><ele></ele><time>2016-10-9T11:46:30Z</time></trkpt>
<trkpt lat="49.2949371337890625" lon="0.4536449313163757"><ele></ele><time>2016-10-9T11:46:33Z</time></trkpt>
<trkpt lat="49.2948493957519531" lon="0.4535733759403229"><ele></ele><time>2016-10-9T11:46:36Z</time></trkpt>
<trkpt lat="49.2947044372558594" lon="0.4534853398799896"><ele></ele><time>2016-10-9T11:46:39Z</time></trkpt>
<trkpt lat="49.2945747375488281" lon="0.4533679187297821"><ele></ele><time>2016-10-9T11:46:42Z</time></trkpt>
<trkpt lat="49.2944755554199219" lon="0.4532991051673889"><ele></ele><time>2016-10-9T11:46:45Z</time></trkpt>
<trkpt lat="49.2943496704101562" lon="0.4531945884227753"><ele></ele><time>2016-10-9T11:46:48Z</time></trkpt>
<trkpt lat="49.2942695617675781" lon="0.4531314671039581"><ele></ele><time>2016-10-9T11:46:51Z</time></trkpt>
<trkpt lat="49.2941360473632812" lon="0.4530263543128967"><ele></ele><time>2016-10-9T11:46:54Z</time></trkpt>
<trkpt lat="49.2940177917480469" lon="0.4529273808002472"><ele></ele><time>2016-10-9T11:46:57Z</time></trkpt>
<trkpt lat="49.2939338684082031" lon="0.4528700411319733"><ele></ele><time>2016-10-9T11:47:0Z</time></trkpt>
<trkpt lat="49.2938041687011719" lon="0.4527808427810669"><ele></ele><time>2016-10-9T11:47:3Z</time></trkpt>
<trkpt lat="49.2936897277832031" lon="0.4526697993278503"><ele></ele><time>2016-10-9T11:47:6Z</time></trkpt>
<trkpt lat="49.2935905456542969" lon="0.4526033997535706"><ele></ele><time>2016-10-9T11:47:9Z</time></trkpt>
<trkpt lat="49.2934608459472656" lon="0.4525116980075836"><ele></ele><time>2016-10-9T11:47:12Z</time></trkpt>
<trkpt lat="49.2933464050292969" lon="0.4524123072624207"><ele></ele><time>2016-10-9T11:47:15Z</time></trkpt>
<trkpt lat="49.2932662963867188" lon="0.4523544609546661"><ele></ele><time>2016-10-9T11:47:18Z</time></trkpt>
<trkpt lat="49.2931480407714844" lon="0.4522771835327148"><ele></ele><time>2016-10-9T11:47:21Z</time></trkpt>
<trkpt lat="49.2930221557617188" lon="0.4521818757057190"><ele></ele><time>2016-10-9T11:47:24Z</time></trkpt>
<trkpt lat="49.2928962707519531" lon="0.4520878493785858"><ele></ele><time>2016-10-9T11:47:27Z</time></trkpt>
<trkpt lat="49.2928199768066406" lon="0.4520236253738403"><ele></ele><time>2016-10-9T11:47:30Z</time></trkpt>
<trkpt lat="49.2926940917968750" lon="0.4519264996051788"><ele></ele><time>2016-10-9T11:47:33Z</time></trkpt>
<trkpt lat="49.2926177978515625" lon="0.4518664777278900"><ele></ele><time>2016-10-9T11:47:36Z</time></trkpt>
<trkpt lat="49.2925033569335938" lon="0.4517862498760223"><ele></ele><time>2016-10-9T11:47:39Z</time></trkpt>
<trkpt lat="49.2923774719238281" lon="0.4517069756984711"><ele></ele><time>2016-10-9T11:47:42Z</time></trkpt>
<trkpt lat="49.2922973632812500" lon="0.4516352117061615"><ele></ele><time>2016-10-9T11:47:45Z</time></trkpt>
<trkpt lat="49.2922172546386719" lon="0.4515659809112549"><ele></ele><time>2016-10-9T11:47:48Z</time></trkpt>
<trkpt lat="49.2921295166015625" lon="0.4515022933483124"><ele></ele><time>2016-10-9T11:47:51Z</time></trkpt>
<trkpt lat="49.2920074462890625" lon="0.4514176249504089"><ele></ele><time>2016-10-9T11:47:54Z</time></trkpt>
<trkpt lat="49.2919197082519531" lon="0.4513465464115143"><ele></ele><time>2016-10-9T11:47:57Z</time></trkpt>
<trkpt lat="49.2917938232421875" lon="0.4512369036674500"><ele></ele><time>2016-10-9T11:48:0Z</time></trkpt>
<trkpt lat="49.2916755676269531" lon="0.4511399269104004"><ele></ele><time>2016-10-9T11:48:3Z</time></trkpt>
<trkpt lat="49.2915954589843750" lon="0.4510847032070160"><ele></ele><time>2016-10-9T11:48:6Z</time></trkpt>
<trkpt lat="49.2915115356445312" lon="0.4510355889797211"><ele></ele><time>2016-10-9T11:48:9Z</time></trkpt>
<trkpt lat="49.2913780212402344" lon="0.4509485661983490"><ele></ele><time>2016-10-9T11:48:12Z</time></trkpt>
<trkpt lat="49.2913208007812500" lon="0.4508738815784454"><ele></ele><time>2016-10-9T11:48:15Z</time></trkpt>
<trkpt lat="49.2911911010742188" lon="0.4507628381252289"><ele></ele><time>2016-10-9T11:48:18Z</time></trkpt>
<trkpt lat="49.2911033630371094" lon="0.4507005512714386"><ele></ele><time>2016-10-9T11:48:21Z</time></trkpt>
<trkpt lat="49.2910423278808594" lon="0.4506315588951111"><ele></ele><time>2016-10-9T11:48:24Z</time></trkpt>
<trkpt lat="49.2909088134765625" lon="0.4505266249179840"><ele></ele><time>2016-10-9T11:48:27Z</time></trkpt>
<trkpt lat="49.2908210754394531" lon="0.4504486620426178"><ele></ele><time>2016-10-9T11:48:30Z</time></trkpt>
<trkpt lat="49.2906990051269531" lon="0.4503446519374847"><ele></ele><time>2016-10-9T11:48:33Z</time></trkpt>
<trkpt lat="49.2905960083007812" lon="0.4502176642417908"><ele></ele><time>2016-10-9T11:48:36Z</time></trkpt>
<trkpt lat="49.2904624938964844" lon="0.4501270651817322"><ele></ele><time>2016-10-9T11:48:39Z</time></trkpt>
<trkpt lat="49.2903747558593750" lon="0.4500651955604553"><ele></ele><time>2016-10-9T11:48:42Z</time></trkpt>
<trkpt lat="49.2902755737304688" lon="0.4500081241130829"><ele></ele><time>2016-10-9T11:48:45Z</time></trkpt>
<trkpt lat="49.2901725769042969" lon="0.4498776197433472"><ele></ele><time>2016-10-9T11:48:48Z</time></trkpt>
<trkpt lat="49.2900390625000000" lon="0.4498217999935150"><ele></ele><time>2016-10-9T11:48:51Z</time></trkpt>
<trkpt lat="49.2899551391601562" lon="0.4497141540050507"><ele></ele><time>2016-10-9T11:48:54Z</time></trkpt>
<trkpt lat="49.2898445129394531" lon="0.4496063888072968"><ele></ele><time>2016-10-9T11:48:57Z</time></trkpt>
<trkpt lat="49.2897491455078125" lon="0.4495274126529694"><ele></ele><time>2016-10-9T11:49:0Z</time></trkpt>
<trkpt lat="49.2896270751953125" lon="0.4494483768939972"><ele></ele><time>2016-10-9T11:49:3Z</time></trkpt>
<trkpt lat="49.2894973754882812" lon="0.4493119120597839"><ele></ele><time>2016-10-9T11:49:6Z</time></trkpt>
<trkpt lat="49.2893981933593750" lon="0.4491887986660004"><ele></ele><time>2016-10-9T11:49:9Z</time></trkpt>
<trkpt lat="49.2892837524414062" lon="0.4491003751754761"><ele></ele><time>2016-10-9T11:49:12Z</time></trkpt>
<trkpt lat="49.2891731262207031" lon="0.4490312933921814"><ele></ele><time>2016-10-9T11:49:15Z</time></trkpt>
<trkpt lat="49.2890625000000000" lon="0.4489496648311615"><ele></ele><time>2016-10-9T11:49:18Z</time></trkpt>
<trkpt lat="49.2889518737792969" lon="0.4488659203052521"><ele></ele><time>2016-10-9T11:49:21Z</time></trkpt>
<trkpt lat="49.2888755798339844" lon="0.4488048255443573"><ele></ele><time>2016-10-9T11:49:24Z</time></trkpt>
<trkpt lat="49.2887687683105469" lon="0.4487058222293854"><ele></ele><time>2016-10-9T11:49:27Z</time></trkpt>
<trkpt lat="49.2886619567871094" lon="0.4486067593097687"><ele></ele><time>2016-10-9T11:49:30Z</time></trkpt>
<trkpt lat="49.2885551452636719" lon="0.4485139548778534"><ele></ele><time>2016-10-9T11:49:33Z</time></trkpt>
<trkpt lat="49.2884521484375000" lon="0.4484283924102783"><ele></ele><time>2016-10-9T11:49:36Z</time></trkpt>
<trkpt lat="49.2883529663085938" lon="0.4483431279659271"><ele></ele><time>2016-10-9T11:49:39Z</time></trkpt>
<trkpt lat="49.2882843017578125" lon="0.4482930302619934"><ele></ele><time>2016-10-9T11:49:42Z</time></trkpt>
<trkpt lat="49.2881774902343750" lon="0.4482049942016602"><ele></ele><time>2016-10-9T11:49:45Z</time></trkpt>
<trkpt lat="49.2880783081054688" lon="0.4481114745140076"><ele></ele><time>2016-10-9T11:49:48Z</time></trkpt>
<trkpt lat="49.2879714965820312" lon="0.4480205178260803"><ele></ele><time>2016-10-9T11:49:51Z</time></trkpt>
<trkpt lat="49.2878570556640625" lon="0.4479332566261292"><ele></ele><time>2016-10-9T11:49:54Z</time></trkpt>
<trkpt lat="49.2877769470214844" lon="0.4478649497032166"><ele></ele><time>2016-10-9T11:49:57Z</time></trkpt>
<trkpt lat="49.2876548767089844" lon="0.4477601051330566"><ele></ele><time>2016-10-9T11:50:0Z</time></trkpt>
<trkpt lat="49.2875518798828125" lon="0.4476631879806519"><ele></ele><time>2016-10-9T11:50:3Z</time></trkpt>
<trkpt lat="49.2874336242675781" lon="0.4475458562374115"><ele></ele><time>2016-10-9T11:50:6Z</time></trkpt>
<trkpt lat="49.2873268127441406" lon="0.4474416673183441"><ele></ele><time>2016-10-9T11:50:9Z</time></trkpt>
<trkpt lat="49.2872161865234375" lon="0.4473523199558258"><ele></ele><time>2016-10-9T11:50:12Z</time></trkpt>
<trkpt lat="49.2871131896972656" lon="0.4473006725311279"><ele></ele><time>2016-10-9T11:50:15Z</time></trkpt>
<trkpt lat="49.2870483398437500" lon="0.4472591876983643"><ele></ele><time>2016-10-9T11:50:18Z</time></trkpt>
<trkpt lat="49.2869377136230469" lon="0.4471583664417267"><ele></ele><time>2016-10-9T11:50:21Z</time></trkpt>
<trkpt lat="49.2868652343750000" lon="0.4470991790294647"><ele></ele><time>2016-10-9T11:50:24Z</time></trkpt>
<trkpt lat="49.2867889404296875" lon="0.4470391571521759"><ele></ele><time>2016-10-9T11:50:27Z</time></trkpt>
<trkpt lat="49.2866783142089844" lon="0.4469398558139801"><ele></ele><time>2016-10-9T11:50:30Z</time></trkpt>
<trkpt lat="49.2866096496582031" lon="0.4468727111816406"><ele></ele><time>2016-10-9T11:50:33Z</time></trkpt>
<trkpt lat="49.2864875793457031" lon="0.4467621445655823"><ele></ele><time>2016-10-9T11:50:36Z</time></trkpt>
<trkpt lat="49.2863655090332031" lon="0.4466673433780670"><ele></ele><time>2016-10-9T11:50:39Z</time></trkpt>
<trkpt lat="49.2862281799316406" lon="0.4465495944023132"><ele></ele><time>2016-10-9T11:50:42Z</time></trkpt>
<trkpt lat="49.2861137390136719" lon="0.4464616477489471"><ele></ele><time>2016-10-9T11:50:45Z</time></trkpt>
<trkpt lat="49.2860069274902344" lon="0.4463533461093903"><ele></ele><time>2016-10-9T11:50:48Z</time></trkpt>
<trkpt lat="49.2859306335449219" lon="0.4462885558605194"><ele></ele><time>2016-10-9T11:50:51Z</time></trkpt>
<trkpt lat="49.2857971191406250" lon="0.4462034106254578"><ele></ele><time>2016-10-9T11:50:54Z</time></trkpt>
<trkpt lat="49.2856903076171875" lon="0.4460602402687073"><ele></ele><time>2016-10-9T11:50:57Z</time></trkpt>
<trkpt lat="49.2855796813964844" lon="0.4459411501884460"><ele></ele><time>2016-10-9T11:51:0Z</time></trkpt>
<trkpt lat="49.2855148315429688" lon="0.4458749294281006"><ele></ele><time>2016-10-9T11:51:3Z</time></trkpt>
<trkpt lat="49.2854347229003906" lon="0.4458054304122925"><ele></ele><time>2016-10-9T11:51:6Z</time></trkpt>
<trkpt lat="49.2853546142578125" lon="0.4457591772079468"><ele></ele><time>2016-10-9T11:51:9Z</time></trkpt>
<trkpt lat="49.2852210998535156" lon="0.4456700682640076"><ele></ele><time>2016-10-9T11:51:12Z</time></trkpt>
<trkpt lat="49.2851448059082031" lon="0.4455938637256622"><ele></ele><time>2016-10-9T11:51:15Z</time></trkpt>
<trkpt lat="49.2850532531738281" lon="0.4455285072326660"><ele></ele><time>2016-10-9T11:51:18Z</time></trkpt>
<trkpt lat="49.2849388122558594" lon="0.4454218745231628"><ele></ele><time>2016-10-9T11:51:21Z</time></trkpt>
<trkpt lat="49.2848587036132812" lon="0.4453325271606445"><ele></ele><time>2016-10-9T11:51:24Z</time></trkpt>
<trkpt lat="49.2847557067871094" lon="0.4452508985996246"><ele></ele><time>2016-10-9T11:51:27Z</time></trkpt>
<trkpt lat="49.2846603393554688" lon="0.4451900422573090"><ele></ele><time>2016-10-9T11:51:30Z</time></trkpt>
<trkpt lat="49.2845649719238281" lon="0.4451155960559845"><ele></ele><time>2016-10-9T11:51:33Z</time></trkpt>
<trkpt lat="49.2844657897949219" lon="0.4450283348560333"><ele></ele><time>2016-10-9T11:51:36Z</time></trkpt>
<trkpt lat="49.2843971252441406" lon="0.4449633061885834"><ele></ele><time>2016-10-9T11:51:39Z</time></trkpt>
<trkpt lat="49.2843246459960938" lon="0.4449025392532349"><ele></ele><time>2016-10-9T11:51:42Z</time></trkpt>
<trkpt lat="49.2842216491699219" lon="0.4448033869266510"><ele></ele><time>2016-10-9T11:51:45Z</time></trkpt>
<trkpt lat="49.2841491699218750" lon="0.4447461366653442"><ele></ele><time>2016-10-9T11:51:48Z</time></trkpt>
<trkpt lat="49.2840843200683594" lon="0.4447004497051239"><ele></ele><time>2016-10-9T11:51:51Z</time></trkpt>
<trkpt lat="49.2839546203613281" lon="0.4445842802524567"><ele></ele><time>2016-10-9T11:51:54Z</time></trkpt>
<trkpt lat="49.2838439941406250" lon="0.4445480704307556"><ele></ele><time>2016-10-9T11:51:57Z</time></trkpt>
<trkpt lat="49.2837333679199219" lon="0.4444545209407806"><ele></ele><time>2016-10-9T11:52:0Z</time></trkpt>
<trkpt lat="49.2836227416992188" lon="0.4443624913692474"><ele></ele><time>2016-10-9T11:52:3Z</time></trkpt>
<trkpt lat="49.2835350036621094" lon="0.4443010389804840"><ele></ele><time>2016-10-9T11:52:6Z</time></trkpt>
<trkpt lat="49.2834472656250000" lon="0.4442098438739777"><ele></ele><time>2016-10-9T11:52:9Z</time></trkpt>
<trkpt lat="49.2833557128906250" lon="0.4441159665584564"><ele></ele><time>2016-10-9T11:52:12Z</time></trkpt>
<trkpt lat="49.2832679748535156" lon="0.4440499246120453"><ele></ele><time>2016-10-9T11:52:15Z</time></trkpt>
<trkpt lat="49.2831726074218750" lon="0.4439752399921417"><ele></ele><time>2016-10-9T11:52:18Z</time></trkpt>
<trkpt lat="49.2830924987792969" lon="0.4439196884632111"><ele></ele><time>2016-10-9T11:52:21Z</time></trkpt>
<trkpt lat="49.2829627990722656" lon="0.4438234567642212"><ele></ele><time>2016-10-9T11:52:24Z</time></trkpt>
<trkpt lat="49.2828559875488281" lon="0.4437319338321686"><ele></ele><time>2016-10-9T11:52:27Z</time></trkpt>
<trkpt lat="49.2827377319335938" lon="0.4436484277248383"><ele></ele><time>2016-10-9T11:52:30Z</time></trkpt>
<trkpt lat="49.2826690673828125" lon="0.4436221122741699"><ele></ele><time>2016-10-9T11:52:33Z</time></trkpt>
<trkpt lat="49.2825317382812500" lon="0.4435220360755920"><ele></ele><time>2016-10-9T11:52:36Z</time></trkpt>
<trkpt lat="49.2824668884277344" lon="0.4434556663036346"><ele></ele><time>2016-10-9T11:52:39Z</time></trkpt>
<trkpt lat="49.2823905944824219" lon="0.4433880150318146"><ele></ele><time>2016-10-9T11:52:42Z</time></trkpt>
<trkpt lat="49.2823181152343750" lon="0.4432988166809082"><ele></ele><time>2016-10-9T11:52:45Z</time></trkpt>
<trkpt lat="49.2821807861328125" lon="0.4431635439395905"><ele></ele><time>2016-10-9T11:52:48Z</time></trkpt>
<trkpt lat="49.2820701599121094" lon="0.4430461227893829"><ele></ele><time>2016-10-9T11:52:51Z</time></trkpt>
<trkpt lat="49.2819976806640625" lon="0.4429689049720764"><ele></ele><time>2016-10-9T11:52:54Z</time></trkpt>
<trkpt lat="49.2818908691406250" lon="0.4428584277629852"><ele></ele><time>2016-10-9T11:52:57Z</time></trkpt>
<trkpt lat="49.2818107604980469" lon="0.4427794814109802"><ele></ele><time>2016-10-9T11:53:0Z</time></trkpt>
<trkpt lat="49.2816925048828125" lon="0.4427011013031006"><ele></ele><time>2016-10-9T11:53:3Z</time></trkpt>
<trkpt lat="49.2815628051757812" lon="0.4426056444644928"><ele></ele><time>2016-10-9T11:53:6Z</time></trkpt>
<trkpt lat="49.2814292907714844" lon="0.4424944221973419"><ele></ele><time>2016-10-9T11:53:9Z</time></trkpt>
<trkpt lat="49.2812728881835938" lon="0.4424336552619934"><ele></ele><time>2016-10-9T11:53:12Z</time></trkpt>
<trkpt lat="49.2811698913574219" lon="0.4423895478248596"><ele></ele><time>2016-10-9T11:53:15Z</time></trkpt>
<trkpt lat="49.2810516357421875" lon="0.4422675073146820"><ele></ele><time>2016-10-9T11:53:18Z</time></trkpt>
<trkpt lat="49.2809333801269531" lon="0.4421561360359192"><ele></ele><time>2016-10-9T11:53:21Z</time></trkpt>
<trkpt lat="49.2808074951171875" lon="0.4420483410358429"><ele></ele><time>2016-10-9T11:53:24Z</time></trkpt>
<trkpt lat="49.2807083129882812" lon="0.4419434666633606"><ele></ele><time>2016-10-9T11:53:27Z</time></trkpt>
<trkpt lat="49.2805900573730469" lon="0.4418383538722992"><ele></ele><time>2016-10-9T11:53:30Z</time></trkpt>
<trkpt lat="49.2804718017578125" lon="0.4417282342910767"><ele></ele><time>2016-10-9T11:53:33Z</time></trkpt>
<trkpt lat="49.2803535461425781" lon="0.4416229426860809"><ele></ele><time>2016-10-9T11:53:36Z</time></trkpt>
<trkpt lat="49.2802619934082031" lon="0.4415256381034851"><ele></ele><time>2016-10-9T11:53:39Z</time></trkpt>
<trkpt lat="49.2801399230957031" lon="0.4414247870445251"><ele></ele><time>2016-10-9T11:53:42Z</time></trkpt>
<trkpt lat="49.2800712585449219" lon="0.4413371980190277"><ele></ele><time>2016-10-9T11:53:45Z</time></trkpt>
<trkpt lat="49.2799987792968750" lon="0.4412667155265808"><ele></ele><time>2016-10-9T11:53:48Z</time></trkpt>
<trkpt lat="49.2799339294433594" lon="0.4411903619766235"><ele></ele><time>2016-10-9T11:53:51Z</time></trkpt>
<trkpt lat="49.2798576354980469" lon="0.4411286711692810"><ele></ele><time>2016-10-9T11:53:54Z</time></trkpt>
<trkpt lat="49.2797393798828125" lon="0.4410026967525482"><ele></ele><time>2016-10-9T11:53:57Z</time></trkpt>
<trkpt lat="49.2796936035156250" lon="0.4408881068229675"><ele></ele><time>2016-10-9T11:54:0Z</time></trkpt>
<trkpt lat="49.2796440124511719" lon="0.4408145844936371"><ele></ele><time>2016-10-9T11:54:3Z</time></trkpt>
<trkpt lat="49.2795944213867188" lon="0.4407249093055725"><ele></ele><time>2016-10-9T11:54:6Z</time></trkpt>
<trkpt lat="49.2795333862304688" lon="0.4405710101127625"><ele></ele><time>2016-10-9T11:54:9Z</time></trkpt>
<trkpt lat="49.2794799804687500" lon="0.4405021965503693"><ele></ele><time>2016-10-9T11:54:12Z</time></trkpt>
<trkpt lat="49.2793884277343750" lon="0.4403702020645142"><ele></ele><time>2016-10-9T11:54:15Z</time></trkpt>
<trkpt lat="49.2793006896972656" lon="0.4402603805065155"><ele></ele><time>2016-10-9T11:54:18Z</time></trkpt>
<trkpt lat="49.2792587280273438" lon="0.4401758909225464"><ele></ele><time>2016-10-9T11:54:21Z</time></trkpt>
<trkpt lat="49.2792358398437500" lon="0.4400697946548462"><ele></ele><time>2016-10-9T11:54:24Z</time></trkpt>
<trkpt lat="49.2792091369628906" lon="0.4399631619453430"><ele></ele><time>2016-10-9T11:54:27Z</time></trkpt>
<trkpt lat="49.2791748046875000" lon="0.4398029744625092"><ele></ele><time>2016-10-9T11:54:30Z</time></trkpt>
<trkpt lat="49.2791404724121094" lon="0.4397124648094177"><ele></ele><time>2016-10-9T11:54:33Z</time></trkpt>
<trkpt lat="49.2790908813476562" lon="0.4395638406276703"><ele></ele><time>2016-10-9T11:54:36Z</time></trkpt>
<trkpt lat="49.2790260314941406" lon="0.4394063651561737"><ele></ele><time>2016-10-9T11:54:39Z</time></trkpt>
<trkpt lat="49.2789382934570312" lon="0.4392403960227966"><ele></ele><time>2016-10-9T11:54:42Z</time></trkpt>
<trkpt lat="49.2788505554199219" lon="0.4390770196914673"><ele></ele><time>2016-10-9T11:54:45Z</time></trkpt>
<trkpt lat="49.2788124084472656" lon="0.4389709234237671"><ele></ele><time>2016-10-9T11:54:48Z</time></trkpt>
<trkpt lat="49.2787742614746094" lon="0.4388660490512848"><ele></ele><time>2016-10-9T11:54:51Z</time></trkpt>
<trkpt lat="49.2787246704101562" lon="0.4387653768062592"><ele></ele><time>2016-10-9T11:54:54Z</time></trkpt>
<trkpt lat="49.2786827087402344" lon="0.4386664927005768"><ele></ele><time>2016-10-9T11:54:57Z</time></trkpt>
<trkpt lat="49.2786140441894531" lon="0.4385032057762146"><ele></ele><time>2016-10-9T11:55:0Z</time></trkpt>
<trkpt lat="49.2785224914550781" lon="0.4383414387702942"><ele></ele><time>2016-10-9T11:55:3Z</time></trkpt>
<trkpt lat="49.2784729003906250" lon="0.4382243454456329"><ele></ele><time>2016-10-9T11:55:6Z</time></trkpt>
<trkpt lat="49.2784194946289062" lon="0.4380404353141785"><ele></ele><time>2016-10-9T11:55:9Z</time></trkpt>
<trkpt lat="49.2783546447753906" lon="0.4378593862056732"><ele></ele><time>2016-10-9T11:55:12Z</time></trkpt>
<trkpt lat="49.2782974243164062" lon="0.4376707971096039"><ele></ele><time>2016-10-9T11:55:15Z</time></trkpt>
<trkpt lat="49.2782630920410156" lon="0.4375617504119873"><ele></ele><time>2016-10-9T11:55:18Z</time></trkpt>
<trkpt lat="49.2782096862792969" lon="0.4374163150787354"><ele></ele><time>2016-10-9T11:55:21Z</time></trkpt>
<trkpt lat="49.2781410217285156" lon="0.4372586607933044"><ele></ele><time>2016-10-9T11:55:24Z</time></trkpt>
<trkpt lat="49.2781028747558594" lon="0.4371314346790314"><ele></ele><time>2016-10-9T11:55:27Z</time></trkpt>
<trkpt lat="49.2780418395996094" lon="0.4369573295116425"><ele></ele><time>2016-10-9T11:55:30Z</time></trkpt>
<trkpt lat="49.2779998779296875" lon="0.4368499517440796"><ele></ele><time>2016-10-9T11:55:33Z</time></trkpt>
<trkpt lat="49.2779426574707031" lon="0.4366834163665771"><ele></ele><time>2016-10-9T11:55:36Z</time></trkpt>
<trkpt lat="49.2778549194335938" lon="0.4364902079105377"><ele></ele><time>2016-10-9T11:55:39Z</time></trkpt>
<trkpt lat="49.2778015136718750" lon="0.4363186359405518"><ele></ele><time>2016-10-9T11:55:42Z</time></trkpt>
<trkpt lat="49.2777595520019531" lon="0.4361876249313354"><ele></ele><time>2016-10-9T11:55:45Z</time></trkpt>
<trkpt lat="49.2777137756347656" lon="0.4360360801219940"><ele></ele><time>2016-10-9T11:55:48Z</time></trkpt>
<trkpt lat="49.2776756286621094" lon="0.4358343183994293"><ele></ele><time>2016-10-9T11:55:51Z</time></trkpt>
<trkpt lat="49.2776451110839844" lon="0.4356632530689240"><ele></ele><time>2016-10-9T11:55:54Z</time></trkpt>
<trkpt lat="49.2776298522949219" lon="0.4354890584945679"><ele></ele><time>2016-10-9T11:55:57Z</time></trkpt>
<trkpt lat="49.2776184082031250" lon="0.4353512823581696"><ele></ele><time>2016-10-9T11:56:0Z</time></trkpt>
<trkpt lat="49.2775917053222656" lon="0.4352181553840637"><ele></ele><time>2016-10-9T11:56:3Z</time></trkpt>
<trkpt lat="49.2775230407714844" lon="0.4351157546043396"><ele></ele><time>2016-10-9T11:56:6Z</time></trkpt>
<trkpt lat="49.2773857116699219" lon="0.4350066184997559"><ele></ele><time>2016-10-9T11:56:9Z</time></trkpt>
<trkpt lat="49.2772941589355469" lon="0.4349150657653809"><ele></ele><time>2016-10-9T11:56:12Z</time></trkpt>
<trkpt lat="49.2772407531738281" lon="0.4347985684871674"><ele></ele><time>2016-10-9T11:56:15Z</time></trkpt>
<trkpt lat="49.2771377563476562" lon="0.4345555007457733"><ele></ele><time>2016-10-9T11:56:18Z</time></trkpt>
<trkpt lat="49.2770614624023438" lon="0.4344112575054169"><ele></ele><time>2016-10-9T11:56:21Z</time></trkpt>
<trkpt lat="49.2769622802734375" lon="0.4341975748538971"><ele></ele><time>2016-10-9T11:56:24Z</time></trkpt>
<trkpt lat="49.2769165039062500" lon="0.4340546727180481"><ele></ele><time>2016-10-9T11:56:27Z</time></trkpt>
<trkpt lat="49.2768707275390625" lon="0.4339028894901276"><ele></ele><time>2016-10-9T11:56:30Z</time></trkpt>
<trkpt lat="49.2768211364746094" lon="0.4337494075298309"><ele></ele><time>2016-10-9T11:56:33Z</time></trkpt>
<trkpt lat="49.2767562866210938" lon="0.4335250258445740"><ele></ele><time>2016-10-9T11:56:36Z</time></trkpt>
<trkpt lat="49.2767066955566406" lon="0.4333733916282654"><ele></ele><time>2016-10-9T11:56:39Z</time></trkpt>
<trkpt lat="49.2766456604003906" lon="0.4332199096679688"><ele></ele><time>2016-10-9T11:56:42Z</time></trkpt>
<trkpt lat="49.2765655517578125" lon="0.4329922795295715"><ele></ele><time>2016-10-9T11:56:45Z</time></trkpt>
<trkpt lat="49.2765007019042969" lon="0.4328441619873047"><ele></ele><time>2016-10-9T11:56:48Z</time></trkpt>
<trkpt lat="49.2764396667480469" lon="0.4326950609683990"><ele></ele><time>2016-10-9T11:56:51Z</time></trkpt>
<trkpt lat="49.2763481140136719" lon="0.4324600994586945"><ele></ele><time>2016-10-9T11:56:54Z</time></trkpt>
<trkpt lat="49.2763023376464844" lon="0.4323118329048157"><ele></ele><time>2016-10-9T11:56:57Z</time></trkpt>
<trkpt lat="49.2762336730957031" lon="0.4321497976779938"><ele></ele><time>2016-10-9T11:57:0Z</time></trkpt>
<trkpt lat="49.2761611938476562" lon="0.4319337308406830"><ele></ele><time>2016-10-9T11:57:3Z</time></trkpt>
<trkpt lat="49.2760696411132812" lon="0.4317200779914856"><ele></ele><time>2016-10-9T11:57:6Z</time></trkpt>
<trkpt lat="49.2760086059570312" lon="0.4315570294857025"><ele></ele><time>2016-10-9T11:57:9Z</time></trkpt>
<trkpt lat="49.2759017944335938" lon="0.4313310682773590"><ele></ele><time>2016-10-9T11:57:12Z</time></trkpt>
<trkpt lat="49.2757949829101562" lon="0.4311113655567169"><ele></ele><time>2016-10-9T11:57:15Z</time></trkpt>
<trkpt lat="49.2757072448730469" lon="0.4308677911758423"><ele></ele><time>2016-10-9T11:57:18Z</time></trkpt>
<trkpt lat="49.2755928039550781" lon="0.4306246340274811"><ele></ele><time>2016-10-9T11:57:21Z</time></trkpt>
<trkpt lat="49.2754898071289062" lon="0.4304272532463074"><ele></ele><time>2016-10-9T11:57:24Z</time></trkpt>
<trkpt lat="49.2754325866699219" lon="0.4302714169025421"><ele></ele><time>2016-10-9T11:57:27Z</time></trkpt>
<trkpt lat="49.2753181457519531" lon="0.4300425052642822"><ele></ele><time>2016-10-9T11:57:30Z</time></trkpt>
<trkpt lat="49.2751884460449219" lon="0.4298197329044342"><ele></ele><time>2016-10-9T11:57:33Z</time></trkpt>
<trkpt lat="49.2751274108886719" lon="0.4296260178089142"><ele></ele><time>2016-10-9T11:57:36Z</time></trkpt>
<trkpt lat="49.2750320434570312" lon="0.4293883144855499"><ele></ele><time>2016-10-9T11:57:39Z</time></trkpt>
<trkpt lat="49.2749595642089844" lon="0.4292358458042145"><ele></ele><time>2016-10-9T11:57:42Z</time></trkpt>
<trkpt lat="49.2748565673828125" lon="0.4290194213390350"><ele></ele><time>2016-10-9T11:57:45Z</time></trkpt>
<trkpt lat="49.2747917175292969" lon="0.4288779199123383"><ele></ele><time>2016-10-9T11:57:48Z</time></trkpt>
<trkpt lat="49.2747383117675781" lon="0.4287263154983521"><ele></ele><time>2016-10-9T11:57:51Z</time></trkpt>
<trkpt lat="49.2746200561523438" lon="0.4284667074680328"><ele></ele><time>2016-10-9T11:57:54Z</time></trkpt>
<trkpt lat="49.2745170593261719" lon="0.4282297492027283"><ele></ele><time>2016-10-9T11:57:57Z</time></trkpt>
<trkpt lat="49.2744102478027344" lon="0.4279689192771912"><ele></ele><time>2016-10-9T11:58:0Z</time></trkpt>
<trkpt lat="49.2742996215820312" lon="0.4277031123638153"><ele></ele><time>2016-10-9T11:58:3Z</time></trkpt>
<trkpt lat="49.2741966247558594" lon="0.4274591207504272"><ele></ele><time>2016-10-9T11:58:6Z</time></trkpt>
<trkpt lat="49.2740859985351562" lon="0.4272323846817017"><ele></ele><time>2016-10-9T11:58:9Z</time></trkpt>
<trkpt lat="49.2739791870117188" lon="0.4270161390304565"><ele></ele><time>2016-10-9T11:58:12Z</time></trkpt>
<trkpt lat="49.2738838195800781" lon="0.4267884194850922"><ele></ele><time>2016-10-9T11:58:15Z</time></trkpt>
<trkpt lat="49.2738075256347656" lon="0.4265495240688324"><ele></ele><time>2016-10-9T11:58:18Z</time></trkpt>
<trkpt lat="49.2737121582031250" lon="0.4263371229171753"><ele></ele><time>2016-10-9T11:58:21Z</time></trkpt>
<trkpt lat="49.2736320495605469" lon="0.4261108934879303"><ele></ele><time>2016-10-9T11:58:24Z</time></trkpt>
<trkpt lat="49.2735557556152344" lon="0.4259786307811737"><ele></ele><time>2016-10-9T11:58:27Z</time></trkpt>
<trkpt lat="49.2734870910644531" lon="0.4258590340614319"><ele></ele><time>2016-10-9T11:58:30Z</time></trkpt>
<trkpt lat="49.2734260559082031" lon="0.4256951510906219"><ele></ele><time>2016-10-9T11:58:33Z</time></trkpt>
<trkpt lat="49.2733383178710938" lon="0.4254795610904694"><ele></ele><time>2016-10-9T11:58:36Z</time></trkpt>
<trkpt lat="49.2732810974121094" lon="0.4253504872322083"><ele></ele><time>2016-10-9T11:58:39Z</time></trkpt>
<trkpt lat="49.2731895446777344" lon="0.4251107573509216"><ele></ele><time>2016-10-9T11:58:42Z</time></trkpt>
<trkpt lat="49.2730674743652344" lon="0.4248762428760529"><ele></ele><time>2016-10-9T11:58:45Z</time></trkpt>
<trkpt lat="49.2730178833007812" lon="0.4247322380542755"><ele></ele><time>2016-10-9T11:58:48Z</time></trkpt>
<trkpt lat="49.2729187011718750" lon="0.4245031774044037"><ele></ele><time>2016-10-9T11:58:51Z</time></trkpt>
<trkpt lat="49.2728462219238281" lon="0.4243580698966980"><ele></ele><time>2016-10-9T11:58:54Z</time></trkpt>
<trkpt lat="49.2727584838867188" lon="0.4241360425949097"><ele></ele><time>2016-10-9T11:58:57Z</time></trkpt>
<trkpt lat="49.2726898193359375" lon="0.4239818155765533"><ele></ele><time>2016-10-9T11:59:0Z</time></trkpt>
<trkpt lat="49.2726287841796875" lon="0.4238349497318268"><ele></ele><time>2016-10-9T11:59:3Z</time></trkpt>
<trkpt lat="49.2725410461425781" lon="0.4236380755901337"><ele></ele><time>2016-10-9T11:59:6Z</time></trkpt>
<trkpt lat="49.2724838256835938" lon="0.4234916269779205"><ele></ele><time>2016-10-9T11:59:9Z</time></trkpt>
<trkpt lat="49.2723808288574219" lon="0.4233191311359406"><ele></ele><time>2016-10-9T11:59:12Z</time></trkpt>
<trkpt lat="49.2722930908203125" lon="0.4230999350547791"><ele></ele><time>2016-10-9T11:59:15Z</time></trkpt>
<trkpt lat="49.2722129821777344" lon="0.4228523373603821"><ele></ele><time>2016-10-9T11:59:18Z</time></trkpt>
<trkpt lat="49.2721214294433594" lon="0.4226447343826294"><ele></ele><time>2016-10-9T11:59:21Z</time></trkpt>
<trkpt lat="49.2720603942871094" lon="0.4225001335144043"><ele></ele><time>2016-10-9T11:59:24Z</time></trkpt>
<trkpt lat="49.2720031738281250" lon="0.4223690330982208"><ele></ele><time>2016-10-9T11:59:27Z</time></trkpt>
<trkpt lat="49.2719078063964844" lon="0.4221699833869934"><ele></ele><time>2016-10-9T11:59:30Z</time></trkpt>
<trkpt lat="49.2718544006347656" lon="0.4220057725906372"><ele></ele><time>2016-10-9T11:59:33Z</time></trkpt>
<trkpt lat="49.2717666625976562" lon="0.4217972457408905"><ele></ele><time>2016-10-9T11:59:36Z</time></trkpt>
<trkpt lat="49.2717132568359375" lon="0.4216912984848022"><ele></ele><time>2016-10-9T11:59:39Z</time></trkpt>
<trkpt lat="49.2716331481933594" lon="0.4215041995048523"><ele></ele><time>2016-10-9T11:59:42Z</time></trkpt>
<trkpt lat="49.2715797424316406" lon="0.4213488996028900"><ele></ele><time>2016-10-9T11:59:45Z</time></trkpt>
<trkpt lat="49.2714805603027344" lon="0.4211459457874298"><ele></ele><time>2016-10-9T11:59:48Z</time></trkpt>
<trkpt lat="49.2713890075683594" lon="0.4209522604942322"><ele></ele><time>2016-10-9T11:59:51Z</time></trkpt>
<trkpt lat="49.2713203430175781" lon="0.4208084940910339"><ele></ele><time>2016-10-9T11:59:54Z</time></trkpt>
<trkpt lat="49.2712211608886719" lon="0.4205935001373291"><ele></ele><time>2016-10-9T11:59:57Z</time></trkpt>
<trkpt lat="49.2711639404296875" lon="0.4204574823379517"><ele></ele><time>2016-10-9T12:0:0Z</time></trkpt>
<trkpt lat="49.2710990905761719" lon="0.4202642738819122"><ele></ele><time>2016-10-9T12:0:3Z</time></trkpt>
<trkpt lat="49.2709960937500000" lon="0.4199957847595215"><ele></ele><time>2016-10-9T12:0:6Z</time></trkpt>
<trkpt lat="49.2708892822265625" lon="0.4197054505348206"><ele></ele><time>2016-10-9T12:0:9Z</time></trkpt>
<trkpt lat="49.2708015441894531" lon="0.4195403158664703"><ele></ele><time>2016-10-9T12:0:12Z</time></trkpt>
<trkpt lat="49.2706947326660156" lon="0.4193133413791656"><ele></ele><time>2016-10-9T12:0:15Z</time></trkpt>
<trkpt lat="49.2706260681152344" lon="0.4191664159297943"><ele></ele><time>2016-10-9T12:0:18Z</time></trkpt>
<trkpt lat="49.2705383300781250" lon="0.4189406037330627"><ele></ele><time>2016-10-9T12:0:21Z</time></trkpt>
<trkpt lat="49.2704391479492188" lon="0.4187253415584564"><ele></ele><time>2016-10-9T12:0:24Z</time></trkpt>
<trkpt lat="49.2703399658203125" lon="0.4185032248497009"><ele></ele><time>2016-10-9T12:0:27Z</time></trkpt>
<trkpt lat="49.2702713012695312" lon="0.4183638393878937"><ele></ele><time>2016-10-9T12:0:30Z</time></trkpt>
<trkpt lat="49.2701759338378906" lon="0.4181350171566010"><ele></ele><time>2016-10-9T12:0:33Z</time></trkpt>
<trkpt lat="49.2701110839843750" lon="0.4179898500442505"><ele></ele><time>2016-10-9T12:0:36Z</time></trkpt>
<trkpt lat="49.2700576782226562" lon="0.4178490936756134"><ele></ele><time>2016-10-9T12:0:39Z</time></trkpt>
<trkpt lat="49.2699966430664062" lon="0.4176599383354187"><ele></ele><time>2016-10-9T12:0:42Z</time></trkpt>
<trkpt lat="49.2699356079101562" lon="0.4175187647342682"><ele></ele><time>2016-10-9T12:0:45Z</time></trkpt>
<trkpt lat="49.2698402404785156" lon="0.4173238873481750"><ele></ele><time>2016-10-9T12:0:48Z</time></trkpt>
<trkpt lat="49.2697830200195312" lon="0.4171707630157471"><ele></ele><time>2016-10-9T12:0:51Z</time></trkpt>
<trkpt lat="49.2696990966796875" lon="0.4169523119926453"><ele></ele><time>2016-10-9T12:0:54Z</time></trkpt>
<trkpt lat="49.2696495056152344" lon="0.4168338775634766"><ele></ele><time>2016-10-9T12:0:57Z</time></trkpt>
<trkpt lat="49.2695617675781250" lon="0.4166439473628998"><ele></ele><time>2016-10-9T12:1:0Z</time></trkpt>
<trkpt lat="49.2695121765136719" lon="0.4164993762969971"><ele></ele><time>2016-10-9T12:1:3Z</time></trkpt>
<trkpt lat="49.2694320678710938" lon="0.4163266122341156"><ele></ele><time>2016-10-9T12:1:6Z</time></trkpt>
<trkpt lat="49.2693824768066406" lon="0.4161765873432159"><ele></ele><time>2016-10-9T12:1:9Z</time></trkpt>
<trkpt lat="49.2693252563476562" lon="0.4160438179969788"><ele></ele><time>2016-10-9T12:1:12Z</time></trkpt>
<trkpt lat="49.2692298889160156" lon="0.4158864915370941"><ele></ele><time>2016-10-9T12:1:15Z</time></trkpt>
<trkpt lat="49.2691688537597656" lon="0.4157660305500031"><ele></ele><time>2016-10-9T12:1:18Z</time></trkpt>
<trkpt lat="49.2690811157226562" lon="0.4155781865119934"><ele></ele><time>2016-10-9T12:1:21Z</time></trkpt>
<trkpt lat="49.2689857482910156" lon="0.4153426587581635"><ele></ele><time>2016-10-9T12:1:24Z</time></trkpt>
<trkpt lat="49.2688789367675781" lon="0.4151360392570496"><ele></ele><time>2016-10-9T12:1:27Z</time></trkpt>
<trkpt lat="49.2688026428222656" lon="0.4149289429187775"><ele></ele><time>2016-10-9T12:1:30Z</time></trkpt>
<trkpt lat="49.2687416076660156" lon="0.4147923886775970"><ele></ele><time>2016-10-9T12:1:33Z</time></trkpt>
<trkpt lat="49.2686500549316406" lon="0.4145542681217194"><ele></ele><time>2016-10-9T12:1:36Z</time></trkpt>
<trkpt lat="49.2685813903808594" lon="0.4143973588943481"><ele></ele><time>2016-10-9T12:1:39Z</time></trkpt>
<trkpt lat="49.2684974670410156" lon="0.4141998887062073"><ele></ele><time>2016-10-9T12:1:42Z</time></trkpt>
<trkpt lat="49.2684059143066406" lon="0.4139615893363953"><ele></ele><time>2016-10-9T12:1:45Z</time></trkpt>
<trkpt lat="49.2683029174804688" lon="0.4137557148933411"><ele></ele><time>2016-10-9T12:1:48Z</time></trkpt>
<trkpt lat="49.2682266235351562" lon="0.4135804474353790"><ele></ele><time>2016-10-9T12:1:51Z</time></trkpt>
<trkpt lat="49.2681274414062500" lon="0.4133435785770416"><ele></ele><time>2016-10-9T12:1:54Z</time></trkpt>
<trkpt lat="49.2680397033691406" lon="0.4130953848361969"><ele></ele><time>2016-10-9T12:1:57Z</time></trkpt>
<trkpt lat="49.2679290771484375" lon="0.4128765463829041"><ele></ele><time>2016-10-9T12:2:0Z</time></trkpt>
<trkpt lat="49.2678298950195312" lon="0.4126448631286621"><ele></ele><time>2016-10-9T12:2:3Z</time></trkpt>
<trkpt lat="49.2677307128906250" lon="0.4124203026294708"><ele></ele><time>2016-10-9T12:2:6Z</time></trkpt>
<trkpt lat="49.2676239013671875" lon="0.4121875464916229"><ele></ele><time>2016-10-9T12:2:9Z</time></trkpt>
<trkpt lat="49.2675514221191406" lon="0.4120164811611176"><ele></ele><time>2016-10-9T12:2:12Z</time></trkpt>
<trkpt lat="49.2674255371093750" lon="0.4117370247840881"><ele></ele><time>2016-10-9T12:2:15Z</time></trkpt>
<trkpt lat="49.2673263549804688" lon="0.4114746749401093"><ele></ele><time>2016-10-9T12:2:18Z</time></trkpt>
<trkpt lat="49.2672576904296875" lon="0.4113442599773407"><ele></ele><time>2016-10-9T12:2:21Z</time></trkpt>
<trkpt lat="49.2671508789062500" lon="0.4111077189445496"><ele></ele><time>2016-10-9T12:2:24Z</time></trkpt>
<trkpt lat="49.2671012878417969" lon="0.4109563231468201"><ele></ele><time>2016-10-9T12:2:27Z</time></trkpt>
<trkpt lat="49.2670021057128906" lon="0.4107268452644348"><ele></ele><time>2016-10-9T12:2:30Z</time></trkpt>
<trkpt lat="49.2669296264648438" lon="0.4105674028396606"><ele></ele><time>2016-10-9T12:2:33Z</time></trkpt>
<trkpt lat="49.2668228149414062" lon="0.4103446304798126"><ele></ele><time>2016-10-9T12:2:36Z</time></trkpt>
<trkpt lat="49.2667541503906250" lon="0.4101779758930206"><ele></ele><time>2016-10-9T12:2:39Z</time></trkpt>
<trkpt lat="49.2666511535644531" lon="0.4099640846252441"><ele></ele><time>2016-10-9T12:2:42Z</time></trkpt>
<trkpt lat="49.2665863037109375" lon="0.4098164737224579"><ele></ele><time>2016-10-9T12:2:45Z</time></trkpt>
<trkpt lat="49.2665367126464844" lon="0.4096731543540955"><ele></ele><time>2016-10-9T12:2:48Z</time></trkpt>
<trkpt lat="49.2664489746093750" lon="0.4094739854335785"><ele></ele><time>2016-10-9T12:2:51Z</time></trkpt>
<trkpt lat="49.2663574218750000" lon="0.4092461764812469"><ele></ele><time>2016-10-9T12:2:54Z</time></trkpt>
<trkpt lat="49.2662582397460938" lon="0.4090131521224976"><ele></ele><time>2016-10-9T12:2:57Z</time></trkpt>
<trkpt lat="49.2661972045898438" lon="0.4088427424430847"><ele></ele><time>2016-10-9T12:3:0Z</time></trkpt>
<trkpt lat="49.2661132812500000" lon="0.4086058735847473"><ele></ele><time>2016-10-9T12:3:3Z</time></trkpt>
<trkpt lat="49.2660331726074219" lon="0.4083451032638550"><ele></ele><time>2016-10-9T12:3:6Z</time></trkpt>
<trkpt lat="49.2660064697265625" lon="0.4081867933273315"><ele></ele><time>2016-10-9T12:3:9Z</time></trkpt>
<trkpt lat="49.2659492492675781" lon="0.4079781472682953"><ele></ele><time>2016-10-9T12:3:12Z</time></trkpt>
<trkpt lat="49.2659111022949219" lon="0.4077936708927155"><ele></ele><time>2016-10-9T12:3:15Z</time></trkpt>
<trkpt lat="49.2658348083496094" lon="0.4076013863086700"><ele></ele><time>2016-10-9T12:3:18Z</time></trkpt>
<trkpt lat="49.2657470703125000" lon="0.4074502587318420"><ele></ele><time>2016-10-9T12:3:21Z</time></trkpt>
<trkpt lat="49.2656745910644531" lon="0.4071402251720428"><ele></ele><time>2016-10-9T12:3:24Z</time></trkpt>
<trkpt lat="49.2656211853027344" lon="0.4069391489028931"><ele></ele><time>2016-10-9T12:3:27Z</time></trkpt>
<trkpt lat="49.2655296325683594" lon="0.4065705835819244"><ele></ele><time>2016-10-9T12:3:30Z</time></trkpt>
<trkpt lat="49.2654571533203125" lon="0.4062038064002991"><ele></ele><time>2016-10-9T12:3:33Z</time></trkpt>
<trkpt lat="49.2654418945312500" lon="0.4057831168174744"><ele></ele><time>2016-10-9T12:3:36Z</time></trkpt>
<trkpt lat="49.2653884887695312" lon="0.4053025841712952"><ele></ele><time>2016-10-9T12:3:39Z</time></trkpt>
<trkpt lat="49.2653884887695312" lon="0.4050274789333344"><ele></ele><time>2016-10-9T12:3:42Z</time></trkpt>
<trkpt lat="49.2653083801269531" lon="0.4046425819396973"><ele></ele><time>2016-10-9T12:3:45Z</time></trkpt>
<trkpt lat="49.2652282714843750" lon="0.4042035341262817"><ele></ele><time>2016-10-9T12:3:48Z</time></trkpt>
<trkpt lat="49.2652091979980469" lon="0.4039586186408997"><ele></ele><time>2016-10-9T12:3:51Z</time></trkpt>
<trkpt lat="49.2651252746582031" lon="0.4032565355300903"><ele></ele><time>2016-10-9T12:3:54Z</time></trkpt>
<trkpt lat="49.2650718688964844" lon="0.4028749167919159"><ele></ele><time>2016-10-9T12:3:57Z</time></trkpt>
<trkpt lat="49.2650108337402344" lon="0.4023590981960297"><ele></ele><time>2016-10-9T12:4:0Z</time></trkpt>
<trkpt lat="49.2648735046386719" lon="0.4019913971424103"><ele></ele><time>2016-10-9T12:4:3Z</time></trkpt>
<trkpt lat="49.2647094726562500" lon="0.4014322161674500"><ele></ele><time>2016-10-9T12:4:6Z</time></trkpt>
<trkpt lat="49.2645797729492188" lon="0.4009068608283997"><ele></ele><time>2016-10-9T12:4:9Z</time></trkpt>
<trkpt lat="49.2645072937011719" lon="0.4005638659000397"><ele></ele><time>2016-10-9T12:4:12Z</time></trkpt>
<trkpt lat="49.2644348144531250" lon="0.4001798927783966"><ele></ele><time>2016-10-9T12:4:15Z</time></trkpt>
<trkpt lat="49.2644119262695312" lon="0.3997899591922760"><ele></ele><time>2016-10-9T12:4:18Z</time></trkpt>
<trkpt lat="49.2643241882324219" lon="0.3992244303226471"><ele></ele><time>2016-10-9T12:4:21Z</time></trkpt>
<trkpt lat="49.2642593383789062" lon="0.3988724648952484"><ele></ele><time>2016-10-9T12:4:24Z</time></trkpt>
<trkpt lat="49.2641677856445312" lon="0.3983380496501923"><ele></ele><time>2016-10-9T12:4:27Z</time></trkpt>
<trkpt lat="49.2640647888183594" lon="0.3977952301502228"><ele></ele><time>2016-10-9T12:4:30Z</time></trkpt>
<trkpt lat="49.2640304565429688" lon="0.3972552716732025"><ele></ele><time>2016-10-9T12:4:33Z</time></trkpt>
<trkpt lat="49.2639770507812500" lon="0.3967024981975555"><ele></ele><time>2016-10-9T12:4:36Z</time></trkpt>
<trkpt lat="49.2639694213867188" lon="0.3961898386478424"><ele></ele><time>2016-10-9T12:4:39Z</time></trkpt>
<trkpt lat="49.2639694213867188" lon="0.3958182930946350"><ele></ele><time>2016-10-9T12:4:42Z</time></trkpt>
<trkpt lat="49.2639656066894531" lon="0.3952321410179138"><ele></ele><time>2016-10-9T12:4:45Z</time></trkpt>
<trkpt lat="49.2639350891113281" lon="0.3948703706264496"><ele></ele><time>2016-10-9T12:4:48Z</time></trkpt>
<trkpt lat="49.2638931274414062" lon="0.3944993913173676"><ele></ele><time>2016-10-9T12:4:51Z</time></trkpt>
<trkpt lat="49.2638320922851562" lon="0.3941322565078735"><ele></ele><time>2016-10-9T12:4:54Z</time></trkpt>
<trkpt lat="49.2637367248535156" lon="0.3935980796813965"><ele></ele><time>2016-10-9T12:4:57Z</time></trkpt>
<trkpt lat="49.2636756896972656" lon="0.3932549357414246"><ele></ele><time>2016-10-9T12:5:0Z</time></trkpt>
<trkpt lat="49.2635536193847656" lon="0.3927280306816101"><ele></ele><time>2016-10-9T12:5:3Z</time></trkpt>
<trkpt lat="49.2634277343750000" lon="0.3922273814678192"><ele></ele><time>2016-10-9T12:5:6Z</time></trkpt>
<trkpt lat="49.2633361816406250" lon="0.3918696343898773"><ele></ele><time>2016-10-9T12:5:9Z</time></trkpt>
<trkpt lat="49.2632141113281250" lon="0.3913462758064270"><ele></ele><time>2016-10-9T12:5:12Z</time></trkpt>
<trkpt lat="49.2630882263183594" lon="0.3908703625202179"><ele></ele><time>2016-10-9T12:5:15Z</time></trkpt>
<trkpt lat="49.2629394531250000" lon="0.3904355168342590"><ele></ele><time>2016-10-9T12:5:18Z</time></trkpt>
<trkpt lat="49.2627677917480469" lon="0.3900091946125031"><ele></ele><time>2016-10-9T12:5:21Z</time></trkpt>
<trkpt lat="49.2625236511230469" lon="0.3895444273948669"><ele></ele><time>2016-10-9T12:5:24Z</time></trkpt>
<trkpt lat="49.2623062133789062" lon="0.3890237510204315"><ele></ele><time>2016-10-9T12:5:27Z</time></trkpt>
<trkpt lat="49.2620468139648438" lon="0.3886642456054688"><ele></ele><time>2016-10-9T12:5:30Z</time></trkpt>
<trkpt lat="49.2618560791015625" lon="0.3884299695491791"><ele></ele><time>2016-10-9T12:5:33Z</time></trkpt>
<trkpt lat="49.2616462707519531" lon="0.3882328271865845"><ele></ele><time>2016-10-9T12:5:36Z</time></trkpt>
<trkpt lat="49.2614707946777344" lon="0.3879940211772919"><ele></ele><time>2016-10-9T12:5:39Z</time></trkpt>
<trkpt lat="49.2611923217773438" lon="0.3875919580459595"><ele></ele><time>2016-10-9T12:5:42Z</time></trkpt>
<trkpt lat="49.2610130310058594" lon="0.3873116672039032"><ele></ele><time>2016-10-9T12:5:45Z</time></trkpt>
<trkpt lat="49.2608642578125000" lon="0.3869994282722473"><ele></ele><time>2016-10-9T12:5:48Z</time></trkpt>
<trkpt lat="49.2606582641601562" lon="0.3865450322628021"><ele></ele><time>2016-10-9T12:5:51Z</time></trkpt>
<trkpt lat="49.2605171203613281" lon="0.3862589001655579"><ele></ele><time>2016-10-9T12:5:54Z</time></trkpt>
<trkpt lat="49.2603225708007812" lon="0.3857050836086273"><ele></ele><time>2016-10-9T12:5:57Z</time></trkpt>
<trkpt lat="49.2601165771484375" lon="0.3852039277553558"><ele></ele><time>2016-10-9T12:6:0Z</time></trkpt>
<trkpt lat="49.2599487304687500" lon="0.3849088251590729"><ele></ele><time>2016-10-9T12:6:3Z</time></trkpt>
<trkpt lat="49.2597427368164062" lon="0.3844490647315979"><ele></ele><time>2016-10-9T12:6:6Z</time></trkpt>
<trkpt lat="49.2595214843750000" lon="0.3840076029300690"><ele></ele><time>2016-10-9T12:6:9Z</time></trkpt>
<trkpt lat="49.2593879699707031" lon="0.3837334215641022"><ele></ele><time>2016-10-9T12:6:12Z</time></trkpt>
<trkpt lat="49.2591514587402344" lon="0.3834442496299744"><ele></ele><time>2016-10-9T12:6:15Z</time></trkpt>
<trkpt lat="49.2588958740234375" lon="0.3831786215305328"><ele></ele><time>2016-10-9T12:6:18Z</time></trkpt>
<trkpt lat="49.2587127685546875" lon="0.3830353617668152"><ele></ele><time>2016-10-9T12:6:21Z</time></trkpt>
<trkpt lat="49.2585067749023438" lon="0.3828243911266327"><ele></ele><time>2016-10-9T12:6:24Z</time></trkpt>
<trkpt lat="49.2583084106445312" lon="0.3826177120208740"><ele></ele><time>2016-10-9T12:6:27Z</time></trkpt>
<trkpt lat="49.2581024169921875" lon="0.3824577629566193"><ele></ele><time>2016-10-9T12:6:30Z</time></trkpt>
<trkpt lat="49.2579841613769531" lon="0.3823451101779938"><ele></ele><time>2016-10-9T12:6:33Z</time></trkpt>
<trkpt lat="49.2578849792480469" lon="0.3822822570800781"><ele></ele><time>2016-10-9T12:6:36Z</time></trkpt>
<trkpt lat="49.2576980590820312" lon="0.3821395039558411"><ele></ele><time>2016-10-9T12:6:39Z</time></trkpt>
<trkpt lat="49.2575263977050781" lon="0.3819982707500458"><ele></ele><time>2016-10-9T12:6:42Z</time></trkpt>
<trkpt lat="49.2573738098144531" lon="0.3818897306919098"><ele></ele><time>2016-10-9T12:6:45Z</time></trkpt>
<trkpt lat="49.2572784423828125" lon="0.3817808628082275"><ele></ele><time>2016-10-9T12:6:48Z</time></trkpt>
<trkpt lat="49.2571830749511719" lon="0.3817028999328613"><ele></ele><time>2016-10-9T12:6:51Z</time></trkpt>
<trkpt lat="49.2570381164550781" lon="0.3815556466579437"><ele></ele><time>2016-10-9T12:6:54Z</time></trkpt>
<trkpt lat="49.2569274902343750" lon="0.3814685344696045"><ele></ele><time>2016-10-9T12:6:57Z</time></trkpt>
<trkpt lat="49.2567596435546875" lon="0.3813882470130920"><ele></ele><time>2016-10-9T12:7:0Z</time></trkpt>
<trkpt lat="49.2566871643066406" lon="0.3813420534133911"><ele></ele><time>2016-10-9T12:7:3Z</time></trkpt>
<trkpt lat="49.2565307617187500" lon="0.3812561333179474"><ele></ele><time>2016-10-9T12:7:6Z</time></trkpt>
<trkpt lat="49.2563743591308594" lon="0.3810572326183319"><ele></ele><time>2016-10-9T12:7:9Z</time></trkpt>
<trkpt lat="49.2562828063964844" lon="0.3809987306594849"><ele></ele><time>2016-10-9T12:7:12Z</time></trkpt>
<trkpt lat="49.2560958862304688" lon="0.3809347748756409"><ele></ele><time>2016-10-9T12:7:15Z</time></trkpt>
<trkpt lat="49.2559471130371094" lon="0.3808450102806091"><ele></ele><time>2016-10-9T12:7:18Z</time></trkpt>
<trkpt lat="49.2558250427246094" lon="0.3806914687156677"><ele></ele><time>2016-10-9T12:7:21Z</time></trkpt>
<trkpt lat="49.2557258605957031" lon="0.3806156814098358"><ele></ele><time>2016-10-9T12:7:24Z</time></trkpt>
<trkpt lat="49.2556266784667969" lon="0.3805371522903442"><ele></ele><time>2016-10-9T12:7:27Z</time></trkpt>
<trkpt lat="49.2554817199707031" lon="0.3803939819335938"><ele></ele><time>2016-10-9T12:7:30Z</time></trkpt>
<trkpt lat="49.2553634643554688" lon="0.3802446126937866"><ele></ele><time>2016-10-9T12:7:33Z</time></trkpt>
<trkpt lat="49.2552490234375000" lon="0.3801994323730469"><ele></ele><time>2016-10-9T12:7:36Z</time></trkpt>
<trkpt lat="49.2551460266113281" lon="0.3800929188728333"><ele></ele><time>2016-10-9T12:7:39Z</time></trkpt>
<trkpt lat="49.2550125122070312" lon="0.3798616528511047"><ele></ele><time>2016-10-9T12:7:42Z</time></trkpt>
<trkpt lat="49.2548637390136719" lon="0.3797208368778229"><ele></ele><time>2016-10-9T12:7:45Z</time></trkpt>
<trkpt lat="49.2547683715820312" lon="0.3796652555465698"><ele></ele><time>2016-10-9T12:7:48Z</time></trkpt>
<trkpt lat="49.2546653747558594" lon="0.3795595765113831"><ele></ele><time>2016-10-9T12:7:51Z</time></trkpt>
<trkpt lat="49.2545089721679688" lon="0.3794335722923279"><ele></ele><time>2016-10-9T12:7:54Z</time></trkpt>
<trkpt lat="49.2543525695800781" lon="0.3792855739593506"><ele></ele><time>2016-10-9T12:7:57Z</time></trkpt>
<trkpt lat="49.2541999816894531" lon="0.3791658580303192"><ele></ele><time>2016-10-9T12:8:0Z</time></trkpt>
<trkpt lat="49.2540931701660156" lon="0.3790553212165833"><ele></ele><time>2016-10-9T12:8:3Z</time></trkpt>
<trkpt lat="49.2539253234863281" lon="0.3789970576763153"><ele></ele><time>2016-10-9T12:8:6Z</time></trkpt>
<trkpt lat="49.2538299560546875" lon="0.3789543807506561"><ele></ele><time>2016-10-9T12:8:9Z</time></trkpt>
<trkpt lat="49.2536735534667969" lon="0.3788609206676483"><ele></ele><time>2016-10-9T12:8:12Z</time></trkpt>
<trkpt lat="49.2535209655761719" lon="0.3787391483783722"><ele></ele><time>2016-10-9T12:8:15Z</time></trkpt>
<trkpt lat="49.2533798217773438" lon="0.3786108195781708"><ele></ele><time>2016-10-9T12:8:18Z</time></trkpt>
<trkpt lat="49.2532157897949219" lon="0.3784871101379395"><ele></ele><time>2016-10-9T12:8:21Z</time></trkpt>
<trkpt lat="49.2530822753906250" lon="0.3783825933933258"><ele></ele><time>2016-10-9T12:8:24Z</time></trkpt>
<trkpt lat="49.2529296875000000" lon="0.3782655596733093"><ele></ele><time>2016-10-9T12:8:27Z</time></trkpt>
<trkpt lat="49.2527656555175781" lon="0.3781239986419678"><ele></ele><time>2016-10-9T12:8:30Z</time></trkpt>
<trkpt lat="49.2526092529296875" lon="0.3779904842376709"><ele></ele><time>2016-10-9T12:8:33Z</time></trkpt>
<trkpt lat="49.2524299621582031" lon="0.3779006898403168"><ele></ele><time>2016-10-9T12:8:36Z</time></trkpt>
<trkpt lat="49.2522773742675781" lon="0.3777970075607300"><ele></ele><time>2016-10-9T12:8:39Z</time></trkpt>
<trkpt lat="49.2521095275878906" lon="0.3776695430278778"><ele></ele><time>2016-10-9T12:8:42Z</time></trkpt>
<trkpt lat="49.2519226074218750" lon="0.3775390982627869"><ele></ele><time>2016-10-9T12:8:45Z</time></trkpt>
<trkpt lat="49.2517852783203125" lon="0.3773266971111298"><ele></ele><time>2016-10-9T12:8:48Z</time></trkpt>
<trkpt lat="49.2516899108886719" lon="0.3773045837879181"><ele></ele><time>2016-10-9T12:8:51Z</time></trkpt>
<trkpt lat="49.2515373229980469" lon="0.3771558105945587"><ele></ele><time>2016-10-9T12:8:54Z</time></trkpt>
<trkpt lat="49.2514152526855469" lon="0.3770812749862671"><ele></ele><time>2016-10-9T12:8:57Z</time></trkpt>
<trkpt lat="49.2512550354003906" lon="0.3768873214721680"><ele></ele><time>2016-10-9T12:9:0Z</time></trkpt>
<trkpt lat="49.2511367797851562" lon="0.3767587542533875"><ele></ele><time>2016-10-9T12:9:3Z</time></trkpt>
<trkpt lat="49.2510528564453125" lon="0.3766759335994720"><ele></ele><time>2016-10-9T12:9:6Z</time></trkpt>
<trkpt lat="49.2510147094726562" lon="0.3765689730644226"><ele></ele><time>2016-10-9T12:9:9Z</time></trkpt>
<trkpt lat="49.2510375976562500" lon="0.3765371441841125"><ele></ele><time>2016-10-9T12:9:12Z</time></trkpt>
<trkpt lat="49.2507820129394531" lon="0.3764404952526093"><ele></ele><time>2016-10-9T12:9:15Z</time></trkpt>
<trkpt lat="49.2506027221679688" lon="0.3764024376869202"><ele></ele><time>2016-10-9T12:9:18Z</time></trkpt>
<trkpt lat="49.2504081726074219" lon="0.3764054477214813"><ele></ele><time>2016-10-9T12:9:21Z</time></trkpt>
<trkpt lat="49.2502326965332031" lon="0.3763932287693024"><ele></ele><time>2016-10-9T12:9:24Z</time></trkpt>
<trkpt lat="49.2500419616699219" lon="0.3763568401336670"><ele></ele><time>2016-10-9T12:9:27Z</time></trkpt>
<trkpt lat="49.2498970031738281" lon="0.3763756155967712"><ele></ele><time>2016-10-9T12:9:30Z</time></trkpt>
<trkpt lat="49.2497100830078125" lon="0.3763606250286102"><ele></ele><time>2016-10-9T12:9:33Z</time></trkpt>
<trkpt lat="49.2495155334472656" lon="0.3763375580310822"><ele></ele><time>2016-10-9T12:9:36Z</time></trkpt>
<trkpt lat="49.2493209838867188" lon="0.3763248920440674"><ele></ele><time>2016-10-9T12:9:39Z</time></trkpt>
<trkpt lat="49.2491188049316406" lon="0.3763673305511475"><ele></ele><time>2016-10-9T12:9:42Z</time></trkpt>
<trkpt lat="49.2489242553710938" lon="0.3764181137084961"><ele></ele><time>2016-10-9T12:9:45Z</time></trkpt>
<trkpt lat="49.2488021850585938" lon="0.3764653801918030"><ele></ele><time>2016-10-9T12:9:48Z</time></trkpt>
<trkpt lat="49.2486724853515625" lon="0.3764799833297729"><ele></ele><time>2016-10-9T12:9:51Z</time></trkpt>
<trkpt lat="49.2485160827636719" lon="0.3766269981861115"><ele></ele><time>2016-10-9T12:9:54Z</time></trkpt>
<trkpt lat="49.2483444213867188" lon="0.3767119050025940"><ele></ele><time>2016-10-9T12:9:57Z</time></trkpt>
<trkpt lat="49.2479209899902344" lon="0.3769573271274567"><ele></ele><time>2016-10-9T12:10:0Z</time></trkpt>
<trkpt lat="49.2478561401367188" lon="0.3770356178283691"><ele></ele><time>2016-10-9T12:10:3Z</time></trkpt>
<trkpt lat="49.2477874755859375" lon="0.3771634399890900"><ele></ele><time>2016-10-9T12:10:6Z</time></trkpt>
<trkpt lat="49.2476158142089844" lon="0.3773111104965210"><ele></ele><time>2016-10-9T12:10:9Z</time></trkpt>
<trkpt lat="49.2475471496582031" lon="0.3774345815181732"><ele></ele><time>2016-10-9T12:10:12Z</time></trkpt>
<trkpt lat="49.2474670410156250" lon="0.3776406049728394"><ele></ele><time>2016-10-9T12:10:15Z</time></trkpt>
<trkpt lat="49.2473983764648438" lon="0.3777963519096375"><ele></ele><time>2016-10-9T12:10:18Z</time></trkpt>
<trkpt lat="49.2473258972167969" lon="0.3779664039611816"><ele></ele><time>2016-10-9T12:10:21Z</time></trkpt>
<trkpt lat="49.2472534179687500" lon="0.3780746161937714"><ele></ele><time>2016-10-9T12:10:24Z</time></trkpt>
<trkpt lat="49.2471694946289062" lon="0.3782232403755188"><ele></ele><time>2016-10-9T12:10:27Z</time></trkpt>
<trkpt lat="49.2471046447753906" lon="0.3784038722515106"><ele></ele><time>2016-10-9T12:10:30Z</time></trkpt>
<trkpt lat="49.2470588684082031" lon="0.3785125911235809"><ele></ele><time>2016-10-9T12:10:33Z</time></trkpt>
<trkpt lat="49.2469978332519531" lon="0.3786744475364685"><ele></ele><time>2016-10-9T12:10:36Z</time></trkpt>
<trkpt lat="49.2468757629394531" lon="0.3788250684738159"><ele></ele><time>2016-10-9T12:10:39Z</time></trkpt>
<trkpt lat="49.2468147277832031" lon="0.3789617717266083"><ele></ele><time>2016-10-9T12:10:42Z</time></trkpt>
<trkpt lat="49.2467689514160156" lon="0.3790893554687500"><ele></ele><time>2016-10-9T12:10:45Z</time></trkpt>
<trkpt lat="49.2467155456542969" lon="0.3792084455490112"><ele></ele><time>2016-10-9T12:10:48Z</time></trkpt>
<trkpt lat="49.2466545104980469" lon="0.3793944418430328"><ele></ele><time>2016-10-9T12:10:51Z</time></trkpt>
<trkpt lat="49.2466392517089844" lon="0.3795291483402252"><ele></ele><time>2016-10-9T12:10:54Z</time></trkpt>
<trkpt lat="49.2465744018554688" lon="0.3796319067478180"><ele></ele><time>2016-10-9T12:10:57Z</time></trkpt>
<trkpt lat="49.2464714050292969" lon="0.3798377513885498"><ele></ele><time>2016-10-9T12:11:0Z</time></trkpt>
<trkpt lat="49.2463378906250000" lon="0.3799364864826202"><ele></ele><time>2016-10-9T12:11:3Z</time></trkpt>
<trkpt lat="49.2462463378906250" lon="0.3799344003200531"><ele></ele><time>2016-10-9T12:11:6Z</time></trkpt>
<trkpt lat="49.2460556030273438" lon="0.3799224197864532"><ele></ele><time>2016-10-9T12:11:9Z</time></trkpt>
<trkpt lat="49.2459106445312500" lon="0.3799546062946320"><ele></ele><time>2016-10-9T12:11:12Z</time></trkpt>
<trkpt lat="49.2458229064941406" lon="0.3799738883972168"><ele></ele><time>2016-10-9T12:11:15Z</time></trkpt>
<trkpt lat="49.2457923889160156" lon="0.3799662590026855"><ele></ele><time>2016-10-9T12:11:18Z</time></trkpt>
<trkpt lat="49.2457160949707031" lon="0.3799786567687988"><ele></ele><time>2016-10-9T12:11:21Z</time></trkpt>
<trkpt lat="49.2455978393554688" lon="0.3799947500228882"><ele></ele><time>2016-10-9T12:11:24Z</time></trkpt>
<trkpt lat="49.2454948425292969" lon="0.3800026476383209"><ele></ele><time>2016-10-9T12:11:27Z</time></trkpt>
<trkpt lat="49.2453460693359375" lon="0.3800044655799866"><ele></ele><time>2016-10-9T12:11:30Z</time></trkpt>
<trkpt lat="49.2452125549316406" lon="0.3800262808799744"><ele></ele><time>2016-10-9T12:11:33Z</time></trkpt>
<trkpt lat="49.2450599670410156" lon="0.3800175487995148"><ele></ele><time>2016-10-9T12:11:36Z</time></trkpt>
<trkpt lat="49.2449493408203125" lon="0.3800365030765533"><ele></ele><time>2016-10-9T12:11:39Z</time></trkpt>
<trkpt lat="49.2448043823242188" lon="0.3800376653671265"><ele></ele><time>2016-10-9T12:11:42Z</time></trkpt>
<trkpt lat="49.2447052001953125" lon="0.3800364136695862"><ele></ele><time>2016-10-9T12:11:45Z</time></trkpt>
<trkpt lat="49.2445983886718750" lon="0.3800960779190063"><ele></ele><time>2016-10-9T12:11:48Z</time></trkpt>
<trkpt lat="49.2444534301757812" lon="0.3801015317440033"><ele></ele><time>2016-10-9T12:11:51Z</time></trkpt>
<trkpt lat="49.2442893981933594" lon="0.3801048994064331"><ele></ele><time>2016-10-9T12:11:54Z</time></trkpt>
<trkpt lat="49.2442054748535156" lon="0.3800603747367859"><ele></ele><time>2016-10-9T12:11:57Z</time></trkpt>
<trkpt lat="49.2440719604492188" lon="0.3800786435604095"><ele></ele><time>2016-10-9T12:12:0Z</time></trkpt>
<trkpt lat="49.2439727783203125" lon="0.3801094889640808"><ele></ele><time>2016-10-9T12:12:3Z</time></trkpt>
<trkpt lat="49.2438621520996094" lon="0.3801439404487610"><ele></ele><time>2016-10-9T12:12:6Z</time></trkpt>
<trkpt lat="49.2437629699707031" lon="0.3801195621490479"><ele></ele><time>2016-10-9T12:12:9Z</time></trkpt>
<trkpt lat="49.2436866760253906" lon="0.3801302015781403"><ele></ele><time>2016-10-9T12:12:12Z</time></trkpt>
<trkpt lat="49.2436103820800781" lon="0.3800557851791382"><ele></ele><time>2016-10-9T12:12:15Z</time></trkpt>
<trkpt lat="49.2434844970703125" lon="0.3800600469112396"><ele></ele><time>2016-10-9T12:12:18Z</time></trkpt>
<trkpt lat="49.2434158325195312" lon="0.3800643980503082"><ele></ele><time>2016-10-9T12:12:21Z</time></trkpt>
<trkpt lat="49.2433433532714844" lon="0.3800768852233887"><ele></ele><time>2016-10-9T12:12:24Z</time></trkpt>
<trkpt lat="49.2432403564453125" lon="0.3800951838493347"><ele></ele><time>2016-10-9T12:12:27Z</time></trkpt>
<trkpt lat="49.2431716918945312" lon="0.3801005482673645"><ele></ele><time>2016-10-9T12:12:30Z</time></trkpt>
<trkpt lat="49.2430572509765625" lon="0.3801089227199554"><ele></ele><time>2016-10-9T12:12:33Z</time></trkpt>
<trkpt lat="49.2429847717285156" lon="0.3801157772541046"><ele></ele><time>2016-10-9T12:12:36Z</time></trkpt>
<trkpt lat="49.2428703308105469" lon="0.3801203072071075"><ele></ele><time>2016-10-9T12:12:39Z</time></trkpt>
<trkpt lat="49.2427673339843750" lon="0.3801289498806000"><ele></ele><time>2016-10-9T12:12:42Z</time></trkpt>
<trkpt lat="49.2426643371582031" lon="0.3801328837871552"><ele></ele><time>2016-10-9T12:12:45Z</time></trkpt>
<trkpt lat="49.2425537109375000" lon="0.3801322281360626"><ele></ele><time>2016-10-9T12:12:48Z</time></trkpt>
<trkpt lat="49.2424468994140625" lon="0.3801426887512207"><ele></ele><time>2016-10-9T12:12:51Z</time></trkpt>
<trkpt lat="49.2423820495605469" lon="0.3801413476467133"><ele></ele><time>2016-10-9T12:12:54Z</time></trkpt>
<trkpt lat="49.2423171997070312" lon="0.3801434636116028"><ele></ele><time>2016-10-9T12:12:57Z</time></trkpt>
<trkpt lat="49.2422218322753906" lon="0.3801793158054352"><ele></ele><time>2016-10-9T12:13:0Z</time></trkpt>
<trkpt lat="49.2421150207519531" lon="0.3802122771739960"><ele></ele><time>2016-10-9T12:13:3Z</time></trkpt>
<trkpt lat="49.2420387268066406" lon="0.3802251815795898"><ele></ele><time>2016-10-9T12:13:6Z</time></trkpt>
<trkpt lat="49.2419319152832031" lon="0.3802434504032135"><ele></ele><time>2016-10-9T12:13:9Z</time></trkpt>
<trkpt lat="49.2418670654296875" lon="0.3802523314952850"><ele></ele><time>2016-10-9T12:13:12Z</time></trkpt>
<trkpt lat="49.2418022155761719" lon="0.3802595436573029"><ele></ele><time>2016-10-9T12:13:15Z</time></trkpt>
<trkpt lat="49.2416954040527344" lon="0.3802820146083832"><ele></ele><time>2016-10-9T12:13:18Z</time></trkpt>
<trkpt lat="49.2416305541992188" lon="0.3802918791770935"><ele></ele><time>2016-10-9T12:13:21Z</time></trkpt>
<trkpt lat="49.2415618896484375" lon="0.3802991807460785"><ele></ele><time>2016-10-9T12:13:24Z</time></trkpt>
<trkpt lat="49.2414512634277344" lon="0.3803164660930634"><ele></ele><time>2016-10-9T12:13:27Z</time></trkpt>
<trkpt lat="49.2413787841796875" lon="0.3803222477436066"><ele></ele><time>2016-10-9T12:13:30Z</time></trkpt>
<trkpt lat="49.2412719726562500" lon="0.3803166151046753"><ele></ele><time>2016-10-9T12:13:33Z</time></trkpt>
<trkpt lat="49.2412109375000000" lon="0.3803173005580902"><ele></ele><time>2016-10-9T12:13:36Z</time></trkpt>
<trkpt lat="49.2411231994628906" lon="0.3803190588951111"><ele></ele><time>2016-10-9T12:13:39Z</time></trkpt>
<trkpt lat="49.2410278320312500" lon="0.3803232312202454"><ele></ele><time>2016-10-9T12:13:42Z</time></trkpt>
<trkpt lat="49.2409286499023438" lon="0.3803284466266632"><ele></ele><time>2016-10-9T12:13:45Z</time></trkpt>
<trkpt lat="49.2408218383789062" lon="0.3803355693817139"><ele></ele><time>2016-10-9T12:13:48Z</time></trkpt>
<trkpt lat="49.2407188415527344" lon="0.3803463876247406"><ele></ele><time>2016-10-9T12:13:51Z</time></trkpt>
<trkpt lat="49.2406501770019531" lon="0.3803566098213196"><ele></ele><time>2016-10-9T12:13:54Z</time></trkpt>
<trkpt lat="49.2405509948730469" lon="0.3803582787513733"><ele></ele><time>2016-10-9T12:13:57Z</time></trkpt>
<trkpt lat="49.2404518127441406" lon="0.3803581893444061"><ele></ele><time>2016-10-9T12:14:0Z</time></trkpt>
<trkpt lat="49.2403907775878906" lon="0.3803581893444061"><ele></ele><time>2016-10-9T12:14:3Z</time></trkpt>
<trkpt lat="49.2402992248535156" lon="0.3803573548793793"><ele></ele><time>2016-10-9T12:14:6Z</time></trkpt>
<trkpt lat="49.2402000427246094" lon="0.3803508281707764"><ele></ele><time>2016-10-9T12:14:9Z</time></trkpt>
<trkpt lat="49.2401313781738281" lon="0.3803519904613495"><ele></ele><time>2016-10-9T12:14:12Z</time></trkpt>
<trkpt lat="49.2400321960449219" lon="0.3803555965423584"><ele></ele><time>2016-10-9T12:14:15Z</time></trkpt>
<trkpt lat="49.2399368286132812" lon="0.3803639709949493"><ele></ele><time>2016-10-9T12:14:18Z</time></trkpt>
<trkpt lat="49.2398567199707031" lon="0.3804031908512115"><ele></ele><time>2016-10-9T12:14:21Z</time></trkpt>
<trkpt lat="49.2398033142089844" lon="0.3804109990596771"><ele></ele><time>2016-10-9T12:14:24Z</time></trkpt>
<trkpt lat="49.2397422790527344" lon="0.3804053068161011"><ele></ele><time>2016-10-9T12:14:27Z</time></trkpt>
<trkpt lat="49.2396392822265625" lon="0.3804078102111816"><ele></ele><time>2016-10-9T12:14:30Z</time></trkpt>
<trkpt lat="49.2395362854003906" lon="0.3804294466972351"><ele></ele><time>2016-10-9T12:14:33Z</time></trkpt>
<trkpt lat="49.2394409179687500" lon="0.3804353773593903"><ele></ele><time>2016-10-9T12:14:36Z</time></trkpt>
<trkpt lat="49.2393760681152344" lon="0.3804447054862976"><ele></ele><time>2016-10-9T12:14:39Z</time></trkpt>
<trkpt lat="49.2392730712890625" lon="0.3804797232151031"><ele></ele><time>2016-10-9T12:14:42Z</time></trkpt>
<trkpt lat="49.2391738891601562" lon="0.3805178701877594"><ele></ele><time>2016-10-9T12:14:45Z</time></trkpt>
<trkpt lat="49.2390670776367188" lon="0.3805493116378784"><ele></ele><time>2016-10-9T12:14:48Z</time></trkpt>
<trkpt lat="49.2389945983886719" lon="0.3805634677410126"><ele></ele><time>2016-10-9T12:14:51Z</time></trkpt>
<trkpt lat="49.2388839721679688" lon="0.3805698454380035"><ele></ele><time>2016-10-9T12:14:54Z</time></trkpt>
<trkpt lat="49.2388191223144531" lon="0.3805597722530365"><ele></ele><time>2016-10-9T12:14:57Z</time></trkpt>
<trkpt lat="49.2387199401855469" lon="0.3805305361747742"><ele></ele><time>2016-10-9T12:15:0Z</time></trkpt>
<trkpt lat="49.2386627197265625" lon="0.3804908096790314"><ele></ele><time>2016-10-9T12:15:3Z</time></trkpt>
<trkpt lat="49.2385940551757812" lon="0.3804590404033661"><ele></ele><time>2016-10-9T12:15:6Z</time></trkpt>
<trkpt lat="49.2384796142578125" lon="0.3804056346416473"><ele></ele><time>2016-10-9T12:15:9Z</time></trkpt>
<trkpt lat="49.2383995056152344" lon="0.3803809881210327"><ele></ele><time>2016-10-9T12:15:12Z</time></trkpt>
<trkpt lat="49.2382965087890625" lon="0.3803001940250397"><ele></ele><time>2016-10-9T12:15:15Z</time></trkpt>
<trkpt lat="49.2382087707519531" lon="0.3802050650119781"><ele></ele><time>2016-10-9T12:15:18Z</time></trkpt>
<trkpt lat="49.2380943298339844" lon="0.3802035450935364"><ele></ele><time>2016-10-9T12:15:21Z</time></trkpt>
<trkpt lat="49.2380142211914062" lon="0.3802269399166107"><ele></ele><time>2016-10-9T12:15:24Z</time></trkpt>
<trkpt lat="49.2378959655761719" lon="0.3803303539752960"><ele></ele><time>2016-10-9T12:15:27Z</time></trkpt>
<trkpt lat="49.2378234863281250" lon="0.3803954124450684"><ele></ele><time>2016-10-9T12:15:30Z</time></trkpt>
<trkpt lat="49.2377014160156250" lon="0.3804158568382263"><ele></ele><time>2016-10-9T12:15:33Z</time></trkpt>
<trkpt lat="49.2376213073730469" lon="0.3803848624229431"><ele></ele><time>2016-10-9T12:15:36Z</time></trkpt>
<trkpt lat="49.2375144958496094" lon="0.3803313672542572"><ele></ele><time>2016-10-9T12:15:39Z</time></trkpt>
<trkpt lat="49.2374114990234375" lon="0.3802756369113922"><ele></ele><time>2016-10-9T12:15:42Z</time></trkpt>
<trkpt lat="49.2373466491699219" lon="0.3802347183227539"><ele></ele><time>2016-10-9T12:15:45Z</time></trkpt>
<trkpt lat="49.2372817993164062" lon="0.3801918923854828"><ele></ele><time>2016-10-9T12:15:48Z</time></trkpt>
<trkpt lat="49.2371788024902344" lon="0.3801423609256744"><ele></ele><time>2016-10-9T12:15:51Z</time></trkpt>
<trkpt lat="49.2370758056640625" lon="0.3800897300243378"><ele></ele><time>2016-10-9T12:15:54Z</time></trkpt>
<trkpt lat="49.2369689941406250" lon="0.3800401091575623"><ele></ele><time>2016-10-9T12:15:57Z</time></trkpt>
<trkpt lat="49.2369003295898438" lon="0.3800075650215149"><ele></ele><time>2016-10-9T12:16:0Z</time></trkpt>
<trkpt lat="49.2368354797363281" lon="0.3799782395362854"><ele></ele><time>2016-10-9T12:16:3Z</time></trkpt>
<trkpt lat="49.2367324829101562" lon="0.3799276053905487"><ele></ele><time>2016-10-9T12:16:6Z</time></trkpt>
<trkpt lat="49.2366600036621094" lon="0.3798971772193909"><ele></ele><time>2016-10-9T12:16:9Z</time></trkpt>
<trkpt lat="49.2365493774414062" lon="0.3798479735851288"><ele></ele><time>2016-10-9T12:16:12Z</time></trkpt>
<trkpt lat="49.2364425659179688" lon="0.3797976970672607"><ele></ele><time>2016-10-9T12:16:15Z</time></trkpt>
<trkpt lat="49.2363319396972656" lon="0.3797457218170166"><ele></ele><time>2016-10-9T12:16:18Z</time></trkpt>
<trkpt lat="49.2362632751464844" lon="0.3797090947628021"><ele></ele><time>2016-10-9T12:16:21Z</time></trkpt>
<trkpt lat="49.2361640930175781" lon="0.3796471655368805"><ele></ele><time>2016-10-9T12:16:24Z</time></trkpt>
<trkpt lat="49.2360916137695312" lon="0.3796003758907318"><ele></ele><time>2016-10-9T12:16:27Z</time></trkpt>
<trkpt lat="49.2359771728515625" lon="0.3795188367366791"><ele></ele><time>2016-10-9T12:16:30Z</time></trkpt>
<trkpt lat="49.2358741760253906" lon="0.3794319033622742"><ele></ele><time>2016-10-9T12:16:33Z</time></trkpt>
<trkpt lat="49.2358131408691406" lon="0.3793691992759705"><ele></ele><time>2016-10-9T12:16:36Z</time></trkpt>
<trkpt lat="49.2357482910156250" lon="0.3792965412139893"><ele></ele><time>2016-10-9T12:16:39Z</time></trkpt>
<trkpt lat="49.2356796264648438" lon="0.3792143166065216"><ele></ele><time>2016-10-9T12:16:42Z</time></trkpt>
<trkpt lat="49.2356147766113281" lon="0.3791288137435913"><ele></ele><time>2016-10-9T12:16:45Z</time></trkpt>
<trkpt lat="49.2355499267578125" lon="0.3790566623210907"><ele></ele><time>2016-10-9T12:16:48Z</time></trkpt>
<trkpt lat="49.2354888916015625" lon="0.3789781928062439"><ele></ele><time>2016-10-9T12:16:51Z</time></trkpt>
<trkpt lat="49.2354049682617188" lon="0.3788597583770752"><ele></ele><time>2016-10-9T12:16:54Z</time></trkpt>
<trkpt lat="49.2353248596191406" lon="0.3787496984004974"><ele></ele><time>2016-10-9T12:16:57Z</time></trkpt>
<trkpt lat="49.2352676391601562" lon="0.3786804676055908"><ele></ele><time>2016-10-9T12:17:0Z</time></trkpt>
<trkpt lat="49.2352027893066406" lon="0.3786094784736633"><ele></ele><time>2016-10-9T12:17:3Z</time></trkpt>
<trkpt lat="49.2350959777832031" lon="0.3785219788551331"><ele></ele><time>2016-10-9T12:17:6Z</time></trkpt>
<trkpt lat="49.2350158691406250" lon="0.3784801363945007"><ele></ele><time>2016-10-9T12:17:9Z</time></trkpt>
<trkpt lat="49.2349395751953125" lon="0.3784553408622742"><ele></ele><time>2016-10-9T12:17:12Z</time></trkpt>
<trkpt lat="49.2348670959472656" lon="0.3784356415271759"><ele></ele><time>2016-10-9T12:17:15Z</time></trkpt>
<trkpt lat="49.2347564697265625" lon="0.3784171938896179"><ele></ele><time>2016-10-9T12:17:18Z</time></trkpt>
<trkpt lat="49.2346801757812500" lon="0.3784144222736359"><ele></ele><time>2016-10-9T12:17:21Z</time></trkpt>
<trkpt lat="49.2346038818359375" lon="0.3784232437610626"><ele></ele><time>2016-10-9T12:17:24Z</time></trkpt>
<trkpt lat="49.2344894409179688" lon="0.3784457743167877"><ele></ele><time>2016-10-9T12:17:27Z</time></trkpt>
<trkpt lat="49.2343673706054688" lon="0.3784686625003815"><ele></ele><time>2016-10-9T12:17:30Z</time></trkpt>
<trkpt lat="49.2342491149902344" lon="0.3784773647785187"><ele></ele><time>2016-10-9T12:17:33Z</time></trkpt>
<trkpt lat="49.2341728210449219" lon="0.3784715831279755"><ele></ele><time>2016-10-9T12:17:36Z</time></trkpt>
<trkpt lat="49.2340545654296875" lon="0.3784585893154144"><ele></ele><time>2016-10-9T12:17:39Z</time></trkpt>
<trkpt lat="49.2339324951171875" lon="0.3784478008747101"><ele></ele><time>2016-10-9T12:17:42Z</time></trkpt>
<trkpt lat="49.2338066101074219" lon="0.3784204721450806"><ele></ele><time>2016-10-9T12:17:45Z</time></trkpt>
<trkpt lat="49.2337226867675781" lon="0.3783946633338928"><ele></ele><time>2016-10-9T12:17:48Z</time></trkpt>
<trkpt lat="49.2336006164550781" lon="0.3783465325832367"><ele></ele><time>2016-10-9T12:17:51Z</time></trkpt>
<trkpt lat="49.2335243225097656" lon="0.3783065676689148"><ele></ele><time>2016-10-9T12:17:54Z</time></trkpt>
<trkpt lat="49.2334136962890625" lon="0.3782328665256500"><ele></ele><time>2016-10-9T12:17:57Z</time></trkpt>
<trkpt lat="49.2332992553710938" lon="0.3781629800796509"><ele></ele><time>2016-10-9T12:18:0Z</time></trkpt>
<trkpt lat="49.2331962585449219" lon="0.3781061470508575"><ele></ele><time>2016-10-9T12:18:3Z</time></trkpt>
<trkpt lat="49.2330894470214844" lon="0.3780564367771149"><ele></ele><time>2016-10-9T12:18:6Z</time></trkpt>
<trkpt lat="49.2329940795898438" lon="0.3779835104942322"><ele></ele><time>2016-10-9T12:18:9Z</time></trkpt>
<trkpt lat="49.2329406738281250" lon="0.3779290318489075"><ele></ele><time>2016-10-9T12:18:12Z</time></trkpt>
<trkpt lat="49.2328758239746094" lon="0.3778737187385559"><ele></ele><time>2016-10-9T12:18:15Z</time></trkpt>
<trkpt lat="49.2327766418457031" lon="0.3777961730957031"><ele></ele><time>2016-10-9T12:18:18Z</time></trkpt>
<trkpt lat="49.2326774597167969" lon="0.3777063190937042"><ele></ele><time>2016-10-9T12:18:21Z</time></trkpt>
<trkpt lat="49.2326049804687500" lon="0.3776433765888214"><ele></ele><time>2016-10-9T12:18:24Z</time></trkpt>
<trkpt lat="49.2324943542480469" lon="0.3774938583374023"><ele></ele><time>2016-10-9T12:18:27Z</time></trkpt>
<trkpt lat="49.2324218750000000" lon="0.3774435520172119"><ele></ele><time>2016-10-9T12:18:30Z</time></trkpt>
<trkpt lat="49.2323532104492188" lon="0.3773815333843231"><ele></ele><time>2016-10-9T12:18:33Z</time></trkpt>
<trkpt lat="49.2322425842285156" lon="0.3772950172424316"><ele></ele><time>2016-10-9T12:18:36Z</time></trkpt>
<trkpt lat="49.2321395874023438" lon="0.3771958649158478"><ele></ele><time>2016-10-9T12:18:39Z</time></trkpt>
<trkpt lat="49.2320709228515625" lon="0.3771340847015381"><ele></ele><time>2016-10-9T12:18:42Z</time></trkpt>
<trkpt lat="49.2319984436035156" lon="0.3770748376846313"><ele></ele><time>2016-10-9T12:18:45Z</time></trkpt>
<trkpt lat="49.2318992614746094" lon="0.3769873976707458"><ele></ele><time>2016-10-9T12:18:48Z</time></trkpt>
<trkpt lat="49.2318382263183594" lon="0.3769290745258331"><ele></ele><time>2016-10-9T12:18:51Z</time></trkpt>
<trkpt lat="49.2317466735839844" lon="0.3768347799777985"><ele></ele><time>2016-10-9T12:18:54Z</time></trkpt>
<trkpt lat="49.2316818237304688" lon="0.3767824769020081"><ele></ele><time>2016-10-9T12:18:57Z</time></trkpt>
<trkpt lat="49.2315902709960938" lon="0.3767284154891968"><ele></ele><time>2016-10-9T12:19:0Z</time></trkpt>
<trkpt lat="49.2314910888671875" lon="0.3766484558582306"><ele></ele><time>2016-10-9T12:19:3Z</time></trkpt>
<trkpt lat="49.2313957214355469" lon="0.3765658140182495"><ele></ele><time>2016-10-9T12:19:6Z</time></trkpt>
<trkpt lat="49.2313346862792969" lon="0.3765040338039398"><ele></ele><time>2016-10-9T12:19:9Z</time></trkpt>
<trkpt lat="49.2312355041503906" lon="0.3764254152774811"><ele></ele><time>2016-10-9T12:19:12Z</time></trkpt>
<trkpt lat="49.2311668395996094" lon="0.3763711750507355"><ele></ele><time>2016-10-9T12:19:15Z</time></trkpt>
<trkpt lat="49.2310638427734375" lon="0.3762807250022888"><ele></ele><time>2016-10-9T12:19:18Z</time></trkpt>
<trkpt lat="49.2309951782226562" lon="0.3762256503105164"><ele></ele><time>2016-10-9T12:19:21Z</time></trkpt>
<trkpt lat="49.2308959960937500" lon="0.3761373162269592"><ele></ele><time>2016-10-9T12:19:24Z</time></trkpt>
<trkpt lat="49.2307929992675781" lon="0.3760474622249603"><ele></ele><time>2016-10-9T12:19:27Z</time></trkpt>
<trkpt lat="49.2307281494140625" lon="0.3759799897670746"><ele></ele><time>2016-10-9T12:19:30Z</time></trkpt>
<trkpt lat="49.2306175231933594" lon="0.3758838474750519"><ele></ele><time>2016-10-9T12:19:33Z</time></trkpt>
<trkpt lat="49.2305107116699219" lon="0.3757912218570709"><ele></ele><time>2016-10-9T12:19:36Z</time></trkpt>
<trkpt lat="49.2304344177246094" lon="0.3757355809211731"><ele></ele><time>2016-10-9T12:19:39Z</time></trkpt>
<trkpt lat="49.2303352355957031" lon="0.3756432831287384"><ele></ele><time>2016-10-9T12:19:42Z</time></trkpt>
<trkpt lat="49.2302703857421875" lon="0.3755834400653839"><ele></ele><time>2016-10-9T12:19:45Z</time></trkpt>
<trkpt lat="49.2302093505859375" lon="0.3755264580249786"><ele></ele><time>2016-10-9T12:19:48Z</time></trkpt>
<trkpt lat="49.2301483154296875" lon="0.3754718005657196"><ele></ele><time>2016-10-9T12:19:51Z</time></trkpt>
<trkpt lat="49.2300605773925781" lon="0.3753922581672668"><ele></ele><time>2016-10-9T12:19:54Z</time></trkpt>
<trkpt lat="49.2299613952636719" lon="0.3752982914447784"><ele></ele><time>2016-10-9T12:19:57Z</time></trkpt>
<trkpt lat="49.2298927307128906" lon="0.3752318918704987"><ele></ele><time>2016-10-9T12:20:0Z</time></trkpt>
<trkpt lat="49.2298202514648438" lon="0.3751689493656158"><ele></ele><time>2016-10-9T12:20:3Z</time></trkpt>
<trkpt lat="49.2297172546386719" lon="0.3750849664211273"><ele></ele><time>2016-10-9T12:20:6Z</time></trkpt>
<trkpt lat="49.2296562194824219" lon="0.3750365376472473"><ele></ele><time>2016-10-9T12:20:9Z</time></trkpt>
<trkpt lat="49.2295646667480469" lon="0.3749678730964661"><ele></ele><time>2016-10-9T12:20:12Z</time></trkpt>
<trkpt lat="49.2295074462890625" lon="0.3748998045921326"><ele></ele><time>2016-10-9T12:20:15Z</time></trkpt>
<trkpt lat="49.2294044494628906" lon="0.3747879862785339"><ele></ele><time>2016-10-9T12:20:18Z</time></trkpt>
<trkpt lat="49.2292747497558594" lon="0.3746925294399261"><ele></ele><time>2016-10-9T12:20:21Z</time></trkpt>
<trkpt lat="49.2292098999023438" lon="0.3746417462825775"><ele></ele><time>2016-10-9T12:20:24Z</time></trkpt>
<trkpt lat="49.2291336059570312" lon="0.3745424151420593"><ele></ele><time>2016-10-9T12:20:27Z</time></trkpt>
<trkpt lat="49.2290840148925781" lon="0.3744849860668182"><ele></ele><time>2016-10-9T12:20:30Z</time></trkpt>
<trkpt lat="49.2290115356445312" lon="0.3744343817234039"><ele></ele><time>2016-10-9T12:20:33Z</time></trkpt>
<trkpt lat="49.2289314270019531" lon="0.3743660449981689"><ele></ele><time>2016-10-9T12:20:36Z</time></trkpt>
<trkpt lat="49.2288742065429688" lon="0.3742921352386475"><ele></ele><time>2016-10-9T12:20:39Z</time></trkpt>
<trkpt lat="49.2288169860839844" lon="0.3742203712463379"><ele></ele><time>2016-10-9T12:20:42Z</time></trkpt>
<trkpt lat="49.2286987304687500" lon="0.3741269111633301"><ele></ele><time>2016-10-9T12:20:45Z</time></trkpt>
<trkpt lat="49.2286300659179688" lon="0.3740758001804352"><ele></ele><time>2016-10-9T12:20:48Z</time></trkpt>
<trkpt lat="49.2285232543945312" lon="0.3739831745624542"><ele></ele><time>2016-10-9T12:20:51Z</time></trkpt>
<trkpt lat="49.2284164428710938" lon="0.3738777339458466"><ele></ele><time>2016-10-9T12:20:54Z</time></trkpt>
<trkpt lat="49.2283439636230469" lon="0.3738027215003967"><ele></ele><time>2016-10-9T12:20:57Z</time></trkpt>
<trkpt lat="49.2282409667968750" lon="0.3736854493618011"><ele></ele><time>2016-10-9T12:21:0Z</time></trkpt>
<trkpt lat="49.2281341552734375" lon="0.3735986053943634"><ele></ele><time>2016-10-9T12:21:3Z</time></trkpt>
<trkpt lat="49.2280273437500000" lon="0.3735278546810150"><ele></ele><time>2016-10-9T12:21:6Z</time></trkpt>
<trkpt lat="49.2279243469238281" lon="0.3734571337699890"><ele></ele><time>2016-10-9T12:21:9Z</time></trkpt>
<trkpt lat="49.2278137207031250" lon="0.3733913302421570"><ele></ele><time>2016-10-9T12:21:12Z</time></trkpt>
<trkpt lat="49.2277030944824219" lon="0.3733033835887909"><ele></ele><time>2016-10-9T12:21:15Z</time></trkpt>
<trkpt lat="49.2276229858398438" lon="0.3732495009899139"><ele></ele><time>2016-10-9T12:21:18Z</time></trkpt>
<trkpt lat="49.2275390625000000" lon="0.3732096850872040"><ele></ele><time>2016-10-9T12:21:21Z</time></trkpt>
<trkpt lat="49.2274208068847656" lon="0.3731660246849060"><ele></ele><time>2016-10-9T12:21:24Z</time></trkpt>
<trkpt lat="49.2273254394531250" lon="0.3731365203857422"><ele></ele><time>2016-10-9T12:21:27Z</time></trkpt>
<trkpt lat="49.2271919250488281" lon="0.3730838000774384"><ele></ele><time>2016-10-9T12:21:30Z</time></trkpt>
<trkpt lat="49.2271080017089844" lon="0.3730547130107880"><ele></ele><time>2016-10-9T12:21:33Z</time></trkpt>
<trkpt lat="49.2269897460937500" lon="0.3730159699916840"><ele></ele><time>2016-10-9T12:21:36Z</time></trkpt>
<trkpt lat="49.2268753051757812" lon="0.3729464113712311"><ele></ele><time>2016-10-9T12:21:39Z</time></trkpt>
<trkpt lat="49.2267951965332031" lon="0.3729024827480316"><ele></ele><time>2016-10-9T12:21:42Z</time></trkpt>
<trkpt lat="49.2266654968261719" lon="0.3728587329387665"><ele></ele><time>2016-10-9T12:21:45Z</time></trkpt>
<trkpt lat="49.2265434265136719" lon="0.3728143870830536"><ele></ele><time>2016-10-9T12:21:48Z</time></trkpt>
<trkpt lat="49.2264328002929688" lon="0.3727674484252930"><ele></ele><time>2016-10-9T12:21:51Z</time></trkpt>
<trkpt lat="49.2263259887695312" lon="0.3727473318576813"><ele></ele><time>2016-10-9T12:21:54Z</time></trkpt>
<trkpt lat="49.2262382507324219" lon="0.3727164864540100"><ele></ele><time>2016-10-9T12:21:57Z</time></trkpt>
<trkpt lat="49.2261772155761719" lon="0.3726887404918671"><ele></ele><time>2016-10-9T12:22:0Z</time></trkpt>
<trkpt lat="49.2260780334472656" lon="0.3726535439491272"><ele></ele><time>2016-10-9T12:22:3Z</time></trkpt>
<trkpt lat="49.2260131835937500" lon="0.3726317584514618"><ele></ele><time>2016-10-9T12:22:6Z</time></trkpt>
<trkpt lat="49.2259521484375000" lon="0.3726162612438202"><ele></ele><time>2016-10-9T12:22:9Z</time></trkpt>
<trkpt lat="49.2258529663085938" lon="0.3725854754447937"><ele></ele><time>2016-10-9T12:22:12Z</time></trkpt>
<trkpt lat="49.2257652282714844" lon="0.3725371360778809"><ele></ele><time>2016-10-9T12:22:15Z</time></trkpt>
<trkpt lat="49.2257041931152344" lon="0.3724988996982574"><ele></ele><time>2016-10-9T12:22:18Z</time></trkpt>
<trkpt lat="49.2255859375000000" lon="0.3724928796291351"><ele></ele><time>2016-10-9T12:22:21Z</time></trkpt>
<trkpt lat="49.2254753112792969" lon="0.3724553883075714"><ele></ele><time>2016-10-9T12:22:24Z</time></trkpt>
<trkpt lat="49.2253684997558594" lon="0.3724044263362885"><ele></ele><time>2016-10-9T12:22:27Z</time></trkpt>
<trkpt lat="49.2252998352050781" lon="0.3723669648170471"><ele></ele><time>2016-10-9T12:22:30Z</time></trkpt>
<trkpt lat="49.2251968383789062" lon="0.3723149895668030"><ele></ele><time>2016-10-9T12:22:33Z</time></trkpt>
<trkpt lat="49.2250976562500000" lon="0.3722673058509827"><ele></ele><time>2016-10-9T12:22:36Z</time></trkpt>
<trkpt lat="49.2250061035156250" lon="0.3722228109836578"><ele></ele><time>2016-10-9T12:22:39Z</time></trkpt>
<trkpt lat="49.2249374389648438" lon="0.3721875846385956"><ele></ele><time>2016-10-9T12:22:42Z</time></trkpt>
<trkpt lat="49.2248687744140625" lon="0.3721704185009003"><ele></ele><time>2016-10-9T12:22:45Z</time></trkpt>
<trkpt lat="49.2247848510742188" lon="0.3721449375152588"><ele></ele><time>2016-10-9T12:22:48Z</time></trkpt>
<trkpt lat="49.2247276306152344" lon="0.3721280097961426"><ele></ele><time>2016-10-9T12:22:51Z</time></trkpt>
<trkpt lat="49.2246551513671875" lon="0.3721084594726562"><ele></ele><time>2016-10-9T12:22:54Z</time></trkpt>
<trkpt lat="49.2245788574218750" lon="0.3720823228359222"><ele></ele><time>2016-10-9T12:22:57Z</time></trkpt>
<trkpt lat="49.2244682312011719" lon="0.3720473647117615"><ele></ele><time>2016-10-9T12:23:0Z</time></trkpt>
<trkpt lat="49.2243614196777344" lon="0.3720096647739410"><ele></ele><time>2016-10-9T12:23:3Z</time></trkpt>
<trkpt lat="49.2242927551269531" lon="0.3719829022884369"><ele></ele><time>2016-10-9T12:23:6Z</time></trkpt>
<trkpt lat="49.2242279052734375" lon="0.3719558417797089"><ele></ele><time>2016-10-9T12:23:9Z</time></trkpt>
<trkpt lat="49.2241439819335938" lon="0.3718892037868500"><ele></ele><time>2016-10-9T12:23:12Z</time></trkpt>
<trkpt lat="49.2240562438964844" lon="0.3718283474445343"><ele></ele><time>2016-10-9T12:23:15Z</time></trkpt>
<trkpt lat="49.2239799499511719" lon="0.3718000948429108"><ele></ele><time>2016-10-9T12:23:18Z</time></trkpt>
<trkpt lat="49.2238998413085938" lon="0.3717679083347321"><ele></ele><time>2016-10-9T12:23:21Z</time></trkpt>
<trkpt lat="49.2238121032714844" lon="0.3716571033000946"><ele></ele><time>2016-10-9T12:23:24Z</time></trkpt>
<trkpt lat="49.2237586975097656" lon="0.3715890347957611"><ele></ele><time>2016-10-9T12:23:27Z</time></trkpt>
<trkpt lat="49.2236518859863281" lon="0.3715164661407471"><ele></ele><time>2016-10-9T12:23:30Z</time></trkpt>
<trkpt lat="49.2235374450683594" lon="0.3715120255947113"><ele></ele><time>2016-10-9T12:23:33Z</time></trkpt>
<trkpt lat="49.2234649658203125" lon="0.3715028762817383"><ele></ele><time>2016-10-9T12:23:36Z</time></trkpt>
<trkpt lat="49.2233505249023438" lon="0.3715039789676666"><ele></ele><time>2016-10-9T12:23:39Z</time></trkpt>
<trkpt lat="49.2232475280761719" lon="0.3714752197265625"><ele></ele><time>2016-10-9T12:23:42Z</time></trkpt>
<trkpt lat="49.2231788635253906" lon="0.3714503347873688"><ele></ele><time>2016-10-9T12:23:45Z</time></trkpt>
<trkpt lat="49.2230796813964844" lon="0.3714195787906647"><ele></ele><time>2016-10-9T12:23:48Z</time></trkpt>
<trkpt lat="49.2230148315429688" lon="0.3713887929916382"><ele></ele><time>2016-10-9T12:23:51Z</time></trkpt>
<trkpt lat="49.2229156494140625" lon="0.3713244199752808"><ele></ele><time>2016-10-9T12:23:54Z</time></trkpt>
<trkpt lat="49.2227973937988281" lon="0.3712826967239380"><ele></ele><time>2016-10-9T12:23:57Z</time></trkpt>
<trkpt lat="49.2227210998535156" lon="0.3712587058544159"><ele></ele><time>2016-10-9T12:24:0Z</time></trkpt>
<trkpt lat="49.2226257324218750" lon="0.3712092638015747"><ele></ele><time>2016-10-9T12:24:3Z</time></trkpt>
<trkpt lat="49.2225723266601562" lon="0.3711795806884766"><ele></ele><time>2016-10-9T12:24:6Z</time></trkpt>
<trkpt lat="49.2225036621093750" lon="0.3711421191692352"><ele></ele><time>2016-10-9T12:24:9Z</time></trkpt>
<trkpt lat="49.2223968505859375" lon="0.3710823655128479"><ele></ele><time>2016-10-9T12:24:12Z</time></trkpt>
<trkpt lat="49.2223281860351562" lon="0.3710445463657379"><ele></ele><time>2016-10-9T12:24:15Z</time></trkpt>
<trkpt lat="49.2222557067871094" lon="0.3710026443004608"><ele></ele><time>2016-10-9T12:24:18Z</time></trkpt>
<trkpt lat="49.2221755981445312" lon="0.3709397912025452"><ele></ele><time>2016-10-9T12:24:21Z</time></trkpt>
<trkpt lat="49.2220497131347656" lon="0.3708505928516388"><ele></ele><time>2016-10-9T12:24:24Z</time></trkpt>
<trkpt lat="49.2219848632812500" lon="0.3707822859287262"><ele></ele><time>2016-10-9T12:24:27Z</time></trkpt>
<trkpt lat="49.2219238281250000" lon="0.3706413805484772"><ele></ele><time>2016-10-9T12:24:30Z</time></trkpt>
<trkpt lat="49.2218627929687500" lon="0.3705357015132904"><ele></ele><time>2016-10-9T12:24:33Z</time></trkpt>
<trkpt lat="49.2217750549316406" lon="0.3704517185688019"><ele></ele><time>2016-10-9T12:24:36Z</time></trkpt>
<trkpt lat="49.2216949462890625" lon="0.3704077005386353"><ele></ele><time>2016-10-9T12:24:39Z</time></trkpt>
<trkpt lat="49.2216415405273438" lon="0.3703542947769165"><ele></ele><time>2016-10-9T12:24:42Z</time></trkpt>
<trkpt lat="49.2215652465820312" lon="0.3702859878540039"><ele></ele><time>2016-10-9T12:24:45Z</time></trkpt>
<trkpt lat="49.2215042114257812" lon="0.3702209591865540"><ele></ele><time>2016-10-9T12:24:48Z</time></trkpt>
<trkpt lat="49.2214508056640625" lon="0.3701294958591461"><ele></ele><time>2016-10-9T12:24:51Z</time></trkpt>
<trkpt lat="49.2214088439941406" lon="0.3700727522373199"><ele></ele><time>2016-10-9T12:24:54Z</time></trkpt>
<trkpt lat="49.2213516235351562" lon="0.3699834048748016"><ele></ele><time>2016-10-9T12:24:57Z</time></trkpt>
<trkpt lat="49.2213096618652344" lon="0.3699159324169159"><ele></ele><time>2016-10-9T12:25:0Z</time></trkpt>
<trkpt lat="49.2212638854980469" lon="0.3698368966579437"><ele></ele><time>2016-10-9T12:25:3Z</time></trkpt>
<trkpt lat="49.2211761474609375" lon="0.3696949779987335"><ele></ele><time>2016-10-9T12:25:6Z</time></trkpt>
<trkpt lat="49.2211227416992188" lon="0.3696410059928894"><ele></ele><time>2016-10-9T12:25:9Z</time></trkpt>
<trkpt lat="49.2210540771484375" lon="0.3695815801620483"><ele></ele><time>2016-10-9T12:25:12Z</time></trkpt>
<trkpt lat="49.2210121154785156" lon="0.3695315420627594"><ele></ele><time>2016-10-9T12:25:15Z</time></trkpt>
<trkpt lat="49.2209358215332031" lon="0.3694271743297577"><ele></ele><time>2016-10-9T12:25:18Z</time></trkpt>
<trkpt lat="49.2208442687988281" lon="0.3693131804466248"><ele></ele><time>2016-10-9T12:25:21Z</time></trkpt>
<trkpt lat="49.2207756042480469" lon="0.3692514300346375"><ele></ele><time>2016-10-9T12:25:24Z</time></trkpt>
<trkpt lat="49.2206840515136719" lon="0.3691328167915344"><ele></ele><time>2016-10-9T12:25:27Z</time></trkpt>
<trkpt lat="49.2206039428710938" lon="0.3690066635608673"><ele></ele><time>2016-10-9T12:25:30Z</time></trkpt>
<trkpt lat="49.2205619812011719" lon="0.3689373433589935"><ele></ele><time>2016-10-9T12:25:33Z</time></trkpt>
<trkpt lat="49.2205085754394531" lon="0.3688229322433472"><ele></ele><time>2016-10-9T12:25:36Z</time></trkpt>
<trkpt lat="49.2204780578613281" lon="0.3687505125999451"><ele></ele><time>2016-10-9T12:25:39Z</time></trkpt>
<trkpt lat="49.2204017639160156" lon="0.3686429858207703"><ele></ele><time>2016-10-9T12:25:42Z</time></trkpt>
<trkpt lat="49.2203407287597656" lon="0.3685849606990814"><ele></ele><time>2016-10-9T12:25:45Z</time></trkpt>
<trkpt lat="49.2202873229980469" lon="0.3685457408428192"><ele></ele><time>2016-10-9T12:25:48Z</time></trkpt>
<trkpt lat="49.2202072143554688" lon="0.3684911727905273"><ele></ele><time>2016-10-9T12:25:51Z</time></trkpt>
<trkpt lat="49.2201538085937500" lon="0.3684548735618591"><ele></ele><time>2016-10-9T12:25:54Z</time></trkpt>
<trkpt lat="49.2200317382812500" lon="0.3683652877807617"><ele></ele><time>2016-10-9T12:25:57Z</time></trkpt>
<trkpt lat="49.2199592590332031" lon="0.3683185875415802"><ele></ele><time>2016-10-9T12:26:0Z</time></trkpt>
<trkpt lat="49.2198143005371094" lon="0.3681772649288177"><ele></ele><time>2016-10-9T12:26:3Z</time></trkpt>
<trkpt lat="49.2197265625000000" lon="0.3681129813194275"><ele></ele><time>2016-10-9T12:26:6Z</time></trkpt>
<trkpt lat="49.2196464538574219" lon="0.3680486083030701"><ele></ele><time>2016-10-9T12:26:9Z</time></trkpt>
<trkpt lat="49.2195816040039062" lon="0.3679924607276917"><ele></ele><time>2016-10-9T12:26:12Z</time></trkpt>
<trkpt lat="49.2194938659667969" lon="0.3679434359073639"><ele></ele><time>2016-10-9T12:26:15Z</time></trkpt>
<trkpt lat="49.2194137573242188" lon="0.3678891062736511"><ele></ele><time>2016-10-9T12:26:18Z</time></trkpt>
<trkpt lat="49.2193679809570312" lon="0.3678533136844635"><ele></ele><time>2016-10-9T12:26:21Z</time></trkpt>
<trkpt lat="49.2193183898925781" lon="0.3678157627582550"><ele></ele><time>2016-10-9T12:26:24Z</time></trkpt>
<trkpt lat="49.2192459106445312" lon="0.3677554130554199"><ele></ele><time>2016-10-9T12:26:27Z</time></trkpt>
<trkpt lat="49.2191734313964844" lon="0.3677411675453186"><ele></ele><time>2016-10-9T12:26:30Z</time></trkpt>
<trkpt lat="49.2191200256347656" lon="0.3677231371402740"><ele></ele><time>2016-10-9T12:26:33Z</time></trkpt>
<trkpt lat="49.2190589904785156" lon="0.3676917850971222"><ele></ele><time>2016-10-9T12:26:36Z</time></trkpt>
<trkpt lat="49.2189636230468750" lon="0.3676338791847229"><ele></ele><time>2016-10-9T12:26:39Z</time></trkpt>
<trkpt lat="49.2188758850097656" lon="0.3675689995288849"><ele></ele><time>2016-10-9T12:26:42Z</time></trkpt>
<trkpt lat="49.2188186645507812" lon="0.3675239980220795"><ele></ele><time>2016-10-9T12:26:45Z</time></trkpt>
<trkpt lat="49.2187500000000000" lon="0.3674866855144501"><ele></ele><time>2016-10-9T12:26:48Z</time></trkpt>
<trkpt lat="49.2186851501464844" lon="0.3674374818801880"><ele></ele><time>2016-10-9T12:26:51Z</time></trkpt>
<trkpt lat="49.2185859680175781" lon="0.3673547506332397"><ele></ele><time>2016-10-9T12:26:54Z</time></trkpt>
<trkpt lat="49.2185058593750000" lon="0.3672774732112885"><ele></ele><time>2016-10-9T12:26:57Z</time></trkpt>
<trkpt lat="49.2184371948242188" lon="0.3671940863132477"><ele></ele><time>2016-10-9T12:27:0Z</time></trkpt>
<trkpt lat="49.2183914184570312" lon="0.3671255111694336"><ele></ele><time>2016-10-9T12:27:3Z</time></trkpt>
<trkpt lat="49.2183113098144531" lon="0.3670242726802826"><ele></ele><time>2016-10-9T12:27:6Z</time></trkpt>
<trkpt lat="49.2182350158691406" lon="0.3669343292713165"><ele></ele><time>2016-10-9T12:27:9Z</time></trkpt>
<trkpt lat="49.2181625366210938" lon="0.3668031394481659"><ele></ele><time>2016-10-9T12:27:12Z</time></trkpt>
<trkpt lat="49.2181205749511719" lon="0.3666959404945374"><ele></ele><time>2016-10-9T12:27:15Z</time></trkpt>
<trkpt lat="49.2180709838867188" lon="0.3666098713874817"><ele></ele><time>2016-10-9T12:27:18Z</time></trkpt>
<trkpt lat="49.2180023193359375" lon="0.3664931952953339"><ele></ele><time>2016-10-9T12:27:21Z</time></trkpt>
<trkpt lat="49.2179718017578125" lon="0.3664232790470123"><ele></ele><time>2016-10-9T12:27:24Z</time></trkpt>
<trkpt lat="49.2179069519042969" lon="0.3663089573383331"><ele></ele><time>2016-10-9T12:27:27Z</time></trkpt>
<trkpt lat="49.2178344726562500" lon="0.3661839663982391"><ele></ele><time>2016-10-9T12:27:30Z</time></trkpt>
<trkpt lat="49.2177772521972656" lon="0.3661060333251953"><ele></ele><time>2016-10-9T12:27:33Z</time></trkpt>
<trkpt lat="49.2177238464355469" lon="0.3660258948802948"><ele></ele><time>2016-10-9T12:27:36Z</time></trkpt>
<trkpt lat="49.2176666259765625" lon="0.3659432530403137"><ele></ele><time>2016-10-9T12:27:39Z</time></trkpt>
<trkpt lat="49.2175827026367188" lon="0.3658246397972107"><ele></ele><time>2016-10-9T12:27:42Z</time></trkpt>
<trkpt lat="49.2175102233886719" lon="0.3656962215900421"><ele></ele><time>2016-10-9T12:27:45Z</time></trkpt>
<trkpt lat="49.2174339294433594" lon="0.3655648827552795"><ele></ele><time>2016-10-9T12:27:48Z</time></trkpt>
<trkpt lat="49.2173843383789062" lon="0.3654835820198059"><ele></ele><time>2016-10-9T12:27:51Z</time></trkpt>
<trkpt lat="49.2173004150390625" lon="0.3653735220432281"><ele></ele><time>2016-10-9T12:27:54Z</time></trkpt>
<trkpt lat="49.2172164916992188" lon="0.3652594387531281"><ele></ele><time>2016-10-9T12:27:57Z</time></trkpt>
<trkpt lat="49.2171707153320312" lon="0.3651731908321381"><ele></ele><time>2016-10-9T12:28:0Z</time></trkpt>
<trkpt lat="49.2170982360839844" lon="0.3650481402873993"><ele></ele><time>2016-10-9T12:28:3Z</time></trkpt>
<trkpt lat="49.2170219421386719" lon="0.3649241030216217"><ele></ele><time>2016-10-9T12:28:6Z</time></trkpt>
<trkpt lat="49.2169723510742188" lon="0.3648370802402496"><ele></ele><time>2016-10-9T12:28:9Z</time></trkpt>
<trkpt lat="49.2168884277343750" lon="0.3647055625915527"><ele></ele><time>2016-10-9T12:28:12Z</time></trkpt>
<trkpt lat="49.2168121337890625" lon="0.3645777404308319"><ele></ele><time>2016-10-9T12:28:15Z</time></trkpt>
<trkpt lat="49.2167320251464844" lon="0.3644542098045349"><ele></ele><time>2016-10-9T12:28:18Z</time></trkpt>
<trkpt lat="49.2166557312011719" lon="0.3643243610858917"><ele></ele><time>2016-10-9T12:28:21Z</time></trkpt>
<trkpt lat="49.2165870666503906" lon="0.3641986250877380"><ele></ele><time>2016-10-9T12:28:24Z</time></trkpt>
<trkpt lat="49.2165184020996094" lon="0.3640763461589813"><ele></ele><time>2016-10-9T12:28:27Z</time></trkpt>
<trkpt lat="49.2164726257324219" lon="0.3639936149120331"><ele></ele><time>2016-10-9T12:28:30Z</time></trkpt>
<trkpt lat="49.2164382934570312" lon="0.3639095425605774"><ele></ele><time>2016-10-9T12:28:33Z</time></trkpt>
<trkpt lat="49.2161598205566406" lon="0.3633193671703339"><ele></ele><time>2016-10-9T12:28:36Z</time></trkpt>
<trkpt lat="49.2159271240234375" lon="0.3626544475555420"><ele></ele><time>2016-10-9T12:28:39Z</time></trkpt>
<trkpt lat="49.2158317565917969" lon="0.3623363375663757"><ele></ele><time>2016-10-9T12:28:42Z</time></trkpt>
<trkpt lat="49.2158012390136719" lon="0.3622457385063171"><ele></ele><time>2016-10-9T12:28:45Z</time></trkpt>
<trkpt lat="49.2157516479492188" lon="0.3621048331260681"><ele></ele><time>2016-10-9T12:28:48Z</time></trkpt>
<trkpt lat="49.2157211303710938" lon="0.3620113730430603"><ele></ele><time>2016-10-9T12:28:51Z</time></trkpt>
<trkpt lat="49.2156753540039062" lon="0.3618718087673187"><ele></ele><time>2016-10-9T12:28:54Z</time></trkpt>
<trkpt lat="49.2156219482421875" lon="0.3617196083068848"><ele></ele><time>2016-10-9T12:28:57Z</time></trkpt>
<trkpt lat="49.2155685424804688" lon="0.3615647852420807"><ele></ele><time>2016-10-9T12:29:0Z</time></trkpt>
<trkpt lat="49.2155265808105469" lon="0.3614617884159088"><ele></ele><time>2016-10-9T12:29:3Z</time></trkpt>
<trkpt lat="49.2154731750488281" lon="0.3613065481185913"><ele></ele><time>2016-10-9T12:29:6Z</time></trkpt>
<trkpt lat="49.2154388427734375" lon="0.3612011969089508"><ele></ele><time>2016-10-9T12:29:9Z</time></trkpt>
<trkpt lat="49.2153854370117188" lon="0.3610424399375916"><ele></ele><time>2016-10-9T12:29:12Z</time></trkpt>
<trkpt lat="49.2153472900390625" lon="0.3609340488910675"><ele></ele><time>2016-10-9T12:29:15Z</time></trkpt>
<trkpt lat="49.2152938842773438" lon="0.3607750535011292"><ele></ele><time>2016-10-9T12:29:18Z</time></trkpt>
<trkpt lat="49.2152557373046875" lon="0.3606750667095184"><ele></ele><time>2016-10-9T12:29:21Z</time></trkpt>
<trkpt lat="49.2151985168457031" lon="0.3605309724807739"><ele></ele><time>2016-10-9T12:29:24Z</time></trkpt>
<trkpt lat="49.2151451110839844" lon="0.3603820204734802"><ele></ele><time>2016-10-9T12:29:27Z</time></trkpt>
<trkpt lat="49.2151069641113281" lon="0.3602750599384308"><ele></ele><time>2016-10-9T12:29:30Z</time></trkpt>
<trkpt lat="49.2150688171386719" lon="0.3601701259613037"><ele></ele><time>2016-10-9T12:29:33Z</time></trkpt>
<trkpt lat="49.2150344848632812" lon="0.3600677847862244"><ele></ele><time>2016-10-9T12:29:36Z</time></trkpt>
<trkpt lat="49.2149848937988281" lon="0.3599151372909546"><ele></ele><time>2016-10-9T12:29:39Z</time></trkpt>
<trkpt lat="49.2149543762207031" lon="0.3598135709762573"><ele></ele><time>2016-10-9T12:29:42Z</time></trkpt>
<trkpt lat="49.2149162292480469" lon="0.3597102165222168"><ele></ele><time>2016-10-9T12:29:45Z</time></trkpt>
<trkpt lat="49.2148590087890625" lon="0.3595529794692993"><ele></ele><time>2016-10-9T12:29:48Z</time></trkpt>
<trkpt lat="49.2148017883300781" lon="0.3593928813934326"><ele></ele><time>2016-10-9T12:29:51Z</time></trkpt>
<trkpt lat="49.2147521972656250" lon="0.3592268228530884"><ele></ele><time>2016-10-9T12:29:54Z</time></trkpt>
<trkpt lat="49.2146911621093750" lon="0.3590572774410248"><ele></ele><time>2016-10-9T12:29:57Z</time></trkpt>
<trkpt lat="49.2146339416503906" lon="0.3588851094245911"><ele></ele><time>2016-10-9T12:30:0Z</time></trkpt>
<trkpt lat="49.2145805358886719" lon="0.3587403297424316"><ele></ele><time>2016-10-9T12:30:3Z</time></trkpt>
<trkpt lat="49.2145462036132812" lon="0.3586509227752686"><ele></ele><time>2016-10-9T12:30:6Z</time></trkpt>
<trkpt lat="49.2145195007324219" lon="0.3585683405399323"><ele></ele><time>2016-10-9T12:30:9Z</time></trkpt>
<trkpt lat="49.2144699096679688" lon="0.3584318757057190"><ele></ele><time>2016-10-9T12:30:12Z</time></trkpt>
<trkpt lat="49.2144126892089844" lon="0.3582702875137329"><ele></ele><time>2016-10-9T12:30:15Z</time></trkpt>
<trkpt lat="49.2143554687500000" lon="0.3580987155437469"><ele></ele><time>2016-10-9T12:30:18Z</time></trkpt>
<trkpt lat="49.2142906188964844" lon="0.3579071760177612"><ele></ele><time>2016-10-9T12:30:21Z</time></trkpt>
<trkpt lat="49.2142295837402344" lon="0.3577350974082947"><ele></ele><time>2016-10-9T12:30:24Z</time></trkpt>
<trkpt lat="49.2141876220703125" lon="0.3576226234436035"><ele></ele><time>2016-10-9T12:30:27Z</time></trkpt>
<trkpt lat="49.2141609191894531" lon="0.3575183451175690"><ele></ele><time>2016-10-9T12:30:30Z</time></trkpt>
<trkpt lat="49.2141265869140625" lon="0.3574068546295166"><ele></ele><time>2016-10-9T12:30:33Z</time></trkpt>
<trkpt lat="49.2140769958496094" lon="0.3572455942630768"><ele></ele><time>2016-10-9T12:30:36Z</time></trkpt>
<trkpt lat="49.2140159606933594" lon="0.3570746183395386"><ele></ele><time>2016-10-9T12:30:39Z</time></trkpt>
<trkpt lat="49.2139625549316406" lon="0.3569498062133789"><ele></ele><time>2016-10-9T12:30:42Z</time></trkpt>
<trkpt lat="49.2138938903808594" lon="0.3567631244659424"><ele></ele><time>2016-10-9T12:30:45Z</time></trkpt>
<trkpt lat="49.2138519287109375" lon="0.3566257655620575"><ele></ele><time>2016-10-9T12:30:48Z</time></trkpt>
<trkpt lat="49.2138099670410156" lon="0.3564862906932831"><ele></ele><time>2016-10-9T12:30:51Z</time></trkpt>
<trkpt lat="49.2137641906738281" lon="0.3563631474971771"><ele></ele><time>2016-10-9T12:30:54Z</time></trkpt>
<trkpt lat="49.2136955261230469" lon="0.3561666905879974"><ele></ele><time>2016-10-9T12:30:57Z</time></trkpt>
<trkpt lat="49.2136611938476562" lon="0.3560418784618378"><ele></ele><time>2016-10-9T12:31:0Z</time></trkpt>
<trkpt lat="49.2136039733886719" lon="0.3558626770973206"><ele></ele><time>2016-10-9T12:31:3Z</time></trkpt>
<trkpt lat="49.2135467529296875" lon="0.3556815385818481"><ele></ele><time>2016-10-9T12:31:6Z</time></trkpt>
<trkpt lat="49.2135047912597656" lon="0.3555677235126495"><ele></ele><time>2016-10-9T12:31:9Z</time></trkpt>
<trkpt lat="49.2134437561035156" lon="0.3554069399833679"><ele></ele><time>2016-10-9T12:31:12Z</time></trkpt>
<trkpt lat="49.2133865356445312" lon="0.3552667200565338"><ele></ele><time>2016-10-9T12:31:15Z</time></trkpt>
<trkpt lat="49.2133560180664062" lon="0.3551764488220215"><ele></ele><time>2016-10-9T12:31:18Z</time></trkpt>
<trkpt lat="49.2133026123046875" lon="0.3550259172916412"><ele></ele><time>2016-10-9T12:31:21Z</time></trkpt>
<trkpt lat="49.2132644653320312" lon="0.3549135923385620"><ele></ele><time>2016-10-9T12:31:24Z</time></trkpt>
<trkpt lat="49.2132072448730469" lon="0.3547500669956207"><ele></ele><time>2016-10-9T12:31:27Z</time></trkpt>
<trkpt lat="49.2131500244140625" lon="0.3545978367328644"><ele></ele><time>2016-10-9T12:31:30Z</time></trkpt>
<trkpt lat="49.2131118774414062" lon="0.3544919788837433"><ele></ele><time>2016-10-9T12:31:33Z</time></trkpt>
<trkpt lat="49.2130508422851562" lon="0.3543334603309631"><ele></ele><time>2016-10-9T12:31:36Z</time></trkpt>
<trkpt lat="49.2130088806152344" lon="0.3542144596576691"><ele></ele><time>2016-10-9T12:31:39Z</time></trkpt>
<trkpt lat="49.2129707336425781" lon="0.3540953397750854"><ele></ele><time>2016-10-9T12:31:42Z</time></trkpt>
<trkpt lat="49.2129287719726562" lon="0.3539849519729614"><ele></ele><time>2016-10-9T12:31:45Z</time></trkpt>
<trkpt lat="49.2128791809082031" lon="0.3538767397403717"><ele></ele><time>2016-10-9T12:31:48Z</time></trkpt>
<trkpt lat="49.2127761840820312" lon="0.3536848127841949"><ele></ele><time>2016-10-9T12:31:51Z</time></trkpt>
<trkpt lat="49.2127532958984375" lon="0.3535054326057434"><ele></ele><time>2016-10-9T12:31:54Z</time></trkpt>
<trkpt lat="49.2127342224121094" lon="0.3533580601215363"><ele></ele><time>2016-10-9T12:31:57Z</time></trkpt>
<trkpt lat="49.2126731872558594" lon="0.3532010018825531"><ele></ele><time>2016-10-9T12:32:0Z</time></trkpt>
<trkpt lat="49.2126159667968750" lon="0.3530363738536835"><ele></ele><time>2016-10-9T12:32:3Z</time></trkpt>
<trkpt lat="49.2125625610351562" lon="0.3528895378112793"><ele></ele><time>2016-10-9T12:32:6Z</time></trkpt>
<trkpt lat="49.2125091552734375" lon="0.3527503907680511"><ele></ele><time>2016-10-9T12:32:9Z</time></trkpt>
<trkpt lat="49.2124595642089844" lon="0.3526083230972290"><ele></ele><time>2016-10-9T12:32:12Z</time></trkpt>
<trkpt lat="49.2124328613281250" lon="0.3525119125843048"><ele></ele><time>2016-10-9T12:32:15Z</time></trkpt>
<trkpt lat="49.2123908996582031" lon="0.3523696660995483"><ele></ele><time>2016-10-9T12:32:18Z</time></trkpt>
<trkpt lat="49.2123565673828125" lon="0.3522738814353943"><ele></ele><time>2016-10-9T12:32:21Z</time></trkpt>
<trkpt lat="49.2122993469238281" lon="0.3521260023117065"><ele></ele><time>2016-10-9T12:32:24Z</time></trkpt>
<trkpt lat="49.2122497558593750" lon="0.3519784808158875"><ele></ele><time>2016-10-9T12:32:27Z</time></trkpt>
<trkpt lat="49.2122154235839844" lon="0.3518763184547424"><ele></ele><time>2016-10-9T12:32:30Z</time></trkpt>
<trkpt lat="49.2121658325195312" lon="0.3517192304134369"><ele></ele><time>2016-10-9T12:32:33Z</time></trkpt>
<trkpt lat="49.2121086120605469" lon="0.3515660166740417"><ele></ele><time>2016-10-9T12:32:36Z</time></trkpt>
<trkpt lat="49.2120742797851562" lon="0.3514640927314758"><ele></ele><time>2016-10-9T12:32:39Z</time></trkpt>
<trkpt lat="49.2120208740234375" lon="0.3513144850730896"><ele></ele><time>2016-10-9T12:32:42Z</time></trkpt>
<trkpt lat="49.2119674682617188" lon="0.3511649370193481"><ele></ele><time>2016-10-9T12:32:45Z</time></trkpt>
<trkpt lat="49.2119140625000000" lon="0.3510163426399231"><ele></ele><time>2016-10-9T12:32:48Z</time></trkpt>
<trkpt lat="49.2118530273437500" lon="0.3508597612380981"><ele></ele><time>2016-10-9T12:32:51Z</time></trkpt>
<trkpt lat="49.2117919921875000" lon="0.3507000803947449"><ele></ele><time>2016-10-9T12:32:54Z</time></trkpt>
<trkpt lat="49.2117500305175781" lon="0.3505912125110626"><ele></ele><time>2016-10-9T12:32:57Z</time></trkpt>
<trkpt lat="49.2116966247558594" lon="0.3504298627376556"><ele></ele><time>2016-10-9T12:33:0Z</time></trkpt>
<trkpt lat="49.2116584777832031" lon="0.3503184616565704"><ele></ele><time>2016-10-9T12:33:3Z</time></trkpt>
<trkpt lat="49.2116165161132812" lon="0.3502017855644226"><ele></ele><time>2016-10-9T12:33:6Z</time></trkpt>
<trkpt lat="49.2115440368652344" lon="0.3500148653984070"><ele></ele><time>2016-10-9T12:33:9Z</time></trkpt>
<trkpt lat="49.2114830017089844" lon="0.3498390018939972"><ele></ele><time>2016-10-9T12:33:12Z</time></trkpt>
<trkpt lat="49.2114486694335938" lon="0.3497171401977539"><ele></ele><time>2016-10-9T12:33:15Z</time></trkpt>
<trkpt lat="49.2113914489746094" lon="0.3495557904243469"><ele></ele><time>2016-10-9T12:33:18Z</time></trkpt>
<trkpt lat="49.2113304138183594" lon="0.3493879735469818"><ele></ele><time>2016-10-9T12:33:21Z</time></trkpt>
<trkpt lat="49.2112922668457031" lon="0.3492651879787445"><ele></ele><time>2016-10-9T12:33:24Z</time></trkpt>
<trkpt lat="49.2112197875976562" lon="0.3490776717662811"><ele></ele><time>2016-10-9T12:33:27Z</time></trkpt>
<trkpt lat="49.2111663818359375" lon="0.3489325046539307"><ele></ele><time>2016-10-9T12:33:30Z</time></trkpt>
<trkpt lat="49.2110977172851562" lon="0.3487321138381958"><ele></ele><time>2016-10-9T12:33:33Z</time></trkpt>
<trkpt lat="49.2110595703125000" lon="0.3486073017120361"><ele></ele><time>2016-10-9T12:33:36Z</time></trkpt>
<trkpt lat="49.2109947204589844" lon="0.3483925461769104"><ele></ele><time>2016-10-9T12:33:39Z</time></trkpt>
<trkpt lat="49.2109451293945312" lon="0.3482530713081360"><ele></ele><time>2016-10-9T12:33:42Z</time></trkpt>
<trkpt lat="49.2108650207519531" lon="0.3480347990989685"><ele></ele><time>2016-10-9T12:33:45Z</time></trkpt>
<trkpt lat="49.2107963562011719" lon="0.3478239178657532"><ele></ele><time>2016-10-9T12:33:48Z</time></trkpt>
<trkpt lat="49.2107467651367188" lon="0.3476895689964294"><ele></ele><time>2016-10-9T12:33:51Z</time></trkpt>
<trkpt lat="49.2106704711914062" lon="0.3474706113338470"><ele></ele><time>2016-10-9T12:33:54Z</time></trkpt>
<trkpt lat="49.2105636596679688" lon="0.3472754061222076"><ele></ele><time>2016-10-9T12:33:57Z</time></trkpt>
<trkpt lat="49.2104911804199219" lon="0.3470392823219299"><ele></ele><time>2016-10-9T12:34:0Z</time></trkpt>
<trkpt lat="49.2104187011718750" lon="0.3468211889266968"><ele></ele><time>2016-10-9T12:34:3Z</time></trkpt>
<trkpt lat="49.2103424072265625" lon="0.3465963900089264"><ele></ele><time>2016-10-9T12:34:6Z</time></trkpt>
<trkpt lat="49.2103080749511719" lon="0.3464363813400269"><ele></ele><time>2016-10-9T12:34:9Z</time></trkpt>
<trkpt lat="49.2102584838867188" lon="0.3462893664836884"><ele></ele><time>2016-10-9T12:34:12Z</time></trkpt>
<trkpt lat="49.2101783752441406" lon="0.3460564315319061"><ele></ele><time>2016-10-9T12:34:15Z</time></trkpt>
<trkpt lat="49.2101135253906250" lon="0.3459058105945587"><ele></ele><time>2016-10-9T12:34:18Z</time></trkpt>
<trkpt lat="49.2100410461425781" lon="0.3456681072711945"><ele></ele><time>2016-10-9T12:34:21Z</time></trkpt>
<trkpt lat="49.2099838256835938" lon="0.3455242514610291"><ele></ele><time>2016-10-9T12:34:24Z</time></trkpt>
<trkpt lat="49.2098884582519531" lon="0.3452760875225067"><ele></ele><time>2016-10-9T12:34:27Z</time></trkpt>
<trkpt lat="49.2098045349121094" lon="0.3449962735176086"><ele></ele><time>2016-10-9T12:34:30Z</time></trkpt>
<trkpt lat="49.2097167968750000" lon="0.3447833061218262"><ele></ele><time>2016-10-9T12:34:33Z</time></trkpt>
<trkpt lat="49.2096557617187500" lon="0.3446238636970520"><ele></ele><time>2016-10-9T12:34:36Z</time></trkpt>
<trkpt lat="49.2096061706542969" lon="0.3444689810276031"><ele></ele><time>2016-10-9T12:34:39Z</time></trkpt>
<trkpt lat="49.2095451354980469" lon="0.3442225456237793"><ele></ele><time>2016-10-9T12:34:42Z</time></trkpt>
<trkpt lat="49.2094612121582031" lon="0.3439671695232391"><ele></ele><time>2016-10-9T12:34:45Z</time></trkpt>
<trkpt lat="49.2093925476074219" lon="0.3437919616699219"><ele></ele><time>2016-10-9T12:34:48Z</time></trkpt>
<trkpt lat="49.2092742919921875" lon="0.3435654044151306"><ele></ele><time>2016-10-9T12:34:51Z</time></trkpt>
<trkpt lat="49.2091827392578125" lon="0.3432854413986206"><ele></ele><time>2016-10-9T12:34:54Z</time></trkpt>
<trkpt lat="49.2090682983398438" lon="0.3430136442184448"><ele></ele><time>2016-10-9T12:34:57Z</time></trkpt>
<trkpt lat="49.2089958190917969" lon="0.3428265452384949"><ele></ele><time>2016-10-9T12:35:0Z</time></trkpt>
<trkpt lat="49.2089385986328125" lon="0.3426252007484436"><ele></ele><time>2016-10-9T12:35:3Z</time></trkpt>
<trkpt lat="49.2088699340820312" lon="0.3423954546451569"><ele></ele><time>2016-10-9T12:35:6Z</time></trkpt>
<trkpt lat="49.2087974548339844" lon="0.3420869410037994"><ele></ele><time>2016-10-9T12:35:9Z</time></trkpt>
<trkpt lat="49.2086753845214844" lon="0.3418130874633789"><ele></ele><time>2016-10-9T12:35:12Z</time></trkpt>
<trkpt lat="49.2085952758789062" lon="0.3416511416435242"><ele></ele><time>2016-10-9T12:35:15Z</time></trkpt>
<trkpt lat="49.2085189819335938" lon="0.3413726091384888"><ele></ele><time>2016-10-9T12:35:18Z</time></trkpt>
<trkpt lat="49.2084426879882812" lon="0.3411915600299835"><ele></ele><time>2016-10-9T12:35:21Z</time></trkpt>
<trkpt lat="49.2083244323730469" lon="0.3408903181552887"><ele></ele><time>2016-10-9T12:35:24Z</time></trkpt>
<trkpt lat="49.2082405090332031" lon="0.3406840562820435"><ele></ele><time>2016-10-9T12:35:27Z</time></trkpt>
<trkpt lat="49.2081756591796875" lon="0.3404624164104462"><ele></ele><time>2016-10-9T12:35:30Z</time></trkpt>
<trkpt lat="49.2080650329589844" lon="0.3401968777179718"><ele></ele><time>2016-10-9T12:35:33Z</time></trkpt>
<trkpt lat="49.2079734802246094" lon="0.3398455977439880"><ele></ele><time>2016-10-9T12:35:36Z</time></trkpt>
<trkpt lat="49.2079086303710938" lon="0.3396643102169037"><ele></ele><time>2016-10-9T12:35:39Z</time></trkpt>
<trkpt lat="49.2078132629394531" lon="0.3394001126289368"><ele></ele><time>2016-10-9T12:35:42Z</time></trkpt>
<trkpt lat="49.2077827453613281" lon="0.3392124474048615"><ele></ele><time>2016-10-9T12:35:45Z</time></trkpt>
<trkpt lat="49.2076873779296875" lon="0.3388790190219879"><ele></ele><time>2016-10-9T12:35:48Z</time></trkpt>
<trkpt lat="49.2075881958007812" lon="0.3385975360870361"><ele></ele><time>2016-10-9T12:35:51Z</time></trkpt>
<trkpt lat="49.2074890136718750" lon="0.3383758366107941"><ele></ele><time>2016-10-9T12:35:54Z</time></trkpt>
<trkpt lat="49.2074279785156250" lon="0.3381573259830475"><ele></ele><time>2016-10-9T12:35:57Z</time></trkpt>
<trkpt lat="49.2073745727539062" lon="0.3379726707935333"><ele></ele><time>2016-10-9T12:36:0Z</time></trkpt>
<trkpt lat="49.2072753906250000" lon="0.3377141654491425"><ele></ele><time>2016-10-9T12:36:3Z</time></trkpt>
<trkpt lat="49.2071647644042969" lon="0.3374569416046143"><ele></ele><time>2016-10-9T12:36:6Z</time></trkpt>
<trkpt lat="49.2071495056152344" lon="0.3373136818408966"><ele></ele><time>2016-10-9T12:36:9Z</time></trkpt>
<trkpt lat="49.2070159912109375" lon="0.3370713591575623"><ele></ele><time>2016-10-9T12:36:12Z</time></trkpt>
<trkpt lat="49.2069511413574219" lon="0.3368982672691345"><ele></ele><time>2016-10-9T12:36:15Z</time></trkpt>
<trkpt lat="49.2068595886230469" lon="0.3366658389568329"><ele></ele><time>2016-10-9T12:36:18Z</time></trkpt>
<trkpt lat="49.2068023681640625" lon="0.3364617526531219"><ele></ele><time>2016-10-9T12:36:21Z</time></trkpt>
<trkpt lat="49.2066841125488281" lon="0.3362987935543060"><ele></ele><time>2016-10-9T12:36:24Z</time></trkpt>
<trkpt lat="49.2066764831542969" lon="0.3360925316810608"><ele></ele><time>2016-10-9T12:36:27Z</time></trkpt>
<trkpt lat="49.2066383361816406" lon="0.3359557390213013"><ele></ele><time>2016-10-9T12:36:30Z</time></trkpt>
<trkpt lat="49.2065925598144531" lon="0.3358350396156311"><ele></ele><time>2016-10-9T12:36:33Z</time></trkpt>
<trkpt lat="49.2065353393554688" lon="0.3357037007808685"><ele></ele><time>2016-10-9T12:36:36Z</time></trkpt>
<trkpt lat="49.2064628601074219" lon="0.3354678153991699"><ele></ele><time>2016-10-9T12:36:39Z</time></trkpt>
<trkpt lat="49.2063713073730469" lon="0.3352172076702118"><ele></ele><time>2016-10-9T12:36:42Z</time></trkpt>
<trkpt lat="49.2062950134277344" lon="0.3349492251873016"><ele></ele><time>2016-10-9T12:36:45Z</time></trkpt>
<trkpt lat="49.2062492370605469" lon="0.3347122669219971"><ele></ele><time>2016-10-9T12:36:48Z</time></trkpt>
<trkpt lat="49.2061462402343750" lon="0.3344186544418335"><ele></ele><time>2016-10-9T12:36:51Z</time></trkpt>
<trkpt lat="49.2060890197753906" lon="0.3341716527938843"><ele></ele><time>2016-10-9T12:36:54Z</time></trkpt>
<trkpt lat="49.2060546875000000" lon="0.3340367078781128"><ele></ele><time>2016-10-9T12:36:57Z</time></trkpt>
<trkpt lat="49.2060012817382812" lon="0.3338953852653503"><ele></ele><time>2016-10-9T12:37:0Z</time></trkpt>
<trkpt lat="49.2059288024902344" lon="0.3336800336837769"><ele></ele><time>2016-10-9T12:37:3Z</time></trkpt>
<trkpt lat="49.2058906555175781" lon="0.3335281610488892"><ele></ele><time>2016-10-9T12:37:6Z</time></trkpt>
<trkpt lat="49.2058372497558594" lon="0.3333378136157990"><ele></ele><time>2016-10-9T12:37:9Z</time></trkpt>
<trkpt lat="49.2057991027832031" lon="0.3332053720951080"><ele></ele><time>2016-10-9T12:37:12Z</time></trkpt>
<trkpt lat="49.2057342529296875" lon="0.3330023586750031"><ele></ele><time>2016-10-9T12:37:15Z</time></trkpt>
<trkpt lat="49.2056922912597656" lon="0.3328850269317627"><ele></ele><time>2016-10-9T12:37:18Z</time></trkpt>
<trkpt lat="49.2056541442871094" lon="0.3327654898166656"><ele></ele><time>2016-10-9T12:37:21Z</time></trkpt>
<trkpt lat="49.2056198120117188" lon="0.3326103389263153"><ele></ele><time>2016-10-9T12:37:24Z</time></trkpt>
<trkpt lat="49.2055892944335938" lon="0.3324796855449677"><ele></ele><time>2016-10-9T12:37:27Z</time></trkpt>
<trkpt lat="49.2055511474609375" lon="0.3323541879653931"><ele></ele><time>2016-10-9T12:37:30Z</time></trkpt>
<trkpt lat="49.2054939270019531" lon="0.3321708738803864"><ele></ele><time>2016-10-9T12:37:33Z</time></trkpt>
<trkpt lat="49.2054405212402344" lon="0.3320067524909973"><ele></ele><time>2016-10-9T12:37:36Z</time></trkpt>
<trkpt lat="49.2054138183593750" lon="0.3318834602832794"><ele></ele><time>2016-10-9T12:37:39Z</time></trkpt>
<trkpt lat="49.2053833007812500" lon="0.3317663669586182"><ele></ele><time>2016-10-9T12:37:42Z</time></trkpt>
<trkpt lat="49.2053375244140625" lon="0.3316132426261902"><ele></ele><time>2016-10-9T12:37:45Z</time></trkpt>
<trkpt lat="49.2052803039550781" lon="0.3314034342765808"><ele></ele><time>2016-10-9T12:37:48Z</time></trkpt>
<trkpt lat="49.2052345275878906" lon="0.3312104046344757"><ele></ele><time>2016-10-9T12:37:51Z</time></trkpt>
<trkpt lat="49.2052078247070312" lon="0.3310995995998383"><ele></ele><time>2016-10-9T12:37:54Z</time></trkpt>
<trkpt lat="49.2051429748535156" lon="0.3309308588504791"><ele></ele><time>2016-10-9T12:37:57Z</time></trkpt>
<trkpt lat="49.2051124572753906" lon="0.3307982683181763"><ele></ele><time>2016-10-9T12:38:0Z</time></trkpt>
<trkpt lat="49.2050666809082031" lon="0.3306202292442322"><ele></ele><time>2016-10-9T12:38:3Z</time></trkpt>
<trkpt lat="49.2050247192382812" lon="0.3304314613342285"><ele></ele><time>2016-10-9T12:38:6Z</time></trkpt>
<trkpt lat="49.2049903869628906" lon="0.3303215801715851"><ele></ele><time>2016-10-9T12:38:9Z</time></trkpt>
<trkpt lat="49.2049407958984375" lon="0.3301593959331512"><ele></ele><time>2016-10-9T12:38:12Z</time></trkpt>
<trkpt lat="49.2049255371093750" lon="0.3300456404685974"><ele></ele><time>2016-10-9T12:38:15Z</time></trkpt>
<trkpt lat="49.2048873901367188" lon="0.3298938572406769"><ele></ele><time>2016-10-9T12:38:18Z</time></trkpt>
<trkpt lat="49.2048416137695312" lon="0.3297669589519501"><ele></ele><time>2016-10-9T12:38:21Z</time></trkpt>
<trkpt lat="49.2047767639160156" lon="0.3295836448669434"><ele></ele><time>2016-10-9T12:38:24Z</time></trkpt>
<trkpt lat="49.2047195434570312" lon="0.3293746709823608"><ele></ele><time>2016-10-9T12:38:27Z</time></trkpt>
<trkpt lat="49.2046852111816406" lon="0.3292188644409180"><ele></ele><time>2016-10-9T12:38:30Z</time></trkpt>
<trkpt lat="49.2046394348144531" lon="0.3290804624557495"><ele></ele><time>2016-10-9T12:38:33Z</time></trkpt>
<trkpt lat="49.2045707702636719" lon="0.3288944065570831"><ele></ele><time>2016-10-9T12:38:36Z</time></trkpt>
<trkpt lat="49.2045097351074219" lon="0.3286742866039276"><ele></ele><time>2016-10-9T12:38:39Z</time></trkpt>
<trkpt lat="49.2044715881347656" lon="0.3285428583621979"><ele></ele><time>2016-10-9T12:38:42Z</time></trkpt>
<trkpt lat="49.2044105529785156" lon="0.3283679187297821"><ele></ele><time>2016-10-9T12:38:45Z</time></trkpt>
<trkpt lat="49.2043533325195312" lon="0.3282241821289062"><ele></ele><time>2016-10-9T12:38:48Z</time></trkpt>
<trkpt lat="49.2043151855468750" lon="0.3280879855155945"><ele></ele><time>2016-10-9T12:38:51Z</time></trkpt>
<trkpt lat="49.2042465209960938" lon="0.3278807699680328"><ele></ele><time>2016-10-9T12:38:54Z</time></trkpt>
<trkpt lat="49.2041969299316406" lon="0.3277088701725006"><ele></ele><time>2016-10-9T12:38:57Z</time></trkpt>
<trkpt lat="49.2041549682617188" lon="0.3276038467884064"><ele></ele><time>2016-10-9T12:39:0Z</time></trkpt>
<trkpt lat="49.2041282653808594" lon="0.3272837400436401"><ele></ele><time>2016-10-9T12:39:3Z</time></trkpt>
<trkpt lat="49.2040252685546875" lon="0.3270560801029205"><ele></ele><time>2016-10-9T12:39:6Z</time></trkpt>
<trkpt lat="49.2039909362792969" lon="0.3268950581550598"><ele></ele><time>2016-10-9T12:39:9Z</time></trkpt>
<trkpt lat="49.2039680480957031" lon="0.3267008662223816"><ele></ele><time>2016-10-9T12:39:12Z</time></trkpt>
<trkpt lat="49.2038841247558594" lon="0.3264499008655548"><ele></ele><time>2016-10-9T12:39:15Z</time></trkpt>
<trkpt lat="49.2038040161132812" lon="0.3261766433715820"><ele></ele><time>2016-10-9T12:39:18Z</time></trkpt>
<trkpt lat="49.2037467956542969" lon="0.3259892165660858"><ele></ele><time>2016-10-9T12:39:21Z</time></trkpt>
<trkpt lat="49.2036514282226562" lon="0.3257629275321960"><ele></ele><time>2016-10-9T12:39:24Z</time></trkpt>
<trkpt lat="49.2035560607910156" lon="0.3255003094673157"><ele></ele><time>2016-10-9T12:39:27Z</time></trkpt>
<trkpt lat="49.2034988403320312" lon="0.3253536224365234"><ele></ele><time>2016-10-9T12:39:30Z</time></trkpt>
<trkpt lat="49.2034187316894531" lon="0.3251089751720428"><ele></ele><time>2016-10-9T12:39:33Z</time></trkpt>
<trkpt lat="49.2033767700195312" lon="0.3249089717864990"><ele></ele><time>2016-10-9T12:39:36Z</time></trkpt>
<trkpt lat="49.2032661437988281" lon="0.3246965706348419"><ele></ele><time>2016-10-9T12:39:39Z</time></trkpt>
<trkpt lat="49.2031784057617188" lon="0.3244852721691132"><ele></ele><time>2016-10-9T12:39:42Z</time></trkpt>
<trkpt lat="49.2031288146972656" lon="0.3243193030357361"><ele></ele><time>2016-10-9T12:39:45Z</time></trkpt>
<trkpt lat="49.2030525207519531" lon="0.3240885436534882"><ele></ele><time>2016-10-9T12:39:48Z</time></trkpt>
<trkpt lat="49.2029685974121094" lon="0.3238752186298370"><ele></ele><time>2016-10-9T12:39:51Z</time></trkpt>
<trkpt lat="49.2029266357421875" lon="0.3237301409244537"><ele></ele><time>2016-10-9T12:39:54Z</time></trkpt>
<trkpt lat="49.2028427124023438" lon="0.3235230147838593"><ele></ele><time>2016-10-9T12:39:57Z</time></trkpt>
<trkpt lat="49.2027702331542969" lon="0.3232817053794861"><ele></ele><time>2016-10-9T12:40:0Z</time></trkpt>
<trkpt lat="49.2027015686035156" lon="0.3230440914630890"><ele></ele><time>2016-10-9T12:40:3Z</time></trkpt>
<trkpt lat="49.2026290893554688" lon="0.3228463530540466"><ele></ele><time>2016-10-9T12:40:6Z</time></trkpt>
<trkpt lat="49.2025527954101562" lon="0.3226150870323181"><ele></ele><time>2016-10-9T12:40:9Z</time></trkpt>
<trkpt lat="49.2025146484375000" lon="0.3224939703941345"><ele></ele><time>2016-10-9T12:40:12Z</time></trkpt>
<trkpt lat="49.2024307250976562" lon="0.3222731947898865"><ele></ele><time>2016-10-9T12:40:15Z</time></trkpt>
<trkpt lat="49.2023811340332031" lon="0.3221325576305389"><ele></ele><time>2016-10-9T12:40:18Z</time></trkpt>
<trkpt lat="49.2023391723632812" lon="0.3219830989837646"><ele></ele><time>2016-10-9T12:40:21Z</time></trkpt>
<trkpt lat="49.2022819519042969" lon="0.3217790126800537"><ele></ele><time>2016-10-9T12:40:24Z</time></trkpt>
<trkpt lat="49.2022399902343750" lon="0.3216575384140015"><ele></ele><time>2016-10-9T12:40:27Z</time></trkpt>
<trkpt lat="49.2021713256835938" lon="0.3214762508869171"><ele></ele><time>2016-10-9T12:40:30Z</time></trkpt>
<trkpt lat="49.2021026611328125" lon="0.3212917745113373"><ele></ele><time>2016-10-9T12:40:33Z</time></trkpt>
<trkpt lat="49.2020530700683594" lon="0.3211761713027954"><ele></ele><time>2016-10-9T12:40:36Z</time></trkpt>
<trkpt lat="49.2019996643066406" lon="0.3209926187992096"><ele></ele><time>2016-10-9T12:40:39Z</time></trkpt>
<trkpt lat="49.2019653320312500" lon="0.3208864927291870"><ele></ele><time>2016-10-9T12:40:42Z</time></trkpt>
<trkpt lat="49.2018890380859375" lon="0.3207134008407593"><ele></ele><time>2016-10-9T12:40:45Z</time></trkpt>
<trkpt lat="49.2018318176269531" lon="0.3205168545246124"><ele></ele><time>2016-10-9T12:40:48Z</time></trkpt>
<trkpt lat="49.2017936706542969" lon="0.3203977346420288"><ele></ele><time>2016-10-9T12:40:51Z</time></trkpt>
<trkpt lat="49.2017440795898438" lon="0.3202399015426636"><ele></ele><time>2016-10-9T12:40:54Z</time></trkpt>
<trkpt lat="49.2016792297363281" lon="0.3200702667236328"><ele></ele><time>2016-10-9T12:40:57Z</time></trkpt>
<trkpt lat="49.2016296386718750" lon="0.3198974430561066"><ele></ele><time>2016-10-9T12:41:0Z</time></trkpt>
<trkpt lat="49.2015876770019531" lon="0.3197875320911407"><ele></ele><time>2016-10-9T12:41:3Z</time></trkpt>
<trkpt lat="49.2015266418457031" lon="0.3196185529232025"><ele></ele><time>2016-10-9T12:41:6Z</time></trkpt>
<trkpt lat="49.2014579772949219" lon="0.3194442093372345"><ele></ele><time>2016-10-9T12:41:9Z</time></trkpt>
<trkpt lat="49.2013931274414062" lon="0.3192561268806458"><ele></ele><time>2016-10-9T12:41:12Z</time></trkpt>
<trkpt lat="49.2013511657714844" lon="0.3191474080085754"><ele></ele><time>2016-10-9T12:41:15Z</time></trkpt>
<trkpt lat="49.2012863159179688" lon="0.3189470171928406"><ele></ele><time>2016-10-9T12:41:18Z</time></trkpt>
<trkpt lat="49.2012329101562500" lon="0.3187651932239532"><ele></ele><time>2016-10-9T12:41:21Z</time></trkpt>
<trkpt lat="49.2011947631835938" lon="0.3186509609222412"><ele></ele><time>2016-10-9T12:41:24Z</time></trkpt>
<trkpt lat="49.2011337280273438" lon="0.3184651434421539"><ele></ele><time>2016-10-9T12:41:27Z</time></trkpt>
<trkpt lat="49.2010803222656250" lon="0.3183397352695465"><ele></ele><time>2016-10-9T12:41:30Z</time></trkpt>
<trkpt lat="49.2010078430175781" lon="0.3181340396404266"><ele></ele><time>2016-10-9T12:41:33Z</time></trkpt>
<trkpt lat="49.2009582519531250" lon="0.3179007768630981"><ele></ele><time>2016-10-9T12:41:36Z</time></trkpt>
<trkpt lat="49.2009048461914062" lon="0.3177746236324310"><ele></ele><time>2016-10-9T12:41:39Z</time></trkpt>
<trkpt lat="49.2008323669433594" lon="0.3175583779811859"><ele></ele><time>2016-10-9T12:41:42Z</time></trkpt>
<trkpt lat="49.2007713317871094" lon="0.3173598051071167"><ele></ele><time>2016-10-9T12:41:45Z</time></trkpt>
<trkpt lat="49.2006950378417969" lon="0.3171691298484802"><ele></ele><time>2016-10-9T12:41:48Z</time></trkpt>
<trkpt lat="49.2006378173828125" lon="0.3170413076877594"><ele></ele><time>2016-10-9T12:41:51Z</time></trkpt>
<trkpt lat="49.2005920410156250" lon="0.3169057667255402"><ele></ele><time>2016-10-9T12:41:54Z</time></trkpt>
<trkpt lat="49.2005386352539062" lon="0.3167000710964203"><ele></ele><time>2016-10-9T12:41:57Z</time></trkpt>
<trkpt lat="49.2005004882812500" lon="0.3165863156318665"><ele></ele><time>2016-10-9T12:42:0Z</time></trkpt>
<trkpt lat="49.2004547119140625" lon="0.3164366185665131"><ele></ele><time>2016-10-9T12:42:3Z</time></trkpt>
<trkpt lat="49.2003707885742188" lon="0.3162492811679840"><ele></ele><time>2016-10-9T12:42:6Z</time></trkpt>
<trkpt lat="49.2003173828125000" lon="0.3160977363586426"><ele></ele><time>2016-10-9T12:42:9Z</time></trkpt>
<trkpt lat="49.2002754211425781" lon="0.3159580230712891"><ele></ele><time>2016-10-9T12:42:12Z</time></trkpt>
<trkpt lat="49.2001991271972656" lon="0.3157067298889160"><ele></ele><time>2016-10-9T12:42:15Z</time></trkpt>
<trkpt lat="49.2001228332519531" lon="0.3154835999011993"><ele></ele><time>2016-10-9T12:42:18Z</time></trkpt>
<trkpt lat="49.2000312805175781" lon="0.3152291178703308"><ele></ele><time>2016-10-9T12:42:21Z</time></trkpt>
<trkpt lat="49.1999740600585938" lon="0.3150762319564819"><ele></ele><time>2016-10-9T12:42:24Z</time></trkpt>
<trkpt lat="49.1998825073242188" lon="0.3148408830165863"><ele></ele><time>2016-10-9T12:42:27Z</time></trkpt>
<trkpt lat="49.1998291015625000" lon="0.3147167563438416"><ele></ele><time>2016-10-9T12:42:30Z</time></trkpt>
<trkpt lat="49.1997337341308594" lon="0.3145058453083038"><ele></ele><time>2016-10-9T12:42:33Z</time></trkpt>
<trkpt lat="49.1996803283691406" lon="0.3142818808555603"><ele></ele><time>2016-10-9T12:42:36Z</time></trkpt>
<trkpt lat="49.1996040344238281" lon="0.3140617907047272"><ele></ele><time>2016-10-9T12:42:39Z</time></trkpt>
<trkpt lat="49.1995697021484375" lon="0.3138939738273621"><ele></ele><time>2016-10-9T12:42:42Z</time></trkpt>
<trkpt lat="49.1995162963867188" lon="0.3137534260749817"><ele></ele><time>2016-10-9T12:42:45Z</time></trkpt>
<trkpt lat="49.1994590759277344" lon="0.3136195540428162"><ele></ele><time>2016-10-9T12:42:48Z</time></trkpt>
<trkpt lat="49.1993865966796875" lon="0.3134324550628662"><ele></ele><time>2016-10-9T12:42:51Z</time></trkpt>
<trkpt lat="49.1992912292480469" lon="0.3132050633430481"><ele></ele><time>2016-10-9T12:42:54Z</time></trkpt>
<trkpt lat="49.1992073059082031" lon="0.3129725456237793"><ele></ele><time>2016-10-9T12:42:57Z</time></trkpt>
<trkpt lat="49.1991539001464844" lon="0.3128241896629333"><ele></ele><time>2016-10-9T12:43:0Z</time></trkpt>
<trkpt lat="49.1991081237792969" lon="0.3126849830150604"><ele></ele><time>2016-10-9T12:43:3Z</time></trkpt>
<trkpt lat="49.1990318298339844" lon="0.3124591708183289"><ele></ele><time>2016-10-9T12:43:6Z</time></trkpt>
<trkpt lat="49.1989974975585938" lon="0.3123067915439606"><ele></ele><time>2016-10-9T12:43:9Z</time></trkpt>
<trkpt lat="49.1989555358886719" lon="0.3121615350246429"><ele></ele><time>2016-10-9T12:43:12Z</time></trkpt>
<trkpt lat="49.1988716125488281" lon="0.3119633793830872"><ele></ele><time>2016-10-9T12:43:15Z</time></trkpt>
<trkpt lat="49.1988182067871094" lon="0.3118319511413574"><ele></ele><time>2016-10-9T12:43:18Z</time></trkpt>
<trkpt lat="49.1987571716308594" lon="0.3116382360458374"><ele></ele><time>2016-10-9T12:43:21Z</time></trkpt>
<trkpt lat="49.1986885070800781" lon="0.3114439547061920"><ele></ele><time>2016-10-9T12:43:24Z</time></trkpt>
<trkpt lat="49.1986351013183594" lon="0.3113235831260681"><ele></ele><time>2016-10-9T12:43:27Z</time></trkpt>
<trkpt lat="49.1985702514648438" lon="0.3111396133899689"><ele></ele><time>2016-10-9T12:43:30Z</time></trkpt>
<trkpt lat="49.1985282897949219" lon="0.3110370039939880"><ele></ele><time>2016-10-9T12:43:33Z</time></trkpt>
<trkpt lat="49.1984901428222656" lon="0.3108995556831360"><ele></ele><time>2016-10-9T12:43:36Z</time></trkpt>
<trkpt lat="49.1984329223632812" lon="0.3107394576072693"><ele></ele><time>2016-10-9T12:43:39Z</time></trkpt>
<trkpt lat="49.1983757019042969" lon="0.3105904161930084"><ele></ele><time>2016-10-9T12:43:42Z</time></trkpt>
<trkpt lat="49.1983299255371094" lon="0.3104860484600067"><ele></ele><time>2016-10-9T12:43:45Z</time></trkpt>
<trkpt lat="49.1982917785644531" lon="0.3103930950164795"><ele></ele><time>2016-10-9T12:43:48Z</time></trkpt>
<trkpt lat="49.1982192993164062" lon="0.3102186918258667"><ele></ele><time>2016-10-9T12:43:51Z</time></trkpt>
<trkpt lat="49.1981430053710938" lon="0.3100640475749969"><ele></ele><time>2016-10-9T12:43:54Z</time></trkpt>
<trkpt lat="49.1980857849121094" lon="0.3099632859230042"><ele></ele><time>2016-10-9T12:43:57Z</time></trkpt>
<trkpt lat="49.1980018615722656" lon="0.3098132610321045"><ele></ele><time>2016-10-9T12:44:0Z</time></trkpt>
<trkpt lat="49.1979179382324219" lon="0.3096752762794495"><ele></ele><time>2016-10-9T12:44:3Z</time></trkpt>
<trkpt lat="49.1978340148925781" lon="0.3095299303531647"><ele></ele><time>2016-10-9T12:44:6Z</time></trkpt>
<trkpt lat="49.1977424621582031" lon="0.3093968331813812"><ele></ele><time>2016-10-9T12:44:9Z</time></trkpt>
<trkpt lat="49.1976242065429688" lon="0.3092867732048035"><ele></ele><time>2016-10-9T12:44:12Z</time></trkpt>
<trkpt lat="49.1975440979003906" lon="0.3092027902603149"><ele></ele><time>2016-10-9T12:44:15Z</time></trkpt>
<trkpt lat="49.1974868774414062" lon="0.3091337382793427"><ele></ele><time>2016-10-9T12:44:18Z</time></trkpt>
<trkpt lat="49.1974182128906250" lon="0.3090462982654572"><ele></ele><time>2016-10-9T12:44:21Z</time></trkpt>
<trkpt lat="49.1973190307617188" lon="0.3089185655117035"><ele></ele><time>2016-10-9T12:44:24Z</time></trkpt>
<trkpt lat="49.1972122192382812" lon="0.3088025450706482"><ele></ele><time>2016-10-9T12:44:27Z</time></trkpt>
<trkpt lat="49.1971435546875000" lon="0.3087172210216522"><ele></ele><time>2016-10-9T12:44:30Z</time></trkpt>
<trkpt lat="49.1970443725585938" lon="0.3085959553718567"><ele></ele><time>2016-10-9T12:44:33Z</time></trkpt>
<trkpt lat="49.1969451904296875" lon="0.3084667921066284"><ele></ele><time>2016-10-9T12:44:36Z</time></trkpt>
<trkpt lat="49.1968688964843750" lon="0.3083792626857758"><ele></ele><time>2016-10-9T12:44:39Z</time></trkpt>
<trkpt lat="49.1967582702636719" lon="0.3082468509674072"><ele></ele><time>2016-10-9T12:44:42Z</time></trkpt>
<trkpt lat="49.1966857910156250" lon="0.3081575632095337"><ele></ele><time>2016-10-9T12:44:45Z</time></trkpt>
<trkpt lat="49.1965866088867188" lon="0.3080293238162994"><ele></ele><time>2016-10-9T12:44:48Z</time></trkpt>
<trkpt lat="49.1964797973632812" lon="0.3079041838645935"><ele></ele><time>2016-10-9T12:44:51Z</time></trkpt>
<trkpt lat="49.1964111328125000" lon="0.3078124821186066"><ele></ele><time>2016-10-9T12:44:54Z</time></trkpt>
<trkpt lat="49.1963386535644531" lon="0.3077336251735687"><ele></ele><time>2016-10-9T12:44:57Z</time></trkpt>
<trkpt lat="49.1962699890136719" lon="0.3076498806476593"><ele></ele><time>2016-10-9T12:45:0Z</time></trkpt>
<trkpt lat="49.1961975097656250" lon="0.3075660467147827"><ele></ele><time>2016-10-9T12:45:3Z</time></trkpt>
<trkpt lat="49.1961212158203125" lon="0.3074831664562225"><ele></ele><time>2016-10-9T12:45:6Z</time></trkpt>
<trkpt lat="49.1960105895996094" lon="0.3073548376560211"><ele></ele><time>2016-10-9T12:45:9Z</time></trkpt>
<trkpt lat="49.1959037780761719" lon="0.3072400987148285"><ele></ele><time>2016-10-9T12:45:12Z</time></trkpt>
<trkpt lat="49.1958312988281250" lon="0.3071632385253906"><ele></ele><time>2016-10-9T12:45:15Z</time></trkpt>
<trkpt lat="49.1957130432128906" lon="0.3070594668388367"><ele></ele><time>2016-10-9T12:45:18Z</time></trkpt>
<trkpt lat="49.1956443786621094" lon="0.3069721162319183"><ele></ele><time>2016-10-9T12:45:21Z</time></trkpt>
<trkpt lat="49.1955223083496094" lon="0.3068312108516693"><ele></ele><time>2016-10-9T12:45:24Z</time></trkpt>
<trkpt lat="49.1954460144042969" lon="0.3067364096641541"><ele></ele><time>2016-10-9T12:45:27Z</time></trkpt>
<trkpt lat="49.1953659057617188" lon="0.3066231906414032"><ele></ele><time>2016-10-9T12:45:30Z</time></trkpt>
<trkpt lat="49.1952247619628906" lon="0.3065011501312256"><ele></ele><time>2016-10-9T12:45:33Z</time></trkpt>
<trkpt lat="49.1951789855957031" lon="0.3064326643943787"><ele></ele><time>2016-10-9T12:45:36Z</time></trkpt>
<trkpt lat="49.1950531005859375" lon="0.3063233494758606"><ele></ele><time>2016-10-9T12:45:39Z</time></trkpt>
<trkpt lat="49.1949844360351562" lon="0.3061700463294983"><ele></ele><time>2016-10-9T12:45:42Z</time></trkpt>
<trkpt lat="49.1948966979980469" lon="0.3060724735260010"><ele></ele><time>2016-10-9T12:45:45Z</time></trkpt>
<trkpt lat="49.1948127746582031" lon="0.3059746623039246"><ele></ele><time>2016-10-9T12:45:48Z</time></trkpt>
<trkpt lat="49.1946945190429688" lon="0.3058853149414062"><ele></ele><time>2016-10-9T12:45:51Z</time></trkpt>
<trkpt lat="49.1945762634277344" lon="0.3057652115821838"><ele></ele><time>2016-10-9T12:45:54Z</time></trkpt>
<trkpt lat="49.1944808959960938" lon="0.3056282401084900"><ele></ele><time>2016-10-9T12:45:57Z</time></trkpt>
<trkpt lat="49.1944122314453125" lon="0.3055420815944672"><ele></ele><time>2016-10-9T12:46:0Z</time></trkpt>
<trkpt lat="49.1943016052246094" lon="0.3054064512252808"><ele></ele><time>2016-10-9T12:46:3Z</time></trkpt>
<trkpt lat="49.1941947937011719" lon="0.3052358031272888"><ele></ele><time>2016-10-9T12:46:6Z</time></trkpt>
<trkpt lat="49.1941299438476562" lon="0.3051122426986694"><ele></ele><time>2016-10-9T12:46:9Z</time></trkpt>
<trkpt lat="49.1939888000488281" lon="0.3049660623073578"><ele></ele><time>2016-10-9T12:46:12Z</time></trkpt>
<trkpt lat="49.1938591003417969" lon="0.3048303723335266"><ele></ele><time>2016-10-9T12:46:15Z</time></trkpt>
<trkpt lat="49.1937141418457031" lon="0.3046787381172180"><ele></ele><time>2016-10-9T12:46:18Z</time></trkpt>
<trkpt lat="49.1936225891113281" lon="0.3045940995216370"><ele></ele><time>2016-10-9T12:46:21Z</time></trkpt>
<trkpt lat="49.1935119628906250" lon="0.3044336438179016"><ele></ele><time>2016-10-9T12:46:24Z</time></trkpt>
<trkpt lat="49.1934013366699219" lon="0.3042957782745361"><ele></ele><time>2016-10-9T12:46:27Z</time></trkpt>
<trkpt lat="49.1933250427246094" lon="0.3042065203189850"><ele></ele><time>2016-10-9T12:46:30Z</time></trkpt>
<trkpt lat="49.1931915283203125" lon="0.3040617406368256"><ele></ele><time>2016-10-9T12:46:33Z</time></trkpt>
<trkpt lat="49.1930770874023438" lon="0.3039218485355377"><ele></ele><time>2016-10-9T12:46:36Z</time></trkpt>
<trkpt lat="49.1929588317871094" lon="0.3037764430046082"><ele></ele><time>2016-10-9T12:46:39Z</time></trkpt>
<trkpt lat="49.1928863525390625" lon="0.3036677241325378"><ele></ele><time>2016-10-9T12:46:42Z</time></trkpt>
<trkpt lat="49.1927757263183594" lon="0.3035745918750763"><ele></ele><time>2016-10-9T12:46:45Z</time></trkpt>
<trkpt lat="49.1926689147949219" lon="0.3034606873989105"><ele></ele><time>2016-10-9T12:46:48Z</time></trkpt>
<trkpt lat="49.1925544738769531" lon="0.3033444285392761"><ele></ele><time>2016-10-9T12:46:51Z</time></trkpt>
<trkpt lat="49.1924438476562500" lon="0.3031980693340302"><ele></ele><time>2016-10-9T12:46:54Z</time></trkpt>
<trkpt lat="49.1923370361328125" lon="0.3030554950237274"><ele></ele><time>2016-10-9T12:46:57Z</time></trkpt>
<trkpt lat="49.1922187805175781" lon="0.3029401600360870"><ele></ele><time>2016-10-9T12:47:0Z</time></trkpt>
<trkpt lat="49.1921081542968750" lon="0.3027989268302917"><ele></ele><time>2016-10-9T12:47:3Z</time></trkpt>
<trkpt lat="49.1919860839843750" lon="0.3026754558086395"><ele></ele><time>2016-10-9T12:47:6Z</time></trkpt>
<trkpt lat="49.1918640136718750" lon="0.3025235831737518"><ele></ele><time>2016-10-9T12:47:9Z</time></trkpt>
<trkpt lat="49.1917457580566406" lon="0.3023708760738373"><ele></ele><time>2016-10-9T12:47:12Z</time></trkpt>
<trkpt lat="49.1916160583496094" lon="0.3022493422031403"><ele></ele><time>2016-10-9T12:47:15Z</time></trkpt>
<trkpt lat="49.1915130615234375" lon="0.3021258711814880"><ele></ele><time>2016-10-9T12:47:18Z</time></trkpt>
<trkpt lat="49.1914215087890625" lon="0.3020425438880920"><ele></ele><time>2016-10-9T12:47:21Z</time></trkpt>
<trkpt lat="49.1913337707519531" lon="0.3018920123577118"><ele></ele><time>2016-10-9T12:47:24Z</time></trkpt>
<trkpt lat="49.1912231445312500" lon="0.3017370402812958"><ele></ele><time>2016-10-9T12:47:27Z</time></trkpt>
<trkpt lat="49.1910667419433594" lon="0.3016557395458221"><ele></ele><time>2016-10-9T12:47:30Z</time></trkpt>
<trkpt lat="49.1909790039062500" lon="0.3015190958976746"><ele></ele><time>2016-10-9T12:47:33Z</time></trkpt>
<trkpt lat="49.1909255981445312" lon="0.3014113903045654"><ele></ele><time>2016-10-9T12:47:36Z</time></trkpt>
<trkpt lat="49.1908798217773438" lon="0.3013583421707153"><ele></ele><time>2016-10-9T12:47:39Z</time></trkpt>
<trkpt lat="49.1907806396484375" lon="0.3012005090713501"><ele></ele><time>2016-10-9T12:47:42Z</time></trkpt>
<trkpt lat="49.1906776428222656" lon="0.3011238873004913"><ele></ele><time>2016-10-9T12:47:45Z</time></trkpt>
<trkpt lat="49.1906280517578125" lon="0.3010199666023254"><ele></ele><time>2016-10-9T12:47:48Z</time></trkpt>
<trkpt lat="49.1905212402343750" lon="0.3009297847747803"><ele></ele><time>2016-10-9T12:47:51Z</time></trkpt>
<trkpt lat="49.1903915405273438" lon="0.3008332252502441"><ele></ele><time>2016-10-9T12:47:54Z</time></trkpt>
<trkpt lat="49.1903076171875000" lon="0.3007672429084778"><ele></ele><time>2016-10-9T12:47:57Z</time></trkpt>
<trkpt lat="49.1902275085449219" lon="0.3007037043571472"><ele></ele><time>2016-10-9T12:48:0Z</time></trkpt>
<trkpt lat="49.1901054382324219" lon="0.3006313741207123"><ele></ele><time>2016-10-9T12:48:3Z</time></trkpt>
<trkpt lat="49.1900291442871094" lon="0.3005722761154175"><ele></ele><time>2016-10-9T12:48:6Z</time></trkpt>
<trkpt lat="49.1898956298828125" lon="0.3005056381225586"><ele></ele><time>2016-10-9T12:48:9Z</time></trkpt>
<trkpt lat="49.1898117065429688" lon="0.3004822731018066"><ele></ele><time>2016-10-9T12:48:12Z</time></trkpt>
<trkpt lat="49.1896858215332031" lon="0.3004318773746490"><ele></ele><time>2016-10-9T12:48:15Z</time></trkpt>
<trkpt lat="49.1895980834960938" lon="0.3004160523414612"><ele></ele><time>2016-10-9T12:48:18Z</time></trkpt>
<trkpt lat="49.1894683837890625" lon="0.3003566861152649"><ele></ele><time>2016-10-9T12:48:21Z</time></trkpt>
<trkpt lat="49.1893539428710938" lon="0.3003120124340057"><ele></ele><time>2016-10-9T12:48:24Z</time></trkpt>
<trkpt lat="49.1892356872558594" lon="0.3002847731113434"><ele></ele><time>2016-10-9T12:48:27Z</time></trkpt>
<trkpt lat="49.1891174316406250" lon="0.3002492487430573"><ele></ele><time>2016-10-9T12:48:30Z</time></trkpt>
<trkpt lat="49.1890411376953125" lon="0.3002308011054993"><ele></ele><time>2016-10-9T12:48:33Z</time></trkpt>
<trkpt lat="49.1889686584472656" lon="0.3002116978168488"><ele></ele><time>2016-10-9T12:48:36Z</time></trkpt>
<trkpt lat="49.1888542175292969" lon="0.3001795113086700"><ele></ele><time>2016-10-9T12:48:39Z</time></trkpt>
<trkpt lat="49.1887435913085938" lon="0.3001443743705750"><ele></ele><time>2016-10-9T12:48:42Z</time></trkpt>
<trkpt lat="49.1886253356933594" lon="0.3001139461994171"><ele></ele><time>2016-10-9T12:48:45Z</time></trkpt>
<trkpt lat="49.1885185241699219" lon="0.3000785112380981"><ele></ele><time>2016-10-9T12:48:48Z</time></trkpt>
<trkpt lat="49.1884460449218750" lon="0.3000539541244507"><ele></ele><time>2016-10-9T12:48:51Z</time></trkpt>
<trkpt lat="49.1883392333984375" lon="0.3000096082687378"><ele></ele><time>2016-10-9T12:48:54Z</time></trkpt>
<trkpt lat="49.1882400512695312" lon="0.2999713718891144"><ele></ele><time>2016-10-9T12:48:57Z</time></trkpt>
<trkpt lat="49.1881370544433594" lon="0.2999330759048462"><ele></ele><time>2016-10-9T12:49:0Z</time></trkpt>
<trkpt lat="49.1880340576171875" lon="0.2999067604541779"><ele></ele><time>2016-10-9T12:49:3Z</time></trkpt>
<trkpt lat="49.1879692077636719" lon="0.2998917698860168"><ele></ele><time>2016-10-9T12:49:6Z</time></trkpt>
<trkpt lat="49.1878700256347656" lon="0.2998687922954559"><ele></ele><time>2016-10-9T12:49:9Z</time></trkpt>
<trkpt lat="49.1877861022949219" lon="0.2998535335063934"><ele></ele><time>2016-10-9T12:49:12Z</time></trkpt>
<trkpt lat="49.1877021789550781" lon="0.2998309135437012"><ele></ele><time>2016-10-9T12:49:15Z</time></trkpt>
<trkpt lat="49.1876564025878906" lon="0.2997336685657501"><ele></ele><time>2016-10-9T12:49:18Z</time></trkpt>
<trkpt lat="49.1876564025878906" lon="0.2995656132698059"><ele></ele><time>2016-10-9T12:49:21Z</time></trkpt>
<trkpt lat="49.1876869201660156" lon="0.2993927001953125"><ele></ele><time>2016-10-9T12:49:24Z</time></trkpt>
<trkpt lat="49.1877021789550781" lon="0.2992854118347168"><ele></ele><time>2016-10-9T12:49:27Z</time></trkpt>
<trkpt lat="49.1877212524414062" lon="0.2991832196712494"><ele></ele><time>2016-10-9T12:49:30Z</time></trkpt>
<trkpt lat="49.1877403259277344" lon="0.2990786135196686"><ele></ele><time>2016-10-9T12:49:33Z</time></trkpt>
<trkpt lat="49.1877708435058594" lon="0.2989310324192047"><ele></ele><time>2016-10-9T12:49:36Z</time></trkpt>
<trkpt lat="49.1877937316894531" lon="0.2987878620624542"><ele></ele><time>2016-10-9T12:49:39Z</time></trkpt>
<trkpt lat="49.1878166198730469" lon="0.2986184656620026"><ele></ele><time>2016-10-9T12:49:42Z</time></trkpt>
<trkpt lat="49.1878395080566406" lon="0.2984982728958130"><ele></ele><time>2016-10-9T12:49:45Z</time></trkpt>
<trkpt lat="49.1879119873046875" lon="0.2982252538204193"><ele></ele><time>2016-10-9T12:49:48Z</time></trkpt>
<trkpt lat="49.1879844665527344" lon="0.2980230152606964"><ele></ele><time>2016-10-9T12:49:51Z</time></trkpt>
<trkpt lat="49.1880264282226562" lon="0.2979075014591217"><ele></ele><time>2016-10-9T12:49:54Z</time></trkpt>
<trkpt lat="49.1881065368652344" lon="0.2977035045623779"><ele></ele><time>2016-10-9T12:49:57Z</time></trkpt>
<trkpt lat="49.1881599426269531" lon="0.2975797057151794"><ele></ele><time>2016-10-9T12:50:0Z</time></trkpt>
<trkpt lat="49.1882171630859375" lon="0.2974007427692413"><ele></ele><time>2016-10-9T12:50:3Z</time></trkpt>
<trkpt lat="49.1882820129394531" lon="0.2972131371498108"><ele></ele><time>2016-10-9T12:50:6Z</time></trkpt>
<trkpt lat="49.1883316040039062" lon="0.2970471084117889"><ele></ele><time>2016-10-9T12:50:9Z</time></trkpt>
<trkpt lat="49.1883888244628906" lon="0.2968760430812836"><ele></ele><time>2016-10-9T12:50:12Z</time></trkpt>
<trkpt lat="49.1884231567382812" lon="0.2967571616172791"><ele></ele><time>2016-10-9T12:50:15Z</time></trkpt>
<trkpt lat="49.1884727478027344" lon="0.2965795695781708"><ele></ele><time>2016-10-9T12:50:18Z</time></trkpt>
<trkpt lat="49.1884994506835938" lon="0.2964491546154022"><ele></ele><time>2016-10-9T12:50:21Z</time></trkpt>
<trkpt lat="49.1885375976562500" lon="0.2963193953037262"><ele></ele><time>2016-10-9T12:50:24Z</time></trkpt>
<trkpt lat="49.1885757446289062" lon="0.2961139380931854"><ele></ele><time>2016-10-9T12:50:27Z</time></trkpt>
<trkpt lat="49.1886138916015625" lon="0.2959905564785004"><ele></ele><time>2016-10-9T12:50:30Z</time></trkpt>
<trkpt lat="49.1886482238769531" lon="0.2958688735961914"><ele></ele><time>2016-10-9T12:50:33Z</time></trkpt>
<trkpt lat="49.1886901855468750" lon="0.2957551181316376"><ele></ele><time>2016-10-9T12:50:36Z</time></trkpt>
<trkpt lat="49.1887512207031250" lon="0.2955675423145294"><ele></ele><time>2016-10-9T12:50:39Z</time></trkpt>
<trkpt lat="49.1887817382812500" lon="0.2954525351524353"><ele></ele><time>2016-10-9T12:50:42Z</time></trkpt>
<trkpt lat="49.1888160705566406" lon="0.2953298091888428"><ele></ele><time>2016-10-9T12:50:45Z</time></trkpt>
<trkpt lat="49.1888618469238281" lon="0.2951477766036987"><ele></ele><time>2016-10-9T12:50:48Z</time></trkpt>
<trkpt lat="49.1888999938964844" lon="0.2949528098106384"><ele></ele><time>2016-10-9T12:50:51Z</time></trkpt>
<trkpt lat="49.1889457702636719" lon="0.2947582602500916"><ele></ele><time>2016-10-9T12:50:54Z</time></trkpt>
<trkpt lat="49.1889839172363281" lon="0.2946290075778961"><ele></ele><time>2016-10-9T12:50:57Z</time></trkpt>
<trkpt lat="49.1890182495117188" lon="0.2944252490997314"><ele></ele><time>2016-10-9T12:51:0Z</time></trkpt>
<trkpt lat="49.1890563964843750" lon="0.2942996919155121"><ele></ele><time>2016-10-9T12:51:3Z</time></trkpt>
<trkpt lat="49.1891021728515625" lon="0.2941110134124756"><ele></ele><time>2016-10-9T12:51:6Z</time></trkpt>
<trkpt lat="49.1891365051269531" lon="0.2939852774143219"><ele></ele><time>2016-10-9T12:51:9Z</time></trkpt>
<trkpt lat="49.1891899108886719" lon="0.2937897443771362"><ele></ele><time>2016-10-9T12:51:12Z</time></trkpt>
<trkpt lat="49.1892433166503906" lon="0.2936231791973114"><ele></ele><time>2016-10-9T12:51:15Z</time></trkpt>
<trkpt lat="49.1892967224121094" lon="0.2934879958629608"><ele></ele><time>2016-10-9T12:51:18Z</time></trkpt>
<trkpt lat="49.1893424987792969" lon="0.2933768332004547"><ele></ele><time>2016-10-9T12:51:21Z</time></trkpt>
<trkpt lat="49.1893997192382812" lon="0.2931713163852692"><ele></ele><time>2016-10-9T12:51:24Z</time></trkpt>
<trkpt lat="49.1894760131835938" lon="0.2929761111736298"><ele></ele><time>2016-10-9T12:51:27Z</time></trkpt>
<trkpt lat="49.1895599365234375" lon="0.2927896976470947"><ele></ele><time>2016-10-9T12:51:30Z</time></trkpt>
<trkpt lat="49.1896629333496094" lon="0.2926120758056641"><ele></ele><time>2016-10-9T12:51:33Z</time></trkpt>
<trkpt lat="49.1897163391113281" lon="0.2925203740596771"><ele></ele><time>2016-10-9T12:51:36Z</time></trkpt>
<trkpt lat="49.1897735595703125" lon="0.2923717498779297"><ele></ele><time>2016-10-9T12:51:39Z</time></trkpt>
<trkpt lat="49.1898498535156250" lon="0.2922201454639435"><ele></ele><time>2016-10-9T12:51:42Z</time></trkpt>
<trkpt lat="49.1898841857910156" lon="0.2920120060443878"><ele></ele><time>2016-10-9T12:51:45Z</time></trkpt>
<trkpt lat="49.1898956298828125" lon="0.2918514013290405"><ele></ele><time>2016-10-9T12:51:48Z</time></trkpt>
<trkpt lat="49.1899185180664062" lon="0.2916377484798431"><ele></ele><time>2016-10-9T12:51:51Z</time></trkpt>
<trkpt lat="49.1899490356445312" lon="0.2914179861545563"><ele></ele><time>2016-10-9T12:51:54Z</time></trkpt>
<trkpt lat="49.1899566650390625" lon="0.2912584841251373"><ele></ele><time>2016-10-9T12:51:57Z</time></trkpt>
<trkpt lat="49.1899452209472656" lon="0.2910889983177185"><ele></ele><time>2016-10-9T12:52:0Z</time></trkpt>
<trkpt lat="49.1899375915527344" lon="0.2908424139022827"><ele></ele><time>2016-10-9T12:52:3Z</time></trkpt>
<trkpt lat="49.1899261474609375" lon="0.2906760275363922"><ele></ele><time>2016-10-9T12:52:6Z</time></trkpt>
<trkpt lat="49.1898994445800781" lon="0.2904917895793915"><ele></ele><time>2016-10-9T12:52:9Z</time></trkpt>
<trkpt lat="49.1898689270019531" lon="0.2902098894119263"><ele></ele><time>2016-10-9T12:52:12Z</time></trkpt>
<trkpt lat="49.1898994445800781" lon="0.2900274395942688"><ele></ele><time>2016-10-9T12:52:15Z</time></trkpt>
<trkpt lat="49.1899642944335938" lon="0.2897812426090240"><ele></ele><time>2016-10-9T12:52:18Z</time></trkpt>
<trkpt lat="49.1900024414062500" lon="0.2895021438598633"><ele></ele><time>2016-10-9T12:52:21Z</time></trkpt>
<trkpt lat="49.1900405883789062" lon="0.2891952693462372"><ele></ele><time>2016-10-9T12:52:24Z</time></trkpt>
<trkpt lat="49.1900215148925781" lon="0.2888562977313995"><ele></ele><time>2016-10-9T12:52:27Z</time></trkpt>
<trkpt lat="49.1900253295898438" lon="0.2885281443595886"><ele></ele><time>2016-10-9T12:52:30Z</time></trkpt>
<trkpt lat="49.1899795532226562" lon="0.2882153391838074"><ele></ele><time>2016-10-9T12:52:33Z</time></trkpt>
<trkpt lat="49.1899757385253906" lon="0.2879982590675354"><ele></ele><time>2016-10-9T12:52:36Z</time></trkpt>
<trkpt lat="49.1898918151855469" lon="0.2876912355422974"><ele></ele><time>2016-10-9T12:52:39Z</time></trkpt>
<trkpt lat="49.1898269653320312" lon="0.2873776555061340"><ele></ele><time>2016-10-9T12:52:42Z</time></trkpt>
<trkpt lat="49.1898078918457031" lon="0.2870338261127472"><ele></ele><time>2016-10-9T12:52:45Z</time></trkpt>
<trkpt lat="49.1898117065429688" lon="0.2866733968257904"><ele></ele><time>2016-10-9T12:52:48Z</time></trkpt>
<trkpt lat="49.1898231506347656" lon="0.2863446772098541"><ele></ele><time>2016-10-9T12:52:51Z</time></trkpt>
<trkpt lat="49.1898498535156250" lon="0.2861431837081909"><ele></ele><time>2016-10-9T12:52:54Z</time></trkpt>
<trkpt lat="49.1899070739746094" lon="0.2858626246452332"><ele></ele><time>2016-10-9T12:52:57Z</time></trkpt>
<trkpt lat="49.1899604797363281" lon="0.2855964899063110"><ele></ele><time>2016-10-9T12:53:0Z</time></trkpt>
<trkpt lat="49.1900062561035156" lon="0.2853286266326904"><ele></ele><time>2016-10-9T12:53:3Z</time></trkpt>
<trkpt lat="49.1900520324707031" lon="0.2850871384143829"><ele></ele><time>2016-10-9T12:53:6Z</time></trkpt>
<trkpt lat="49.1900749206542969" lon="0.2849429547786713"><ele></ele><time>2016-10-9T12:53:9Z</time></trkpt>
<trkpt lat="49.1901321411132812" lon="0.2848015725612640"><ele></ele><time>2016-10-9T12:53:12Z</time></trkpt>
<trkpt lat="49.1901855468750000" lon="0.2845899164676666"><ele></ele><time>2016-10-9T12:53:15Z</time></trkpt>
<trkpt lat="49.1901893615722656" lon="0.2844040989875793"><ele></ele><time>2016-10-9T12:53:18Z</time></trkpt>
<trkpt lat="49.1902084350585938" lon="0.2842326760292053"><ele></ele><time>2016-10-9T12:53:21Z</time></trkpt>
<trkpt lat="49.1902770996093750" lon="0.2839868366718292"><ele></ele><time>2016-10-9T12:53:24Z</time></trkpt>
<trkpt lat="49.1902885437011719" lon="0.2837644815444946"><ele></ele><time>2016-10-9T12:53:27Z</time></trkpt>
<trkpt lat="49.1903076171875000" lon="0.2834163010120392"><ele></ele><time>2016-10-9T12:53:30Z</time></trkpt>
<trkpt lat="49.1903419494628906" lon="0.2832447886466980"><ele></ele><time>2016-10-9T12:53:33Z</time></trkpt>
<trkpt lat="49.1903686523437500" lon="0.2830855250358582"><ele></ele><time>2016-10-9T12:53:36Z</time></trkpt>
<trkpt lat="49.1904144287109375" lon="0.2829349935054779"><ele></ele><time>2016-10-9T12:53:39Z</time></trkpt>
<trkpt lat="49.1904487609863281" lon="0.2826897501945496"><ele></ele><time>2016-10-9T12:53:42Z</time></trkpt>
<trkpt lat="49.1904792785644531" lon="0.2825239598751068"><ele></ele><time>2016-10-9T12:53:45Z</time></trkpt>
<trkpt lat="49.1905136108398438" lon="0.2823623418807983"><ele></ele><time>2016-10-9T12:53:48Z</time></trkpt>
<trkpt lat="49.1905708312988281" lon="0.2821221351623535"><ele></ele><time>2016-10-9T12:53:51Z</time></trkpt>
<trkpt lat="49.1906089782714844" lon="0.2819287478923798"><ele></ele><time>2016-10-9T12:53:54Z</time></trkpt>
<trkpt lat="49.1906471252441406" lon="0.2817079722881317"><ele></ele><time>2016-10-9T12:53:57Z</time></trkpt>
<trkpt lat="49.1906929016113281" lon="0.2814748585224152"><ele></ele><time>2016-10-9T12:54:0Z</time></trkpt>
<trkpt lat="49.1907501220703125" lon="0.2812519073486328"><ele></ele><time>2016-10-9T12:54:3Z</time></trkpt>
<trkpt lat="49.1907920837402344" lon="0.2810338139533997"><ele></ele><time>2016-10-9T12:54:6Z</time></trkpt>
<trkpt lat="49.1908416748046875" lon="0.2808230817317963"><ele></ele><time>2016-10-9T12:54:9Z</time></trkpt>
<trkpt lat="49.1908836364746094" lon="0.2806159853935242"><ele></ele><time>2016-10-9T12:54:12Z</time></trkpt>
<trkpt lat="49.1909255981445312" lon="0.2804855406284332"><ele></ele><time>2016-10-9T12:54:15Z</time></trkpt>
<trkpt lat="49.1909790039062500" lon="0.2802797853946686"><ele></ele><time>2016-10-9T12:54:18Z</time></trkpt>
<trkpt lat="49.1910247802734375" lon="0.2800611853599548"><ele></ele><time>2016-10-9T12:54:21Z</time></trkpt>
<trkpt lat="49.1910896301269531" lon="0.2798528075218201"><ele></ele><time>2016-10-9T12:54:24Z</time></trkpt>
<trkpt lat="49.1911506652832031" lon="0.2797123193740845"><ele></ele><time>2016-10-9T12:54:27Z</time></trkpt>
<trkpt lat="49.1912155151367188" lon="0.2794637978076935"><ele></ele><time>2016-10-9T12:54:30Z</time></trkpt>
<trkpt lat="49.1912918090820312" lon="0.2792369723320007"><ele></ele><time>2016-10-9T12:54:33Z</time></trkpt>
<trkpt lat="49.1913528442382812" lon="0.2789729535579681"><ele></ele><time>2016-10-9T12:54:36Z</time></trkpt>
<trkpt lat="49.1914405822753906" lon="0.2787427902221680"><ele></ele><time>2016-10-9T12:54:39Z</time></trkpt>
<trkpt lat="49.1915206909179688" lon="0.2785780727863312"><ele></ele><time>2016-10-9T12:54:42Z</time></trkpt>
<trkpt lat="49.1916389465332031" lon="0.2783391177654266"><ele></ele><time>2016-10-9T12:54:45Z</time></trkpt>
<trkpt lat="49.1917610168457031" lon="0.2781194150447845"><ele></ele><time>2016-10-9T12:54:48Z</time></trkpt>
<trkpt lat="49.1918869018554688" lon="0.2779219448566437"><ele></ele><time>2016-10-9T12:54:51Z</time></trkpt>
<trkpt lat="49.1919898986816406" lon="0.2777985632419586"><ele></ele><time>2016-10-9T12:54:54Z</time></trkpt>
<trkpt lat="49.1921348571777344" lon="0.2776434123516083"><ele></ele><time>2016-10-9T12:54:57Z</time></trkpt>
<trkpt lat="49.1922454833984375" lon="0.2775084674358368"><ele></ele><time>2016-10-9T12:55:0Z</time></trkpt>
<trkpt lat="49.1923370361328125" lon="0.2773632109165192"><ele></ele><time>2016-10-9T12:55:3Z</time></trkpt>
<trkpt lat="49.1925086975097656" lon="0.2772275805473328"><ele></ele><time>2016-10-9T12:55:6Z</time></trkpt>
<trkpt lat="49.1926460266113281" lon="0.2770845890045166"><ele></ele><time>2016-10-9T12:55:9Z</time></trkpt>
<trkpt lat="49.1927223205566406" lon="0.2769271731376648"><ele></ele><time>2016-10-9T12:55:12Z</time></trkpt>
<trkpt lat="49.1927795410156250" lon="0.2768183052539825"><ele></ele><time>2016-10-9T12:55:15Z</time></trkpt>
<trkpt lat="49.1928863525390625" lon="0.2766767442226410"><ele></ele><time>2016-10-9T12:55:18Z</time></trkpt>
<trkpt lat="49.1929931640625000" lon="0.2764659225940704"><ele></ele><time>2016-10-9T12:55:21Z</time></trkpt>
<trkpt lat="49.1930999755859375" lon="0.2762873172760010"><ele></ele><time>2016-10-9T12:55:24Z</time></trkpt>
<trkpt lat="49.1931991577148438" lon="0.2760855555534363"><ele></ele><time>2016-10-9T12:55:27Z</time></trkpt>
<trkpt lat="49.1933059692382812" lon="0.2758856415748596"><ele></ele><time>2016-10-9T12:55:30Z</time></trkpt>
<trkpt lat="49.1933631896972656" lon="0.2757428288459778"><ele></ele><time>2016-10-9T12:55:33Z</time></trkpt>
<trkpt lat="49.1934661865234375" lon="0.2755488753318787"><ele></ele><time>2016-10-9T12:55:36Z</time></trkpt>
<trkpt lat="49.1935234069824219" lon="0.2754337787628174"><ele></ele><time>2016-10-9T12:55:39Z</time></trkpt>
<trkpt lat="49.1936302185058594" lon="0.2752249836921692"><ele></ele><time>2016-10-9T12:55:42Z</time></trkpt>
<trkpt lat="49.1937332153320312" lon="0.2750188708305359"><ele></ele><time>2016-10-9T12:55:45Z</time></trkpt>
<trkpt lat="49.1937866210937500" lon="0.2749021947383881"><ele></ele><time>2016-10-9T12:55:48Z</time></trkpt>
<trkpt lat="49.1938323974609375" lon="0.2747628092765808"><ele></ele><time>2016-10-9T12:55:51Z</time></trkpt>
<trkpt lat="49.1938972473144531" lon="0.2746288776397705"><ele></ele><time>2016-10-9T12:55:54Z</time></trkpt>
<trkpt lat="49.1939620971679688" lon="0.2745033800601959"><ele></ele><time>2016-10-9T12:55:57Z</time></trkpt>
<trkpt lat="49.1940574645996094" lon="0.2742896378040314"><ele></ele><time>2016-10-9T12:56:0Z</time></trkpt>
<trkpt lat="49.1941108703613281" lon="0.2741474211215973"><ele></ele><time>2016-10-9T12:56:3Z</time></trkpt>
<trkpt lat="49.1941909790039062" lon="0.2739065885543823"><ele></ele><time>2016-10-9T12:56:6Z</time></trkpt>
<trkpt lat="49.1942367553710938" lon="0.2737604081630707"><ele></ele><time>2016-10-9T12:56:9Z</time></trkpt>
<trkpt lat="49.1943054199218750" lon="0.2735258042812347"><ele></ele><time>2016-10-9T12:56:12Z</time></trkpt>
<trkpt lat="49.1943588256835938" lon="0.2733880877494812"><ele></ele><time>2016-10-9T12:56:15Z</time></trkpt>
<trkpt lat="49.1944160461425781" lon="0.2731706798076630"><ele></ele><time>2016-10-9T12:56:18Z</time></trkpt>
<trkpt lat="49.1944618225097656" lon="0.2730290889739990"><ele></ele><time>2016-10-9T12:56:21Z</time></trkpt>
<trkpt lat="49.1944999694824219" lon="0.2728839218616486"><ele></ele><time>2016-10-9T12:56:24Z</time></trkpt>
<trkpt lat="49.1945495605468750" lon="0.2726715207099915"><ele></ele><time>2016-10-9T12:56:27Z</time></trkpt>
<trkpt lat="49.1946067810058594" lon="0.2725442051887512"><ele></ele><time>2016-10-9T12:56:30Z</time></trkpt>
<trkpt lat="49.1946792602539062" lon="0.2723076641559601"><ele></ele><time>2016-10-9T12:56:33Z</time></trkpt>
<trkpt lat="49.1947326660156250" lon="0.2721484899520874"><ele></ele><time>2016-10-9T12:56:36Z</time></trkpt>
<trkpt lat="49.1948204040527344" lon="0.2719396948814392"><ele></ele><time>2016-10-9T12:56:39Z</time></trkpt>
<trkpt lat="49.1948623657226562" lon="0.2717850506305695"><ele></ele><time>2016-10-9T12:56:42Z</time></trkpt>
<trkpt lat="49.1949119567871094" lon="0.2716263830661774"><ele></ele><time>2016-10-9T12:56:45Z</time></trkpt>
<trkpt lat="49.1949615478515625" lon="0.2714203596115112"><ele></ele><time>2016-10-9T12:56:48Z</time></trkpt>
<trkpt lat="49.1950340270996094" lon="0.2711742520332336"><ele></ele><time>2016-10-9T12:56:51Z</time></trkpt>
<trkpt lat="49.1950798034667969" lon="0.2710408270359039"><ele></ele><time>2016-10-9T12:56:54Z</time></trkpt>
<trkpt lat="49.1951675415039062" lon="0.2708385586738586"><ele></ele><time>2016-10-9T12:56:57Z</time></trkpt>
<trkpt lat="49.1952323913574219" lon="0.2706120014190674"><ele></ele><time>2016-10-9T12:57:0Z</time></trkpt>
<trkpt lat="49.1952743530273438" lon="0.2704701125621796"><ele></ele><time>2016-10-9T12:57:3Z</time></trkpt>
<trkpt lat="49.1952972412109375" lon="0.2703072428703308"><ele></ele><time>2016-10-9T12:57:6Z</time></trkpt>
<trkpt lat="49.1953353881835938" lon="0.2701010406017303"><ele></ele><time>2016-10-9T12:57:9Z</time></trkpt>
<trkpt lat="49.1953773498535156" lon="0.2699605524539948"><ele></ele><time>2016-10-9T12:57:12Z</time></trkpt>
<trkpt lat="49.1953926086425781" lon="0.2698165774345398"><ele></ele><time>2016-10-9T12:57:15Z</time></trkpt>
<trkpt lat="49.1953964233398438" lon="0.2696987986564636"><ele></ele><time>2016-10-9T12:57:18Z</time></trkpt>
<trkpt lat="49.1954116821289062" lon="0.2696025669574738"><ele></ele><time>2016-10-9T12:57:21Z</time></trkpt>
<trkpt lat="49.1954383850097656" lon="0.2694698870182037"><ele></ele><time>2016-10-9T12:57:24Z</time></trkpt>
<trkpt lat="49.1954727172851562" lon="0.2693056762218475"><ele></ele><time>2016-10-9T12:57:27Z</time></trkpt>
<trkpt lat="49.1955299377441406" lon="0.2691073715686798"><ele></ele><time>2016-10-9T12:57:30Z</time></trkpt>
<trkpt lat="49.1955299377441406" lon="0.2689215540885925"><ele></ele><time>2016-10-9T12:57:33Z</time></trkpt>
<trkpt lat="49.1955680847167969" lon="0.2686646282672882"><ele></ele><time>2016-10-9T12:57:36Z</time></trkpt>
<trkpt lat="49.1955795288085938" lon="0.2685146927833557"><ele></ele><time>2016-10-9T12:57:39Z</time></trkpt>
<trkpt lat="49.1956024169921875" lon="0.2682751417160034"><ele></ele><time>2016-10-9T12:57:42Z</time></trkpt>
<trkpt lat="49.1956367492675781" lon="0.2680683434009552"><ele></ele><time>2016-10-9T12:57:45Z</time></trkpt>
<trkpt lat="49.1956520080566406" lon="0.2679689526557922"><ele></ele><time>2016-10-9T12:57:48Z</time></trkpt>
<trkpt lat="49.1956977844238281" lon="0.2677831947803497"><ele></ele><time>2016-10-9T12:57:51Z</time></trkpt>
<trkpt lat="49.1957168579101562" lon="0.2676752507686615"><ele></ele><time>2016-10-9T12:57:54Z</time></trkpt>
<trkpt lat="49.1957244873046875" lon="0.2675758302211761"><ele></ele><time>2016-10-9T12:57:57Z</time></trkpt>
<trkpt lat="49.1957588195800781" lon="0.2674123942852020"><ele></ele><time>2016-10-9T12:58:0Z</time></trkpt>
<trkpt lat="49.1957817077636719" lon="0.2672220170497894"><ele></ele><time>2016-10-9T12:58:3Z</time></trkpt>
<trkpt lat="49.1958045959472656" lon="0.2671004831790924"><ele></ele><time>2016-10-9T12:58:6Z</time></trkpt>
<trkpt lat="49.1958427429199219" lon="0.2669468522071838"><ele></ele><time>2016-10-9T12:58:9Z</time></trkpt>
<trkpt lat="49.1958618164062500" lon="0.2668466866016388"><ele></ele><time>2016-10-9T12:58:12Z</time></trkpt>
<trkpt lat="49.1958999633789062" lon="0.2666710913181305"><ele></ele><time>2016-10-9T12:58:15Z</time></trkpt>
<trkpt lat="49.1959228515625000" lon="0.2665493786334991"><ele></ele><time>2016-10-9T12:58:18Z</time></trkpt>
<trkpt lat="49.1959457397460938" lon="0.2663728594779968"><ele></ele><time>2016-10-9T12:58:21Z</time></trkpt>
<trkpt lat="49.1959609985351562" lon="0.2662358880043030"><ele></ele><time>2016-10-9T12:58:24Z</time></trkpt>
<trkpt lat="49.1959877014160156" lon="0.2660335600376129"><ele></ele><time>2016-10-9T12:58:27Z</time></trkpt>
<trkpt lat="49.1960144042968750" lon="0.2658374309539795"><ele></ele><time>2016-10-9T12:58:30Z</time></trkpt>
<trkpt lat="49.1960334777832031" lon="0.2657108604907990"><ele></ele><time>2016-10-9T12:58:33Z</time></trkpt>
<trkpt lat="49.1960792541503906" lon="0.2655350863933563"><ele></ele><time>2016-10-9T12:58:36Z</time></trkpt>
<trkpt lat="49.1961135864257812" lon="0.2654227614402771"><ele></ele><time>2016-10-9T12:58:39Z</time></trkpt>
<trkpt lat="49.1961364746093750" lon="0.2652777731418610"><ele></ele><time>2016-10-9T12:58:42Z</time></trkpt>
<trkpt lat="49.1962280273437500" lon="0.2651198506355286"><ele></ele><time>2016-10-9T12:58:45Z</time></trkpt>
<trkpt lat="49.1963081359863281" lon="0.2649475038051605"><ele></ele><time>2016-10-9T12:58:48Z</time></trkpt>
<trkpt lat="49.1963920593261719" lon="0.2648035883903503"><ele></ele><time>2016-10-9T12:58:51Z</time></trkpt>
<trkpt lat="49.1964988708496094" lon="0.2646418213844299"><ele></ele><time>2016-10-9T12:58:54Z</time></trkpt>
<trkpt lat="49.1965942382812500" lon="0.2644759416580200"><ele></ele><time>2016-10-9T12:58:57Z</time></trkpt>
<trkpt lat="49.1966743469238281" lon="0.2642843425273895"><ele></ele><time>2016-10-9T12:59:0Z</time></trkpt>
<trkpt lat="49.1967773437500000" lon="0.2641182839870453"><ele></ele><time>2016-10-9T12:59:3Z</time></trkpt>
<trkpt lat="49.1968460083007812" lon="0.2639847695827484"><ele></ele><time>2016-10-9T12:59:6Z</time></trkpt>
<trkpt lat="49.1969451904296875" lon="0.2638127803802490"><ele></ele><time>2016-10-9T12:59:9Z</time></trkpt>
<trkpt lat="49.1970291137695312" lon="0.2636892199516296"><ele></ele><time>2016-10-9T12:59:12Z</time></trkpt>
<trkpt lat="49.1970863342285156" lon="0.2635589838027954"><ele></ele><time>2016-10-9T12:59:15Z</time></trkpt>
<trkpt lat="49.1971855163574219" lon="0.2633483409881592"><ele></ele><time>2016-10-9T12:59:18Z</time></trkpt>
<trkpt lat="49.1972618103027344" lon="0.2631955444812775"><ele></ele><time>2016-10-9T12:59:21Z</time></trkpt>
<trkpt lat="49.1973648071289062" lon="0.2629700601100922"><ele></ele><time>2016-10-9T12:59:24Z</time></trkpt>
<trkpt lat="49.1974220275878906" lon="0.2628196179866791"><ele></ele><time>2016-10-9T12:59:27Z</time></trkpt>
<trkpt lat="49.1974830627441406" lon="0.2626716494560242"><ele></ele><time>2016-10-9T12:59:30Z</time></trkpt>
<trkpt lat="49.1975898742675781" lon="0.2624746859073639"><ele></ele><time>2016-10-9T12:59:33Z</time></trkpt>
<trkpt lat="49.1976776123046875" lon="0.2623306810855865"><ele></ele><time>2016-10-9T12:59:36Z</time></trkpt>
<trkpt lat="49.1977691650390625" lon="0.2621209621429443"><ele></ele><time>2016-10-9T12:59:39Z</time></trkpt>
<trkpt lat="49.1978454589843750" lon="0.2618840038776398"><ele></ele><time>2016-10-9T12:59:42Z</time></trkpt>
<trkpt lat="49.1979141235351562" lon="0.2617320418357849"><ele></ele><time>2016-10-9T12:59:45Z</time></trkpt>
<trkpt lat="49.1979904174804688" lon="0.2615317106246948"><ele></ele><time>2016-10-9T12:59:48Z</time></trkpt>
<trkpt lat="49.1980514526367188" lon="0.2613525092601776"><ele></ele><time>2016-10-9T12:59:51Z</time></trkpt>
<trkpt lat="49.1981582641601562" lon="0.2611221969127655"><ele></ele><time>2016-10-9T12:59:54Z</time></trkpt>
<trkpt lat="49.1982612609863281" lon="0.2608887553215027"><ele></ele><time>2016-10-9T12:59:57Z</time></trkpt>
<trkpt lat="49.1983299255371094" lon="0.2607364356517792"><ele></ele><time>2016-10-9T13:0:0Z</time></trkpt>
<trkpt lat="49.1984176635742188" lon="0.2604822218418121"><ele></ele><time>2016-10-9T13:0:3Z</time></trkpt>
<trkpt lat="49.1985015869140625" lon="0.2602192163467407"><ele></ele><time>2016-10-9T13:0:6Z</time></trkpt>
<trkpt lat="49.1985893249511719" lon="0.2599546611309052"><ele></ele><time>2016-10-9T13:0:9Z</time></trkpt>
<trkpt lat="49.1986579895019531" lon="0.2597873806953430"><ele></ele><time>2016-10-9T13:0:12Z</time></trkpt>
<trkpt lat="49.1987571716308594" lon="0.2595714628696442"><ele></ele><time>2016-10-9T13:0:15Z</time></trkpt>
<trkpt lat="49.1988449096679688" lon="0.2593277096748352"><ele></ele><time>2016-10-9T13:0:18Z</time></trkpt>
<trkpt lat="49.1988945007324219" lon="0.2591620683670044"><ele></ele><time>2016-10-9T13:0:21Z</time></trkpt>
<trkpt lat="49.1989898681640625" lon="0.2589060068130493"><ele></ele><time>2016-10-9T13:0:24Z</time></trkpt>
<trkpt lat="49.1990928649902344" lon="0.2586581707000732"><ele></ele><time>2016-10-9T13:0:27Z</time></trkpt>
<trkpt lat="49.1991577148437500" lon="0.2584859132766724"><ele></ele><time>2016-10-9T13:0:30Z</time></trkpt>
<trkpt lat="49.1992034912109375" lon="0.2582246363162994"><ele></ele><time>2016-10-9T13:0:33Z</time></trkpt>
<trkpt lat="49.1992797851562500" lon="0.2579715847969055"><ele></ele><time>2016-10-9T13:0:36Z</time></trkpt>
<trkpt lat="49.1993675231933594" lon="0.2577379047870636"><ele></ele><time>2016-10-9T13:0:39Z</time></trkpt>
<trkpt lat="49.1994438171386719" lon="0.2574882805347443"><ele></ele><time>2016-10-9T13:0:42Z</time></trkpt>
<trkpt lat="49.1995315551757812" lon="0.2572504878044128"><ele></ele><time>2016-10-9T13:0:45Z</time></trkpt>
<trkpt lat="49.1996383666992188" lon="0.2569864690303802"><ele></ele><time>2016-10-9T13:0:48Z</time></trkpt>
<trkpt lat="49.1997261047363281" lon="0.2567506134510040"><ele></ele><time>2016-10-9T13:0:51Z</time></trkpt>
<trkpt lat="49.1997833251953125" lon="0.2565873265266418"><ele></ele><time>2016-10-9T13:0:54Z</time></trkpt>
<trkpt lat="49.1998558044433594" lon="0.2563458383083344"><ele></ele><time>2016-10-9T13:0:57Z</time></trkpt>
<trkpt lat="49.1999359130859375" lon="0.2561216950416565"><ele></ele><time>2016-10-9T13:1:0Z</time></trkpt>
<trkpt lat="49.1999855041503906" lon="0.2559520602226257"><ele></ele><time>2016-10-9T13:1:3Z</time></trkpt>
<trkpt lat="49.2000122070312500" lon="0.2557725906372070"><ele></ele><time>2016-10-9T13:1:6Z</time></trkpt>
<trkpt lat="49.2000579833984375" lon="0.2555210590362549"><ele></ele><time>2016-10-9T13:1:9Z</time></trkpt>
<trkpt lat="49.2000732421875000" lon="0.2552514970302582"><ele></ele><time>2016-10-9T13:1:12Z</time></trkpt>
<trkpt lat="49.2000923156738281" lon="0.2549222707748413"><ele></ele><time>2016-10-9T13:1:15Z</time></trkpt>
<trkpt lat="49.2000656127929688" lon="0.2547169923782349"><ele></ele><time>2016-10-9T13:1:18Z</time></trkpt>
<trkpt lat="49.2000312805175781" lon="0.2543976306915283"><ele></ele><time>2016-10-9T13:1:21Z</time></trkpt>
<trkpt lat="49.2000007629394531" lon="0.2540823817253113"><ele></ele><time>2016-10-9T13:1:24Z</time></trkpt>
<trkpt lat="49.1999855041503906" lon="0.2537913620471954"><ele></ele><time>2016-10-9T13:1:27Z</time></trkpt>
<trkpt lat="49.1999740600585938" lon="0.2535907924175262"><ele></ele><time>2016-10-9T13:1:30Z</time></trkpt>
<trkpt lat="49.1999893188476562" lon="0.2532938122749329"><ele></ele><time>2016-10-9T13:1:33Z</time></trkpt>
<trkpt lat="49.2000122070312500" lon="0.2529730498790741"><ele></ele><time>2016-10-9T13:1:36Z</time></trkpt>
<trkpt lat="49.2000198364257812" lon="0.2527064979076385"><ele></ele><time>2016-10-9T13:1:39Z</time></trkpt>
<trkpt lat="49.2000503540039062" lon="0.2524387836456299"><ele></ele><time>2016-10-9T13:1:42Z</time></trkpt>
<trkpt lat="49.2000885009765625" lon="0.2521458268165588"><ele></ele><time>2016-10-9T13:1:45Z</time></trkpt>
<trkpt lat="49.2001113891601562" lon="0.2519078850746155"><ele></ele><time>2016-10-9T13:1:48Z</time></trkpt>
<trkpt lat="49.2001342773437500" lon="0.2516323626041412"><ele></ele><time>2016-10-9T13:1:51Z</time></trkpt>
<trkpt lat="49.2001533508300781" lon="0.2513579428195953"><ele></ele><time>2016-10-9T13:1:54Z</time></trkpt>
<trkpt lat="49.2001953125000000" lon="0.2511193752288818"><ele></ele><time>2016-10-9T13:1:57Z</time></trkpt>
<trkpt lat="49.2001953125000000" lon="0.2508328258991241"><ele></ele><time>2016-10-9T13:2:0Z</time></trkpt>
<trkpt lat="49.2002258300781250" lon="0.2505547106266022"><ele></ele><time>2016-10-9T13:2:3Z</time></trkpt>
<trkpt lat="49.2002296447753906" lon="0.2503646910190582"><ele></ele><time>2016-10-9T13:2:6Z</time></trkpt>
<trkpt lat="49.2002258300781250" lon="0.2501791119575500"><ele></ele><time>2016-10-9T13:2:9Z</time></trkpt>
<trkpt lat="49.2002372741699219" lon="0.2498569041490555"><ele></ele><time>2016-10-9T13:2:12Z</time></trkpt>
<trkpt lat="49.2002449035644531" lon="0.2496558278799057"><ele></ele><time>2016-10-9T13:2:15Z</time></trkpt>
<trkpt lat="49.2002983093261719" lon="0.2493122518062592"><ele></ele><time>2016-10-9T13:2:18Z</time></trkpt>
<trkpt lat="49.2003173828125000" lon="0.2490606307983398"><ele></ele><time>2016-10-9T13:2:21Z</time></trkpt>
<trkpt lat="49.2003517150878906" lon="0.2487618923187256"><ele></ele><time>2016-10-9T13:2:24Z</time></trkpt>
<trkpt lat="49.2003479003906250" lon="0.2485584616661072"><ele></ele><time>2016-10-9T13:2:27Z</time></trkpt>
<trkpt lat="49.2003860473632812" lon="0.2483474165201187"><ele></ele><time>2016-10-9T13:2:30Z</time></trkpt>
<trkpt lat="49.2003898620605469" lon="0.2482406198978424"><ele></ele><time>2016-10-9T13:2:33Z</time></trkpt>
<trkpt lat="49.2003898620605469" lon="0.2481469213962555"><ele></ele><time>2016-10-9T13:2:36Z</time></trkpt>
<trkpt lat="49.2003631591796875" lon="0.2480460852384567"><ele></ele><time>2016-10-9T13:2:39Z</time></trkpt>
<trkpt lat="49.2002754211425781" lon="0.2478771060705185"><ele></ele><time>2016-10-9T13:2:42Z</time></trkpt>
<trkpt lat="49.2002410888671875" lon="0.2477095425128937"><ele></ele><time>2016-10-9T13:2:45Z</time></trkpt>
<trkpt lat="49.2001953125000000" lon="0.2475326955318451"><ele></ele><time>2016-10-9T13:2:48Z</time></trkpt>
<trkpt lat="49.2001228332519531" lon="0.2473825663328171"><ele></ele><time>2016-10-9T13:2:51Z</time></trkpt>
<trkpt lat="49.2000579833984375" lon="0.2471104860305786"><ele></ele><time>2016-10-9T13:2:54Z</time></trkpt>
<trkpt lat="49.2000236511230469" lon="0.2469170391559601"><ele></ele><time>2016-10-9T13:2:57Z</time></trkpt>
<trkpt lat="49.1999511718750000" lon="0.2466398477554321"><ele></ele><time>2016-10-9T13:3:0Z</time></trkpt>
<trkpt lat="49.1999130249023438" lon="0.2464590519666672"><ele></ele><time>2016-10-9T13:3:3Z</time></trkpt>
<trkpt lat="49.1998062133789062" lon="0.2461904883384705"><ele></ele><time>2016-10-9T13:3:6Z</time></trkpt>
<trkpt lat="49.1997146606445312" lon="0.2459123879671097"><ele></ele><time>2016-10-9T13:3:9Z</time></trkpt>
<trkpt lat="49.1996574401855469" lon="0.2457284778356552"><ele></ele><time>2016-10-9T13:3:12Z</time></trkpt>
<trkpt lat="49.1996192932128906" lon="0.2455497831106186"><ele></ele><time>2016-10-9T13:3:15Z</time></trkpt>
<trkpt lat="49.1995658874511719" lon="0.2452687323093414"><ele></ele><time>2016-10-9T13:3:18Z</time></trkpt>
<trkpt lat="49.1995162963867188" lon="0.2449632138013840"><ele></ele><time>2016-10-9T13:3:21Z</time></trkpt>
<trkpt lat="49.1995086669921875" lon="0.2447937279939651"><ele></ele><time>2016-10-9T13:3:24Z</time></trkpt>
<trkpt lat="49.1994705200195312" lon="0.2444897294044495"><ele></ele><time>2016-10-9T13:3:27Z</time></trkpt>
<trkpt lat="49.1994552612304688" lon="0.2442545294761658"><ele></ele><time>2016-10-9T13:3:30Z</time></trkpt>
<trkpt lat="49.1994056701660156" lon="0.2439441382884979"><ele></ele><time>2016-10-9T13:3:33Z</time></trkpt>
<trkpt lat="49.1993522644042969" lon="0.2436295747756958"><ele></ele><time>2016-10-9T13:3:36Z</time></trkpt>
<trkpt lat="49.1993064880371094" lon="0.2434149086475372"><ele></ele><time>2016-10-9T13:3:39Z</time></trkpt>
<trkpt lat="49.1992530822753906" lon="0.2432181090116501"><ele></ele><time>2016-10-9T13:3:42Z</time></trkpt>
<trkpt lat="49.1991577148437500" lon="0.2429435104131699"><ele></ele><time>2016-10-9T13:3:45Z</time></trkpt>
<trkpt lat="49.1990661621093750" lon="0.2427149415016174"><ele></ele><time>2016-10-9T13:3:48Z</time></trkpt>
<trkpt lat="49.1989669799804688" lon="0.2425277680158615"><ele></ele><time>2016-10-9T13:3:51Z</time></trkpt>
<trkpt lat="49.1989097595214844" lon="0.2424193024635315"><ele></ele><time>2016-10-9T13:3:54Z</time></trkpt>
<trkpt lat="49.1988067626953125" lon="0.2422328889369965"><ele></ele><time>2016-10-9T13:3:57Z</time></trkpt>
<trkpt lat="49.1987457275390625" lon="0.2421401888132095"><ele></ele><time>2016-10-9T13:4:0Z</time></trkpt>
<trkpt lat="49.1986846923828125" lon="0.2420317232608795"><ele></ele><time>2016-10-9T13:4:3Z</time></trkpt>
<trkpt lat="49.1985778808593750" lon="0.2418623268604279"><ele></ele><time>2016-10-9T13:4:6Z</time></trkpt>
<trkpt lat="49.1984710693359375" lon="0.2417008131742477"><ele></ele><time>2016-10-9T13:4:9Z</time></trkpt>
<trkpt lat="49.1983947753906250" lon="0.2415779381990433"><ele></ele><time>2016-10-9T13:4:12Z</time></trkpt>
<trkpt lat="49.1982917785644531" lon="0.2414219528436661"><ele></ele><time>2016-10-9T13:4:15Z</time></trkpt>
<trkpt lat="49.1982231140136719" lon="0.2413269728422165"><ele></ele><time>2016-10-9T13:4:18Z</time></trkpt>
<trkpt lat="49.1981468200683594" lon="0.2412176728248596"><ele></ele><time>2016-10-9T13:4:21Z</time></trkpt>
<trkpt lat="49.1980209350585938" lon="0.2410490363836288"><ele></ele><time>2016-10-9T13:4:24Z</time></trkpt>
<trkpt lat="49.1979370117187500" lon="0.2409433424472809"><ele></ele><time>2016-10-9T13:4:27Z</time></trkpt>
<trkpt lat="49.1978492736816406" lon="0.2408469468355179"><ele></ele><time>2016-10-9T13:4:30Z</time></trkpt>
<trkpt lat="49.1976852416992188" lon="0.2407421767711639"><ele></ele><time>2016-10-9T13:4:33Z</time></trkpt>
<trkpt lat="49.1975669860839844" lon="0.2406023591756821"><ele></ele><time>2016-10-9T13:4:36Z</time></trkpt>
<trkpt lat="49.1974296569824219" lon="0.2405461221933365"><ele></ele><time>2016-10-9T13:4:39Z</time></trkpt>
<trkpt lat="49.1972885131835938" lon="0.2403918057680130"><ele></ele><time>2016-10-9T13:4:42Z</time></trkpt>
<trkpt lat="49.1971855163574219" lon="0.2402675896883011"><ele></ele><time>2016-10-9T13:4:45Z</time></trkpt>
<trkpt lat="49.1970520019531250" lon="0.2400990277528763"><ele></ele><time>2016-10-9T13:4:48Z</time></trkpt>
<trkpt lat="49.1969947814941406" lon="0.2399372607469559"><ele></ele><time>2016-10-9T13:4:51Z</time></trkpt>
<trkpt lat="49.1968879699707031" lon="0.2397652566432953"><ele></ele><time>2016-10-9T13:4:54Z</time></trkpt>
<trkpt lat="49.1968002319335938" lon="0.2396921664476395"><ele></ele><time>2016-10-9T13:4:57Z</time></trkpt>
<trkpt lat="49.1966819763183594" lon="0.2395665347576141"><ele></ele><time>2016-10-9T13:5:0Z</time></trkpt>
<trkpt lat="49.1966171264648438" lon="0.2394594103097916"><ele></ele><time>2016-10-9T13:5:3Z</time></trkpt>
<trkpt lat="49.1964988708496094" lon="0.2393304109573364"><ele></ele><time>2016-10-9T13:5:6Z</time></trkpt>
<trkpt lat="49.1963768005371094" lon="0.2391976416110992"><ele></ele><time>2016-10-9T13:5:9Z</time></trkpt>
<trkpt lat="49.1962890625000000" lon="0.2391202747821808"><ele></ele><time>2016-10-9T13:5:12Z</time></trkpt>
<trkpt lat="49.1961555480957031" lon="0.2389471828937531"><ele></ele><time>2016-10-9T13:5:15Z</time></trkpt>
<trkpt lat="49.1960678100585938" lon="0.2388769537210464"><ele></ele><time>2016-10-9T13:5:18Z</time></trkpt>
<trkpt lat="49.1959800720214844" lon="0.2387750297784805"><ele></ele><time>2016-10-9T13:5:21Z</time></trkpt>
<trkpt lat="49.1958274841308594" lon="0.2386506348848343"><ele></ele><time>2016-10-9T13:5:24Z</time></trkpt>
<trkpt lat="49.1957359313964844" lon="0.2385557591915131"><ele></ele><time>2016-10-9T13:5:27Z</time></trkpt>
<trkpt lat="49.1955947875976562" lon="0.2384526580572128"><ele></ele><time>2016-10-9T13:5:30Z</time></trkpt>
<trkpt lat="49.1955146789550781" lon="0.2383340597152710"><ele></ele><time>2016-10-9T13:5:33Z</time></trkpt>
<trkpt lat="49.1953849792480469" lon="0.2382017076015472"><ele></ele><time>2016-10-9T13:5:36Z</time></trkpt>
<trkpt lat="49.1952819824218750" lon="0.2381197214126587"><ele></ele><time>2016-10-9T13:5:39Z</time></trkpt>
<trkpt lat="49.1951370239257812" lon="0.2380251735448837"><ele></ele><time>2016-10-9T13:5:42Z</time></trkpt>
<trkpt lat="49.1950149536132812" lon="0.2379517555236816"><ele></ele><time>2016-10-9T13:5:45Z</time></trkpt>
<trkpt lat="49.1949157714843750" lon="0.2378587126731873"><ele></ele><time>2016-10-9T13:5:48Z</time></trkpt>
<trkpt lat="49.1947555541992188" lon="0.2377064228057861"><ele></ele><time>2016-10-9T13:5:51Z</time></trkpt>
<trkpt lat="49.1946296691894531" lon="0.2375339120626450"><ele></ele><time>2016-10-9T13:5:54Z</time></trkpt>
<trkpt lat="49.1945075988769531" lon="0.2373242825269699"><ele></ele><time>2016-10-9T13:5:57Z</time></trkpt>
<trkpt lat="49.1944389343261719" lon="0.2371812909841537"><ele></ele><time>2016-10-9T13:6:0Z</time></trkpt>
<trkpt lat="49.1943511962890625" lon="0.2369645386934280"><ele></ele><time>2016-10-9T13:6:3Z</time></trkpt>
<trkpt lat="49.1942863464355469" lon="0.2367382198572159"><ele></ele><time>2016-10-9T13:6:6Z</time></trkpt>
<trkpt lat="49.1942100524902344" lon="0.2365523129701614"><ele></ele><time>2016-10-9T13:6:9Z</time></trkpt>
<trkpt lat="49.1941032409667969" lon="0.2362838387489319"><ele></ele><time>2016-10-9T13:6:12Z</time></trkpt>
<trkpt lat="49.1940422058105469" lon="0.2361326366662979"><ele></ele><time>2016-10-9T13:6:15Z</time></trkpt>
<trkpt lat="49.1939506530761719" lon="0.2359198927879333"><ele></ele><time>2016-10-9T13:6:18Z</time></trkpt>
<trkpt lat="49.1938667297363281" lon="0.2357800900936127"><ele></ele><time>2016-10-9T13:6:21Z</time></trkpt>
<trkpt lat="49.1936798095703125" lon="0.2354400306940079"><ele></ele><time>2016-10-9T13:6:24Z</time></trkpt>
<trkpt lat="49.1935768127441406" lon="0.2352974563837051"><ele></ele><time>2016-10-9T13:6:27Z</time></trkpt>
<trkpt lat="49.1933975219726562" lon="0.2350058555603027"><ele></ele><time>2016-10-9T13:6:30Z</time></trkpt>
<trkpt lat="49.1932716369628906" lon="0.2348403036594391"><ele></ele><time>2016-10-9T13:6:33Z</time></trkpt>
<trkpt lat="49.1930732727050781" lon="0.2345689833164215"><ele></ele><time>2016-10-9T13:6:36Z</time></trkpt>
<trkpt lat="49.1929359436035156" lon="0.2343914508819580"><ele></ele><time>2016-10-9T13:6:39Z</time></trkpt>
<trkpt lat="49.1927757263183594" lon="0.2342021167278290"><ele></ele><time>2016-10-9T13:6:42Z</time></trkpt>
<trkpt lat="49.1925735473632812" lon="0.2338862866163254"><ele></ele><time>2016-10-9T13:6:45Z</time></trkpt>
<trkpt lat="49.1924858093261719" lon="0.2336420267820358"><ele></ele><time>2016-10-9T13:6:48Z</time></trkpt>
<trkpt lat="49.1922454833984375" lon="0.2333232611417770"><ele></ele><time>2016-10-9T13:6:51Z</time></trkpt>
<trkpt lat="49.1921005249023438" lon="0.2331133782863617"><ele></ele><time>2016-10-9T13:6:54Z</time></trkpt>
<trkpt lat="49.1919555664062500" lon="0.2329252064228058"><ele></ele><time>2016-10-9T13:6:57Z</time></trkpt>
<trkpt lat="49.1917037963867188" lon="0.2326595038175583"><ele></ele><time>2016-10-9T13:7:0Z</time></trkpt>
<trkpt lat="49.1913681030273438" lon="0.2324887663125992"><ele></ele><time>2016-10-9T13:7:3Z</time></trkpt>
<trkpt lat="49.1910400390625000" lon="0.2323987483978271"><ele></ele><time>2016-10-9T13:7:6Z</time></trkpt>
<trkpt lat="49.1908264160156250" lon="0.2324538081884384"><ele></ele><time>2016-10-9T13:7:9Z</time></trkpt>
<trkpt lat="49.1905250549316406" lon="0.2324626147747040"><ele></ele><time>2016-10-9T13:7:12Z</time></trkpt>
<trkpt lat="49.1901893615722656" lon="0.2324558198451996"><ele></ele><time>2016-10-9T13:7:15Z</time></trkpt>
<trkpt lat="49.1899871826171875" lon="0.2324372231960297"><ele></ele><time>2016-10-9T13:7:18Z</time></trkpt>
<trkpt lat="49.1896629333496094" lon="0.2324537336826324"><ele></ele><time>2016-10-9T13:7:21Z</time></trkpt>
<trkpt lat="49.1893577575683594" lon="0.2325038462877274"><ele></ele><time>2016-10-9T13:7:24Z</time></trkpt>
<trkpt lat="49.1891670227050781" lon="0.2324934601783752"><ele></ele><time>2016-10-9T13:7:27Z</time></trkpt>
<trkpt lat="49.1889762878417969" lon="0.2324554026126862"><ele></ele><time>2016-10-9T13:7:30Z</time></trkpt>
<trkpt lat="49.1887779235839844" lon="0.2324202805757523"><ele></ele><time>2016-10-9T13:7:33Z</time></trkpt>
<trkpt lat="49.1884689331054688" lon="0.2323990017175674"><ele></ele><time>2016-10-9T13:7:36Z</time></trkpt>
<trkpt lat="49.1882286071777344" lon="0.2324044406414032"><ele></ele><time>2016-10-9T13:7:39Z</time></trkpt>
<trkpt lat="49.1880264282226562" lon="0.2321047037839890"><ele></ele><time>2016-10-9T13:7:42Z</time></trkpt>
<trkpt lat="49.1877593994140625" lon="0.2318649888038635"><ele></ele><time>2016-10-9T13:7:45Z</time></trkpt>
<trkpt lat="49.1875801086425781" lon="0.2316802442073822"><ele></ele><time>2016-10-9T13:7:48Z</time></trkpt>
<trkpt lat="49.1873893737792969" lon="0.2314735502004623"><ele></ele><time>2016-10-9T13:7:51Z</time></trkpt>
<trkpt lat="49.1870803833007812" lon="0.2312036454677582"><ele></ele><time>2016-10-9T13:7:54Z</time></trkpt>
<trkpt lat="49.1867752075195312" lon="0.2308851331472397"><ele></ele><time>2016-10-9T13:7:57Z</time></trkpt>
<trkpt lat="49.1864395141601562" lon="0.2306139022111893"><ele></ele><time>2016-10-9T13:8:0Z</time></trkpt>
<trkpt lat="49.1861305236816406" lon="0.2303155064582825"><ele></ele><time>2016-10-9T13:8:3Z</time></trkpt>
<trkpt lat="49.1857757568359375" lon="0.2300766259431839"><ele></ele><time>2016-10-9T13:8:6Z</time></trkpt>
<trkpt lat="49.1854667663574219" lon="0.2297864407300949"><ele></ele><time>2016-10-9T13:8:9Z</time></trkpt>
<trkpt lat="49.1851959228515625" lon="0.2295688390731812"><ele></ele><time>2016-10-9T13:8:12Z</time></trkpt>
<trkpt lat="49.1849021911621094" lon="0.2293766438961029"><ele></ele><time>2016-10-9T13:8:15Z</time></trkpt>
<trkpt lat="49.1846160888671875" lon="0.2291290462017059"><ele></ele><time>2016-10-9T13:8:18Z</time></trkpt>
<trkpt lat="49.1843833923339844" lon="0.2289526015520096"><ele></ele><time>2016-10-9T13:8:21Z</time></trkpt>
<trkpt lat="49.1840896606445312" lon="0.2286216914653778"><ele></ele><time>2016-10-9T13:8:24Z</time></trkpt>
<trkpt lat="49.1839179992675781" lon="0.2283522933721542"><ele></ele><time>2016-10-9T13:8:27Z</time></trkpt>
<trkpt lat="49.1837158203125000" lon="0.2280415743589401"><ele></ele><time>2016-10-9T13:8:30Z</time></trkpt>
<trkpt lat="49.1836090087890625" lon="0.2278164476156235"><ele></ele><time>2016-10-9T13:8:33Z</time></trkpt>
<trkpt lat="49.1835365295410156" lon="0.2274391651153564"><ele></ele><time>2016-10-9T13:8:36Z</time></trkpt>
<trkpt lat="49.1835441589355469" lon="0.2268563807010651"><ele></ele><time>2016-10-9T13:8:39Z</time></trkpt>
<trkpt lat="49.1833839416503906" lon="0.2265124619007111"><ele></ele><time>2016-10-9T13:8:42Z</time></trkpt>
<trkpt lat="49.1832733154296875" lon="0.2263247966766357"><ele></ele><time>2016-10-9T13:8:45Z</time></trkpt>
<trkpt lat="49.1830825805664062" lon="0.2260359525680542"><ele></ele><time>2016-10-9T13:8:48Z</time></trkpt>
<trkpt lat="49.1829566955566406" lon="0.2257537394762039"><ele></ele><time>2016-10-9T13:8:51Z</time></trkpt>
<trkpt lat="49.1827468872070312" lon="0.2254452854394913"><ele></ele><time>2016-10-9T13:8:54Z</time></trkpt>
<trkpt lat="49.1825752258300781" lon="0.2251441180706024"><ele></ele><time>2016-10-9T13:8:57Z</time></trkpt>
<trkpt lat="49.1824607849121094" lon="0.2249753177165985"><ele></ele><time>2016-10-9T13:9:0Z</time></trkpt>
<trkpt lat="49.1823463439941406" lon="0.2247541993856430"><ele></ele><time>2016-10-9T13:9:3Z</time></trkpt>
<trkpt lat="49.1822738647460938" lon="0.2245423048734665"><ele></ele><time>2016-10-9T13:9:6Z</time></trkpt>
<trkpt lat="49.1821174621582031" lon="0.2244792729616165"><ele></ele><time>2016-10-9T13:9:9Z</time></trkpt>
<trkpt lat="49.1819953918457031" lon="0.2245085239410400"><ele></ele><time>2016-10-9T13:9:12Z</time></trkpt>
<trkpt lat="49.1818199157714844" lon="0.2245806902647018"><ele></ele><time>2016-10-9T13:9:15Z</time></trkpt>
<trkpt lat="49.1816253662109375" lon="0.2246054112911224"><ele></ele><time>2016-10-9T13:9:18Z</time></trkpt>
<trkpt lat="49.1814155578613281" lon="0.2246400415897369"><ele></ele><time>2016-10-9T13:9:21Z</time></trkpt>
<trkpt lat="49.1812286376953125" lon="0.2247044146060944"><ele></ele><time>2016-10-9T13:9:24Z</time></trkpt>
<trkpt lat="49.1810379028320312" lon="0.2247598916292191"><ele></ele><time>2016-10-9T13:9:27Z</time></trkpt>
<trkpt lat="49.1808128356933594" lon="0.2247914075851440"><ele></ele><time>2016-10-9T13:9:30Z</time></trkpt>
<trkpt lat="49.1806068420410156" lon="0.2248370051383972"><ele></ele><time>2016-10-9T13:9:33Z</time></trkpt>
<trkpt lat="49.1804618835449219" lon="0.2248524278402328"><ele></ele><time>2016-10-9T13:9:36Z</time></trkpt>
<trkpt lat="49.1802444458007812" lon="0.2248892337083817"><ele></ele><time>2016-10-9T13:9:39Z</time></trkpt>
<trkpt lat="49.1800422668457031" lon="0.2249320596456528"><ele></ele><time>2016-10-9T13:9:42Z</time></trkpt>
<trkpt lat="49.1798248291015625" lon="0.2249712944030762"><ele></ele><time>2016-10-9T13:9:45Z</time></trkpt>
<trkpt lat="49.1796188354492188" lon="0.2250404357910156"><ele></ele><time>2016-10-9T13:9:48Z</time></trkpt>
<trkpt lat="49.1794319152832031" lon="0.2250835150480270"><ele></ele><time>2016-10-9T13:9:51Z</time></trkpt>
<trkpt lat="49.1792907714843750" lon="0.2251177132129669"><ele></ele><time>2016-10-9T13:9:54Z</time></trkpt>
<trkpt lat="49.1792030334472656" lon="0.2251240909099579"><ele></ele><time>2016-10-9T13:9:57Z</time></trkpt>
<trkpt lat="49.1791954040527344" lon="0.2249152958393097"><ele></ele><time>2016-10-9T13:10:0Z</time></trkpt>
<trkpt lat="49.1792106628417969" lon="0.2247883081436157"><ele></ele><time>2016-10-9T13:10:3Z</time></trkpt>
<trkpt lat="49.1792411804199219" lon="0.2245516926050186"><ele></ele><time>2016-10-9T13:10:6Z</time></trkpt>
<trkpt lat="49.1792640686035156" lon="0.2243254631757736"><ele></ele><time>2016-10-9T13:10:9Z</time></trkpt>
<trkpt lat="49.1792755126953125" lon="0.2240847349166870"><ele></ele><time>2016-10-9T13:10:12Z</time></trkpt>
<trkpt lat="49.1792945861816406" lon="0.2238362133502960"><ele></ele><time>2016-10-9T13:10:15Z</time></trkpt>
<trkpt lat="49.1792831420898438" lon="0.2235753685235977"><ele></ele><time>2016-10-9T13:10:18Z</time></trkpt>
<trkpt lat="49.1792831420898438" lon="0.2233983427286148"><ele></ele><time>2016-10-9T13:10:21Z</time></trkpt>
<trkpt lat="49.1792373657226562" lon="0.2231364101171494"><ele></ele><time>2016-10-9T13:10:24Z</time></trkpt>
<trkpt lat="49.1792373657226562" lon="0.2229532599449158"><ele></ele><time>2016-10-9T13:10:27Z</time></trkpt>
<trkpt lat="49.1792221069335938" lon="0.2227776646614075"><ele></ele><time>2016-10-9T13:10:30Z</time></trkpt>
<trkpt lat="49.1792068481445312" lon="0.2226430475711823"><ele></ele><time>2016-10-9T13:10:33Z</time></trkpt>
<trkpt lat="49.1791763305664062" lon="0.2223896682262421"><ele></ele><time>2016-10-9T13:10:36Z</time></trkpt>
<trkpt lat="49.1791648864746094" lon="0.2221621721982956"><ele></ele><time>2016-10-9T13:10:39Z</time></trkpt>
<trkpt lat="49.1791534423828125" lon="0.2219425737857819"><ele></ele><time>2016-10-9T13:10:42Z</time></trkpt>
<trkpt lat="49.1791610717773438" lon="0.2217297554016113"><ele></ele><time>2016-10-9T13:10:45Z</time></trkpt>
<trkpt lat="49.1791572570800781" lon="0.2215181887149811"><ele></ele><time>2016-10-9T13:10:48Z</time></trkpt>
<trkpt lat="49.1791534423828125" lon="0.2212948203086853"><ele></ele><time>2016-10-9T13:10:51Z</time></trkpt>
<trkpt lat="49.1791610717773438" lon="0.2210199683904648"><ele></ele><time>2016-10-9T13:10:54Z</time></trkpt>
<trkpt lat="49.1791534423828125" lon="0.2207261919975281"><ele></ele><time>2016-10-9T13:10:57Z</time></trkpt>
<trkpt lat="49.1791191101074219" lon="0.2204260379076004"><ele></ele><time>2016-10-9T13:11:0Z</time></trkpt>
<trkpt lat="49.1791076660156250" lon="0.2202721387147903"><ele></ele><time>2016-10-9T13:11:3Z</time></trkpt>
<trkpt lat="49.1790771484375000" lon="0.2200820446014404"><ele></ele><time>2016-10-9T13:11:6Z</time></trkpt>
<trkpt lat="49.1790504455566406" lon="0.2198602557182312"><ele></ele><time>2016-10-9T13:11:9Z</time></trkpt>
<trkpt lat="49.1790657043457031" lon="0.2197149097919464"><ele></ele><time>2016-10-9T13:11:12Z</time></trkpt>
<trkpt lat="49.1790390014648438" lon="0.2194325327873230"><ele></ele><time>2016-10-9T13:11:15Z</time></trkpt>
<trkpt lat="49.1790275573730469" lon="0.2192243188619614"><ele></ele><time>2016-10-9T13:11:18Z</time></trkpt>
<trkpt lat="49.1790313720703125" lon="0.2190114259719849"><ele></ele><time>2016-10-9T13:11:21Z</time></trkpt>
<trkpt lat="49.1790161132812500" lon="0.2188535034656525"><ele></ele><time>2016-10-9T13:11:24Z</time></trkpt>
<trkpt lat="49.1789932250976562" lon="0.2186899781227112"><ele></ele><time>2016-10-9T13:11:27Z</time></trkpt>
<trkpt lat="49.1789855957031250" lon="0.2185196578502655"><ele></ele><time>2016-10-9T13:11:30Z</time></trkpt>
<trkpt lat="49.1789741516113281" lon="0.2183447182178497"><ele></ele><time>2016-10-9T13:11:33Z</time></trkpt>
<trkpt lat="49.1789665222167969" lon="0.2181136310100555"><ele></ele><time>2016-10-9T13:11:36Z</time></trkpt>
<trkpt lat="49.1789741516113281" lon="0.2179682850837708"><ele></ele><time>2016-10-9T13:11:39Z</time></trkpt>
<trkpt lat="49.1789627075195312" lon="0.2177298218011856"><ele></ele><time>2016-10-9T13:11:42Z</time></trkpt>
<trkpt lat="49.1789436340332031" lon="0.2175315171480179"><ele></ele><time>2016-10-9T13:11:45Z</time></trkpt>
<trkpt lat="49.1789360046386719" lon="0.2173767834901810"><ele></ele><time>2016-10-9T13:11:48Z</time></trkpt>
<trkpt lat="49.1789360046386719" lon="0.2172369658946991"><ele></ele><time>2016-10-9T13:11:51Z</time></trkpt>
<trkpt lat="49.1789207458496094" lon="0.2170431762933731"><ele></ele><time>2016-10-9T13:11:54Z</time></trkpt>
<trkpt lat="49.1789093017578125" lon="0.2168252468109131"><ele></ele><time>2016-10-9T13:11:57Z</time></trkpt>
<trkpt lat="49.1789054870605469" lon="0.2166807502508163"><ele></ele><time>2016-10-9T13:12:0Z</time></trkpt>
<trkpt lat="49.1788978576660156" lon="0.2164715379476547"><ele></ele><time>2016-10-9T13:12:3Z</time></trkpt>
<trkpt lat="49.1788864135742188" lon="0.2162773311138153"><ele></ele><time>2016-10-9T13:12:6Z</time></trkpt>
<trkpt lat="49.1788787841796875" lon="0.2160482555627823"><ele></ele><time>2016-10-9T13:12:9Z</time></trkpt>
<trkpt lat="49.1788787841796875" lon="0.2158882319927216"><ele></ele><time>2016-10-9T13:12:12Z</time></trkpt>
<trkpt lat="49.1788368225097656" lon="0.2156888395547867"><ele></ele><time>2016-10-9T13:12:15Z</time></trkpt>
<trkpt lat="49.1788253784179688" lon="0.2155086249113083"><ele></ele><time>2016-10-9T13:12:18Z</time></trkpt>
<trkpt lat="49.1788291931152344" lon="0.2152672260999680"><ele></ele><time>2016-10-9T13:12:21Z</time></trkpt>
<trkpt lat="49.1788177490234375" lon="0.2150689959526062"><ele></ele><time>2016-10-9T13:12:24Z</time></trkpt>
<trkpt lat="49.1788024902343750" lon="0.2148456126451492"><ele></ele><time>2016-10-9T13:12:27Z</time></trkpt>
<trkpt lat="49.1787910461425781" lon="0.2146357297897339"><ele></ele><time>2016-10-9T13:12:30Z</time></trkpt>
<trkpt lat="49.1787910461425781" lon="0.2145018726587296"><ele></ele><time>2016-10-9T13:12:33Z</time></trkpt>
<trkpt lat="49.1787796020507812" lon="0.2143063992261887"><ele></ele><time>2016-10-9T13:12:36Z</time></trkpt>
<trkpt lat="49.1787605285644531" lon="0.2141200751066208"><ele></ele><time>2016-10-9T13:12:39Z</time></trkpt>
<trkpt lat="49.1787452697753906" lon="0.2139732241630554"><ele></ele><time>2016-10-9T13:12:42Z</time></trkpt>
<trkpt lat="49.1787338256835938" lon="0.2137667834758759"><ele></ele><time>2016-10-9T13:12:45Z</time></trkpt>
<trkpt lat="49.1787338256835938" lon="0.2135721445083618"><ele></ele><time>2016-10-9T13:12:48Z</time></trkpt>
<trkpt lat="49.1787147521972656" lon="0.2134213596582413"><ele></ele><time>2016-10-9T13:12:51Z</time></trkpt>
<trkpt lat="49.1787109375000000" lon="0.2132002413272858"><ele></ele><time>2016-10-9T13:12:54Z</time></trkpt>
<trkpt lat="49.1787071228027344" lon="0.2130690664052963"><ele></ele><time>2016-10-9T13:12:57Z</time></trkpt>
<trkpt lat="49.1787071228027344" lon="0.2127813249826431"><ele></ele><time>2016-10-9T13:13:0Z</time></trkpt>
<trkpt lat="49.1786766052246094" lon="0.2125171273946762"><ele></ele><time>2016-10-9T13:13:3Z</time></trkpt>
<trkpt lat="49.1786766052246094" lon="0.2123062312602997"><ele></ele><time>2016-10-9T13:13:6Z</time></trkpt>
<trkpt lat="49.1786651611328125" lon="0.2121384292840958"><ele></ele><time>2016-10-9T13:13:9Z</time></trkpt>
<trkpt lat="49.1786651611328125" lon="0.2120038121938705"><ele></ele><time>2016-10-9T13:13:12Z</time></trkpt>
<trkpt lat="49.1786537170410156" lon="0.2118414491415024"><ele></ele><time>2016-10-9T13:13:15Z</time></trkpt>
<trkpt lat="49.1786422729492188" lon="0.2116445600986481"><ele></ele><time>2016-10-9T13:13:18Z</time></trkpt>
<trkpt lat="49.1786308288574219" lon="0.2114888280630112"><ele></ele><time>2016-10-9T13:13:21Z</time></trkpt>
<trkpt lat="49.1786117553710938" lon="0.2112878262996674"><ele></ele><time>2016-10-9T13:13:24Z</time></trkpt>
<trkpt lat="49.1786003112792969" lon="0.2111516296863556"><ele></ele><time>2016-10-9T13:13:27Z</time></trkpt>
<trkpt lat="49.1786003112792969" lon="0.2109375447034836"><ele></ele><time>2016-10-9T13:13:30Z</time></trkpt>
<trkpt lat="49.1785850524902344" lon="0.2107124179601669"><ele></ele><time>2016-10-9T13:13:33Z</time></trkpt>
<trkpt lat="49.1785774230957031" lon="0.2105722725391388"><ele></ele><time>2016-10-9T13:13:36Z</time></trkpt>
<trkpt lat="49.1785659790039062" lon="0.2104343920946121"><ele></ele><time>2016-10-9T13:13:39Z</time></trkpt>
<trkpt lat="49.1785469055175781" lon="0.2102287709712982"><ele></ele><time>2016-10-9T13:13:42Z</time></trkpt>
<trkpt lat="49.1785392761230469" lon="0.2100965976715088"><ele></ele><time>2016-10-9T13:13:45Z</time></trkpt>
<trkpt lat="49.1785392761230469" lon="0.2099142819643021"><ele></ele><time>2016-10-9T13:13:48Z</time></trkpt>
<trkpt lat="49.1785316467285156" lon="0.2098056524991989"><ele></ele><time>2016-10-9T13:13:51Z</time></trkpt>
<trkpt lat="49.1785354614257812" lon="0.2097511738538742"><ele></ele><time>2016-10-9T13:13:54Z</time></trkpt>
<trkpt lat="49.1785430908203125" lon="0.2096846252679825"><ele></ele><time>2016-10-9T13:13:57Z</time></trkpt>
<trkpt lat="49.1785469055175781" lon="0.2096507549285889"><ele></ele><time>2016-10-9T13:14:0Z</time></trkpt>
<trkpt lat="49.1785621643066406" lon="0.2096103578805923"><ele></ele><time>2016-10-9T13:14:3Z</time></trkpt>
<trkpt lat="49.1785736083984375" lon="0.2095775008201599"><ele></ele><time>2016-10-9T13:14:6Z</time></trkpt>
<trkpt lat="49.1785774230957031" lon="0.2095143049955368"><ele></ele><time>2016-10-9T13:14:9Z</time></trkpt>
<trkpt lat="49.1785049438476562" lon="0.2095191627740860"><ele></ele><time>2016-10-9T13:14:12Z</time></trkpt>
<trkpt lat="49.1782302856445312" lon="0.2096136361360550"><ele></ele><time>2016-10-9T13:14:15Z</time></trkpt>
<trkpt lat="49.1781425476074219" lon="0.2096443027257919"><ele></ele><time>2016-10-9T13:14:18Z</time></trkpt>
<trkpt lat="49.1780357360839844" lon="0.2096805125474930"><ele></ele><time>2016-10-9T13:14:21Z</time></trkpt>
<trkpt lat="49.1778984069824219" lon="0.2097495049238205"><ele></ele><time>2016-10-9T13:14:24Z</time></trkpt>
<trkpt lat="49.1777954101562500" lon="0.2097794264554977"><ele></ele><time>2016-10-9T13:14:27Z</time></trkpt>
<trkpt lat="49.1776580810546875" lon="0.2098293006420135"><ele></ele><time>2016-10-9T13:14:30Z</time></trkpt>
<trkpt lat="49.1775245666503906" lon="0.2098987847566605"><ele></ele><time>2016-10-9T13:14:33Z</time></trkpt>
<trkpt lat="49.1774368286132812" lon="0.2099417746067047"><ele></ele><time>2016-10-9T13:14:36Z</time></trkpt>
<trkpt lat="49.1773338317871094" lon="0.2100147008895874"><ele></ele><time>2016-10-9T13:14:39Z</time></trkpt>
<trkpt lat="49.1772499084472656" lon="0.2100865393877029"><ele></ele><time>2016-10-9T13:14:42Z</time></trkpt>
<trkpt lat="49.1771697998046875" lon="0.2101315408945084"><ele></ele><time>2016-10-9T13:14:45Z</time></trkpt>
<trkpt lat="49.1770782470703125" lon="0.2101614773273468"><ele></ele><time>2016-10-9T13:14:48Z</time></trkpt>
<trkpt lat="49.1769561767578125" lon="0.2102538347244263"><ele></ele><time>2016-10-9T13:14:51Z</time></trkpt>
<trkpt lat="49.1768493652343750" lon="0.2103031277656555"><ele></ele><time>2016-10-9T13:14:54Z</time></trkpt>
<trkpt lat="49.1767730712890625" lon="0.2103560119867325"><ele></ele><time>2016-10-9T13:14:57Z</time></trkpt>
<trkpt lat="49.1766662597656250" lon="0.2104854285717010"><ele></ele><time>2016-10-9T13:15:0Z</time></trkpt>
<trkpt lat="49.1765556335449219" lon="0.2106025218963623"><ele></ele><time>2016-10-9T13:15:3Z</time></trkpt>
<trkpt lat="49.1764793395996094" lon="0.2106500566005707"><ele></ele><time>2016-10-9T13:15:6Z</time></trkpt>
<trkpt lat="49.1763648986816406" lon="0.2107557505369186"><ele></ele><time>2016-10-9T13:15:9Z</time></trkpt>
<trkpt lat="49.1762542724609375" lon="0.2108317762613297"><ele></ele><time>2016-10-9T13:15:12Z</time></trkpt>
<trkpt lat="49.1761360168457031" lon="0.2109228819608688"><ele></ele><time>2016-10-9T13:15:15Z</time></trkpt>
<trkpt lat="49.1760482788085938" lon="0.2109984010457993"><ele></ele><time>2016-10-9T13:15:18Z</time></trkpt>
<trkpt lat="49.1759223937988281" lon="0.2110887616872787"><ele></ele><time>2016-10-9T13:15:21Z</time></trkpt>
<trkpt lat="49.1757965087890625" lon="0.2111508697271347"><ele></ele><time>2016-10-9T13:15:24Z</time></trkpt>
<trkpt lat="49.1756629943847656" lon="0.2112256437540054"><ele></ele><time>2016-10-9T13:15:27Z</time></trkpt>
<trkpt lat="49.1755714416503906" lon="0.2112753391265869"><ele></ele><time>2016-10-9T13:15:30Z</time></trkpt>
<trkpt lat="49.1754837036132812" lon="0.2113139778375626"><ele></ele><time>2016-10-9T13:15:33Z</time></trkpt>
<trkpt lat="49.1753578186035156" lon="0.2113990634679794"><ele></ele><time>2016-10-9T13:15:36Z</time></trkpt>
<trkpt lat="49.1752319335937500" lon="0.2114665359258652"><ele></ele><time>2016-10-9T13:15:39Z</time></trkpt>
<trkpt lat="49.1751327514648438" lon="0.2115042507648468"><ele></ele><time>2016-10-9T13:15:42Z</time></trkpt>
<trkpt lat="49.1750030517578125" lon="0.2115796953439713"><ele></ele><time>2016-10-9T13:15:45Z</time></trkpt>
<trkpt lat="49.1748580932617188" lon="0.2116326689720154"><ele></ele><time>2016-10-9T13:15:48Z</time></trkpt>
<trkpt lat="49.1747894287109375" lon="0.2116491794586182"><ele></ele><time>2016-10-9T13:15:51Z</time></trkpt>
<trkpt lat="49.1746330261230469" lon="0.2117059230804443"><ele></ele><time>2016-10-9T13:15:54Z</time></trkpt>
<trkpt lat="49.1744956970214844" lon="0.2117936015129089"><ele></ele><time>2016-10-9T13:15:57Z</time></trkpt>
<trkpt lat="49.1743698120117188" lon="0.2118697911500931"><ele></ele><time>2016-10-9T13:16:0Z</time></trkpt>
<trkpt lat="49.1742744445800781" lon="0.2119518518447876"><ele></ele><time>2016-10-9T13:16:3Z</time></trkpt>
<trkpt lat="49.1741714477539062" lon="0.2120187282562256"><ele></ele><time>2016-10-9T13:16:6Z</time></trkpt>
<trkpt lat="49.1740760803222656" lon="0.2120893150568008"><ele></ele><time>2016-10-9T13:16:9Z</time></trkpt>
<trkpt lat="49.1739654541015625" lon="0.2122209817171097"><ele></ele><time>2016-10-9T13:16:12Z</time></trkpt>
<trkpt lat="49.1738586425781250" lon="0.2123270183801651"><ele></ele><time>2016-10-9T13:16:15Z</time></trkpt>
<trkpt lat="49.1737594604492188" lon="0.2123932391405106"><ele></ele><time>2016-10-9T13:16:18Z</time></trkpt>
<trkpt lat="49.1736450195312500" lon="0.2124791443347931"><ele></ele><time>2016-10-9T13:16:21Z</time></trkpt>
<trkpt lat="49.1734924316406250" lon="0.2126268446445465"><ele></ele><time>2016-10-9T13:16:24Z</time></trkpt>
<trkpt lat="49.1733398437500000" lon="0.2127948999404907"><ele></ele><time>2016-10-9T13:16:27Z</time></trkpt>
<trkpt lat="49.1731872558593750" lon="0.2129604369401932"><ele></ele><time>2016-10-9T13:16:30Z</time></trkpt>
<trkpt lat="49.1730766296386719" lon="0.2130834013223648"><ele></ele><time>2016-10-9T13:16:33Z</time></trkpt>
<trkpt lat="49.1729698181152344" lon="0.2131878435611725"><ele></ele><time>2016-10-9T13:16:36Z</time></trkpt>
<trkpt lat="49.1728019714355469" lon="0.2133434116840363"><ele></ele><time>2016-10-9T13:16:39Z</time></trkpt>
<trkpt lat="49.1726951599121094" lon="0.2134676277637482"><ele></ele><time>2016-10-9T13:16:42Z</time></trkpt>
<trkpt lat="49.1725921630859375" lon="0.2135732471942902"><ele></ele><time>2016-10-9T13:16:45Z</time></trkpt>
<trkpt lat="49.1724853515625000" lon="0.2136977165937424"><ele></ele><time>2016-10-9T13:16:48Z</time></trkpt>
<trkpt lat="49.1723175048828125" lon="0.2139137983322144"><ele></ele><time>2016-10-9T13:16:51Z</time></trkpt>
<trkpt lat="49.1722183227539062" lon="0.2140618264675140"><ele></ele><time>2016-10-9T13:16:54Z</time></trkpt>
<trkpt lat="49.1720771789550781" lon="0.2142570316791534"><ele></ele><time>2016-10-9T13:16:57Z</time></trkpt>
<trkpt lat="49.1719436645507812" lon="0.2144235074520111"><ele></ele><time>2016-10-9T13:17:0Z</time></trkpt>
<trkpt lat="49.1718139648437500" lon="0.2146084904670715"><ele></ele><time>2016-10-9T13:17:3Z</time></trkpt>
<trkpt lat="49.1716804504394531" lon="0.2147944867610931"><ele></ele><time>2016-10-9T13:17:6Z</time></trkpt>
<trkpt lat="49.1715583801269531" lon="0.2149749398231506"><ele></ele><time>2016-10-9T13:17:9Z</time></trkpt>
<trkpt lat="49.1715011596679688" lon="0.2151751965284348"><ele></ele><time>2016-10-9T13:17:12Z</time></trkpt>
<trkpt lat="49.1713752746582031" lon="0.2153470963239670"><ele></ele><time>2016-10-9T13:17:15Z</time></trkpt>
<trkpt lat="49.1712837219238281" lon="0.2154626846313477"><ele></ele><time>2016-10-9T13:17:18Z</time></trkpt>
<trkpt lat="49.1712074279785156" lon="0.2155852317810059"><ele></ele><time>2016-10-9T13:17:21Z</time></trkpt>
<trkpt lat="49.1711463928222656" lon="0.2157449126243591"><ele></ele><time>2016-10-9T13:17:24Z</time></trkpt>
<trkpt lat="49.1710281372070312" lon="0.2158704698085785"><ele></ele><time>2016-10-9T13:17:27Z</time></trkpt>
<trkpt lat="49.1709632873535156" lon="0.2159462422132492"><ele></ele><time>2016-10-9T13:17:30Z</time></trkpt>
<trkpt lat="49.1709022521972656" lon="0.2159893214702606"><ele></ele><time>2016-10-9T13:17:33Z</time></trkpt>
<trkpt lat="49.1707725524902344" lon="0.2159763276576996"><ele></ele><time>2016-10-9T13:17:36Z</time></trkpt>
<trkpt lat="49.1706733703613281" lon="0.2159793525934219"><ele></ele><time>2016-10-9T13:17:39Z</time></trkpt>
<trkpt lat="49.1705894470214844" lon="0.2160245329141617"><ele></ele><time>2016-10-9T13:17:42Z</time></trkpt>
<trkpt lat="49.1704635620117188" lon="0.2161693722009659"><ele></ele><time>2016-10-9T13:17:45Z</time></trkpt>
<trkpt lat="49.1704406738281250" lon="0.2162918299436569"><ele></ele><time>2016-10-9T13:17:48Z</time></trkpt>
<trkpt lat="49.1704597473144531" lon="0.2164147943258286"><ele></ele><time>2016-10-9T13:17:51Z</time></trkpt>
<trkpt lat="49.1704101562500000" lon="0.2166091650724411"><ele></ele><time>2016-10-9T13:17:54Z</time></trkpt>
<trkpt lat="49.1703491210937500" lon="0.2167371511459351"><ele></ele><time>2016-10-9T13:17:57Z</time></trkpt>
<trkpt lat="49.1702728271484375" lon="0.2168367356061935"><ele></ele><time>2016-10-9T13:18:0Z</time></trkpt>
<trkpt lat="49.1701469421386719" lon="0.2169954031705856"><ele></ele><time>2016-10-9T13:18:3Z</time></trkpt>
<trkpt lat="49.1699943542480469" lon="0.2171663939952850"><ele></ele><time>2016-10-9T13:18:6Z</time></trkpt>
<trkpt lat="49.1699180603027344" lon="0.2172559201717377"><ele></ele><time>2016-10-9T13:18:9Z</time></trkpt>
<trkpt lat="49.1698417663574219" lon="0.2173549830913544"><ele></ele><time>2016-10-9T13:18:12Z</time></trkpt>
<trkpt lat="49.1697120666503906" lon="0.2175263166427612"><ele></ele><time>2016-10-9T13:18:15Z</time></trkpt>
<trkpt lat="49.1695785522460938" lon="0.2176598310470581"><ele></ele><time>2016-10-9T13:18:18Z</time></trkpt>
<trkpt lat="49.1694869995117188" lon="0.2177679687738419"><ele></ele><time>2016-10-9T13:18:21Z</time></trkpt>
<trkpt lat="49.1693496704101562" lon="0.2178550511598587"><ele></ele><time>2016-10-9T13:18:24Z</time></trkpt>
<trkpt lat="49.1691894531250000" lon="0.2179618328809738"><ele></ele><time>2016-10-9T13:18:27Z</time></trkpt>
<trkpt lat="49.1690368652343750" lon="0.2180544584989548"><ele></ele><time>2016-10-9T13:18:30Z</time></trkpt>
<trkpt lat="49.1689338684082031" lon="0.2181133776903152"><ele></ele><time>2016-10-9T13:18:33Z</time></trkpt>
<trkpt lat="49.1687698364257812" lon="0.2182282209396362"><ele></ele><time>2016-10-9T13:18:36Z</time></trkpt>
<trkpt lat="49.1686096191406250" lon="0.2183155566453934"><ele></ele><time>2016-10-9T13:18:39Z</time></trkpt>
<trkpt lat="49.1684951782226562" lon="0.2183848768472672"><ele></ele><time>2016-10-9T13:18:42Z</time></trkpt>
<trkpt lat="49.1683654785156250" lon="0.2184521853923798"><ele></ele><time>2016-10-9T13:18:45Z</time></trkpt>
<trkpt lat="49.1682472229003906" lon="0.2185117751359940"><ele></ele><time>2016-10-9T13:18:48Z</time></trkpt>
<trkpt lat="49.1681060791015625" lon="0.2185572087764740"><ele></ele><time>2016-10-9T13:18:51Z</time></trkpt>
<trkpt lat="49.1680030822753906" lon="0.2186093330383301"><ele></ele><time>2016-10-9T13:18:54Z</time></trkpt>
<trkpt lat="49.1678695678710938" lon="0.2186694443225861"><ele></ele><time>2016-10-9T13:18:57Z</time></trkpt>
<trkpt lat="49.1677627563476562" lon="0.2187266796827316"><ele></ele><time>2016-10-9T13:19:0Z</time></trkpt>
<trkpt lat="49.1676712036132812" lon="0.2187699377536774"><ele></ele><time>2016-10-9T13:19:3Z</time></trkpt>
<trkpt lat="49.1675224304199219" lon="0.2188232392072678"><ele></ele><time>2016-10-9T13:19:6Z</time></trkpt>
<trkpt lat="49.1673889160156250" lon="0.2188622206449509"><ele></ele><time>2016-10-9T13:19:9Z</time></trkpt>
<trkpt lat="49.1672935485839844" lon="0.2188867777585983"><ele></ele><time>2016-10-9T13:19:12Z</time></trkpt>
<trkpt lat="49.1671409606933594" lon="0.2189451158046722"><ele></ele><time>2016-10-9T13:19:15Z</time></trkpt>
<trkpt lat="49.1669883728027344" lon="0.2190155237913132"><ele></ele><time>2016-10-9T13:19:18Z</time></trkpt>
<trkpt lat="49.1668510437011719" lon="0.2190502285957336"><ele></ele><time>2016-10-9T13:19:21Z</time></trkpt>
<trkpt lat="49.1667137145996094" lon="0.2190784811973572"><ele></ele><time>2016-10-9T13:19:24Z</time></trkpt>
<trkpt lat="49.1665649414062500" lon="0.2191398292779922"><ele></ele><time>2016-10-9T13:19:27Z</time></trkpt>
<trkpt lat="49.1664543151855469" lon="0.2191868573427200"><ele></ele><time>2016-10-9T13:19:30Z</time></trkpt>
<trkpt lat="49.1663589477539062" lon="0.2192250788211823"><ele></ele><time>2016-10-9T13:19:33Z</time></trkpt>
<trkpt lat="49.1662292480468750" lon="0.2192704230546951"><ele></ele><time>2016-10-9T13:19:36Z</time></trkpt>
<trkpt lat="49.1661338806152344" lon="0.2193025201559067"><ele></ele><time>2016-10-9T13:19:39Z</time></trkpt>
<trkpt lat="49.1660003662109375" lon="0.2193421721458435"><ele></ele><time>2016-10-9T13:19:42Z</time></trkpt>
<trkpt lat="49.1659126281738281" lon="0.2193670570850372"><ele></ele><time>2016-10-9T13:19:45Z</time></trkpt>
<trkpt lat="49.1657752990722656" lon="0.2194236367940903"><ele></ele><time>2016-10-9T13:19:48Z</time></trkpt>
<trkpt lat="49.1656341552734375" lon="0.2194925397634506"><ele></ele><time>2016-10-9T13:19:51Z</time></trkpt>
<trkpt lat="49.1654891967773438" lon="0.2195543199777603"><ele></ele><time>2016-10-9T13:19:54Z</time></trkpt>
<trkpt lat="49.1653404235839844" lon="0.2196113169193268"><ele></ele><time>2016-10-9T13:19:57Z</time></trkpt>
<trkpt lat="49.1652450561523438" lon="0.2195694893598557"><ele></ele><time>2016-10-9T13:20:0Z</time></trkpt>
<trkpt lat="49.1651115417480469" lon="0.2195771932601929"><ele></ele><time>2016-10-9T13:20:3Z</time></trkpt>
<trkpt lat="49.1650238037109375" lon="0.2195773720741272"><ele></ele><time>2016-10-9T13:20:6Z</time></trkpt>
<trkpt lat="49.1648941040039062" lon="0.2196017503738403"><ele></ele><time>2016-10-9T13:20:9Z</time></trkpt>
<trkpt lat="49.1647644042968750" lon="0.2196521311998367"><ele></ele><time>2016-10-9T13:20:12Z</time></trkpt>
<trkpt lat="49.1646003723144531" lon="0.2196759432554245"><ele></ele><time>2016-10-9T13:20:15Z</time></trkpt>
<trkpt lat="49.1645050048828125" lon="0.2197356969118118"><ele></ele><time>2016-10-9T13:20:18Z</time></trkpt>
<trkpt lat="49.1644058227539062" lon="0.2197782844305038"><ele></ele><time>2016-10-9T13:20:21Z</time></trkpt>
<trkpt lat="49.1642913818359375" lon="0.2197546362876892"><ele></ele><time>2016-10-9T13:20:24Z</time></trkpt>
<trkpt lat="49.1642265319824219" lon="0.2196989059448242"><ele></ele><time>2016-10-9T13:20:27Z</time></trkpt>
<trkpt lat="49.1641235351562500" lon="0.2197169214487076"><ele></ele><time>2016-10-9T13:20:30Z</time></trkpt>
<trkpt lat="49.1640357971191406" lon="0.2197354435920715"><ele></ele><time>2016-10-9T13:20:33Z</time></trkpt>
<trkpt lat="49.1639022827148438" lon="0.2197709828615189"><ele></ele><time>2016-10-9T13:20:36Z</time></trkpt>
<trkpt lat="49.1638031005859375" lon="0.2197378724813461"><ele></ele><time>2016-10-9T13:20:39Z</time></trkpt>
<trkpt lat="49.1637191772460938" lon="0.2197559773921967"><ele></ele><time>2016-10-9T13:20:42Z</time></trkpt>
<trkpt lat="49.1635589599609375" lon="0.2198030054569244"><ele></ele><time>2016-10-9T13:20:45Z</time></trkpt>
<trkpt lat="49.1634254455566406" lon="0.2198539674282074"><ele></ele><time>2016-10-9T13:20:48Z</time></trkpt>
<trkpt lat="49.1632843017578125" lon="0.2198335230350494"><ele></ele><time>2016-10-9T13:20:51Z</time></trkpt>
<trkpt lat="49.1631851196289062" lon="0.2198320925235748"><ele></ele><time>2016-10-9T13:20:54Z</time></trkpt>
<trkpt lat="49.1630401611328125" lon="0.2198561429977417"><ele></ele><time>2016-10-9T13:20:57Z</time></trkpt>
<trkpt lat="49.1628913879394531" lon="0.2198957055807114"><ele></ele><time>2016-10-9T13:21:0Z</time></trkpt>
<trkpt lat="49.1627349853515625" lon="0.2199070304632187"><ele></ele><time>2016-10-9T13:21:3Z</time></trkpt>
<trkpt lat="49.1625747680664062" lon="0.2199283093214035"><ele></ele><time>2016-10-9T13:21:6Z</time></trkpt>
<trkpt lat="49.1624679565429688" lon="0.2199223637580872"><ele></ele><time>2016-10-9T13:21:9Z</time></trkpt>
<trkpt lat="49.1623039245605469" lon="0.2199445813894272"><ele></ele><time>2016-10-9T13:21:12Z</time></trkpt>
<trkpt lat="49.1622161865234375" lon="0.2199565619230270"><ele></ele><time>2016-10-9T13:21:15Z</time></trkpt>
<trkpt lat="49.1620674133300781" lon="0.2199923545122147"><ele></ele><time>2016-10-9T13:21:18Z</time></trkpt>
<trkpt lat="49.1619644165039062" lon="0.2200099527835846"><ele></ele><time>2016-10-9T13:21:21Z</time></trkpt>
<trkpt lat="49.1618576049804688" lon="0.2200221121311188"><ele></ele><time>2016-10-9T13:21:24Z</time></trkpt>
<trkpt lat="49.1617126464843750" lon="0.2200672924518585"><ele></ele><time>2016-10-9T13:21:27Z</time></trkpt>
<trkpt lat="49.1616210937500000" lon="0.2200849801301956"><ele></ele><time>2016-10-9T13:21:30Z</time></trkpt>
<trkpt lat="49.1615219116210938" lon="0.2200976312160492"><ele></ele><time>2016-10-9T13:21:33Z</time></trkpt>
<trkpt lat="49.1613464355468750" lon="0.2201505154371262"><ele></ele><time>2016-10-9T13:21:36Z</time></trkpt>
<trkpt lat="49.1612548828125000" lon="0.2201945185661316"><ele></ele><time>2016-10-9T13:21:39Z</time></trkpt>
<trkpt lat="49.1611633300781250" lon="0.2202228605747223"><ele></ele><time>2016-10-9T13:21:42Z</time></trkpt>
<trkpt lat="49.1610374450683594" lon="0.2202853858470917"><ele></ele><time>2016-10-9T13:21:45Z</time></trkpt>
<trkpt lat="49.1608924865722656" lon="0.2203723937273026"><ele></ele><time>2016-10-9T13:21:48Z</time></trkpt>
<trkpt lat="49.1608047485351562" lon="0.2204445600509644"><ele></ele><time>2016-10-9T13:21:51Z</time></trkpt>
<trkpt lat="49.1606788635253906" lon="0.2205803394317627"><ele></ele><time>2016-10-9T13:21:54Z</time></trkpt>
<trkpt lat="49.1605224609375000" lon="0.2207345664501190"><ele></ele><time>2016-10-9T13:21:57Z</time></trkpt>
<trkpt lat="49.1604309082031250" lon="0.2207991182804108"><ele></ele><time>2016-10-9T13:22:0Z</time></trkpt>
<trkpt lat="49.1603393554687500" lon="0.2208545953035355"><ele></ele><time>2016-10-9T13:22:3Z</time></trkpt>
<trkpt lat="49.1602249145507812" lon="0.2209202349185944"><ele></ele><time>2016-10-9T13:22:6Z</time></trkpt>
<trkpt lat="49.1600914001464844" lon="0.2210250049829483"><ele></ele><time>2016-10-9T13:22:9Z</time></trkpt>
<trkpt lat="49.1599693298339844" lon="0.2210903763771057"><ele></ele><time>2016-10-9T13:22:12Z</time></trkpt>
<trkpt lat="49.1598968505859375" lon="0.2211773097515106"><ele></ele><time>2016-10-9T13:22:15Z</time></trkpt>
<trkpt lat="49.1597442626953125" lon="0.2212658971548080"><ele></ele><time>2016-10-9T13:22:18Z</time></trkpt>
<trkpt lat="49.1596183776855469" lon="0.2214119136333466"><ele></ele><time>2016-10-9T13:22:21Z</time></trkpt>
<trkpt lat="49.1594657897949219" lon="0.2215072959661484"><ele></ele><time>2016-10-9T13:22:24Z</time></trkpt>
<trkpt lat="49.1593437194824219" lon="0.2216055393218994"><ele></ele><time>2016-10-9T13:22:27Z</time></trkpt>
<trkpt lat="49.1592483520507812" lon="0.2216830700635910"><ele></ele><time>2016-10-9T13:22:30Z</time></trkpt>
<trkpt lat="49.1591567993164062" lon="0.2217497080564499"><ele></ele><time>2016-10-9T13:22:33Z</time></trkpt>
<trkpt lat="49.1590614318847656" lon="0.2218235433101654"><ele></ele><time>2016-10-9T13:22:36Z</time></trkpt>
<trkpt lat="49.1589355468750000" lon="0.2219025045633316"><ele></ele><time>2016-10-9T13:22:39Z</time></trkpt>
<trkpt lat="49.1588058471679688" lon="0.2219848185777664"><ele></ele><time>2016-10-9T13:22:42Z</time></trkpt>
<trkpt lat="49.1587066650390625" lon="0.2220201939344406"><ele></ele><time>2016-10-9T13:22:45Z</time></trkpt>
<trkpt lat="49.1585578918457031" lon="0.2220482677221298"><ele></ele><time>2016-10-9T13:22:48Z</time></trkpt>
<trkpt lat="49.1584281921386719" lon="0.2220770120620728"><ele></ele><time>2016-10-9T13:22:51Z</time></trkpt>
<trkpt lat="49.1583328247070312" lon="0.2220941185951233"><ele></ele><time>2016-10-9T13:22:54Z</time></trkpt>
<trkpt lat="49.1582107543945312" lon="0.2221092879772186"><ele></ele><time>2016-10-9T13:22:57Z</time></trkpt>
<trkpt lat="49.1581420898437500" lon="0.2221339344978333"><ele></ele><time>2016-10-9T13:23:0Z</time></trkpt>
<trkpt lat="49.1580467224121094" lon="0.2221382111310959"><ele></ele><time>2016-10-9T13:23:3Z</time></trkpt>
<trkpt lat="49.1579895019531250" lon="0.2221556454896927"><ele></ele><time>2016-10-9T13:23:6Z</time></trkpt>
<trkpt lat="49.1579322814941406" lon="0.2221719771623611"><ele></ele><time>2016-10-9T13:23:9Z</time></trkpt>
<trkpt lat="49.1578559875488281" lon="0.2221947014331818"><ele></ele><time>2016-10-9T13:23:12Z</time></trkpt>
<trkpt lat="49.1577835083007812" lon="0.2222097814083099"><ele></ele><time>2016-10-9T13:23:15Z</time></trkpt>
<trkpt lat="49.1577453613281250" lon="0.2222205102443695"><ele></ele><time>2016-10-9T13:23:18Z</time></trkpt>
<trkpt lat="49.1576919555664062" lon="0.2222395390272141"><ele></ele><time>2016-10-9T13:23:21Z</time></trkpt>
<trkpt lat="49.1576385498046875" lon="0.2222581505775452"><ele></ele><time>2016-10-9T13:23:24Z</time></trkpt>
<trkpt lat="49.1576118469238281" lon="0.2222655266523361"><ele></ele><time>2016-10-9T13:23:27Z</time></trkpt>
<trkpt lat="49.1576118469238281" lon="0.2222655266523361"><ele></ele><time>2016-10-9T13:23:30Z</time></trkpt>
<trkpt lat="49.1576080322265625" lon="0.2222396284341812"><ele></ele><time>2016-10-9T13:23:33Z</time></trkpt>
<trkpt lat="49.1575775146484375" lon="0.2222498506307602"><ele></ele><time>2016-10-9T13:23:36Z</time></trkpt>
<trkpt lat="49.1575088500976562" lon="0.2222728133201599"><ele></ele><time>2016-10-9T13:23:39Z</time></trkpt>
<trkpt lat="49.1574363708496094" lon="0.2223152369260788"><ele></ele><time>2016-10-9T13:23:42Z</time></trkpt>
<trkpt lat="49.1573905944824219" lon="0.2223420590162277"><ele></ele><time>2016-10-9T13:23:45Z</time></trkpt>
<trkpt lat="49.1573066711425781" lon="0.2223798483610153"><ele></ele><time>2016-10-9T13:23:48Z</time></trkpt>
<trkpt lat="49.1572380065917969" lon="0.2224075943231583"><ele></ele><time>2016-10-9T13:23:51Z</time></trkpt>
<trkpt lat="49.1571311950683594" lon="0.2224472463130951"><ele></ele><time>2016-10-9T13:23:54Z</time></trkpt>
<trkpt lat="49.1570472717285156" lon="0.2224739789962769"><ele></ele><time>2016-10-9T13:23:57Z</time></trkpt>
<trkpt lat="49.1569595336914062" lon="0.2224979549646378"><ele></ele><time>2016-10-9T13:24:0Z</time></trkpt>
<trkpt lat="49.1568031311035156" lon="0.2225376069545746"><ele></ele><time>2016-10-9T13:24:3Z</time></trkpt>
<trkpt lat="49.1566886901855469" lon="0.2225604802370071"><ele></ele><time>2016-10-9T13:24:6Z</time></trkpt>
<trkpt lat="49.1565246582031250" lon="0.2225705385208130"><ele></ele><time>2016-10-9T13:24:9Z</time></trkpt>
<trkpt lat="49.1563758850097656" lon="0.2225748151540756"><ele></ele><time>2016-10-9T13:24:12Z</time></trkpt>
<trkpt lat="49.1562652587890625" lon="0.2225934267044067"><ele></ele><time>2016-10-9T13:24:15Z</time></trkpt>
<trkpt lat="49.1561698913574219" lon="0.2226608097553253"><ele></ele><time>2016-10-9T13:24:18Z</time></trkpt>
<trkpt lat="49.1560134887695312" lon="0.2227041572332382"><ele></ele><time>2016-10-9T13:24:21Z</time></trkpt>
<trkpt lat="49.1558647155761719" lon="0.2227501720190048"><ele></ele><time>2016-10-9T13:24:24Z</time></trkpt>
<trkpt lat="49.1557693481445312" lon="0.2227822691202164"><ele></ele><time>2016-10-9T13:24:27Z</time></trkpt>
<trkpt lat="49.1556358337402344" lon="0.2228232622146606"><ele></ele><time>2016-10-9T13:24:30Z</time></trkpt>
<trkpt lat="49.1554756164550781" lon="0.2228602170944214"><ele></ele><time>2016-10-9T13:24:33Z</time></trkpt>
<trkpt lat="49.1553153991699219" lon="0.2228795886039734"><ele></ele><time>2016-10-9T13:24:36Z</time></trkpt>
<trkpt lat="49.1551666259765625" lon="0.2229085862636566"><ele></ele><time>2016-10-9T13:24:39Z</time></trkpt>
<trkpt lat="49.1550636291503906" lon="0.2229583710432053"><ele></ele><time>2016-10-9T13:24:42Z</time></trkpt>
<trkpt lat="49.1549606323242188" lon="0.2229889631271362"><ele></ele><time>2016-10-9T13:24:45Z</time></trkpt>
<trkpt lat="49.1548614501953125" lon="0.2230207324028015"><ele></ele><time>2016-10-9T13:24:48Z</time></trkpt>
<trkpt lat="49.1546974182128906" lon="0.2230645716190338"><ele></ele><time>2016-10-9T13:24:51Z</time></trkpt>
<trkpt lat="49.1545295715332031" lon="0.2230959981679916"><ele></ele><time>2016-10-9T13:24:54Z</time></trkpt>
<trkpt lat="49.1543769836425781" lon="0.2231489717960358"><ele></ele><time>2016-10-9T13:24:57Z</time></trkpt>
<trkpt lat="49.1542778015136719" lon="0.2231757193803787"><ele></ele><time>2016-10-9T13:25:0Z</time></trkpt>
<trkpt lat="49.1541252136230469" lon="0.2232092469930649"><ele></ele><time>2016-10-9T13:25:3Z</time></trkpt>
<trkpt lat="49.1540260314941406" lon="0.2232292741537094"><ele></ele><time>2016-10-9T13:25:6Z</time></trkpt>
<trkpt lat="49.1538505554199219" lon="0.2232801616191864"><ele></ele><time>2016-10-9T13:25:9Z</time></trkpt>
<trkpt lat="49.1537437438964844" lon="0.2233064770698547"><ele></ele><time>2016-10-9T13:25:12Z</time></trkpt>
<trkpt lat="49.1536254882812500" lon="0.2234086543321609"><ele></ele><time>2016-10-9T13:25:15Z</time></trkpt>
<trkpt lat="49.1535110473632812" lon="0.2234105765819550"><ele></ele><time>2016-10-9T13:25:18Z</time></trkpt>
<trkpt lat="49.1533546447753906" lon="0.2234888672828674"><ele></ele><time>2016-10-9T13:25:21Z</time></trkpt>
<trkpt lat="49.1532135009765625" lon="0.2235285043716431"><ele></ele><time>2016-10-9T13:25:24Z</time></trkpt>
<trkpt lat="49.1530456542968750" lon="0.2235742807388306"><ele></ele><time>2016-10-9T13:25:27Z</time></trkpt>
<trkpt lat="49.1529006958007812" lon="0.2236271649599075"><ele></ele><time>2016-10-9T13:25:30Z</time></trkpt>
<trkpt lat="49.1527976989746094" lon="0.2236310988664627"><ele></ele><time>2016-10-9T13:25:33Z</time></trkpt>
<trkpt lat="49.1526222229003906" lon="0.2236694097518921"><ele></ele><time>2016-10-9T13:25:36Z</time></trkpt>
<trkpt lat="49.1524925231933594" lon="0.2236509770154953"><ele></ele><time>2016-10-9T13:25:39Z</time></trkpt>
<trkpt lat="49.1523399353027344" lon="0.2237397283315659"><ele></ele><time>2016-10-9T13:25:42Z</time></trkpt>
<trkpt lat="49.1522445678710938" lon="0.2237703353166580"><ele></ele><time>2016-10-9T13:25:45Z</time></trkpt>
<trkpt lat="49.1521568298339844" lon="0.2237732559442520"><ele></ele><time>2016-10-9T13:25:48Z</time></trkpt>
<trkpt lat="49.1520500183105469" lon="0.2238223850727081"><ele></ele><time>2016-10-9T13:25:51Z</time></trkpt>
<trkpt lat="49.1519470214843750" lon="0.2237435132265091"><ele></ele><time>2016-10-9T13:25:54Z</time></trkpt>
<trkpt lat="49.1518554687500000" lon="0.2235894501209259"><ele></ele><time>2016-10-9T13:25:57Z</time></trkpt>
<trkpt lat="49.1517486572265625" lon="0.2234542518854141"><ele></ele><time>2016-10-9T13:26:0Z</time></trkpt>
<trkpt lat="49.1516571044921875" lon="0.2233529090881348"><ele></ele><time>2016-10-9T13:26:3Z</time></trkpt>
<trkpt lat="49.1516036987304688" lon="0.2232135981321335"><ele></ele><time>2016-10-9T13:26:6Z</time></trkpt>
<trkpt lat="49.1514930725097656" lon="0.2230535894632339"><ele></ele><time>2016-10-9T13:26:9Z</time></trkpt>
<trkpt lat="49.1514091491699219" lon="0.2229605466127396"><ele></ele><time>2016-10-9T13:26:12Z</time></trkpt>
<trkpt lat="49.1513481140136719" lon="0.2228678464889526"><ele></ele><time>2016-10-9T13:26:15Z</time></trkpt>
<trkpt lat="49.1512870788574219" lon="0.2227564603090286"><ele></ele><time>2016-10-9T13:26:18Z</time></trkpt>
<trkpt lat="49.1511688232421875" lon="0.2225883156061172"><ele></ele><time>2016-10-9T13:26:21Z</time></trkpt>
<trkpt lat="49.1510772705078125" lon="0.2224303930997849"><ele></ele><time>2016-10-9T13:26:24Z</time></trkpt>
<trkpt lat="49.1509590148925781" lon="0.2222886532545090"><ele></ele><time>2016-10-9T13:26:27Z</time></trkpt>
<trkpt lat="49.1508712768554688" lon="0.2222155630588531"><ele></ele><time>2016-10-9T13:26:30Z</time></trkpt>
<trkpt lat="49.1507759094238281" lon="0.2222090363502502"><ele></ele><time>2016-10-9T13:26:33Z</time></trkpt>
<trkpt lat="49.1506156921386719" lon="0.2222958654165268"><ele></ele><time>2016-10-9T13:26:36Z</time></trkpt>
<trkpt lat="49.1504898071289062" lon="0.2223940193653107"><ele></ele><time>2016-10-9T13:26:39Z</time></trkpt>
<trkpt lat="49.1503677368164062" lon="0.2224589735269547"><ele></ele><time>2016-10-9T13:26:42Z</time></trkpt>
<trkpt lat="49.1502609252929688" lon="0.2225100249052048"><ele></ele><time>2016-10-9T13:26:45Z</time></trkpt>
<trkpt lat="49.1502113342285156" lon="0.2225301414728165"><ele></ele><time>2016-10-9T13:26:48Z</time></trkpt>
<trkpt lat="49.1501693725585938" lon="0.2225551158189774"><ele></ele><time>2016-10-9T13:26:51Z</time></trkpt>
<trkpt lat="49.1501579284667969" lon="0.2225539535284042"><ele></ele><time>2016-10-9T13:26:54Z</time></trkpt>
<trkpt lat="49.1501579284667969" lon="0.2225539535284042"><ele></ele><time>2016-10-9T13:26:57Z</time></trkpt>
</trkseg></trk></gpx>